<?xml version='1.0' encoding='UTF-8'?><gpx version="1.1" creator="JPX - https://github.com/jenetics/jpx" xmlns="http://www.topografix.com/GPX/1/1"><trk><trkseg><trkpt lat="45.326104810116945" lon="9.353959433461503"><ele>77.0</ele><time>2026-04-06T07:48:22Z</time></trkpt><trkpt lat="45.32606641214978" lon="9.354071958344269"><ele>77.0</ele><time>2026-04-06T07:48:25Z</time></trkpt><trkpt lat="45.32600220191831" lon="9.354169992054878"><ele>77.0</ele><time>2026-04-06T07:48:28Z</time></trkpt><trkpt lat="45.325966154644874" lon="9.354252922057812"><ele>77.0</ele><time>2026-04-06T07:48:30Z</time></trkpt><trkpt lat="45.325936754364044" lon="9.354366735239436"><ele>77.0</ele><time>2026-04-06T07:48:32Z</time></trkpt><trkpt lat="45.32590991858274" lon="9.354487441313445"><ele>77.0</ele><time>2026-04-06T07:48:34Z</time></trkpt><trkpt lat="45.325880677548476" lon="9.35460784735656"><ele>77.4</ele><time>2026-04-06T07:48:36Z</time></trkpt><trkpt lat="45.32584731932762" lon="9.354757035324486"><ele>77.80000000000001</ele><time>2026-04-06T07:48:38Z</time></trkpt><trkpt lat="45.325824250866134" lon="9.354913029850895"><ele>78.2</ele><time>2026-04-06T07:48:39.999Z</time></trkpt><trkpt lat="45.32580526757957" lon="9.355040156086885"><ele>78.60000000000001</ele><time>2026-04-06T07:48:41.999Z</time></trkpt><trkpt lat="45.3257475105321" lon="9.35509438560843"><ele>79.0</ele><time>2026-04-06T07:48:44.999Z</time></trkpt><trkpt lat="45.325677197984824" lon="9.35498184994936"><ele>79.0</ele><time>2026-04-06T07:48:46.999Z</time></trkpt><trkpt lat="45.3256283731229" lon="9.354897461767894"><ele>79.0</ele><time>2026-04-06T07:48:47.999Z</time></trkpt><trkpt lat="45.325581291117665" lon="9.35483774713729"><ele>79.0</ele><time>2026-04-06T07:48:48.999Z</time></trkpt><trkpt lat="45.325528743774896" lon="9.354725263787381"><ele>79.0</ele><time>2026-04-06T07:48:50.999Z</time></trkpt><trkpt lat="45.32544288494425" lon="9.354798329295559"><ele>79.0</ele><time>2026-04-06T07:48:51.999Z</time></trkpt><trkpt lat="45.32538266910089" lon="9.354911536064153"><ele>79.0</ele><time>2026-04-06T07:48:52.999Z</time></trkpt><trkpt lat="45.32529430723185" lon="9.354985002503957"><ele>78.8</ele><time>2026-04-06T07:48:53.999Z</time></trkpt><trkpt lat="45.32521932835469" lon="9.355067352230439"><ele>78.60000000000001</ele><time>2026-04-06T07:48:54.999Z</time></trkpt><trkpt lat="45.325129624133496" lon="9.355150167673044"><ele>78.4</ele><time>2026-04-06T07:48:55.999Z</time></trkpt><trkpt lat="45.325039147551514" lon="9.355232855525763"><ele>78.2</ele><time>2026-04-06T07:48:56.999Z</time></trkpt><trkpt lat="45.32495436109956" lon="9.355314141985362"><ele>78.0</ele><time>2026-04-06T07:48:57.999Z</time></trkpt><trkpt lat="45.32487566382149" lon="9.355386661217826"><ele>78.0</ele><time>2026-04-06T07:48:58.999Z</time></trkpt><trkpt lat="45.32480793645369" lon="9.355456678615825"><ele>78.0</ele><time>2026-04-06T07:48:59.999Z</time></trkpt><trkpt lat="45.32473997741504" lon="9.355512530888037"><ele>78.0</ele><time>2026-04-06T07:49:00.999Z</time></trkpt><trkpt lat="45.32468279247217" lon="9.355566611265596"><ele>78.0</ele><time>2026-04-06T07:49:01.999Z</time></trkpt><trkpt lat="45.32470854318961" lon="9.355758565665221"><ele>78.0</ele><time>2026-04-06T07:49:02.999Z</time></trkpt><trkpt lat="45.32471786801762" lon="9.35588177182407"><ele>78.5</ele><time>2026-04-06T07:49:03.999Z</time></trkpt><trkpt lat="45.324735585972974" lon="9.355996736057842"><ele>79.0</ele><time>2026-04-06T07:49:04.999Z</time></trkpt><trkpt lat="45.32474697336216" lon="9.356106309595829"><ele>79.5</ele><time>2026-04-06T07:49:05.999Z</time></trkpt><trkpt lat="45.324762078551494" lon="9.356206543828245"><ele>80.0</ele><time>2026-04-06T07:49:06.999Z</time></trkpt><trkpt lat="45.3247829969917" lon="9.356308511564976"><ele>80.5</ele><time>2026-04-06T07:49:07.999Z</time></trkpt><trkpt lat="45.32479834802237" lon="9.356412951266167"><ele>81.0</ele><time>2026-04-06T07:49:08.999Z</time></trkpt><trkpt lat="45.32480964264865" lon="9.356536659181216"><ele>82.0</ele><time>2026-04-06T07:49:09.999Z</time></trkpt><trkpt lat="45.32482434571935" lon="9.356659854793074"><ele>83.0</ele><time>2026-04-06T07:49:10.999Z</time></trkpt><trkpt lat="45.32483847391212" lon="9.356787973762216"><ele>84.0</ele><time>2026-04-06T07:49:11.999Z</time></trkpt><trkpt lat="45.32484439173817" lon="9.356916136512826"><ele>85.0</ele><time>2026-04-06T07:49:12.999Z</time></trkpt><trkpt lat="45.32485721822949" lon="9.35705519423228"><ele>86.0</ele><time>2026-04-06T07:49:13.999Z</time></trkpt><trkpt lat="45.324868719775445" lon="9.357189177219682"><ele>86.19999999999999</ele><time>2026-04-06T07:49:14.999Z</time></trkpt><trkpt lat="45.324885907705685" lon="9.357336396516716"><ele>86.39999999999999</ele><time>2026-04-06T07:49:15.999Z</time></trkpt><trkpt lat="45.32488491540317" lon="9.357473061041963"><ele>86.6</ele><time>2026-04-06T07:49:16.999Z</time></trkpt><trkpt lat="45.32490434964493" lon="9.357607095165813"><ele>86.8</ele><time>2026-04-06T07:49:17.999Z</time></trkpt><trkpt lat="45.32492476032433" lon="9.357733643146712"><ele>87.0</ele><time>2026-04-06T07:49:18.999Z</time></trkpt><trkpt lat="45.324950292112916" lon="9.357843622409792"><ele>87.0</ele><time>2026-04-06T07:49:19.999Z</time></trkpt><trkpt lat="45.32497912572697" lon="9.357942156620174"><ele>87.0</ele><time>2026-04-06T07:49:20.999Z</time></trkpt><trkpt lat="45.32500040860825" lon="9.3580307753968"><ele>87.0</ele><time>2026-04-06T07:49:21.999Z</time></trkpt><trkpt lat="45.32499394378551" lon="9.358181427838026"><ele>87.0</ele><time>2026-04-06T07:49:23.999Z</time></trkpt><trkpt lat="45.32497519316318" lon="9.358365301065065"><ele>87.0</ele><time>2026-04-06T07:49:25.999Z</time></trkpt><trkpt lat="45.324978373810765" lon="9.358472369956191"><ele>86.8</ele><time>2026-04-06T07:49:26.999Z</time></trkpt><trkpt lat="45.32498795669316" lon="9.358600696176813"><ele>86.6</ele><time>2026-04-06T07:49:27.999Z</time></trkpt><trkpt lat="45.32500396778595" lon="9.358737272822664"><ele>86.39999999999999</ele><time>2026-04-06T07:49:28.999Z</time></trkpt><trkpt lat="45.32501561515244" lon="9.358873295333794"><ele>86.19999999999999</ele><time>2026-04-06T07:49:29.999Z</time></trkpt><trkpt lat="45.325028560329834" lon="9.359008881919525"><ele>86.0</ele><time>2026-04-06T07:49:30.999Z</time></trkpt><trkpt lat="45.32502951028741" lon="9.359137381048487"><ele>86.0</ele><time>2026-04-06T07:49:31.999Z</time></trkpt><trkpt lat="45.32503818251474" lon="9.359272233604308"><ele>86.0</ele><time>2026-04-06T07:49:32.999Z</time></trkpt><trkpt lat="45.32504424644947" lon="9.35940537278861"><ele>86.0</ele><time>2026-04-06T07:49:33.999Z</time></trkpt><trkpt lat="45.325047423069584" lon="9.359551397582363"><ele>86.0</ele><time>2026-04-06T07:49:34.999Z</time></trkpt><trkpt lat="45.32505105762638" lon="9.359695184833896"><ele>86.0</ele><time>2026-04-06T07:49:35.999Z</time></trkpt><trkpt lat="45.32506681348859" lon="9.359832835265408"><ele>86.0</ele><time>2026-04-06T07:49:36.999Z</time></trkpt><trkpt lat="45.32508073934171" lon="9.359965201722682"><ele>86.0</ele><time>2026-04-06T07:49:37.999Z</time></trkpt><trkpt lat="45.32509317362891" lon="9.360093164517536"><ele>86.0</ele><time>2026-04-06T07:49:38.999Z</time></trkpt><trkpt lat="45.32510354581506" lon="9.360203312833935"><ele>86.0</ele><time>2026-04-06T07:49:39.999Z</time></trkpt><trkpt lat="45.32511319964257" lon="9.360292267067171"><ele>86.0</ele><time>2026-04-06T07:49:40.999Z</time></trkpt><trkpt lat="45.32514096881558" lon="9.360402298416766"><ele>86.0</ele><time>2026-04-06T07:49:42.999Z</time></trkpt><trkpt lat="45.325263240877995" lon="9.360453927710621"><ele>86.0</ele><time>2026-04-06T07:49:49.999Z</time></trkpt><trkpt lat="45.32534932663786" lon="9.360423893921478"><ele>86.0</ele><time>2026-04-06T07:49:50.999Z</time></trkpt><trkpt lat="45.32545131380105" lon="9.360383066516043"><ele>86.0</ele><time>2026-04-06T07:49:51.999Z</time></trkpt><trkpt lat="45.32562204532666" lon="9.360302163399881"><ele>86.0</ele><time>2026-04-06T07:49:52.999Z</time></trkpt><trkpt lat="45.325835642303936" lon="9.360211009237004"><ele>86.0</ele><time>2026-04-06T07:49:53.999Z</time></trkpt><trkpt lat="45.326066246112745" lon="9.36012360803375"><ele>86.0</ele><time>2026-04-06T07:49:54.999Z</time></trkpt><trkpt lat="45.326295990416455" lon="9.360033842451593"><ele>85.0</ele><time>2026-04-06T07:49:55.999Z</time></trkpt><trkpt lat="45.326536380911186" lon="9.359967642121058"><ele>84.0</ele><time>2026-04-06T07:49:56.999Z</time></trkpt><trkpt lat="45.32678708541855" lon="9.359872206936375"><ele>84.0</ele><time>2026-04-06T07:49:57.999Z</time></trkpt><trkpt lat="45.327016226122815" lon="9.359784552860363"><ele>84.0</ele><time>2026-04-06T07:49:58.999Z</time></trkpt><trkpt lat="45.327213481085664" lon="9.359697771820532"><ele>84.0</ele><time>2026-04-06T07:49:59.999Z</time></trkpt><trkpt lat="45.327396509230965" lon="9.359634867317343"><ele>84.33333333333333</ele><time>2026-04-06T07:50:00.999Z</time></trkpt><trkpt lat="45.32756770973688" lon="9.359570462557615"><ele>84.66666666666666</ele><time>2026-04-06T07:50:01.999Z</time></trkpt><trkpt lat="45.327740613587224" lon="9.359503152126095"><ele>85.0</ele><time>2026-04-06T07:50:02.999Z</time></trkpt><trkpt lat="45.32792271863495" lon="9.359431198062223"><ele>85.33333333333333</ele><time>2026-04-06T07:50:03.999Z</time></trkpt><trkpt lat="45.328107218485606" lon="9.359358464793178"><ele>85.66666666666667</ele><time>2026-04-06T07:50:04.999Z</time></trkpt><trkpt lat="45.3282955995773" lon="9.359284448148799"><ele>86.0</ele><time>2026-04-06T07:50:05.999Z</time></trkpt><trkpt lat="45.328486401462264" lon="9.359215017894057"><ele>86.0</ele><time>2026-04-06T07:50:06.999Z</time></trkpt><trkpt lat="45.32867837014186" lon="9.359147967659183"><ele>86.0</ele><time>2026-04-06T07:50:07.999Z</time></trkpt><trkpt lat="45.32886353317643" lon="9.359081435580988"><ele>86.0</ele><time>2026-04-06T07:50:08.999Z</time></trkpt><trkpt lat="45.32905553419581" lon="9.359010659409552"><ele>86.0</ele><time>2026-04-06T07:50:09.999Z</time></trkpt><trkpt lat="45.32924800049823" lon="9.35893487235719"><ele>86.0</ele><time>2026-04-06T07:50:10.999Z</time></trkpt><trkpt lat="45.32944375814806" lon="9.358859279666616"><ele>86.0</ele><time>2026-04-06T07:50:11.999Z</time></trkpt><trkpt lat="45.32964812064015" lon="9.358783170074902"><ele>86.33333333333334</ele><time>2026-04-06T07:50:12.999Z</time></trkpt><trkpt lat="45.3298601924602" lon="9.358713281789727"><ele>86.66666666666667</ele><time>2026-04-06T07:50:13.999Z</time></trkpt><trkpt lat="45.33007432483811" lon="9.358656881079026"><ele>87.0</ele><time>2026-04-06T07:50:14.999Z</time></trkpt><trkpt lat="45.330298537866014" lon="9.35862430726876"><ele>87.0</ele><time>2026-04-06T07:50:15.999Z</time></trkpt><trkpt lat="45.330522145739515" lon="9.358619806487821"><ele>87.0</ele><time>2026-04-06T07:50:16.999Z</time></trkpt><trkpt lat="45.330741999601976" lon="9.358636328678214"><ele>87.0</ele><time>2026-04-06T07:50:17.999Z</time></trkpt><trkpt lat="45.33095206599729" lon="9.35865926462901"><ele>86.33333333333333</ele><time>2026-04-06T07:50:18.999Z</time></trkpt><trkpt lat="45.33115372611312" lon="9.358682142150172"><ele>85.66666666666666</ele><time>2026-04-06T07:50:19.999Z</time></trkpt><trkpt lat="45.33135606488791" lon="9.358696274434841"><ele>85.0</ele><time>2026-04-06T07:50:20.999Z</time></trkpt><trkpt lat="45.33156125899839" lon="9.35868636728472"><ele>85.0</ele><time>2026-04-06T07:50:21.999Z</time></trkpt><trkpt lat="45.33176478419353" lon="9.358646173426363"><ele>85.0</ele><time>2026-04-06T07:50:22.999Z</time></trkpt><trkpt lat="45.33196821326739" lon="9.358578678282242"><ele>85.0</ele><time>2026-04-06T07:50:23.999Z</time></trkpt><trkpt lat="45.33217320266824" lon="9.358503465840673"><ele>85.0</ele><time>2026-04-06T07:50:24.999Z</time></trkpt><trkpt lat="45.3323850413859" lon="9.35843712263747"><ele>85.0</ele><time>2026-04-06T07:50:25.999Z</time></trkpt><trkpt lat="45.33259508459073" lon="9.358370412115871"><ele>85.0</ele><time>2026-04-06T07:50:26.999Z</time></trkpt><trkpt lat="45.332804214201246" lon="9.35830283427234"><ele>85.0</ele><time>2026-04-06T07:50:27.999Z</time></trkpt><trkpt lat="45.33301299464075" lon="9.35823536862763"><ele>85.0</ele><time>2026-04-06T07:50:28.999Z</time></trkpt><trkpt lat="45.33321279136418" lon="9.358150587984195"><ele>85.0</ele><time>2026-04-06T07:50:29.999Z</time></trkpt><trkpt lat="45.33340028677524" lon="9.358026025056889"><ele>84.66666666666666</ele><time>2026-04-06T07:50:30.999Z</time></trkpt><trkpt lat="45.33357859845997" lon="9.357865986022404"><ele>84.33333333333333</ele><time>2026-04-06T07:50:31.999Z</time></trkpt><trkpt lat="45.33375114455669" lon="9.35768498910791"><ele>84.0</ele><time>2026-04-06T07:50:32.999Z</time></trkpt><trkpt lat="45.333922621451265" lon="9.357516511642986"><ele>84.0</ele><time>2026-04-06T07:50:33.999Z</time></trkpt><trkpt lat="45.33410581347358" lon="9.357363623208702"><ele>84.0</ele><time>2026-04-06T07:50:34.999Z</time></trkpt><trkpt lat="45.33431378443932" lon="9.357254024986252"><ele>84.0</ele><time>2026-04-06T07:50:35.999Z</time></trkpt><trkpt lat="45.33452478313569" lon="9.357151551834912"><ele>83.5</ele><time>2026-04-06T07:50:36.999Z</time></trkpt><trkpt lat="45.33474708654791" lon="9.35703771131895"><ele>83.0</ele><time>2026-04-06T07:50:37.999Z</time></trkpt><trkpt lat="45.33496493593624" lon="9.3569578086386"><ele>83.0</ele><time>2026-04-06T07:50:38.999Z</time></trkpt><trkpt lat="45.33517812926152" lon="9.35688224744362"><ele>83.0</ele><time>2026-04-06T07:50:39.999Z</time></trkpt><trkpt lat="45.33538342103997" lon="9.356809119667119"><ele>83.0</ele><time>2026-04-06T07:50:40.999Z</time></trkpt><trkpt lat="45.33559440896608" lon="9.356733882977972"><ele>83.66666666666667</ele><time>2026-04-06T07:50:41.999Z</time></trkpt><trkpt lat="45.33580858940615" lon="9.35665966080843"><ele>84.33333333333333</ele><time>2026-04-06T07:50:42.999Z</time></trkpt><trkpt lat="45.33602531707718" lon="9.356587494938156"><ele>85.0</ele><time>2026-04-06T07:50:43.999Z</time></trkpt><trkpt lat="45.33624629432779" lon="9.356516686406815"><ele>85.0</ele><time>2026-04-06T07:50:44.999Z</time></trkpt><trkpt lat="45.336464286222046" lon="9.356452589501583"><ele>85.0</ele><time>2026-04-06T07:50:45.999Z</time></trkpt><trkpt lat="45.336676017040965" lon="9.356392046287317"><ele>85.0</ele><time>2026-04-06T07:50:46.999Z</time></trkpt><trkpt lat="45.336877151678884" lon="9.356342860076612"><ele>85.0</ele><time>2026-04-06T07:50:47.999Z</time></trkpt><trkpt lat="45.33707900458213" lon="9.356291760415765"><ele>85.0</ele><time>2026-04-06T07:50:48.999Z</time></trkpt><trkpt lat="45.337277980368015" lon="9.356241074093225"><ele>85.0</ele><time>2026-04-06T07:50:49.999Z</time></trkpt><trkpt lat="45.33748142650259" lon="9.356185282674577"><ele>85.0</ele><time>2026-04-06T07:50:50.999Z</time></trkpt><trkpt lat="45.33768997487224" lon="9.356125319454076"><ele>85.0</ele><time>2026-04-06T07:50:51.999Z</time></trkpt><trkpt lat="45.337899811233385" lon="9.35606263706697"><ele>85.0</ele><time>2026-04-06T07:50:52.999Z</time></trkpt><trkpt lat="45.338101018610814" lon="9.356000117606198"><ele>85.25</ele><time>2026-04-06T07:50:53.999Z</time></trkpt><trkpt lat="45.33826506308027" lon="9.355941846609817"><ele>85.5</ele><time>2026-04-06T07:50:54.999Z</time></trkpt><trkpt lat="45.33838645254176" lon="9.355894051434205"><ele>85.75</ele><time>2026-04-06T07:50:55.999Z</time></trkpt><trkpt lat="45.3384966550742" lon="9.355851300352326"><ele>86.0</ele><time>2026-04-06T07:50:56.999Z</time></trkpt><trkpt lat="45.338626370755925" lon="9.35580862222563"><ele>86.0</ele><time>2026-04-06T07:50:57.999Z</time></trkpt><trkpt lat="45.33876784309878" lon="9.355757463612317"><ele>86.0</ele><time>2026-04-06T07:50:58.999Z</time></trkpt><trkpt lat="45.33892217107178" lon="9.3556942310379"><ele>86.0</ele><time>2026-04-06T07:50:59.999Z</time></trkpt><trkpt lat="45.33908157696038" lon="9.355626986407252"><ele>86.33333333333334</ele><time>2026-04-06T07:51:00.999Z</time></trkpt><trkpt lat="45.33925629679281" lon="9.3555586099745"><ele>86.66666666666667</ele><time>2026-04-06T07:51:01.999Z</time></trkpt><trkpt lat="45.33944312857299" lon="9.355484724786631"><ele>87.0</ele><time>2026-04-06T07:51:02.999Z</time></trkpt><trkpt lat="45.339647571642764" lon="9.355405263264092"><ele>87.66666666666667</ele><time>2026-04-06T07:51:03.999Z</time></trkpt><trkpt lat="45.33985440251927" lon="9.355318883676123"><ele>88.33333333333334</ele><time>2026-04-06T07:51:04.999Z</time></trkpt><trkpt lat="45.34007617710936" lon="9.35522778114446"><ele>89.0</ele><time>2026-04-06T07:51:05.999Z</time></trkpt><trkpt lat="45.34030687219033" lon="9.355132291062322"><ele>89.0</ele><time>2026-04-06T07:51:06.999Z</time></trkpt><trkpt lat="45.34054940344272" lon="9.355033788113605"><ele>89.0</ele><time>2026-04-06T07:51:07.999Z</time></trkpt><trkpt lat="45.34079466487805" lon="9.354931925452865"><ele>87.0</ele><time>2026-04-06T07:51:08.999Z</time></trkpt><trkpt lat="45.3410272706236" lon="9.354834348476645"><ele>85.0</ele><time>2026-04-06T07:51:09.999Z</time></trkpt><trkpt lat="45.34124712425206" lon="9.354744734283225"><ele>85.33333333333333</ele><time>2026-04-06T07:51:10.999Z</time></trkpt><trkpt lat="45.3414555081596" lon="9.35465801634335"><ele>85.66666666666667</ele><time>2026-04-06T07:51:11.999Z</time></trkpt><trkpt lat="45.34165221396678" lon="9.354575741961934"><ele>86.0</ele><time>2026-04-06T07:51:12.999Z</time></trkpt><trkpt lat="45.341841818333386" lon="9.354494675955841"><ele>86.0</ele><time>2026-04-06T07:51:13.999Z</time></trkpt><trkpt lat="45.34201922971602" lon="9.354421618389061"><ele>86.0</ele><time>2026-04-06T07:51:14.999Z</time></trkpt><trkpt lat="45.34219539656762" lon="9.354356883238445"><ele>86.0</ele><time>2026-04-06T07:51:15.999Z</time></trkpt><trkpt lat="45.3423643180033" lon="9.3543112904143"><ele>86.0</ele><time>2026-04-06T07:51:16.999Z</time></trkpt><trkpt lat="45.34251858355964" lon="9.354306423621962"><ele>86.0</ele><time>2026-04-06T07:51:17.999Z</time></trkpt><trkpt lat="45.342651916795575" lon="9.354330914184855"><ele>86.0</ele><time>2026-04-06T07:51:18.999Z</time></trkpt><trkpt lat="45.34276435477744" lon="9.354383673291471"><ele>86.0</ele><time>2026-04-06T07:51:19.999Z</time></trkpt><trkpt lat="45.342853405444295" lon="9.354471950785749"><ele>86.0</ele><time>2026-04-06T07:51:20.999Z</time></trkpt><trkpt lat="45.34293110730307" lon="9.354595137821029"><ele>86.0</ele><time>2026-04-06T07:51:21.999Z</time></trkpt><trkpt lat="45.34301453455522" lon="9.354688586233413"><ele>86.0</ele><time>2026-04-06T07:51:22.999Z</time></trkpt><trkpt lat="45.343123295531754" lon="9.354698368789979"><ele>86.0</ele><time>2026-04-06T07:51:23.999Z</time></trkpt><trkpt lat="45.34325137738994" lon="9.35465336902175"><ele>86.0</ele><time>2026-04-06T07:51:24.999Z</time></trkpt><trkpt lat="45.34339895310236" lon="9.354635840448326"><ele>86.0</ele><time>2026-04-06T07:51:25.999Z</time></trkpt><trkpt lat="45.34355459074062" lon="9.354726701306213"><ele>86.0</ele><time>2026-04-06T07:51:26.999Z</time></trkpt><trkpt lat="45.34370250326599" lon="9.354852391812269"><ele>86.0</ele><time>2026-04-06T07:51:27.999Z</time></trkpt><trkpt lat="45.34381512072123" lon="9.354969726051308"><ele>86.0</ele><time>2026-04-06T07:51:28.999Z</time></trkpt><trkpt lat="45.34391553201786" lon="9.355094900310007"><ele>86.0</ele><time>2026-04-06T07:51:29.999Z</time></trkpt><trkpt lat="45.343985405935506" lon="9.35525726612222"><ele>86.0</ele><time>2026-04-06T07:51:30.999Z</time></trkpt><trkpt lat="45.344033834622294" lon="9.35541605686385"><ele>86.0</ele><time>2026-04-06T07:51:31.999Z</time></trkpt><trkpt lat="45.34412175876101" lon="9.355520723531857"><ele>86.0</ele><time>2026-04-06T07:51:32.999Z</time></trkpt><trkpt lat="45.34424701179756" lon="9.35555590472766"><ele>86.0</ele><time>2026-04-06T07:51:33.999Z</time></trkpt><trkpt lat="45.34438738643412" lon="9.355534799577486"><ele>86.0</ele><time>2026-04-06T07:51:34.999Z</time></trkpt><trkpt lat="45.34453895714004" lon="9.355517807813882"><ele>86.0</ele><time>2026-04-06T07:51:35.999Z</time></trkpt><trkpt lat="45.344687014195664" lon="9.355587050293366"><ele>86.0</ele><time>2026-04-06T07:51:36.999Z</time></trkpt><trkpt lat="45.344836495306694" lon="9.355735608177635"><ele>86.0</ele><time>2026-04-06T07:51:37.998Z</time></trkpt><trkpt lat="45.34497877171694" lon="9.355905066629546"><ele>86.33333333333334</ele><time>2026-04-06T07:51:38.998Z</time></trkpt><trkpt lat="45.345130289690374" lon="9.35606214419898"><ele>86.66666666666667</ele><time>2026-04-06T07:51:39.998Z</time></trkpt><trkpt lat="45.34527098915252" lon="9.356187607585909"><ele>87.0</ele><time>2026-04-06T07:51:40.998Z</time></trkpt><trkpt lat="45.345390077358886" lon="9.35629369046718"><ele>87.0</ele><time>2026-04-06T07:51:41.999Z</time></trkpt><trkpt lat="45.34548724926804" lon="9.356394736793586"><ele>87.0</ele><time>2026-04-06T07:51:42.999Z</time></trkpt><trkpt lat="45.34555649659582" lon="9.3564981851959"><ele>87.0</ele><time>2026-04-06T07:51:43.999Z</time></trkpt><trkpt lat="45.34558757906709" lon="9.35663874771707"><ele>87.0</ele><time>2026-04-06T07:51:44.999Z</time></trkpt><trkpt lat="45.345619795094976" lon="9.356784798489405"><ele>87.0</ele><time>2026-04-06T07:51:45.999Z</time></trkpt><trkpt lat="45.345686000683315" lon="9.356886632972882"><ele>86.8</ele><time>2026-04-06T07:51:46.999Z</time></trkpt><trkpt lat="45.34578099993542" lon="9.356939728455767"><ele>86.6</ele><time>2026-04-06T07:51:47.999Z</time></trkpt><trkpt lat="45.3458873402742" lon="9.356927391950952"><ele>86.39999999999999</ele><time>2026-04-06T07:51:48.999Z</time></trkpt><trkpt lat="45.34596797062019" lon="9.356838938153285"><ele>86.19999999999999</ele><time>2026-04-06T07:51:49.999Z</time></trkpt><trkpt lat="45.3460197120984" lon="9.356698031568419"><ele>86.0</ele><time>2026-04-06T07:51:50.999Z</time></trkpt><trkpt lat="45.346063187904974" lon="9.356525313972904"><ele>86.0</ele><time>2026-04-06T07:51:51.999Z</time></trkpt><trkpt lat="45.346149542699" lon="9.356366670107809"><ele>86.0</ele><time>2026-04-06T07:51:52.999Z</time></trkpt><trkpt lat="45.34628094076617" lon="9.356234156653327"><ele>86.0</ele><time>2026-04-06T07:51:53.999Z</time></trkpt><trkpt lat="45.34643201526903" lon="9.356122599487188"><ele>86.33333333333334</ele><time>2026-04-06T07:51:54.999Z</time></trkpt><trkpt lat="45.34658977942775" lon="9.356012073726081"><ele>86.66666666666667</ele><time>2026-04-06T07:51:55.999Z</time></trkpt><trkpt lat="45.34673909243304" lon="9.355872235648304"><ele>87.0</ele><time>2026-04-06T07:51:56.999Z</time></trkpt><trkpt lat="45.346896624846536" lon="9.355739875356837"><ele>87.0</ele><time>2026-04-06T07:51:57.999Z</time></trkpt><trkpt lat="45.34703876862264" lon="9.35562080526087"><ele>87.0</ele><time>2026-04-06T07:51:58.999Z</time></trkpt><trkpt lat="45.34715682684714" lon="9.355520052933837"><ele>87.0</ele><time>2026-04-06T07:51:59.999Z</time></trkpt><trkpt lat="45.34725867052373" lon="9.355431538224357"><ele>87.0</ele><time>2026-04-06T07:52:00.999Z</time></trkpt><trkpt lat="45.34734293199688" lon="9.355358008040215"><ele>86.6</ele><time>2026-04-06T07:52:01.999Z</time></trkpt><trkpt lat="45.347409346778356" lon="9.35529971178486"><ele>86.19999999999999</ele><time>2026-04-06T07:52:02.999Z</time></trkpt><trkpt lat="45.34750427765239" lon="9.355216385239233"><ele>85.8</ele><time>2026-04-06T07:52:04.999Z</time></trkpt><trkpt lat="45.34758093316711" lon="9.355149423124237"><ele>85.4</ele><time>2026-04-06T07:52:18.999Z</time></trkpt><trkpt lat="45.347655776338804" lon="9.355085015737108"><ele>85.0</ele><time>2026-04-06T07:52:19.999Z</time></trkpt><trkpt lat="45.34776701941546" lon="9.354987522816016"><ele>85.0</ele><time>2026-04-06T07:52:20.999Z</time></trkpt><trkpt lat="45.347923905006354" lon="9.354849001195184"><ele>85.0</ele><time>2026-04-06T07:52:21.999Z</time></trkpt><trkpt lat="45.348086643078474" lon="9.354704695350385"><ele>85.0</ele><time>2026-04-06T07:52:22.999Z</time></trkpt><trkpt lat="45.34820324950109" lon="9.354600607365466"><ele>85.33333333333333</ele><time>2026-04-06T07:52:23.999Z</time></trkpt><trkpt lat="45.34830418326142" lon="9.354509722915445"><ele>85.66666666666666</ele><time>2026-04-06T07:52:24.999Z</time></trkpt><trkpt lat="45.348385549260065" lon="9.354437087598189"><ele>86.0</ele><time>2026-04-06T07:52:25.999Z</time></trkpt><trkpt lat="45.34846898653711" lon="9.35438965878641"><ele>86.33333333333333</ele><time>2026-04-06T07:52:26.999Z</time></trkpt><trkpt lat="45.348533892143955" lon="9.354332090562762"><ele>86.66666666666667</ele><time>2026-04-06T07:52:27.999Z</time></trkpt><trkpt lat="45.34857982796108" lon="9.354263914308357"><ele>87.0</ele><time>2026-04-06T07:52:28.999Z</time></trkpt><trkpt lat="45.3486634714441" lon="9.35418958685149"><ele>87.0</ele><time>2026-04-06T07:52:30.999Z</time></trkpt><trkpt lat="45.34872070418353" lon="9.354138728571488"><ele>87.0</ele><time>2026-04-06T07:52:32.999Z</time></trkpt><trkpt lat="45.34878274582636" lon="9.354157146295693"><ele>87.0</ele><time>2026-04-06T07:52:59.999Z</time></trkpt><trkpt lat="45.348878358883645" lon="9.354074480912837"><ele>87.0</ele><time>2026-04-06T07:53:01.999Z</time></trkpt><trkpt lat="45.34896800705521" lon="9.354007417320114"><ele>87.0</ele><time>2026-04-06T07:53:02.999Z</time></trkpt><trkpt lat="45.34907260655358" lon="9.353928391696929"><ele>87.25</ele><time>2026-04-06T07:53:03.999Z</time></trkpt><trkpt lat="45.34919140305634" lon="9.353855121890364"><ele>87.5</ele><time>2026-04-06T07:53:04.999Z</time></trkpt><trkpt lat="45.34933102205343" lon="9.353790196756695"><ele>87.75</ele><time>2026-04-06T07:53:05.999Z</time></trkpt><trkpt lat="45.34948669645157" lon="9.353733205447398"><ele>88.0</ele><time>2026-04-06T07:53:06.999Z</time></trkpt><trkpt lat="45.34964349565111" lon="9.35368952994389"><ele>87.33333333333333</ele><time>2026-04-06T07:53:07.999Z</time></trkpt><trkpt lat="45.349808278767085" lon="9.353663696648066"><ele>86.66666666666667</ele><time>2026-04-06T07:53:08.999Z</time></trkpt><trkpt lat="45.34998899866061" lon="9.353660229968373"><ele>86.0</ele><time>2026-04-06T07:53:09.999Z</time></trkpt><trkpt lat="45.350177774756986" lon="9.353666077554502"><ele>86.0</ele><time>2026-04-06T07:53:10.999Z</time></trkpt><trkpt lat="45.35040047693125" lon="9.353711567592358"><ele>86.0</ele><time>2026-04-06T07:53:11.999Z</time></trkpt><trkpt lat="45.35064499118581" lon="9.35379587873195"><ele>86.5</ele><time>2026-04-06T07:53:12.999Z</time></trkpt><trkpt lat="45.350891002372386" lon="9.353932901359002"><ele>87.0</ele><time>2026-04-06T07:53:13.999Z</time></trkpt><trkpt lat="45.351133512190984" lon="9.354109752601184"><ele>87.0</ele><time>2026-04-06T07:53:14.999Z</time></trkpt><trkpt lat="45.35136250008533" lon="9.354338470242084"><ele>87.0</ele><time>2026-04-06T07:53:15.999Z</time></trkpt><trkpt lat="45.35158360595673" lon="9.35460926956525"><ele>87.0</ele><time>2026-04-06T07:53:16.999Z</time></trkpt><trkpt lat="45.35178462140497" lon="9.35490676099549"><ele>87.0</ele><time>2026-04-06T07:53:17.999Z</time></trkpt><trkpt lat="45.35197975818552" lon="9.35521585308991"><ele>87.0</ele><time>2026-04-06T07:53:18.999Z</time></trkpt><trkpt lat="45.35217027230521" lon="9.355517172756203"><ele>87.0</ele><time>2026-04-06T07:53:19.999Z</time></trkpt><trkpt lat="45.35238645794805" lon="9.355838983487212"><ele>87.0</ele><time>2026-04-06T07:53:20.999Z</time></trkpt><trkpt lat="45.35261063825911" lon="9.356154352305532"><ele>87.0</ele><time>2026-04-06T07:53:21.999Z</time></trkpt><trkpt lat="45.35283455790513" lon="9.35647119955534"><ele>87.0</ele><time>2026-04-06T07:53:22.999Z</time></trkpt><trkpt lat="45.35306900188313" lon="9.356787013439321"><ele>87.0</ele><time>2026-04-06T07:53:23.999Z</time></trkpt><trkpt lat="45.35330806933983" lon="9.357111482123264"><ele>87.0</ele><time>2026-04-06T07:53:24.999Z</time></trkpt><trkpt lat="45.35355416660363" lon="9.357433053248966"><ele>87.0</ele><time>2026-04-06T07:53:25.999Z</time></trkpt><trkpt lat="45.35380672564423" lon="9.357750695144114"><ele>87.0</ele><time>2026-04-06T07:53:26.999Z</time></trkpt><trkpt lat="45.35406184516145" lon="9.358061994918499"><ele>87.0</ele><time>2026-04-06T07:53:27.999Z</time></trkpt><trkpt lat="45.35431595573492" lon="9.358354809876435"><ele>87.0</ele><time>2026-04-06T07:53:28.999Z</time></trkpt><trkpt lat="45.35455473679362" lon="9.358634406621512"><ele>87.0</ele><time>2026-04-06T07:53:29.999Z</time></trkpt><trkpt lat="45.35479965095229" lon="9.358915277350482"><ele>87.5</ele><time>2026-04-06T07:53:30.999Z</time></trkpt><trkpt lat="45.35504614853773" lon="9.359179247538455"><ele>88.0</ele><time>2026-04-06T07:53:31.999Z</time></trkpt><trkpt lat="45.35528221009308" lon="9.359430445679939"><ele>88.0</ele><time>2026-04-06T07:53:32.999Z</time></trkpt><trkpt lat="45.35551680054334" lon="9.359673675999735"><ele>88.0</ele><time>2026-04-06T07:53:33.999Z</time></trkpt><trkpt lat="45.355743133763774" lon="9.359908759818072"><ele>87.0</ele><time>2026-04-06T07:53:34.999Z</time></trkpt><trkpt lat="45.35596592637533" lon="9.360132631802845"><ele>86.0</ele><time>2026-04-06T07:53:35.999Z</time></trkpt><trkpt lat="45.35618682336876" lon="9.360347829839949"><ele>86.0</ele><time>2026-04-06T07:53:36.999Z</time></trkpt><trkpt lat="45.356415330542376" lon="9.360560226054627"><ele>86.0</ele><time>2026-04-06T07:53:37.999Z</time></trkpt><trkpt lat="45.35664790279757" lon="9.360769410425158"><ele>86.0</ele><time>2026-04-06T07:53:38.999Z</time></trkpt><trkpt lat="45.356879806166326" lon="9.360975073490879"><ele>86.0</ele><time>2026-04-06T07:53:39.999Z</time></trkpt><trkpt lat="45.357119750142616" lon="9.3611773517505"><ele>87.0</ele><time>2026-04-06T07:53:40.999Z</time></trkpt><trkpt lat="45.35736089886626" lon="9.36137596893597"><ele>88.0</ele><time>2026-04-06T07:53:41.999Z</time></trkpt><trkpt lat="45.3575984353784" lon="9.361568097246774"><ele>88.0</ele><time>2026-04-06T07:53:42.999Z</time></trkpt><trkpt lat="45.357838051025226" lon="9.361749750353145"><ele>88.0</ele><time>2026-04-06T07:53:43.999Z</time></trkpt><trkpt lat="45.35807582793837" lon="9.361939223627669"><ele>88.0</ele><time>2026-04-06T07:53:44.999Z</time></trkpt><trkpt lat="45.35831943101792" lon="9.362131782568559"><ele>88.0</ele><time>2026-04-06T07:53:45.999Z</time></trkpt><trkpt lat="45.35856916080784" lon="9.362316824854453"><ele>87.5</ele><time>2026-04-06T07:53:46.999Z</time></trkpt><trkpt lat="45.358823829523004" lon="9.362504023838104"><ele>87.0</ele><time>2026-04-06T07:53:47.999Z</time></trkpt><trkpt lat="45.35907355505916" lon="9.362699042946861"><ele>86.0</ele><time>2026-04-06T07:53:48.999Z</time></trkpt><trkpt lat="45.35932740938086" lon="9.3628930191496"><ele>85.0</ele><time>2026-04-06T07:53:49.999Z</time></trkpt><trkpt lat="45.35958429300448" lon="9.363090432321558"><ele>86.0</ele><time>2026-04-06T07:53:50.999Z</time></trkpt><trkpt lat="45.35984771318534" lon="9.363292710595674"><ele>87.0</ele><time>2026-04-06T07:53:51.999Z</time></trkpt><trkpt lat="45.36011312939577" lon="9.363497634663776"><ele>87.0</ele><time>2026-04-06T07:53:52.999Z</time></trkpt><trkpt lat="45.360381198719125" lon="9.36370216407451"><ele>87.0</ele><time>2026-04-06T07:53:53.999Z</time></trkpt><trkpt lat="45.36064547895705" lon="9.363908010179964"><ele>87.0</ele><time>2026-04-06T07:53:54.999Z</time></trkpt><trkpt lat="45.36090722447414" lon="9.364115658847227"><ele>87.0</ele><time>2026-04-06T07:53:55.999Z</time></trkpt><trkpt lat="45.3611675531633" lon="9.364325754761213"><ele>87.0</ele><time>2026-04-06T07:53:56.999Z</time></trkpt><trkpt lat="45.361416524316496" lon="9.364516897373449"><ele>87.0</ele><time>2026-04-06T07:53:57.999Z</time></trkpt><trkpt lat="45.361648128095" lon="9.36469786119046"><ele>87.0</ele><time>2026-04-06T07:53:58.999Z</time></trkpt><trkpt lat="45.361881946733035" lon="9.364886521910382"><ele>87.0</ele><time>2026-04-06T07:53:59.999Z</time></trkpt><trkpt lat="45.362094333130955" lon="9.36504717044634"><ele>86.5</ele><time>2026-04-06T07:54:00.999Z</time></trkpt><trkpt lat="45.36231374424402" lon="9.365213572672147"><ele>86.0</ele><time>2026-04-06T07:54:02.023Z</time></trkpt><trkpt lat="45.36252109719893" lon="9.365370311459687"><ele>86.0</ele><time>2026-04-06T07:54:03.013Z</time></trkpt><trkpt lat="45.36273907133472" lon="9.3655349214196"><ele>86.0</ele><time>2026-04-06T07:54:04.02Z</time></trkpt><trkpt lat="45.36294285454025" lon="9.365688186439362"><ele>86.5</ele><time>2026-04-06T07:54:05.021Z</time></trkpt><trkpt lat="45.363147214363366" lon="9.365845407313602"><ele>87.0</ele><time>2026-04-06T07:54:06.014Z</time></trkpt><trkpt lat="45.36469459537916" lon="9.367132522174499"><ele>86.5</ele><time>2026-04-06T07:54:11.999Z</time></trkpt><trkpt lat="45.36491219923804" lon="9.367304899816695"><ele>86.0</ele><time>2026-04-06T07:54:12.999Z</time></trkpt><trkpt lat="45.36511691231367" lon="9.367453187945367"><ele>86.0</ele><time>2026-04-06T07:54:13.999Z</time></trkpt><trkpt lat="45.365327610920005" lon="9.367628637911087"><ele>86.0</ele><time>2026-04-06T07:54:14.999Z</time></trkpt><trkpt lat="45.36553307530998" lon="9.367792210701829"><ele>86.0</ele><time>2026-04-06T07:54:15.999Z</time></trkpt><trkpt lat="45.365743490979746" lon="9.367957009883336"><ele>86.0</ele><time>2026-04-06T07:54:16.999Z</time></trkpt><trkpt lat="45.365954161305154" lon="9.368126409528736"><ele>86.5</ele><time>2026-04-06T07:54:18Z</time></trkpt><trkpt lat="45.36616304018517" lon="9.368297498041425"><ele>87.0</ele><time>2026-04-06T07:54:19Z</time></trkpt><trkpt lat="45.36637950634464" lon="9.368470575813879"><ele>87.0</ele><time>2026-04-06T07:54:20Z</time></trkpt><trkpt lat="45.36660561762579" lon="9.368655735618994"><ele>87.0</ele><time>2026-04-06T07:54:21Z</time></trkpt><trkpt lat="45.36682208282052" lon="9.368809921168236"><ele>87.0</ele><time>2026-04-06T07:54:22Z</time></trkpt><trkpt lat="45.36704935130801" lon="9.368976505684277"><ele>87.0</ele><time>2026-04-06T07:54:23Z</time></trkpt><trkpt lat="45.36727740582249" lon="9.369164899057656"><ele>87.5</ele><time>2026-04-06T07:54:24Z</time></trkpt><trkpt lat="45.3675036448892" lon="9.369356299013392"><ele>88.0</ele><time>2026-04-06T07:54:25Z</time></trkpt><trkpt lat="45.36773482110409" lon="9.36953586790978"><ele>88.0</ele><time>2026-04-06T07:54:26Z</time></trkpt><trkpt lat="45.36797427471865" lon="9.369714649642471"><ele>88.0</ele><time>2026-04-06T07:54:27Z</time></trkpt><trkpt lat="45.36821300030389" lon="9.369894757607508"><ele>88.0</ele><time>2026-04-06T07:54:28Z</time></trkpt><trkpt lat="45.36844916519839" lon="9.370086121729225"><ele>88.0</ele><time>2026-04-06T07:54:29Z</time></trkpt><trkpt lat="45.3686849528121" lon="9.370279902686187"><ele>87.5</ele><time>2026-04-06T07:54:30Z</time></trkpt><trkpt lat="45.368923989677384" lon="9.370472607067548"><ele>87.0</ele><time>2026-04-06T07:54:31Z</time></trkpt><trkpt lat="45.369162476259355" lon="9.370675763637323"><ele>87.0</ele><time>2026-04-06T07:54:32Z</time></trkpt><trkpt lat="45.36940695246016" lon="9.370863124158559"><ele>87.0</ele><time>2026-04-06T07:54:33Z</time></trkpt><trkpt lat="45.369659430670126" lon="9.371045414838308"><ele>86.5</ele><time>2026-04-06T07:54:34Z</time></trkpt><trkpt lat="45.36990707887567" lon="9.371239197976797"><ele>86.0</ele><time>2026-04-06T07:54:35Z</time></trkpt><trkpt lat="45.370147384994354" lon="9.371440391916213"><ele>86.0</ele><time>2026-04-06T07:54:36Z</time></trkpt><trkpt lat="45.37038883068425" lon="9.371631005949366"><ele>86.0</ele><time>2026-04-06T07:54:37Z</time></trkpt><trkpt lat="45.37063559942703" lon="9.371811463200945"><ele>86.0</ele><time>2026-04-06T07:54:38Z</time></trkpt><trkpt lat="45.37087544997839" lon="9.371998073422459"><ele>86.0</ele><time>2026-04-06T07:54:39Z</time></trkpt><trkpt lat="45.37110392141982" lon="9.372192201190622"><ele>86.5</ele><time>2026-04-06T07:54:40Z</time></trkpt><trkpt lat="45.371334309239664" lon="9.372362430866543"><ele>87.0</ele><time>2026-04-06T07:54:41Z</time></trkpt><trkpt lat="45.3715646498912" lon="9.372528664307081"><ele>87.5</ele><time>2026-04-06T07:54:42Z</time></trkpt><trkpt lat="45.37179169958169" lon="9.37270672843903"><ele>88.0</ele><time>2026-04-06T07:54:43Z</time></trkpt><trkpt lat="45.372026528137276" lon="9.372883301208425"><ele>87.5</ele><time>2026-04-06T07:54:44Z</time></trkpt><trkpt lat="45.37226225027103" lon="9.373057746052705"><ele>87.0</ele><time>2026-04-06T07:54:45Z</time></trkpt><trkpt lat="45.37250315394596" lon="9.373226013756678"><ele>87.0</ele><time>2026-04-06T07:54:46Z</time></trkpt><trkpt lat="45.372749086615954" lon="9.37338965442801"><ele>87.0</ele><time>2026-04-06T07:54:47Z</time></trkpt><trkpt lat="45.37299676115952" lon="9.37355034741355"><ele>87.5</ele><time>2026-04-06T07:54:48Z</time></trkpt><trkpt lat="45.373247926782454" lon="9.373703539746606"><ele>88.0</ele><time>2026-04-06T07:54:49Z</time></trkpt><trkpt lat="45.37350411059361" lon="9.373853472012877"><ele>88.0</ele><time>2026-04-06T07:54:50Z</time></trkpt><trkpt lat="45.37376083795727" lon="9.373998222729174"><ele>88.0</ele><time>2026-04-06T07:54:51Z</time></trkpt><trkpt lat="45.37401994894965" lon="9.374132221999998"><ele>88.0</ele><time>2026-04-06T07:54:52Z</time></trkpt><trkpt lat="45.37428249161566" lon="9.374260859389649"><ele>88.0</ele><time>2026-04-06T07:54:53Z</time></trkpt><trkpt lat="45.37454566691991" lon="9.374381534376052"><ele>88.5</ele><time>2026-04-06T07:54:54Z</time></trkpt><trkpt lat="45.37480985494609" lon="9.374493690956616"><ele>89.0</ele><time>2026-04-06T07:54:55Z</time></trkpt><trkpt lat="45.3750748434448" lon="9.374604935231824"><ele>88.0</ele><time>2026-04-06T07:54:56Z</time></trkpt><trkpt lat="45.3753404446209" lon="9.374706086676005"><ele>87.0</ele><time>2026-04-06T07:54:57Z</time></trkpt><trkpt lat="45.37560835846794" lon="9.374800376065426"><ele>86.5</ele><time>2026-04-06T07:54:58Z</time></trkpt><trkpt lat="45.3758736621109" lon="9.374888572293758"><ele>86.0</ele><time>2026-04-06T07:54:59Z</time></trkpt><trkpt lat="45.37613996859058" lon="9.374973706262942"><ele>86.5</ele><time>2026-04-06T07:55:00Z</time></trkpt><trkpt lat="45.376403858487514" lon="9.375049730976297"><ele>87.0</ele><time>2026-04-06T07:55:01Z</time></trkpt><trkpt lat="45.376671102162085" lon="9.37511610955239"><ele>87.0</ele><time>2026-04-06T07:55:02Z</time></trkpt><trkpt lat="45.37694036148766" lon="9.375170450619054"><ele>87.0</ele><time>2026-04-06T07:55:03Z</time></trkpt><trkpt lat="45.377207489436465" lon="9.375223073723205"><ele>87.0</ele><time>2026-04-06T07:55:04Z</time></trkpt><trkpt lat="45.37747169545356" lon="9.375271069066658"><ele>87.0</ele><time>2026-04-06T07:55:05Z</time></trkpt><trkpt lat="45.37773664824648" lon="9.375313717615198"><ele>87.0</ele><time>2026-04-06T07:55:06Z</time></trkpt><trkpt lat="45.37800441192014" lon="9.375345229576075"><ele>87.0</ele><time>2026-04-06T07:55:07Z</time></trkpt><trkpt lat="45.37826968943782" lon="9.37537232170518"><ele>86.5</ele><time>2026-04-06T07:55:08Z</time></trkpt><trkpt lat="45.37853379953858" lon="9.375398045823259"><ele>86.0</ele><time>2026-04-06T07:55:09Z</time></trkpt><trkpt lat="45.37879659476618" lon="9.37541361204927"><ele>87.0</ele><time>2026-04-06T07:55:10Z</time></trkpt><trkpt lat="45.37905845873504" lon="9.375425729554843"><ele>88.0</ele><time>2026-04-06T07:55:11Z</time></trkpt><trkpt lat="45.37932282158179" lon="9.375424547124412"><ele>88.0</ele><time>2026-04-06T07:55:12Z</time></trkpt><trkpt lat="45.37958541742668" lon="9.375422096528537"><ele>88.0</ele><time>2026-04-06T07:55:13Z</time></trkpt><trkpt lat="45.379848854132256" lon="9.3754213329076"><ele>88.0</ele><time>2026-04-06T07:55:14Z</time></trkpt><trkpt lat="45.38011131755928" lon="9.375421574348598"><ele>88.0</ele><time>2026-04-06T07:55:15Z</time></trkpt><trkpt lat="45.38037662679446" lon="9.375413427661268"><ele>88.0</ele><time>2026-04-06T07:55:16Z</time></trkpt><trkpt lat="45.38064316634936" lon="9.375404736299721"><ele>88.0</ele><time>2026-04-06T07:55:17Z</time></trkpt><trkpt lat="45.38091040712964" lon="9.375392316236175"><ele>88.0</ele><time>2026-04-06T07:55:18Z</time></trkpt><trkpt lat="45.38117832820284" lon="9.375388989767456"><ele>88.0</ele><time>2026-04-06T07:55:19Z</time></trkpt><trkpt lat="45.38144458263641" lon="9.375384470395405"><ele>88.0</ele><time>2026-04-06T07:55:20Z</time></trkpt><trkpt lat="45.38171573015992" lon="9.375375420933825"><ele>88.0</ele><time>2026-04-06T07:55:21Z</time></trkpt><trkpt lat="45.381984452972574" lon="9.375370174109205"><ele>89.0</ele><time>2026-04-06T07:55:22Z</time></trkpt><trkpt lat="45.382251830504714" lon="9.375363639900844"><ele>90.0</ele><time>2026-04-06T07:55:23Z</time></trkpt><trkpt lat="45.38252045450464" lon="9.375354985741808"><ele>90.0</ele><time>2026-04-06T07:55:24Z</time></trkpt><trkpt lat="45.38279033877504" lon="9.375342847298294"><ele>90.0</ele><time>2026-04-06T07:55:25Z</time></trkpt><trkpt lat="45.38306000125188" lon="9.375335923932452"><ele>90.0</ele><time>2026-04-06T07:55:26Z</time></trkpt><trkpt lat="45.38332755898904" lon="9.37534156517252"><ele>90.0</ele><time>2026-04-06T07:55:27Z</time></trkpt><trkpt lat="45.3835891286651" lon="9.375347277951589"><ele>89.5</ele><time>2026-04-06T07:55:28Z</time></trkpt><trkpt lat="45.383850768829674" lon="9.37534562182672"><ele>89.0</ele><time>2026-04-06T07:55:29Z</time></trkpt><trkpt lat="45.384108225311856" lon="9.375355788459437"><ele>89.0</ele><time>2026-04-06T07:55:30Z</time></trkpt><trkpt lat="45.384364572201356" lon="9.375372717076782"><ele>89.0</ele><time>2026-04-06T07:55:31Z</time></trkpt><trkpt lat="45.3846129233652" lon="9.375393258755032"><ele>87.5</ele><time>2026-04-06T07:55:32Z</time></trkpt><trkpt lat="45.38485749614509" lon="9.37541647701883"><ele>86.0</ele><time>2026-04-06T07:55:33Z</time></trkpt><trkpt lat="45.38509772320707" lon="9.375441430250364"><ele>86.0</ele><time>2026-04-06T07:55:34Z</time></trkpt><trkpt lat="45.385332527734086" lon="9.375473442661725"><ele>86.0</ele><time>2026-04-06T07:55:35Z</time></trkpt><trkpt lat="45.385561894493385" lon="9.375515345004532"><ele>89.0</ele><time>2026-04-06T07:55:36Z</time></trkpt><trkpt lat="45.38578849887429" lon="9.375558201053158"><ele>92.0</ele><time>2026-04-06T07:55:37Z</time></trkpt><trkpt lat="45.38602195772461" lon="9.375599919748817"><ele>92.0</ele><time>2026-04-06T07:55:38Z</time></trkpt><trkpt lat="45.38625626262734" lon="9.375651173415136"><ele>92.0</ele><time>2026-04-06T07:55:39Z</time></trkpt><trkpt lat="45.38649044532438" lon="9.375710576563854"><ele>91.0</ele><time>2026-04-06T07:55:40Z</time></trkpt><trkpt lat="45.38672506597946" lon="9.375778923407116"><ele>90.0</ele><time>2026-04-06T07:55:41Z</time></trkpt><trkpt lat="45.38696509354793" lon="9.375846263681481"><ele>89.5</ele><time>2026-04-06T07:55:42Z</time></trkpt><trkpt lat="45.38720793136843" lon="9.375917589533287"><ele>89.0</ele><time>2026-04-06T07:55:43Z</time></trkpt><trkpt lat="45.38745268427412" lon="9.375994864131433"><ele>89.0</ele><time>2026-04-06T07:55:44Z</time></trkpt><trkpt lat="45.38769690980737" lon="9.376080091691248"><ele>89.0</ele><time>2026-04-06T07:55:45Z</time></trkpt><trkpt lat="45.38793985916858" lon="9.376177565266032"><ele>90.0</ele><time>2026-04-06T07:55:46Z</time></trkpt><trkpt lat="45.38818466992913" lon="9.37628717511472"><ele>91.0</ele><time>2026-04-06T07:55:47Z</time></trkpt><trkpt lat="45.38843055704101" lon="9.376400342363214"><ele>91.0</ele><time>2026-04-06T07:55:48Z</time></trkpt><trkpt lat="45.38867587706577" lon="9.376515413756735"><ele>91.0</ele><time>2026-04-06T07:55:49Z</time></trkpt><trkpt lat="45.388925062934476" lon="9.376631709969947"><ele>91.0</ele><time>2026-04-06T07:55:50Z</time></trkpt><trkpt lat="45.38916788316162" lon="9.376755023151103"><ele>91.0</ele><time>2026-04-06T07:55:51Z</time></trkpt><trkpt lat="45.38941029395463" lon="9.376885585783848"><ele>91.0</ele><time>2026-04-06T07:55:52Z</time></trkpt><trkpt lat="45.38965124236399" lon="9.377028571943628"><ele>91.0</ele><time>2026-04-06T07:55:53Z</time></trkpt><trkpt lat="45.38988400535206" lon="9.377177211344517"><ele>91.5</ele><time>2026-04-06T07:55:54Z</time></trkpt><trkpt lat="45.39012396590631" lon="9.377326739208046"><ele>92.0</ele><time>2026-04-06T07:55:55Z</time></trkpt><trkpt lat="45.390357227394404" lon="9.377485014602449"><ele>92.0</ele><time>2026-04-06T07:55:56Z</time></trkpt><trkpt lat="45.390590431804306" lon="9.377649028808095"><ele>92.0</ele><time>2026-04-06T07:55:57Z</time></trkpt><trkpt lat="45.39082205244443" lon="9.377810746484656"><ele>92.0</ele><time>2026-04-06T07:55:58Z</time></trkpt><trkpt lat="45.39105701192692" lon="9.377987184834637"><ele>92.0</ele><time>2026-04-06T07:55:59Z</time></trkpt><trkpt lat="45.39129526977826" lon="9.378188339858287"><ele>91.0</ele><time>2026-04-06T07:56:00Z</time></trkpt><trkpt lat="45.391533342603125" lon="9.378382277020867"><ele>90.0</ele><time>2026-04-06T07:56:01Z</time></trkpt><trkpt lat="45.39177533910658" lon="9.378585485474915"><ele>90.0</ele><time>2026-04-06T07:56:02Z</time></trkpt><trkpt lat="45.39201745376779" lon="9.37880394420528"><ele>90.0</ele><time>2026-04-06T07:56:03Z</time></trkpt><trkpt lat="45.39225583816637" lon="9.37903379938008"><ele>90.5</ele><time>2026-04-06T07:56:04Z</time></trkpt><trkpt lat="45.39249507698702" lon="9.379271881472496"><ele>91.0</ele><time>2026-04-06T07:56:05Z</time></trkpt><trkpt lat="45.392736406515674" lon="9.379511979897439"><ele>91.5</ele><time>2026-04-06T07:56:06Z</time></trkpt><trkpt lat="45.39298376484938" lon="9.379761528577683"><ele>92.0</ele><time>2026-04-06T07:56:07Z</time></trkpt><trkpt lat="45.393226401644526" lon="9.380020362807523"><ele>91.0</ele><time>2026-04-06T07:56:08Z</time></trkpt><trkpt lat="45.39346365312497" lon="9.380283368281896"><ele>90.0</ele><time>2026-04-06T07:56:09Z</time></trkpt><trkpt lat="45.39370183822935" lon="9.380553831046381"><ele>91.0</ele><time>2026-04-06T07:56:10Z</time></trkpt><trkpt lat="45.393936241897" lon="9.380831539755363"><ele>92.0</ele><time>2026-04-06T07:56:11Z</time></trkpt><trkpt lat="45.39416521150324" lon="9.381112867372945"><ele>91.5</ele><time>2026-04-06T07:56:12Z</time></trkpt><trkpt lat="45.39439470949973" lon="9.381394722493848"><ele>91.0</ele><time>2026-04-06T07:56:13Z</time></trkpt><trkpt lat="45.39462853486354" lon="9.381678259555631"><ele>91.5</ele><time>2026-04-06T07:56:14Z</time></trkpt><trkpt lat="45.39485944059932" lon="9.38196733202519"><ele>92.0</ele><time>2026-04-06T07:56:15Z</time></trkpt><trkpt lat="45.395085036431055" lon="9.382261309422796"><ele>92.0</ele><time>2026-04-06T07:56:16Z</time></trkpt><trkpt lat="45.39530405628129" lon="9.38255933703635"><ele>92.0</ele><time>2026-04-06T07:56:17Z</time></trkpt><trkpt lat="45.39552130386995" lon="9.382858566416475"><ele>92.0</ele><time>2026-04-06T07:56:18Z</time></trkpt><trkpt lat="45.3957380786902" lon="9.383162393050418"><ele>92.0</ele><time>2026-04-06T07:56:19Z</time></trkpt><trkpt lat="45.39594853817726" lon="9.383466888043575"><ele>92.0</ele><time>2026-04-06T07:56:20Z</time></trkpt><trkpt lat="45.396152928814125" lon="9.383770621764434"><ele>92.0</ele><time>2026-04-06T07:56:21Z</time></trkpt><trkpt lat="45.39635158551079" lon="9.384072782198702"><ele>92.0</ele><time>2026-04-06T07:56:22Z</time></trkpt><trkpt lat="45.39654554591953" lon="9.384375558173653"><ele>92.0</ele><time>2026-04-06T07:56:23Z</time></trkpt><trkpt lat="45.39673463170634" lon="9.384681475109435"><ele>92.0</ele><time>2026-04-06T07:56:24Z</time></trkpt><trkpt lat="45.39692167731295" lon="9.38498430517169"><ele>92.0</ele><time>2026-04-06T07:56:25Z</time></trkpt><trkpt lat="45.39710170475811" lon="9.38528921776145"><ele>92.0</ele><time>2026-04-06T07:56:26Z</time></trkpt><trkpt lat="45.39727999541514" lon="9.385591027918677"><ele>92.0</ele><time>2026-04-06T07:56:27Z</time></trkpt><trkpt lat="45.39744664377239" lon="9.385902888180947"><ele>92.0</ele><time>2026-04-06T07:56:28Z</time></trkpt><trkpt lat="45.39762824478867" lon="9.386215144293953"><ele>92.0</ele><time>2026-04-06T07:56:29Z</time></trkpt><trkpt lat="45.39779718108112" lon="9.386532251585248"><ele>92.0</ele><time>2026-04-06T07:56:30Z</time></trkpt><trkpt lat="45.39795966201665" lon="9.386846188062291"><ele>92.0</ele><time>2026-04-06T07:56:31Z</time></trkpt><trkpt lat="45.39812303107941" lon="9.38715907339536"><ele>92.5</ele><time>2026-04-06T07:56:32Z</time></trkpt><trkpt lat="45.39828618270902" lon="9.387471661465"><ele>93.0</ele><time>2026-04-06T07:56:33Z</time></trkpt><trkpt lat="45.39844873714786" lon="9.387786195058307"><ele>93.0</ele><time>2026-04-06T07:56:34Z</time></trkpt><trkpt lat="45.39860918837917" lon="9.388106137911658"><ele>93.0</ele><time>2026-04-06T07:56:35Z</time></trkpt><trkpt lat="45.39876575493599" lon="9.388429106462159"><ele>93.0</ele><time>2026-04-06T07:56:36Z</time></trkpt><trkpt lat="45.39892012226135" lon="9.388751016456709"><ele>93.0</ele><time>2026-04-06T07:56:37Z</time></trkpt><trkpt lat="45.39907282959422" lon="9.389070604803779"><ele>93.0</ele><time>2026-04-06T07:56:38Z</time></trkpt><trkpt lat="45.399225534746506" lon="9.389389885752315"><ele>93.0</ele><time>2026-04-06T07:56:39Z</time></trkpt><trkpt lat="45.39937511291373" lon="9.389712754470011"><ele>93.0</ele><time>2026-04-06T07:56:40Z</time></trkpt><trkpt lat="45.39952295447374" lon="9.39003974184964"><ele>93.0</ele><time>2026-04-06T07:56:41Z</time></trkpt><trkpt lat="45.39967062479556" lon="9.390366720357553"><ele>93.0</ele><time>2026-04-06T07:56:42Z</time></trkpt><trkpt lat="45.39982413045723" lon="9.39069336906196"><ele>93.0</ele><time>2026-04-06T07:56:43Z</time></trkpt><trkpt lat="45.39997945392823" lon="9.391020299840275"><ele>94.0</ele><time>2026-04-06T07:56:44Z</time></trkpt><trkpt lat="45.40013525393547" lon="9.391345997903054"><ele>95.0</ele><time>2026-04-06T07:56:45Z</time></trkpt><trkpt lat="45.40029016226804" lon="9.391671983956876"><ele>95.0</ele><time>2026-04-06T07:56:46Z</time></trkpt><trkpt lat="45.40044247321513" lon="9.391998302176011"><ele>95.0</ele><time>2026-04-06T07:56:47Z</time></trkpt><trkpt lat="45.400595400815654" lon="9.392321814636048"><ele>95.0</ele><time>2026-04-06T07:56:48Z</time></trkpt><trkpt lat="45.40074489824742" lon="9.392646166136023"><ele>95.0</ele><time>2026-04-06T07:56:49Z</time></trkpt><trkpt lat="45.400892838227705" lon="9.392968206805273"><ele>94.0</ele><time>2026-04-06T07:56:50Z</time></trkpt><trkpt lat="45.40104124338478" lon="9.393284399887113"><ele>93.0</ele><time>2026-04-06T07:56:51Z</time></trkpt><trkpt lat="45.401190118047055" lon="9.393598751798462"><ele>93.0</ele><time>2026-04-06T07:56:52Z</time></trkpt><trkpt lat="45.40133918721475" lon="9.393915201549849"><ele>93.0</ele><time>2026-04-06T07:56:53Z</time></trkpt><trkpt lat="45.40148939506729" lon="9.394230995884277"><ele>93.0</ele><time>2026-04-06T07:56:54Z</time></trkpt><trkpt lat="45.4016383537019" lon="9.394549933121082"><ele>93.0</ele><time>2026-04-06T07:56:55Z</time></trkpt><trkpt lat="45.40178422263318" lon="9.394867339582976"><ele>93.5</ele><time>2026-04-06T07:56:56Z</time></trkpt><trkpt lat="45.40192988318054" lon="9.395186746010905"><ele>94.0</ele><time>2026-04-06T07:56:57Z</time></trkpt><trkpt lat="45.40207626303464" lon="9.395503969919234"><ele>94.5</ele><time>2026-04-06T07:56:58Z</time></trkpt><trkpt lat="45.40222385721072" lon="9.395820393144545"><ele>95.0</ele><time>2026-04-06T07:56:59Z</time></trkpt><trkpt lat="45.40236996810132" lon="9.396137273439576"><ele>94.5</ele><time>2026-04-06T07:57:00Z</time></trkpt><trkpt lat="45.402515495601264" lon="9.39645302475279"><ele>94.0</ele><time>2026-04-06T07:57:01Z</time></trkpt><trkpt lat="45.40266438530406" lon="9.39677018351457"><ele>94.0</ele><time>2026-04-06T07:57:02Z</time></trkpt><trkpt lat="45.402812588315314" lon="9.397087678889406"><ele>94.0</ele><time>2026-04-06T07:57:03Z</time></trkpt><trkpt lat="45.40296028526859" lon="9.397406352285497"><ele>94.0</ele><time>2026-04-06T07:57:04Z</time></trkpt><trkpt lat="45.40310619141253" lon="9.397724653252835"><ele>94.0</ele><time>2026-04-06T07:57:05Z</time></trkpt><trkpt lat="45.403253182664976" lon="9.398045047790104"><ele>94.0</ele><time>2026-04-06T07:57:06Z</time></trkpt><trkpt lat="45.40340100778417" lon="9.398363970056916"><ele>94.0</ele><time>2026-04-06T07:57:07Z</time></trkpt><trkpt lat="45.40355036025819" lon="9.398683076096823"><ele>93.5</ele><time>2026-04-06T07:57:08Z</time></trkpt><trkpt lat="45.403699343214214" lon="9.398999748856884"><ele>93.0</ele><time>2026-04-06T07:57:09Z</time></trkpt><trkpt lat="45.4038491621077" lon="9.39931569641522"><ele>93.0</ele><time>2026-04-06T07:57:10Z</time></trkpt><trkpt lat="45.40399549944275" lon="9.399630706752275"><ele>93.0</ele><time>2026-04-06T07:57:11Z</time></trkpt><trkpt lat="45.404141548698995" lon="9.399944127858445"><ele>93.0</ele><time>2026-04-06T07:57:12Z</time></trkpt><trkpt lat="45.404288926294" lon="9.400257684779358"><ele>93.0</ele><time>2026-04-06T07:57:13Z</time></trkpt><trkpt lat="45.40443126873181" lon="9.400571526516648"><ele>93.5</ele><time>2026-04-06T07:57:14Z</time></trkpt><trkpt lat="45.40457495749151" lon="9.400887203297751"><ele>94.0</ele><time>2026-04-06T07:57:15Z</time></trkpt><trkpt lat="45.40472063516971" lon="9.401199186354114"><ele>94.0</ele><time>2026-04-06T07:57:16Z</time></trkpt><trkpt lat="45.40486817407034" lon="9.401511299250549"><ele>94.0</ele><time>2026-04-06T07:57:17Z</time></trkpt><trkpt lat="45.40501345295755" lon="9.401823366839178"><ele>94.0</ele><time>2026-04-06T07:57:18Z</time></trkpt><trkpt lat="45.405156910554744" lon="9.40213645956077"><ele>94.0</ele><time>2026-04-06T07:57:19Z</time></trkpt><trkpt lat="45.40530104210951" lon="9.402450131998005"><ele>94.0</ele><time>2026-04-06T07:57:20Z</time></trkpt><trkpt lat="45.40544463080575" lon="9.402763063866484"><ele>94.0</ele><time>2026-04-06T07:57:21Z</time></trkpt><trkpt lat="45.40559063998506" lon="9.403076797330762"><ele>94.0</ele><time>2026-04-06T07:57:22Z</time></trkpt><trkpt lat="45.405737332287174" lon="9.403390272318177"><ele>94.0</ele><time>2026-04-06T07:57:23Z</time></trkpt><trkpt lat="45.40588357522931" lon="9.403705816009408"><ele>93.0</ele><time>2026-04-06T07:57:24Z</time></trkpt><trkpt lat="45.40603096381136" lon="9.404023910813383"><ele>92.0</ele><time>2026-04-06T07:57:25Z</time></trkpt><trkpt lat="45.406179659974256" lon="9.404345349095612"><ele>91.5</ele><time>2026-04-06T07:57:26Z</time></trkpt><trkpt lat="45.40633526871374" lon="9.404673598708905"><ele>91.0</ele><time>2026-04-06T07:57:27Z</time></trkpt><trkpt lat="45.40648701981012" lon="9.404997807355526"><ele>91.0</ele><time>2026-04-06T07:57:28Z</time></trkpt><trkpt lat="45.40664170862277" lon="9.405327584121075"><ele>91.0</ele><time>2026-04-06T07:57:29Z</time></trkpt><trkpt lat="45.40679768021189" lon="9.405660135225938"><ele>92.0</ele><time>2026-04-06T07:57:30Z</time></trkpt><trkpt lat="45.40695266075817" lon="9.406001104611459"><ele>93.0</ele><time>2026-04-06T07:57:31Z</time></trkpt><trkpt lat="45.407110615404875" lon="9.40632685931024"><ele>94.0</ele><time>2026-04-06T07:57:32Z</time></trkpt><trkpt lat="45.40725958786511" lon="9.406652731507958"><ele>95.0</ele><time>2026-04-06T07:57:33Z</time></trkpt><trkpt lat="45.40740808834756" lon="9.406973576294984"><ele>95.5</ele><time>2026-04-06T07:57:34Z</time></trkpt><trkpt lat="45.40755578036643" lon="9.407293374684743"><ele>96.0</ele><time>2026-04-06T07:57:35Z</time></trkpt><trkpt lat="45.4077019930571" lon="9.407609284201998"><ele>96.0</ele><time>2026-04-06T07:57:36Z</time></trkpt><trkpt lat="45.40784931404961" lon="9.407920315744496"><ele>96.0</ele><time>2026-04-06T07:57:37Z</time></trkpt><trkpt lat="45.40799808288297" lon="9.408227899576923"><ele>95.0</ele><time>2026-04-06T07:57:38Z</time></trkpt><trkpt lat="45.40814559837856" lon="9.408531468444576"><ele>94.0</ele><time>2026-04-06T07:57:39Z</time></trkpt><trkpt lat="45.408290318863656" lon="9.408830254422355"><ele>94.0</ele><time>2026-04-06T07:57:40Z</time></trkpt><trkpt lat="45.408439290158796" lon="9.409128119422933"><ele>94.0</ele><time>2026-04-06T07:57:41Z</time></trkpt><trkpt lat="45.408589686314684" lon="9.409421943965278"><ele>93.5</ele><time>2026-04-06T07:57:42Z</time></trkpt><trkpt lat="45.408745479323336" lon="9.409717142753351"><ele>93.0</ele><time>2026-04-06T07:57:43Z</time></trkpt><trkpt lat="45.408905496807115" lon="9.410011777231777"><ele>93.0</ele><time>2026-04-06T07:57:44Z</time></trkpt><trkpt lat="45.40906912112291" lon="9.41030374188131"><ele>93.0</ele><time>2026-04-06T07:57:45Z</time></trkpt><trkpt lat="45.40923831105767" lon="9.410594105734017"><ele>92.5</ele><time>2026-04-06T07:57:46Z</time></trkpt><trkpt lat="45.4094128229179" lon="9.410884095802851"><ele>92.0</ele><time>2026-04-06T07:57:47Z</time></trkpt><trkpt lat="45.40958955247611" lon="9.411168113798846"><ele>92.5</ele><time>2026-04-06T07:57:48Z</time></trkpt><trkpt lat="45.40977128128276" lon="9.411453351097524"><ele>93.0</ele><time>2026-04-06T07:57:49Z</time></trkpt><trkpt lat="45.40995668369442" lon="9.411734313108568"><ele>93.0</ele><time>2026-04-06T07:57:50Z</time></trkpt><trkpt lat="45.410148045804235" lon="9.412010071047142"><ele>93.0</ele><time>2026-04-06T07:57:51Z</time></trkpt><trkpt lat="45.41034236581389" lon="9.412283898231589"><ele>93.5</ele><time>2026-04-06T07:57:52Z</time></trkpt><trkpt lat="45.410537531897575" lon="9.412557467500005"><ele>94.0</ele><time>2026-04-06T07:57:53Z</time></trkpt><trkpt lat="45.410735934249594" lon="9.412825357267108"><ele>93.5</ele><time>2026-04-06T07:57:54Z</time></trkpt><trkpt lat="45.41093762293828" lon="9.413088239274872"><ele>93.0</ele><time>2026-04-06T07:57:55Z</time></trkpt><trkpt lat="45.411144162940616" lon="9.41335008217178"><ele>93.0</ele><time>2026-04-06T07:57:56Z</time></trkpt><trkpt lat="45.411355156314606" lon="9.41360745802148"><ele>93.0</ele><time>2026-04-06T07:57:57.001Z</time></trkpt><trkpt lat="45.411568454059676" lon="9.41385532255673"><ele>93.5</ele><time>2026-04-06T07:57:58Z</time></trkpt><trkpt lat="45.41178458032394" lon="9.414097384898009"><ele>94.0</ele><time>2026-04-06T07:57:59Z</time></trkpt><trkpt lat="45.41200390646283" lon="9.414336343608905"><ele>94.0</ele><time>2026-04-06T07:58:00Z</time></trkpt><trkpt lat="45.412228460591834" lon="9.414570516779863"><ele>94.0</ele><time>2026-04-06T07:58:01Z</time></trkpt><trkpt lat="45.41245747195996" lon="9.414801416796744"><ele>94.0</ele><time>2026-04-06T07:58:02Z</time></trkpt><trkpt lat="45.41268692328837" lon="9.415030774894914"><ele>94.0</ele><time>2026-04-06T07:58:03Z</time></trkpt><trkpt lat="45.41291843568903" lon="9.415255031233372"><ele>94.0</ele><time>2026-04-06T07:58:04Z</time></trkpt><trkpt lat="45.41315311319093" lon="9.415472379602386"><ele>94.0</ele><time>2026-04-06T07:58:05Z</time></trkpt><trkpt lat="45.41338810905872" lon="9.415678770638287"><ele>94.0</ele><time>2026-04-06T07:58:06Z</time></trkpt><trkpt lat="45.41362449156364" lon="9.415879410377888"><ele>94.0</ele><time>2026-04-06T07:58:07Z</time></trkpt><trkpt lat="45.4138599111273" lon="9.416074519507927"><ele>94.0</ele><time>2026-04-06T07:58:08Z</time></trkpt><trkpt lat="45.4140931354932" lon="9.416266642448319"><ele>94.0</ele><time>2026-04-06T07:58:09Z</time></trkpt><trkpt lat="45.41432817894903" lon="9.416448806505684"><ele>94.0</ele><time>2026-04-06T07:58:10Z</time></trkpt><trkpt lat="45.41456650126434" lon="9.416624668383884"><ele>94.0</ele><time>2026-04-06T07:58:11Z</time></trkpt><trkpt lat="45.41480560911223" lon="9.416793845305682"><ele>94.0</ele><time>2026-04-06T07:58:12Z</time></trkpt><trkpt lat="45.41504373933504" lon="9.416959295561629"><ele>94.0</ele><time>2026-04-06T07:58:13Z</time></trkpt><trkpt lat="45.41528691003718" lon="9.417121821016632"><ele>94.5</ele><time>2026-04-06T07:58:14Z</time></trkpt><trkpt lat="45.415531258129356" lon="9.417275887441132"><ele>95.0</ele><time>2026-04-06T07:58:15Z</time></trkpt><trkpt lat="45.415773029496705" lon="9.417430308148765"><ele>95.0</ele><time>2026-04-06T07:58:16Z</time></trkpt><trkpt lat="45.41600522979159" lon="9.417578547344018"><ele>95.0</ele><time>2026-04-06T07:58:17Z</time></trkpt><trkpt lat="45.41622819332021" lon="9.417724804990698"><ele>95.5</ele><time>2026-04-06T07:58:18Z</time></trkpt><trkpt lat="45.416447942218994" lon="9.417849330998878"><ele>96.0</ele><time>2026-04-06T07:58:19Z</time></trkpt><trkpt lat="45.41666461820937" lon="9.417952975516451"><ele>95.0</ele><time>2026-04-06T07:58:20Z</time></trkpt><trkpt lat="45.416884117234275" lon="9.418054800882803"><ele>94.0</ele><time>2026-04-06T07:58:21Z</time></trkpt><trkpt lat="45.41711154514693" lon="9.418163292480166"><ele>95.0</ele><time>2026-04-06T07:58:22Z</time></trkpt><trkpt lat="45.417337573552764" lon="9.418262010303163"><ele>96.0</ele><time>2026-04-06T07:58:23Z</time></trkpt><trkpt lat="45.41758388426631" lon="9.41837517125561"><ele>96.0</ele><time>2026-04-06T07:58:24Z</time></trkpt><trkpt lat="45.417841162655385" lon="9.418485402885821"><ele>96.0</ele><time>2026-04-06T07:58:25Z</time></trkpt><trkpt lat="45.41809396443159" lon="9.418590653651574"><ele>95.0</ele><time>2026-04-06T07:58:26Z</time></trkpt><trkpt lat="45.418343955925295" lon="9.41870000247764"><ele>94.0</ele><time>2026-04-06T07:58:27Z</time></trkpt><trkpt lat="45.41858847238428" lon="9.418799640525647"><ele>94.0</ele><time>2026-04-06T07:58:28Z</time></trkpt><trkpt lat="45.41882603259531" lon="9.418900319954956"><ele>94.0</ele><time>2026-04-06T07:58:29Z</time></trkpt><trkpt lat="45.419067815889235" lon="9.419006088478396"><ele>94.0</ele><time>2026-04-06T07:58:30Z</time></trkpt><trkpt lat="45.41932029744767" lon="9.419112515181293"><ele>94.0</ele><time>2026-04-06T07:58:31Z</time></trkpt><trkpt lat="45.41957884466642" lon="9.419218027657484"><ele>95.0</ele><time>2026-04-06T07:58:32Z</time></trkpt><trkpt lat="45.41983694869791" lon="9.41931680123933"><ele>96.0</ele><time>2026-04-06T07:58:33Z</time></trkpt><trkpt lat="45.420102067367665" lon="9.419413767456723"><ele>96.0</ele><time>2026-04-06T07:58:34Z</time></trkpt><trkpt lat="45.420362476287366" lon="9.419504558399243"><ele>96.0</ele><time>2026-04-06T07:58:35Z</time></trkpt><trkpt lat="45.420617550514464" lon="9.4195917227707"><ele>96.5</ele><time>2026-04-06T07:58:36Z</time></trkpt><trkpt lat="45.420865931742426" lon="9.419677187977959"><ele>97.0</ele><time>2026-04-06T07:58:37Z</time></trkpt><trkpt lat="45.421117425759974" lon="9.419772966431"><ele>95.5</ele><time>2026-04-06T07:58:38Z</time></trkpt><trkpt lat="45.421365481000024" lon="9.419868353091735"><ele>94.0</ele><time>2026-04-06T07:58:39Z</time></trkpt><trkpt lat="45.421577923856645" lon="9.419939227155574"><ele>94.0</ele><time>2026-04-06T07:58:40Z</time></trkpt><trkpt lat="45.42181519505934" lon="9.420008797407792"><ele>94.0</ele><time>2026-04-06T07:58:41Z</time></trkpt><trkpt lat="45.42206329087613" lon="9.420070517769506"><ele>94.5</ele><time>2026-04-06T07:58:42Z</time></trkpt><trkpt lat="45.422312482868875" lon="9.420132246727517"><ele>95.0</ele><time>2026-04-06T07:58:43Z</time></trkpt><trkpt lat="45.42256313205235" lon="9.420203598070437"><ele>95.0</ele><time>2026-04-06T07:58:44Z</time></trkpt><trkpt lat="45.42279814099733" lon="9.420276834687822"><ele>95.0</ele><time>2026-04-06T07:58:45Z</time></trkpt><trkpt lat="45.42301143378367" lon="9.420343276247849"><ele>95.0</ele><time>2026-04-06T07:58:46Z</time></trkpt><trkpt lat="45.42319525468055" lon="9.420404278830604"><ele>95.0</ele><time>2026-04-06T07:58:47Z</time></trkpt><trkpt lat="45.42332524048201" lon="9.420459650371818"><ele>95.0</ele><time>2026-04-06T07:58:48Z</time></trkpt><trkpt lat="45.42343066135723" lon="9.420524318025373"><ele>95.0</ele><time>2026-04-06T07:58:49Z</time></trkpt><trkpt lat="45.42352715440816" lon="9.420606129141232"><ele>95.0</ele><time>2026-04-06T07:58:50Z</time></trkpt><trkpt lat="45.42362596329233" lon="9.420689690566725"><ele>95.0</ele><time>2026-04-06T07:58:51Z</time></trkpt><trkpt lat="45.42373324008458" lon="9.42074157188239"><ele>95.0</ele><time>2026-04-06T07:58:52Z</time></trkpt><trkpt lat="45.42384550815808" lon="9.420771482963644"><ele>95.0</ele><time>2026-04-06T07:58:53Z</time></trkpt><trkpt lat="45.42394963209411" lon="9.420803143655828"><ele>95.0</ele><time>2026-04-06T07:58:54Z</time></trkpt><trkpt lat="45.424031818660474" lon="9.420831285735439"><ele>95.33333333333334</ele><time>2026-04-06T07:58:55Z</time></trkpt><trkpt lat="45.424104820666834" lon="9.420861339316462"><ele>95.66666666666667</ele><time>2026-04-06T07:58:56Z</time></trkpt><trkpt lat="45.424167077282696" lon="9.420894187712713"><ele>96.0</ele><time>2026-04-06T07:58:57Z</time></trkpt><trkpt lat="45.42422819177456" lon="9.420932733188579"><ele>96.33333333333334</ele><time>2026-04-06T07:58:58Z</time></trkpt><trkpt lat="45.424341496422635" lon="9.421023151872987"><ele>96.66666666666667</ele><time>2026-04-06T07:59:00Z</time></trkpt><trkpt lat="45.42440344843906" lon="9.421092894550535"><ele>97.0</ele><time>2026-04-06T07:59:01Z</time></trkpt><trkpt lat="45.424468272742736" lon="9.421187603506716"><ele>97.00000000000001</ele><time>2026-04-06T07:59:02Z</time></trkpt><trkpt lat="45.424523458796315" lon="9.42128741802337"><ele>97.0</ele><time>2026-04-06T07:59:03Z</time></trkpt><trkpt lat="45.42456939228553" lon="9.42138622576322"><ele>97.0</ele><time>2026-04-06T07:59:04Z</time></trkpt><trkpt lat="45.42463598852556" lon="9.421493111169951"><ele>97.0</ele><time>2026-04-06T07:59:06Z</time></trkpt><trkpt lat="45.42470008012502" lon="9.421511619092872"><ele>97.00000000000001</ele><time>2026-04-06T07:59:08Z</time></trkpt><trkpt lat="45.4247718761693" lon="9.421519229549213"><ele>97.0</ele><time>2026-04-06T07:59:10Z</time></trkpt><trkpt lat="45.42484963953775" lon="9.421535210369594"><ele>97.00000000000001</ele><time>2026-04-06T07:59:12Z</time></trkpt><trkpt lat="45.42490214278202" lon="9.421482442009733"><ele>97.0</ele><time>2026-04-06T07:59:14Z</time></trkpt><trkpt lat="45.424912661841226" lon="9.421381826562936"><ele>97.0</ele><time>2026-04-06T07:59:16Z</time></trkpt><trkpt lat="45.425008733173286" lon="9.42135625500138"><ele>97.0</ele><time>2026-04-06T07:59:19Z</time></trkpt><trkpt lat="45.42509003028143" lon="9.421399171644456"><ele>97.00000000000001</ele><time>2026-04-06T07:59:21Z</time></trkpt><trkpt lat="45.42515314008842" lon="9.421404894446217"><ele>97.0</ele><time>2026-04-06T07:59:26Z</time></trkpt><trkpt lat="45.42522612748926" lon="9.421442118810422"><ele>97.0</ele><time>2026-04-06T07:59:30Z</time></trkpt><trkpt lat="45.42516524374536" lon="9.421414473121889"><ele>97.0</ele><time>2026-04-06T08:01:17Z</time></trkpt><trkpt lat="45.425098331597056" lon="9.421415053399928"><ele>97.0</ele><time>2026-04-06T08:01:23Z</time></trkpt><trkpt lat="45.425035120030586" lon="9.421412972742152"><ele>97.0</ele><time>2026-04-06T08:01:52Z</time></trkpt><trkpt lat="45.42516397346437" lon="9.42158613309936"><ele>97.0</ele><time>2026-04-06T08:09:44Z</time></trkpt><trkpt lat="45.425159705580135" lon="9.421388400407992"><ele>97.0</ele><time>2026-04-06T08:09:46Z</time></trkpt><trkpt lat="45.425181762969416" lon="9.42147634847785"><ele>97.0</ele><time>2026-04-06T08:10:00.993Z</time></trkpt><trkpt lat="45.4252290654509" lon="9.421538653056611"><ele>97.0</ele><time>2026-04-06T08:10:07.995Z</time></trkpt><trkpt lat="45.42530083201319" lon="9.421524003090584"><ele>97.0</ele><time>2026-04-06T08:16:49.002Z</time></trkpt><trkpt lat="45.42549397116095" lon="9.421635436696418"><ele>97.0</ele><time>2026-04-06T08:22:02Z</time></trkpt><trkpt lat="45.42560806627748" lon="9.421611533728383"><ele>97.00000000000001</ele><time>2026-04-06T08:22:04Z</time></trkpt><trkpt lat="45.42567344155367" lon="9.421592076977596"><ele>97.0</ele><time>2026-04-06T08:22:05Z</time></trkpt><trkpt lat="45.42574174832472" lon="9.421574579259351"><ele>97.0</ele><time>2026-04-06T08:22:06Z</time></trkpt><trkpt lat="45.42582148722587" lon="9.42156146249204"><ele>97.0</ele><time>2026-04-06T08:22:07Z</time></trkpt><trkpt lat="45.4259277467975" lon="9.42155284773548"><ele>97.00000000000001</ele><time>2026-04-06T08:22:08Z</time></trkpt><trkpt lat="45.42604286074843" lon="9.42154276454437"><ele>97.0</ele><time>2026-04-06T08:22:09Z</time></trkpt><trkpt lat="45.42616867416318" lon="9.42153412818186"><ele>97.0</ele><time>2026-04-06T08:22:10Z</time></trkpt><trkpt lat="45.42629454303103" lon="9.421556256855379"><ele>97.0</ele><time>2026-04-06T08:22:11Z</time></trkpt><trkpt lat="45.426377215986726" lon="9.42152884381132"><ele>97.0</ele><time>2026-04-06T08:22:12Z</time></trkpt><trkpt lat="45.42647019969568" lon="9.421534096353799"><ele>97.0</ele><time>2026-04-06T08:22:13Z</time></trkpt><trkpt lat="45.42658919326284" lon="9.421554847304833"><ele>97.0</ele><time>2026-04-06T08:22:14Z</time></trkpt><trkpt lat="45.426723732555104" lon="9.421585496907221"><ele>96.5</ele><time>2026-04-06T08:22:15Z</time></trkpt><trkpt lat="45.42685268027203" lon="9.421615199838907"><ele>96.0</ele><time>2026-04-06T08:22:16Z</time></trkpt><trkpt lat="45.42698948735065" lon="9.421651718617229"><ele>95.5</ele><time>2026-04-06T08:22:17Z</time></trkpt><trkpt lat="45.427111428799044" lon="9.42168544899939"><ele>95.0</ele><time>2026-04-06T08:22:18Z</time></trkpt><trkpt lat="45.42726065896823" lon="9.42173401856686"><ele>95.0</ele><time>2026-04-06T08:22:19Z</time></trkpt><trkpt lat="45.42742386333552" lon="9.421782831014351"><ele>95.0</ele><time>2026-04-06T08:22:20Z</time></trkpt><trkpt lat="45.42759670966347" lon="9.421838162778993"><ele>95.0</ele><time>2026-04-06T08:22:21Z</time></trkpt><trkpt lat="45.42779470666951" lon="9.421901511075808"><ele>96.0</ele><time>2026-04-06T08:22:22Z</time></trkpt><trkpt lat="45.42801462601348" lon="9.421975290703163"><ele>97.0</ele><time>2026-04-06T08:22:23Z</time></trkpt><trkpt lat="45.42825435335117" lon="9.422055234026702"><ele>97.0</ele><time>2026-04-06T08:22:24Z</time></trkpt><trkpt lat="45.4284955304655" lon="9.422134771909535"><ele>97.0</ele><time>2026-04-06T08:22:25Z</time></trkpt><trkpt lat="45.42874799063831" lon="9.422212819405772"><ele>97.5</ele><time>2026-04-06T08:22:25.999Z</time></trkpt><trkpt lat="45.429006699904825" lon="9.422291436143498"><ele>98.0</ele><time>2026-04-06T08:22:26.999Z</time></trkpt><trkpt lat="45.42926693365849" lon="9.422375567236124"><ele>98.0</ele><time>2026-04-06T08:22:27.999Z</time></trkpt><trkpt lat="45.42953236786277" lon="9.42246097891679"><ele>98.0</ele><time>2026-04-06T08:22:28.999Z</time></trkpt><trkpt lat="45.429802285732265" lon="9.422556378298523"><ele>97.5</ele><time>2026-04-06T08:22:29.999Z</time></trkpt><trkpt lat="45.43006636674885" lon="9.42264006546374"><ele>97.0</ele><time>2026-04-06T08:22:30.999Z</time></trkpt><trkpt lat="45.43032940706243" lon="9.422720809329793"><ele>97.5</ele><time>2026-04-06T08:22:32Z</time></trkpt><trkpt lat="45.43058705935461" lon="9.422803195026964"><ele>98.0</ele><time>2026-04-06T08:22:33Z</time></trkpt><trkpt lat="45.4308404692671" lon="9.422889184345754"><ele>98.0</ele><time>2026-04-06T08:22:34Z</time></trkpt><trkpt lat="45.431094500117354" lon="9.422976207565819"><ele>98.0</ele><time>2026-04-06T08:22:35Z</time></trkpt><trkpt lat="45.43134159384628" lon="9.42306867021654"><ele>97.5</ele><time>2026-04-06T08:22:36Z</time></trkpt><trkpt lat="45.43159284158715" lon="9.423154056735013"><ele>97.0</ele><time>2026-04-06T08:22:37Z</time></trkpt><trkpt lat="45.43185323933508" lon="9.423233778718258"><ele>97.0</ele><time>2026-04-06T08:22:38Z</time></trkpt><trkpt lat="45.43211359159674" lon="9.423307727424802"><ele>97.0</ele><time>2026-04-06T08:22:39Z</time></trkpt><trkpt lat="45.43237801611791" lon="9.423370202740935"><ele>97.5</ele><time>2026-04-06T08:22:40Z</time></trkpt><trkpt lat="45.432642184633345" lon="9.423438438578643"><ele>98.0</ele><time>2026-04-06T08:22:41Z</time></trkpt><trkpt lat="45.43290337767387" lon="9.423509923567643"><ele>97.5</ele><time>2026-04-06T08:22:42Z</time></trkpt><trkpt lat="45.43317020804917" lon="9.42358392252853"><ele>97.0</ele><time>2026-04-06T08:22:43Z</time></trkpt><trkpt lat="45.43343613680784" lon="9.42365517153773"><ele>97.0</ele><time>2026-04-06T08:22:44Z</time></trkpt><trkpt lat="45.433703557489224" lon="9.423726977682783"><ele>97.0</ele><time>2026-04-06T08:22:45Z</time></trkpt><trkpt lat="45.43397187817409" lon="9.423806924240678"><ele>96.5</ele><time>2026-04-06T08:22:46Z</time></trkpt><trkpt lat="45.43424099405753" lon="9.423888992028697"><ele>96.0</ele><time>2026-04-06T08:22:47Z</time></trkpt><trkpt lat="45.434510190868046" lon="9.423966727079147"><ele>97.0</ele><time>2026-04-06T08:22:48Z</time></trkpt><trkpt lat="45.434781633106944" lon="9.42404916048949"><ele>98.0</ele><time>2026-04-06T08:22:49Z</time></trkpt><trkpt lat="45.435053090298226" lon="9.424129209222686"><ele>98.0</ele><time>2026-04-06T08:22:50Z</time></trkpt><trkpt lat="45.43532487659298" lon="9.424206266043742"><ele>98.0</ele><time>2026-04-06T08:22:51Z</time></trkpt><trkpt lat="45.43559680170355" lon="9.424289433908324"><ele>97.0</ele><time>2026-04-06T08:22:52Z</time></trkpt><trkpt lat="45.435868741876114" lon="9.424372124073278"><ele>96.0</ele><time>2026-04-06T08:22:53Z</time></trkpt><trkpt lat="45.43614178313845" lon="9.424457427608965"><ele>96.0</ele><time>2026-04-06T08:22:54Z</time></trkpt><trkpt lat="45.43641343533993" lon="9.42454617173989"><ele>96.0</ele><time>2026-04-06T08:22:55Z</time></trkpt><trkpt lat="45.436686557669006" lon="9.424635773947294"><ele>96.0</ele><time>2026-04-06T08:22:56Z</time></trkpt><trkpt lat="45.43696013162326" lon="9.424721302032331"><ele>96.0</ele><time>2026-04-06T08:22:57Z</time></trkpt><trkpt lat="45.437232982686595" lon="9.424803860051526"><ele>96.0</ele><time>2026-04-06T08:22:58Z</time></trkpt><trkpt lat="45.43750414405288" lon="9.424889728585695"><ele>96.0</ele><time>2026-04-06T08:22:59Z</time></trkpt><trkpt lat="45.43778080128163" lon="9.42498183048771"><ele>97.0</ele><time>2026-04-06T08:23:00Z</time></trkpt><trkpt lat="45.43805618086534" lon="9.425069737129501"><ele>98.0</ele><time>2026-04-06T08:23:01Z</time></trkpt><trkpt lat="45.43832932357899" lon="9.425154259998486"><ele>98.0</ele><time>2026-04-06T08:23:02Z</time></trkpt><trkpt lat="45.438604414751985" lon="9.425245460554294"><ele>98.0</ele><time>2026-04-06T08:23:03Z</time></trkpt><trkpt lat="45.438878553305" lon="9.425336972246058"><ele>97.5</ele><time>2026-04-06T08:23:04Z</time></trkpt><trkpt lat="45.439151298572135" lon="9.425429545127725"><ele>97.0</ele><time>2026-04-06T08:23:05Z</time></trkpt><trkpt lat="45.43942268736041" lon="9.42552018824636"><ele>97.5</ele><time>2026-04-06T08:23:06Z</time></trkpt><trkpt lat="45.43969595469745" lon="9.425611664632878"><ele>98.0</ele><time>2026-04-06T08:23:07Z</time></trkpt><trkpt lat="45.43996713449544" lon="9.4257039078469"><ele>98.0</ele><time>2026-04-06T08:23:08Z</time></trkpt><trkpt lat="45.44023948850085" lon="9.425789434683335"><ele>98.0</ele><time>2026-04-06T08:23:09Z</time></trkpt><trkpt lat="45.44051092608204" lon="9.425871850655259"><ele>98.0</ele><time>2026-04-06T08:23:10Z</time></trkpt><trkpt lat="45.44078063662654" lon="9.425956844000428"><ele>98.0</ele><time>2026-04-06T08:23:11Z</time></trkpt><trkpt lat="45.441048568454676" lon="9.426044079497366"><ele>98.0</ele><time>2026-04-06T08:23:12Z</time></trkpt><trkpt lat="45.44131354071046" lon="9.426127669343153"><ele>98.0</ele><time>2026-04-06T08:23:13Z</time></trkpt><trkpt lat="45.44157653899522" lon="9.426216205976433"><ele>98.0</ele><time>2026-04-06T08:23:14Z</time></trkpt><trkpt lat="45.44184139790753" lon="9.426307297097226"><ele>98.0</ele><time>2026-04-06T08:23:15Z</time></trkpt><trkpt lat="45.44210179071086" lon="9.42639661838463"><ele>98.0</ele><time>2026-04-06T08:23:16Z</time></trkpt><trkpt lat="45.4423628496121" lon="9.426481416869299"><ele>98.0</ele><time>2026-04-06T08:23:17Z</time></trkpt><trkpt lat="45.442625117048834" lon="9.426565077342392"><ele>98.0</ele><time>2026-04-06T08:23:18Z</time></trkpt><trkpt lat="45.44288504526085" lon="9.426646524796862"><ele>98.0</ele><time>2026-04-06T08:23:19Z</time></trkpt><trkpt lat="45.443146994867206" lon="9.426734958834848"><ele>97.0</ele><time>2026-04-06T08:23:20Z</time></trkpt><trkpt lat="45.44340615083194" lon="9.426820813714633"><ele>96.0</ele><time>2026-04-06T08:23:21Z</time></trkpt><trkpt lat="45.443665401807884" lon="9.426907040410379"><ele>95.5</ele><time>2026-04-06T08:23:22Z</time></trkpt><trkpt lat="45.44392628446318" lon="9.426989556218805"><ele>95.0</ele><time>2026-04-06T08:23:23Z</time></trkpt><trkpt lat="45.44418677544029" lon="9.42707115886977"><ele>95.0</ele><time>2026-04-06T08:23:24Z</time></trkpt><trkpt lat="45.44444895214752" lon="9.427157379264875"><ele>95.0</ele><time>2026-04-06T08:23:25Z</time></trkpt><trkpt lat="45.44471166180737" lon="9.427243763228176"><ele>96.0</ele><time>2026-04-06T08:23:26Z</time></trkpt><trkpt lat="45.44497674914469" lon="9.427330426654638"><ele>97.0</ele><time>2026-04-06T08:23:27Z</time></trkpt><trkpt lat="45.44524216782375" lon="9.42741472565644"><ele>97.5</ele><time>2026-04-06T08:23:28Z</time></trkpt><trkpt lat="45.445507421504914" lon="9.427506579376143"><ele>98.0</ele><time>2026-04-06T08:23:29Z</time></trkpt><trkpt lat="45.44577644113365" lon="9.42759427198154"><ele>98.0</ele><time>2026-04-06T08:23:30Z</time></trkpt><trkpt lat="45.44604789366705" lon="9.427679665499685"><ele>98.0</ele><time>2026-04-06T08:23:31Z</time></trkpt><trkpt lat="45.446320198020494" lon="9.427759514318671"><ele>98.0</ele><time>2026-04-06T08:23:32Z</time></trkpt><trkpt lat="45.446595926812385" lon="9.427844317951761"><ele>98.0</ele><time>2026-04-06T08:23:33Z</time></trkpt><trkpt lat="45.44687298301317" lon="9.427933255785701"><ele>99.5</ele><time>2026-04-06T08:23:34Z</time></trkpt><trkpt lat="45.447149019194704" lon="9.428031211120269"><ele>101.0</ele><time>2026-04-06T08:23:35Z</time></trkpt><trkpt lat="45.4474201008846" lon="9.428129693998734"><ele>101.0</ele><time>2026-04-06T08:23:36Z</time></trkpt><trkpt lat="45.44768200711404" lon="9.42821851397084"><ele>101.0</ele><time>2026-04-06T08:23:37Z</time></trkpt><trkpt lat="45.447943487164004" lon="9.428303914846209"><ele>100.5</ele><time>2026-04-06T08:23:38Z</time></trkpt><trkpt lat="45.4482067388211" lon="9.428392848434989"><ele>100.0</ele><time>2026-04-06T08:23:39Z</time></trkpt><trkpt lat="45.44846713619336" lon="9.428486044012429"><ele>100.0</ele><time>2026-04-06T08:23:40Z</time></trkpt><trkpt lat="45.4487220852852" lon="9.428582068802523"><ele>100.0</ele><time>2026-04-06T08:23:41Z</time></trkpt><trkpt lat="45.44898026401398" lon="9.428681693687414"><ele>100.0</ele><time>2026-04-06T08:23:42Z</time></trkpt><trkpt lat="45.44924244608894" lon="9.428777386678766"><ele>100.0</ele><time>2026-04-06T08:23:43Z</time></trkpt><trkpt lat="45.44950242292542" lon="9.428879263996278"><ele>100.5</ele><time>2026-04-06T08:23:44Z</time></trkpt><trkpt lat="45.449762804659834" lon="9.428983562912538"><ele>101.0</ele><time>2026-04-06T08:23:45Z</time></trkpt><trkpt lat="45.45002424016821" lon="9.429092084176125"><ele>101.0</ele><time>2026-04-06T08:23:46Z</time></trkpt><trkpt lat="45.450287984577756" lon="9.42920237989765"><ele>101.0</ele><time>2026-04-06T08:23:47Z</time></trkpt><trkpt lat="45.45055251711863" lon="9.42932051022442"><ele>101.0</ele><time>2026-04-06T08:23:48Z</time></trkpt><trkpt lat="45.45082007018511" lon="9.429441336663876"><ele>101.0</ele><time>2026-04-06T08:23:49Z</time></trkpt><trkpt lat="45.45108894795429" lon="9.429563578906663"><ele>100.5</ele><time>2026-04-06T08:23:50Z</time></trkpt><trkpt lat="45.45135730112127" lon="9.429688732966003"><ele>100.0</ele><time>2026-04-06T08:23:51Z</time></trkpt><trkpt lat="45.451627841639045" lon="9.429822314383454"><ele>100.0</ele><time>2026-04-06T08:23:52Z</time></trkpt><trkpt lat="45.45189291093523" lon="9.429948057230884"><ele>100.0</ele><time>2026-04-06T08:23:53Z</time></trkpt><trkpt lat="45.45216674954798" lon="9.430084149808579"><ele>100.0</ele><time>2026-04-06T08:23:54Z</time></trkpt><trkpt lat="45.452435273856494" lon="9.430231352553442"><ele>100.0</ele><time>2026-04-06T08:23:55Z</time></trkpt><trkpt lat="45.45270051092978" lon="9.430366605087524"><ele>100.5</ele><time>2026-04-06T08:23:56Z</time></trkpt><trkpt lat="45.45296089067997" lon="9.43050567446445"><ele>101.0</ele><time>2026-04-06T08:23:57Z</time></trkpt><trkpt lat="45.45321676880417" lon="9.430645517832057"><ele>101.0</ele><time>2026-04-06T08:23:58Z</time></trkpt><trkpt lat="45.45346496841376" lon="9.430781322944629"><ele>101.0</ele><time>2026-04-06T08:23:59Z</time></trkpt><trkpt lat="45.453715894472005" lon="9.430916743286723"><ele>101.0</ele><time>2026-04-06T08:24:00Z</time></trkpt><trkpt lat="45.453970227429096" lon="9.431054440049628"><ele>101.0</ele><time>2026-04-06T08:24:01Z</time></trkpt><trkpt lat="45.45422056120355" lon="9.431192877348465"><ele>101.5</ele><time>2026-04-06T08:24:02Z</time></trkpt><trkpt lat="45.454471965216186" lon="9.43133022733618"><ele>102.0</ele><time>2026-04-06T08:24:03Z</time></trkpt><trkpt lat="45.454720059957324" lon="9.431471398428299"><ele>101.0</ele><time>2026-04-06T08:24:04Z</time></trkpt><trkpt lat="45.454973506838165" lon="9.431611577951038"><ele>100.0</ele><time>2026-04-06T08:24:05Z</time></trkpt><trkpt lat="45.45522131346221" lon="9.431746348243431"><ele>100.0</ele><time>2026-04-06T08:24:06Z</time></trkpt><trkpt lat="45.45547028312458" lon="9.431878249707678"><ele>100.0</ele><time>2026-04-06T08:24:07Z</time></trkpt><trkpt lat="45.4557169895506" lon="9.432006562835328"><ele>100.0</ele><time>2026-04-06T08:24:08Z</time></trkpt><trkpt lat="45.455963658390594" lon="9.432138644689838"><ele>100.0</ele><time>2026-04-06T08:24:09Z</time></trkpt><trkpt lat="45.45620710839468" lon="9.432274513043073"><ele>101.0</ele><time>2026-04-06T08:24:10Z</time></trkpt><trkpt lat="45.45644988779737" lon="9.432409018984307"><ele>102.0</ele><time>2026-04-06T08:24:11Z</time></trkpt><trkpt lat="45.45669684358099" lon="9.432537185029386"><ele>102.0</ele><time>2026-04-06T08:24:12Z</time></trkpt><trkpt lat="45.45694550961937" lon="9.432659521516573"><ele>102.0</ele><time>2026-04-06T08:24:13Z</time></trkpt><trkpt lat="45.45719559594555" lon="9.432779892898834"><ele>101.5</ele><time>2026-04-06T08:24:14Z</time></trkpt><trkpt lat="45.45745028249144" lon="9.432899609903505"><ele>101.0</ele><time>2026-04-06T08:24:15Z</time></trkpt><trkpt lat="45.45770385614664" lon="9.43301215426724"><ele>101.0</ele><time>2026-04-06T08:24:16Z</time></trkpt><trkpt lat="45.45795627577941" lon="9.43311817723338"><ele>101.0</ele><time>2026-04-06T08:24:17Z</time></trkpt><trkpt lat="45.4582127760473" lon="9.433222346533082"><ele>101.0</ele><time>2026-04-06T08:24:18Z</time></trkpt><trkpt lat="45.4584742270552" lon="9.433318790487306"><ele>101.0</ele><time>2026-04-06T08:24:19Z</time></trkpt><trkpt lat="45.45873409209492" lon="9.433409581496637"><ele>101.0</ele><time>2026-04-06T08:24:20Z</time></trkpt><trkpt lat="45.458995673306966" lon="9.433499576323992"><ele>101.0</ele><time>2026-04-06T08:24:21Z</time></trkpt><trkpt lat="45.45925438967798" lon="9.433590883105916"><ele>101.0</ele><time>2026-04-06T08:24:22Z</time></trkpt><trkpt lat="45.45951458596777" lon="9.433678472773561"><ele>101.0</ele><time>2026-04-06T08:24:23Z</time></trkpt><trkpt lat="45.45977467423906" lon="9.433758364442985"><ele>101.5</ele><time>2026-04-06T08:24:24Z</time></trkpt><trkpt lat="45.46003236999898" lon="9.433832395409933"><ele>102.0</ele><time>2026-04-06T08:24:25Z</time></trkpt><trkpt lat="45.46028171950256" lon="9.433898490490565"><ele>102.5</ele><time>2026-04-06T08:24:26Z</time></trkpt><trkpt lat="45.4605288370959" lon="9.433961913973759"><ele>103.0</ele><time>2026-04-06T08:24:27Z</time></trkpt><trkpt lat="45.460777804751544" lon="9.434022031493203"><ele>103.0</ele><time>2026-04-06T08:24:28Z</time></trkpt><trkpt lat="45.461025685943504" lon="9.434075564429676"><ele>103.0</ele><time>2026-04-06T08:24:29Z</time></trkpt><trkpt lat="45.461275411693734" lon="9.434123250879331"><ele>102.5</ele><time>2026-04-06T08:24:30Z</time></trkpt><trkpt lat="45.461526316505555" lon="9.434166918087048"><ele>102.0</ele><time>2026-04-06T08:24:31Z</time></trkpt><trkpt lat="45.46177871870808" lon="9.434209005112013"><ele>102.0</ele><time>2026-04-06T08:24:32Z</time></trkpt><trkpt lat="45.46203507977211" lon="9.434249610108628"><ele>102.0</ele><time>2026-04-06T08:24:33Z</time></trkpt><trkpt lat="45.462294435399386" lon="9.43428372798736"><ele>102.5</ele><time>2026-04-06T08:24:34Z</time></trkpt><trkpt lat="45.4625543937826" lon="9.434311289462459"><ele>103.0</ele><time>2026-04-06T08:24:35Z</time></trkpt><trkpt lat="45.462816461042316" lon="9.434328217883593"><ele>103.0</ele><time>2026-04-06T08:24:36Z</time></trkpt><trkpt lat="45.46307681770106" lon="9.434339408949713"><ele>103.0</ele><time>2026-04-06T08:24:37Z</time></trkpt><trkpt lat="45.46333847207432" lon="9.434342509956515"><ele>103.0</ele><time>2026-04-06T08:24:38Z</time></trkpt><trkpt lat="45.46360486184778" lon="9.434335166548227"><ele>103.0</ele><time>2026-04-06T08:24:39Z</time></trkpt><trkpt lat="45.46386876897011" lon="9.434327485129208"><ele>103.5</ele><time>2026-04-06T08:24:40Z</time></trkpt><trkpt lat="45.46413937737847" lon="9.434317552804865"><ele>104.0</ele><time>2026-04-06T08:24:41Z</time></trkpt><trkpt lat="45.4644046260276" lon="9.43429075307269"><ele>103.5</ele><time>2026-04-06T08:24:42Z</time></trkpt><trkpt lat="45.46467267793498" lon="9.434261724859896"><ele>103.0</ele><time>2026-04-06T08:24:43Z</time></trkpt><trkpt lat="45.4649432924804" lon="9.434216231446735"><ele>103.0</ele><time>2026-04-06T08:24:44Z</time></trkpt><trkpt lat="45.465213241381946" lon="9.434163611299908"><ele>103.0</ele><time>2026-04-06T08:24:45Z</time></trkpt><trkpt lat="45.46548243987768" lon="9.434104748797694"><ele>104.0</ele><time>2026-04-06T08:24:46Z</time></trkpt><trkpt lat="45.465750027955785" lon="9.434038557277608"><ele>105.0</ele><time>2026-04-06T08:24:47Z</time></trkpt><trkpt lat="45.466020192234154" lon="9.433969091751596"><ele>105.5</ele><time>2026-04-06T08:24:48Z</time></trkpt><trkpt lat="45.466288532256094" lon="9.433882042993865"><ele>106.0</ele><time>2026-04-06T08:24:49Z</time></trkpt><trkpt lat="45.46656363458917" lon="9.433771496923283"><ele>106.0</ele><time>2026-04-06T08:24:50Z</time></trkpt><trkpt lat="45.466819643595024" lon="9.433702649744793"><ele>106.0</ele><time>2026-04-06T08:24:51Z</time></trkpt><trkpt lat="45.46708610564978" lon="9.433600182860113"><ele>105.0</ele><time>2026-04-06T08:24:52Z</time></trkpt><trkpt lat="45.46734956704591" lon="9.433499065659078"><ele>104.0</ele><time>2026-04-06T08:24:53Z</time></trkpt><trkpt lat="45.46760724298033" lon="9.43338499012037"><ele>104.0</ele><time>2026-04-06T08:24:54Z</time></trkpt><trkpt lat="45.467861441986976" lon="9.433259154058284"><ele>104.0</ele><time>2026-04-06T08:24:55Z</time></trkpt><trkpt lat="45.46810964968616" lon="9.43313173044531"><ele>104.5</ele><time>2026-04-06T08:24:56Z</time></trkpt><trkpt lat="45.46835598013286" lon="9.432998981008902"><ele>105.0</ele><time>2026-04-06T08:24:57Z</time></trkpt><trkpt lat="45.46860078725293" lon="9.432857196091614"><ele>105.5</ele><time>2026-04-06T08:24:58Z</time></trkpt><trkpt lat="45.46884466020433" lon="9.432711503536105"><ele>106.0</ele><time>2026-04-06T08:24:59Z</time></trkpt><trkpt lat="45.46909543520834" lon="9.432575453864391"><ele>106.0</ele><time>2026-04-06T08:25:00Z</time></trkpt><trkpt lat="45.46934298830562" lon="9.432443687809272"><ele>106.0</ele><time>2026-04-06T08:25:01Z</time></trkpt><trkpt lat="45.4695878932684" lon="9.432302587415156"><ele>106.0</ele><time>2026-04-06T08:25:02Z</time></trkpt><trkpt lat="45.46983535231239" lon="9.432162797540748"><ele>106.0</ele><time>2026-04-06T08:25:03Z</time></trkpt><trkpt lat="45.47008772964098" lon="9.4320250526066"><ele>106.0</ele><time>2026-04-06T08:25:04Z</time></trkpt><trkpt lat="45.470337663448824" lon="9.431887131964837"><ele>106.0</ele><time>2026-04-06T08:25:05Z</time></trkpt><trkpt lat="45.47057869663846" lon="9.43175540791227"><ele>106.0</ele><time>2026-04-06T08:25:06Z</time></trkpt><trkpt lat="45.47082289184694" lon="9.431620046687529"><ele>106.0</ele><time>2026-04-06T08:25:07Z</time></trkpt><trkpt lat="45.4710638301117" lon="9.431489053514929"><ele>110.0</ele><time>2026-04-06T08:25:08Z</time></trkpt><trkpt lat="45.47129778680906" lon="9.431363106560791"><ele>114.0</ele><time>2026-04-06T08:25:09Z</time></trkpt><trkpt lat="45.47153917794317" lon="9.43123141381533"><ele>116.0</ele><time>2026-04-06T08:25:10Z</time></trkpt><trkpt lat="45.47179203828448" lon="9.431098354858591"><ele>118.0</ele><time>2026-04-06T08:25:11Z</time></trkpt><trkpt lat="45.47205050700419" lon="9.430957276991425"><ele>120.5</ele><time>2026-04-06T08:25:12Z</time></trkpt><trkpt lat="45.4723171031691" lon="9.43081686245019"><ele>123.0</ele><time>2026-04-06T08:25:13Z</time></trkpt><trkpt lat="45.472591580834866" lon="9.43069586125202"><ele>123.0</ele><time>2026-04-06T08:25:14Z</time></trkpt><trkpt lat="45.47286478545467" lon="9.430594682323058"><ele>123.0</ele><time>2026-04-06T08:25:15Z</time></trkpt><trkpt lat="45.473053203483396" lon="9.430621058178243"><ele>119.0</ele><time>2026-04-06T08:25:16Z</time></trkpt><trkpt lat="45.473315862711964" lon="9.430536640792226"><ele>115.0</ele><time>2026-04-06T08:25:17Z</time></trkpt><trkpt lat="45.473581593145646" lon="9.430453328697503"><ele>110.0</ele><time>2026-04-06T08:25:18Z</time></trkpt><trkpt lat="45.473848795958425" lon="9.430384197593751"><ele>105.0</ele><time>2026-04-06T08:25:19Z</time></trkpt><trkpt lat="45.47412017099823" lon="9.430323137036515"><ele>105.0</ele><time>2026-04-06T08:25:20Z</time></trkpt><trkpt lat="45.47439980585051" lon="9.430266415140826"><ele>105.0</ele><time>2026-04-06T08:25:21Z</time></trkpt><trkpt lat="45.47467979373612" lon="9.430212888648432"><ele>106.0</ele><time>2026-04-06T08:25:22Z</time></trkpt><trkpt lat="45.47496292064414" lon="9.430181565053697"><ele>107.0</ele><time>2026-04-06T08:25:23Z</time></trkpt><trkpt lat="45.475249431159966" lon="9.430156461980523"><ele>107.0</ele><time>2026-04-06T08:25:24Z</time></trkpt><trkpt lat="45.47553906247656" lon="9.43012867689419"><ele>107.0</ele><time>2026-04-06T08:25:25Z</time></trkpt><trkpt lat="45.47582929386718" lon="9.430108108499397"><ele>107.0</ele><time>2026-04-06T08:25:26Z</time></trkpt><trkpt lat="45.47612372149867" lon="9.430095716610623"><ele>107.0</ele><time>2026-04-06T08:25:27Z</time></trkpt><trkpt lat="45.476426351798686" lon="9.430091440354287"><ele>106.5</ele><time>2026-04-06T08:25:28Z</time></trkpt><trkpt lat="45.47672856092666" lon="9.430094945516037"><ele>106.0</ele><time>2026-04-06T08:25:29Z</time></trkpt><trkpt lat="45.47703366482111" lon="9.430107641697571"><ele>105.5</ele><time>2026-04-06T08:25:30Z</time></trkpt><trkpt lat="45.47734062738875" lon="9.43013659655453"><ele>105.0</ele><time>2026-04-06T08:25:31Z</time></trkpt><trkpt lat="45.47764402859204" lon="9.430163104838861"><ele>106.0</ele><time>2026-04-06T08:25:32Z</time></trkpt><trkpt lat="45.477943093248044" lon="9.430200898502418"><ele>107.0</ele><time>2026-04-06T08:25:33Z</time></trkpt><trkpt lat="45.47823919740208" lon="9.430244194380766"><ele>107.0</ele><time>2026-04-06T08:25:34Z</time></trkpt><trkpt lat="45.47853026145851" lon="9.43029542977721"><ele>107.0</ele><time>2026-04-06T08:25:35Z</time></trkpt><trkpt lat="45.478817558377536" lon="9.43035494456455"><ele>108.0</ele><time>2026-04-06T08:25:36Z</time></trkpt><trkpt lat="45.479096903161434" lon="9.430432427325565"><ele>109.0</ele><time>2026-04-06T08:25:37Z</time></trkpt><trkpt lat="45.4793734331336" lon="9.430507834581325"><ele>110.0</ele><time>2026-04-06T08:25:38Z</time></trkpt><trkpt lat="45.47963824014517" lon="9.430591899468334"><ele>111.0</ele><time>2026-04-06T08:25:39Z</time></trkpt><trkpt lat="45.47990883377977" lon="9.430679664403387"><ele>111.0</ele><time>2026-04-06T08:25:40Z</time></trkpt><trkpt lat="45.48017146111802" lon="9.430774280042431"><ele>111.0</ele><time>2026-04-06T08:25:41Z</time></trkpt><trkpt lat="45.480425741487366" lon="9.430875297242734"><ele>110.0</ele><time>2026-04-06T08:25:42Z</time></trkpt><trkpt lat="45.4806740969284" lon="9.430973422694114"><ele>109.0</ele><time>2026-04-06T08:25:43Z</time></trkpt><trkpt lat="45.48092484608679" lon="9.431076518509405"><ele>109.0</ele><time>2026-04-06T08:25:44Z</time></trkpt><trkpt lat="45.48117363486158" lon="9.431189219955368"><ele>109.0</ele><time>2026-04-06T08:25:45Z</time></trkpt><trkpt lat="45.48141722347013" lon="9.4312927608541"><ele>108.5</ele><time>2026-04-06T08:25:46Z</time></trkpt><trkpt lat="45.48166389638917" lon="9.431433408279561"><ele>108.0</ele><time>2026-04-06T08:25:47Z</time></trkpt><trkpt lat="45.48191012329325" lon="9.431571335040447"><ele>108.0</ele><time>2026-04-06T08:25:48Z</time></trkpt><trkpt lat="45.48216062389245" lon="9.43171382201147"><ele>108.0</ele><time>2026-04-06T08:25:49Z</time></trkpt><trkpt lat="45.48241328427939" lon="9.431861489497008"><ele>108.0</ele><time>2026-04-06T08:25:50Z</time></trkpt><trkpt lat="45.48266517147031" lon="9.43201229029073"><ele>108.0</ele><time>2026-04-06T08:25:51Z</time></trkpt><trkpt lat="45.48291073983851" lon="9.432172875298662"><ele>107.0</ele><time>2026-04-06T08:25:52Z</time></trkpt><trkpt lat="45.48315511012064" lon="9.432349519893599"><ele>106.0</ele><time>2026-04-06T08:25:53Z</time></trkpt><trkpt lat="45.483397913812546" lon="9.432524928460868"><ele>106.0</ele><time>2026-04-06T08:25:54Z</time></trkpt><trkpt lat="45.48363361921805" lon="9.432698248376227"><ele>106.0</ele><time>2026-04-06T08:25:55Z</time></trkpt><trkpt lat="45.48386269577367" lon="9.432877533340166"><ele>107.5</ele><time>2026-04-06T08:25:56Z</time></trkpt><trkpt lat="45.484082577718915" lon="9.43306299391658"><ele>109.0</ele><time>2026-04-06T08:25:57Z</time></trkpt><trkpt lat="45.484300582980424" lon="9.433248766377325"><ele>109.0</ele><time>2026-04-06T08:25:58Z</time></trkpt><trkpt lat="45.484518314863145" lon="9.433440988566666"><ele>109.0</ele><time>2026-04-06T08:25:59Z</time></trkpt><trkpt lat="45.48473455936934" lon="9.433637480281098"><ele>108.5</ele><time>2026-04-06T08:26:00Z</time></trkpt><trkpt lat="45.48494976945498" lon="9.433837373544682"><ele>108.0</ele><time>2026-04-06T08:26:01Z</time></trkpt><trkpt lat="45.485163441837685" lon="9.434043075237735"><ele>108.0</ele><time>2026-04-06T08:26:02Z</time></trkpt><trkpt lat="45.48537062160608" lon="9.434258006943821"><ele>108.0</ele><time>2026-04-06T08:26:03Z</time></trkpt><trkpt lat="45.48557896817556" lon="9.434481257396728"><ele>108.0</ele><time>2026-04-06T08:26:04Z</time></trkpt><trkpt lat="45.48578196785236" lon="9.434711401124629"><ele>108.0</ele><time>2026-04-06T08:26:05Z</time></trkpt><trkpt lat="45.48599325041115" lon="9.434941580363361"><ele>108.0</ele><time>2026-04-06T08:26:06Z</time></trkpt><trkpt lat="45.48620154196041" lon="9.43518028329894"><ele>108.0</ele><time>2026-04-06T08:26:07Z</time></trkpt><trkpt lat="45.48640247850625" lon="9.435425608007808"><ele>108.0</ele><time>2026-04-06T08:26:08Z</time></trkpt><trkpt lat="45.48660268333608" lon="9.435678804552703"><ele>108.0</ele><time>2026-04-06T08:26:09Z</time></trkpt><trkpt lat="45.48680113634745" lon="9.435941612016048"><ele>108.0</ele><time>2026-04-06T08:26:10Z</time></trkpt><trkpt lat="45.48699905627178" lon="9.436210818717813"><ele>108.0</ele><time>2026-04-06T08:26:11Z</time></trkpt><trkpt lat="45.487194053476124" lon="9.436483537160283"><ele>107.0</ele><time>2026-04-06T08:26:12Z</time></trkpt><trkpt lat="45.48738766923675" lon="9.4367647451976"><ele>106.0</ele><time>2026-04-06T08:26:13Z</time></trkpt><trkpt lat="45.48757412687985" lon="9.437013092947428"><ele>107.0</ele><time>2026-04-06T08:26:14Z</time></trkpt><trkpt lat="45.4877595061975" lon="9.437307446598732"><ele>108.0</ele><time>2026-04-06T08:26:15Z</time></trkpt><trkpt lat="45.48794833860582" lon="9.437584185088298"><ele>109.0</ele><time>2026-04-06T08:26:16Z</time></trkpt><trkpt lat="45.48813586091886" lon="9.437859039304845"><ele>110.0</ele><time>2026-04-06T08:26:17Z</time></trkpt><trkpt lat="45.488319901130886" lon="9.438134118438535"><ele>110.5</ele><time>2026-04-06T08:26:18Z</time></trkpt><trkpt lat="45.48850459389609" lon="9.438411807334967"><ele>111.0</ele><time>2026-04-06T08:26:19Z</time></trkpt><trkpt lat="45.488690348751604" lon="9.438690420127042"><ele>110.5</ele><time>2026-04-06T08:26:20Z</time></trkpt><trkpt lat="45.48887339935158" lon="9.438964363547235"><ele>110.0</ele><time>2026-04-06T08:26:21Z</time></trkpt><trkpt lat="45.4890575951488" lon="9.439238211629368"><ele>110.0</ele><time>2026-04-06T08:26:22Z</time></trkpt><trkpt lat="45.489247332037394" lon="9.439512642257533"><ele>110.0</ele><time>2026-04-06T08:26:23Z</time></trkpt><trkpt lat="45.489439790833146" lon="9.439782786225155"><ele>109.5</ele><time>2026-04-06T08:26:24Z</time></trkpt><trkpt lat="45.489633403367556" lon="9.440048833311211"><ele>109.0</ele><time>2026-04-06T08:26:25Z</time></trkpt><trkpt lat="45.489828339776736" lon="9.440309680862235"><ele>109.0</ele><time>2026-04-06T08:26:26Z</time></trkpt><trkpt lat="45.4900299868124" lon="9.440567158132467"><ele>109.0</ele><time>2026-04-06T08:26:27Z</time></trkpt><trkpt lat="45.4902289394694" lon="9.4408200393794"><ele>109.0</ele><time>2026-04-06T08:26:28Z</time></trkpt><trkpt lat="45.49043387864484" lon="9.441065684684489"><ele>109.0</ele><time>2026-04-06T08:26:29Z</time></trkpt><trkpt lat="45.490648738779065" lon="9.44130423317288"><ele>109.5</ele><time>2026-04-06T08:26:30Z</time></trkpt><trkpt lat="45.490866123879755" lon="9.441533560693905"><ele>110.0</ele><time>2026-04-06T08:26:31Z</time></trkpt><trkpt lat="45.49108667861933" lon="9.44175869412371"><ele>110.0</ele><time>2026-04-06T08:26:32Z</time></trkpt><trkpt lat="45.49131601377847" lon="9.44197593319598"><ele>110.0</ele><time>2026-04-06T08:26:33Z</time></trkpt><trkpt lat="45.49154828400376" lon="9.442183029515382"><ele>110.0</ele><time>2026-04-06T08:26:34Z</time></trkpt><trkpt lat="45.491791502367484" lon="9.442383302602597"><ele>110.0</ele><time>2026-04-06T08:26:35Z</time></trkpt><trkpt lat="45.492034817321624" lon="9.442580561350333"><ele>110.0</ele><time>2026-04-06T08:26:36Z</time></trkpt><trkpt lat="45.49228401365539" lon="9.442776974596852"><ele>110.0</ele><time>2026-04-06T08:26:37Z</time></trkpt><trkpt lat="45.49252595495367" lon="9.442969230340879"><ele>110.0</ele><time>2026-04-06T08:26:38Z</time></trkpt><trkpt lat="45.49277753104936" lon="9.443150056420464"><ele>110.0</ele><time>2026-04-06T08:26:39Z</time></trkpt><trkpt lat="45.49302870528892" lon="9.443325426548203"><ele>110.0</ele><time>2026-04-06T08:26:40Z</time></trkpt><trkpt lat="45.493279106393054" lon="9.44348980193442"><ele>110.0</ele><time>2026-04-06T08:26:41Z</time></trkpt><trkpt lat="45.49354591233787" lon="9.44362344652345"><ele>110.5</ele><time>2026-04-06T08:26:42Z</time></trkpt><trkpt lat="45.4937881224142" lon="9.443797782237946"><ele>111.0</ele><time>2026-04-06T08:26:43Z</time></trkpt><trkpt lat="45.49403588233223" lon="9.443937258211198"><ele>111.0</ele><time>2026-04-06T08:26:44Z</time></trkpt><trkpt lat="45.494276689121364" lon="9.444066958177801"><ele>111.0</ele><time>2026-04-06T08:26:45Z</time></trkpt><trkpt lat="45.49451530204895" lon="9.444192186826049"><ele>112.0</ele><time>2026-04-06T08:26:46Z</time></trkpt><trkpt lat="45.494758291777316" lon="9.444303656297816"><ele>113.0</ele><time>2026-04-06T08:26:47Z</time></trkpt><trkpt lat="45.49500095385632" lon="9.44441813636082"><ele>113.0</ele><time>2026-04-06T08:26:48Z</time></trkpt><trkpt lat="45.495249856011" lon="9.444511937507235"><ele>113.0</ele><time>2026-04-06T08:26:49Z</time></trkpt><trkpt lat="45.49550362531393" lon="9.444602177097874"><ele>112.0</ele><time>2026-04-06T08:26:50Z</time></trkpt><trkpt lat="45.49575866750634" lon="9.44468322980335"><ele>111.0</ele><time>2026-04-06T08:26:51Z</time></trkpt><trkpt lat="45.49601705128419" lon="9.444760485250985"><ele>110.5</ele><time>2026-04-06T08:26:52Z</time></trkpt><trkpt lat="45.49627456514163" lon="9.444833361365225"><ele>110.0</ele><time>2026-04-06T08:26:53Z</time></trkpt><trkpt lat="45.49653408750983" lon="9.444903765947034"><ele>110.0</ele><time>2026-04-06T08:26:54Z</time></trkpt><trkpt lat="45.496790151129105" lon="9.444964008033457"><ele>110.0</ele><time>2026-04-06T08:26:55Z</time></trkpt><trkpt lat="45.4970407050465" lon="9.445011497817665"><ele>111.5</ele><time>2026-04-06T08:26:56Z</time></trkpt><trkpt lat="45.497288198019156" lon="9.44504772488329"><ele>113.0</ele><time>2026-04-06T08:26:57Z</time></trkpt><trkpt lat="45.497533730257906" lon="9.445078103919842"><ele>113.0</ele><time>2026-04-06T08:26:58Z</time></trkpt><trkpt lat="45.497777280806325" lon="9.445097018583708"><ele>113.0</ele><time>2026-04-06T08:26:59Z</time></trkpt><trkpt lat="45.49802366885282" lon="9.44512098097505"><ele>113.0</ele><time>2026-04-06T08:27:00Z</time></trkpt><trkpt lat="45.498272319392335" lon="9.445139577853592"><ele>113.0</ele><time>2026-04-06T08:27:01Z</time></trkpt><trkpt lat="45.4985285980579" lon="9.445147912853427"><ele>112.5</ele><time>2026-04-06T08:27:02Z</time></trkpt><trkpt lat="45.49878676459286" lon="9.445146656250948"><ele>112.0</ele><time>2026-04-06T08:27:03Z</time></trkpt><trkpt lat="45.49904904914389" lon="9.445137394324966"><ele>112.0</ele><time>2026-04-06T08:27:04Z</time></trkpt><trkpt lat="45.49931299923942" lon="9.445120748330663"><ele>112.0</ele><time>2026-04-06T08:27:05Z</time></trkpt><trkpt lat="45.49958027086234" lon="9.445099566783998"><ele>112.0</ele><time>2026-04-06T08:27:06Z</time></trkpt><trkpt lat="45.49985070844499" lon="9.445072711175477"><ele>112.0</ele><time>2026-04-06T08:27:07Z</time></trkpt><trkpt lat="45.50012224785402" lon="9.445045417881053"><ele>112.0</ele><time>2026-04-06T08:27:08Z</time></trkpt><trkpt lat="45.50039392354954" lon="9.4450207387073"><ele>112.0</ele><time>2026-04-06T08:27:09Z</time></trkpt><trkpt lat="45.50067023519166" lon="9.445001846424548"><ele>112.0</ele><time>2026-04-06T08:27:10Z</time></trkpt><trkpt lat="45.5009432358279" lon="9.444990442553594"><ele>112.0</ele><time>2026-04-06T08:27:11Z</time></trkpt><trkpt lat="45.501211800703885" lon="9.444985445044686"><ele>113.5</ele><time>2026-04-06T08:27:12Z</time></trkpt><trkpt lat="45.50147956955681" lon="9.444996257728999"><ele>115.0</ele><time>2026-04-06T08:27:13Z</time></trkpt><trkpt lat="45.50174485211519" lon="9.445018253504172"><ele>115.0</ele><time>2026-04-06T08:27:14Z</time></trkpt><trkpt lat="45.50201501041318" lon="9.445069418755798"><ele>115.0</ele><time>2026-04-06T08:27:15Z</time></trkpt><trkpt lat="45.50228421784828" lon="9.445143498921126"><ele>114.0</ele><time>2026-04-06T08:27:16Z</time></trkpt><trkpt lat="45.50255144237947" lon="9.4452501266382"><ele>113.0</ele><time>2026-04-06T08:27:17Z</time></trkpt><trkpt lat="45.50282226251" lon="9.445382164327508"><ele>113.0</ele><time>2026-04-06T08:27:18Z</time></trkpt><trkpt lat="45.503080698667304" lon="9.44554225600408"><ele>113.0</ele><time>2026-04-06T08:27:19Z</time></trkpt><trkpt lat="45.50333167719532" lon="9.445719657848386"><ele>113.0</ele><time>2026-04-06T08:27:20Z</time></trkpt><trkpt lat="45.50357685665755" lon="9.445912929448253"><ele>113.0</ele><time>2026-04-06T08:27:21Z</time></trkpt><trkpt lat="45.50382008164998" lon="9.446117677699021"><ele>114.0</ele><time>2026-04-06T08:27:22Z</time></trkpt><trkpt lat="45.50406276996117" lon="9.446361081948542"><ele>115.0</ele><time>2026-04-06T08:27:23Z</time></trkpt><trkpt lat="45.50429092684384" lon="9.446629282309578"><ele>115.0</ele><time>2026-04-06T08:27:24Z</time></trkpt><trkpt lat="45.504509577663924" lon="9.446925899984175"><ele>115.0</ele><time>2026-04-06T08:27:25Z</time></trkpt><trkpt lat="45.504714383754134" lon="9.447250294444597"><ele>115.0</ele><time>2026-04-06T08:27:26Z</time></trkpt><trkpt lat="45.50488666823816" lon="9.447593165319118"><ele>115.0</ele><time>2026-04-06T08:27:27Z</time></trkpt><trkpt lat="45.50503645725153" lon="9.447944177968008"><ele>115.0</ele><time>2026-04-06T08:27:28Z</time></trkpt><trkpt lat="45.50517060704581" lon="9.448299565923213"><ele>115.0</ele><time>2026-04-06T08:27:29Z</time></trkpt><trkpt lat="45.505295657671475" lon="9.448649877670215"><ele>115.0</ele><time>2026-04-06T08:27:30Z</time></trkpt><trkpt lat="45.505413387684115" lon="9.448993008126479"><ele>115.0</ele><time>2026-04-06T08:27:31Z</time></trkpt><trkpt lat="45.50552449911272" lon="9.449339733546434"><ele>115.0</ele><time>2026-04-06T08:27:32Z</time></trkpt><trkpt lat="45.50563248290534" lon="9.449683887101374"><ele>115.0</ele><time>2026-04-06T08:27:33Z</time></trkpt><trkpt lat="45.50573733741754" lon="9.450033819460531"><ele>115.0</ele><time>2026-04-06T08:27:34Z</time></trkpt><trkpt lat="45.50584227630275" lon="9.450381789015216"><ele>115.0</ele><time>2026-04-06T08:27:35Z</time></trkpt><trkpt lat="45.50594783475193" lon="9.45074158976499"><ele>115.0</ele><time>2026-04-06T08:27:36Z</time></trkpt><trkpt lat="45.506051881451526" lon="9.45110719016389"><ele>115.0</ele><time>2026-04-06T08:27:37Z</time></trkpt><trkpt lat="45.50615931637539" lon="9.451482613221962"><ele>115.0</ele><time>2026-04-06T08:27:38Z</time></trkpt><trkpt lat="45.50626095311156" lon="9.45186375415413"><ele>115.0</ele><time>2026-04-06T08:27:39Z</time></trkpt><trkpt lat="45.50635510141177" lon="9.45225524259832"><ele>115.0</ele><time>2026-04-06T08:27:40Z</time></trkpt><trkpt lat="45.50643927084234" lon="9.45264296432962"><ele>115.0</ele><time>2026-04-06T08:27:41Z</time></trkpt><trkpt lat="45.50651984994167" lon="9.453024365771073"><ele>114.5</ele><time>2026-04-06T08:27:42Z</time></trkpt><trkpt lat="45.50659881810255" lon="9.453400638700769"><ele>114.0</ele><time>2026-04-06T08:27:43Z</time></trkpt><trkpt lat="45.50667366099475" lon="9.453779209159894"><ele>114.5</ele><time>2026-04-06T08:27:44Z</time></trkpt><trkpt lat="45.50674459863897" lon="9.454157341955138"><ele>115.0</ele><time>2026-04-06T08:27:45Z</time></trkpt><trkpt lat="45.50681259362198" lon="9.454534126295957"><ele>114.5</ele><time>2026-04-06T08:27:46Z</time></trkpt><trkpt lat="45.50687404796559" lon="9.454906821818772"><ele>114.0</ele><time>2026-04-06T08:27:47Z</time></trkpt><trkpt lat="45.506934161119304" lon="9.455280779879436"><ele>114.5</ele><time>2026-04-06T08:27:48Z</time></trkpt><trkpt lat="45.50698908277352" lon="9.455653290236327"><ele>115.0</ele><time>2026-04-06T08:27:49Z</time></trkpt><trkpt lat="45.50704410870308" lon="9.456024810059608"><ele>114.5</ele><time>2026-04-06T08:27:50Z</time></trkpt><trkpt lat="45.507093855182845" lon="9.456397609161524"><ele>114.0</ele><time>2026-04-06T08:27:51Z</time></trkpt><trkpt lat="45.50714190161471" lon="9.456770967004811"><ele>114.5</ele><time>2026-04-06T08:27:52Z</time></trkpt><trkpt lat="45.50718044772091" lon="9.457147134254857"><ele>115.0</ele><time>2026-04-06T08:27:53Z</time></trkpt><trkpt lat="45.50721567140103" lon="9.45752374948081"><ele>115.0</ele><time>2026-04-06T08:27:54Z</time></trkpt><trkpt lat="45.50724581941951" lon="9.457906347896596"><ele>115.0</ele><time>2026-04-06T08:27:55Z</time></trkpt><trkpt lat="45.50727421215034" lon="9.458283017714601"><ele>114.5</ele><time>2026-04-06T08:27:56Z</time></trkpt><trkpt lat="45.50730289690991" lon="9.458664283908956"><ele>114.0</ele><time>2026-04-06T08:27:57Z</time></trkpt><trkpt lat="45.50733150556408" lon="9.459050036296384"><ele>115.5</ele><time>2026-04-06T08:27:58Z</time></trkpt><trkpt lat="45.50736011131421" lon="9.45943676612546"><ele>117.0</ele><time>2026-04-06T08:27:59Z</time></trkpt><trkpt lat="45.50738018943752" lon="9.459817746514027"><ele>117.0</ele><time>2026-04-06T08:28:00Z</time></trkpt><trkpt lat="45.507386829934646" lon="9.460183522114546"><ele>117.0</ele><time>2026-04-06T08:28:01Z</time></trkpt><trkpt lat="45.50741120198957" lon="9.460556697056164"><ele>116.5</ele><time>2026-04-06T08:28:02Z</time></trkpt><trkpt lat="45.5074242742612" lon="9.460930816381232"><ele>116.0</ele><time>2026-04-06T08:28:03Z</time></trkpt><trkpt lat="45.507431152190044" lon="9.461303033047148"><ele>115.5</ele><time>2026-04-06T08:28:04Z</time></trkpt><trkpt lat="45.50743462121822" lon="9.461672321295804"><ele>115.0</ele><time>2026-04-06T08:28:05Z</time></trkpt><trkpt lat="45.507432588433744" lon="9.46204718939772"><ele>114.5</ele><time>2026-04-06T08:28:06Z</time></trkpt><trkpt lat="45.507433513559796" lon="9.462420471550535"><ele>114.0</ele><time>2026-04-06T08:28:07Z</time></trkpt><trkpt lat="45.50743100151701" lon="9.462796529533234"><ele>114.0</ele><time>2026-04-06T08:28:08Z</time></trkpt><trkpt lat="45.50742383498193" lon="9.463171871404617"><ele>114.0</ele><time>2026-04-06T08:28:09Z</time></trkpt><trkpt lat="45.50741383381505" lon="9.463551338952549"><ele>115.0</ele><time>2026-04-06T08:28:10Z</time></trkpt><trkpt lat="45.50739845376495" lon="9.463932639612663"><ele>116.0</ele><time>2026-04-06T08:28:11Z</time></trkpt><trkpt lat="45.50737917241235" lon="9.464338886090546"><ele>116.0</ele><time>2026-04-06T08:28:12Z</time></trkpt><trkpt lat="45.50735700317364" lon="9.464762665836899"><ele>116.0</ele><time>2026-04-06T08:28:13Z</time></trkpt><trkpt lat="45.50733818657989" lon="9.465162942741754"><ele>115.5</ele><time>2026-04-06T08:28:14Z</time></trkpt><trkpt lat="45.50731904944318" lon="9.465534954461532"><ele>115.0</ele><time>2026-04-06T08:28:15Z</time></trkpt><trkpt lat="45.507271926910356" lon="9.466272434401917"><ele>115.5</ele><time>2026-04-06T08:28:17Z</time></trkpt><trkpt lat="45.507245972033424" lon="9.466640517026189"><ele>116.0</ele><time>2026-04-06T08:28:18Z</time></trkpt><trkpt lat="45.507224221188366" lon="9.467009064803223"><ele>116.0</ele><time>2026-04-06T08:28:19Z</time></trkpt><trkpt lat="45.50719632523141" lon="9.467369868222303"><ele>116.0</ele><time>2026-04-06T08:28:20Z</time></trkpt><trkpt lat="45.50716967218317" lon="9.467748553536406"><ele>116.0</ele><time>2026-04-06T08:28:21Z</time></trkpt><trkpt lat="45.507142493488935" lon="9.468116193100307"><ele>116.0</ele><time>2026-04-06T08:28:22Z</time></trkpt><trkpt lat="45.50711547568541" lon="9.468484473894542"><ele>116.0</ele><time>2026-04-06T08:28:23Z</time></trkpt><trkpt lat="45.50709022080118" lon="9.468850851368819"><ele>116.0</ele><time>2026-04-06T08:28:24Z</time></trkpt><trkpt lat="45.507064032531325" lon="9.469210430819254"><ele>116.0</ele><time>2026-04-06T08:28:25Z</time></trkpt><trkpt lat="45.507036952554095" lon="9.469559526529467"><ele>116.0</ele><time>2026-04-06T08:28:26Z</time></trkpt><trkpt lat="45.50701260859905" lon="9.46990706446696"><ele>116.0</ele><time>2026-04-06T08:28:27Z</time></trkpt><trkpt lat="45.50699084475482" lon="9.470253828257736"><ele>116.0</ele><time>2026-04-06T08:28:28Z</time></trkpt><trkpt lat="45.50696462245714" lon="9.47060354810948"><ele>116.0</ele><time>2026-04-06T08:28:29Z</time></trkpt><trkpt lat="45.506939906377" lon="9.470955244930137"><ele>116.0</ele><time>2026-04-06T08:28:30Z</time></trkpt><trkpt lat="45.506917403519346" lon="9.471306366323983"><ele>116.0</ele><time>2026-04-06T08:28:31Z</time></trkpt><trkpt lat="45.5068910327414" lon="9.471657508024983"><ele>116.0</ele><time>2026-04-06T08:28:32Z</time></trkpt><trkpt lat="45.50686800642414" lon="9.472008011303991"><ele>116.0</ele><time>2026-04-06T08:28:33Z</time></trkpt><trkpt lat="45.50683814256903" lon="9.47236586433253"><ele>116.0</ele><time>2026-04-06T08:28:34Z</time></trkpt><trkpt lat="45.50681619631536" lon="9.472722134277134"><ele>116.0</ele><time>2026-04-06T08:28:35Z</time></trkpt><trkpt lat="45.50678902298444" lon="9.473084003492039"><ele>116.0</ele><time>2026-04-06T08:28:36Z</time></trkpt><trkpt lat="45.5067552183301" lon="9.47345004458722"><ele>116.0</ele><time>2026-04-06T08:28:37Z</time></trkpt><trkpt lat="45.50672800813607" lon="9.473813936775615"><ele>116.0</ele><time>2026-04-06T08:28:38Z</time></trkpt><trkpt lat="45.5067109360361" lon="9.47418083995951"><ele>116.0</ele><time>2026-04-06T08:28:39Z</time></trkpt><trkpt lat="45.506688512735636" lon="9.474553066722576"><ele>116.0</ele><time>2026-04-06T08:28:40Z</time></trkpt><trkpt lat="45.50665896363946" lon="9.474925528320753"><ele>116.0</ele><time>2026-04-06T08:28:41Z</time></trkpt><trkpt lat="45.50663335478335" lon="9.475297660466863"><ele>116.0</ele><time>2026-04-06T08:28:42Z</time></trkpt><trkpt lat="45.506611906150226" lon="9.475674210185252"><ele>116.0</ele><time>2026-04-06T08:28:43Z</time></trkpt><trkpt lat="45.506586147481244" lon="9.476052642530364"><ele>116.0</ele><time>2026-04-06T08:28:44Z</time></trkpt><trkpt lat="45.50655764705711" lon="9.476429280952164"><ele>116.0</ele><time>2026-04-06T08:28:45Z</time></trkpt><trkpt lat="45.50653258716396" lon="9.47681155737578"><ele>116.0</ele><time>2026-04-06T08:28:46Z</time></trkpt><trkpt lat="45.50650615226768" lon="9.477191458735389"><ele>116.0</ele><time>2026-04-06T08:28:47Z</time></trkpt><trkpt lat="45.506479336213964" lon="9.47756377864575"><ele>116.0</ele><time>2026-04-06T08:28:48Z</time></trkpt><trkpt lat="45.506452386000525" lon="9.477943664939335"><ele>116.0</ele><time>2026-04-06T08:28:49Z</time></trkpt><trkpt lat="45.50642831003829" lon="9.47836438517892"><ele>116.0</ele><time>2026-04-06T08:28:50Z</time></trkpt><trkpt lat="45.506408043529106" lon="9.478812396850481"><ele>116.0</ele><time>2026-04-06T08:28:51Z</time></trkpt><trkpt lat="45.50639350467063" lon="9.479269860183392"><ele>116.0</ele><time>2026-04-06T08:28:52Z</time></trkpt><trkpt lat="45.506373906189204" lon="9.479695627175227"><ele>116.0</ele><time>2026-04-06T08:28:53Z</time></trkpt><trkpt lat="45.506341642686664" lon="9.480091669244299"><ele>116.0</ele><time>2026-04-06T08:28:54Z</time></trkpt><trkpt lat="45.506308885293286" lon="9.480489980202025"><ele>116.0</ele><time>2026-04-06T08:28:55Z</time></trkpt><trkpt lat="45.50628164498768" lon="9.480849258799372"><ele>116.0</ele><time>2026-04-06T08:28:56Z</time></trkpt><trkpt lat="45.50625841894865" lon="9.48122378191325"><ele>117.0</ele><time>2026-04-06T08:28:57Z</time></trkpt><trkpt lat="45.50623419701078" lon="9.481603159934012"><ele>118.0</ele><time>2026-04-06T08:28:58Z</time></trkpt><trkpt lat="45.506208791214654" lon="9.481986093473287"><ele>117.5</ele><time>2026-04-06T08:28:59Z</time></trkpt><trkpt lat="45.50618089286699" lon="9.482374552407142"><ele>117.0</ele><time>2026-04-06T08:29:00Z</time></trkpt><trkpt lat="45.50615418571249" lon="9.482763523674127"><ele>117.0</ele><time>2026-04-06T08:29:01Z</time></trkpt><trkpt lat="45.50612508846632" lon="9.48315168681831"><ele>117.0</ele><time>2026-04-06T08:29:02Z</time></trkpt><trkpt lat="45.50609174549375" lon="9.48353655546"><ele>117.0</ele><time>2026-04-06T08:29:03Z</time></trkpt><trkpt lat="45.50605551394086" lon="9.483919793841514"><ele>117.0</ele><time>2026-04-06T08:29:04Z</time></trkpt><trkpt lat="45.506018908401636" lon="9.484302797585617"><ele>117.0</ele><time>2026-04-06T08:29:05Z</time></trkpt><trkpt lat="45.50599063792689" lon="9.484687087448105"><ele>117.0</ele><time>2026-04-06T08:29:06Z</time></trkpt><trkpt lat="45.50596311014232" lon="9.485073384679216"><ele>116.5</ele><time>2026-04-06T08:29:07Z</time></trkpt><trkpt lat="45.505935721731376" lon="9.4854569762069"><ele>116.0</ele><time>2026-04-06T08:29:08Z</time></trkpt><trkpt lat="45.50590805603898" lon="9.485839910064442"><ele>116.0</ele><time>2026-04-06T08:29:09Z</time></trkpt><trkpt lat="45.505880307800055" lon="9.486224914150377"><ele>116.0</ele><time>2026-04-06T08:29:10Z</time></trkpt><trkpt lat="45.50585036551342" lon="9.486610514289657"><ele>116.0</ele><time>2026-04-06T08:29:11Z</time></trkpt><trkpt lat="45.505822300830786" lon="9.486996546168141"><ele>116.0</ele><time>2026-04-06T08:29:12Z</time></trkpt><trkpt lat="45.50579552272777" lon="9.487386488416723"><ele>116.0</ele><time>2026-04-06T08:29:13Z</time></trkpt><trkpt lat="45.50576934086596" lon="9.487774677047325"><ele>116.0</ele><time>2026-04-06T08:29:14Z</time></trkpt><trkpt lat="45.505746326880434" lon="9.488163909178192"><ele>116.5</ele><time>2026-04-06T08:29:15Z</time></trkpt><trkpt lat="45.50571892366146" lon="9.488551520412841"><ele>117.0</ele><time>2026-04-06T08:29:16Z</time></trkpt><trkpt lat="45.505692376048295" lon="9.488945548610204"><ele>117.0</ele><time>2026-04-06T08:29:17Z</time></trkpt><trkpt lat="45.5056654644337" lon="9.489334267454726"><ele>117.0</ele><time>2026-04-06T08:29:18Z</time></trkpt><trkpt lat="45.50564337575101" lon="9.48972589204208"><ele>116.5</ele><time>2026-04-06T08:29:19Z</time></trkpt><trkpt lat="45.505621844851355" lon="9.490119437838175"><ele>116.0</ele><time>2026-04-06T08:29:20Z</time></trkpt><trkpt lat="45.50560307762268" lon="9.490517202331517"><ele>117.0</ele><time>2026-04-06T08:29:21Z</time></trkpt><trkpt lat="45.50558392987699" lon="9.490914543703713"><ele>118.0</ele><time>2026-04-06T08:29:22Z</time></trkpt><trkpt lat="45.50556595698329" lon="9.491318782063116"><ele>118.0</ele><time>2026-04-06T08:29:23Z</time></trkpt><trkpt lat="45.50554882506119" lon="9.491728741135695"><ele>118.0</ele><time>2026-04-06T08:29:24Z</time></trkpt><trkpt lat="45.505536747618606" lon="9.492142453983822"><ele>117.0</ele><time>2026-04-06T08:29:25Z</time></trkpt><trkpt lat="45.505528477522866" lon="9.49255607127898"><ele>116.0</ele><time>2026-04-06T08:29:26Z</time></trkpt><trkpt lat="45.505516088139565" lon="9.492972659042543"><ele>114.5</ele><time>2026-04-06T08:29:27Z</time></trkpt><trkpt lat="45.505519459152175" lon="9.493386670785183"><ele>113.0</ele><time>2026-04-06T08:29:28Z</time></trkpt><trkpt lat="45.50551978413583" lon="9.493788195235288"><ele>112.5</ele><time>2026-04-06T08:29:29Z</time></trkpt><trkpt lat="45.50551962868681" lon="9.49417680591772"><ele>112.0</ele><time>2026-04-06T08:29:30Z</time></trkpt><trkpt lat="45.50552405628024" lon="9.494555363430933"><ele>112.0</ele><time>2026-04-06T08:29:31Z</time></trkpt><trkpt lat="45.50553065766196" lon="9.49494049697449"><ele>112.0</ele><time>2026-04-06T08:29:32Z</time></trkpt><trkpt lat="45.505536305729144" lon="9.495322082266966"><ele>113.0</ele><time>2026-04-06T08:29:33Z</time></trkpt><trkpt lat="45.50554473738433" lon="9.495697467954495"><ele>114.0</ele><time>2026-04-06T08:29:34Z</time></trkpt><trkpt lat="45.50556255291982" lon="9.496073482143892"><ele>113.5</ele><time>2026-04-06T08:29:35Z</time></trkpt><trkpt lat="45.50557852483785" lon="9.49645385130956"><ele>113.0</ele><time>2026-04-06T08:29:36Z</time></trkpt><trkpt lat="45.50559115619884" lon="9.496824187597456"><ele>112.0</ele><time>2026-04-06T08:29:37Z</time></trkpt><trkpt lat="45.505609811425195" lon="9.497197765400834"><ele>111.0</ele><time>2026-04-06T08:29:38Z</time></trkpt><trkpt lat="45.505629018423974" lon="9.497573460793433"><ele>110.0</ele><time>2026-04-06T08:29:39Z</time></trkpt><trkpt lat="45.505656124728965" lon="9.497942435109131"><ele>109.0</ele><time>2026-04-06T08:29:40Z</time></trkpt><trkpt lat="45.5056800672923" lon="9.498317327153314"><ele>109.0</ele><time>2026-04-06T08:29:41Z</time></trkpt><trkpt lat="45.5057101350317" lon="9.49869540756081"><ele>109.0</ele><time>2026-04-06T08:29:42Z</time></trkpt><trkpt lat="45.505741980337454" lon="9.499074304198642"><ele>109.0</ele><time>2026-04-06T08:29:43Z</time></trkpt><trkpt lat="45.505777547084556" lon="9.499456926964324"><ele>109.0</ele><time>2026-04-06T08:29:44Z</time></trkpt><trkpt lat="45.5058162435724" lon="9.499842007265599"><ele>108.5</ele><time>2026-04-06T08:29:45Z</time></trkpt><trkpt lat="45.505852347945805" lon="9.500229899150307"><ele>108.0</ele><time>2026-04-06T08:29:46Z</time></trkpt><trkpt lat="45.505896914588085" lon="9.500613123725136"><ele>108.0</ele><time>2026-04-06T08:29:47Z</time></trkpt><trkpt lat="45.50594094075403" lon="9.500998611760876"><ele>108.0</ele><time>2026-04-06T08:29:48Z</time></trkpt><trkpt lat="45.50599273479998" lon="9.501382517354791"><ele>107.5</ele><time>2026-04-06T08:29:49Z</time></trkpt><trkpt lat="45.506050361747455" lon="9.501759333758445"><ele>107.0</ele><time>2026-04-06T08:29:50Z</time></trkpt><trkpt lat="45.506097415675384" lon="9.502132084002216"><ele>107.0</ele><time>2026-04-06T08:29:51Z</time></trkpt><trkpt lat="45.506147236196846" lon="9.502501077586894"><ele>107.0</ele><time>2026-04-06T08:29:52Z</time></trkpt><trkpt lat="45.506199750954146" lon="9.502872574820435"><ele>108.0</ele><time>2026-04-06T08:29:53Z</time></trkpt><trkpt lat="45.50625605595373" lon="9.50324499052015"><ele>109.0</ele><time>2026-04-06T08:29:54Z</time></trkpt><trkpt lat="45.50631623435806" lon="9.503618162693963"><ele>108.0</ele><time>2026-04-06T08:29:55Z</time></trkpt><trkpt lat="45.50638298742478" lon="9.503997301350315"><ele>107.0</ele><time>2026-04-06T08:29:56Z</time></trkpt><trkpt lat="45.50644860920707" lon="9.504382598583604"><ele>106.5</ele><time>2026-04-06T08:29:57Z</time></trkpt><trkpt lat="45.50651360354507" lon="9.504768645958789"><ele>106.0</ele><time>2026-04-06T08:29:58Z</time></trkpt><trkpt lat="45.506582933754764" lon="9.505152799866442"><ele>106.0</ele><time>2026-04-06T08:29:59Z</time></trkpt><trkpt lat="45.50665321588907" lon="9.50552432113255"><ele>106.0</ele><time>2026-04-06T08:30:00Z</time></trkpt><trkpt lat="45.50672336922307" lon="9.505897085367831"><ele>106.5</ele><time>2026-04-06T08:30:01Z</time></trkpt><trkpt lat="45.5067914972112" lon="9.506271029390414"><ele>107.0</ele><time>2026-04-06T08:30:02Z</time></trkpt><trkpt lat="45.50685673420691" lon="9.506638507789551"><ele>107.0</ele><time>2026-04-06T08:30:03Z</time></trkpt><trkpt lat="45.50692490029589" lon="9.507001859598866"><ele>107.0</ele><time>2026-04-06T08:30:04Z</time></trkpt><trkpt lat="45.506997322845216" lon="9.507361634395085"><ele>107.0</ele><time>2026-04-06T08:30:05Z</time></trkpt><trkpt lat="45.50706658737363" lon="9.507722738298416"><ele>107.0</ele><time>2026-04-06T08:30:06Z</time></trkpt><trkpt lat="45.50713325228897" lon="9.50808621879981"><ele>107.0</ele><time>2026-04-06T08:30:07Z</time></trkpt><trkpt lat="45.50719961698393" lon="9.508447526130865"><ele>107.0</ele><time>2026-04-06T08:30:08Z</time></trkpt><trkpt lat="45.50726864356365" lon="9.508804295510672"><ele>107.0</ele><time>2026-04-06T08:30:09Z</time></trkpt><trkpt lat="45.507340097890996" lon="9.509162648382706"><ele>107.0</ele><time>2026-04-06T08:30:10Z</time></trkpt><trkpt lat="45.50741289361288" lon="9.509520138304037"><ele>106.5</ele><time>2026-04-06T08:30:11Z</time></trkpt><trkpt lat="45.50748394548347" lon="9.509879373305596"><ele>106.0</ele><time>2026-04-06T08:30:12Z</time></trkpt><trkpt lat="45.50755340529444" lon="9.510236270587145"><ele>106.0</ele><time>2026-04-06T08:30:13Z</time></trkpt><trkpt lat="45.50761910255042" lon="9.510595580272756"><ele>106.0</ele><time>2026-04-06T08:30:14Z</time></trkpt><trkpt lat="45.507685485297685" lon="9.510951578010651"><ele>105.0</ele><time>2026-04-06T08:30:15Z</time></trkpt><trkpt lat="45.507756025535215" lon="9.51130209493591"><ele>104.0</ele><time>2026-04-06T08:30:16Z</time></trkpt><trkpt lat="45.50782383339778" lon="9.511660344932507"><ele>104.0</ele><time>2026-04-06T08:30:17Z</time></trkpt><trkpt lat="45.507889058236216" lon="9.512011108546606"><ele>104.0</ele><time>2026-04-06T08:30:18Z</time></trkpt><trkpt lat="45.50795681149063" lon="9.512357583722752"><ele>105.0</ele><time>2026-04-06T08:30:19Z</time></trkpt><trkpt lat="45.50802843348568" lon="9.512701340923337"><ele>106.0</ele><time>2026-04-06T08:30:20Z</time></trkpt><trkpt lat="45.50809995087767" lon="9.513049551161663"><ele>106.5</ele><time>2026-04-06T08:30:21Z</time></trkpt><trkpt lat="45.50816691154712" lon="9.513402175145526"><ele>107.0</ele><time>2026-04-06T08:30:22Z</time></trkpt><trkpt lat="45.50823349277963" lon="9.51375825672503"><ele>107.5</ele><time>2026-04-06T08:30:23Z</time></trkpt><trkpt lat="45.50830115923187" lon="9.514112949970835"><ele>108.0</ele><time>2026-04-06T08:30:24Z</time></trkpt><trkpt lat="45.5083705685385" lon="9.514470088478317"><ele>107.5</ele><time>2026-04-06T08:30:25Z</time></trkpt><trkpt lat="45.50843830636688" lon="9.514826589984281"><ele>107.0</ele><time>2026-04-06T08:30:26Z</time></trkpt><trkpt lat="45.50850671722587" lon="9.515187538423742"><ele>107.0</ele><time>2026-04-06T08:30:27Z</time></trkpt><trkpt lat="45.50857740838371" lon="9.515547474817295"><ele>107.0</ele><time>2026-04-06T08:30:28Z</time></trkpt><trkpt lat="45.50864457668202" lon="9.515905676434988"><ele>107.5</ele><time>2026-04-06T08:30:29Z</time></trkpt><trkpt lat="45.508713945777636" lon="9.516267193887154"><ele>108.0</ele><time>2026-04-06T08:30:30Z</time></trkpt><trkpt lat="45.508781190120956" lon="9.516625096339814"><ele>108.0</ele><time>2026-04-06T08:30:31Z</time></trkpt><trkpt lat="45.50885264062295" lon="9.516987333868984"><ele>108.0</ele><time>2026-04-06T08:30:32Z</time></trkpt><trkpt lat="45.508922423074715" lon="9.517346620113688"><ele>108.0</ele><time>2026-04-06T08:30:33Z</time></trkpt><trkpt lat="45.508992819186425" lon="9.517706547954676"><ele>108.0</ele><time>2026-04-06T08:30:34Z</time></trkpt><trkpt lat="45.50906367939992" lon="9.518067671739404"><ele>109.5</ele><time>2026-04-06T08:30:35Z</time></trkpt><trkpt lat="45.50913446784716" lon="9.518429423578072"><ele>111.0</ele><time>2026-04-06T08:30:36Z</time></trkpt><trkpt lat="45.50920299189216" lon="9.518792786355862"><ele>111.5</ele><time>2026-04-06T08:30:37.001Z</time></trkpt><trkpt lat="45.50927189670943" lon="9.519155795620119"><ele>112.0</ele><time>2026-04-06T08:30:38.001Z</time></trkpt><trkpt lat="45.509342631358074" lon="9.519518095897235"><ele>111.0</ele><time>2026-04-06T08:30:39.001Z</time></trkpt><trkpt lat="45.50941609396142" lon="9.519888847816485"><ele>110.0</ele><time>2026-04-06T08:30:40.001Z</time></trkpt><trkpt lat="45.50948766850486" lon="9.520262820491755"><ele>110.0</ele><time>2026-04-06T08:30:41.001Z</time></trkpt><trkpt lat="45.50955466347017" lon="9.520641519086116"><ele>110.0</ele><time>2026-04-06T08:30:42.001Z</time></trkpt><trkpt lat="45.509615827789744" lon="9.52102634076077"><ele>109.0</ele><time>2026-04-06T08:30:43.001Z</time></trkpt><trkpt lat="45.50967781499265" lon="9.521412162829533"><ele>108.0</ele><time>2026-04-06T08:30:44.001Z</time></trkpt><trkpt lat="45.509746499028545" lon="9.521794683304059"><ele>107.5</ele><time>2026-04-06T08:30:45.001Z</time></trkpt><trkpt lat="45.509816954101346" lon="9.522181525440518"><ele>107.0</ele><time>2026-04-06T08:30:46.001Z</time></trkpt><trkpt lat="45.509881493403945" lon="9.522564683254856"><ele>107.5</ele><time>2026-04-06T08:30:47.001Z</time></trkpt><trkpt lat="45.50994312535707" lon="9.522957896133379"><ele>108.0</ele><time>2026-04-06T08:30:48.001Z</time></trkpt><trkpt lat="45.51000112489044" lon="9.523347609435364"><ele>109.0</ele><time>2026-04-06T08:30:49.001Z</time></trkpt><trkpt lat="45.510057129632095" lon="9.523739770478526"><ele>110.0</ele><time>2026-04-06T08:30:50.001Z</time></trkpt><trkpt lat="45.510111288263865" lon="9.524130879442303"><ele>110.0</ele><time>2026-04-06T08:30:51.001Z</time></trkpt><trkpt lat="45.51016360565478" lon="9.52452089682977"><ele>110.0</ele><time>2026-04-06T08:30:52.001Z</time></trkpt><trkpt lat="45.510212714562165" lon="9.524910961282156"><ele>110.0</ele><time>2026-04-06T08:30:53.001Z</time></trkpt><trkpt lat="45.51025925425678" lon="9.525305633069916"><ele>110.0</ele><time>2026-04-06T08:30:54.001Z</time></trkpt><trkpt lat="45.51030092381798" lon="9.525698303454385"><ele>109.5</ele><time>2026-04-06T08:30:55.001Z</time></trkpt><trkpt lat="45.5103411234598" lon="9.526091286971058"><ele>109.0</ele><time>2026-04-06T08:30:56.001Z</time></trkpt><trkpt lat="45.5103819725464" lon="9.526479485239658"><ele>109.5</ele><time>2026-04-06T08:30:57.001Z</time></trkpt><trkpt lat="45.51042014865053" lon="9.526858101995366"><ele>110.0</ele><time>2026-04-06T08:30:58.001Z</time></trkpt><trkpt lat="45.510458709960965" lon="9.527233132050787"><ele>110.0</ele><time>2026-04-06T08:30:59.001Z</time></trkpt><trkpt lat="45.51049721919797" lon="9.527608964254231"><ele>110.0</ele><time>2026-04-06T08:31:00.001Z</time></trkpt><trkpt lat="45.510535307704295" lon="9.527987382789899"><ele>110.0</ele><time>2026-04-06T08:31:01.001Z</time></trkpt><trkpt lat="45.51056920744607" lon="9.52837197343437"><ele>110.0</ele><time>2026-04-06T08:31:02.001Z</time></trkpt><trkpt lat="45.51059679062588" lon="9.528759304843605"><ele>110.0</ele><time>2026-04-06T08:31:03.001Z</time></trkpt><trkpt lat="45.51061915557054" lon="9.529148805041588"><ele>110.0</ele><time>2026-04-06T08:31:04Z</time></trkpt><trkpt lat="45.51063680237076" lon="9.529536251777133"><ele>109.5</ele><time>2026-04-06T08:31:05Z</time></trkpt><trkpt lat="45.51065627795863" lon="9.529927922761367"><ele>109.0</ele><time>2026-04-06T08:31:06Z</time></trkpt><trkpt lat="45.51066621995416" lon="9.530315745342975"><ele>110.0</ele><time>2026-04-06T08:31:07Z</time></trkpt><trkpt lat="45.510674548919646" lon="9.53070516237397"><ele>111.0</ele><time>2026-04-06T08:31:08Z</time></trkpt><trkpt lat="45.5106796266441" lon="9.531094273300946"><ele>112.0</ele><time>2026-04-06T08:31:09Z</time></trkpt><trkpt lat="45.51068084810551" lon="9.531478758195556"><ele>113.0</ele><time>2026-04-06T08:31:10Z</time></trkpt><trkpt lat="45.51068098240993" lon="9.531863091969216"><ele>114.0</ele><time>2026-04-06T08:31:11Z</time></trkpt><trkpt lat="45.51067934927293" lon="9.532250063237317"><ele>115.0</ele><time>2026-04-06T08:31:12Z</time></trkpt><trkpt lat="45.510680439610354" lon="9.532629790011576"><ele>115.5</ele><time>2026-04-06T08:31:13Z</time></trkpt><trkpt lat="45.51067759385772" lon="9.532989450130545"><ele>116.0</ele><time>2026-04-06T08:31:14Z</time></trkpt><trkpt lat="45.51067425048396" lon="9.533332960227321"><ele>116.0</ele><time>2026-04-06T08:31:15Z</time></trkpt><trkpt lat="45.51066626073466" lon="9.533671483090306"><ele>116.0</ele><time>2026-04-06T08:31:16Z</time></trkpt><trkpt lat="45.510658005901625" lon="9.534018402519541"><ele>115.5</ele><time>2026-04-06T08:31:17Z</time></trkpt><trkpt lat="45.510650637211825" lon="9.534370450384802"><ele>115.0</ele><time>2026-04-06T08:31:18Z</time></trkpt><trkpt lat="45.510639527099855" lon="9.534724758017859"><ele>114.5</ele><time>2026-04-06T08:31:19Z</time></trkpt><trkpt lat="45.510624501129826" lon="9.535079252258363"><ele>114.0</ele><time>2026-04-06T08:31:20Z</time></trkpt><trkpt lat="45.51060998134818" lon="9.53543890768663"><ele>113.5</ele><time>2026-04-06T08:31:21Z</time></trkpt><trkpt lat="45.51059190247745" lon="9.53579982784419"><ele>113.0</ele><time>2026-04-06T08:31:22Z</time></trkpt><trkpt lat="45.51056601334424" lon="9.53616061812908"><ele>114.0</ele><time>2026-04-06T08:31:23Z</time></trkpt><trkpt lat="45.51054325575754" lon="9.536524277388427"><ele>115.0</ele><time>2026-04-06T08:31:24Z</time></trkpt><trkpt lat="45.510526854807836" lon="9.536896649959822"><ele>114.5</ele><time>2026-04-06T08:31:25Z</time></trkpt><trkpt lat="45.51050163961479" lon="9.537260723670858"><ele>114.0</ele><time>2026-04-06T08:31:26Z</time></trkpt><trkpt lat="45.5104703360323" lon="9.53764383781017"><ele>113.5</ele><time>2026-04-06T08:31:27Z</time></trkpt><trkpt lat="45.51043689615358" lon="9.538039958072451"><ele>113.0</ele><time>2026-04-06T08:31:28Z</time></trkpt><trkpt lat="45.51039600165947" lon="9.538456435527365"><ele>113.5</ele><time>2026-04-06T08:31:29Z</time></trkpt><trkpt lat="45.510353811757845" lon="9.538884675959961"><ele>114.0</ele><time>2026-04-06T08:31:30Z</time></trkpt><trkpt lat="45.51030948156851" lon="9.539317655624268"><ele>113.0</ele><time>2026-04-06T08:31:31Z</time></trkpt><trkpt lat="45.51026615369914" lon="9.53974729673046"><ele>112.0</ele><time>2026-04-06T08:31:32Z</time></trkpt><trkpt lat="45.51021770240152" lon="9.540169171977938"><ele>111.5</ele><time>2026-04-06T08:31:33Z</time></trkpt><trkpt lat="45.5101629409558" lon="9.540585010946863"><ele>111.0</ele><time>2026-04-06T08:31:34Z</time></trkpt><trkpt lat="45.51010779343909" lon="9.541001747726092"><ele>112.5</ele><time>2026-04-06T08:31:35Z</time></trkpt><trkpt lat="45.5100538531057" lon="9.541392052602117"><ele>114.0</ele><time>2026-04-06T08:31:36Z</time></trkpt><trkpt lat="45.50999790702644" lon="9.541768092154426"><ele>113.5</ele><time>2026-04-06T08:31:37Z</time></trkpt><trkpt lat="45.50994728542488" lon="9.542131791530457"><ele>113.0</ele><time>2026-04-06T08:31:38Z</time></trkpt><trkpt lat="45.509894028569896" lon="9.542498858173513"><ele>113.0</ele><time>2026-04-06T08:31:39Z</time></trkpt><trkpt lat="45.509840814936574" lon="9.54287446465432"><ele>113.0</ele><time>2026-04-06T08:31:40Z</time></trkpt><trkpt lat="45.509782087913145" lon="9.543247353704562"><ele>113.0</ele><time>2026-04-06T08:31:41Z</time></trkpt><trkpt lat="45.50971789165841" lon="9.543617478182405"><ele>113.0</ele><time>2026-04-06T08:31:42Z</time></trkpt><trkpt lat="45.50966130753155" lon="9.543985306050843"><ele>113.0</ele><time>2026-04-06T08:31:43Z</time></trkpt><trkpt lat="45.50961088486235" lon="9.54435737657521"><ele>113.0</ele><time>2026-04-06T08:31:44Z</time></trkpt><trkpt lat="45.509546600695714" lon="9.544727310837164"><ele>112.5</ele><time>2026-04-06T08:31:45Z</time></trkpt><trkpt lat="45.50947153362718" lon="9.54507373789222"><ele>112.0</ele><time>2026-04-06T08:31:46Z</time></trkpt><trkpt lat="45.50942627146133" lon="9.545418440264443"><ele>111.5</ele><time>2026-04-06T08:31:47Z</time></trkpt><trkpt lat="45.509375389581336" lon="9.545772919959918"><ele>111.0</ele><time>2026-04-06T08:31:48Z</time></trkpt><trkpt lat="45.509303886134404" lon="9.546133648908487"><ele>111.0</ele><time>2026-04-06T08:31:49Z</time></trkpt><trkpt lat="45.50924606922933" lon="9.546513505155238"><ele>111.0</ele><time>2026-04-06T08:31:50Z</time></trkpt><trkpt lat="45.509191916096576" lon="9.546897933474838"><ele>111.0</ele><time>2026-04-06T08:31:51Z</time></trkpt><trkpt lat="45.50912846139308" lon="9.547279286015398"><ele>111.0</ele><time>2026-04-06T08:31:52Z</time></trkpt><trkpt lat="45.50905805914913" lon="9.547661651636375"><ele>111.0</ele><time>2026-04-06T08:31:53Z</time></trkpt><trkpt lat="45.508993787879106" lon="9.548045295208539"><ele>111.0</ele><time>2026-04-06T08:31:54Z</time></trkpt><trkpt lat="45.508932135732046" lon="9.548433766288275"><ele>111.0</ele><time>2026-04-06T08:31:55Z</time></trkpt><trkpt lat="45.50887065204667" lon="9.54883444395024"><ele>111.0</ele><time>2026-04-06T08:31:56Z</time></trkpt><trkpt lat="45.50881109554315" lon="9.549241287164637"><ele>110.5</ele><time>2026-04-06T08:31:57Z</time></trkpt><trkpt lat="45.508752845387654" lon="9.549661359266677"><ele>110.0</ele><time>2026-04-06T08:31:58Z</time></trkpt><trkpt lat="45.50869452996809" lon="9.550093788161695"><ele>109.5</ele><time>2026-04-06T08:31:59Z</time></trkpt><trkpt lat="45.50863211870439" lon="9.55052472542077"><ele>109.0</ele><time>2026-04-06T08:32:00Z</time></trkpt><trkpt lat="45.508564617454546" lon="9.550939265724598"><ele>110.0</ele><time>2026-04-06T08:32:01Z</time></trkpt><trkpt lat="45.50849477851197" lon="9.551344881582189"><ele>111.0</ele><time>2026-04-06T08:32:02Z</time></trkpt><trkpt lat="45.50842746181101" lon="9.551749367088874"><ele>111.5</ele><time>2026-04-06T08:32:03Z</time></trkpt><trkpt lat="45.50836239438464" lon="9.552146523515182"><ele>112.0</ele><time>2026-04-06T08:32:04Z</time></trkpt><trkpt lat="45.50830036578217" lon="9.552546939688787"><ele>112.0</ele><time>2026-04-06T08:32:05Z</time></trkpt><trkpt lat="45.50823788044407" lon="9.55294512116658"><ele>112.0</ele><time>2026-04-06T08:32:06Z</time></trkpt><trkpt lat="45.508174043496915" lon="9.553338262733746"><ele>111.5</ele><time>2026-04-06T08:32:07Z</time></trkpt><trkpt lat="45.50811136526154" lon="9.553727953880278"><ele>111.0</ele><time>2026-04-06T08:32:08Z</time></trkpt><trkpt lat="45.50805039541003" lon="9.55411315247952"><ele>111.0</ele><time>2026-04-06T08:32:09Z</time></trkpt><trkpt lat="45.507990110756005" lon="9.554499181441681"><ele>111.0</ele><time>2026-04-06T08:32:10Z</time></trkpt><trkpt lat="45.507928339185064" lon="9.554885974078692"><ele>111.0</ele><time>2026-04-06T08:32:11Z</time></trkpt><trkpt lat="45.507864822874005" lon="9.555271728702444"><ele>111.0</ele><time>2026-04-06T08:32:12Z</time></trkpt><trkpt lat="45.507802133268044" lon="9.555655387832003"><ele>110.5</ele><time>2026-04-06T08:32:13Z</time></trkpt><trkpt lat="45.50773723186603" lon="9.556037460734485"><ele>110.0</ele><time>2026-04-06T08:32:14Z</time></trkpt><trkpt lat="45.50767444748152" lon="9.556416406125198"><ele>110.5</ele><time>2026-04-06T08:32:15Z</time></trkpt><trkpt lat="45.50760706973321" lon="9.556795469040283"><ele>111.0</ele><time>2026-04-06T08:32:16Z</time></trkpt><trkpt lat="45.507541779163404" lon="9.557176658133992"><ele>111.0</ele><time>2026-04-06T08:32:17Z</time></trkpt><trkpt lat="45.5074789791215" lon="9.557560929353784"><ele>111.0</ele><time>2026-04-06T08:32:18Z</time></trkpt><trkpt lat="45.5074163210385" lon="9.557947272315669"><ele>111.0</ele><time>2026-04-06T08:32:19Z</time></trkpt><trkpt lat="45.507351793865624" lon="9.558337858982028"><ele>111.0</ele><time>2026-04-06T08:32:20Z</time></trkpt><trkpt lat="45.50728843793378" lon="9.558726271610892"><ele>111.0</ele><time>2026-04-06T08:32:21Z</time></trkpt><trkpt lat="45.50722478389589" lon="9.559110930065746"><ele>111.0</ele><time>2026-04-06T08:32:22Z</time></trkpt><trkpt lat="45.50716060473144" lon="9.559500406443165"><ele>110.5</ele><time>2026-04-06T08:32:23Z</time></trkpt><trkpt lat="45.50709653741778" lon="9.559885704787739"><ele>110.0</ele><time>2026-04-06T08:32:24Z</time></trkpt><trkpt lat="45.507035858892756" lon="9.560266827151974"><ele>111.0</ele><time>2026-04-06T08:32:25Z</time></trkpt><trkpt lat="45.50697440938391" lon="9.560647525491955"><ele>112.0</ele><time>2026-04-06T08:32:26Z</time></trkpt><trkpt lat="45.50691469690102" lon="9.561023878142683"><ele>112.0</ele><time>2026-04-06T08:32:27Z</time></trkpt><trkpt lat="45.50685299984213" lon="9.561403654908807"><ele>112.0</ele><time>2026-04-06T08:32:28Z</time></trkpt><trkpt lat="45.50679122854155" lon="9.561779786266385"><ele>111.0</ele><time>2026-04-06T08:32:29Z</time></trkpt><trkpt lat="45.506731014144236" lon="9.562157075699922"><ele>110.0</ele><time>2026-04-06T08:32:30Z</time></trkpt><trkpt lat="45.506672213019336" lon="9.562529999355855"><ele>111.0</ele><time>2026-04-06T08:32:31Z</time></trkpt><trkpt lat="45.506611294430314" lon="9.562903992875636"><ele>112.0</ele><time>2026-04-06T08:32:32Z</time></trkpt><trkpt lat="45.50655406947292" lon="9.56327357584226"><ele>112.0</ele><time>2026-04-06T08:32:33Z</time></trkpt><trkpt lat="45.50649059132861" lon="9.563649095902406"><ele>112.0</ele><time>2026-04-06T08:32:34Z</time></trkpt><trkpt lat="45.50642961393161" lon="9.564023757748828"><ele>114.0</ele><time>2026-04-06T08:32:35Z</time></trkpt><trkpt lat="45.50636720704364" lon="9.564395199231418"><ele>116.0</ele><time>2026-04-06T08:32:36Z</time></trkpt><trkpt lat="45.506304604373014" lon="9.564772655752037"><ele>116.0</ele><time>2026-04-06T08:32:37Z</time></trkpt><trkpt lat="45.50624084542014" lon="9.56515181301016"><ele>116.0</ele><time>2026-04-06T08:32:38Z</time></trkpt><trkpt lat="45.50617818481171" lon="9.565532021149933"><ele>116.5</ele><time>2026-04-06T08:32:39Z</time></trkpt><trkpt lat="45.50611415263723" lon="9.565913213634694"><ele>117.0</ele><time>2026-04-06T08:32:40Z</time></trkpt><trkpt lat="45.50605372789849" lon="9.566303152427402"><ele>117.0</ele><time>2026-04-06T08:32:41Z</time></trkpt><trkpt lat="45.50599370849462" lon="9.566682877687647"><ele>117.0</ele><time>2026-04-06T08:32:42Z</time></trkpt><trkpt lat="45.50593312466114" lon="9.567063170905847"><ele>118.5</ele><time>2026-04-06T08:32:43Z</time></trkpt><trkpt lat="45.50587082336542" lon="9.567443268221895"><ele>120.0</ele><time>2026-04-06T08:32:44Z</time></trkpt><trkpt lat="45.50580769893426" lon="9.567822059301205"><ele>120.0</ele><time>2026-04-06T08:32:45Z</time></trkpt><trkpt lat="45.50574142186562" lon="9.568201305423974"><ele>120.0</ele><time>2026-04-06T08:32:46Z</time></trkpt><trkpt lat="45.505677564054544" lon="9.56857985532385"><ele>119.0</ele><time>2026-04-06T08:32:47Z</time></trkpt><trkpt lat="45.50561631423867" lon="9.568958906631552"><ele>118.0</ele><time>2026-04-06T08:32:48Z</time></trkpt><trkpt lat="45.50555571802242" lon="9.569343674794961"><ele>118.5</ele><time>2026-04-06T08:32:49Z</time></trkpt><trkpt lat="45.50549478016072" lon="9.569724788630568"><ele>119.0</ele><time>2026-04-06T08:32:50Z</time></trkpt><trkpt lat="45.50543182375474" lon="9.570109125066747"><ele>119.0</ele><time>2026-04-06T08:32:51Z</time></trkpt><trkpt lat="45.505368409730835" lon="9.570489494165031"><ele>119.0</ele><time>2026-04-06T08:32:52Z</time></trkpt><trkpt lat="45.50530422659765" lon="9.57087486286639"><ele>119.5</ele><time>2026-04-06T08:32:53Z</time></trkpt><trkpt lat="45.505242175926874" lon="9.571258164585556"><ele>120.0</ele><time>2026-04-06T08:32:54Z</time></trkpt><trkpt lat="45.50518078912737" lon="9.571641609929685"><ele>118.5</ele><time>2026-04-06T08:32:55Z</time></trkpt><trkpt lat="45.505118304795744" lon="9.572029527595758"><ele>117.0</ele><time>2026-04-06T08:32:56.001Z</time></trkpt><trkpt lat="45.50505477172948" lon="9.572423733141632"><ele>117.0</ele><time>2026-04-06T08:32:57.001Z</time></trkpt><trkpt lat="45.50498543088436" lon="9.572835305241217"><ele>117.0</ele><time>2026-04-06T08:32:58.001Z</time></trkpt><trkpt lat="45.50490796987931" lon="9.573278043458991"><ele>119.0</ele><time>2026-04-06T08:32:59.001Z</time></trkpt><trkpt lat="45.50483321061562" lon="9.573713620757129"><ele>121.0</ele><time>2026-04-06T08:33:00.001Z</time></trkpt><trkpt lat="45.50475769958849" lon="9.57411763287425"><ele>121.0</ele><time>2026-04-06T08:33:01.001Z</time></trkpt><trkpt lat="45.504693798602695" lon="9.574499824756208"><ele>121.0</ele><time>2026-04-06T08:33:02.001Z</time></trkpt><trkpt lat="45.50462855610175" lon="9.574880361834834"><ele>119.5</ele><time>2026-04-06T08:33:03.001Z</time></trkpt><trkpt lat="45.504566127216854" lon="9.575258779947823"><ele>118.0</ele><time>2026-04-06T08:33:04.001Z</time></trkpt><trkpt lat="45.5045052337524" lon="9.575626325550173"><ele>118.0</ele><time>2026-04-06T08:33:05.001Z</time></trkpt><trkpt lat="45.50444584494766" lon="9.57599820889884"><ele>118.0</ele><time>2026-04-06T08:33:06.001Z</time></trkpt><trkpt lat="45.504382307705626" lon="9.57636477540375"><ele>118.0</ele><time>2026-04-06T08:33:07.001Z</time></trkpt><trkpt lat="45.50432197004712" lon="9.576728318541335"><ele>118.0</ele><time>2026-04-06T08:33:08.001Z</time></trkpt><trkpt lat="45.504265528243714" lon="9.577095093344846"><ele>118.0</ele><time>2026-04-06T08:33:09.001Z</time></trkpt><trkpt lat="45.50420677568959" lon="9.577465260512591"><ele>118.0</ele><time>2026-04-06T08:33:10.001Z</time></trkpt><trkpt lat="45.504147251032975" lon="9.577839095864102"><ele>117.0</ele><time>2026-04-06T08:33:11.001Z</time></trkpt><trkpt lat="45.50408695520401" lon="9.578221131378074"><ele>116.0</ele><time>2026-04-06T08:33:12.001Z</time></trkpt><trkpt lat="45.50402604420802" lon="9.578600105350397"><ele>114.0</ele><time>2026-04-06T08:33:13.001Z</time></trkpt><trkpt lat="45.50396858871709" lon="9.578985914447104"><ele>112.0</ele><time>2026-04-06T08:33:14.001Z</time></trkpt><trkpt lat="45.50390710829713" lon="9.579364473028637"><ele>114.5</ele><time>2026-04-06T08:33:15.001Z</time></trkpt><trkpt lat="45.50384759224149" lon="9.579747007639636"><ele>117.0</ele><time>2026-04-06T08:33:16.001Z</time></trkpt><trkpt lat="45.50379537835536" lon="9.580132558596011"><ele>117.5</ele><time>2026-04-06T08:33:17.001Z</time></trkpt><trkpt lat="45.503742465219" lon="9.580511156773289"><ele>118.0</ele><time>2026-04-06T08:33:18.001Z</time></trkpt><trkpt lat="45.50369760543045" lon="9.580888097746287"><ele>118.0</ele><time>2026-04-06T08:33:19.001Z</time></trkpt><trkpt lat="45.503649969759465" lon="9.581265663579238"><ele>118.0</ele><time>2026-04-06T08:33:20.001Z</time></trkpt><trkpt lat="45.50360411192079" lon="9.581639611031203"><ele>117.5</ele><time>2026-04-06T08:33:21.001Z</time></trkpt><trkpt lat="45.50356229764767" lon="9.58201772822652"><ele>117.0</ele><time>2026-04-06T08:33:22.001Z</time></trkpt><trkpt lat="45.50352422823069" lon="9.582391872213492"><ele>117.0</ele><time>2026-04-06T08:33:23.001Z</time></trkpt><trkpt lat="45.50348697120001" lon="9.58276073949457"><ele>117.0</ele><time>2026-04-06T08:33:24.001Z</time></trkpt><trkpt lat="45.5034477315438" lon="9.583134027485364"><ele>117.5</ele><time>2026-04-06T08:33:25.001Z</time></trkpt><trkpt lat="45.50340565038298" lon="9.583499668957835"><ele>118.0</ele><time>2026-04-06T08:33:26.001Z</time></trkpt><trkpt lat="45.50337116417851" lon="9.583865737607994"><ele>116.5</ele><time>2026-04-06T08:33:27.001Z</time></trkpt><trkpt lat="45.503348029117255" lon="9.584232578834294"><ele>115.0</ele><time>2026-04-06T08:33:28.001Z</time></trkpt><trkpt lat="45.503323367727795" lon="9.584601482396565"><ele>115.0</ele><time>2026-04-06T08:33:29.001Z</time></trkpt><trkpt lat="45.503290232104696" lon="9.58496185956231"><ele>115.0</ele><time>2026-04-06T08:33:30.001Z</time></trkpt><trkpt lat="45.50326304254943" lon="9.585323109188762"><ele>116.0</ele><time>2026-04-06T08:33:31.001Z</time></trkpt><trkpt lat="45.50324581674115" lon="9.585694446599135"><ele>117.0</ele><time>2026-04-06T08:33:32.001Z</time></trkpt><trkpt lat="45.50322934560661" lon="9.586056786909966"><ele>116.0</ele><time>2026-04-06T08:33:33.001Z</time></trkpt><trkpt lat="45.50320630160939" lon="9.58642006043363"><ele>115.0</ele><time>2026-04-06T08:33:34.001Z</time></trkpt><trkpt lat="45.50318554296489" lon="9.58678513611789"><ele>115.5</ele><time>2026-04-06T08:33:35.001Z</time></trkpt><trkpt lat="45.50316994381378" lon="9.587156009568462"><ele>116.0</ele><time>2026-04-06T08:33:36.001Z</time></trkpt><trkpt lat="45.503156993131064" lon="9.587521734201472"><ele>117.0</ele><time>2026-04-06T08:33:37.001Z</time></trkpt><trkpt lat="45.503144292422576" lon="9.587885356010016"><ele>118.0</ele><time>2026-04-06T08:33:38.001Z</time></trkpt><trkpt lat="45.50313198201321" lon="9.588252324472881"><ele>118.0</ele><time>2026-04-06T08:33:39Z</time></trkpt><trkpt lat="45.50311990960195" lon="9.588616404383497"><ele>118.0</ele><time>2026-04-06T08:33:40Z</time></trkpt><trkpt lat="45.50311157699849" lon="9.588985807589149"><ele>117.0</ele><time>2026-04-06T08:33:41Z</time></trkpt><trkpt lat="45.50311057808909" lon="9.589347437363708"><ele>116.0</ele><time>2026-04-06T08:33:42Z</time></trkpt><trkpt lat="45.50311013502654" lon="9.589716005709741"><ele>115.5</ele><time>2026-04-06T08:33:43Z</time></trkpt><trkpt lat="45.503108870275135" lon="9.590085193402727"><ele>115.0</ele><time>2026-04-06T08:33:44Z</time></trkpt><trkpt lat="45.50310775134855" lon="9.59045779394562"><ele>115.0</ele><time>2026-04-06T08:33:45Z</time></trkpt><trkpt lat="45.50311253636522" lon="9.590825460307341"><ele>115.0</ele><time>2026-04-06T08:33:46Z</time></trkpt><trkpt lat="45.50311721642633" lon="9.591198607444078"><ele>114.5</ele><time>2026-04-06T08:33:47Z</time></trkpt><trkpt lat="45.503121088716775" lon="9.59157101875343"><ele>114.0</ele><time>2026-04-06T08:33:48Z</time></trkpt><trkpt lat="45.50312897034725" lon="9.591944456372408"><ele>113.5</ele><time>2026-04-06T08:33:49Z</time></trkpt><trkpt lat="45.503141922195425" lon="9.592312834365822"><ele>113.0</ele><time>2026-04-06T08:33:50Z</time></trkpt><trkpt lat="45.503152170374186" lon="9.592682465782302"><ele>113.0</ele><time>2026-04-06T08:33:51Z</time></trkpt><trkpt lat="45.503162429479616" lon="9.593055554597553"><ele>113.0</ele><time>2026-04-06T08:33:52Z</time></trkpt><trkpt lat="45.50317421812376" lon="9.593432146962494"><ele>114.0</ele><time>2026-04-06T08:33:53Z</time></trkpt><trkpt lat="45.503187706625255" lon="9.593806534162532"><ele>115.0</ele><time>2026-04-06T08:33:54Z</time></trkpt><trkpt lat="45.503203537756896" lon="9.59418619538607"><ele>114.5</ele><time>2026-04-06T08:33:55Z</time></trkpt><trkpt lat="45.50321776398456" lon="9.594565763351817"><ele>114.0</ele><time>2026-04-06T08:33:56Z</time></trkpt><trkpt lat="45.503235543804635" lon="9.594941001092659"><ele>114.0</ele><time>2026-04-06T08:33:57Z</time></trkpt><trkpt lat="45.50325488993181" lon="9.595316969552094"><ele>114.0</ele><time>2026-04-06T08:33:58Z</time></trkpt><trkpt lat="45.5032738948882" lon="9.595695799671383"><ele>114.0</ele><time>2026-04-06T08:33:59Z</time></trkpt><trkpt lat="45.50329217877879" lon="9.596074822452852"><ele>114.0</ele><time>2026-04-06T08:34:00Z</time></trkpt><trkpt lat="45.5033103859787" lon="9.596457798959522"><ele>114.5</ele><time>2026-04-06T08:34:01Z</time></trkpt><trkpt lat="45.503321262886715" lon="9.596839376412031"><ele>115.0</ele><time>2026-04-06T08:34:02Z</time></trkpt><trkpt lat="45.503335494168866" lon="9.597219549889465"><ele>115.0</ele><time>2026-04-06T08:34:03Z</time></trkpt><trkpt lat="45.503350126712725" lon="9.597599079846606"><ele>115.0</ele><time>2026-04-06T08:34:04Z</time></trkpt><trkpt lat="45.503369371167686" lon="9.59797018638143"><ele>115.0</ele><time>2026-04-06T08:34:05Z</time></trkpt><trkpt lat="45.50338993534903" lon="9.598341008750301"><ele>115.0</ele><time>2026-04-06T08:34:06Z</time></trkpt><trkpt lat="45.50340606786274" lon="9.598714978451728"><ele>115.0</ele><time>2026-04-06T08:34:07Z</time></trkpt><trkpt lat="45.50342434795533" lon="9.59908066885417"><ele>115.0</ele><time>2026-04-06T08:34:08Z</time></trkpt><trkpt lat="45.50344007384577" lon="9.599437775520029"><ele>115.0</ele><time>2026-04-06T08:34:09Z</time></trkpt><trkpt lat="45.50345660601808" lon="9.599794830439064"><ele>115.0</ele><time>2026-04-06T08:34:10Z</time></trkpt><trkpt lat="45.50347391483388" lon="9.600155183668454"><ele>114.0</ele><time>2026-04-06T08:34:11Z</time></trkpt><trkpt lat="45.503492628992326" lon="9.600516285914006"><ele>113.0</ele><time>2026-04-06T08:34:12Z</time></trkpt><trkpt lat="45.50351041937545" lon="9.60087684597842"><ele>113.0</ele><time>2026-04-06T08:34:13Z</time></trkpt><trkpt lat="45.50352756295439" lon="9.601238157936955"><ele>113.0</ele><time>2026-04-06T08:34:14Z</time></trkpt><trkpt lat="45.50354079074152" lon="9.601598931153573"><ele>113.0</ele><time>2026-04-06T08:34:15Z</time></trkpt><trkpt lat="45.503556637377066" lon="9.601966419638702"><ele>113.0</ele><time>2026-04-06T08:34:16Z</time></trkpt><trkpt lat="45.503577430720625" lon="9.602334580296843"><ele>113.5</ele><time>2026-04-06T08:34:17Z</time></trkpt><trkpt lat="45.503600583113226" lon="9.602705370196333"><ele>114.0</ele><time>2026-04-06T08:34:18Z</time></trkpt><trkpt lat="45.50362541837738" lon="9.603085542736636"><ele>114.0</ele><time>2026-04-06T08:34:19Z</time></trkpt><trkpt lat="45.50365202968855" lon="9.603480903382975"><ele>114.0</ele><time>2026-04-06T08:34:20Z</time></trkpt><trkpt lat="45.50368526887452" lon="9.6039110199232"><ele>114.0</ele><time>2026-04-06T08:34:21Z</time></trkpt><trkpt lat="45.50373662415866" lon="9.604386147956609"><ele>114.0</ele><time>2026-04-06T08:34:22Z</time></trkpt><trkpt lat="45.50380407546484" lon="9.604908287405584"><ele>113.5</ele><time>2026-04-06T08:34:23Z</time></trkpt><trkpt lat="45.50386114766169" lon="9.605469902186021"><ele>113.0</ele><time>2026-04-06T08:34:24Z</time></trkpt><trkpt lat="45.503912768787885" lon="9.606067873527552"><ele>113.0</ele><time>2026-04-06T08:34:25Z</time></trkpt><trkpt lat="45.5039798108831" lon="9.606683129330724"><ele>113.0</ele><time>2026-04-06T08:34:26Z</time></trkpt><trkpt lat="45.50405882756864" lon="9.607308271355567"><ele>115.0</ele><time>2026-04-06T08:34:27Z</time></trkpt><trkpt lat="45.50414548730003" lon="9.60795041497433"><ele>115.0</ele><time>2026-04-06T08:34:28Z</time></trkpt><trkpt lat="45.504245024225035" lon="9.608609256420271"><ele>113.0</ele><time>2026-04-06T08:34:29Z</time></trkpt><trkpt lat="45.50435373152506" lon="9.60927333718016"><ele>114.0</ele><time>2026-04-06T08:34:30Z</time></trkpt><trkpt lat="45.5044765434466" lon="9.609940546584097"><ele>116.0</ele><time>2026-04-06T08:34:31Z</time></trkpt><trkpt lat="45.50461415397538" lon="9.610609932722646"><ele>117.0</ele><time>2026-04-06T08:34:32Z</time></trkpt><trkpt lat="45.504765631985535" lon="9.611286175832005"><ele>117.0</ele><time>2026-04-06T08:34:33Z</time></trkpt><trkpt lat="45.50492252415211" lon="9.611963097770486"><ele>116.0</ele><time>2026-04-06T08:34:34Z</time></trkpt><trkpt lat="45.505086638392335" lon="9.612643651056965"><ele>117.0</ele><time>2026-04-06T08:34:35Z</time></trkpt><trkpt lat="45.50525279149593" lon="9.613322004698642"><ele>116.0</ele><time>2026-04-06T08:34:36Z</time></trkpt><trkpt lat="45.50543187970203" lon="9.613995539487185"><ele>115.0</ele><time>2026-04-06T08:34:37Z</time></trkpt><trkpt lat="45.50562689725678" lon="9.614671086455473"><ele>119.0</ele><time>2026-04-06T08:34:38Z</time></trkpt><trkpt lat="45.505838575775385" lon="9.615339385867676"><ele>119.0</ele><time>2026-04-06T08:34:39Z</time></trkpt><trkpt lat="45.506052139810365" lon="9.61598905906989"><ele>119.0</ele><time>2026-04-06T08:34:40Z</time></trkpt><trkpt lat="45.506259149064405" lon="9.616601872094556"><ele>116.0</ele><time>2026-04-06T08:34:41Z</time></trkpt><trkpt lat="45.50645817378185" lon="9.617180757226938"><ele>116.0</ele><time>2026-04-06T08:34:42Z</time></trkpt><trkpt lat="45.50665184581242" lon="9.61771751322631"><ele>116.0</ele><time>2026-04-06T08:34:43Z</time></trkpt><trkpt lat="45.50684253721692" lon="9.618230178137127"><ele>115.0</ele><time>2026-04-06T08:34:44Z</time></trkpt><trkpt lat="45.507041651767146" lon="9.61877587678974"><ele>114.0</ele><time>2026-04-06T08:34:45.027Z</time></trkpt><trkpt lat="45.5072343769587" lon="9.61931083397301"><ele>114.5</ele><time>2026-04-06T08:34:46.025Z</time></trkpt><trkpt lat="45.5074219517961" lon="9.619839092672251"><ele>115.0</ele><time>2026-04-06T08:34:47.017Z</time></trkpt><trkpt lat="45.50761187082192" lon="9.620374782664776"><ele>113.0</ele><time>2026-04-06T08:34:48.026Z</time></trkpt><trkpt lat="45.5083274329505" lon="9.622811833405516"><ele>113.0</ele><time>2026-04-06T08:34:53Z</time></trkpt><trkpt lat="45.50844119712748" lon="9.622963013425844"><ele>113.0</ele><time>2026-04-06T08:34:54Z</time></trkpt><trkpt lat="45.508584531186806" lon="9.623434998118046"><ele>114.5</ele><time>2026-04-06T08:34:55Z</time></trkpt><trkpt lat="45.50872024780162" lon="9.623893431365193"><ele>116.0</ele><time>2026-04-06T08:34:56Z</time></trkpt><trkpt lat="45.508844690643116" lon="9.624349858126587"><ele>116.0</ele><time>2026-04-06T08:34:57Z</time></trkpt><trkpt lat="45.508973463476224" lon="9.624807989638601"><ele>116.0</ele><time>2026-04-06T08:34:58Z</time></trkpt><trkpt lat="45.50909822174218" lon="9.625254108676982"><ele>115.0</ele><time>2026-04-06T08:34:59Z</time></trkpt><trkpt lat="45.50921799529857" lon="9.625690113439607"><ele>114.0</ele><time>2026-04-06T08:35:00Z</time></trkpt><trkpt lat="45.509327183422236" lon="9.626117066618313"><ele>114.0</ele><time>2026-04-06T08:35:01Z</time></trkpt><trkpt lat="45.50943510691363" lon="9.626541309656977"><ele>114.0</ele><time>2026-04-06T08:35:02.002Z</time></trkpt><trkpt lat="45.509531702046765" lon="9.626961224909321"><ele>115.0</ele><time>2026-04-06T08:35:03.002Z</time></trkpt><trkpt lat="45.509625616779026" lon="9.62737668306994"><ele>116.0</ele><time>2026-04-06T08:35:04.002Z</time></trkpt><trkpt lat="45.50971942289512" lon="9.627776628700554"><ele>116.0</ele><time>2026-04-06T08:35:05.002Z</time></trkpt><trkpt lat="45.50981217590268" lon="9.628177024738969"><ele>116.0</ele><time>2026-04-06T08:35:06.002Z</time></trkpt><trkpt lat="45.509898850364635" lon="9.628578616883924"><ele>116.0</ele><time>2026-04-06T08:35:07.002Z</time></trkpt><trkpt lat="45.509980070495395" lon="9.628979223762405"><ele>116.0</ele><time>2026-04-06T08:35:08.002Z</time></trkpt><trkpt lat="45.51005935537052" lon="9.629378716613497"><ele>115.5</ele><time>2026-04-06T08:35:09.001Z</time></trkpt><trkpt lat="45.51013813853145" lon="9.629772885994194"><ele>115.0</ele><time>2026-04-06T08:35:10.001Z</time></trkpt><trkpt lat="45.51021243336857" lon="9.630166759406835"><ele>115.0</ele><time>2026-04-06T08:35:11.001Z</time></trkpt><trkpt lat="45.510282308786955" lon="9.630555877470613"><ele>115.0</ele><time>2026-04-06T08:35:12.001Z</time></trkpt><trkpt lat="45.51035073539212" lon="9.6309459974802"><ele>116.0</ele><time>2026-04-06T08:35:13.001Z</time></trkpt><trkpt lat="45.51041043100831" lon="9.631317563027796"><ele>117.0</ele><time>2026-04-06T08:35:14.001Z</time></trkpt><trkpt lat="45.51047903719233" lon="9.631707578511342"><ele>117.0</ele><time>2026-04-06T08:35:15.001Z</time></trkpt><trkpt lat="45.510542649776056" lon="9.63207980305296"><ele>117.0</ele><time>2026-04-06T08:35:16.001Z</time></trkpt><trkpt lat="45.51060053155586" lon="9.632452607189157"><ele>116.0</ele><time>2026-04-06T08:35:17.001Z</time></trkpt><trkpt lat="45.51065435952454" lon="9.632826929666974"><ele>115.0</ele><time>2026-04-06T08:35:18.001Z</time></trkpt><trkpt lat="45.510695359701586" lon="9.633200660039153"><ele>115.0</ele><time>2026-04-06T08:35:19.001Z</time></trkpt><trkpt lat="45.51074681162782" lon="9.633568457565273"><ele>115.0</ele><time>2026-04-06T08:35:20.001Z</time></trkpt><trkpt lat="45.51078784880317" lon="9.633931270401934"><ele>115.0</ele><time>2026-04-06T08:35:21.001Z</time></trkpt><trkpt lat="45.51083683823069" lon="9.63429306019324"><ele>115.0</ele><time>2026-04-06T08:35:22.001Z</time></trkpt><trkpt lat="45.51087883525937" lon="9.634653393210415"><ele>115.0</ele><time>2026-04-06T08:35:23.001Z</time></trkpt><trkpt lat="45.51092239388639" lon="9.635017616364106"><ele>115.0</ele><time>2026-04-06T08:35:24.001Z</time></trkpt><trkpt lat="45.510956765197726" lon="9.635374752878727"><ele>115.0</ele><time>2026-04-06T08:35:25.001Z</time></trkpt><trkpt lat="45.51099396286729" lon="9.635741330515831"><ele>115.0</ele><time>2026-04-06T08:35:26.001Z</time></trkpt><trkpt lat="45.51103400897987" lon="9.63611490187215"><ele>115.5</ele><time>2026-04-06T08:35:27.001Z</time></trkpt><trkpt lat="45.51107215778343" lon="9.63649799723511"><ele>116.0</ele><time>2026-04-06T08:35:28.001Z</time></trkpt><trkpt lat="45.51110920821434" lon="9.63688489900293"><ele>115.5</ele><time>2026-04-06T08:35:29.001Z</time></trkpt><trkpt lat="45.51114348663492" lon="9.637279858003776"><ele>115.0</ele><time>2026-04-06T08:35:30.001Z</time></trkpt><trkpt lat="45.51115476144167" lon="9.637680235874665"><ele>115.5</ele><time>2026-04-06T08:35:31.001Z</time></trkpt><trkpt lat="45.51119463749759" lon="9.638086144354189"><ele>116.0</ele><time>2026-04-06T08:35:32.001Z</time></trkpt><trkpt lat="45.51121768041679" lon="9.638489394557793"><ele>116.5</ele><time>2026-04-06T08:35:33.001Z</time></trkpt><trkpt lat="45.511238990926664" lon="9.638887275160695"><ele>117.0</ele><time>2026-04-06T08:35:34.001Z</time></trkpt><trkpt lat="45.5112593249699" lon="9.6392836617919"><ele>116.5</ele><time>2026-04-06T08:35:35.001Z</time></trkpt><trkpt lat="45.511278739811765" lon="9.639680717291903"><ele>116.0</ele><time>2026-04-06T08:35:36.001Z</time></trkpt><trkpt lat="45.51129360601957" lon="9.64007683976665"><ele>115.5</ele><time>2026-04-06T08:35:37.001Z</time></trkpt><trkpt lat="45.51130382694272" lon="9.640473073746229"><ele>115.0</ele><time>2026-04-06T08:35:38.001Z</time></trkpt><trkpt lat="45.51131405406342" lon="9.640868239662568"><ele>116.5</ele><time>2026-04-06T08:35:39.001Z</time></trkpt><trkpt lat="45.511326254171955" lon="9.641272229913868"><ele>118.0</ele><time>2026-04-06T08:35:40.001Z</time></trkpt><trkpt lat="45.51133162655723" lon="9.641683684061121"><ele>117.5</ele><time>2026-04-06T08:35:41.001Z</time></trkpt><trkpt lat="45.51133854936608" lon="9.642101592658213"><ele>117.0</ele><time>2026-04-06T08:35:42.001Z</time></trkpt><trkpt lat="45.511341795645436" lon="9.64252944009788"><ele>115.5</ele><time>2026-04-06T08:35:43.001Z</time></trkpt><trkpt lat="45.51133766560472" lon="9.642965246187234"><ele>114.0</ele><time>2026-04-06T08:35:44.001Z</time></trkpt><trkpt lat="45.511337768721695" lon="9.643414290647337"><ele>115.0</ele><time>2026-04-06T08:35:45.001Z</time></trkpt><trkpt lat="45.511335414737914" lon="9.643860341988331"><ele>116.0</ele><time>2026-04-06T08:35:46.001Z</time></trkpt><trkpt lat="45.511329967871625" lon="9.644312372588713"><ele>114.5</ele><time>2026-04-06T08:35:47.001Z</time></trkpt><trkpt lat="45.51132410281301" lon="9.644754885853475"><ele>113.0</ele><time>2026-04-06T08:35:48.001Z</time></trkpt><trkpt lat="45.51131625365971" lon="9.645190327274774"><ele>112.5</ele><time>2026-04-06T08:35:49.001Z</time></trkpt><trkpt lat="45.511305678807126" lon="9.645622687886265"><ele>112.0</ele><time>2026-04-06T08:35:50.001Z</time></trkpt><trkpt lat="45.511296532299255" lon="9.646049290097201"><ele>112.5</ele><time>2026-04-06T08:35:51.001Z</time></trkpt><trkpt lat="45.511287666399454" lon="9.646471992924942"><ele>113.0</ele><time>2026-04-06T08:35:52.001Z</time></trkpt><trkpt lat="45.51127777745643" lon="9.646887785782361"><ele>113.5</ele><time>2026-04-06T08:35:53.001Z</time></trkpt><trkpt lat="45.511269348929375" lon="9.647304523062267"><ele>114.0</ele><time>2026-04-06T08:35:54.001Z</time></trkpt><trkpt lat="45.5112613548412" lon="9.64772177213078"><ele>113.5</ele><time>2026-04-06T08:35:55.001Z</time></trkpt><trkpt lat="45.51123838964744" lon="9.648163724293074"><ele>113.0</ele><time>2026-04-06T08:35:56.001Z</time></trkpt><trkpt lat="45.511233556098034" lon="9.648601830565598"><ele>112.5</ele><time>2026-04-06T08:35:57Z</time></trkpt><trkpt lat="45.51122680321564" lon="9.64903734824556"><ele>112.0</ele><time>2026-04-06T08:35:58Z</time></trkpt><trkpt lat="45.511218723811325" lon="9.649462719633332"><ele>112.0</ele><time>2026-04-06T08:35:59Z</time></trkpt><trkpt lat="45.511207658520206" lon="9.649890219384613"><ele>112.0</ele><time>2026-04-06T08:36:00Z</time></trkpt><trkpt lat="45.51119758380147" lon="9.65030639504107"><ele>112.0</ele><time>2026-04-06T08:36:01Z</time></trkpt><trkpt lat="45.511182622009834" lon="9.650721809293573"><ele>112.0</ele><time>2026-04-06T08:36:02Z</time></trkpt><trkpt lat="45.5111722774379" lon="9.651132371949172"><ele>112.5</ele><time>2026-04-06T08:36:03Z</time></trkpt><trkpt lat="45.51116428358532" lon="9.65153285002716"><ele>113.0</ele><time>2026-04-06T08:36:04Z</time></trkpt><trkpt lat="45.51115719860567" lon="9.651937152036368"><ele>113.0</ele><time>2026-04-06T08:36:05Z</time></trkpt><trkpt lat="45.5111480799536" lon="9.652337095820691"><ele>113.0</ele><time>2026-04-06T08:36:06Z</time></trkpt><trkpt lat="45.511137678663545" lon="9.652734221888325"><ele>112.5</ele><time>2026-04-06T08:36:07Z</time></trkpt><trkpt lat="45.5111290534812" lon="9.653132046965219"><ele>112.0</ele><time>2026-04-06T08:36:08Z</time></trkpt><trkpt lat="45.51112084507692" lon="9.65353299348112"><ele>111.5</ele><time>2026-04-06T08:36:09Z</time></trkpt><trkpt lat="45.511113116147435" lon="9.653939750351194"><ele>111.0</ele><time>2026-04-06T08:36:10Z</time></trkpt><trkpt lat="45.511106025163926" lon="9.654347848195073"><ele>112.0</ele><time>2026-04-06T08:36:11Z</time></trkpt><trkpt lat="45.51109848787126" lon="9.65475808971775"><ele>113.0</ele><time>2026-04-06T08:36:12Z</time></trkpt><trkpt lat="45.511091157454025" lon="9.65516457843419"><ele>113.0</ele><time>2026-04-06T08:36:13Z</time></trkpt><trkpt lat="45.51107939810751" lon="9.655574716621311"><ele>113.0</ele><time>2026-04-06T08:36:14Z</time></trkpt><trkpt lat="45.511069233942614" lon="9.655985208419615"><ele>113.0</ele><time>2026-04-06T08:36:15Z</time></trkpt><trkpt lat="45.51105900830538" lon="9.65639841679234"><ele>113.0</ele><time>2026-04-06T08:36:16Z</time></trkpt><trkpt lat="45.511050430966755" lon="9.65680540775864"><ele>112.0</ele><time>2026-04-06T08:36:17Z</time></trkpt><trkpt lat="45.511039505644604" lon="9.657211555773221"><ele>111.0</ele><time>2026-04-06T08:36:18Z</time></trkpt><trkpt lat="45.511025921304686" lon="9.657614897407552"><ele>112.5</ele><time>2026-04-06T08:36:19Z</time></trkpt><trkpt lat="45.51101547007584" lon="9.658013899460121"><ele>114.0</ele><time>2026-04-06T08:36:20Z</time></trkpt><trkpt lat="45.51100641711657" lon="9.658411741712376"><ele>113.5</ele><time>2026-04-06T08:36:21Z</time></trkpt><trkpt lat="45.510997138717634" lon="9.658808791270657"><ele>113.0</ele><time>2026-04-06T08:36:22Z</time></trkpt><trkpt lat="45.51098933112726" lon="9.659201590621548"><ele>112.0</ele><time>2026-04-06T08:36:23Z</time></trkpt><trkpt lat="45.51097713202148" lon="9.659589594008478"><ele>111.0</ele><time>2026-04-06T08:36:24Z</time></trkpt><trkpt lat="45.5109729881655" lon="9.659977369236934"><ele>112.0</ele><time>2026-04-06T08:36:25Z</time></trkpt><trkpt lat="45.510964472588455" lon="9.660364588808422"><ele>113.0</ele><time>2026-04-06T08:36:26Z</time></trkpt><trkpt lat="45.51095721118763" lon="9.660751302932256"><ele>113.0</ele><time>2026-04-06T08:36:27Z</time></trkpt><trkpt lat="45.51094893111986" lon="9.661137890314821"><ele>113.0</ele><time>2026-04-06T08:36:28Z</time></trkpt><trkpt lat="45.51093599843289" lon="9.661531344433827"><ele>113.0</ele><time>2026-04-06T08:36:29Z</time></trkpt><trkpt lat="45.51092685542272" lon="9.661917498006963"><ele>113.0</ele><time>2026-04-06T08:36:30Z</time></trkpt><trkpt lat="45.510921447013324" lon="9.6623021669279"><ele>112.5</ele><time>2026-04-06T08:36:31Z</time></trkpt><trkpt lat="45.510910785634394" lon="9.662688367781758"><ele>112.0</ele><time>2026-04-06T08:36:32Z</time></trkpt><trkpt lat="45.510898924894015" lon="9.663076922030525"><ele>112.0</ele><time>2026-04-06T08:36:33Z</time></trkpt><trkpt lat="45.51088780496964" lon="9.663461745946382"><ele>112.0</ele><time>2026-04-06T08:36:34Z</time></trkpt><trkpt lat="45.51087884804522" lon="9.66384512056466"><ele>112.0</ele><time>2026-04-06T08:36:35Z</time></trkpt><trkpt lat="45.51086819685583" lon="9.664223497456591"><ele>112.0</ele><time>2026-04-06T08:36:36Z</time></trkpt><trkpt lat="45.510860180104665" lon="9.664603727746034"><ele>112.0</ele><time>2026-04-06T08:36:37Z</time></trkpt><trkpt lat="45.51084938554836" lon="9.664984680234017"><ele>112.0</ele><time>2026-04-06T08:36:38Z</time></trkpt><trkpt lat="45.51084306325405" lon="9.6653616602131"><ele>112.0</ele><time>2026-04-06T08:36:39Z</time></trkpt><trkpt lat="45.51083295264539" lon="9.665743266155014"><ele>112.0</ele><time>2026-04-06T08:36:40Z</time></trkpt><trkpt lat="45.51082664359994" lon="9.66613576926162"><ele>112.0</ele><time>2026-04-06T08:36:41Z</time></trkpt><trkpt lat="45.51082008951411" lon="9.666531560399928"><ele>112.0</ele><time>2026-04-06T08:36:42Z</time></trkpt><trkpt lat="45.51080877189275" lon="9.666926985272744"><ele>112.0</ele><time>2026-04-06T08:36:43Z</time></trkpt><trkpt lat="45.51079890800594" lon="9.66732305368977"><ele>112.0</ele><time>2026-04-06T08:36:44Z</time></trkpt><trkpt lat="45.51078990693291" lon="9.667721140904721"><ele>111.5</ele><time>2026-04-06T08:36:45Z</time></trkpt><trkpt lat="45.51078078608653" lon="9.66812459252147"><ele>111.0</ele><time>2026-04-06T08:36:46Z</time></trkpt><trkpt lat="45.51077225356604" lon="9.668532511327289"><ele>109.5</ele><time>2026-04-06T08:36:47Z</time></trkpt><trkpt lat="45.51076290637783" lon="9.668941581760896"><ele>108.0</ele><time>2026-04-06T08:36:48Z</time></trkpt><trkpt lat="45.51075541593524" lon="9.66935144241907"><ele>108.5</ele><time>2026-04-06T08:36:49Z</time></trkpt><trkpt lat="45.51074556757632" lon="9.66976695592977"><ele>109.0</ele><time>2026-04-06T08:36:50Z</time></trkpt><trkpt lat="45.51073664610695" lon="9.670182746947846"><ele>109.0</ele><time>2026-04-06T08:36:51Z</time></trkpt><trkpt lat="45.51072635563393" lon="9.670600570231622"><ele>109.0</ele><time>2026-04-06T08:36:52Z</time></trkpt><trkpt lat="45.510716492653934" lon="9.671016656632451"><ele>109.0</ele><time>2026-04-06T08:36:53Z</time></trkpt><trkpt lat="45.51070406339858" lon="9.671437354870895"><ele>109.0</ele><time>2026-04-06T08:36:54Z</time></trkpt><trkpt lat="45.51069076269755" lon="9.671854490589375"><ele>109.5</ele><time>2026-04-06T08:36:55Z</time></trkpt><trkpt lat="45.51068148450848" lon="9.672275289512564"><ele>110.0</ele><time>2026-04-06T08:36:56Z</time></trkpt><trkpt lat="45.51067544892017" lon="9.67269524413523"><ele>108.5</ele><time>2026-04-06T08:36:57Z</time></trkpt><trkpt lat="45.51066604350837" lon="9.673117710301014"><ele>107.0</ele><time>2026-04-06T08:36:58Z</time></trkpt><trkpt lat="45.51065672516721" lon="9.67353355625681"><ele>108.5</ele><time>2026-04-06T08:36:59Z</time></trkpt><trkpt lat="45.5106473779769" lon="9.67394640113386"><ele>110.0</ele><time>2026-04-06T08:37:00Z</time></trkpt><trkpt lat="45.5106378812243" lon="9.674353453317895"><ele>110.0</ele><time>2026-04-06T08:37:01Z</time></trkpt><trkpt lat="45.5106250451248" lon="9.67475972021261"><ele>110.0</ele><time>2026-04-06T08:37:02Z</time></trkpt><trkpt lat="45.51061267640326" lon="9.67516840575363"><ele>110.5</ele><time>2026-04-06T08:37:03Z</time></trkpt><trkpt lat="45.51060075463214" lon="9.675569742535426"><ele>111.0</ele><time>2026-04-06T08:37:04Z</time></trkpt><trkpt lat="45.51059021956514" lon="9.675971466997712"><ele>110.5</ele><time>2026-04-06T08:37:05Z</time></trkpt><trkpt lat="45.51057625943025" lon="9.676369362653308"><ele>110.0</ele><time>2026-04-06T08:37:06Z</time></trkpt><trkpt lat="45.51056025217189" lon="9.676766969893583"><ele>110.0</ele><time>2026-04-06T08:37:07Z</time></trkpt><trkpt lat="45.51054202798412" lon="9.677164957853709"><ele>110.0</ele><time>2026-04-06T08:37:08.001Z</time></trkpt><trkpt lat="45.51051958816919" lon="9.677561711602012"><ele>111.0</ele><time>2026-04-06T08:37:09.001Z</time></trkpt><trkpt lat="45.51049669776889" lon="9.677956203278937"><ele>112.0</ele><time>2026-04-06T08:37:10.001Z</time></trkpt><trkpt lat="45.5104719745437" lon="9.678351138663764"><ele>112.0</ele><time>2026-04-06T08:37:11.001Z</time></trkpt><trkpt lat="45.51044202956604" lon="9.678743388931316"><ele>112.0</ele><time>2026-04-06T08:37:12.001Z</time></trkpt><trkpt lat="45.51040701016202" lon="9.6791418036784"><ele>112.0</ele><time>2026-04-06T08:37:13.001Z</time></trkpt><trkpt lat="45.51036963809994" lon="9.679545741039592"><ele>112.0</ele><time>2026-04-06T08:37:14.001Z</time></trkpt><trkpt lat="45.51032902211512" lon="9.679951595357007"><ele>111.5</ele><time>2026-04-06T08:37:15.001Z</time></trkpt><trkpt lat="45.51028458973591" lon="9.680354034788557"><ele>111.0</ele><time>2026-04-06T08:37:16.001Z</time></trkpt><trkpt lat="45.51023761572022" lon="9.680739369137813"><ele>111.5</ele><time>2026-04-06T08:37:17.001Z</time></trkpt><trkpt lat="45.510187262919" lon="9.681125169703366"><ele>112.0</ele><time>2026-04-06T08:37:18.001Z</time></trkpt><trkpt lat="45.51013767591003" lon="9.681517512520434"><ele>112.0</ele><time>2026-04-06T08:37:19.001Z</time></trkpt><trkpt lat="45.51008165760163" lon="9.681915215724812"><ele>112.0</ele><time>2026-04-06T08:37:20.001Z</time></trkpt><trkpt lat="45.510021047024864" lon="9.682316064741888"><ele>112.0</ele><time>2026-04-06T08:37:21.001Z</time></trkpt><trkpt lat="45.50995362725582" lon="9.68271829260071"><ele>112.0</ele><time>2026-04-06T08:37:22.001Z</time></trkpt><trkpt lat="45.509885889417724" lon="9.683118748272934"><ele>111.0</ele><time>2026-04-06T08:37:23.001Z</time></trkpt><trkpt lat="45.50981510473102" lon="9.683517655443858"><ele>110.0</ele><time>2026-04-06T08:37:24.001Z</time></trkpt><trkpt lat="45.50973973878232" lon="9.683920825423366"><ele>110.0</ele><time>2026-04-06T08:37:25.001Z</time></trkpt><trkpt lat="45.5096629906433" lon="9.684320156850173"><ele>110.0</ele><time>2026-04-06T08:37:26.001Z</time></trkpt><trkpt lat="45.50957769982103" lon="9.68471674094998"><ele>110.5</ele><time>2026-04-06T08:37:27.001Z</time></trkpt><trkpt lat="45.50948943510194" lon="9.685110797811067"><ele>111.0</ele><time>2026-04-06T08:37:28.001Z</time></trkpt><trkpt lat="45.50940063515052" lon="9.685501051873791"><ele>111.5</ele><time>2026-04-06T08:37:29.001Z</time></trkpt><trkpt lat="45.50931001310532" lon="9.685890455471517"><ele>112.0</ele><time>2026-04-06T08:37:30.001Z</time></trkpt><trkpt lat="45.50922082568783" lon="9.686278685960499"><ele>112.0</ele><time>2026-04-06T08:37:31.001Z</time></trkpt><trkpt lat="45.50913012126698" lon="9.686664274674971"><ele>112.0</ele><time>2026-04-06T08:37:32.001Z</time></trkpt><trkpt lat="45.50903903598421" lon="9.687044360539547"><ele>110.5</ele><time>2026-04-06T08:37:33.001Z</time></trkpt><trkpt lat="45.508949895333586" lon="9.68742025247643"><ele>109.0</ele><time>2026-04-06T08:37:34.001Z</time></trkpt><trkpt lat="45.50886450559744" lon="9.68779809385882"><ele>109.0</ele><time>2026-04-06T08:37:35.001Z</time></trkpt><trkpt lat="45.50877677461304" lon="9.688177633057666"><ele>109.0</ele><time>2026-04-06T08:37:36.001Z</time></trkpt><trkpt lat="45.508684694693734" lon="9.688553083759649"><ele>108.5</ele><time>2026-04-06T08:37:37.001Z</time></trkpt><trkpt lat="45.50859629132523" lon="9.68892820534886"><ele>108.0</ele><time>2026-04-06T08:37:38.001Z</time></trkpt><trkpt lat="45.50850688250903" lon="9.689300688873303"><ele>108.0</ele><time>2026-04-06T08:37:39.001Z</time></trkpt><trkpt lat="45.508415480074554" lon="9.68967530797007"><ele>108.0</ele><time>2026-04-06T08:37:40.001Z</time></trkpt><trkpt lat="45.50832572434006" lon="9.69005231421476"><ele>108.5</ele><time>2026-04-06T08:37:41Z</time></trkpt><trkpt lat="45.508237193798685" lon="9.690425959884033"><ele>109.0</ele><time>2026-04-06T08:37:42Z</time></trkpt><trkpt lat="45.50814986631252" lon="9.690798186975826"><ele>110.5</ele><time>2026-04-06T08:37:43Z</time></trkpt><trkpt lat="45.508061931335185" lon="9.691173912388775"><ele>112.0</ele><time>2026-04-06T08:37:44Z</time></trkpt><trkpt lat="45.50797525233346" lon="9.691544262471858"><ele>111.5</ele><time>2026-04-06T08:37:45Z</time></trkpt><trkpt lat="45.50788982596402" lon="9.691917318022698"><ele>111.0</ele><time>2026-04-06T08:37:46Z</time></trkpt><trkpt lat="45.50780307392446" lon="9.692287853105176"><ele>110.5</ele><time>2026-04-06T08:37:47Z</time></trkpt><trkpt lat="45.507712145481136" lon="9.69265741747015"><ele>110.0</ele><time>2026-04-06T08:37:48Z</time></trkpt><trkpt lat="45.50761925997421" lon="9.693028738072966"><ele>110.0</ele><time>2026-04-06T08:37:49Z</time></trkpt><trkpt lat="45.507527436382325" lon="9.693405264646387"><ele>110.0</ele><time>2026-04-06T08:37:50Z</time></trkpt><trkpt lat="45.50743869904555" lon="9.693777922783475"><ele>110.0</ele><time>2026-04-06T08:37:51Z</time></trkpt><trkpt lat="45.5073459757855" lon="9.69415506040287"><ele>110.0</ele><time>2026-04-06T08:37:52Z</time></trkpt><trkpt lat="45.50724796704969" lon="9.694532794902162"><ele>111.0</ele><time>2026-04-06T08:37:53Z</time></trkpt><trkpt lat="45.50714900532104" lon="9.694908954186058"><ele>112.0</ele><time>2026-04-06T08:37:54Z</time></trkpt><trkpt lat="45.50704939945213" lon="9.695284941733052"><ele>112.0</ele><time>2026-04-06T08:37:55Z</time></trkpt><trkpt lat="45.50694450025854" lon="9.6956640952704"><ele>112.0</ele><time>2026-04-06T08:37:56Z</time></trkpt><trkpt lat="45.506837489768046" lon="9.696036846898659"><ele>112.5</ele><time>2026-04-06T08:37:57Z</time></trkpt><trkpt lat="45.50672582059468" lon="9.69640986418704"><ele>113.0</ele><time>2026-04-06T08:37:58Z</time></trkpt><trkpt lat="45.50661150501714" lon="9.696782299167786"><ele>111.5</ele><time>2026-04-06T08:37:59Z</time></trkpt><trkpt lat="45.50649396782962" lon="9.69715505237947"><ele>110.0</ele><time>2026-04-06T08:38:00Z</time></trkpt><trkpt lat="45.50637127289601" lon="9.697528248127602"><ele>110.0</ele><time>2026-04-06T08:38:01Z</time></trkpt><trkpt lat="45.50624383292701" lon="9.697904424955103"><ele>110.0</ele><time>2026-04-06T08:38:02Z</time></trkpt><trkpt lat="45.50610777785178" lon="9.698270296892039"><ele>110.0</ele><time>2026-04-06T08:38:03Z</time></trkpt><trkpt lat="45.50596832138896" lon="9.698634538481212"><ele>110.0</ele><time>2026-04-06T08:38:04Z</time></trkpt><trkpt lat="45.50583175052798" lon="9.699000204698017"><ele>110.0</ele><time>2026-04-06T08:38:05Z</time></trkpt><trkpt lat="45.505693615404184" lon="9.699361571440825"><ele>110.0</ele><time>2026-04-06T08:38:06Z</time></trkpt><trkpt lat="45.50554905139686" lon="9.699725162612548"><ele>110.0</ele><time>2026-04-06T08:38:07Z</time></trkpt><trkpt lat="45.50540519426863" lon="9.700083489346802"><ele>110.0</ele><time>2026-04-06T08:38:08Z</time></trkpt><trkpt lat="45.50525938372793" lon="9.700438342556765"><ele>109.5</ele><time>2026-04-06T08:38:09Z</time></trkpt><trkpt lat="45.505110683326784" lon="9.700790420713018"><ele>109.0</ele><time>2026-04-06T08:38:10Z</time></trkpt><trkpt lat="45.504960657630065" lon="9.701140972647364"><ele>109.0</ele><time>2026-04-06T08:38:11Z</time></trkpt><trkpt lat="45.50480492148255" lon="9.701496590068711"><ele>109.0</ele><time>2026-04-06T08:38:12Z</time></trkpt><trkpt lat="45.50465199281426" lon="9.701849480104604"><ele>109.5</ele><time>2026-04-06T08:38:13Z</time></trkpt><trkpt lat="45.504500538880286" lon="9.702197607871222"><ele>110.0</ele><time>2026-04-06T08:38:14Z</time></trkpt><trkpt lat="45.50434581783936" lon="9.702549723311279"><ele>109.5</ele><time>2026-04-06T08:38:15Z</time></trkpt><trkpt lat="45.50419181585335" lon="9.702898359716789"><ele>109.0</ele><time>2026-04-06T08:38:16Z</time></trkpt><trkpt lat="45.50403562761565" lon="9.703249877924552"><ele>109.5</ele><time>2026-04-06T08:38:17Z</time></trkpt><trkpt lat="45.50388320820407" lon="9.703600219195907"><ele>110.0</ele><time>2026-04-06T08:38:18Z</time></trkpt><trkpt lat="45.503731372568396" lon="9.703951893687538"><ele>110.0</ele><time>2026-04-06T08:38:19Z</time></trkpt><trkpt lat="45.50357874575361" lon="9.704299618867987"><ele>110.0</ele><time>2026-04-06T08:38:20Z</time></trkpt><trkpt lat="45.503423996903834" lon="9.704647866147935"><ele>110.0</ele><time>2026-04-06T08:38:21Z</time></trkpt><trkpt lat="45.50327040612562" lon="9.704999376090887"><ele>110.0</ele><time>2026-04-06T08:38:22Z</time></trkpt><trkpt lat="45.50311815263395" lon="9.7053486767823"><ele>110.0</ele><time>2026-04-06T08:38:23Z</time></trkpt><trkpt lat="45.50296608171629" lon="9.705695546877985"><ele>110.0</ele><time>2026-04-06T08:38:24Z</time></trkpt><trkpt lat="45.502810325222754" lon="9.706040858049223"><ele>109.0</ele><time>2026-04-06T08:38:25Z</time></trkpt><trkpt lat="45.50265914176331" lon="9.706385729557397"><ele>108.0</ele><time>2026-04-06T08:38:26Z</time></trkpt><trkpt lat="45.502509571504014" lon="9.706733496500561"><ele>108.5</ele><time>2026-04-06T08:38:27Z</time></trkpt><trkpt lat="45.50235908800424" lon="9.707077485446918"><ele>109.0</ele><time>2026-04-06T08:38:28Z</time></trkpt><trkpt lat="45.50220821833686" lon="9.707420999317417"><ele>109.5</ele><time>2026-04-06T08:38:29Z</time></trkpt><trkpt lat="45.50205467267009" lon="9.70777019394774"><ele>110.0</ele><time>2026-04-06T08:38:30Z</time></trkpt><trkpt lat="45.50190397979225" lon="9.708116219855553"><ele>110.0</ele><time>2026-04-06T08:38:31Z</time></trkpt><trkpt lat="45.501752010675396" lon="9.708459589490722"><ele>110.0</ele><time>2026-04-06T08:38:32Z</time></trkpt><trkpt lat="45.501601637530925" lon="9.708801963217349"><ele>109.0</ele><time>2026-04-06T08:38:33Z</time></trkpt><trkpt lat="45.501449225331896" lon="9.709144142421719"><ele>108.0</ele><time>2026-04-06T08:38:34Z</time></trkpt><trkpt lat="45.50129797891908" lon="9.709486984550345"><ele>108.0</ele><time>2026-04-06T08:38:35Z</time></trkpt><trkpt lat="45.501148655978014" lon="9.709827773297718"><ele>108.0</ele><time>2026-04-06T08:38:36Z</time></trkpt><trkpt lat="45.500999287287854" lon="9.710171318146626"><ele>107.5</ele><time>2026-04-06T08:38:37Z</time></trkpt><trkpt lat="45.500848873927964" lon="9.71051534739601"><ele>107.0</ele><time>2026-04-06T08:38:38Z</time></trkpt><trkpt lat="45.50070170547942" lon="9.710857897547008"><ele>107.0</ele><time>2026-04-06T08:38:39Z</time></trkpt><trkpt lat="45.50055124786253" lon="9.71120085496398"><ele>107.0</ele><time>2026-04-06T08:38:40Z</time></trkpt><trkpt lat="45.50039971159948" lon="9.711545604485172"><ele>107.0</ele><time>2026-04-06T08:38:41Z</time></trkpt><trkpt lat="45.50025240342855" lon="9.711887928983668"><ele>107.0</ele><time>2026-04-06T08:38:42Z</time></trkpt><trkpt lat="45.500102185483144" lon="9.712229682965319"><ele>107.0</ele><time>2026-04-06T08:38:43Z</time></trkpt><trkpt lat="45.49995196700877" lon="9.712566807487866"><ele>107.0</ele><time>2026-04-06T08:38:44Z</time></trkpt><trkpt lat="45.499802844958545" lon="9.71290314390582"><ele>107.0</ele><time>2026-04-06T08:38:45Z</time></trkpt><trkpt lat="45.49965206660711" lon="9.713241863083683"><ele>107.0</ele><time>2026-04-06T08:38:46Z</time></trkpt><trkpt lat="45.499504020823466" lon="9.713581255216479"><ele>107.5</ele><time>2026-04-06T08:38:47Z</time></trkpt><trkpt lat="45.49935548507799" lon="9.713921059026399"><ele>108.0</ele><time>2026-04-06T08:38:48Z</time></trkpt><trkpt lat="45.49921144124419" lon="9.714263139814893"><ele>108.0</ele><time>2026-04-06T08:38:49Z</time></trkpt><trkpt lat="45.49906038064732" lon="9.714603475059416"><ele>108.0</ele><time>2026-04-06T08:38:50Z</time></trkpt><trkpt lat="45.49891083670879" lon="9.714941100927344"><ele>107.5</ele><time>2026-04-06T08:38:51Z</time></trkpt><trkpt lat="45.498762386915516" lon="9.715276305040238"><ele>107.0</ele><time>2026-04-06T08:38:52Z</time></trkpt><trkpt lat="45.49861077886684" lon="9.715613145801361"><ele>107.0</ele><time>2026-04-06T08:38:53Z</time></trkpt><trkpt lat="45.49846283499953" lon="9.715951854907598"><ele>107.0</ele><time>2026-04-06T08:38:54Z</time></trkpt><trkpt lat="45.49831361776435" lon="9.716295248039783"><ele>107.5</ele><time>2026-04-06T08:38:55Z</time></trkpt><trkpt lat="45.498163725738586" lon="9.716633948852865"><ele>108.0</ele><time>2026-04-06T08:38:56Z</time></trkpt><trkpt lat="45.49801517383291" lon="9.7169751776185"><ele>107.5</ele><time>2026-04-06T08:38:57Z</time></trkpt><trkpt lat="45.49787007058097" lon="9.71730463116982"><ele>107.0</ele><time>2026-04-06T08:38:58Z</time></trkpt><trkpt lat="45.4977206480185" lon="9.717647692554994"><ele>106.0</ele><time>2026-04-06T08:38:59Z</time></trkpt><trkpt lat="45.49756856479764" lon="9.717990376241621"><ele>105.0</ele><time>2026-04-06T08:39:00Z</time></trkpt><trkpt lat="45.49741856458856" lon="9.71832841884935"><ele>105.0</ele><time>2026-04-06T08:39:01Z</time></trkpt><trkpt lat="45.49727207987067" lon="9.718664927589138"><ele>105.0</ele><time>2026-04-06T08:39:02Z</time></trkpt><trkpt lat="45.497122292367806" lon="9.719008390213306"><ele>106.0</ele><time>2026-04-06T08:39:03Z</time></trkpt><trkpt lat="45.49697600144205" lon="9.719350179215834"><ele>107.0</ele><time>2026-04-06T08:39:04Z</time></trkpt><trkpt lat="45.496827881893175" lon="9.719690494253674"><ele>107.0</ele><time>2026-04-06T08:39:05Z</time></trkpt><trkpt lat="45.49667809468608" lon="9.720026705810296"><ele>107.0</ele><time>2026-04-06T08:39:06Z</time></trkpt><trkpt lat="45.496527146599774" lon="9.720362767697056"><ele>106.5</ele><time>2026-04-06T08:39:07Z</time></trkpt><trkpt lat="45.4963756787935" lon="9.72070262609923"><ele>106.0</ele><time>2026-04-06T08:39:08Z</time></trkpt><trkpt lat="45.49622500711729" lon="9.721046071311978"><ele>104.5</ele><time>2026-04-06T08:39:09Z</time></trkpt><trkpt lat="45.49607544938366" lon="9.721390940425943"><ele>103.0</ele><time>2026-04-06T08:39:10Z</time></trkpt><trkpt lat="45.49592791322703" lon="9.721736404679747"><ele>102.5</ele><time>2026-04-06T08:39:11Z</time></trkpt><trkpt lat="45.49577933397444" lon="9.722079947077482"><ele>102.0</ele><time>2026-04-06T08:39:11.999Z</time></trkpt><trkpt lat="45.49563026498034" lon="9.722423590902123"><ele>102.0</ele><time>2026-04-06T08:39:12.999Z</time></trkpt><trkpt lat="45.49548154034631" lon="9.722767915057444"><ele>102.0</ele><time>2026-04-06T08:39:14.001Z</time></trkpt><trkpt lat="45.49533300494264" lon="9.72310892223048"><ele>102.5</ele><time>2026-04-06T08:39:15.001Z</time></trkpt><trkpt lat="45.49518255746915" lon="9.723448211680717"><ele>103.0</ele><time>2026-04-06T08:39:16.001Z</time></trkpt><trkpt lat="45.49503477651788" lon="9.723784260787397"><ele>104.0</ele><time>2026-04-06T08:39:17.001Z</time></trkpt><trkpt lat="45.49488452616583" lon="9.724121729113858"><ele>105.0</ele><time>2026-04-06T08:39:18.001Z</time></trkpt><trkpt lat="45.49473665434672" lon="9.724458040094586"><ele>105.5</ele><time>2026-04-06T08:39:19.001Z</time></trkpt><trkpt lat="45.49460131471364" lon="9.724780412924032"><ele>106.0</ele><time>2026-04-06T08:39:20.001Z</time></trkpt><trkpt lat="45.49447144668585" lon="9.72509993672839"><ele>106.5</ele><time>2026-04-06T08:39:21.001Z</time></trkpt><trkpt lat="45.49428937105422" lon="9.72546926226844"><ele>107.0</ele><time>2026-04-06T08:39:22.001Z</time></trkpt><trkpt lat="45.494144756669655" lon="9.725808493490455"><ele>107.0</ele><time>2026-04-06T08:39:23.001Z</time></trkpt><trkpt lat="45.49399948519689" lon="9.726147234034746"><ele>107.0</ele><time>2026-04-06T08:39:24.001Z</time></trkpt><trkpt lat="45.493851896348275" lon="9.726480028986105"><ele>107.0</ele><time>2026-04-06T08:39:25.001Z</time></trkpt><trkpt lat="45.493706785451046" lon="9.726811881973058"><ele>107.0</ele><time>2026-04-06T08:39:26.001Z</time></trkpt><trkpt lat="45.49356468017238" lon="9.727146614444575"><ele>107.5</ele><time>2026-04-06T08:39:27.001Z</time></trkpt><trkpt lat="45.49342308036603" lon="9.727486410344284"><ele>108.0</ele><time>2026-04-06T08:39:28.001Z</time></trkpt><trkpt lat="45.493282401730035" lon="9.727826814991358"><ele>108.0</ele><time>2026-04-06T08:39:29.001Z</time></trkpt><trkpt lat="45.49314388535537" lon="9.728161689014838"><ele>108.0</ele><time>2026-04-06T08:39:30.001Z</time></trkpt><trkpt lat="45.493003350929754" lon="9.728499208498768"><ele>106.5</ele><time>2026-04-06T08:39:31.001Z</time></trkpt><trkpt lat="45.49286797683182" lon="9.728841714294422"><ele>105.0</ele><time>2026-04-06T08:39:32.001Z</time></trkpt><trkpt lat="45.4927327339958" lon="9.729190726098476"><ele>105.0</ele><time>2026-04-06T08:39:33.001Z</time></trkpt><trkpt lat="45.49260076522978" lon="9.729540207513525"><ele>105.0</ele><time>2026-04-06T08:39:34Z</time></trkpt><trkpt lat="45.49247514247158" lon="9.729888937092747"><ele>105.5</ele><time>2026-04-06T08:39:35Z</time></trkpt><trkpt lat="45.49234193385386" lon="9.730249006221035"><ele>106.0</ele><time>2026-04-06T08:39:36Z</time></trkpt><trkpt lat="45.49221276016549" lon="9.73061051341232"><ele>105.5</ele><time>2026-04-06T08:39:37Z</time></trkpt><trkpt lat="45.49208713842446" lon="9.730974189290036"><ele>105.0</ele><time>2026-04-06T08:39:38Z</time></trkpt><trkpt lat="45.491965894559414" lon="9.731343295758442"><ele>105.5</ele><time>2026-04-06T08:39:39Z</time></trkpt><trkpt lat="45.491846849619805" lon="9.731714348741244"><ele>106.0</ele><time>2026-04-06T08:39:40Z</time></trkpt><trkpt lat="45.49173622238935" lon="9.732090426734823"><ele>106.0</ele><time>2026-04-06T08:39:41Z</time></trkpt><trkpt lat="45.49163483912469" lon="9.732472778763231"><ele>106.0</ele><time>2026-04-06T08:39:42Z</time></trkpt><trkpt lat="45.491535829527585" lon="9.732861552715733"><ele>105.5</ele><time>2026-04-06T08:39:43Z</time></trkpt><trkpt lat="45.491432148095406" lon="9.733254742827777"><ele>105.0</ele><time>2026-04-06T08:39:44Z</time></trkpt><trkpt lat="45.49132795023121" lon="9.733649514539435"><ele>105.5</ele><time>2026-04-06T08:39:45Z</time></trkpt><trkpt lat="45.491218464050206" lon="9.734061241434276"><ele>106.0</ele><time>2026-04-06T08:39:46Z</time></trkpt><trkpt lat="45.49111438358323" lon="9.734476324011272"><ele>106.0</ele><time>2026-04-06T08:39:47Z</time></trkpt><trkpt lat="45.491014081498456" lon="9.734891500181286"><ele>106.0</ele><time>2026-04-06T08:39:48Z</time></trkpt><trkpt lat="45.490907509309345" lon="9.735296827172927"><ele>106.5</ele><time>2026-04-06T08:39:49Z</time></trkpt><trkpt lat="45.49080194308787" lon="9.735690247722575"><ele>107.0</ele><time>2026-04-06T08:39:50Z</time></trkpt><trkpt lat="45.490709600469614" lon="9.736088585414011"><ele>107.0</ele><time>2026-04-06T08:39:51Z</time></trkpt><trkpt lat="45.49063604589761" lon="9.736486946483257"><ele>107.0</ele><time>2026-04-06T08:39:52Z</time></trkpt><trkpt lat="45.49056346879877" lon="9.736873697876183"><ele>107.0</ele><time>2026-04-06T08:39:53Z</time></trkpt><trkpt lat="45.490489020441295" lon="9.737249811000096"><ele>107.0</ele><time>2026-04-06T08:39:54Z</time></trkpt><trkpt lat="45.49041374210882" lon="9.73762705296098"><ele>106.0</ele><time>2026-04-06T08:39:55Z</time></trkpt><trkpt lat="45.49033805828126" lon="9.738002155622956"><ele>105.0</ele><time>2026-04-06T08:39:56Z</time></trkpt><trkpt lat="45.49026717320531" lon="9.738380616750208"><ele>104.5</ele><time>2026-04-06T08:39:57Z</time></trkpt><trkpt lat="45.490190801690254" lon="9.73875778987987"><ele>104.0</ele><time>2026-04-06T08:39:58Z</time></trkpt><trkpt lat="45.490115032367164" lon="9.739138985305697"><ele>104.0</ele><time>2026-04-06T08:39:59Z</time></trkpt><trkpt lat="45.49003835221755" lon="9.7395196931613"><ele>104.0</ele><time>2026-04-06T08:40:00Z</time></trkpt><trkpt lat="45.48996182342387" lon="9.739903808954548"><ele>104.0</ele><time>2026-04-06T08:40:01Z</time></trkpt><trkpt lat="45.48988716757314" lon="9.740295337656232"><ele>104.0</ele><time>2026-04-06T08:40:02Z</time></trkpt><trkpt lat="45.4898076959591" lon="9.740703412034405"><ele>104.5</ele><time>2026-04-06T08:40:03Z</time></trkpt><trkpt lat="45.48972968848323" lon="9.741117012672499"><ele>105.0</ele><time>2026-04-06T08:40:04Z</time></trkpt><trkpt lat="45.489646492179524" lon="9.74153726785198"><ele>104.5</ele><time>2026-04-06T08:40:05Z</time></trkpt><trkpt lat="45.489562162385866" lon="9.741955808287994"><ele>104.0</ele><time>2026-04-06T08:40:06Z</time></trkpt><trkpt lat="45.489477811349644" lon="9.742379743310082"><ele>104.0</ele><time>2026-04-06T08:40:07Z</time></trkpt><trkpt lat="45.489393143222706" lon="9.742808316705524"><ele>104.0</ele><time>2026-04-06T08:40:08Z</time></trkpt><trkpt lat="45.489306004135976" lon="9.743243816790404"><ele>104.5</ele><time>2026-04-06T08:40:09Z</time></trkpt><trkpt lat="45.4892195894926" lon="9.743679085595579"><ele>105.0</ele><time>2026-04-06T08:40:10Z</time></trkpt><trkpt lat="45.48913160942026" lon="9.744117606421744"><ele>105.0</ele><time>2026-04-06T08:40:11Z</time></trkpt><trkpt lat="45.48904437493245" lon="9.744557865112457"><ele>105.0</ele><time>2026-04-06T08:40:12Z</time></trkpt><trkpt lat="45.48895805606537" lon="9.744996838133618"><ele>105.0</ele><time>2026-04-06T08:40:13Z</time></trkpt><trkpt lat="45.4888724279654" lon="9.745443129554754"><ele>105.0</ele><time>2026-04-06T08:40:14Z</time></trkpt><trkpt lat="45.48879222552648" lon="9.745888452987499"><ele>105.0</ele><time>2026-04-06T08:40:15Z</time></trkpt><trkpt lat="45.488714091304516" lon="9.746332971379509"><ele>105.0</ele><time>2026-04-06T08:40:16Z</time></trkpt><trkpt lat="45.488634904645004" lon="9.746778108046934"><ele>105.0</ele><time>2026-04-06T08:40:17Z</time></trkpt><trkpt lat="45.48855780270578" lon="9.747223978472089"><ele>105.0</ele><time>2026-04-06T08:40:18Z</time></trkpt><trkpt lat="45.488483008186186" lon="9.747672496546517"><ele>105.0</ele><time>2026-04-06T08:40:19Z</time></trkpt><trkpt lat="45.488412533214934" lon="9.748134164284927"><ele>105.0</ele><time>2026-04-06T08:40:20Z</time></trkpt><trkpt lat="45.4883534571989" lon="9.74859012587307"><ele>105.0</ele><time>2026-04-06T08:40:21Z</time></trkpt><trkpt lat="45.488295560521095" lon="9.749054784823214"><ele>105.0</ele><time>2026-04-06T08:40:22Z</time></trkpt><trkpt lat="45.48824550387344" lon="9.749516550745973"><ele>105.0</ele><time>2026-04-06T08:40:23Z</time></trkpt><trkpt lat="45.48819367988459" lon="9.749983846259282"><ele>105.0</ele><time>2026-04-06T08:40:24Z</time></trkpt><trkpt lat="45.488151148265025" lon="9.750455784583627"><ele>105.5</ele><time>2026-04-06T08:40:25Z</time></trkpt><trkpt lat="45.48811669142525" lon="9.750919562532147"><ele>106.0</ele><time>2026-04-06T08:40:26Z</time></trkpt><trkpt lat="45.48808608918767" lon="9.751383198522289"><ele>106.5</ele><time>2026-04-06T08:40:27Z</time></trkpt><trkpt lat="45.488059308017405" lon="9.751842968120647"><ele>107.0</ele><time>2026-04-06T08:40:28Z</time></trkpt><trkpt lat="45.48803570290318" lon="9.75230224715084"><ele>106.0</ele><time>2026-04-06T08:40:29Z</time></trkpt><trkpt lat="45.48802078591521" lon="9.752757405509087"><ele>105.0</ele><time>2026-04-06T08:40:30Z</time></trkpt><trkpt lat="45.48801273707194" lon="9.753208774245776"><ele>106.0</ele><time>2026-04-06T08:40:31Z</time></trkpt><trkpt lat="45.48799977946442" lon="9.75367018864318"><ele>107.0</ele><time>2026-04-06T08:40:32Z</time></trkpt><trkpt lat="45.487986589825994" lon="9.754147563859629"><ele>107.5</ele><time>2026-04-06T08:40:33Z</time></trkpt><trkpt lat="45.48797600485624" lon="9.754626252553235"><ele>108.0</ele><time>2026-04-06T08:40:34Z</time></trkpt><trkpt lat="45.48796941782046" lon="9.755107042361859"><ele>107.5</ele><time>2026-04-06T08:40:35Z</time></trkpt><trkpt lat="45.4879610838817" lon="9.755587266685586"><ele>107.0</ele><time>2026-04-06T08:40:36Z</time></trkpt><trkpt lat="45.48794753022222" lon="9.756076097866893"><ele>107.0</ele><time>2026-04-06T08:40:37Z</time></trkpt><trkpt lat="45.48793794134102" lon="9.756552190418104"><ele>107.0</ele><time>2026-04-06T08:40:38Z</time></trkpt><trkpt lat="45.4879317127094" lon="9.757017069109112"><ele>106.5</ele><time>2026-04-06T08:40:39Z</time></trkpt><trkpt lat="45.48792980792595" lon="9.757477575594335"><ele>106.0</ele><time>2026-04-06T08:40:39.999Z</time></trkpt><trkpt lat="45.487925925878386" lon="9.7579406274658"><ele>106.0</ele><time>2026-04-06T08:40:40.999Z</time></trkpt><trkpt lat="45.48792279183512" lon="9.758398430734047"><ele>106.0</ele><time>2026-04-06T08:40:41.999Z</time></trkpt><trkpt lat="45.48792193159589" lon="9.758842994820906"><ele>106.0</ele><time>2026-04-06T08:40:42.999Z</time></trkpt><trkpt lat="45.48792103302427" lon="9.759276456536876"><ele>106.0</ele><time>2026-04-06T08:40:43.999Z</time></trkpt><trkpt lat="45.487920851960325" lon="9.759705684881395"><ele>106.0</ele><time>2026-04-06T08:40:44.999Z</time></trkpt><trkpt lat="45.487918896448136" lon="9.760131438784752"><ele>106.0</ele><time>2026-04-06T08:40:45.999Z</time></trkpt><trkpt lat="45.487913179563414" lon="9.760558563221599"><ele>106.0</ele><time>2026-04-06T08:40:46.999Z</time></trkpt><trkpt lat="45.48790851354594" lon="9.760978171201543"><ele>106.0</ele><time>2026-04-06T08:40:47.999Z</time></trkpt><trkpt lat="45.48790180938708" lon="9.761393489787066"><ele>106.0</ele><time>2026-04-06T08:40:48.999Z</time></trkpt><trkpt lat="45.48789612863882" lon="9.761814544908795"><ele>106.0</ele><time>2026-04-06T08:40:49.999Z</time></trkpt><trkpt lat="45.48789023016788" lon="9.76223528292575"><ele>106.0</ele><time>2026-04-06T08:40:50.999Z</time></trkpt><trkpt lat="45.48788259997099" lon="9.762659850111906"><ele>106.0</ele><time>2026-04-06T08:40:51.999Z</time></trkpt><trkpt lat="45.48787622662129" lon="9.763082934385436"><ele>106.0</ele><time>2026-04-06T08:40:52.999Z</time></trkpt><trkpt lat="45.48787441572499" lon="9.763507610520657"><ele>106.0</ele><time>2026-04-06T08:40:53.999Z</time></trkpt><trkpt lat="45.48787280367292" lon="9.763937234070063"><ele>106.5</ele><time>2026-04-06T08:40:54.999Z</time></trkpt><trkpt lat="45.48787063156881" lon="9.764365668212722"><ele>107.0</ele><time>2026-04-06T08:40:55.999Z</time></trkpt><trkpt lat="45.487869154615076" lon="9.764796565090846"><ele>105.5</ele><time>2026-04-06T08:40:56.999Z</time></trkpt><trkpt lat="45.48787441949386" lon="9.765226799454606"><ele>104.0</ele><time>2026-04-06T08:40:57.999Z</time></trkpt><trkpt lat="45.48789043583437" lon="9.765658352058784"><ele>103.5</ele><time>2026-04-06T08:40:58.999Z</time></trkpt><trkpt lat="45.487913571553904" lon="9.76609203714384"><ele>103.0</ele><time>2026-04-06T08:40:59.999Z</time></trkpt><trkpt lat="45.48794525372278" lon="9.766529376186922"><ele>104.5</ele><time>2026-04-06T08:41:00.999Z</time></trkpt><trkpt lat="45.48798323972408" lon="9.766973569655882"><ele>106.0</ele><time>2026-04-06T08:41:01.999Z</time></trkpt><trkpt lat="45.48802949783161" lon="9.767423915415844"><ele>106.5</ele><time>2026-04-06T08:41:02.999Z</time></trkpt><trkpt lat="45.48808385060412" lon="9.767875548860657"><ele>107.0</ele><time>2026-04-06T08:41:03.999Z</time></trkpt><trkpt lat="45.48814385277291" lon="9.768331453760345"><ele>107.5</ele><time>2026-04-06T08:41:04.999Z</time></trkpt><trkpt lat="45.48820340470536" lon="9.768785378918123"><ele>108.0</ele><time>2026-04-06T08:41:05.999Z</time></trkpt><trkpt lat="45.48825823725831" lon="9.769240629731215"><ele>108.0</ele><time>2026-04-06T08:41:06.999Z</time></trkpt><trkpt lat="45.488312186661" lon="9.769691554272658"><ele>108.0</ele><time>2026-04-06T08:41:07.999Z</time></trkpt><trkpt lat="45.48836542763516" lon="9.770135451876351"><ele>108.5</ele><time>2026-04-06T08:41:08.999Z</time></trkpt><trkpt lat="45.488416757089915" lon="9.770579221693213"><ele>109.0</ele><time>2026-04-06T08:41:09.999Z</time></trkpt><trkpt lat="45.48847369121113" lon="9.771015044100624"><ele>109.0</ele><time>2026-04-06T08:41:10.999Z</time></trkpt><trkpt lat="45.48853409360564" lon="9.771440888212934"><ele>109.0</ele><time>2026-04-06T08:41:11.999Z</time></trkpt><trkpt lat="45.48858707765511" lon="9.771871492764769"><ele>108.5</ele><time>2026-04-06T08:41:12.999Z</time></trkpt><trkpt lat="45.488638273856324" lon="9.772296571286663"><ele>108.0</ele><time>2026-04-06T08:41:13.999Z</time></trkpt><trkpt lat="45.48869307473963" lon="9.772718277917667"><ele>107.5</ele><time>2026-04-06T08:41:14.999Z</time></trkpt><trkpt lat="45.48874749940401" lon="9.773135353977263"><ele>107.0</ele><time>2026-04-06T08:41:15.999Z</time></trkpt><trkpt lat="45.48880079711266" lon="9.773555023638796"><ele>107.5</ele><time>2026-04-06T08:41:16.999Z</time></trkpt><trkpt lat="45.488854891250824" lon="9.773979197758983"><ele>108.0</ele><time>2026-04-06T08:41:17.999Z</time></trkpt><trkpt lat="45.488907516958406" lon="9.774406560959724"><ele>108.0</ele><time>2026-04-06T08:41:18.999Z</time></trkpt><trkpt lat="45.48896314383975" lon="9.774839161382081"><ele>108.0</ele><time>2026-04-06T08:41:20Z</time></trkpt><trkpt lat="45.48902072750308" lon="9.77526938567603"><ele>107.5</ele><time>2026-04-06T08:41:21Z</time></trkpt><trkpt lat="45.48907997302664" lon="9.775704747453794"><ele>107.0</ele><time>2026-04-06T08:41:22Z</time></trkpt><trkpt lat="45.489139437556915" lon="9.776136933165567"><ele>107.0</ele><time>2026-04-06T08:41:23Z</time></trkpt><trkpt lat="45.48920004348349" lon="9.77657361883402"><ele>107.0</ele><time>2026-04-06T08:41:24Z</time></trkpt><trkpt lat="45.48926204085175" lon="9.777009810899324"><ele>106.5</ele><time>2026-04-06T08:41:25Z</time></trkpt><trkpt lat="45.48932700652133" lon="9.777441143286637"><ele>106.0</ele><time>2026-04-06T08:41:26Z</time></trkpt><trkpt lat="45.489398785607655" lon="9.777874233405589"><ele>106.0</ele><time>2026-04-06T08:41:27Z</time></trkpt><trkpt lat="45.48947546307548" lon="9.77830550123908"><ele>106.0</ele><time>2026-04-06T08:41:28Z</time></trkpt><trkpt lat="45.48955883128451" lon="9.778739246275725"><ele>106.0</ele><time>2026-04-06T08:41:29Z</time></trkpt><trkpt lat="45.48964622103564" lon="9.779165856385445"><ele>106.0</ele><time>2026-04-06T08:41:30Z</time></trkpt><trkpt lat="45.48973661156782" lon="9.779595815202201"><ele>106.0</ele><time>2026-04-06T08:41:31Z</time></trkpt><trkpt lat="45.48983082433805" lon="9.780027911446156"><ele>106.0</ele><time>2026-04-06T08:41:32Z</time></trkpt><trkpt lat="45.4899294679594" lon="9.780460952440755"><ele>106.0</ele><time>2026-04-06T08:41:33Z</time></trkpt><trkpt lat="45.49003184160204" lon="9.780888968739081"><ele>106.0</ele><time>2026-04-06T08:41:34Z</time></trkpt><trkpt lat="45.49013902681546" lon="9.781316637823352"><ele>107.5</ele><time>2026-04-06T08:41:35Z</time></trkpt><trkpt lat="45.49025339016693" lon="9.781740813758681"><ele>109.0</ele><time>2026-04-06T08:41:36Z</time></trkpt><trkpt lat="45.49037550247754" lon="9.782150535281335"><ele>109.0</ele><time>2026-04-06T08:41:37Z</time></trkpt><trkpt lat="45.490500772211426" lon="9.78257612013336"><ele>109.0</ele><time>2026-04-06T08:41:38Z</time></trkpt><trkpt lat="45.490620357337825" lon="9.783005890613499"><ele>108.5</ele><time>2026-04-06T08:41:39Z</time></trkpt><trkpt lat="45.49073083730716" lon="9.78343304345704"><ele>108.0</ele><time>2026-04-06T08:41:40Z</time></trkpt><trkpt lat="45.49084244033846" lon="9.78386062505785"><ele>108.0</ele><time>2026-04-06T08:41:41Z</time></trkpt><trkpt lat="45.49095757224362" lon="9.784290001159032"><ele>108.0</ele><time>2026-04-06T08:41:42Z</time></trkpt><trkpt lat="45.49106488427899" lon="9.78471392425307"><ele>108.0</ele><time>2026-04-06T08:41:43Z</time></trkpt><trkpt lat="45.49118228330861" lon="9.785138445468165"><ele>108.0</ele><time>2026-04-06T08:41:44Z</time></trkpt><trkpt lat="45.49129751917905" lon="9.785556378599496"><ele>108.0</ele><time>2026-04-06T08:41:45Z</time></trkpt><trkpt lat="45.491408086439606" lon="9.785976706536353"><ele>108.0</ele><time>2026-04-06T08:41:46Z</time></trkpt><trkpt lat="45.491517623271676" lon="9.786391818592394"><ele>108.5</ele><time>2026-04-06T08:41:47Z</time></trkpt><trkpt lat="45.49162797828102" lon="9.78680373101085"><ele>109.0</ele><time>2026-04-06T08:41:48Z</time></trkpt><trkpt lat="45.49173906143965" lon="9.78721439611648"><ele>109.5</ele><time>2026-04-06T08:41:49Z</time></trkpt><trkpt lat="45.49184876413799" lon="9.78761951054644"><ele>110.0</ele><time>2026-04-06T08:41:50Z</time></trkpt><trkpt lat="45.49195990800567" lon="9.788021571423272"><ele>110.0</ele><time>2026-04-06T08:41:51Z</time></trkpt><trkpt lat="45.49206933236493" lon="9.788423892714366"><ele>110.0</ele><time>2026-04-06T08:41:52Z</time></trkpt><trkpt lat="45.49217717569591" lon="9.788827067897119"><ele>110.0</ele><time>2026-04-06T08:41:53Z</time></trkpt><trkpt lat="45.49228181035377" lon="9.789228525273447"><ele>110.0</ele><time>2026-04-06T08:41:54Z</time></trkpt><trkpt lat="45.492386796137694" lon="9.789631420993652"><ele>110.0</ele><time>2026-04-06T08:41:55Z</time></trkpt><trkpt lat="45.492493815642604" lon="9.790035383578267"><ele>110.0</ele><time>2026-04-06T08:41:56Z</time></trkpt><trkpt lat="45.49260036090524" lon="9.79044044955672"><ele>109.5</ele><time>2026-04-06T08:41:57Z</time></trkpt><trkpt lat="45.49270347753791" lon="9.790844035189972"><ele>109.0</ele><time>2026-04-06T08:41:58Z</time></trkpt><trkpt lat="45.49280360401035" lon="9.791253097265882"><ele>109.5</ele><time>2026-04-06T08:41:59Z</time></trkpt><trkpt lat="45.492905397348856" lon="9.79167325711963"><ele>110.0</ele><time>2026-04-06T08:42:00Z</time></trkpt><trkpt lat="45.4930085879296" lon="9.792095523483312"><ele>110.0</ele><time>2026-04-06T08:42:01Z</time></trkpt><trkpt lat="45.49310814618206" lon="9.792522230793212"><ele>110.0</ele><time>2026-04-06T08:42:02Z</time></trkpt><trkpt lat="45.493210037941125" lon="9.792944349363092"><ele>110.0</ele><time>2026-04-06T08:42:03Z</time></trkpt><trkpt lat="45.49331150946524" lon="9.793363102284324"><ele>110.0</ele><time>2026-04-06T08:42:04Z</time></trkpt><trkpt lat="45.493415038488926" lon="9.793780243177629"><ele>110.0</ele><time>2026-04-06T08:42:05Z</time></trkpt><trkpt lat="45.493518219162965" lon="9.794197040184132"><ele>110.0</ele><time>2026-04-06T08:42:06Z</time></trkpt><trkpt lat="45.49361650206424" lon="9.794610616307738"><ele>110.0</ele><time>2026-04-06T08:42:07Z</time></trkpt><trkpt lat="45.49370512161309" lon="9.795019980477658"><ele>110.0</ele><time>2026-04-06T08:42:08Z</time></trkpt><trkpt lat="45.49378940117412" lon="9.795434612831098"><ele>110.0</ele><time>2026-04-06T08:42:09Z</time></trkpt><trkpt lat="45.49387246829721" lon="9.795849229209002"><ele>110.0</ele><time>2026-04-06T08:42:10Z</time></trkpt><trkpt lat="45.49395845161714" lon="9.796260147903174"><ele>110.5</ele><time>2026-04-06T08:42:11Z</time></trkpt><trkpt lat="45.49404053869248" lon="9.796670161765544"><ele>111.0</ele><time>2026-04-06T08:42:12Z</time></trkpt><trkpt lat="45.49412214644385" lon="9.79708416357932"><ele>111.0</ele><time>2026-04-06T08:42:13Z</time></trkpt><trkpt lat="45.494203075435074" lon="9.797495665229514"><ele>111.0</ele><time>2026-04-06T08:42:14Z</time></trkpt><trkpt lat="45.49428620550284" lon="9.79791284613473"><ele>110.5</ele><time>2026-04-06T08:42:15Z</time></trkpt><trkpt lat="45.49436256713645" lon="9.79832923533189"><ele>110.0</ele><time>2026-04-06T08:42:16Z</time></trkpt><trkpt lat="45.4944347802562" lon="9.79875080662492"><ele>110.5</ele><time>2026-04-06T08:42:17Z</time></trkpt><trkpt lat="45.494503296327" lon="9.7991673557074"><ele>111.0</ele><time>2026-04-06T08:42:18Z</time></trkpt><trkpt lat="45.49456943113004" lon="9.799589542851589"><ele>111.0</ele><time>2026-04-06T08:42:19Z</time></trkpt><trkpt lat="45.4946364213078" lon="9.800012646053126"><ele>111.0</ele><time>2026-04-06T08:42:20Z</time></trkpt><trkpt lat="45.49470226177569" lon="9.800433182854643"><ele>111.0</ele><time>2026-04-06T08:42:21Z</time></trkpt><trkpt lat="45.494766768543684" lon="9.800856986856308"><ele>111.0</ele><time>2026-04-06T08:42:22Z</time></trkpt><trkpt lat="45.49482887697675" lon="9.80128410797177"><ele>111.5</ele><time>2026-04-06T08:42:23Z</time></trkpt><trkpt lat="45.49488490813134" lon="9.801713496755779"><ele>112.0</ele><time>2026-04-06T08:42:24Z</time></trkpt><trkpt lat="45.49494125477173" lon="9.802144950972773"><ele>112.5</ele><time>2026-04-06T08:42:25Z</time></trkpt><trkpt lat="45.49499367253264" lon="9.80257551461981"><ele>113.0</ele><time>2026-04-06T08:42:26Z</time></trkpt><trkpt lat="45.4950463399199" lon="9.80300707956265"><ele>113.0</ele><time>2026-04-06T08:42:26.999Z</time></trkpt><trkpt lat="45.49509578373612" lon="9.80343838236912"><ele>113.0</ele><time>2026-04-06T08:42:27.999Z</time></trkpt><trkpt lat="45.495143323156654" lon="9.803870997169584"><ele>113.5</ele><time>2026-04-06T08:42:28.999Z</time></trkpt><trkpt lat="45.49518856305794" lon="9.804303853993572"><ele>114.0</ele><time>2026-04-06T08:42:29.999Z</time></trkpt><trkpt lat="45.49523135049917" lon="9.804733148794902"><ele>113.0</ele><time>2026-04-06T08:42:30.999Z</time></trkpt><trkpt lat="45.49527047023764" lon="9.805161362855445"><ele>112.0</ele><time>2026-04-06T08:42:31.999Z</time></trkpt><trkpt lat="45.495307464777966" lon="9.805600034873574"><ele>112.0</ele><time>2026-04-06T08:42:32.999Z</time></trkpt><trkpt lat="45.495343958296004" lon="9.806033827868006"><ele>112.0</ele><time>2026-04-06T08:42:33.999Z</time></trkpt><trkpt lat="45.49537479829632" lon="9.806469051974757"><ele>112.5</ele><time>2026-04-06T08:42:34.999Z</time></trkpt><trkpt lat="45.49540443361476" lon="9.8069046841557"><ele>113.0</ele><time>2026-04-06T08:42:35.999Z</time></trkpt><trkpt lat="45.49543358449671" lon="9.807339000089646"><ele>112.5</ele><time>2026-04-06T08:42:36.999Z</time></trkpt><trkpt lat="45.49546253787027" lon="9.807776615422615"><ele>112.0</ele><time>2026-04-06T08:42:37.999Z</time></trkpt><trkpt lat="45.49548817089144" lon="9.808212982830707"><ele>112.5</ele><time>2026-04-06T08:42:38.999Z</time></trkpt><trkpt lat="45.495516781023206" lon="9.808644889270916"><ele>113.0</ele><time>2026-04-06T08:42:39.999Z</time></trkpt><trkpt lat="45.49553903316419" lon="9.809080981382039"><ele>113.0</ele><time>2026-04-06T08:42:40.999Z</time></trkpt><trkpt lat="45.495556234614746" lon="9.809520564341595"><ele>113.0</ele><time>2026-04-06T08:42:41.999Z</time></trkpt><trkpt lat="45.49557277209692" lon="9.809962127897888"><ele>112.5</ele><time>2026-04-06T08:42:42.999Z</time></trkpt><trkpt lat="45.49558788701825" lon="9.810404219917784"><ele>112.0</ele><time>2026-04-06T08:42:43.999Z</time></trkpt><trkpt lat="45.495596584032455" lon="9.81084321901154"><ele>112.0</ele><time>2026-04-06T08:42:44.999Z</time></trkpt><trkpt lat="45.495603158569" lon="9.811288369285833"><ele>112.0</ele><time>2026-04-06T08:42:45.999Z</time></trkpt><trkpt lat="45.49560858378136" lon="9.811735794535105"><ele>112.5</ele><time>2026-04-06T08:42:46.999Z</time></trkpt><trkpt lat="45.49561373567576" lon="9.812187212939454"><ele>113.0</ele><time>2026-04-06T08:42:47.999Z</time></trkpt><trkpt lat="45.49561540206573" lon="9.812637424847669"><ele>112.0</ele><time>2026-04-06T08:42:48.999Z</time></trkpt><trkpt lat="45.49561906410256" lon="9.81308511991233"><ele>111.0</ele><time>2026-04-06T08:42:49.999Z</time></trkpt><trkpt lat="45.49562330877185" lon="9.813535931786294"><ele>111.0</ele><time>2026-04-06T08:42:50.999Z</time></trkpt><trkpt lat="45.495625676946304" lon="9.813989613010598"><ele>111.0</ele><time>2026-04-06T08:42:51.999Z</time></trkpt><trkpt lat="45.49561935659279" lon="9.814447455485979"><ele>112.0</ele><time>2026-04-06T08:42:52.999Z</time></trkpt><trkpt lat="45.49561577314838" lon="9.814915419244384"><ele>113.0</ele><time>2026-04-06T08:42:53.999Z</time></trkpt><trkpt lat="45.49560973748058" lon="9.815393802748108"><ele>113.0</ele><time>2026-04-06T08:42:54.999Z</time></trkpt><trkpt lat="45.49559981306284" lon="9.815879471036522"><ele>113.0</ele><time>2026-04-06T08:42:55.999Z</time></trkpt><trkpt lat="45.495584112615994" lon="9.816366316162918"><ele>112.5</ele><time>2026-04-06T08:42:56.999Z</time></trkpt><trkpt lat="45.495567317564486" lon="9.81684726599398"><ele>112.0</ele><time>2026-04-06T08:42:57.999Z</time></trkpt><trkpt lat="45.49554537806606" lon="9.817320782552995"><ele>112.5</ele><time>2026-04-06T08:42:58.999Z</time></trkpt><trkpt lat="45.49552665601787" lon="9.817778158252812"><ele>113.0</ele><time>2026-04-06T08:42:59.999Z</time></trkpt><trkpt lat="45.49551444832786" lon="9.818229966959846"><ele>113.0</ele><time>2026-04-06T08:43:00.999Z</time></trkpt><trkpt lat="45.49550593589763" lon="9.818672809932346"><ele>113.0</ele><time>2026-04-06T08:43:01.999Z</time></trkpt><trkpt lat="45.49549657907687" lon="9.819110242044745"><ele>113.5</ele><time>2026-04-06T08:43:02.999Z</time></trkpt><trkpt lat="45.49548374573203" lon="9.819544264663072"><ele>114.0</ele><time>2026-04-06T08:43:03.999Z</time></trkpt><trkpt lat="45.49547339001246" lon="9.819977133326113"><ele>113.5</ele><time>2026-04-06T08:43:04.999Z</time></trkpt><trkpt lat="45.49546334066991" lon="9.820408097885986"><ele>113.0</ele><time>2026-04-06T08:43:05.999Z</time></trkpt><trkpt lat="45.49545152276153" lon="9.820831756464374"><ele>113.0</ele><time>2026-04-06T08:43:06.999Z</time></trkpt><trkpt lat="45.49543882761988" lon="9.82125975719952"><ele>113.0</ele><time>2026-04-06T08:43:07.999Z</time></trkpt><trkpt lat="45.49543004694734" lon="9.821689029493646"><ele>114.0</ele><time>2026-04-06T08:43:08.999Z</time></trkpt><trkpt lat="45.49541888514129" lon="9.822113977281244"><ele>115.0</ele><time>2026-04-06T08:43:09.999Z</time></trkpt><trkpt lat="45.495409888779335" lon="9.822544962517744"><ele>114.5</ele><time>2026-04-06T08:43:10.999Z</time></trkpt><trkpt lat="45.495401514999934" lon="9.822976923563381"><ele>114.0</ele><time>2026-04-06T08:43:11.999Z</time></trkpt><trkpt lat="45.49539333523413" lon="9.82341361144241"><ele>114.0</ele><time>2026-04-06T08:43:12.999Z</time></trkpt><trkpt lat="45.49537998876628" lon="9.823852826780394"><ele>114.0</ele><time>2026-04-06T08:43:13.999Z</time></trkpt><trkpt lat="45.49536908858217" lon="9.824289887973892"><ele>114.0</ele><time>2026-04-06T08:43:14.999Z</time></trkpt><trkpt lat="45.495359533094536" lon="9.82472577164074"><ele>114.0</ele><time>2026-04-06T08:43:15.999Z</time></trkpt><trkpt lat="45.49534956420081" lon="9.825164877051543"><ele>114.0</ele><time>2026-04-06T08:43:16.999Z</time></trkpt><trkpt lat="45.49533795236519" lon="9.825609810186856"><ele>114.0</ele><time>2026-04-06T08:43:17.999Z</time></trkpt><trkpt lat="45.495323516732306" lon="9.826043094555034"><ele>114.0</ele><time>2026-04-06T08:43:18.999Z</time></trkpt><trkpt lat="45.49531425206234" lon="9.826487536576515"><ele>114.0</ele><time>2026-04-06T08:43:19.999Z</time></trkpt><trkpt lat="45.49529863439447" lon="9.826931448508173"><ele>114.0</ele><time>2026-04-06T08:43:20.999Z</time></trkpt><trkpt lat="45.4952909312031" lon="9.827374863645623"><ele>114.0</ele><time>2026-04-06T08:43:21.999Z</time></trkpt><trkpt lat="45.49528093909441" lon="9.827817667048983"><ele>115.0</ele><time>2026-04-06T08:43:22.999Z</time></trkpt><trkpt lat="45.49526635434554" lon="9.8282611013895"><ele>116.0</ele><time>2026-04-06T08:43:23.999Z</time></trkpt><trkpt lat="45.49525704455409" lon="9.828709428307848"><ele>116.5</ele><time>2026-04-06T08:43:24.999Z</time></trkpt><trkpt lat="45.49524558317911" lon="9.829149383097525"><ele>117.0</ele><time>2026-04-06T08:43:26Z</time></trkpt><trkpt lat="45.49523480119614" lon="9.829591015673762"><ele>116.5</ele><time>2026-04-06T08:43:27Z</time></trkpt><trkpt lat="45.49522244847725" lon="9.830032597015675"><ele>116.0</ele><time>2026-04-06T08:43:28Z</time></trkpt><trkpt lat="45.49520685805935" lon="9.830481609960884"><ele>116.0</ele><time>2026-04-06T08:43:29Z</time></trkpt><trkpt lat="45.49519517088589" lon="9.830926337904323"><ele>116.0</ele><time>2026-04-06T08:43:30Z</time></trkpt><trkpt lat="45.49519824969983" lon="9.831381571013399"><ele>114.5</ele><time>2026-04-06T08:43:31Z</time></trkpt><trkpt lat="45.49518518499961" lon="9.831820872963686"><ele>113.0</ele><time>2026-04-06T08:43:32Z</time></trkpt><trkpt lat="45.495173660601736" lon="9.832262130725637"><ele>113.5</ele><time>2026-04-06T08:43:33Z</time></trkpt><trkpt lat="45.49516286066255" lon="9.832699867249703"><ele>114.0</ele><time>2026-04-06T08:43:34Z</time></trkpt><trkpt lat="45.49515301199708" lon="9.833137947199093"><ele>114.5</ele><time>2026-04-06T08:43:35Z</time></trkpt><trkpt lat="45.49514811145515" lon="9.833566841296063"><ele>115.0</ele><time>2026-04-06T08:43:36Z</time></trkpt><trkpt lat="45.49514011975387" lon="9.833989301266902"><ele>114.5</ele><time>2026-04-06T08:43:37Z</time></trkpt><trkpt lat="45.49512974166981" lon="9.834407900670497"><ele>114.0</ele><time>2026-04-06T08:43:38Z</time></trkpt><trkpt lat="45.49512298958891" lon="9.834820517144806"><ele>113.5</ele><time>2026-04-06T08:43:39Z</time></trkpt><trkpt lat="45.49511634439031" lon="9.835225392407727"><ele>113.0</ele><time>2026-04-06T08:43:40Z</time></trkpt><trkpt lat="45.49511109373456" lon="9.835630012100971"><ele>113.0</ele><time>2026-04-06T08:43:41Z</time></trkpt><trkpt lat="45.49510760314144" lon="9.83603495169645"><ele>113.0</ele><time>2026-04-06T08:43:42Z</time></trkpt><trkpt lat="45.49510639900038" lon="9.836446374089236"><ele>113.5</ele><time>2026-04-06T08:43:43Z</time></trkpt><trkpt lat="45.495102464027084" lon="9.836862159403205"><ele>114.0</ele><time>2026-04-06T08:43:44Z</time></trkpt><trkpt lat="45.495093174297786" lon="9.837278296479015"><ele>114.5</ele><time>2026-04-06T08:43:45Z</time></trkpt><trkpt lat="45.49508701908434" lon="9.837708458572749"><ele>115.0</ele><time>2026-04-06T08:43:46Z</time></trkpt><trkpt lat="45.49509218213858" lon="9.838108680193345"><ele>115.0</ele><time>2026-04-06T08:43:47Z</time></trkpt><trkpt lat="45.49509543815934" lon="9.838525928316331"><ele>115.0</ele><time>2026-04-06T08:43:48Z</time></trkpt><trkpt lat="45.49509835264544" lon="9.838936078232011"><ele>115.0</ele><time>2026-04-06T08:43:49Z</time></trkpt><trkpt lat="45.49510112293815" lon="9.83934626415911"><ele>115.0</ele><time>2026-04-06T08:43:50Z</time></trkpt><trkpt lat="45.49510340122337" lon="9.839748888852496"><ele>115.5</ele><time>2026-04-06T08:43:51Z</time></trkpt><trkpt lat="45.4951132677998" lon="9.84015007132937"><ele>116.0</ele><time>2026-04-06T08:43:52Z</time></trkpt><trkpt lat="45.49512273756951" lon="9.840561882257042"><ele>115.5</ele><time>2026-04-06T08:43:53Z</time></trkpt><trkpt lat="45.49513344400139" lon="9.840988086428503"><ele>115.0</ele><time>2026-04-06T08:43:54Z</time></trkpt><trkpt lat="45.495147461623866" lon="9.841420156986752"><ele>114.5</ele><time>2026-04-06T08:43:55Z</time></trkpt><trkpt lat="45.495164269477264" lon="9.841861505889302"><ele>114.0</ele><time>2026-04-06T08:43:56Z</time></trkpt><trkpt lat="45.495183285503416" lon="9.842298716380514"><ele>114.5</ele><time>2026-04-06T08:43:57Z</time></trkpt><trkpt lat="45.49520272835625" lon="9.842744619420346"><ele>115.0</ele><time>2026-04-06T08:43:58Z</time></trkpt><trkpt lat="45.49522579565641" lon="9.843195264573238"><ele>114.5</ele><time>2026-04-06T08:43:59Z</time></trkpt><trkpt lat="45.495253281372655" lon="9.843656303405016"><ele>114.0</ele><time>2026-04-06T08:44:00Z</time></trkpt><trkpt lat="45.49528278850138" lon="9.84411975461053"><ele>114.0</ele><time>2026-04-06T08:44:01Z</time></trkpt><trkpt lat="45.49531139502224" lon="9.844584536943383"><ele>114.0</ele><time>2026-04-06T08:44:02Z</time></trkpt><trkpt lat="45.49534118783553" lon="9.845061180961832"><ele>114.5</ele><time>2026-04-06T08:44:03Z</time></trkpt><trkpt lat="45.495375397280604" lon="9.845523692482965"><ele>115.0</ele><time>2026-04-06T08:44:04Z</time></trkpt><trkpt lat="45.495412635157756" lon="9.845989318794505"><ele>115.0</ele><time>2026-04-06T08:44:05Z</time></trkpt><trkpt lat="45.495451050899604" lon="9.846460312367089"><ele>115.0</ele><time>2026-04-06T08:44:06Z</time></trkpt><trkpt lat="45.49549168153564" lon="9.846926881111031"><ele>115.0</ele><time>2026-04-06T08:44:07Z</time></trkpt><trkpt lat="45.49553463651812" lon="9.847395988129023"><ele>115.0</ele><time>2026-04-06T08:44:08Z</time></trkpt><trkpt lat="45.49558148859647" lon="9.847867023410423"><ele>115.5</ele><time>2026-04-06T08:44:09Z</time></trkpt><trkpt lat="45.495628481656176" lon="9.848336664266434"><ele>116.0</ele><time>2026-04-06T08:44:10Z</time></trkpt><trkpt lat="45.49567974497464" lon="9.848808875652756"><ele>116.0</ele><time>2026-04-06T08:44:11Z</time></trkpt><trkpt lat="45.49573583348889" lon="9.849280683362378"><ele>116.0</ele><time>2026-04-06T08:44:12Z</time></trkpt><trkpt lat="45.495787638539284" lon="9.849746094227843"><ele>115.5</ele><time>2026-04-06T08:44:13Z</time></trkpt><trkpt lat="45.49584298617823" lon="9.850215552455719"><ele>115.0</ele><time>2026-04-06T08:44:14Z</time></trkpt><trkpt lat="45.495904113721075" lon="9.850686660049819"><ele>115.0</ele><time>2026-04-06T08:44:15Z</time></trkpt><trkpt lat="45.49596716709485" lon="9.851159479408393"><ele>115.0</ele><time>2026-04-06T08:44:16Z</time></trkpt><trkpt lat="45.496033887215816" lon="9.851630197804061"><ele>116.0</ele><time>2026-04-06T08:44:16.999Z</time></trkpt><trkpt lat="45.4960990479937" lon="9.852100397441077"><ele>117.0</ele><time>2026-04-06T08:44:17.999Z</time></trkpt><trkpt lat="45.49616848520655" lon="9.852575579403645"><ele>116.5</ele><time>2026-04-06T08:44:18.999Z</time></trkpt><trkpt lat="45.49623809983369" lon="9.853059722430887"><ele>116.0</ele><time>2026-04-06T08:44:19.999Z</time></trkpt><trkpt lat="45.496311070950185" lon="9.853543095822449"><ele>116.0</ele><time>2026-04-06T08:44:20.999Z</time></trkpt><trkpt lat="45.496392238490934" lon="9.854008971187913"><ele>116.0</ele><time>2026-04-06T08:44:21.999Z</time></trkpt><trkpt lat="45.49647356443949" lon="9.854487411161628"><ele>116.0</ele><time>2026-04-06T08:44:22.999Z</time></trkpt><trkpt lat="45.496553909064886" lon="9.854955225225297"><ele>116.0</ele><time>2026-04-06T08:44:23.999Z</time></trkpt><trkpt lat="45.496634545810934" lon="9.855425310945026"><ele>115.0</ele><time>2026-04-06T08:44:24.999Z</time></trkpt><trkpt lat="45.49671867581326" lon="9.85588152891833"><ele>114.0</ele><time>2026-04-06T08:44:25.999Z</time></trkpt><trkpt lat="45.49680375769527" lon="9.856338036122898"><ele>114.0</ele><time>2026-04-06T08:44:26.999Z</time></trkpt><trkpt lat="45.49688985719541" lon="9.856781806895894"><ele>114.0</ele><time>2026-04-06T08:44:27.999Z</time></trkpt><trkpt lat="45.49697977536533" lon="9.857218918072054"><ele>113.5</ele><time>2026-04-06T08:44:28.999Z</time></trkpt><trkpt lat="45.49706974034972" lon="9.857651356355708"><ele>113.0</ele><time>2026-04-06T08:44:29.999Z</time></trkpt><trkpt lat="45.49715966471472" lon="9.85808939762295"><ele>113.0</ele><time>2026-04-06T08:44:30.999Z</time></trkpt><trkpt lat="45.49725301473893" lon="9.858529628071889"><ele>113.0</ele><time>2026-04-06T08:44:31.999Z</time></trkpt><trkpt lat="45.49735198557992" lon="9.858973994910082"><ele>113.0</ele><time>2026-04-06T08:44:32.999Z</time></trkpt><trkpt lat="45.497450733083674" lon="9.859416177731513"><ele>113.0</ele><time>2026-04-06T08:44:33.999Z</time></trkpt><trkpt lat="45.497557532391" lon="9.859889488345576"><ele>113.0</ele><time>2026-04-06T08:44:34.999Z</time></trkpt><trkpt lat="45.49766173537292" lon="9.86035360871938"><ele>113.0</ele><time>2026-04-06T08:44:35.999Z</time></trkpt><trkpt lat="45.49777260379862" lon="9.860809646714312"><ele>111.5</ele><time>2026-04-06T08:44:36.999Z</time></trkpt><trkpt lat="45.49788760284543" lon="9.861274571749906"><ele>110.0</ele><time>2026-04-06T08:44:37.999Z</time></trkpt><trkpt lat="45.49800090947913" lon="9.861732903240473"><ele>108.0</ele><time>2026-04-06T08:44:38.999Z</time></trkpt><trkpt lat="45.49811698749404" lon="9.862183679209718"><ele>106.0</ele><time>2026-04-06T08:44:39.999Z</time></trkpt><trkpt lat="45.49823007310397" lon="9.862637842923776"><ele>106.0</ele><time>2026-04-06T08:44:40.999Z</time></trkpt><trkpt lat="45.498345131194675" lon="9.863081832507387"><ele>106.0</ele><time>2026-04-06T08:44:41.999Z</time></trkpt><trkpt lat="45.49846569046843" lon="9.86352600070948"><ele>106.5</ele><time>2026-04-06T08:44:42.999Z</time></trkpt><trkpt lat="45.498590078253336" lon="9.863960438377688"><ele>107.0</ele><time>2026-04-06T08:44:43.999Z</time></trkpt><trkpt lat="45.49871371563034" lon="9.86439133191834"><ele>106.5</ele><time>2026-04-06T08:44:44.999Z</time></trkpt><trkpt lat="45.498836680467655" lon="9.864823697018743"><ele>106.0</ele><time>2026-04-06T08:44:45.999Z</time></trkpt><trkpt lat="45.498963294154926" lon="9.86526019674479"><ele>105.5</ele><time>2026-04-06T08:44:46.999Z</time></trkpt><trkpt lat="45.499090924407064" lon="9.865697413206615"><ele>105.0</ele><time>2026-04-06T08:44:47.999Z</time></trkpt><trkpt lat="45.499225971165586" lon="9.866154842996227"><ele>105.0</ele><time>2026-04-06T08:44:48.999Z</time></trkpt><trkpt lat="45.49937598955848" lon="9.866635539862887"><ele>105.0</ele><time>2026-04-06T08:44:49.999Z</time></trkpt><trkpt lat="45.49954409736015" lon="9.867134715562896"><ele>105.5</ele><time>2026-04-06T08:44:50.999Z</time></trkpt><trkpt lat="45.499719715490464" lon="9.867653650381085"><ele>106.0</ele><time>2026-04-06T08:44:51.999Z</time></trkpt><trkpt lat="45.4998974142693" lon="9.868197892144755"><ele>106.0</ele><time>2026-04-06T08:44:52.999Z</time></trkpt><trkpt lat="45.50006561195236" lon="9.868756188630675"><ele>106.0</ele><time>2026-04-06T08:44:53.999Z</time></trkpt><trkpt lat="45.50022866911802" lon="9.869331381156897"><ele>106.0</ele><time>2026-04-06T08:44:54.999Z</time></trkpt><trkpt lat="45.50038416228027" lon="9.869893081672918"><ele>106.0</ele><time>2026-04-06T08:44:55.999Z</time></trkpt><trkpt lat="45.50053744154879" lon="9.870417686007164"><ele>106.0</ele><time>2026-04-06T08:44:56.999Z</time></trkpt><trkpt lat="45.50068701542572" lon="9.87090372102571"><ele>106.0</ele><time>2026-04-06T08:44:57.999Z</time></trkpt><trkpt lat="45.50083247482626" lon="9.871354189301327"><ele>108.0</ele><time>2026-04-06T08:44:58.999Z</time></trkpt><trkpt lat="45.500974218191" lon="9.871798421138022"><ele>110.0</ele><time>2026-04-06T08:44:59.999Z</time></trkpt><trkpt lat="45.50110788437857" lon="9.872234342915457"><ele>109.5</ele><time>2026-04-06T08:45:00.999Z</time></trkpt><trkpt lat="45.501237279354484" lon="9.872653080283044"><ele>109.0</ele><time>2026-04-06T08:45:01.999Z</time></trkpt><trkpt lat="45.50136380294224" lon="9.873062626038855"><ele>109.0</ele><time>2026-04-06T08:45:02.999Z</time></trkpt><trkpt lat="45.50148774541719" lon="9.873465021922774"><ele>109.0</ele><time>2026-04-06T08:45:03.999Z</time></trkpt><trkpt lat="45.50160958422736" lon="9.873849152210092"><ele>109.0</ele><time>2026-04-06T08:45:04.999Z</time></trkpt><trkpt lat="45.50172756273017" lon="9.87421760718699"><ele>109.0</ele><time>2026-04-06T08:45:05.999Z</time></trkpt><trkpt lat="45.50184765947174" lon="9.874601853594983"><ele>109.0</ele><time>2026-04-06T08:45:06.999Z</time></trkpt><trkpt lat="45.501963616969824" lon="9.874991851011627"><ele>109.0</ele><time>2026-04-06T08:45:07.999Z</time></trkpt><trkpt lat="45.50208128447365" lon="9.875382155002233"><ele>110.5</ele><time>2026-04-06T08:45:08.999Z</time></trkpt><trkpt lat="45.50220654375731" lon="9.875773224294466"><ele>112.0</ele><time>2026-04-06T08:45:09.999Z</time></trkpt><trkpt lat="45.50233467554122" lon="9.876171030681588"><ele>115.0</ele><time>2026-04-06T08:45:10.999Z</time></trkpt><trkpt lat="45.5024691252215" lon="9.87658047088224"><ele>118.0</ele><time>2026-04-06T08:45:11.999Z</time></trkpt><trkpt lat="45.502598741277474" lon="9.876992433640453"><ele>120.5</ele><time>2026-04-06T08:45:12.999Z</time></trkpt><trkpt lat="45.50272993356525" lon="9.877416387069685"><ele>123.0</ele><time>2026-04-06T08:45:13.999Z</time></trkpt><trkpt lat="45.50286445475991" lon="9.877845621576986"><ele>123.5</ele><time>2026-04-06T08:45:14.999Z</time></trkpt><trkpt lat="45.503002978281074" lon="9.878285184359562"><ele>124.0</ele><time>2026-04-06T08:45:15.999Z</time></trkpt><trkpt lat="45.50314609234258" lon="9.878726566060351"><ele>124.0</ele><time>2026-04-06T08:45:16.999Z</time></trkpt><trkpt lat="45.503288291077396" lon="9.879166463393577"><ele>124.0</ele><time>2026-04-06T08:45:17.999Z</time></trkpt><trkpt lat="45.50342938644799" lon="9.879612301137382"><ele>122.5</ele><time>2026-04-06T08:45:18.999Z</time></trkpt><trkpt lat="45.503569484856214" lon="9.88005642353191"><ele>121.0</ele><time>2026-04-06T08:45:19.999Z</time></trkpt><trkpt lat="45.50371160796685" lon="9.880497071947211"><ele>122.0</ele><time>2026-04-06T08:45:20.999Z</time></trkpt><trkpt lat="45.50385221686096" lon="9.880940190710382"><ele>123.0</ele><time>2026-04-06T08:45:21.999Z</time></trkpt><trkpt lat="45.50399621359279" lon="9.881391084213906"><ele>122.5</ele><time>2026-04-06T08:45:22.999Z</time></trkpt><trkpt lat="45.50413339592999" lon="9.881831966116586"><ele>122.0</ele><time>2026-04-06T08:45:23.999Z</time></trkpt><trkpt lat="45.50427259666324" lon="9.882279781381678"><ele>122.0</ele><time>2026-04-06T08:45:24.999Z</time></trkpt><trkpt lat="45.504414204368004" lon="9.882731558064155"><ele>122.0</ele><time>2026-04-06T08:45:25.999Z</time></trkpt><trkpt lat="45.50455489849538" lon="9.883174902806651"><ele>122.0</ele><time>2026-04-06T08:45:26.999Z</time></trkpt><trkpt lat="45.504696769086316" lon="9.88362971913506"><ele>122.0</ele><time>2026-04-06T08:45:27.999Z</time></trkpt><trkpt lat="45.50483772828514" lon="9.884079837665166"><ele>122.5</ele><time>2026-04-06T08:45:28.999Z</time></trkpt><trkpt lat="45.50497380001619" lon="9.884522482867705"><ele>123.0</ele><time>2026-04-06T08:45:29.999Z</time></trkpt><trkpt lat="45.50510931002698" lon="9.884961305720529"><ele>123.0</ele><time>2026-04-06T08:45:30.998Z</time></trkpt><trkpt lat="45.50524698225621" lon="9.885401302888122"><ele>123.0</ele><time>2026-04-06T08:45:32Z</time></trkpt><trkpt lat="45.50538971547692" lon="9.885844171249012"><ele>123.0</ele><time>2026-04-06T08:45:33Z</time></trkpt><trkpt lat="45.505539237914896" lon="9.88629086253255"><ele>123.0</ele><time>2026-04-06T08:45:34Z</time></trkpt><trkpt lat="45.505692378349494" lon="9.88673857646014"><ele>123.0</ele><time>2026-04-06T08:45:35Z</time></trkpt><trkpt lat="45.50584553006193" lon="9.887193525097947"><ele>123.0</ele><time>2026-04-06T08:45:36Z</time></trkpt><trkpt lat="45.50598868848315" lon="9.887653231246446"><ele>122.5</ele><time>2026-04-06T08:45:37Z</time></trkpt><trkpt lat="45.50612678816995" lon="9.88812708248515"><ele>122.0</ele><time>2026-04-06T08:45:38Z</time></trkpt><trkpt lat="45.506258851449665" lon="9.88860239185731"><ele>123.0</ele><time>2026-04-06T08:45:39Z</time></trkpt><trkpt lat="45.50638871098992" lon="9.889082451011571"><ele>124.0</ele><time>2026-04-06T08:45:40Z</time></trkpt><trkpt lat="45.50651942859137" lon="9.889558496961993"><ele>124.0</ele><time>2026-04-06T08:45:41Z</time></trkpt><trkpt lat="45.50665494435061" lon="9.890020092587616"><ele>124.0</ele><time>2026-04-06T08:45:42Z</time></trkpt><trkpt lat="45.506797133709824" lon="9.890473107382665"><ele>124.0</ele><time>2026-04-06T08:45:43Z</time></trkpt><trkpt lat="45.506940275337115" lon="9.890927620645979"><ele>124.0</ele><time>2026-04-06T08:45:44Z</time></trkpt><trkpt lat="45.50708504926897" lon="9.891383019085827"><ele>124.5</ele><time>2026-04-06T08:45:45Z</time></trkpt><trkpt lat="45.50722661763228" lon="9.891836811705215"><ele>125.0</ele><time>2026-04-06T08:45:46Z</time></trkpt><trkpt lat="45.5073650904869" lon="9.892291485617553"><ele>124.5</ele><time>2026-04-06T08:45:47Z</time></trkpt><trkpt lat="45.50749845529628" lon="9.892732453533517"><ele>124.0</ele><time>2026-04-06T08:45:48Z</time></trkpt><trkpt lat="45.50763673437798" lon="9.893176823366595"><ele>124.5</ele><time>2026-04-06T08:45:49Z</time></trkpt><trkpt lat="45.50777760630932" lon="9.893608232848672"><ele>125.0</ele><time>2026-04-06T08:45:50Z</time></trkpt><trkpt lat="45.50791727093103" lon="9.894038825385302"><ele>124.5</ele><time>2026-04-06T08:45:51Z</time></trkpt><trkpt lat="45.5080478039736" lon="9.8944755123324"><ele>124.0</ele><time>2026-04-06T08:45:52Z</time></trkpt><trkpt lat="45.50817969275609" lon="9.894904289148663"><ele>124.5</ele><time>2026-04-06T08:45:53Z</time></trkpt><trkpt lat="45.50831006087946" lon="9.895326209203867"><ele>125.0</ele><time>2026-04-06T08:45:54Z</time></trkpt><trkpt lat="45.50843830223095" lon="9.89574584260218"><ele>125.5</ele><time>2026-04-06T08:45:55Z</time></trkpt><trkpt lat="45.508564776868596" lon="9.896157105039755"><ele>126.0</ele><time>2026-04-06T08:45:56Z</time></trkpt><trkpt lat="45.50869152139014" lon="9.896572173817878"><ele>125.5</ele><time>2026-04-06T08:45:57Z</time></trkpt><trkpt lat="45.508816665004424" lon="9.896988000383542"><ele>125.0</ele><time>2026-04-06T08:45:58Z</time></trkpt><trkpt lat="45.508944973833536" lon="9.897401808099772"><ele>125.5</ele><time>2026-04-06T08:45:59Z</time></trkpt><trkpt lat="45.509075244874786" lon="9.89780937707443"><ele>126.0</ele><time>2026-04-06T08:46:00Z</time></trkpt><trkpt lat="45.509206458410816" lon="9.898219663735208"><ele>126.5</ele><time>2026-04-06T08:46:01Z</time></trkpt><trkpt lat="45.50933192578477" lon="9.898626678816072"><ele>127.0</ele><time>2026-04-06T08:46:02Z</time></trkpt><trkpt lat="45.50945861526615" lon="9.899032405834108"><ele>127.5</ele><time>2026-04-06T08:46:03Z</time></trkpt><trkpt lat="45.50958813258188" lon="9.89944195671861"><ele>128.0</ele><time>2026-04-06T08:46:04Z</time></trkpt><trkpt lat="45.509720764323745" lon="9.899861987723881"><ele>127.5</ele><time>2026-04-06T08:46:05Z</time></trkpt><trkpt lat="45.50985067423363" lon="9.900282438780973"><ele>127.0</ele><time>2026-04-06T08:46:06Z</time></trkpt><trkpt lat="45.50998154959851" lon="9.900706659319384"><ele>127.5</ele><time>2026-04-06T08:46:07Z</time></trkpt><trkpt lat="45.51011326709357" lon="9.90113267181775"><ele>128.0</ele><time>2026-04-06T08:46:08Z</time></trkpt><trkpt lat="45.51024626773016" lon="9.901554742532861"><ele>127.5</ele><time>2026-04-06T08:46:09Z</time></trkpt><trkpt lat="45.51037639541133" lon="9.901973256527105"><ele>127.0</ele><time>2026-04-06T08:46:10Z</time></trkpt><trkpt lat="45.51050642676262" lon="9.902389721533764"><ele>127.0</ele><time>2026-04-06T08:46:11Z</time></trkpt><trkpt lat="45.51063080464708" lon="9.902803569147062"><ele>127.0</ele><time>2026-04-06T08:46:12Z</time></trkpt><trkpt lat="45.51075598387721" lon="9.903211180253656"><ele>127.0</ele><time>2026-04-06T08:46:13Z</time></trkpt><trkpt lat="45.510880401237074" lon="9.903617662901048"><ele>127.0</ele><time>2026-04-06T08:46:14Z</time></trkpt><trkpt lat="45.51100652152582" lon="9.904022235291764"><ele>127.0</ele><time>2026-04-06T08:46:15Z</time></trkpt><trkpt lat="45.51113274925836" lon="9.904424486214364"><ele>127.0</ele><time>2026-04-06T08:46:16Z</time></trkpt><trkpt lat="45.511260644772776" lon="9.904825131125802"><ele>127.5</ele><time>2026-04-06T08:46:17Z</time></trkpt><trkpt lat="45.51138802529401" lon="9.905227208530974"><ele>128.0</ele><time>2026-04-06T08:46:18Z</time></trkpt><trkpt lat="45.51151329026125" lon="9.905630928896503"><ele>128.5</ele><time>2026-04-06T08:46:19Z</time></trkpt><trkpt lat="45.51163394768252" lon="9.906028742416982"><ele>129.0</ele><time>2026-04-06T08:46:20Z</time></trkpt><trkpt lat="45.511757606507565" lon="9.9064254977559"><ele>128.5</ele><time>2026-04-06T08:46:21Z</time></trkpt><trkpt lat="45.511884200376045" lon="9.906816991765226"><ele>128.0</ele><time>2026-04-06T08:46:21.999Z</time></trkpt><trkpt lat="45.512015971055796" lon="9.907215889505252"><ele>128.0</ele><time>2026-04-06T08:46:22.999Z</time></trkpt><trkpt lat="45.51214628978822" lon="9.907616501324608"><ele>128.0</ele><time>2026-04-06T08:46:23.999Z</time></trkpt><trkpt lat="45.512277958509955" lon="9.90802696104222"><ele>128.5</ele><time>2026-04-06T08:46:24.999Z</time></trkpt><trkpt lat="45.51241019924758" lon="9.90843901319653"><ele>129.0</ele><time>2026-04-06T08:46:25.999Z</time></trkpt><trkpt lat="45.512542355302806" lon="9.90886377485024"><ele>129.0</ele><time>2026-04-06T08:46:26.999Z</time></trkpt><trkpt lat="45.51266791246881" lon="9.909295007703307"><ele>129.0</ele><time>2026-04-06T08:46:27.999Z</time></trkpt><trkpt lat="45.512797113726414" lon="9.90972314206405"><ele>129.0</ele><time>2026-04-06T08:46:28.999Z</time></trkpt><trkpt lat="45.5129309079836" lon="9.910152735845005"><ele>129.0</ele><time>2026-04-06T08:46:29.999Z</time></trkpt><trkpt lat="45.51306354784918" lon="9.910585318075283"><ele>129.0</ele><time>2026-04-06T08:46:30.999Z</time></trkpt><trkpt lat="45.51319109734007" lon="9.911025859769852"><ele>129.0</ele><time>2026-04-06T08:46:31.999Z</time></trkpt><trkpt lat="45.51331844603131" lon="9.911462149700487"><ele>128.5</ele><time>2026-04-06T08:46:32.999Z</time></trkpt><trkpt lat="45.51344291631679" lon="9.911901954744984"><ele>128.0</ele><time>2026-04-06T08:46:33.999Z</time></trkpt><trkpt lat="45.51356844243031" lon="9.912340714213025"><ele>128.0</ele><time>2026-04-06T08:46:34.999Z</time></trkpt><trkpt lat="45.5136951940271" lon="9.912779074484696"><ele>128.0</ele><time>2026-04-06T08:46:35.999Z</time></trkpt><trkpt lat="45.51381978418738" lon="9.913219287617672"><ele>129.5</ele><time>2026-04-06T08:46:36.999Z</time></trkpt><trkpt lat="45.51393902767419" lon="9.913647168210764"><ele>131.0</ele><time>2026-04-06T08:46:37.999Z</time></trkpt><trkpt lat="45.514058557326194" lon="9.914086540003519"><ele>131.0</ele><time>2026-04-06T08:46:38.999Z</time></trkpt><trkpt lat="45.51417998428074" lon="9.914525088530858"><ele>131.0</ele><time>2026-04-06T08:46:39.999Z</time></trkpt><trkpt lat="45.51429661749185" lon="9.914956557310102"><ele>131.0</ele><time>2026-04-06T08:46:40.999Z</time></trkpt><trkpt lat="45.5144080716022" lon="9.915389942166735"><ele>131.0</ele><time>2026-04-06T08:46:41.999Z</time></trkpt><trkpt lat="45.51452437882188" lon="9.915830381100257"><ele>131.0</ele><time>2026-04-06T08:46:42.999Z</time></trkpt><trkpt lat="45.51463682192926" lon="9.91625558901794"><ele>131.0</ele><time>2026-04-06T08:46:43.999Z</time></trkpt><trkpt lat="45.51474836096838" lon="9.916677305689703"><ele>130.5</ele><time>2026-04-06T08:46:44.999Z</time></trkpt><trkpt lat="45.51486132789046" lon="9.91709185407609"><ele>130.0</ele><time>2026-04-06T08:46:45.999Z</time></trkpt><trkpt lat="45.51497635848159" lon="9.917511443300075"><ele>130.0</ele><time>2026-04-06T08:46:46.999Z</time></trkpt><trkpt lat="45.51509445699021" lon="9.91793837972702"><ele>130.0</ele><time>2026-04-06T08:46:47.999Z</time></trkpt><trkpt lat="45.51521420663888" lon="9.91836933170234"><ele>130.0</ele><time>2026-04-06T08:46:48.999Z</time></trkpt><trkpt lat="45.515332022830314" lon="9.918799761150124"><ele>130.0</ele><time>2026-04-06T08:46:49.999Z</time></trkpt><trkpt lat="45.51545087690238" lon="9.91923372421196"><ele>130.0</ele><time>2026-04-06T08:46:50.999Z</time></trkpt><trkpt lat="45.515562545791134" lon="9.919672727824256"><ele>130.0</ele><time>2026-04-06T08:46:51.999Z</time></trkpt><trkpt lat="45.51566816390661" lon="9.920119191281273"><ele>130.0</ele><time>2026-04-06T08:46:52.999Z</time></trkpt><trkpt lat="45.51576988610022" lon="9.92055850773148"><ele>130.0</ele><time>2026-04-06T08:46:53.999Z</time></trkpt><trkpt lat="45.51587239379069" lon="9.920998719007827"><ele>131.0</ele><time>2026-04-06T08:46:54.999Z</time></trkpt><trkpt lat="45.51597421246986" lon="9.921434218182469"><ele>132.0</ele><time>2026-04-06T08:46:55.999Z</time></trkpt><trkpt lat="45.5160808502583" lon="9.921871582068098"><ele>132.5</ele><time>2026-04-06T08:46:56.999Z</time></trkpt><trkpt lat="45.516184619037645" lon="9.922308348589292"><ele>133.0</ele><time>2026-04-06T08:46:57.999Z</time></trkpt><trkpt lat="45.51628879880633" lon="9.922754638959145"><ele>133.0</ele><time>2026-04-06T08:46:58.999Z</time></trkpt><trkpt lat="45.51639173497496" lon="9.923198423976457"><ele>133.0</ele><time>2026-04-06T08:46:59.999Z</time></trkpt><trkpt lat="45.51649628794103" lon="9.923644154446903"><ele>132.5</ele><time>2026-04-06T08:47:00.999Z</time></trkpt><trkpt lat="45.516600818655164" lon="9.924093680133572"><ele>132.0</ele><time>2026-04-06T08:47:01.999Z</time></trkpt><trkpt lat="45.51669945139713" lon="9.924547040288184"><ele>131.0</ele><time>2026-04-06T08:47:02.999Z</time></trkpt><trkpt lat="45.51678923279899" lon="9.924996167464046"><ele>130.0</ele><time>2026-04-06T08:47:03.999Z</time></trkpt><trkpt lat="45.516874944349176" lon="9.925458223275774"><ele>130.5</ele><time>2026-04-06T08:47:04.999Z</time></trkpt><trkpt lat="45.516963518236686" lon="9.925918899571107"><ele>131.0</ele><time>2026-04-06T08:47:05.999Z</time></trkpt><trkpt lat="45.51705922399787" lon="9.926371015755135"><ele>131.5</ele><time>2026-04-06T08:47:06.999Z</time></trkpt><trkpt lat="45.517154684504035" lon="9.926823975369087"><ele>132.0</ele><time>2026-04-06T08:47:07.999Z</time></trkpt><trkpt lat="45.51724984358536" lon="9.927271546904464"><ele>132.0</ele><time>2026-04-06T08:47:08.999Z</time></trkpt><trkpt lat="45.51734100446064" lon="9.927717371253271"><ele>132.0</ele><time>2026-04-06T08:47:09.999Z</time></trkpt><trkpt lat="45.517430956871635" lon="9.92816244344346"><ele>132.0</ele><time>2026-04-06T08:47:10.999Z</time></trkpt><trkpt lat="45.51751842491563" lon="9.928603378956732"><ele>132.0</ele><time>2026-04-06T08:47:11.999Z</time></trkpt><trkpt lat="45.517603984538866" lon="9.929040429194325"><ele>132.0</ele><time>2026-04-06T08:47:12.999Z</time></trkpt><trkpt lat="45.51768474376612" lon="9.929475562362395"><ele>132.0</ele><time>2026-04-06T08:47:13.999Z</time></trkpt><trkpt lat="45.51777150653999" lon="9.929917846396238"><ele>132.0</ele><time>2026-04-06T08:47:14.999Z</time></trkpt><trkpt lat="45.51785509962388" lon="9.930361103684369"><ele>132.0</ele><time>2026-04-06T08:47:15.999Z</time></trkpt><trkpt lat="45.51793837742188" lon="9.930806840687142"><ele>131.5</ele><time>2026-04-06T08:47:16.999Z</time></trkpt><trkpt lat="45.51802125724224" lon="9.93125889868956"><ele>131.0</ele><time>2026-04-06T08:47:17.999Z</time></trkpt><trkpt lat="45.51810578331392" lon="9.931715789128745"><ele>131.5</ele><time>2026-04-06T08:47:18.999Z</time></trkpt><trkpt lat="45.51818973113059" lon="9.932172828164253"><ele>132.0</ele><time>2026-04-06T08:47:19.999Z</time></trkpt><trkpt lat="45.518270644526" lon="9.93263210985177"><ele>132.0</ele><time>2026-04-06T08:47:20.999Z</time></trkpt><trkpt lat="45.518351029937804" lon="9.933092377798959"><ele>132.0</ele><time>2026-04-06T08:47:21.999Z</time></trkpt><trkpt lat="45.51842715570652" lon="9.933553471198545"><ele>131.5</ele><time>2026-04-06T08:47:22.999Z</time></trkpt><trkpt lat="45.51850293991192" lon="9.934016308769143"><ele>131.0</ele><time>2026-04-06T08:47:23.999Z</time></trkpt><trkpt lat="45.51858046516419" lon="9.934478872807832"><ele>131.0</ele><time>2026-04-06T08:47:24.999Z</time></trkpt><trkpt lat="45.51865888887107" lon="9.934935122962171"><ele>131.0</ele><time>2026-04-06T08:47:25.999Z</time></trkpt><trkpt lat="45.51873862195156" lon="9.935400449652088"><ele>131.5</ele><time>2026-04-06T08:47:26.999Z</time></trkpt><trkpt lat="45.51880845400522" lon="9.935859212593297"><ele>132.0</ele><time>2026-04-06T08:47:27.999Z</time></trkpt><trkpt lat="45.51887595368979" lon="9.936315431963084"><ele>132.0</ele><time>2026-04-06T08:47:28.999Z</time></trkpt><trkpt lat="45.51894677434807" lon="9.936767902551795"><ele>132.0</ele><time>2026-04-06T08:47:29.999Z</time></trkpt><trkpt lat="45.51901258873562" lon="9.937221742684063"><ele>132.5</ele><time>2026-04-06T08:47:30.999Z</time></trkpt><trkpt lat="45.51908103793851" lon="9.937680334246492"><ele>133.0</ele><time>2026-04-06T08:47:31.999Z</time></trkpt><trkpt lat="45.51915213423394" lon="9.93813285562106"><ele>132.5</ele><time>2026-04-06T08:47:32.999Z</time></trkpt><trkpt lat="45.519221175567154" lon="9.938583059568773"><ele>132.0</ele><time>2026-04-06T08:47:33.999Z</time></trkpt><trkpt lat="45.519286157759296" lon="9.939035123847946"><ele>131.5</ele><time>2026-04-06T08:47:34.999Z</time></trkpt><trkpt lat="45.51934966764763" lon="9.939484511382345"><ele>131.0</ele><time>2026-04-06T08:47:35.999Z</time></trkpt><trkpt lat="45.519411255166496" lon="9.939928765301163"><ele>131.0</ele><time>2026-04-06T08:47:36.998Z</time></trkpt><trkpt lat="45.51947004309466" lon="9.940374185155056"><ele>131.0</ele><time>2026-04-06T08:47:38Z</time></trkpt><trkpt lat="45.51953056336141" lon="9.940821545175922"><ele>131.5</ele><time>2026-04-06T08:47:39Z</time></trkpt><trkpt lat="45.519591682933786" lon="9.94127086876189"><ele>132.0</ele><time>2026-04-06T08:47:40Z</time></trkpt><trkpt lat="45.51965107869968" lon="9.941724153681"><ele>132.0</ele><time>2026-04-06T08:47:41Z</time></trkpt><trkpt lat="45.51970889933357" lon="9.942182734676862"><ele>132.0</ele><time>2026-04-06T08:47:42Z</time></trkpt><trkpt lat="45.51976988873392" lon="9.942637648777609"><ele>131.5</ele><time>2026-04-06T08:47:43Z</time></trkpt><trkpt lat="45.519827573349446" lon="9.94309680585975"><ele>131.0</ele><time>2026-04-06T08:47:44Z</time></trkpt><trkpt lat="45.51988733133713" lon="9.943560637022953"><ele>131.0</ele><time>2026-04-06T08:47:45Z</time></trkpt><trkpt lat="45.51994865332977" lon="9.944023281792393"><ele>131.0</ele><time>2026-04-06T08:47:46Z</time></trkpt><trkpt lat="45.52000575847451" lon="9.944485095295708"><ele>130.5</ele><time>2026-04-06T08:47:47Z</time></trkpt><trkpt lat="45.52005836574652" lon="9.944956897674897"><ele>130.0</ele><time>2026-04-06T08:47:48Z</time></trkpt><trkpt lat="45.52011135514501" lon="9.945420938651946"><ele>130.0</ele><time>2026-04-06T08:47:49Z</time></trkpt><trkpt lat="45.52016269798452" lon="9.945890347070058"><ele>130.0</ele><time>2026-04-06T08:47:50Z</time></trkpt><trkpt lat="45.52021590370121" lon="9.94635890801945"><ele>129.5</ele><time>2026-04-06T08:47:51Z</time></trkpt><trkpt lat="45.52027115994776" lon="9.946817532275066"><ele>129.0</ele><time>2026-04-06T08:47:52Z</time></trkpt><trkpt lat="45.520328036104814" lon="9.94727429589394"><ele>129.5</ele><time>2026-04-06T08:47:53Z</time></trkpt><trkpt lat="45.52038202282966" lon="9.94773120094093"><ele>130.0</ele><time>2026-04-06T08:47:54Z</time></trkpt><trkpt lat="45.52043325150393" lon="9.948191587238096"><ele>130.5</ele><time>2026-04-06T08:47:55Z</time></trkpt><trkpt lat="45.5204836943356" lon="9.948655307153187"><ele>131.0</ele><time>2026-04-06T08:47:56Z</time></trkpt><trkpt lat="45.5205371227977" lon="9.949117600980642"><ele>131.0</ele><time>2026-04-06T08:47:57Z</time></trkpt><trkpt lat="45.52058838777584" lon="9.94958218098064"><ele>131.0</ele><time>2026-04-06T08:47:58Z</time></trkpt><trkpt lat="45.52063955166968" lon="9.950049669189461"><ele>131.0</ele><time>2026-04-06T08:47:59Z</time></trkpt><trkpt lat="45.52069935074046" lon="9.950504401315767"><ele>131.0</ele><time>2026-04-06T08:48:00Z</time></trkpt><trkpt lat="45.520750938454206" lon="9.95097013631225"><ele>130.5</ele><time>2026-04-06T08:48:01Z</time></trkpt><trkpt lat="45.52079680733773" lon="9.951442910791814"><ele>130.0</ele><time>2026-04-06T08:48:02Z</time></trkpt><trkpt lat="45.52084983338469" lon="9.95189034860128"><ele>130.0</ele><time>2026-04-06T08:48:03Z</time></trkpt><trkpt lat="45.52089363857565" lon="9.952314926282153"><ele>130.0</ele><time>2026-04-06T08:48:04Z</time></trkpt><trkpt lat="45.52093927851006" lon="9.95272337373312"><ele>129.5</ele><time>2026-04-06T08:48:05Z</time></trkpt><trkpt lat="45.520986813194106" lon="9.953128884532488"><ele>129.0</ele><time>2026-04-06T08:48:06Z</time></trkpt><trkpt lat="45.5210295207317" lon="9.953515416791008"><ele>129.0</ele><time>2026-04-06T08:48:07Z</time></trkpt><trkpt lat="45.52107143531075" lon="9.953892579964705"><ele>129.0</ele><time>2026-04-06T08:48:08Z</time></trkpt><trkpt lat="45.521112252079696" lon="9.954273669244925"><ele>129.5</ele><time>2026-04-06T08:48:09Z</time></trkpt><trkpt lat="45.521155144538724" lon="9.95463577800018"><ele>130.0</ele><time>2026-04-06T08:48:10Z</time></trkpt><trkpt lat="45.5211939638781" lon="9.954979989348137"><ele>129.5</ele><time>2026-04-06T08:48:11Z</time></trkpt><trkpt lat="45.52122869390909" lon="9.955315285020278"><ele>129.0</ele><time>2026-04-06T08:48:12Z</time></trkpt><trkpt lat="45.52127364091555" lon="9.955663786786781"><ele>130.0</ele><time>2026-04-06T08:48:13Z</time></trkpt><trkpt lat="45.521317804747866" lon="9.956016149067047"><ele>131.0</ele><time>2026-04-06T08:48:14Z</time></trkpt><trkpt lat="45.52135944241722" lon="9.956374101328828"><ele>131.5</ele><time>2026-04-06T08:48:15Z</time></trkpt><trkpt lat="45.521397132383996" lon="9.956733167949025"><ele>132.0</ele><time>2026-04-06T08:48:16Z</time></trkpt><trkpt lat="45.521438292498644" lon="9.957102697554038"><ele>132.0</ele><time>2026-04-06T08:48:17Z</time></trkpt><trkpt lat="45.52148136236079" lon="9.957484099234273"><ele>132.0</ele><time>2026-04-06T08:48:18Z</time></trkpt><trkpt lat="45.521527400948386" lon="9.957868367107288"><ele>132.0</ele><time>2026-04-06T08:48:19Z</time></trkpt><trkpt lat="45.521568319679666" lon="9.958251579641692"><ele>132.0</ele><time>2026-04-06T08:48:20Z</time></trkpt><trkpt lat="45.521605034849244" lon="9.958629537439817"><ele>132.0</ele><time>2026-04-06T08:48:21Z</time></trkpt><trkpt lat="45.521639211780105" lon="9.95898839365582"><ele>132.0</ele><time>2026-04-06T08:48:22Z</time></trkpt><trkpt lat="45.521673358108366" lon="9.95931934078472"><ele>132.0</ele><time>2026-04-06T08:48:23Z</time></trkpt><trkpt lat="45.521706569764945" lon="9.959626069542496"><ele>132.0</ele><time>2026-04-06T08:48:24Z</time></trkpt><trkpt lat="45.52173073005675" lon="9.959903145372808"><ele>132.0</ele><time>2026-04-06T08:48:25Z</time></trkpt><trkpt lat="45.52175295356547" lon="9.960161179536914"><ele>132.33333333333334</ele><time>2026-04-06T08:48:26Z</time></trkpt><trkpt lat="45.5217664400696" lon="9.960397221747906"><ele>132.66666666666669</ele><time>2026-04-06T08:48:27Z</time></trkpt><trkpt lat="45.52179061024899" lon="9.960607845089088"><ele>133.0</ele><time>2026-04-06T08:48:27.999Z</time></trkpt><trkpt lat="45.52176285959561" lon="9.960802011687369"><ele>132.6</ele><time>2026-04-06T08:48:28.999Z</time></trkpt><trkpt lat="45.5217746050907" lon="9.960950576527331"><ele>132.20000000000002</ele><time>2026-04-06T08:48:29.999Z</time></trkpt><trkpt lat="45.52179102848837" lon="9.961062605149097"><ele>131.8</ele><time>2026-04-06T08:48:30.999Z</time></trkpt><trkpt lat="45.52181087317146" lon="9.961205134338641"><ele>131.4</ele><time>2026-04-06T08:48:32.999Z</time></trkpt><trkpt lat="45.521839471719716" lon="9.961293304256595"><ele>131.0</ele><time>2026-04-06T08:48:47.999Z</time></trkpt><trkpt lat="45.5218320350966" lon="9.96144686141883"><ele>131.0</ele><time>2026-04-06T08:49:33.999Z</time></trkpt><trkpt lat="45.52184388229894" lon="9.961540744512801"><ele>131.0</ele><time>2026-04-06T08:49:34.999Z</time></trkpt><trkpt lat="45.52186456930532" lon="9.961682105725355"><ele>131.0</ele><time>2026-04-06T08:49:35.999Z</time></trkpt><trkpt lat="45.52187985281967" lon="9.961831783862793"><ele>131.0</ele><time>2026-04-06T08:49:36.999Z</time></trkpt><trkpt lat="45.52194656490164" lon="9.961963300936484"><ele>131.0</ele><time>2026-04-06T08:49:37.999Z</time></trkpt><trkpt lat="45.52196379432338" lon="9.962111849421435"><ele>131.0</ele><time>2026-04-06T08:49:38.999Z</time></trkpt><trkpt lat="45.521980097672554" lon="9.96225281953034"><ele>131.0</ele><time>2026-04-06T08:49:39.999Z</time></trkpt><trkpt lat="45.52199430635568" lon="9.962376899295252"><ele>131.0</ele><time>2026-04-06T08:49:40.999Z</time></trkpt><trkpt lat="45.522007388286255" lon="9.962491139518736"><ele>131.0</ele><time>2026-04-06T08:49:41.999Z</time></trkpt><trkpt lat="45.52201844893043" lon="9.962587459884979"><ele>131.0</ele><time>2026-04-06T08:49:42.999Z</time></trkpt><trkpt lat="45.522054686329376" lon="9.962900497617897"><ele>130.75</ele><time>2026-04-06T08:49:44Z</time></trkpt><trkpt lat="45.52207408752594" lon="9.963067989934371"><ele>130.5</ele><time>2026-04-06T08:49:45Z</time></trkpt><trkpt lat="45.52209443011086" lon="9.963243180716345"><ele>130.25</ele><time>2026-04-06T08:49:46Z</time></trkpt><trkpt lat="45.522115304627725" lon="9.963421081018653"><ele>130.0</ele><time>2026-04-06T08:49:47Z</time></trkpt><trkpt lat="45.52213578497336" lon="9.963594125405416"><ele>130.0</ele><time>2026-04-06T08:49:48Z</time></trkpt><trkpt lat="45.522153964207824" lon="9.963752368311127"><ele>130.0</ele><time>2026-04-06T08:49:49Z</time></trkpt><trkpt lat="45.522172298490865" lon="9.963911960944428"><ele>130.0</ele><time>2026-04-06T08:49:50Z</time></trkpt><trkpt lat="45.52218916670765" lon="9.964059938061702"><ele>130.0</ele><time>2026-04-06T08:49:51Z</time></trkpt><trkpt lat="45.52220393144566" lon="9.964189531330753"><ele>130.0</ele><time>2026-04-06T08:49:52Z</time></trkpt><trkpt lat="45.52221836032043" lon="9.964316176696547"><ele>130.0</ele><time>2026-04-06T08:49:53Z</time></trkpt><trkpt lat="45.522231343957735" lon="9.964430136840841"><ele>130.0</ele><time>2026-04-06T08:49:54Z</time></trkpt><trkpt lat="45.5222425799763" lon="9.964528757835831"><ele>130.0</ele><time>2026-04-06T08:49:55Z</time></trkpt><trkpt lat="45.52224380142099" lon="9.964635949581385"><ele>130.0</ele><time>2026-04-06T08:49:56Z</time></trkpt><trkpt lat="45.52227399635022" lon="9.964804001218232"><ele>130.0</ele><time>2026-04-06T08:49:57Z</time></trkpt><trkpt lat="45.52230395987646" lon="9.965065241682781"><ele>131.0</ele><time>2026-04-06T08:49:58Z</time></trkpt><trkpt lat="45.522347343990575" lon="9.965444573937411"><ele>132.0</ele><time>2026-04-06T08:49:59Z</time></trkpt><trkpt lat="45.522396558105356" lon="9.965868433804523"><ele>132.0</ele><time>2026-04-06T08:50:00Z</time></trkpt><trkpt lat="45.52244738906656" lon="9.96634040784542"><ele>132.0</ele><time>2026-04-06T08:50:01Z</time></trkpt><trkpt lat="45.522501056089354" lon="9.966833834482387"><ele>131.5</ele><time>2026-04-06T08:50:02Z</time></trkpt><trkpt lat="45.522555195984545" lon="9.96730886286718"><ele>131.0</ele><time>2026-04-06T08:50:03Z</time></trkpt><trkpt lat="45.522606776630745" lon="9.967758452244276"><ele>130.5</ele><time>2026-04-06T08:50:04Z</time></trkpt><trkpt lat="45.52265405952032" lon="9.968171922960629"><ele>130.0</ele><time>2026-04-06T08:50:05Z</time></trkpt><trkpt lat="45.52269632009481" lon="9.96854715713004"><ele>130.0</ele><time>2026-04-06T08:50:06Z</time></trkpt><trkpt lat="45.522732895144266" lon="9.968901221293693"><ele>130.0</ele><time>2026-04-06T08:50:07Z</time></trkpt><trkpt lat="45.5227658309216" lon="9.969264367695475"><ele>130.0</ele><time>2026-04-06T08:50:08Z</time></trkpt><trkpt lat="45.52280341856161" lon="9.969624496350256"><ele>130.0</ele><time>2026-04-06T08:50:09Z</time></trkpt><trkpt lat="45.5228411569115" lon="9.969990161618055"><ele>130.0</ele><time>2026-04-06T08:50:10Z</time></trkpt><trkpt lat="45.522877253558526" lon="9.9703445078661"><ele>130.0</ele><time>2026-04-06T08:50:11Z</time></trkpt><trkpt lat="45.522910812502936" lon="9.970687268318926"><ele>130.33333333333334</ele><time>2026-04-06T08:50:12Z</time></trkpt><trkpt lat="45.522940660372875" lon="9.970998356442156"><ele>130.66666666666666</ele><time>2026-04-06T08:50:13Z</time></trkpt><trkpt lat="45.522975630835106" lon="9.971299314548807"><ele>131.0</ele><time>2026-04-06T08:50:14Z</time></trkpt><trkpt lat="45.52300206477463" lon="9.971586711932613"><ele>131.0</ele><time>2026-04-06T08:50:15Z</time></trkpt><trkpt lat="45.52302578238199" lon="9.971876925833781"><ele>131.0</ele><time>2026-04-06T08:50:16Z</time></trkpt><trkpt lat="45.52304720095625" lon="9.972167451562981"><ele>131.0</ele><time>2026-04-06T08:50:17Z</time></trkpt><trkpt lat="45.52307612292227" lon="9.972461674519234"><ele>131.0</ele><time>2026-04-06T08:50:18Z</time></trkpt><trkpt lat="45.523105884942595" lon="9.972772011798932"><ele>131.0</ele><time>2026-04-06T08:50:19Z</time></trkpt><trkpt lat="45.52313454114789" lon="9.973095113955907"><ele>131.0</ele><time>2026-04-06T08:50:20Z</time></trkpt><trkpt lat="45.5231607186224" lon="9.973434213773"><ele>131.0</ele><time>2026-04-06T08:50:21Z</time></trkpt><trkpt lat="45.52318618512221" lon="9.973782319249977"><ele>131.0</ele><time>2026-04-06T08:50:22Z</time></trkpt><trkpt lat="45.523212624047545" lon="9.974141504151115"><ele>131.5</ele><time>2026-04-06T08:50:23Z</time></trkpt><trkpt lat="45.52323998396339" lon="9.97450480651921"><ele>132.0</ele><time>2026-04-06T08:50:24Z</time></trkpt><trkpt lat="45.523266830322896" lon="9.974867735183286"><ele>131.5</ele><time>2026-04-06T08:50:25Z</time></trkpt><trkpt lat="45.523287674353476" lon="9.975229415683252"><ele>131.0</ele><time>2026-04-06T08:50:26Z</time></trkpt><trkpt lat="45.5233136923878" lon="9.97559276145285"><ele>131.0</ele><time>2026-04-06T08:50:27Z</time></trkpt><trkpt lat="45.52333907593044" lon="9.975949252523705"><ele>131.0</ele><time>2026-04-06T08:50:28Z</time></trkpt><trkpt lat="45.52336597488283" lon="9.976308459793898"><ele>131.0</ele><time>2026-04-06T08:50:28.999Z</time></trkpt><trkpt lat="45.52339053914714" lon="9.97666587147693"><ele>131.0</ele><time>2026-04-06T08:50:29.999Z</time></trkpt><trkpt lat="45.52340695100569" lon="9.977029772068267"><ele>131.0</ele><time>2026-04-06T08:50:30.999Z</time></trkpt><trkpt lat="45.523421271263416" lon="9.97739807805547"><ele>131.0</ele><time>2026-04-06T08:50:31.999Z</time></trkpt><trkpt lat="45.523437401878695" lon="9.977771384048475"><ele>131.0</ele><time>2026-04-06T08:50:32.999Z</time></trkpt><trkpt lat="45.523451415103445" lon="9.978147800380878"><ele>131.0</ele><time>2026-04-06T08:50:33.999Z</time></trkpt><trkpt lat="45.5234619370342" lon="9.978530173467085"><ele>131.5</ele><time>2026-04-06T08:50:34.999Z</time></trkpt><trkpt lat="45.52347250568787" lon="9.978913791295225"><ele>132.0</ele><time>2026-04-06T08:50:35.999Z</time></trkpt><trkpt lat="45.52348357146344" lon="9.979324081511583"><ele>132.0</ele><time>2026-04-06T08:50:36.999Z</time></trkpt><trkpt lat="45.52349632537539" lon="9.979769197513782"><ele>132.0</ele><time>2026-04-06T08:50:37.999Z</time></trkpt><trkpt lat="45.523515011603756" lon="9.980256122321304"><ele>132.5</ele><time>2026-04-06T08:50:38.999Z</time></trkpt><trkpt lat="45.523526568347485" lon="9.980757216312933"><ele>133.0</ele><time>2026-04-06T08:50:39.999Z</time></trkpt><trkpt lat="45.52353185754583" lon="9.981265451361459"><ele>132.5</ele><time>2026-04-06T08:50:40.999Z</time></trkpt><trkpt lat="45.5235345691358" lon="9.981779004284215"><ele>132.0</ele><time>2026-04-06T08:50:41.999Z</time></trkpt><trkpt lat="45.52353799413354" lon="9.982295857598938"><ele>132.5</ele><time>2026-04-06T08:50:42.999Z</time></trkpt><trkpt lat="45.52354523064497" lon="9.982807610514396"><ele>133.0</ele><time>2026-04-06T08:50:43.999Z</time></trkpt><trkpt lat="45.523547897193644" lon="9.983324504943102"><ele>133.0</ele><time>2026-04-06T08:50:44.999Z</time></trkpt><trkpt lat="45.523547804836205" lon="9.983838443012228"><ele>133.0</ele><time>2026-04-06T08:50:45.999Z</time></trkpt><trkpt lat="45.52355036751128" lon="9.98434394293413"><ele>133.0</ele><time>2026-04-06T08:50:46.999Z</time></trkpt><trkpt lat="45.52355194551469" lon="9.984845362565137"><ele>133.0</ele><time>2026-04-06T08:50:47.999Z</time></trkpt><trkpt lat="45.523554056088166" lon="9.985350550655667"><ele>133.5</ele><time>2026-04-06T08:50:48.999Z</time></trkpt><trkpt lat="45.52355783914188" lon="9.985839508600959"><ele>134.0</ele><time>2026-04-06T08:50:49.999Z</time></trkpt><trkpt lat="45.523555945377076" lon="9.986368167779652"><ele>133.5</ele><time>2026-04-06T08:50:50.999Z</time></trkpt><trkpt lat="45.52355756301214" lon="9.986920390153893"><ele>133.0</ele><time>2026-04-06T08:50:51.999Z</time></trkpt><trkpt lat="45.52356255726662" lon="9.987499315139587"><ele>133.0</ele><time>2026-04-06T08:50:52.999Z</time></trkpt><trkpt lat="45.52357031311911" lon="9.988102667563517"><ele>133.0</ele><time>2026-04-06T08:50:53.999Z</time></trkpt><trkpt lat="45.523575230408404" lon="9.988714000354546"><ele>133.0</ele><time>2026-04-06T08:50:54.999Z</time></trkpt><trkpt lat="45.52357428421938" lon="9.98931083297614"><ele>133.0</ele><time>2026-04-06T08:50:55.999Z</time></trkpt><trkpt lat="45.52357136137207" lon="9.989870829180484"><ele>133.0</ele><time>2026-04-06T08:50:56.999Z</time></trkpt><trkpt lat="45.52356824844705" lon="9.990387621134662"><ele>133.0</ele><time>2026-04-06T08:50:57.999Z</time></trkpt><trkpt lat="45.52356673855294" lon="9.990869017607888"><ele>133.0</ele><time>2026-04-06T08:50:58.999Z</time></trkpt><trkpt lat="45.52356295570034" lon="9.991326554690081"><ele>133.0</ele><time>2026-04-06T08:50:59.999Z</time></trkpt><trkpt lat="45.5235574045331" lon="9.991756630738024"><ele>133.0</ele><time>2026-04-06T08:51:00.999Z</time></trkpt><trkpt lat="45.523548770304" lon="9.992182971116344"><ele>133.0</ele><time>2026-04-06T08:51:01.999Z</time></trkpt><trkpt lat="45.5235413815448" lon="9.992613293979847"><ele>133.5</ele><time>2026-04-06T08:51:02.999Z</time></trkpt><trkpt lat="45.523541385492365" lon="9.993047860749552"><ele>134.0</ele><time>2026-04-06T08:51:03.999Z</time></trkpt><trkpt lat="45.52354292749025" lon="9.99348817381375"><ele>134.0</ele><time>2026-04-06T08:51:04.999Z</time></trkpt><trkpt lat="45.52354228871869" lon="9.99393414213194"><ele>134.0</ele><time>2026-04-06T08:51:05.999Z</time></trkpt><trkpt lat="45.523541584540745" lon="9.994390740473962"><ele>133.5</ele><time>2026-04-06T08:51:06.999Z</time></trkpt><trkpt lat="45.523537451074795" lon="9.994842489214552"><ele>133.0</ele><time>2026-04-06T08:51:07.999Z</time></trkpt><trkpt lat="45.52353964353109" lon="9.995304039975183"><ele>133.0</ele><time>2026-04-06T08:51:08.999Z</time></trkpt><trkpt lat="45.523535444156586" lon="9.995766131526446"><ele>133.0</ele><time>2026-04-06T08:51:09.999Z</time></trkpt><trkpt lat="45.523531734944626" lon="9.996225949913814"><ele>134.0</ele><time>2026-04-06T08:51:10.999Z</time></trkpt><trkpt lat="45.52352751674155" lon="9.996685060410536"><ele>135.0</ele><time>2026-04-06T08:51:11.999Z</time></trkpt><trkpt lat="45.52352366370735" lon="9.997146113375077"><ele>134.0</ele><time>2026-04-06T08:51:12.999Z</time></trkpt><trkpt lat="45.52351931452036" lon="9.997601355428587"><ele>133.0</ele><time>2026-04-06T08:51:13.999Z</time></trkpt><trkpt lat="45.52351456596276" lon="9.998059337702612"><ele>133.5</ele><time>2026-04-06T08:51:14.999Z</time></trkpt><trkpt lat="45.52350918915929" lon="9.998521979477289"><ele>134.0</ele><time>2026-04-06T08:51:15.999Z</time></trkpt><trkpt lat="45.52350618380573" lon="9.998997790156231"><ele>134.0</ele><time>2026-04-06T08:51:16.999Z</time></trkpt><trkpt lat="45.523506380451316" lon="9.999490899531597"><ele>134.0</ele><time>2026-04-06T08:51:17.999Z</time></trkpt><trkpt lat="45.52350595556206" lon="9.999990416287947"><ele>134.0</ele><time>2026-04-06T08:51:18.999Z</time></trkpt><trkpt lat="45.52350605658715" lon="10.000510027683175"><ele>134.0</ele><time>2026-04-06T08:51:19.999Z</time></trkpt><trkpt lat="45.52350113945409" lon="10.00102496465648"><ele>134.0</ele><time>2026-04-06T08:51:20.999Z</time></trkpt><trkpt lat="45.523495289109526" lon="10.00154699080279"><ele>134.0</ele><time>2026-04-06T08:51:21.999Z</time></trkpt><trkpt lat="45.523491967274296" lon="10.002075965879634"><ele>133.5</ele><time>2026-04-06T08:51:22.999Z</time></trkpt><trkpt lat="45.5234934341498" lon="10.002601581710957"><ele>133.0</ele><time>2026-04-06T08:51:23.999Z</time></trkpt><trkpt lat="45.5234880923668" lon="10.003138915408295"><ele>133.0</ele><time>2026-04-06T08:51:24.999Z</time></trkpt><trkpt lat="45.523485764580045" lon="10.003662156361578"><ele>133.0</ele><time>2026-04-06T08:51:25.999Z</time></trkpt><trkpt lat="45.52348767753264" lon="10.004192604400252"><ele>134.0</ele><time>2026-04-06T08:51:26.999Z</time></trkpt><trkpt lat="45.523488250160156" lon="10.004725945610307"><ele>135.0</ele><time>2026-04-06T08:51:27.999Z</time></trkpt><trkpt lat="45.52348594655026" lon="10.005258949312497"><ele>135.0</ele><time>2026-04-06T08:51:28.999Z</time></trkpt><trkpt lat="45.523482735135154" lon="10.005789232229848"><ele>135.0</ele><time>2026-04-06T08:51:29.999Z</time></trkpt><trkpt lat="45.52347730721584" lon="10.006318900863784"><ele>133.5</ele><time>2026-04-06T08:51:30.999Z</time></trkpt><trkpt lat="45.523481179781726" lon="10.006847208397408"><ele>132.0</ele><time>2026-04-06T08:51:31.999Z</time></trkpt><trkpt lat="45.52347755235786" lon="10.007371596191163"><ele>132.0</ele><time>2026-04-06T08:51:32.999Z</time></trkpt><trkpt lat="45.523473566382165" lon="10.007892219354774"><ele>132.0</ele><time>2026-04-06T08:51:33.999Z</time></trkpt><trkpt lat="45.52346567763907" lon="10.008413423633886"><ele>132.0</ele><time>2026-04-06T08:51:34.999Z</time></trkpt><trkpt lat="45.5234599986786" lon="10.008937951934263"><ele>132.0</ele><time>2026-04-06T08:51:35.999Z</time></trkpt><trkpt lat="45.523457822630036" lon="10.009452980963268"><ele>133.0</ele><time>2026-04-06T08:51:36.999Z</time></trkpt><trkpt lat="45.5234536073996" lon="10.009969007467111"><ele>134.0</ele><time>2026-04-06T08:51:37.999Z</time></trkpt><trkpt lat="45.52345139946341" lon="10.010484655202374"><ele>134.5</ele><time>2026-04-06T08:51:38.999Z</time></trkpt><trkpt lat="45.52344918819694" lon="10.01100242282819"><ele>135.0</ele><time>2026-04-06T08:51:39.999Z</time></trkpt><trkpt lat="45.52345031767016" lon="10.011515677421347"><ele>135.0</ele><time>2026-04-06T08:51:40.999Z</time></trkpt><trkpt lat="45.523449111143215" lon="10.012034199262704"><ele>135.0</ele><time>2026-04-06T08:51:41.999Z</time></trkpt><trkpt lat="45.52344893390401" lon="10.012545160717965"><ele>135.0</ele><time>2026-04-06T08:51:42.999Z</time></trkpt><trkpt lat="45.523447745373645" lon="10.013059837066233"><ele>135.0</ele><time>2026-04-06T08:51:43.999Z</time></trkpt><trkpt lat="45.52344242046973" lon="10.013580968100635"><ele>134.5</ele><time>2026-04-06T08:51:44.999Z</time></trkpt><trkpt lat="45.52343581417593" lon="10.014127953517292"><ele>134.0</ele><time>2026-04-06T08:51:45.999Z</time></trkpt><trkpt lat="45.52343427516559" lon="10.014702876355907"><ele>134.0</ele><time>2026-04-06T08:51:46.999Z</time></trkpt><trkpt lat="45.523426678391395" lon="10.015286660174935"><ele>134.0</ele><time>2026-04-06T08:51:47.998Z</time></trkpt><trkpt lat="45.52340625373736" lon="10.015873246281423"><ele>134.0</ele><time>2026-04-06T08:51:48.998Z</time></trkpt><trkpt lat="45.52338519271682" lon="10.016467461329121"><ele>134.0</ele><time>2026-04-06T08:51:50Z</time></trkpt><trkpt lat="45.523371392410574" lon="10.017068975650238"><ele>133.5</ele><time>2026-04-06T08:51:51Z</time></trkpt><trkpt lat="45.52337215970734" lon="10.017671221935782"><ele>133.0</ele><time>2026-04-06T08:51:52Z</time></trkpt><trkpt lat="45.52338408706199" lon="10.018234419318597"><ele>133.0</ele><time>2026-04-06T08:51:53Z</time></trkpt><trkpt lat="45.523398405069685" lon="10.01875437869281"><ele>133.0</ele><time>2026-04-06T08:51:54Z</time></trkpt><trkpt lat="45.52341700733632" lon="10.019236721366596"><ele>133.0</ele><time>2026-04-06T08:51:55Z</time></trkpt><trkpt lat="45.5234364122278" lon="10.01970449261669"><ele>133.0</ele><time>2026-04-06T08:51:56Z</time></trkpt><trkpt lat="45.52345614901474" lon="10.020155592010676"><ele>133.0</ele><time>2026-04-06T08:51:57Z</time></trkpt><trkpt lat="45.52348113503628" lon="10.0206035701775"><ele>133.0</ele><time>2026-04-06T08:51:58Z</time></trkpt><trkpt lat="45.523514301597096" lon="10.021046915220293"><ele>133.0</ele><time>2026-04-06T08:51:59Z</time></trkpt><trkpt lat="45.523551625382815" lon="10.021488194532774"><ele>133.0</ele><time>2026-04-06T08:52:00Z</time></trkpt><trkpt lat="45.523591995636515" lon="10.021926318091825"><ele>133.0</ele><time>2026-04-06T08:52:01Z</time></trkpt><trkpt lat="45.52363165322762" lon="10.022365825030425"><ele>133.0</ele><time>2026-04-06T08:52:02Z</time></trkpt><trkpt lat="45.52367453914957" lon="10.022803309942654"><ele>133.0</ele><time>2026-04-06T08:52:03Z</time></trkpt><trkpt lat="45.52372089351472" lon="10.023235466645168"><ele>133.0</ele><time>2026-04-06T08:52:04Z</time></trkpt><trkpt lat="45.52377091006754" lon="10.023661467608008"><ele>133.0</ele><time>2026-04-06T08:52:05Z</time></trkpt><trkpt lat="45.523821603228235" lon="10.024088303916935"><ele>133.0</ele><time>2026-04-06T08:52:06Z</time></trkpt><trkpt lat="45.523876907281604" lon="10.024515713230066"><ele>133.5</ele><time>2026-04-06T08:52:07Z</time></trkpt><trkpt lat="45.52393870588441" lon="10.024943437739942"><ele>134.0</ele><time>2026-04-06T08:52:08Z</time></trkpt><trkpt lat="45.52400476900778" lon="10.025365775012014"><ele>134.0</ele><time>2026-04-06T08:52:09Z</time></trkpt><trkpt lat="45.52407040219609" lon="10.025784329126871"><ele>134.0</ele><time>2026-04-06T08:52:10Z</time></trkpt><trkpt lat="45.52414064331817" lon="10.026204711829902"><ele>134.0</ele><time>2026-04-06T08:52:11Z</time></trkpt><trkpt lat="45.52421452162218" lon="10.026626216646394"><ele>134.0</ele><time>2026-04-06T08:52:12Z</time></trkpt><trkpt lat="45.524292674595166" lon="10.027044223692032"><ele>134.0</ele><time>2026-04-06T08:52:13Z</time></trkpt><trkpt lat="45.52437380233867" lon="10.02746116209117"><ele>134.0</ele><time>2026-04-06T08:52:14Z</time></trkpt><trkpt lat="45.52445565643943" lon="10.027868844749461"><ele>134.0</ele><time>2026-04-06T08:52:15Z</time></trkpt><trkpt lat="45.524541869067185" lon="10.028276792999938"><ele>134.0</ele><time>2026-04-06T08:52:16Z</time></trkpt><trkpt lat="45.524636823781535" lon="10.028685498947471"><ele>134.0</ele><time>2026-04-06T08:52:17Z</time></trkpt><trkpt lat="45.52473604660957" lon="10.02909504715062"><ele>134.0</ele><time>2026-04-06T08:52:18Z</time></trkpt><trkpt lat="45.524840935999784" lon="10.029508682812285"><ele>134.0</ele><time>2026-04-06T08:52:19Z</time></trkpt><trkpt lat="45.52494357996009" lon="10.029919383817855"><ele>134.0</ele><time>2026-04-06T08:52:20Z</time></trkpt><trkpt lat="45.52504519953191" lon="10.030335804378977"><ele>133.5</ele><time>2026-04-06T08:52:21Z</time></trkpt><trkpt lat="45.52515139415652" lon="10.03075266023689"><ele>133.0</ele><time>2026-04-06T08:52:22Z</time></trkpt><trkpt lat="45.525257647260844" lon="10.031173795965309"><ele>133.0</ele><time>2026-04-06T08:52:23Z</time></trkpt><trkpt lat="45.52536469743195" lon="10.031592754098623"><ele>133.0</ele><time>2026-04-06T08:52:24Z</time></trkpt><trkpt lat="45.52547184549678" lon="10.032008506257538"><ele>133.0</ele><time>2026-04-06T08:52:25Z</time></trkpt><trkpt lat="45.525581924766854" lon="10.032427345769594"><ele>133.0</ele><time>2026-04-06T08:52:26Z</time></trkpt><trkpt lat="45.5256921273026" lon="10.032842848564396"><ele>133.5</ele><time>2026-04-06T08:52:27Z</time></trkpt><trkpt lat="45.525801856209334" lon="10.033255614951614"><ele>134.0</ele><time>2026-04-06T08:52:28Z</time></trkpt><trkpt lat="45.52591048563469" lon="10.033668004391282"><ele>134.0</ele><time>2026-04-06T08:52:29Z</time></trkpt><trkpt lat="45.52601569727047" lon="10.034084875394536"><ele>134.0</ele><time>2026-04-06T08:52:30Z</time></trkpt><trkpt lat="45.52612041117246" lon="10.034493011006976"><ele>134.0</ele><time>2026-04-06T08:52:31Z</time></trkpt><trkpt lat="45.52622576704262" lon="10.034897675891203"><ele>134.0</ele><time>2026-04-06T08:52:32Z</time></trkpt><trkpt lat="45.52633254508883" lon="10.035300195385442"><ele>134.5</ele><time>2026-04-06T08:52:33Z</time></trkpt><trkpt lat="45.52643940756388" lon="10.03570056549024"><ele>135.0</ele><time>2026-04-06T08:52:34Z</time></trkpt><trkpt lat="45.526543551957104" lon="10.036101055367318"><ele>135.5</ele><time>2026-04-06T08:52:35Z</time></trkpt><trkpt lat="45.526647292974346" lon="10.036505303058734"><ele>136.0</ele><time>2026-04-06T08:52:36Z</time></trkpt><trkpt lat="45.52675185936826" lon="10.036907909366363"><ele>136.5</ele><time>2026-04-06T08:52:36.999Z</time></trkpt><trkpt lat="45.5268580882723" lon="10.037319089019222"><ele>137.0</ele><time>2026-04-06T08:52:37.999Z</time></trkpt><trkpt lat="45.52696529569505" lon="10.037724990421713"><ele>136.5</ele><time>2026-04-06T08:52:38.999Z</time></trkpt><trkpt lat="45.527071314741" lon="10.038134419111884"><ele>136.0</ele><time>2026-04-06T08:52:39.999Z</time></trkpt><trkpt lat="45.52718163386351" lon="10.03854577928397"><ele>136.0</ele><time>2026-04-06T08:52:40.999Z</time></trkpt><trkpt lat="45.5272919527674" lon="10.03895681481362"><ele>136.0</ele><time>2026-04-06T08:52:41.999Z</time></trkpt><trkpt lat="45.52739975015932" lon="10.039374164327091"><ele>136.0</ele><time>2026-04-06T08:52:42.999Z</time></trkpt><trkpt lat="45.52750775779506" lon="10.039795728200998"><ele>136.0</ele><time>2026-04-06T08:52:43.999Z</time></trkpt><trkpt lat="45.52761362685972" lon="10.040210613533699"><ele>136.0</ele><time>2026-04-06T08:52:44.999Z</time></trkpt><trkpt lat="45.527717969519344" lon="10.040626599279431"><ele>136.0</ele><time>2026-04-06T08:52:45.999Z</time></trkpt><trkpt lat="45.52782553111863" lon="10.041032210519859"><ele>136.0</ele><time>2026-04-06T08:52:46.999Z</time></trkpt><trkpt lat="45.52793699659493" lon="10.041428761052648"><ele>136.0</ele><time>2026-04-06T08:52:47.999Z</time></trkpt><trkpt lat="45.52805165788878" lon="10.041828077053589"><ele>136.0</ele><time>2026-04-06T08:52:48.999Z</time></trkpt><trkpt lat="45.528169664331024" lon="10.042240040591617"><ele>136.0</ele><time>2026-04-06T08:52:49.999Z</time></trkpt><trkpt lat="45.52828648026853" lon="10.04266431090422"><ele>135.5</ele><time>2026-04-06T08:52:50.999Z</time></trkpt><trkpt lat="45.52840687530036" lon="10.043096112525337"><ele>135.0</ele><time>2026-04-06T08:52:51.999Z</time></trkpt><trkpt lat="45.5285223751092" lon="10.043530959209988"><ele>135.0</ele><time>2026-04-06T08:52:52.999Z</time></trkpt><trkpt lat="45.5286396405833" lon="10.043972344195035"><ele>135.0</ele><time>2026-04-06T08:52:53.999Z</time></trkpt><trkpt lat="45.52875423200682" lon="10.044414119711302"><ele>135.5</ele><time>2026-04-06T08:52:54.999Z</time></trkpt><trkpt lat="45.52886480916081" lon="10.044852793661814"><ele>136.0</ele><time>2026-04-06T08:52:55.999Z</time></trkpt><trkpt lat="45.52897762434552" lon="10.045288169468492"><ele>136.0</ele><time>2026-04-06T08:52:56.999Z</time></trkpt><trkpt lat="45.529091984274174" lon="10.045720007225636"><ele>136.0</ele><time>2026-04-06T08:52:57.999Z</time></trkpt><trkpt lat="45.52920709107502" lon="10.046148928914882"><ele>136.0</ele><time>2026-04-06T08:52:58.999Z</time></trkpt><trkpt lat="45.52931616318086" lon="10.046587549017728"><ele>136.0</ele><time>2026-04-06T08:52:59.999Z</time></trkpt><trkpt lat="45.529420726999305" lon="10.047033696506698"><ele>135.5</ele><time>2026-04-06T08:53:00.999Z</time></trkpt><trkpt lat="45.52952444353" lon="10.047473746131603"><ele>135.0</ele><time>2026-04-06T08:53:01.999Z</time></trkpt><trkpt lat="45.529640912199675" lon="10.047901776850892"><ele>135.5</ele><time>2026-04-06T08:53:02.999Z</time></trkpt><trkpt lat="45.52975640125349" lon="10.048331774183803"><ele>136.0</ele><time>2026-04-06T08:53:03.999Z</time></trkpt><trkpt lat="45.52986949606493" lon="10.04875689405037"><ele>136.0</ele><time>2026-04-06T08:53:04.999Z</time></trkpt><trkpt lat="45.529979551805184" lon="10.049181552926704"><ele>136.0</ele><time>2026-04-06T08:53:05.999Z</time></trkpt><trkpt lat="45.5300922708766" lon="10.049611090716661"><ele>137.0</ele><time>2026-04-06T08:53:06.999Z</time></trkpt><trkpt lat="45.530203046328275" lon="10.050035627835486"><ele>138.0</ele><time>2026-04-06T08:53:07.999Z</time></trkpt><trkpt lat="45.530314323417144" lon="10.05045193601292"><ele>137.5</ele><time>2026-04-06T08:53:08.999Z</time></trkpt><trkpt lat="45.53042674827679" lon="10.050875738598112"><ele>137.0</ele><time>2026-04-06T08:53:09.999Z</time></trkpt><trkpt lat="45.5305431484776" lon="10.051302602614845"><ele>137.0</ele><time>2026-04-06T08:53:10.999Z</time></trkpt><trkpt lat="45.53066101146062" lon="10.05173353328455"><ele>137.0</ele><time>2026-04-06T08:53:11.999Z</time></trkpt><trkpt lat="45.53077936448999" lon="10.052170043483667"><ele>137.0</ele><time>2026-04-06T08:53:12.999Z</time></trkpt><trkpt lat="45.530901689196476" lon="10.052606908835415"><ele>137.0</ele><time>2026-04-06T08:53:13.999Z</time></trkpt><trkpt lat="45.53102145168835" lon="10.05303324492235"><ele>137.0</ele><time>2026-04-06T08:53:14.999Z</time></trkpt><trkpt lat="45.53114269524249" lon="10.05346664564585"><ele>137.0</ele><time>2026-04-06T08:53:15.999Z</time></trkpt><trkpt lat="45.53125982153432" lon="10.053892027549763"><ele>137.0</ele><time>2026-04-06T08:53:16.999Z</time></trkpt><trkpt lat="45.53136945476729" lon="10.054296033046972"><ele>137.0</ele><time>2026-04-06T08:53:17.999Z</time></trkpt><trkpt lat="45.53147108568464" lon="10.054675482362406"><ele>137.0</ele><time>2026-04-06T08:53:18.999Z</time></trkpt><trkpt lat="45.531573361080305" lon="10.055047477620374"><ele>137.0</ele><time>2026-04-06T08:53:19.999Z</time></trkpt><trkpt lat="45.531682010133935" lon="10.055436542216492"><ele>137.5</ele><time>2026-04-06T08:53:20.999Z</time></trkpt><trkpt lat="45.5318064496904" lon="10.0558234841935"><ele>138.0</ele><time>2026-04-06T08:53:21.999Z</time></trkpt><trkpt lat="45.53191633299798" lon="10.056167200977292"><ele>138.0</ele><time>2026-04-06T08:53:22.999Z</time></trkpt><trkpt lat="45.53203825417302" lon="10.056534894081846"><ele>138.0</ele><time>2026-04-06T08:53:23.999Z</time></trkpt><trkpt lat="45.532170687887756" lon="10.056922973973073"><ele>138.0</ele><time>2026-04-06T08:53:24.999Z</time></trkpt><trkpt lat="45.53230507269023" lon="10.057310841383408"><ele>138.0</ele><time>2026-04-06T08:53:25.999Z</time></trkpt><trkpt lat="45.53243912334012" lon="10.057696409138217"><ele>138.5</ele><time>2026-04-06T08:53:26.999Z</time></trkpt><trkpt lat="45.53257501416015" lon="10.058072097668932"><ele>139.0</ele><time>2026-04-06T08:53:27.999Z</time></trkpt><trkpt lat="45.532714156683426" lon="10.05844105043934"><ele>139.0</ele><time>2026-04-06T08:53:28.999Z</time></trkpt><trkpt lat="45.532856708790646" lon="10.058810073045201"><ele>139.0</ele><time>2026-04-06T08:53:29.999Z</time></trkpt><trkpt lat="45.53300718813235" lon="10.059174592763691"><ele>138.5</ele><time>2026-04-06T08:53:30.999Z</time></trkpt><trkpt lat="45.53315087822136" lon="10.059527002783712"><ele>138.0</ele><time>2026-04-06T08:53:31.999Z</time></trkpt><trkpt lat="45.533295417259815" lon="10.059888320371789"><ele>138.5</ele><time>2026-04-06T08:53:32.999Z</time></trkpt><trkpt lat="45.53343630717948" lon="10.060247411485955"><ele>139.0</ele><time>2026-04-06T08:53:33.999Z</time></trkpt><trkpt lat="45.5335780320549" lon="10.060604495708718"><ele>139.0</ele><time>2026-04-06T08:53:34.999Z</time></trkpt><trkpt lat="45.53371944574877" lon="10.06095426855157"><ele>139.0</ele><time>2026-04-06T08:53:35.999Z</time></trkpt><trkpt lat="45.53386042343817" lon="10.06129908741186"><ele>138.0</ele><time>2026-04-06T08:53:36.999Z</time></trkpt><trkpt lat="45.53399969789755" lon="10.061643597795813"><ele>137.0</ele><time>2026-04-06T08:53:37.999Z</time></trkpt><trkpt lat="45.53413727553215" lon="10.061985894887128"><ele>137.0</ele><time>2026-04-06T08:53:38.999Z</time></trkpt><trkpt lat="45.53427636831485" lon="10.062324170242277"><ele>137.0</ele><time>2026-04-06T08:53:39.999Z</time></trkpt><trkpt lat="45.5344149663719" lon="10.06265415156552"><ele>137.5</ele><time>2026-04-06T08:53:40.999Z</time></trkpt><trkpt lat="45.53454148163471" lon="10.062976041710106"><ele>138.0</ele><time>2026-04-06T08:53:41.999Z</time></trkpt><trkpt lat="45.5346600255479" lon="10.063299291572438"><ele>138.0</ele><time>2026-04-06T08:53:42.999Z</time></trkpt><trkpt lat="45.53477713962138" lon="10.063620628781269"><ele>138.0</ele><time>2026-04-06T08:53:43.999Z</time></trkpt><trkpt lat="45.534900909749005" lon="10.063951814665847"><ele>137.0</ele><time>2026-04-06T08:53:45.022Z</time></trkpt><trkpt lat="45.53501737734489" lon="10.064264424985367"><ele>136.0</ele><time>2026-04-06T08:53:46.026Z</time></trkpt><trkpt lat="45.535138612130055" lon="10.064582948913037"><ele>136.0</ele><time>2026-04-06T08:53:47.022Z</time></trkpt><trkpt lat="45.53526191350264" lon="10.064901186901656"><ele>136.0</ele><time>2026-04-06T08:53:48.025Z</time></trkpt><trkpt lat="45.535619823860095" lon="10.065939468257447"><ele>137.0</ele><time>2026-04-06T08:53:50.999Z</time></trkpt><trkpt lat="45.535768193886796" lon="10.06638032180191"><ele>138.0</ele><time>2026-04-06T08:53:51.999Z</time></trkpt><trkpt lat="45.535891262815504" lon="10.066757075657765"><ele>138.0</ele><time>2026-04-06T08:53:52.999Z</time></trkpt><trkpt lat="45.53600691663817" lon="10.067139748025452"><ele>138.0</ele><time>2026-04-06T08:53:53.999Z</time></trkpt><trkpt lat="45.536120761378555" lon="10.067525952529564"><ele>138.0</ele><time>2026-04-06T08:53:54.999Z</time></trkpt><trkpt lat="45.53622919771812" lon="10.067917117471826"><ele>138.0</ele><time>2026-04-06T08:53:55.999Z</time></trkpt><trkpt lat="45.5363376414558" lon="10.068317257950435"><ele>138.0</ele><time>2026-04-06T08:53:57Z</time></trkpt><trkpt lat="45.5364392755495" lon="10.06871892529607"><ele>138.0</ele><time>2026-04-06T08:53:58Z</time></trkpt><trkpt lat="45.53654137879268" lon="10.069124671903923"><ele>138.0</ele><time>2026-04-06T08:53:59Z</time></trkpt><trkpt lat="45.53664094819849" lon="10.069529927515694"><ele>138.0</ele><time>2026-04-06T08:54:00Z</time></trkpt><trkpt lat="45.53673930713072" lon="10.069941499302875"><ele>138.0</ele><time>2026-04-06T08:54:01Z</time></trkpt><trkpt lat="45.536834562799285" lon="10.070357693321059"><ele>138.0</ele><time>2026-04-06T08:54:02Z</time></trkpt><trkpt lat="45.53692475799749" lon="10.070772728591878"><ele>138.0</ele><time>2026-04-06T08:54:03Z</time></trkpt><trkpt lat="45.53701242900445" lon="10.071186810066983"><ele>138.0</ele><time>2026-04-06T08:54:04Z</time></trkpt><trkpt lat="45.5370972351802" lon="10.071612910423882"><ele>138.0</ele><time>2026-04-06T08:54:05Z</time></trkpt><trkpt lat="45.537172978390096" lon="10.072037878144268"><ele>138.0</ele><time>2026-04-06T08:54:06Z</time></trkpt><trkpt lat="45.53724404816919" lon="10.072463664626488"><ele>138.0</ele><time>2026-04-06T08:54:07Z</time></trkpt><trkpt lat="45.537315979855364" lon="10.072894579732736"><ele>138.0</ele><time>2026-04-06T08:54:08Z</time></trkpt><trkpt lat="45.53738210265112" lon="10.073323308751236"><ele>137.5</ele><time>2026-04-06T08:54:09Z</time></trkpt><trkpt lat="45.53744612358115" lon="10.073750584497375"><ele>137.0</ele><time>2026-04-06T08:54:10Z</time></trkpt><trkpt lat="45.53750533653019" lon="10.074181686485202"><ele>137.0</ele><time>2026-04-06T08:54:11Z</time></trkpt><trkpt lat="45.53756299790096" lon="10.074614259627282"><ele>137.0</ele><time>2026-04-06T08:54:12Z</time></trkpt><trkpt lat="45.537616483477656" lon="10.07504774021975"><ele>137.0</ele><time>2026-04-06T08:54:13Z</time></trkpt><trkpt lat="45.53766890389951" lon="10.075475659811785"><ele>137.0</ele><time>2026-04-06T08:54:14Z</time></trkpt><trkpt lat="45.53771910612964" lon="10.075905250471425"><ele>137.0</ele><time>2026-04-06T08:54:15Z</time></trkpt><trkpt lat="45.53776331600274" lon="10.076335038348546"><ele>137.0</ele><time>2026-04-06T08:54:16Z</time></trkpt><trkpt lat="45.53782072110454" lon="10.076767301424635"><ele>137.0</ele><time>2026-04-06T08:54:17Z</time></trkpt><trkpt lat="45.53786973052709" lon="10.077196636691102"><ele>137.0</ele><time>2026-04-06T08:54:18Z</time></trkpt><trkpt lat="45.53791992193273" lon="10.077620207696091"><ele>137.0</ele><time>2026-04-06T08:54:19Z</time></trkpt><trkpt lat="45.53796899514525" lon="10.07803223583183"><ele>137.0</ele><time>2026-04-06T08:54:20Z</time></trkpt><trkpt lat="45.53801814392609" lon="10.07845339864992"><ele>137.0</ele><time>2026-04-06T08:54:21Z</time></trkpt><trkpt lat="45.53807337550625" lon="10.078878109381114"><ele>137.0</ele><time>2026-04-06T08:54:22Z</time></trkpt><trkpt lat="45.53812387717799" lon="10.07929353881355"><ele>137.0</ele><time>2026-04-06T08:54:23Z</time></trkpt><trkpt lat="45.53817556132283" lon="10.079721050060643"><ele>137.0</ele><time>2026-04-06T08:54:24Z</time></trkpt><trkpt lat="45.538225181561664" lon="10.08014560836716"><ele>137.0</ele><time>2026-04-06T08:54:25Z</time></trkpt><trkpt lat="45.53827399176387" lon="10.080565572656011"><ele>137.0</ele><time>2026-04-06T08:54:26Z</time></trkpt><trkpt lat="45.53832705806425" lon="10.080981167732993"><ele>136.5</ele><time>2026-04-06T08:54:27Z</time></trkpt><trkpt lat="45.538380926690024" lon="10.08138752818782"><ele>136.0</ele><time>2026-04-06T08:54:28Z</time></trkpt><trkpt lat="45.53843338235443" lon="10.08179210075205"><ele>136.0</ele><time>2026-04-06T08:54:29Z</time></trkpt><trkpt lat="45.538482131552115" lon="10.082188955173534"><ele>136.0</ele><time>2026-04-06T08:54:30Z</time></trkpt><trkpt lat="45.53852812728941" lon="10.082579010346757"><ele>136.0</ele><time>2026-04-06T08:54:31Z</time></trkpt><trkpt lat="45.53857708380253" lon="10.08296951023733"><ele>136.0</ele><time>2026-04-06T08:54:32Z</time></trkpt><trkpt lat="45.538628451975825" lon="10.083353504276669"><ele>136.5</ele><time>2026-04-06T08:54:33Z</time></trkpt><trkpt lat="45.5386792320315" lon="10.08374211386285"><ele>137.0</ele><time>2026-04-06T08:54:34Z</time></trkpt><trkpt lat="45.53872649274139" lon="10.084131443955766"><ele>137.0</ele><time>2026-04-06T08:54:35Z</time></trkpt><trkpt lat="45.53877252345467" lon="10.08452515267834"><ele>137.0</ele><time>2026-04-06T08:54:36Z</time></trkpt><trkpt lat="45.53882154181947" lon="10.084920856074893"><ele>136.0</ele><time>2026-04-06T08:54:37Z</time></trkpt><trkpt lat="45.53887202634445" lon="10.085326303597586"><ele>135.0</ele><time>2026-04-06T08:54:38Z</time></trkpt><trkpt lat="45.53892190378558" lon="10.085740034211216"><ele>134.5</ele><time>2026-04-06T08:54:39Z</time></trkpt><trkpt lat="45.53897159963787" lon="10.086163655474717"><ele>134.0</ele><time>2026-04-06T08:54:40Z</time></trkpt><trkpt lat="45.53902232101437" lon="10.086588795607506"><ele>134.0</ele><time>2026-04-06T08:54:41Z</time></trkpt><trkpt lat="45.53907240037939" lon="10.087016968882756"><ele>134.0</ele><time>2026-04-06T08:54:42Z</time></trkpt><trkpt lat="45.539123712411005" lon="10.087452945023038"><ele>134.0</ele><time>2026-04-06T08:54:43Z</time></trkpt><trkpt lat="45.539177397761215" lon="10.087894335397198"><ele>134.0</ele><time>2026-04-06T08:54:44Z</time></trkpt><trkpt lat="45.53923089316444" lon="10.088337094274207"><ele>134.0</ele><time>2026-04-06T08:54:45Z</time></trkpt><trkpt lat="45.5392836983872" lon="10.088782635144973"><ele>134.0</ele><time>2026-04-06T08:54:46Z</time></trkpt><trkpt lat="45.539335773637966" lon="10.089228307716253"><ele>132.5</ele><time>2026-04-06T08:54:47Z</time></trkpt><trkpt lat="45.539387854662984" lon="10.089672064416366"><ele>131.0</ele><time>2026-04-06T08:54:48Z</time></trkpt><trkpt lat="45.539440320262344" lon="10.090107765564143"><ele>131.0</ele><time>2026-04-06T08:54:49Z</time></trkpt><trkpt lat="45.539494309081526" lon="10.090545777362108"><ele>131.0</ele><time>2026-04-06T08:54:50Z</time></trkpt><trkpt lat="45.53954716819999" lon="10.090979132995567"><ele>132.5</ele><time>2026-04-06T08:54:50.999Z</time></trkpt><trkpt lat="45.539597608692105" lon="10.091411975161625"><ele>134.0</ele><time>2026-04-06T08:54:51.999Z</time></trkpt><trkpt lat="45.53964958325557" lon="10.091836350954729"><ele>134.0</ele><time>2026-04-06T08:54:52.999Z</time></trkpt><trkpt lat="45.53970142216157" lon="10.092261817174679"><ele>134.0</ele><time>2026-04-06T08:54:53.999Z</time></trkpt><trkpt lat="45.53975406236727" lon="10.09268853154591"><ele>133.0</ele><time>2026-04-06T08:54:54.999Z</time></trkpt><trkpt lat="45.53980725111497" lon="10.093116389582715"><ele>132.0</ele><time>2026-04-06T08:54:55.999Z</time></trkpt><trkpt lat="45.539858703171944" lon="10.093547580769537"><ele>132.0</ele><time>2026-04-06T08:54:56.999Z</time></trkpt><trkpt lat="45.539910320636004" lon="10.09397574657618"><ele>132.0</ele><time>2026-04-06T08:54:57.999Z</time></trkpt><trkpt lat="45.53996041749892" lon="10.094409826211882"><ele>132.0</ele><time>2026-04-06T08:54:58.999Z</time></trkpt><trkpt lat="45.540012606185954" lon="10.094859235679193"><ele>132.0</ele><time>2026-04-06T08:54:59.999Z</time></trkpt><trkpt lat="45.54006914209623" lon="10.095312351691465"><ele>132.5</ele><time>2026-04-06T08:55:00.999Z</time></trkpt><trkpt lat="45.54012522731226" lon="10.09576673099388"><ele>133.0</ele><time>2026-04-06T08:55:01.999Z</time></trkpt><trkpt lat="45.54017980826881" lon="10.09622117707569"><ele>133.5</ele><time>2026-04-06T08:55:02.999Z</time></trkpt><trkpt lat="45.54023326812138" lon="10.096680191160996"><ele>134.0</ele><time>2026-04-06T08:55:03.999Z</time></trkpt><trkpt lat="45.54028675756465" lon="10.097138588673333"><ele>134.0</ele><time>2026-04-06T08:55:04.999Z</time></trkpt><trkpt lat="45.54033828238034" lon="10.097590362452092"><ele>134.0</ele><time>2026-04-06T08:55:05.999Z</time></trkpt><trkpt lat="45.540394160060664" lon="10.098044819561425"><ele>133.0</ele><time>2026-04-06T08:55:06.999Z</time></trkpt><trkpt lat="45.54044707125739" lon="10.09850353244449"><ele>132.0</ele><time>2026-04-06T08:55:07.999Z</time></trkpt><trkpt lat="45.54050413073501" lon="10.098963546883503"><ele>132.0</ele><time>2026-04-06T08:55:08.999Z</time></trkpt><trkpt lat="45.54056279941961" lon="10.099417660380121"><ele>132.0</ele><time>2026-04-06T08:55:09.999Z</time></trkpt><trkpt lat="45.540622484516504" lon="10.09987762163342"><ele>131.5</ele><time>2026-04-06T08:55:10.999Z</time></trkpt><trkpt lat="45.5406858299241" lon="10.100339743618079"><ele>131.0</ele><time>2026-04-06T08:55:11.999Z</time></trkpt><trkpt lat="45.54075175437172" lon="10.100800439157968"><ele>130.0</ele><time>2026-04-06T08:55:12.999Z</time></trkpt><trkpt lat="45.5408204461882" lon="10.101250371781429"><ele>129.0</ele><time>2026-04-06T08:55:13.999Z</time></trkpt><trkpt lat="45.54089404844226" lon="10.101702808819383"><ele>128.5</ele><time>2026-04-06T08:55:14.999Z</time></trkpt><trkpt lat="45.540970081689565" lon="10.10215664805141"><ele>128.0</ele><time>2026-04-06T08:55:15.999Z</time></trkpt><trkpt lat="45.54105533229378" lon="10.102603509755772"><ele>129.0</ele><time>2026-04-06T08:55:16.999Z</time></trkpt><trkpt lat="45.54114551092762" lon="10.103049441970478"><ele>130.0</ele><time>2026-04-06T08:55:17.999Z</time></trkpt><trkpt lat="45.54124028326712" lon="10.103496201291412"><ele>130.5</ele><time>2026-04-06T08:55:18.999Z</time></trkpt><trkpt lat="45.54133698127003" lon="10.103934164175504"><ele>131.0</ele><time>2026-04-06T08:55:19.999Z</time></trkpt><trkpt lat="45.54144151448975" lon="10.10436324690494"><ele>131.0</ele><time>2026-04-06T08:55:20.999Z</time></trkpt><trkpt lat="45.541550765080146" lon="10.10479837019174"><ele>131.0</ele><time>2026-04-06T08:55:21.999Z</time></trkpt><trkpt lat="45.5416634112871" lon="10.105229427364387"><ele>131.0</ele><time>2026-04-06T08:55:22.999Z</time></trkpt><trkpt lat="45.541782471635806" lon="10.105658851135614"><ele>131.0</ele><time>2026-04-06T08:55:23.999Z</time></trkpt><trkpt lat="45.5419087608071" lon="10.106089643727412"><ele>131.0</ele><time>2026-04-06T08:55:24.999Z</time></trkpt><trkpt lat="45.54203667824175" lon="10.106509877158652"><ele>131.0</ele><time>2026-04-06T08:55:25.999Z</time></trkpt><trkpt lat="45.54216592751455" lon="10.106934516931267"><ele>131.0</ele><time>2026-04-06T08:55:26.999Z</time></trkpt><trkpt lat="45.54229878173653" lon="10.10736097150742"><ele>131.0</ele><time>2026-04-06T08:55:27.999Z</time></trkpt><trkpt lat="45.542440748802555" lon="10.107775942385024"><ele>130.5</ele><time>2026-04-06T08:55:28.999Z</time></trkpt><trkpt lat="45.542585390855535" lon="10.108189646517316"><ele>130.0</ele><time>2026-04-06T08:55:29.999Z</time></trkpt><trkpt lat="45.54273403393546" lon="10.108602561141518"><ele>129.0</ele><time>2026-04-06T08:55:30.999Z</time></trkpt><trkpt lat="45.5428880001385" lon="10.10900374017011"><ele>128.0</ele><time>2026-04-06T08:55:31.999Z</time></trkpt><trkpt lat="45.5430440873718" lon="10.10941029705122"><ele>128.0</ele><time>2026-04-06T08:55:32.999Z</time></trkpt><trkpt lat="45.5432095244471" lon="10.109827205952792"><ele>128.0</ele><time>2026-04-06T08:55:33.999Z</time></trkpt><trkpt lat="45.5433758897002" lon="10.110228673121057"><ele>128.5</ele><time>2026-04-06T08:55:34.999Z</time></trkpt><trkpt lat="45.54354537926285" lon="10.110621635183875"><ele>129.0</ele><time>2026-04-06T08:55:35.999Z</time></trkpt><trkpt lat="45.54371302755012" lon="10.110998377336365"><ele>129.0</ele><time>2026-04-06T08:55:36.999Z</time></trkpt><trkpt lat="45.5438735069635" lon="10.111354970606662"><ele>129.0</ele><time>2026-04-06T08:55:37.999Z</time></trkpt><trkpt lat="45.544020903522096" lon="10.111686202485346"><ele>129.0</ele><time>2026-04-06T08:55:38.999Z</time></trkpt><trkpt lat="45.54416144405362" lon="10.111998508333846"><ele>129.0</ele><time>2026-04-06T08:55:39.999Z</time></trkpt><trkpt lat="45.54429005715764" lon="10.112293226891545"><ele>129.0</ele><time>2026-04-06T08:55:40.999Z</time></trkpt><trkpt lat="45.54440167130536" lon="10.112575057472082"><ele>129.0</ele><time>2026-04-06T08:55:41.999Z</time></trkpt><trkpt lat="45.54448680617333" lon="10.112852411320391"><ele>129.0</ele><time>2026-04-06T08:55:42.999Z</time></trkpt><trkpt lat="45.54454851022018" lon="10.113127423647082"><ele>128.33333333333334</ele><time>2026-04-06T08:55:43.999Z</time></trkpt><trkpt lat="45.544609315603424" lon="10.113378919727714"><ele>127.66666666666667</ele><time>2026-04-06T08:55:44.999Z</time></trkpt><trkpt lat="45.54469001313013" lon="10.113580456350183"><ele>127.0</ele><time>2026-04-06T08:55:45.999Z</time></trkpt><trkpt lat="45.54477885363377" lon="10.113748480509761"><ele>127.0</ele><time>2026-04-06T08:55:46.999Z</time></trkpt><trkpt lat="45.54486080902464" lon="10.113896928416187"><ele>126.99999999999999</ele><time>2026-04-06T08:55:47.999Z</time></trkpt><trkpt lat="45.544928542032764" lon="10.114022257371733"><ele>126.99999999999999</ele><time>2026-04-06T08:55:48.999Z</time></trkpt><trkpt lat="45.54498934545973" lon="10.11414265986671"><ele>127.0</ele><time>2026-04-06T08:55:49.999Z</time></trkpt><trkpt lat="45.54504029696095" lon="10.114257819190618"><ele>127.0</ele><time>2026-04-06T08:55:50.999Z</time></trkpt><trkpt lat="45.545081822096144" lon="10.114359312751182"><ele>127.00000000000001</ele><time>2026-04-06T08:55:51.999Z</time></trkpt><trkpt lat="45.54513827723579" lon="10.114487656101739"><ele>127.0</ele><time>2026-04-06T08:55:53.999Z</time></trkpt><trkpt lat="45.545177816640006" lon="10.11457950573965"><ele>127.0</ele><time>2026-04-06T08:55:55.999Z</time></trkpt><trkpt lat="45.545209340301895" lon="10.114685706121426"><ele>127.0</ele><time>2026-04-06T08:56:29Z</time></trkpt><trkpt lat="45.545253341544026" lon="10.114816222416055"><ele>127.00000000000001</ele><time>2026-04-06T08:56:31Z</time></trkpt><trkpt lat="45.545295456129345" lon="10.11490793624841"><ele>127.0</ele><time>2026-04-06T08:56:32Z</time></trkpt><trkpt lat="45.545360735079804" lon="10.115056398463365"><ele>127.0</ele><time>2026-04-06T08:56:33Z</time></trkpt><trkpt lat="45.54544940617487" lon="10.11525572893498"><ele>127.0</ele><time>2026-04-06T08:56:34Z</time></trkpt><trkpt lat="45.54557601259298" lon="10.115533415204453"><ele>127.0</ele><time>2026-04-06T08:56:35Z</time></trkpt><trkpt lat="45.545711365823045" lon="10.115837941005779"><ele>127.33333333333334</ele><time>2026-04-06T08:56:36Z</time></trkpt><trkpt lat="45.54582657318747" lon="10.116107170957427"><ele>127.66666666666666</ele><time>2026-04-06T08:56:37Z</time></trkpt><trkpt lat="45.54592740130989" lon="10.116341714957677"><ele>128.0</ele><time>2026-04-06T08:56:38Z</time></trkpt><trkpt lat="45.54602307672609" lon="10.116552973323733"><ele>127.66666666666666</ele><time>2026-04-06T08:56:39Z</time></trkpt><trkpt lat="45.546115707616046" lon="10.11675412446567"><ele>127.33333333333334</ele><time>2026-04-06T08:56:40Z</time></trkpt><trkpt lat="45.54619228505002" lon="10.116953618144764"><ele>127.0</ele><time>2026-04-06T08:56:41Z</time></trkpt><trkpt lat="45.54624409345659" lon="10.117157814697704"><ele>127.0</ele><time>2026-04-06T08:56:42Z</time></trkpt><trkpt lat="45.54626465397772" lon="10.117352740532079"><ele>126.99999999999999</ele><time>2026-04-06T08:56:43Z</time></trkpt><trkpt lat="45.54628316391275" lon="10.117514241145456"><ele>126.99999999999999</ele><time>2026-04-06T08:56:44Z</time></trkpt><trkpt lat="45.54630191519326" lon="10.117634791851373"><ele>127.0</ele><time>2026-04-06T08:56:45Z</time></trkpt><trkpt lat="45.546315679700804" lon="10.117729326436395"><ele>127.0</ele><time>2026-04-06T08:56:46Z</time></trkpt><trkpt lat="45.546326266384796" lon="10.11782730602893"><ele>127.39999999999999</ele><time>2026-04-06T08:56:48Z</time></trkpt><trkpt lat="45.5463451326149" lon="10.117925004019346"><ele>127.79999999999998</ele><time>2026-04-06T08:57:09.999Z</time></trkpt><trkpt lat="45.54635845200655" lon="10.11803100590644"><ele>128.2</ele><time>2026-04-06T08:57:10.999Z</time></trkpt><trkpt lat="45.546375155995044" lon="10.118162544006193"><ele>128.6</ele><time>2026-04-06T08:57:11.999Z</time></trkpt><trkpt lat="45.546386711952636" lon="10.11833943466611"><ele>129.0</ele><time>2026-04-06T08:57:12.999Z</time></trkpt><trkpt lat="45.54639008964674" lon="10.118538112772175"><ele>129.66666666666666</ele><time>2026-04-06T08:57:13.999Z</time></trkpt><trkpt lat="45.546392304290094" lon="10.118763439447756"><ele>130.33333333333331</ele><time>2026-04-06T08:57:14.999Z</time></trkpt><trkpt lat="45.546383076103034" lon="10.119003495679658"><ele>131.0</ele><time>2026-04-06T08:57:15.999Z</time></trkpt><trkpt lat="45.54635866885922" lon="10.119274320185355"><ele>131.0</ele><time>2026-04-06T08:57:16.999Z</time></trkpt><trkpt lat="45.54632026409298" lon="10.119560248574611"><ele>131.0</ele><time>2026-04-06T08:57:17.999Z</time></trkpt><trkpt lat="45.546271066525605" lon="10.119855175002497"><ele>131.0</ele><time>2026-04-06T08:57:18.999Z</time></trkpt><trkpt lat="45.54620414931594" lon="10.120166200250205"><ele>129.5</ele><time>2026-04-06T08:57:19.999Z</time></trkpt><trkpt lat="45.546128559991395" lon="10.120485394560218"><ele>128.0</ele><time>2026-04-06T08:57:20.999Z</time></trkpt><trkpt lat="45.546051032765774" lon="10.120793894119851"><ele>128.0</ele><time>2026-04-06T08:57:21.999Z</time></trkpt><trkpt lat="45.545964122632725" lon="10.121098060140726"><ele>128.0</ele><time>2026-04-06T08:57:22.999Z</time></trkpt><trkpt lat="45.54586199900737" lon="10.121384254066616"><ele>127.66666666666666</ele><time>2026-04-06T08:57:23.999Z</time></trkpt><trkpt lat="45.54575243839922" lon="10.121659842928924"><ele>127.33333333333334</ele><time>2026-04-06T08:57:24.999Z</time></trkpt><trkpt lat="45.54563166692421" lon="10.121933808621085"><ele>127.0</ele><time>2026-04-06T08:57:25.999Z</time></trkpt><trkpt lat="45.54551053226073" lon="10.12220733530423"><ele>127.0</ele><time>2026-04-06T08:57:26.999Z</time></trkpt><trkpt lat="45.54538438890113" lon="10.122493957971175"><ele>127.0</ele><time>2026-04-06T08:57:27.999Z</time></trkpt><trkpt lat="45.54525203039769" lon="10.122792991791634"><ele>127.0</ele><time>2026-04-06T08:57:28.999Z</time></trkpt><trkpt lat="45.54511403870813" lon="10.123096801462749"><ele>127.0</ele><time>2026-04-06T08:57:29.999Z</time></trkpt><trkpt lat="45.54496939029174" lon="10.123414985301157"><ele>126.5</ele><time>2026-04-06T08:57:30.999Z</time></trkpt><trkpt lat="45.54481987003833" lon="10.123741472287493"><ele>126.0</ele><time>2026-04-06T08:57:31.999Z</time></trkpt><trkpt lat="45.54466495471294" lon="10.124083405261224"><ele>125.5</ele><time>2026-04-06T08:57:32.999Z</time></trkpt><trkpt lat="45.544509869944164" lon="10.124435244155828"><ele>125.0</ele><time>2026-04-06T08:57:33.999Z</time></trkpt><trkpt lat="45.54435445941622" lon="10.124795925126364"><ele>124.5</ele><time>2026-04-06T08:57:34.999Z</time></trkpt><trkpt lat="45.544195703834" lon="10.125151525238845"><ele>124.0</ele><time>2026-04-06T08:57:35.999Z</time></trkpt><trkpt lat="45.54402803738723" lon="10.125523549196433"><ele>123.5</ele><time>2026-04-06T08:57:36.999Z</time></trkpt><trkpt lat="45.54385127823499" lon="10.125897565670055"><ele>123.0</ele><time>2026-04-06T08:57:37.999Z</time></trkpt><trkpt lat="45.54367568632981" lon="10.126263752141876"><ele>124.5</ele><time>2026-04-06T08:57:38.999Z</time></trkpt><trkpt lat="45.54350684822902" lon="10.126621323569944"><ele>126.0</ele><time>2026-04-06T08:57:39.999Z</time></trkpt><trkpt lat="45.543337179914346" lon="10.126961969433873"><ele>126.0</ele><time>2026-04-06T08:57:40.999Z</time></trkpt><trkpt lat="45.54317620535979" lon="10.127304261241461"><ele>126.0</ele><time>2026-04-06T08:57:41.999Z</time></trkpt><trkpt lat="45.543004322397664" lon="10.12765242640207"><ele>124.0</ele><time>2026-04-06T08:57:42.999Z</time></trkpt><trkpt lat="45.542829087830896" lon="10.12800564547894"><ele>122.0</ele><time>2026-04-06T08:57:43.999Z</time></trkpt><trkpt lat="45.54265465484155" lon="10.128356799552733"><ele>122.0</ele><time>2026-04-06T08:57:44.999Z</time></trkpt><trkpt lat="45.54248145045972" lon="10.128710095431902"><ele>122.0</ele><time>2026-04-06T08:57:45.999Z</time></trkpt><trkpt lat="45.542313625035625" lon="10.129067298059754"><ele>122.0</ele><time>2026-04-06T08:57:46.999Z</time></trkpt><trkpt lat="45.54214349709661" lon="10.129426156584936"><ele>122.0</ele><time>2026-04-06T08:57:47.999Z</time></trkpt><trkpt lat="45.541973764185855" lon="10.129782366024198"><ele>122.5</ele><time>2026-04-06T08:57:48.999Z</time></trkpt><trkpt lat="45.541805991815956" lon="10.130142028634285"><ele>123.0</ele><time>2026-04-06T08:57:49.999Z</time></trkpt><trkpt lat="45.54164340310604" lon="10.130502238800698"><ele>122.0</ele><time>2026-04-06T08:57:50.999Z</time></trkpt><trkpt lat="45.541474819853235" lon="10.130856489212835"><ele>121.0</ele><time>2026-04-06T08:57:51.999Z</time></trkpt><trkpt lat="45.541296739306226" lon="10.13120225886273"><ele>121.0</ele><time>2026-04-06T08:57:52.999Z</time></trkpt><trkpt lat="45.5411247086256" lon="10.13154061602556"><ele>121.0</ele><time>2026-04-06T08:57:53.999Z</time></trkpt><trkpt lat="45.54095697920433" lon="10.1318840306961"><ele>122.0</ele><time>2026-04-06T08:57:54.999Z</time></trkpt><trkpt lat="45.54078682238169" lon="10.132224219984275"><ele>123.0</ele><time>2026-04-06T08:57:55.999Z</time></trkpt><trkpt lat="45.54061583321014" lon="10.132570651280567"><ele>123.0</ele><time>2026-04-06T08:57:56.999Z</time></trkpt><trkpt lat="45.54044743032531" lon="10.132911183592983"><ele>123.0</ele><time>2026-04-06T08:57:57.999Z</time></trkpt><trkpt lat="45.54027741440135" lon="10.133249899894627"><ele>122.0</ele><time>2026-04-06T08:57:58.999Z</time></trkpt><trkpt lat="45.540112266110164" lon="10.133589477973592"><ele>121.0</ele><time>2026-04-06T08:57:59.999Z</time></trkpt><trkpt lat="45.53994691495572" lon="10.133921404178023"><ele>121.0</ele><time>2026-04-06T08:58:00.999Z</time></trkpt><trkpt lat="45.5397818771635" lon="10.134252449716627"><ele>121.0</ele><time>2026-04-06T08:58:01.999Z</time></trkpt><trkpt lat="45.539622868061755" lon="10.134567027054187"><ele>122.0</ele><time>2026-04-06T08:58:02.999Z</time></trkpt><trkpt lat="45.539472317418294" lon="10.134856331115598"><ele>123.0</ele><time>2026-04-06T08:58:03.999Z</time></trkpt><trkpt lat="45.53933552564013" lon="10.135128033942324"><ele>123.0</ele><time>2026-04-06T08:58:04.999Z</time></trkpt><trkpt lat="45.53920431034568" lon="10.135389750798243"><ele>123.0</ele><time>2026-04-06T08:58:05.999Z</time></trkpt><trkpt lat="45.53908509813719" lon="10.135627247465692"><ele>123.0</ele><time>2026-04-06T08:58:06.999Z</time></trkpt><trkpt lat="45.538974600809915" lon="10.135842529019012"><ele>122.75</ele><time>2026-04-06T08:58:08Z</time></trkpt><trkpt lat="45.53887524561122" lon="10.136024869415888"><ele>122.5</ele><time>2026-04-06T08:58:09Z</time></trkpt><trkpt lat="45.538786667049955" lon="10.13617181583357"><ele>122.25</ele><time>2026-04-06T08:58:10Z</time></trkpt><trkpt lat="45.53871841764257" lon="10.136288520864138"><ele>122.0</ele><time>2026-04-06T08:58:11Z</time></trkpt><trkpt lat="45.538669280503015" lon="10.136379549129392"><ele>121.8</ele><time>2026-04-06T08:58:12Z</time></trkpt><trkpt lat="45.538621890748544" lon="10.136464055786092"><ele>121.6</ele><time>2026-04-06T08:58:14Z</time></trkpt><trkpt lat="45.53856699441376" lon="10.136576833408562"><ele>121.39999999999999</ele><time>2026-04-06T09:01:15.999Z</time></trkpt><trkpt lat="45.53852204728687" lon="10.136678654359638"><ele>121.19999999999999</ele><time>2026-04-06T09:01:17.999Z</time></trkpt><trkpt lat="45.538462057014556" lon="10.136794410391982"><ele>121.0</ele><time>2026-04-06T09:01:19.999Z</time></trkpt><trkpt lat="45.53839804953397" lon="10.136931115609238"><ele>121.00000000000001</ele><time>2026-04-06T09:01:21.999Z</time></trkpt><trkpt lat="45.538358705721016" lon="10.137008357518898"><ele>121.0</ele><time>2026-04-06T09:01:22.999Z</time></trkpt><trkpt lat="45.53832063049857" lon="10.137089505700956"><ele>121.0</ele><time>2026-04-06T09:01:23.999Z</time></trkpt><trkpt lat="45.53827995961166" lon="10.137175330185896"><ele>121.0</ele><time>2026-04-06T09:01:24.999Z</time></trkpt><trkpt lat="45.53823206312252" lon="10.137261320538318"><ele>121.00000000000001</ele><time>2026-04-06T09:01:25.999Z</time></trkpt><trkpt lat="45.53818954466784" lon="10.137359949911408"><ele>121.0</ele><time>2026-04-06T09:01:26.999Z</time></trkpt><trkpt lat="45.538139307716456" lon="10.137468028842099"><ele>120.33333333333334</ele><time>2026-04-06T09:01:27.999Z</time></trkpt><trkpt lat="45.538051409169654" lon="10.137647750253265"><ele>119.66666666666666</ele><time>2026-04-06T09:01:28.999Z</time></trkpt><trkpt lat="45.53794636030374" lon="10.137858738390209"><ele>119.0</ele><time>2026-04-06T09:01:29.999Z</time></trkpt><trkpt lat="45.537814784038304" lon="10.13813996250692"><ele>118.5</ele><time>2026-04-06T09:01:30.999Z</time></trkpt><trkpt lat="45.53767197791319" lon="10.138428353285562"><ele>118.0</ele><time>2026-04-06T09:01:31.999Z</time></trkpt><trkpt lat="45.537519731076216" lon="10.138724473882087"><ele>118.0</ele><time>2026-04-06T09:01:32.999Z</time></trkpt><trkpt lat="45.53736546842485" lon="10.139041949707268"><ele>118.0</ele><time>2026-04-06T09:01:33.999Z</time></trkpt><trkpt lat="45.53721352835166" lon="10.139378936055444"><ele>118.0</ele><time>2026-04-06T09:01:34.999Z</time></trkpt><trkpt lat="45.53705565278365" lon="10.139706208366963"><ele>118.0</ele><time>2026-04-06T09:01:35.999Z</time></trkpt><trkpt lat="45.53689646732477" lon="10.140014395688567"><ele>118.5</ele><time>2026-04-06T09:01:36.999Z</time></trkpt><trkpt lat="45.5367480080628" lon="10.140317358816787"><ele>119.0</ele><time>2026-04-06T09:01:37.999Z</time></trkpt><trkpt lat="45.53660376913445" lon="10.140616112070052"><ele>118.5</ele><time>2026-04-06T09:01:38.999Z</time></trkpt><trkpt lat="45.53646302301173" lon="10.140902697948318"><ele>118.0</ele><time>2026-04-06T09:01:39.999Z</time></trkpt><trkpt lat="45.53632135935662" lon="10.14119617290354"><ele>118.0</ele><time>2026-04-06T09:01:40.999Z</time></trkpt><trkpt lat="45.5361756517592" lon="10.141499681067465"><ele>118.0</ele><time>2026-04-06T09:01:41.999Z</time></trkpt><trkpt lat="45.53602477972266" lon="10.141810333532232"><ele>118.0</ele><time>2026-04-06T09:01:42.999Z</time></trkpt><trkpt lat="45.53587056789289" lon="10.14212038335463"><ele>118.0</ele><time>2026-04-06T09:01:43.999Z</time></trkpt><trkpt lat="45.53571214458908" lon="10.142432756734955"><ele>119.0</ele><time>2026-04-06T09:01:44.999Z</time></trkpt><trkpt lat="45.53555490733252" lon="10.142748178313896"><ele>120.0</ele><time>2026-04-06T09:01:45.999Z</time></trkpt><trkpt lat="45.535404072108015" lon="10.14306240195183"><ele>119.5</ele><time>2026-04-06T09:01:46.999Z</time></trkpt><trkpt lat="45.53525267159623" lon="10.143374288020969"><ele>119.0</ele><time>2026-04-06T09:01:47.999Z</time></trkpt><trkpt lat="45.535100533852976" lon="10.143682082534495"><ele>119.0</ele><time>2026-04-06T09:01:48.999Z</time></trkpt><trkpt lat="45.53495017504493" lon="10.143989033376087"><ele>119.0</ele><time>2026-04-06T09:01:49.999Z</time></trkpt><trkpt lat="45.53480657207484" lon="10.144292256561602"><ele>119.5</ele><time>2026-04-06T09:01:50.999Z</time></trkpt><trkpt lat="45.53466643764087" lon="10.144589410639293"><ele>120.0</ele><time>2026-04-06T09:01:51.999Z</time></trkpt><trkpt lat="45.534531360849215" lon="10.14487444852863"><ele>120.5</ele><time>2026-04-06T09:01:52.999Z</time></trkpt><trkpt lat="45.53440347420718" lon="10.145164609651564"><ele>121.0</ele><time>2026-04-06T09:01:53.999Z</time></trkpt><trkpt lat="45.534263182715215" lon="10.14544292732333"><ele>121.0</ele><time>2026-04-06T09:01:54.999Z</time></trkpt><trkpt lat="45.53412450787997" lon="10.14572953147745"><ele>121.0</ele><time>2026-04-06T09:01:55.999Z</time></trkpt><trkpt lat="45.53398515946607" lon="10.146017530609821"><ele>121.0</ele><time>2026-04-06T09:01:56.999Z</time></trkpt><trkpt lat="45.53384313106437" lon="10.146314946976698"><ele>121.0</ele><time>2026-04-06T09:01:57.999Z</time></trkpt><trkpt lat="45.53370688513349" lon="10.146611290534057"><ele>121.0</ele><time>2026-04-06T09:01:58.999Z</time></trkpt><trkpt lat="45.53358294048701" lon="10.146888745469129"><ele>121.0</ele><time>2026-04-06T09:01:59.999Z</time></trkpt><trkpt lat="45.533474484085815" lon="10.147131435789985"><ele>121.0</ele><time>2026-04-06T09:02:00.999Z</time></trkpt><trkpt lat="45.53337497498932" lon="10.147337636822401"><ele>120.75</ele><time>2026-04-06T09:02:01.999Z</time></trkpt><trkpt lat="45.53329067608226" lon="10.147512633551653"><ele>120.5</ele><time>2026-04-06T09:02:02.999Z</time></trkpt><trkpt lat="45.5332186234054" lon="10.14768919589294"><ele>120.25</ele><time>2026-04-06T09:02:03.999Z</time></trkpt><trkpt lat="45.53311066603383" lon="10.147817559876467"><ele>120.0</ele><time>2026-04-06T09:02:04.999Z</time></trkpt><trkpt lat="45.533012906339515" lon="10.147940674236045"><ele>120.0</ele><time>2026-04-06T09:02:05.999Z</time></trkpt><trkpt lat="45.53291924027669" lon="10.148056737495038"><ele>120.0</ele><time>2026-04-06T09:02:06.999Z</time></trkpt><trkpt lat="45.53284198670931" lon="10.148167208245788"><ele>120.0</ele><time>2026-04-06T09:02:07.999Z</time></trkpt><trkpt lat="45.53278566502321" lon="10.14829281123101"><ele>120.0</ele><time>2026-04-06T09:02:08.999Z</time></trkpt><trkpt lat="45.53273436711102" lon="10.148421969836201"><ele>120.0</ele><time>2026-04-06T09:02:09.999Z</time></trkpt><trkpt lat="45.53268216520898" lon="10.14853250825635"><ele>120.0</ele><time>2026-04-06T09:02:10.999Z</time></trkpt><trkpt lat="45.53261876449785" lon="10.148602879993726"><ele>120.0</ele><time>2026-04-06T09:02:11.999Z</time></trkpt><trkpt lat="45.53255424416731" lon="10.148624549523722"><ele>120.0</ele><time>2026-04-06T09:02:12.999Z</time></trkpt><trkpt lat="45.532459023345695" lon="10.148653980301415"><ele>120.0</ele><time>2026-04-06T09:02:14.999Z</time></trkpt><trkpt lat="45.53239933876488" lon="10.148728956355887"><ele>120.0</ele><time>2026-04-06T09:02:16.999Z</time></trkpt><trkpt lat="45.53232510356424" lon="10.14878470654313"><ele>120.0</ele><time>2026-04-06T09:02:18.999Z</time></trkpt><trkpt lat="45.53226912283384" lon="10.148852624300813"><ele>120.0</ele><time>2026-04-06T09:02:21Z</time></trkpt><trkpt lat="45.532227466790125" lon="10.148925591592226"><ele>120.0</ele><time>2026-04-06T09:02:23Z</time></trkpt><trkpt lat="45.53217290111859" lon="10.148989280647198"><ele>120.0</ele><time>2026-04-06T09:18:33Z</time></trkpt><trkpt lat="45.53216206980079" lon="10.149114306532235"><ele>120.0</ele><time>2026-04-06T09:18:36Z</time></trkpt><trkpt lat="45.532153758413756" lon="10.149238989091474"><ele>120.0</ele><time>2026-04-06T09:18:39Z</time></trkpt><trkpt lat="45.53211676004585" lon="10.149345012973164"><ele>120.0</ele><time>2026-04-06T09:18:42Z</time></trkpt><trkpt lat="45.53206883220374" lon="10.149440012889306"><ele>120.0</ele><time>2026-04-06T09:18:46Z</time></trkpt><trkpt lat="45.53206163888024" lon="10.149529481652229"><ele>120.0</ele><time>2026-04-06T09:18:48Z</time></trkpt><trkpt lat="45.5321005547935" lon="10.14966725076684"><ele>120.0</ele><time>2026-04-06T09:18:51Z</time></trkpt><trkpt lat="45.53211132809772" lon="10.149763712734398"><ele>120.0</ele><time>2026-04-06T09:19:20.998Z</time></trkpt><trkpt lat="45.53210686671884" lon="10.149871557097795"><ele>120.0</ele><time>2026-04-06T09:19:22.998Z</time></trkpt><trkpt lat="45.53203659521659" lon="10.150057038420908"><ele>120.2</ele><time>2026-04-06T09:19:24.998Z</time></trkpt><trkpt lat="45.53199713998438" lon="10.15018620994089"><ele>120.4</ele><time>2026-04-06T09:19:25.998Z</time></trkpt><trkpt lat="45.5319494057753" lon="10.15031143801744"><ele>120.6</ele><time>2026-04-06T09:19:26.998Z</time></trkpt><trkpt lat="45.53187140030843" lon="10.15043231883633"><ele>120.8</ele><time>2026-04-06T09:19:27.998Z</time></trkpt><trkpt lat="45.53178990553206" lon="10.150556703861854"><ele>121.0</ele><time>2026-04-06T09:19:28.998Z</time></trkpt><trkpt lat="45.53171985905319" lon="10.150710690050202"><ele>121.0</ele><time>2026-04-06T09:19:29.998Z</time></trkpt><trkpt lat="45.53166391080191" lon="10.150907723382414"><ele>121.0</ele><time>2026-04-06T09:19:30.998Z</time></trkpt><trkpt lat="45.531616427978726" lon="10.15112030484947"><ele>121.0</ele><time>2026-04-06T09:19:31.998Z</time></trkpt><trkpt lat="45.531554703290304" lon="10.151337116034014"><ele>120.66666666666667</ele><time>2026-04-06T09:19:32.998Z</time></trkpt><trkpt lat="45.531478215475076" lon="10.151549190345696"><ele>120.33333333333334</ele><time>2026-04-06T09:19:33.998Z</time></trkpt><trkpt lat="45.53139112069669" lon="10.151765664431991"><ele>120.0</ele><time>2026-04-06T09:19:34.998Z</time></trkpt><trkpt lat="45.531293851585616" lon="10.15198469498735"><ele>120.66666666666666</ele><time>2026-04-06T09:19:35.998Z</time></trkpt><trkpt lat="45.5311894970274" lon="10.152220761230438"><ele>121.33333333333333</ele><time>2026-04-06T09:19:36.999Z</time></trkpt><trkpt lat="45.5310864599766" lon="10.152474447628402"><ele>122.0</ele><time>2026-04-06T09:19:37.999Z</time></trkpt><trkpt lat="45.53097530733431" lon="10.152755745135948"><ele>122.0</ele><time>2026-04-06T09:19:38.999Z</time></trkpt><trkpt lat="45.53086074979013" lon="10.153037794644373"><ele>122.0</ele><time>2026-04-06T09:19:39.999Z</time></trkpt><trkpt lat="45.53073646029628" lon="10.153319507529856"><ele>122.5</ele><time>2026-04-06T09:19:40.999Z</time></trkpt><trkpt lat="45.530603377364486" lon="10.153614268669509"><ele>123.0</ele><time>2026-04-06T09:19:41.999Z</time></trkpt><trkpt lat="45.53046322742345" lon="10.153921619560455"><ele>122.5</ele><time>2026-04-06T09:19:42.999Z</time></trkpt><trkpt lat="45.53031834485552" lon="10.154237575863016"><ele>122.0</ele><time>2026-04-06T09:19:43.999Z</time></trkpt><trkpt lat="45.530170544306905" lon="10.154561065640891"><ele>123.5</ele><time>2026-04-06T09:19:44.999Z</time></trkpt><trkpt lat="45.530026595892096" lon="10.154887435558418"><ele>125.0</ele><time>2026-04-06T09:19:45.999Z</time></trkpt><trkpt lat="45.529874931544754" lon="10.15521879921226"><ele>125.0</ele><time>2026-04-06T09:19:46.999Z</time></trkpt><trkpt lat="45.52972456342991" lon="10.155555781239858"><ele>125.0</ele><time>2026-04-06T09:19:47.999Z</time></trkpt><trkpt lat="45.52957385679809" lon="10.155890337848131"><ele>125.5</ele><time>2026-04-06T09:19:48.999Z</time></trkpt><trkpt lat="45.529420940595266" lon="10.156225583175154"><ele>126.0</ele><time>2026-04-06T09:19:49.999Z</time></trkpt><trkpt lat="45.529265915433996" lon="10.156562300296155"><ele>124.5</ele><time>2026-04-06T09:19:50.999Z</time></trkpt><trkpt lat="45.529113397534154" lon="10.156901657718294"><ele>123.0</ele><time>2026-04-06T09:19:51.999Z</time></trkpt><trkpt lat="45.52896014639468" lon="10.157239006572645"><ele>123.0</ele><time>2026-04-06T09:19:52.999Z</time></trkpt><trkpt lat="45.528806216742645" lon="10.157574919057314"><ele>123.0</ele><time>2026-04-06T09:19:53.999Z</time></trkpt><trkpt lat="45.52865156879618" lon="10.157908929462982"><ele>123.0</ele><time>2026-04-06T09:19:54.999Z</time></trkpt><trkpt lat="45.52849383152376" lon="10.158243710422832"><ele>123.0</ele><time>2026-04-06T09:19:55.999Z</time></trkpt><trkpt lat="45.528337231037774" lon="10.158582249606923"><ele>123.0</ele><time>2026-04-06T09:19:56.999Z</time></trkpt><trkpt lat="45.52818601458313" lon="10.158912932399073"><ele>123.0</ele><time>2026-04-06T09:19:57.999Z</time></trkpt><trkpt lat="45.52803606282722" lon="10.159231803288893"><ele>122.5</ele><time>2026-04-06T09:19:58.999Z</time></trkpt><trkpt lat="45.52788653479154" lon="10.15954925044783"><ele>122.0</ele><time>2026-04-06T09:19:59.999Z</time></trkpt><trkpt lat="45.52773555756678" lon="10.159879192805628"><ele>121.0</ele><time>2026-04-06T09:20:00.999Z</time></trkpt><trkpt lat="45.527580276759366" lon="10.160215966276523"><ele>120.0</ele><time>2026-04-06T09:20:01.999Z</time></trkpt><trkpt lat="45.52742326691983" lon="10.16054765345383"><ele>121.0</ele><time>2026-04-06T09:20:02.999Z</time></trkpt><trkpt lat="45.52727329946402" lon="10.160867591001058"><ele>122.0</ele><time>2026-04-06T09:20:03.999Z</time></trkpt><trkpt lat="45.527136490803976" lon="10.16115892691051"><ele>122.0</ele><time>2026-04-06T09:20:04.999Z</time></trkpt><trkpt lat="45.52700924479367" lon="10.161436700241781"><ele>122.0</ele><time>2026-04-06T09:20:05.999Z</time></trkpt><trkpt lat="45.526881046664926" lon="10.161695412172078"><ele>122.0</ele><time>2026-04-06T09:20:06.999Z</time></trkpt><trkpt lat="45.5267684507851" lon="10.161943840147678"><ele>122.0</ele><time>2026-04-06T09:20:07.999Z</time></trkpt><trkpt lat="45.52666033899678" lon="10.162181142805318"><ele>122.0</ele><time>2026-04-06T09:20:08.999Z</time></trkpt><trkpt lat="45.52654451868048" lon="10.162405792700369"><ele>122.33333333333333</ele><time>2026-04-06T09:20:09.999Z</time></trkpt><trkpt lat="45.52644793762722" lon="10.162628687114756"><ele>122.66666666666666</ele><time>2026-04-06T09:20:10.999Z</time></trkpt><trkpt lat="45.52634561318942" lon="10.162849698490442"><ele>123.0</ele><time>2026-04-06T09:20:11.999Z</time></trkpt><trkpt lat="45.526241801730194" lon="10.16306533637569"><ele>122.66666666666666</ele><time>2026-04-06T09:20:12.999Z</time></trkpt><trkpt lat="45.52613231881799" lon="10.163298701733252"><ele>122.33333333333333</ele><time>2026-04-06T09:20:13.999Z</time></trkpt><trkpt lat="45.52601529317954" lon="10.163553699954933"><ele>122.0</ele><time>2026-04-06T09:20:14.999Z</time></trkpt><trkpt lat="45.525895838445614" lon="10.163821946531433"><ele>122.5</ele><time>2026-04-06T09:20:15.999Z</time></trkpt><trkpt lat="45.5257688536526" lon="10.164103318387884"><ele>123.0</ele><time>2026-04-06T09:20:16.999Z</time></trkpt><trkpt lat="45.52564260757771" lon="10.164383519456072"><ele>123.0</ele><time>2026-04-06T09:20:17.999Z</time></trkpt><trkpt lat="45.52551619361611" lon="10.164660471247608"><ele>123.0</ele><time>2026-04-06T09:20:18.999Z</time></trkpt><trkpt lat="45.525394646564045" lon="10.16493484367716"><ele>123.0</ele><time>2026-04-06T09:20:20Z</time></trkpt><trkpt lat="45.52527367296314" lon="10.165206005895362"><ele>123.0</ele><time>2026-04-06T09:20:21Z</time></trkpt><trkpt lat="45.52515488076429" lon="10.165473475356544"><ele>123.0</ele><time>2026-04-06T09:20:22Z</time></trkpt><trkpt lat="45.525034975800345" lon="10.165734475367497"><ele>123.0</ele><time>2026-04-06T09:20:23Z</time></trkpt><trkpt lat="45.52491885197134" lon="10.165999988493402"><ele>123.0</ele><time>2026-04-06T09:20:24Z</time></trkpt><trkpt lat="45.524803620571916" lon="10.166262048129077"><ele>123.0</ele><time>2026-04-06T09:20:25Z</time></trkpt><trkpt lat="45.524687011610034" lon="10.166523472196262"><ele>123.0</ele><time>2026-04-06T09:20:26Z</time></trkpt><trkpt lat="45.52457435447744" lon="10.166788241512506"><ele>123.0</ele><time>2026-04-06T09:20:27Z</time></trkpt><trkpt lat="45.52446178679637" lon="10.167054712107301"><ele>123.0</ele><time>2026-04-06T09:20:28Z</time></trkpt><trkpt lat="45.52434879956103" lon="10.167322959812712"><ele>123.33333333333334</ele><time>2026-04-06T09:20:29Z</time></trkpt><trkpt lat="45.52423125539151" lon="10.16759078922819"><ele>123.66666666666667</ele><time>2026-04-06T09:20:30Z</time></trkpt><trkpt lat="45.524112234317066" lon="10.167854209994172"><ele>124.0</ele><time>2026-04-06T09:20:31Z</time></trkpt><trkpt lat="45.52398878537992" lon="10.168124040708491"><ele>123.0</ele><time>2026-04-06T09:20:32Z</time></trkpt><trkpt lat="45.52386898780529" lon="10.168395859861608"><ele>122.0</ele><time>2026-04-06T09:20:33Z</time></trkpt><trkpt lat="45.52375358588981" lon="10.168672316406319"><ele>121.5</ele><time>2026-04-06T09:20:34Z</time></trkpt><trkpt lat="45.5236416805508" lon="10.168947127807742"><ele>121.0</ele><time>2026-04-06T09:20:35Z</time></trkpt><trkpt lat="45.52352301970598" lon="10.169223424511486"><ele>120.0</ele><time>2026-04-06T09:20:36Z</time></trkpt><trkpt lat="45.52339748197122" lon="10.169496595761125"><ele>119.0</ele><time>2026-04-06T09:20:37Z</time></trkpt><trkpt lat="45.523272143742496" lon="10.169778568734802"><ele>120.5</ele><time>2026-04-06T09:20:38Z</time></trkpt><trkpt lat="45.523150547558465" lon="10.170067834531942"><ele>122.0</ele><time>2026-04-06T09:20:39Z</time></trkpt><trkpt lat="45.52302920043828" lon="10.17035621506849"><ele>122.0</ele><time>2026-04-06T09:20:40Z</time></trkpt><trkpt lat="45.52290754236453" lon="10.170649427347495"><ele>122.0</ele><time>2026-04-06T09:20:41Z</time></trkpt><trkpt lat="45.522785880521035" lon="10.170948718118428"><ele>120.0</ele><time>2026-04-06T09:20:42Z</time></trkpt><trkpt lat="45.522668135828724" lon="10.17124520538585"><ele>118.0</ele><time>2026-04-06T09:20:43Z</time></trkpt><trkpt lat="45.522552978980066" lon="10.171548031423583"><ele>117.5</ele><time>2026-04-06T09:20:44Z</time></trkpt><trkpt lat="45.52244291248214" lon="10.171848750564084"><ele>117.0</ele><time>2026-04-06T09:20:45Z</time></trkpt><trkpt lat="45.52233604586479" lon="10.172148920310166"><ele>117.0</ele><time>2026-04-06T09:20:46Z</time></trkpt><trkpt lat="45.52223030488696" lon="10.172453125083678"><ele>117.0</ele><time>2026-04-06T09:20:47Z</time></trkpt><trkpt lat="45.522125648476724" lon="10.17276130942931"><ele>118.5</ele><time>2026-04-06T09:20:48Z</time></trkpt><trkpt lat="45.522024993509916" lon="10.173073861202106"><ele>120.0</ele><time>2026-04-06T09:20:49Z</time></trkpt><trkpt lat="45.5219265396973" lon="10.173395520532337"><ele>121.0</ele><time>2026-04-06T09:20:50Z</time></trkpt><trkpt lat="45.52182550548528" lon="10.173719363457417"><ele>122.0</ele><time>2026-04-06T09:20:51Z</time></trkpt><trkpt lat="45.5217288979222" lon="10.174075631694308"><ele>122.0</ele><time>2026-04-06T09:20:52Z</time></trkpt><trkpt lat="45.52163279626519" lon="10.174416368587021"><ele>122.0</ele><time>2026-04-06T09:20:53Z</time></trkpt><trkpt lat="45.52153835096567" lon="10.17475735024761"><ele>121.5</ele><time>2026-04-06T09:20:54Z</time></trkpt><trkpt lat="45.521448276673695" lon="10.175099670304517"><ele>121.0</ele><time>2026-04-06T09:20:55Z</time></trkpt><trkpt lat="45.52136464039893" lon="10.175440824644237"><ele>121.0</ele><time>2026-04-06T09:20:56Z</time></trkpt><trkpt lat="45.52128665582798" lon="10.17578462586017"><ele>121.0</ele><time>2026-04-06T09:20:57Z</time></trkpt><trkpt lat="45.52121237939414" lon="10.176127140943908"><ele>121.0</ele><time>2026-04-06T09:20:58Z</time></trkpt><trkpt lat="45.52114207403933" lon="10.176472408412343"><ele>121.0</ele><time>2026-04-06T09:20:59Z</time></trkpt><trkpt lat="45.52107362669648" lon="10.176823209067022"><ele>120.5</ele><time>2026-04-06T09:21:00Z</time></trkpt><trkpt lat="45.52100709316287" lon="10.177176097842736"><ele>120.0</ele><time>2026-04-06T09:21:01Z</time></trkpt><trkpt lat="45.520943507048436" lon="10.177535723835838"><ele>120.0</ele><time>2026-04-06T09:21:02Z</time></trkpt><trkpt lat="45.52088228365382" lon="10.177895653063635"><ele>120.0</ele><time>2026-04-06T09:21:03Z</time></trkpt><trkpt lat="45.52082672332357" lon="10.178252408801107"><ele>120.0</ele><time>2026-04-06T09:21:04Z</time></trkpt><trkpt lat="45.5207732616289" lon="10.178605035496371"><ele>120.0</ele><time>2026-04-06T09:21:05Z</time></trkpt><trkpt lat="45.52072632839942" lon="10.178966572568507"><ele>122.0</ele><time>2026-04-06T09:21:06Z</time></trkpt><trkpt lat="45.52068632555841" lon="10.179318525262763"><ele>124.0</ele><time>2026-04-06T09:21:07Z</time></trkpt><trkpt lat="45.52065160038674" lon="10.17967972384284"><ele>122.5</ele><time>2026-04-06T09:21:08Z</time></trkpt><trkpt lat="45.520615209967396" lon="10.18003897223736"><ele>121.0</ele><time>2026-04-06T09:21:09Z</time></trkpt><trkpt lat="45.52057779130885" lon="10.180399770984922"><ele>120.0</ele><time>2026-04-06T09:21:10Z</time></trkpt><trkpt lat="45.52052729661457" lon="10.18075631348159"><ele>119.0</ele><time>2026-04-06T09:21:11Z</time></trkpt><trkpt lat="45.5204817289103" lon="10.181118994197055"><ele>119.0</ele><time>2026-04-06T09:21:12Z</time></trkpt><trkpt lat="45.52044021836736" lon="10.181485266851336"><ele>119.0</ele><time>2026-04-06T09:21:13Z</time></trkpt><trkpt lat="45.520403222439626" lon="10.181844505195635"><ele>120.0</ele><time>2026-04-06T09:21:13.997Z</time></trkpt><trkpt lat="45.52036094442204" lon="10.182206903646584"><ele>121.0</ele><time>2026-04-06T09:21:14.997Z</time></trkpt><trkpt lat="45.52031552435891" lon="10.182573449946126"><ele>122.0</ele><time>2026-04-06T09:21:15.997Z</time></trkpt><trkpt lat="45.52027424782277" lon="10.182942635437096"><ele>123.0</ele><time>2026-04-06T09:21:16.997Z</time></trkpt><trkpt lat="45.52023462250972" lon="10.183310388291762"><ele>123.0</ele><time>2026-04-06T09:21:17.997Z</time></trkpt><trkpt lat="45.52019309923517" lon="10.183684550885719"><ele>123.0</ele><time>2026-04-06T09:21:18.997Z</time></trkpt><trkpt lat="45.520150734938916" lon="10.184062011460146"><ele>122.5</ele><time>2026-04-06T09:21:19.997Z</time></trkpt><trkpt lat="45.52010703516548" lon="10.184440187641895"><ele>122.0</ele><time>2026-04-06T09:21:20.998Z</time></trkpt><trkpt lat="45.520063646581676" lon="10.184820174096686"><ele>122.5</ele><time>2026-04-06T09:21:21.998Z</time></trkpt><trkpt lat="45.520019984339314" lon="10.185199021788504"><ele>123.0</ele><time>2026-04-06T09:21:22.998Z</time></trkpt><trkpt lat="45.51997679570325" lon="10.18558203440972"><ele>122.5</ele><time>2026-04-06T09:21:23.998Z</time></trkpt><trkpt lat="45.519934035530966" lon="10.185963999182764"><ele>122.0</ele><time>2026-04-06T09:21:24.998Z</time></trkpt><trkpt lat="45.519891335899054" lon="10.186344552049633"><ele>122.0</ele><time>2026-04-06T09:21:25.998Z</time></trkpt><trkpt lat="45.51984766754089" lon="10.186728417915338"><ele>122.0</ele><time>2026-04-06T09:21:26.998Z</time></trkpt><trkpt lat="45.519804798194805" lon="10.187111137664916"><ele>122.5</ele><time>2026-04-06T09:21:27.998Z</time></trkpt><trkpt lat="45.51976310871733" lon="10.187492874646276"><ele>123.0</ele><time>2026-04-06T09:21:28.998Z</time></trkpt><trkpt lat="45.519721640466855" lon="10.187874699340401"><ele>122.5</ele><time>2026-04-06T09:21:29.998Z</time></trkpt><trkpt lat="45.51967985884421" lon="10.188249685721553"><ele>122.0</ele><time>2026-04-06T09:21:30.998Z</time></trkpt><trkpt lat="45.51963651800258" lon="10.188634658253418"><ele>121.5</ele><time>2026-04-06T09:21:31.998Z</time></trkpt><trkpt lat="45.5195920465537" lon="10.189014722525256"><ele>121.0</ele><time>2026-04-06T09:21:32.998Z</time></trkpt><trkpt lat="45.51954835341426" lon="10.189394916885346"><ele>120.5</ele><time>2026-04-06T09:21:33.998Z</time></trkpt><trkpt lat="45.519503718120966" lon="10.189772839570669"><ele>120.0</ele><time>2026-04-06T09:21:34.999Z</time></trkpt><trkpt lat="45.5194611337474" lon="10.190152884006572"><ele>120.0</ele><time>2026-04-06T09:21:35.999Z</time></trkpt><trkpt lat="45.51941890069805" lon="10.190538109514208"><ele>120.0</ele><time>2026-04-06T09:21:36.999Z</time></trkpt><trkpt lat="45.51937958347167" lon="10.19091854034747"><ele>121.5</ele><time>2026-04-06T09:21:37.999Z</time></trkpt><trkpt lat="45.51933778267373" lon="10.19129606682235"><ele>123.0</ele><time>2026-04-06T09:21:38.999Z</time></trkpt><trkpt lat="45.51928826365038" lon="10.191686787330989"><ele>123.0</ele><time>2026-04-06T09:21:39.999Z</time></trkpt><trkpt lat="45.51924362023609" lon="10.192071139707918"><ele>123.0</ele><time>2026-04-06T09:21:40.999Z</time></trkpt><trkpt lat="45.51920027693524" lon="10.192457923749188"><ele>123.0</ele><time>2026-04-06T09:21:41.999Z</time></trkpt><trkpt lat="45.51915677935745" lon="10.192847008309847"><ele>123.0</ele><time>2026-04-06T09:21:42.999Z</time></trkpt><trkpt lat="45.51911217842492" lon="10.193235833010878"><ele>123.0</ele><time>2026-04-06T09:21:43.999Z</time></trkpt><trkpt lat="45.519068402119395" lon="10.193625197532311"><ele>123.0</ele><time>2026-04-06T09:21:44.999Z</time></trkpt><trkpt lat="45.519025593198755" lon="10.194017360053802"><ele>123.0</ele><time>2026-04-06T09:21:45.999Z</time></trkpt><trkpt lat="45.518983637683306" lon="10.194405466209647"><ele>123.0</ele><time>2026-04-06T09:21:46.999Z</time></trkpt><trkpt lat="45.51893865049588" lon="10.194795428878637"><ele>122.5</ele><time>2026-04-06T09:21:47.999Z</time></trkpt><trkpt lat="45.51889317634051" lon="10.195182845965052"><ele>122.0</ele><time>2026-04-06T09:21:48.999Z</time></trkpt><trkpt lat="45.51885007584486" lon="10.195565198803628"><ele>122.0</ele><time>2026-04-06T09:21:49.999Z</time></trkpt><trkpt lat="45.518806883687375" lon="10.195947054033054"><ele>122.0</ele><time>2026-04-06T09:21:50.999Z</time></trkpt><trkpt lat="45.51876440778173" lon="10.19632582077187"><ele>123.0</ele><time>2026-04-06T09:21:51.999Z</time></trkpt><trkpt lat="45.51872287175371" lon="10.1966968176588"><ele>124.0</ele><time>2026-04-06T09:21:52.999Z</time></trkpt><trkpt lat="45.51868211435173" lon="10.197085373524875"><ele>123.0</ele><time>2026-04-06T09:21:53.999Z</time></trkpt><trkpt lat="45.518626997868544" lon="10.197454410117333"><ele>122.0</ele><time>2026-04-06T09:21:54.999Z</time></trkpt><trkpt lat="45.51856838871384" lon="10.197822350903188"><ele>121.5</ele><time>2026-04-06T09:21:55.999Z</time></trkpt><trkpt lat="45.51850007594658" lon="10.198180452274308"><ele>121.0</ele><time>2026-04-06T09:21:56.999Z</time></trkpt><trkpt lat="45.51842245827732" lon="10.198539513451447"><ele>121.0</ele><time>2026-04-06T09:21:57.999Z</time></trkpt><trkpt lat="45.5183389987777" lon="10.198886726139511"><ele>121.0</ele><time>2026-04-06T09:21:58.999Z</time></trkpt><trkpt lat="45.518249170839624" lon="10.199227662015598"><ele>121.5</ele><time>2026-04-06T09:22:00Z</time></trkpt><trkpt lat="45.518151747987766" lon="10.199567302387718"><ele>122.0</ele><time>2026-04-06T09:22:01Z</time></trkpt><trkpt lat="45.51804909105584" lon="10.199900458645967"><ele>122.0</ele><time>2026-04-06T09:22:02Z</time></trkpt><trkpt lat="45.517939403029274" lon="10.200233791562535"><ele>122.0</ele><time>2026-04-06T09:22:03Z</time></trkpt><trkpt lat="45.51782472628214" lon="10.200560402686671"><ele>121.5</ele><time>2026-04-06T09:22:04Z</time></trkpt><trkpt lat="45.51770387518228" lon="10.20088580402188"><ele>121.0</ele><time>2026-04-06T09:22:05Z</time></trkpt><trkpt lat="45.51757589965212" lon="10.201203311818926"><ele>121.0</ele><time>2026-04-06T09:22:06Z</time></trkpt><trkpt lat="45.517436669966216" lon="10.201518328918304"><ele>121.0</ele><time>2026-04-06T09:22:07Z</time></trkpt><trkpt lat="45.51729246861012" lon="10.201819904729712"><ele>121.0</ele><time>2026-04-06T09:22:08Z</time></trkpt><trkpt lat="45.517147827047445" lon="10.202122885443249"><ele>121.0</ele><time>2026-04-06T09:22:09Z</time></trkpt><trkpt lat="45.51700805949269" lon="10.202427690393067"><ele>120.0</ele><time>2026-04-06T09:22:10Z</time></trkpt><trkpt lat="45.51687298046163" lon="10.202732938899365"><ele>119.0</ele><time>2026-04-06T09:22:11Z</time></trkpt><trkpt lat="45.51673648179665" lon="10.203035110454971"><ele>120.0</ele><time>2026-04-06T09:22:12Z</time></trkpt><trkpt lat="45.51659633237535" lon="10.203343325245406"><ele>121.0</ele><time>2026-04-06T09:22:13Z</time></trkpt><trkpt lat="45.516455795446625" lon="10.20364511162579"><ele>121.0</ele><time>2026-04-06T09:22:14Z</time></trkpt><trkpt lat="45.51631167246933" lon="10.203952143021857"><ele>121.0</ele><time>2026-04-06T09:22:15Z</time></trkpt><trkpt lat="45.51617021737838" lon="10.20425671192082"><ele>121.0</ele><time>2026-04-06T09:22:16Z</time></trkpt><trkpt lat="45.51602799047826" lon="10.204568938506094"><ele>121.0</ele><time>2026-04-06T09:22:17Z</time></trkpt><trkpt lat="45.51588564497997" lon="10.204879914180154"><ele>121.0</ele><time>2026-04-06T09:22:18Z</time></trkpt><trkpt lat="45.51574293698813" lon="10.205189698539366"><ele>121.0</ele><time>2026-04-06T09:22:19Z</time></trkpt><trkpt lat="45.5155968451883" lon="10.20550643346422"><ele>121.0</ele><time>2026-04-06T09:22:20Z</time></trkpt><trkpt lat="45.51545092617332" lon="10.205823739895497"><ele>121.0</ele><time>2026-04-06T09:22:21Z</time></trkpt><trkpt lat="45.515304371997345" lon="10.20613972969758"><ele>121.5</ele><time>2026-04-06T09:22:22Z</time></trkpt><trkpt lat="45.51515793645353" lon="10.206458695975162"><ele>122.0</ele><time>2026-04-06T09:22:23Z</time></trkpt><trkpt lat="45.51501073850128" lon="10.20677899024349"><ele>122.0</ele><time>2026-04-06T09:22:24Z</time></trkpt><trkpt lat="45.51486380766817" lon="10.207097993533422"><ele>122.0</ele><time>2026-04-06T09:22:25Z</time></trkpt><trkpt lat="45.5147188012064" lon="10.207421570746337"><ele>120.5</ele><time>2026-04-06T09:22:26Z</time></trkpt><trkpt lat="45.514574247367264" lon="10.207742332351213"><ele>119.0</ele><time>2026-04-06T09:22:27Z</time></trkpt><trkpt lat="45.51442768781681" lon="10.208065693248946"><ele>118.0</ele><time>2026-04-06T09:22:28Z</time></trkpt><trkpt lat="45.51428051610827" lon="10.208385891246852"><ele>117.0</ele><time>2026-04-06T09:22:29Z</time></trkpt><trkpt lat="45.514125366358265" lon="10.208712984264594"><ele>118.0</ele><time>2026-04-06T09:22:30Z</time></trkpt><trkpt lat="45.51398177836103" lon="10.209031206201825"><ele>119.0</ele><time>2026-04-06T09:22:31Z</time></trkpt><trkpt lat="45.51383370957837" lon="10.209350502353592"><ele>120.0</ele><time>2026-04-06T09:22:32Z</time></trkpt><trkpt lat="45.51368348669659" lon="10.209673705624484"><ele>121.0</ele><time>2026-04-06T09:22:33Z</time></trkpt><trkpt lat="45.51353513729592" lon="10.209995454940564"><ele>123.0</ele><time>2026-04-06T09:22:34Z</time></trkpt><trkpt lat="45.513386008555656" lon="10.210317354905355"><ele>125.0</ele><time>2026-04-06T09:22:35Z</time></trkpt><trkpt lat="45.51324068404139" lon="10.21063768177896"><ele>123.0</ele><time>2026-04-06T09:22:36Z</time></trkpt><trkpt lat="45.51309833253967" lon="10.210948989599528"><ele>121.0</ele><time>2026-04-06T09:22:37Z</time></trkpt><trkpt lat="45.51295609602899" lon="10.211259689608779"><ele>122.0</ele><time>2026-04-06T09:22:38Z</time></trkpt><trkpt lat="45.51281325524815" lon="10.21156600473393"><ele>123.0</ele><time>2026-04-06T09:22:39Z</time></trkpt><trkpt lat="45.51267033036747" lon="10.211873278060795"><ele>123.0</ele><time>2026-04-06T09:22:40Z</time></trkpt><trkpt lat="45.51252965870766" lon="10.21217333410667"><ele>123.0</ele><time>2026-04-06T09:22:41Z</time></trkpt><trkpt lat="45.51238970000365" lon="10.212470951154742"><ele>122.0</ele><time>2026-04-06T09:22:42Z</time></trkpt><trkpt lat="45.51225360041777" lon="10.21276594905794"><ele>121.0</ele><time>2026-04-06T09:22:43Z</time></trkpt><trkpt lat="45.51212059805308" lon="10.213061529534919"><ele>118.5</ele><time>2026-04-06T09:22:44Z</time></trkpt><trkpt lat="45.51198890519442" lon="10.213357724301806"><ele>116.0</ele><time>2026-04-06T09:22:45Z</time></trkpt><trkpt lat="45.511856372468834" lon="10.213649225844307"><ele>116.0</ele><time>2026-04-06T09:22:46.001Z</time></trkpt><trkpt lat="45.51172424051779" lon="10.213940021192304"><ele>116.0</ele><time>2026-04-06T09:22:47.001Z</time></trkpt><trkpt lat="45.51158821420098" lon="10.214232244540893"><ele>117.0</ele><time>2026-04-06T09:22:48.001Z</time></trkpt><trkpt lat="45.5114473424199" lon="10.214524501907471"><ele>118.0</ele><time>2026-04-06T09:22:49.001Z</time></trkpt><trkpt lat="45.51130827906272" lon="10.214817383376765"><ele>118.5</ele><time>2026-04-06T09:22:50.001Z</time></trkpt><trkpt lat="45.51117222547897" lon="10.215116818008111"><ele>119.0</ele><time>2026-04-06T09:22:51.001Z</time></trkpt><trkpt lat="45.51103401154706" lon="10.215421102843354"><ele>119.0</ele><time>2026-04-06T09:22:52.001Z</time></trkpt><trkpt lat="45.51089625171391" lon="10.21572239079853"><ele>119.0</ele><time>2026-04-06T09:22:53.001Z</time></trkpt><trkpt lat="45.51075635799408" lon="10.216026540072301"><ele>119.0</ele><time>2026-04-06T09:22:54.001Z</time></trkpt><trkpt lat="45.510613777119616" lon="10.216334118030856"><ele>119.0</ele><time>2026-04-06T09:22:55.001Z</time></trkpt><trkpt lat="45.51047101713872" lon="10.216643571013435"><ele>118.5</ele><time>2026-04-06T09:22:56.001Z</time></trkpt><trkpt lat="45.51032735429814" lon="10.216959400893057"><ele>118.0</ele><time>2026-04-06T09:22:57.001Z</time></trkpt><trkpt lat="45.51018486640165" lon="10.217273815690168"><ele>119.0</ele><time>2026-04-06T09:22:58.001Z</time></trkpt><trkpt lat="45.51004194107903" lon="10.217594892648993"><ele>120.0</ele><time>2026-04-06T09:22:59.001Z</time></trkpt><trkpt lat="45.50989673097025" lon="10.217917632402147"><ele>120.0</ele><time>2026-04-06T09:23:00.001Z</time></trkpt><trkpt lat="45.50975156036447" lon="10.218247254245329"><ele>120.0</ele><time>2026-04-06T09:23:01.001Z</time></trkpt><trkpt lat="45.50960794760328" lon="10.21857868326203"><ele>119.0</ele><time>2026-04-06T09:23:02.001Z</time></trkpt><trkpt lat="45.50946304845736" lon="10.218911143932747"><ele>118.0</ele><time>2026-04-06T09:23:03.001Z</time></trkpt><trkpt lat="45.50931253871207" lon="10.219242824298194"><ele>117.5</ele><time>2026-04-06T09:23:04.001Z</time></trkpt><trkpt lat="45.509161254065205" lon="10.21956838367036"><ele>117.0</ele><time>2026-04-06T09:23:05.001Z</time></trkpt><trkpt lat="45.5090062806678" lon="10.219900218584419"><ele>117.0</ele><time>2026-04-06T09:23:06.001Z</time></trkpt><trkpt lat="45.50885078842622" lon="10.220234001946114"><ele>117.0</ele><time>2026-04-06T09:23:07.001Z</time></trkpt><trkpt lat="45.508699692338254" lon="10.220570294410233"><ele>117.5</ele><time>2026-04-06T09:23:08.001Z</time></trkpt><trkpt lat="45.508554491428804" lon="10.220917845485603"><ele>118.0</ele><time>2026-04-06T09:23:09.001Z</time></trkpt><trkpt lat="45.50841682694547" lon="10.221267199479525"><ele>117.5</ele><time>2026-04-06T09:23:10.001Z</time></trkpt><trkpt lat="45.508276964502556" lon="10.221617470185496"><ele>117.0</ele><time>2026-04-06T09:23:11.001Z</time></trkpt><trkpt lat="45.50813529897762" lon="10.221966237386882"><ele>116.5</ele><time>2026-04-06T09:23:12.001Z</time></trkpt><trkpt lat="45.50799531487488" lon="10.22231684407893"><ele>116.0</ele><time>2026-04-06T09:23:13.001Z</time></trkpt><trkpt lat="45.50786686109352" lon="10.22267170407284"><ele>117.5</ele><time>2026-04-06T09:23:14.001Z</time></trkpt><trkpt lat="45.50775061268616" lon="10.223040835394825"><ele>119.0</ele><time>2026-04-06T09:23:15.001Z</time></trkpt><trkpt lat="45.50763856742598" lon="10.223416393880045"><ele>119.5</ele><time>2026-04-06T09:23:16.001Z</time></trkpt><trkpt lat="45.50752927088664" lon="10.223791215680324"><ele>120.0</ele><time>2026-04-06T09:23:17.001Z</time></trkpt><trkpt lat="45.50742099639868" lon="10.224177909277909"><ele>120.5</ele><time>2026-04-06T09:23:18.001Z</time></trkpt><trkpt lat="45.50731483448111" lon="10.22456507996293"><ele>121.0</ele><time>2026-04-06T09:23:19.001Z</time></trkpt><trkpt lat="45.50720781600532" lon="10.224946211896603"><ele>120.0</ele><time>2026-04-06T09:23:19.999Z</time></trkpt><trkpt lat="45.507104963677534" lon="10.225334972052543"><ele>119.0</ele><time>2026-04-06T09:23:20.999Z</time></trkpt><trkpt lat="45.50701742471207" lon="10.225732585811695"><ele>117.5</ele><time>2026-04-06T09:23:21.999Z</time></trkpt><trkpt lat="45.506928690546786" lon="10.226128592053339"><ele>116.0</ele><time>2026-04-06T09:23:22.999Z</time></trkpt><trkpt lat="45.50684177544818" lon="10.226524610548763"><ele>115.0</ele><time>2026-04-06T09:23:23.999Z</time></trkpt><trkpt lat="45.50676224187955" lon="10.226915462876804"><ele>114.0</ele><time>2026-04-06T09:23:24.999Z</time></trkpt><trkpt lat="45.5066876136916" lon="10.227302438988419"><ele>112.5</ele><time>2026-04-06T09:23:25.999Z</time></trkpt><trkpt lat="45.50661689142551" lon="10.22768552479301"><ele>111.0</ele><time>2026-04-06T09:23:26.999Z</time></trkpt><trkpt lat="45.50654884706434" lon="10.228069425348428"><ele>111.5</ele><time>2026-04-06T09:23:27.999Z</time></trkpt><trkpt lat="45.506487216562164" lon="10.22845074242357"><ele>112.0</ele><time>2026-04-06T09:23:28.999Z</time></trkpt><trkpt lat="45.506428670248184" lon="10.22884097923073"><ele>112.5</ele><time>2026-04-06T09:23:29.999Z</time></trkpt><trkpt lat="45.50637434421467" lon="10.229231934568398"><ele>113.0</ele><time>2026-04-06T09:23:30.999Z</time></trkpt><trkpt lat="45.50632229355404" lon="10.229636132819035"><ele>113.5</ele><time>2026-04-06T09:23:32Z</time></trkpt><trkpt lat="45.50627131929115" lon="10.230043669294236"><ele>114.0</ele><time>2026-04-06T09:23:33Z</time></trkpt><trkpt lat="45.506219485511586" lon="10.230455849716982"><ele>113.5</ele><time>2026-04-06T09:23:34Z</time></trkpt><trkpt lat="45.506163146519135" lon="10.230874431476407"><ele>113.0</ele><time>2026-04-06T09:23:35Z</time></trkpt><trkpt lat="45.50610156727012" lon="10.23129663096466"><ele>113.5</ele><time>2026-04-06T09:23:36Z</time></trkpt><trkpt lat="45.50604308379351" lon="10.23170868237646"><ele>114.0</ele><time>2026-04-06T09:23:37Z</time></trkpt><trkpt lat="45.505984945279536" lon="10.232114908327212"><ele>113.0</ele><time>2026-04-06T09:23:38Z</time></trkpt><trkpt lat="45.5059331837552" lon="10.232516408603574"><ele>112.0</ele><time>2026-04-06T09:23:39Z</time></trkpt><trkpt lat="45.50587854201691" lon="10.232908739655665"><ele>113.0</ele><time>2026-04-06T09:23:40Z</time></trkpt><trkpt lat="45.505820922887125" lon="10.233296901191329"><ele>114.0</ele><time>2026-04-06T09:23:41Z</time></trkpt><trkpt lat="45.50575492510052" lon="10.233680211282422"><ele>114.0</ele><time>2026-04-06T09:23:42Z</time></trkpt><trkpt lat="45.505681846273866" lon="10.234066546776415"><ele>114.0</ele><time>2026-04-06T09:23:43Z</time></trkpt><trkpt lat="45.50560333539204" lon="10.23444878106057"><ele>113.5</ele><time>2026-04-06T09:23:44Z</time></trkpt><trkpt lat="45.505523566166715" lon="10.234833240997572"><ele>113.0</ele><time>2026-04-06T09:23:45Z</time></trkpt><trkpt lat="45.50544240769946" lon="10.235216177324569"><ele>114.0</ele><time>2026-04-06T09:23:46Z</time></trkpt><trkpt lat="45.50536060862766" lon="10.23560404932856"><ele>115.0</ele><time>2026-04-06T09:23:47Z</time></trkpt><trkpt lat="45.50527580395241" lon="10.235983853363699"><ele>115.5</ele><time>2026-04-06T09:23:48Z</time></trkpt><trkpt lat="45.50519026848685" lon="10.236365073366757"><ele>116.0</ele><time>2026-04-06T09:23:49Z</time></trkpt><trkpt lat="45.50510066795694" lon="10.236746847026774"><ele>116.0</ele><time>2026-04-06T09:23:50Z</time></trkpt><trkpt lat="45.505014985890384" lon="10.237127270558023"><ele>116.0</ele><time>2026-04-06T09:23:51Z</time></trkpt><trkpt lat="45.50492833539604" lon="10.237509865583943"><ele>115.5</ele><time>2026-04-06T09:23:52Z</time></trkpt><trkpt lat="45.50484390718062" lon="10.23789249378666"><ele>115.0</ele><time>2026-04-06T09:23:53Z</time></trkpt><trkpt lat="45.50476027795595" lon="10.238274982303858"><ele>116.5</ele><time>2026-04-06T09:23:54Z</time></trkpt><trkpt lat="45.50467498663734" lon="10.238659176721423"><ele>118.0</ele><time>2026-04-06T09:23:55Z</time></trkpt><trkpt lat="45.50458783593953" lon="10.239041961868281"><ele>119.0</ele><time>2026-04-06T09:23:56Z</time></trkpt><trkpt lat="45.50450126260781" lon="10.239420930546974"><ele>120.0</ele><time>2026-04-06T09:23:57Z</time></trkpt><trkpt lat="45.5044149448374" lon="10.23978667938279"><ele>120.0</ele><time>2026-04-06T09:23:58Z</time></trkpt><trkpt lat="45.50433045066813" lon="10.240161607876429"><ele>120.0</ele><time>2026-04-06T09:23:59Z</time></trkpt><trkpt lat="45.50424509967477" lon="10.24052367151357"><ele>119.5</ele><time>2026-04-06T09:24:00Z</time></trkpt><trkpt lat="45.504163049786484" lon="10.24087397209755"><ele>119.0</ele><time>2026-04-06T09:24:01Z</time></trkpt><trkpt lat="45.504083314426545" lon="10.241219273014803"><ele>117.0</ele><time>2026-04-06T09:24:02Z</time></trkpt><trkpt lat="45.50400466471928" lon="10.241554545510924"><ele>115.0</ele><time>2026-04-06T09:24:03Z</time></trkpt><trkpt lat="45.50393024189353" lon="10.24188967704332"><ele>115.0</ele><time>2026-04-06T09:24:04Z</time></trkpt><trkpt lat="45.50385726051588" lon="10.242222302527736"><ele>115.0</ele><time>2026-04-06T09:24:05Z</time></trkpt><trkpt lat="45.50378092316842" lon="10.242554165759628"><ele>116.5</ele><time>2026-04-06T09:24:06.001Z</time></trkpt><trkpt lat="45.503705136000065" lon="10.242880108332992"><ele>118.0</ele><time>2026-04-06T09:24:07.001Z</time></trkpt><trkpt lat="45.50362858535085" lon="10.243212673729"><ele>118.5</ele><time>2026-04-06T09:24:08.001Z</time></trkpt><trkpt lat="45.50355326748841" lon="10.2435421257343"><ele>119.0</ele><time>2026-04-06T09:24:09.001Z</time></trkpt><trkpt lat="45.50347645510005" lon="10.243874817425853"><ele>119.0</ele><time>2026-04-06T09:24:10.001Z</time></trkpt><trkpt lat="45.50340130067183" lon="10.244207743552044"><ele>119.0</ele><time>2026-04-06T09:24:11.001Z</time></trkpt><trkpt lat="45.50332498088229" lon="10.244542805585167"><ele>118.5</ele><time>2026-04-06T09:24:12.001Z</time></trkpt><trkpt lat="45.503250850439095" lon="10.244878344192774"><ele>118.0</ele><time>2026-04-06T09:24:13.001Z</time></trkpt><trkpt lat="45.503174599452784" lon="10.245216705765422"><ele>118.0</ele><time>2026-04-06T09:24:14.001Z</time></trkpt><trkpt lat="45.503095276896765" lon="10.245554904012543"><ele>118.0</ele><time>2026-04-06T09:24:15.001Z</time></trkpt><trkpt lat="45.50301691897916" lon="10.245893819069433"><ele>118.5</ele><time>2026-04-06T09:24:16.001Z</time></trkpt><trkpt lat="45.502941979689034" lon="10.246230586491821"><ele>119.0</ele><time>2026-04-06T09:24:17.001Z</time></trkpt><trkpt lat="45.50286928822104" lon="10.246568963404512"><ele>117.5</ele><time>2026-04-06T09:24:18.001Z</time></trkpt><trkpt lat="45.502795173314205" lon="10.246907355054944"><ele>116.0</ele><time>2026-04-06T09:24:19.001Z</time></trkpt><trkpt lat="45.50271691732263" lon="10.247247753027343"><ele>116.0</ele><time>2026-04-06T09:24:20.001Z</time></trkpt><trkpt lat="45.50263725605472" lon="10.247589880015264"><ele>116.0</ele><time>2026-04-06T09:24:21.001Z</time></trkpt><trkpt lat="45.50255851247732" lon="10.24793130474401"><ele>116.0</ele><time>2026-04-06T09:24:22.001Z</time></trkpt><trkpt lat="45.502481225809994" lon="10.248274232486269"><ele>116.0</ele><time>2026-04-06T09:24:23.001Z</time></trkpt><trkpt lat="45.502402131672085" lon="10.248620856370275"><ele>117.0</ele><time>2026-04-06T09:24:24.001Z</time></trkpt><trkpt lat="45.502323055116925" lon="10.248967248930777"><ele>118.0</ele><time>2026-04-06T09:24:25.001Z</time></trkpt><trkpt lat="45.5022424194776" lon="10.249313410174981"><ele>118.0</ele><time>2026-04-06T09:24:26.001Z</time></trkpt><trkpt lat="45.502159299695144" lon="10.249657303351364"><ele>118.0</ele><time>2026-04-06T09:24:27.001Z</time></trkpt><trkpt lat="45.502070897744346" lon="10.250000646318801"><ele>118.5</ele><time>2026-04-06T09:24:28.001Z</time></trkpt><trkpt lat="45.50197889225575" lon="10.25034338550965"><ele>119.0</ele><time>2026-04-06T09:24:29.001Z</time></trkpt><trkpt lat="45.50188216137527" lon="10.2506876660781"><ele>118.0</ele><time>2026-04-06T09:24:30.001Z</time></trkpt><trkpt lat="45.501783489471165" lon="10.25102740627898"><ele>117.0</ele><time>2026-04-06T09:24:31.001Z</time></trkpt><trkpt lat="45.501683396340965" lon="10.251369008332151"><ele>117.0</ele><time>2026-04-06T09:24:32.001Z</time></trkpt><trkpt lat="45.50158472577567" lon="10.25171417824306"><ele>117.0</ele><time>2026-04-06T09:24:33.001Z</time></trkpt><trkpt lat="45.501486780438704" lon="10.252055682096978"><ele>117.0</ele><time>2026-04-06T09:24:34.001Z</time></trkpt><trkpt lat="45.501391259288596" lon="10.252399271672154"><ele>117.0</ele><time>2026-04-06T09:24:35.001Z</time></trkpt><trkpt lat="45.501295618531465" lon="10.252745357370552"><ele>117.5</ele><time>2026-04-06T09:24:36.001Z</time></trkpt><trkpt lat="45.50119885871504" lon="10.253097285092602"><ele>118.0</ele><time>2026-04-06T09:24:37.001Z</time></trkpt><trkpt lat="45.50109937692742" lon="10.253441193591257"><ele>117.5</ele><time>2026-04-06T09:24:38.001Z</time></trkpt><trkpt lat="45.5010010146166" lon="10.253791322935593"><ele>117.0</ele><time>2026-04-06T09:24:39.001Z</time></trkpt><trkpt lat="45.50090185333323" lon="10.254144155865216"><ele>117.0</ele><time>2026-04-06T09:24:40.001Z</time></trkpt><trkpt lat="45.5008012992828" lon="10.25450691895345"><ele>117.0</ele><time>2026-04-06T09:24:41.001Z</time></trkpt><trkpt lat="45.500700191694136" lon="10.25487211340567"><ele>117.5</ele><time>2026-04-06T09:24:42.001Z</time></trkpt><trkpt lat="45.50059641625579" lon="10.255245538442246"><ele>118.0</ele><time>2026-04-06T09:24:43.001Z</time></trkpt><trkpt lat="45.5004914326306" lon="10.255619776690864"><ele>117.5</ele><time>2026-04-06T09:24:44.001Z</time></trkpt><trkpt lat="45.500384583784" lon="10.255999317308104"><ele>117.0</ele><time>2026-04-06T09:24:45.001Z</time></trkpt><trkpt lat="45.50027602677037" lon="10.256381725847284"><ele>118.5</ele><time>2026-04-06T09:24:46.001Z</time></trkpt><trkpt lat="45.50016698649149" lon="10.2567674314152"><ele>120.0</ele><time>2026-04-06T09:24:47.001Z</time></trkpt><trkpt lat="45.50005905282304" lon="10.257149719934644"><ele>121.0</ele><time>2026-04-06T09:24:48.001Z</time></trkpt><trkpt lat="45.49995303652963" lon="10.257531276953223"><ele>122.0</ele><time>2026-04-06T09:24:49.001Z</time></trkpt><trkpt lat="45.49984539015739" lon="10.257911995055313"><ele>122.0</ele><time>2026-04-06T09:24:50.001Z</time></trkpt><trkpt lat="45.49973885090901" lon="10.258289181125384"><ele>122.0</ele><time>2026-04-06T09:24:51.001Z</time></trkpt><trkpt lat="45.49963378497395" lon="10.258658626186984"><ele>122.0</ele><time>2026-04-06T09:24:52.002Z</time></trkpt><trkpt lat="45.4995281593709" lon="10.259032063814514"><ele>122.0</ele><time>2026-04-06T09:24:53.002Z</time></trkpt><trkpt lat="45.499426938929396" lon="10.259391171790842"><ele>122.0</ele><time>2026-04-06T09:24:54.002Z</time></trkpt><trkpt lat="45.49932251904714" lon="10.259753425902263"><ele>122.0</ele><time>2026-04-06T09:24:55.002Z</time></trkpt><trkpt lat="45.499214624652524" lon="10.260114148968544"><ele>121.0</ele><time>2026-04-06T09:24:56.002Z</time></trkpt><trkpt lat="45.49910479287195" lon="10.26047059393958"><ele>120.0</ele><time>2026-04-06T09:24:57.002Z</time></trkpt><trkpt lat="45.49899019682847" lon="10.260826582442185"><ele>119.5</ele><time>2026-04-06T09:24:58.002Z</time></trkpt><trkpt lat="45.49887921337579" lon="10.261183182215795"><ele>119.0</ele><time>2026-04-06T09:24:59.002Z</time></trkpt><trkpt lat="45.49877517616359" lon="10.261542579014227"><ele>118.0</ele><time>2026-04-06T09:25:00.002Z</time></trkpt><trkpt lat="45.498677878035906" lon="10.261906287264601"><ele>117.0</ele><time>2026-04-06T09:25:01.002Z</time></trkpt><trkpt lat="45.498579411723945" lon="10.262269474389958"><ele>117.5</ele><time>2026-04-06T09:25:02.002Z</time></trkpt><trkpt lat="45.49847859905152" lon="10.26263166317673"><ele>118.0</ele><time>2026-04-06T09:25:03.002Z</time></trkpt><trkpt lat="45.49837685511756" lon="10.262987127200606"><ele>119.0</ele><time>2026-04-06T09:25:04.002Z</time></trkpt><trkpt lat="45.498276284664314" lon="10.263344231354445"><ele>120.0</ele><time>2026-04-06T09:25:05.002Z</time></trkpt><trkpt lat="45.498177349764354" lon="10.263700200387044"><ele>120.0</ele><time>2026-04-06T09:25:06.002Z</time></trkpt><trkpt lat="45.4980794285972" lon="10.26405681687305"><ele>120.0</ele><time>2026-04-06T09:25:07.002Z</time></trkpt><trkpt lat="45.49798193488581" lon="10.264409311595063"><ele>120.0</ele><time>2026-04-06T09:25:08.002Z</time></trkpt><trkpt lat="45.497881075623354" lon="10.264762691539845"><ele>120.0</ele><time>2026-04-06T09:25:09.002Z</time></trkpt><trkpt lat="45.49777992872684" lon="10.265114691482495"><ele>120.0</ele><time>2026-04-06T09:25:10.002Z</time></trkpt><trkpt lat="45.49768282999374" lon="10.265466972352622"><ele>120.0</ele><time>2026-04-06T09:25:11.002Z</time></trkpt><trkpt lat="45.49758711933915" lon="10.265819631574548"><ele>120.0</ele><time>2026-04-06T09:25:12.002Z</time></trkpt><trkpt lat="45.49749002637396" lon="10.266169851514967"><ele>120.0</ele><time>2026-04-06T09:25:13.002Z</time></trkpt><trkpt lat="45.49739211090188" lon="10.266519943534412"><ele>121.0</ele><time>2026-04-06T09:25:14.002Z</time></trkpt><trkpt lat="45.49729251222384" lon="10.266870251225502"><ele>122.0</ele><time>2026-04-06T09:25:15.002Z</time></trkpt><trkpt lat="45.49719311891811" lon="10.267223488882182"><ele>122.5</ele><time>2026-04-06T09:25:16.002Z</time></trkpt><trkpt lat="45.49709303379858" lon="10.267579565956236"><ele>123.0</ele><time>2026-04-06T09:25:17.002Z</time></trkpt><trkpt lat="45.496991494235125" lon="10.267936723002492"><ele>124.5</ele><time>2026-04-06T09:25:18.002Z</time></trkpt><trkpt lat="45.49689002112946" lon="10.268294463513406"><ele>126.0</ele><time>2026-04-06T09:25:19.002Z</time></trkpt><trkpt lat="45.496785645340665" lon="10.26865336686509"><ele>124.0</ele><time>2026-04-06T09:25:20.002Z</time></trkpt><trkpt lat="45.49667429970235" lon="10.269014240193684"><ele>122.0</ele><time>2026-04-06T09:25:21.002Z</time></trkpt><trkpt lat="45.496583114155406" lon="10.269384570141336"><ele>122.0</ele><time>2026-04-06T09:25:22.002Z</time></trkpt><trkpt lat="45.49648310665679" lon="10.269746344742563"><ele>122.0</ele><time>2026-04-06T09:25:23.002Z</time></trkpt><trkpt lat="45.49638139273995" lon="10.270107433887775"><ele>123.0</ele><time>2026-04-06T09:25:24.002Z</time></trkpt><trkpt lat="45.49627907846456" lon="10.270463075071042"><ele>124.0</ele><time>2026-04-06T09:25:25.002Z</time></trkpt><trkpt lat="45.49618104798306" lon="10.27081492818378"><ele>124.0</ele><time>2026-04-06T09:25:26.001Z</time></trkpt><trkpt lat="45.4960842065879" lon="10.271158223527234"><ele>124.0</ele><time>2026-04-06T09:25:27.001Z</time></trkpt><trkpt lat="45.49598826229344" lon="10.271500441536253"><ele>124.0</ele><time>2026-04-06T09:25:28.001Z</time></trkpt><trkpt lat="45.495892111702055" lon="10.2718354704887"><ele>124.0</ele><time>2026-04-06T09:25:29.001Z</time></trkpt><trkpt lat="45.495796372357134" lon="10.272167960597773"><ele>124.5</ele><time>2026-04-06T09:25:30.001Z</time></trkpt><trkpt lat="45.495701391603504" lon="10.2725001914804"><ele>125.0</ele><time>2026-04-06T09:25:31.001Z</time></trkpt><trkpt lat="45.49560908013253" lon="10.272832620093723"><ele>126.0</ele><time>2026-04-06T09:25:32.001Z</time></trkpt><trkpt lat="45.49550770436874" lon="10.273137339655129"><ele>127.0</ele><time>2026-04-06T09:25:33.001Z</time></trkpt><trkpt lat="45.4954233157208" lon="10.273490422866788"><ele>127.0</ele><time>2026-04-06T09:25:34.001Z</time></trkpt><trkpt lat="45.495331535595845" lon="10.273808701271568"><ele>127.0</ele><time>2026-04-06T09:25:35.001Z</time></trkpt><trkpt lat="45.495239697225834" lon="10.274119550408141"><ele>127.0</ele><time>2026-04-06T09:25:36.001Z</time></trkpt><trkpt lat="45.49515159075747" lon="10.274422568431099"><ele>127.0</ele><time>2026-04-06T09:25:37.001Z</time></trkpt><trkpt lat="45.49506334925911" lon="10.274726161652909"><ele>127.5</ele><time>2026-04-06T09:25:38.001Z</time></trkpt><trkpt lat="45.49497378632554" lon="10.275030400633892"><ele>128.0</ele><time>2026-04-06T09:25:39.001Z</time></trkpt><trkpt lat="45.494882782353" lon="10.275333941909567"><ele>128.0</ele><time>2026-04-06T09:25:40.001Z</time></trkpt><trkpt lat="45.49478555465306" lon="10.275635049717241"><ele>128.0</ele><time>2026-04-06T09:25:41.001Z</time></trkpt><trkpt lat="45.49468590280946" lon="10.275936090742059"><ele>127.5</ele><time>2026-04-06T09:25:42.001Z</time></trkpt><trkpt lat="45.49458743763936" lon="10.276234869570711"><ele>127.0</ele><time>2026-04-06T09:25:43.001Z</time></trkpt><trkpt lat="45.494488822773256" lon="10.276537275536201"><ele>127.0</ele><time>2026-04-06T09:25:44.001Z</time></trkpt><trkpt lat="45.49439173632172" lon="10.276851110436052"><ele>127.0</ele><time>2026-04-06T09:25:45.001Z</time></trkpt><trkpt lat="45.49429460666373" lon="10.27717815459526"><ele>128.0</ele><time>2026-04-06T09:25:46.001Z</time></trkpt><trkpt lat="45.494195856417356" lon="10.277522148563762"><ele>129.0</ele><time>2026-04-06T09:25:47.001Z</time></trkpt><trkpt lat="45.494083206570274" lon="10.277870416020802"><ele>128.5</ele><time>2026-04-06T09:25:48.001Z</time></trkpt><trkpt lat="45.493967282705874" lon="10.27821088918025"><ele>128.0</ele><time>2026-04-06T09:25:49.001Z</time></trkpt><trkpt lat="45.49385837516912" lon="10.278543856267937"><ele>128.0</ele><time>2026-04-06T09:25:50.001Z</time></trkpt><trkpt lat="45.49375216154798" lon="10.278878017730994"><ele>128.0</ele><time>2026-04-06T09:25:51.001Z</time></trkpt><trkpt lat="45.4936448270843" lon="10.279206729239894"><ele>128.0</ele><time>2026-04-06T09:25:52.001Z</time></trkpt><trkpt lat="45.49353852378184" lon="10.279540802128809"><ele>128.0</ele><time>2026-04-06T09:25:53.001Z</time></trkpt><trkpt lat="45.49343243200682" lon="10.279872230048936"><ele>128.5</ele><time>2026-04-06T09:25:54.001Z</time></trkpt><trkpt lat="45.493325728330134" lon="10.280203236636344"><ele>129.0</ele><time>2026-04-06T09:25:55.001Z</time></trkpt><trkpt lat="45.49321499184831" lon="10.280537101548731"><ele>129.0</ele><time>2026-04-06T09:25:56.001Z</time></trkpt><trkpt lat="45.493105901116955" lon="10.280871439080622"><ele>129.0</ele><time>2026-04-06T09:25:57.001Z</time></trkpt><trkpt lat="45.49299748348686" lon="10.281205744867325"><ele>129.5</ele><time>2026-04-06T09:25:58.001Z</time></trkpt><trkpt lat="45.49288878434836" lon="10.281539790246063"><ele>130.0</ele><time>2026-04-06T09:25:59.001Z</time></trkpt><trkpt lat="45.49278076616022" lon="10.28187247109118"><ele>130.0</ele><time>2026-04-06T09:26:00.001Z</time></trkpt><trkpt lat="45.49267003360335" lon="10.282194103186207"><ele>130.0</ele><time>2026-04-06T09:26:01.001Z</time></trkpt><trkpt lat="45.492570850271825" lon="10.282516794905272"><ele>128.5</ele><time>2026-04-06T09:26:02.001Z</time></trkpt><trkpt lat="45.492466808831765" lon="10.282836105060976"><ele>127.0</ele><time>2026-04-06T09:26:03.001Z</time></trkpt><trkpt lat="45.492363994641295" lon="10.283154475657112"><ele>127.0</ele><time>2026-04-06T09:26:04.001Z</time></trkpt><trkpt lat="45.492259536862264" lon="10.283481733056858"><ele>127.0</ele><time>2026-04-06T09:26:05.001Z</time></trkpt><trkpt lat="45.492153161378056" lon="10.283809168502302"><ele>127.5</ele><time>2026-04-06T09:26:06.001Z</time></trkpt><trkpt lat="45.492048599917446" lon="10.284135505137632"><ele>128.0</ele><time>2026-04-06T09:26:07.001Z</time></trkpt><trkpt lat="45.49194434735072" lon="10.284465128563689"><ele>128.0</ele><time>2026-04-06T09:26:08.001Z</time></trkpt><trkpt lat="45.491837060127025" lon="10.284796523842564"><ele>128.0</ele><time>2026-04-06T09:26:09.001Z</time></trkpt><trkpt lat="45.491732490879706" lon="10.285124505257555"><ele>128.0</ele><time>2026-04-06T09:26:10.001Z</time></trkpt><trkpt lat="45.49161998785704" lon="10.285451747280343"><ele>128.0</ele><time>2026-04-06T09:26:11.001Z</time></trkpt><trkpt lat="45.491511919935704" lon="10.285786007377643"><ele>127.5</ele><time>2026-04-06T09:26:12.001Z</time></trkpt><trkpt lat="45.491399954995025" lon="10.286119688322774"><ele>127.0</ele><time>2026-04-06T09:26:13.001Z</time></trkpt><trkpt lat="45.49128975273017" lon="10.286456261316951"><ele>127.5</ele><time>2026-04-06T09:26:14.001Z</time></trkpt><trkpt lat="45.49117906368006" lon="10.286792535392982"><ele>128.0</ele><time>2026-04-06T09:26:15.001Z</time></trkpt><trkpt lat="45.49106872426517" lon="10.28712845893888"><ele>128.5</ele><time>2026-04-06T09:26:16.001Z</time></trkpt><trkpt lat="45.49095903199258" lon="10.28746946266252"><ele>129.0</ele><time>2026-04-06T09:26:17.001Z</time></trkpt><trkpt lat="45.49084893731516" lon="10.287804484039555"><ele>128.5</ele><time>2026-04-06T09:26:18.001Z</time></trkpt><trkpt lat="45.4907397569167" lon="10.288134719309513"><ele>128.0</ele><time>2026-04-06T09:26:19.001Z</time></trkpt><trkpt lat="45.49062709447175" lon="10.28846855944055"><ele>128.0</ele><time>2026-04-06T09:26:20.001Z</time></trkpt><trkpt lat="45.49050861902174" lon="10.288822398172236"><ele>128.0</ele><time>2026-04-06T09:26:21.001Z</time></trkpt><trkpt lat="45.490378519784805" lon="10.289194277233355"><ele>129.0</ele><time>2026-04-06T09:26:22.001Z</time></trkpt><trkpt lat="45.490249049976924" lon="10.289597094264892"><ele>130.0</ele><time>2026-04-06T09:26:23.001Z</time></trkpt><trkpt lat="45.49011822666742" lon="10.290025316831148"><ele>130.0</ele><time>2026-04-06T09:26:24.001Z</time></trkpt><trkpt lat="45.489991393262606" lon="10.29046418294111"><ele>130.0</ele><time>2026-04-06T09:26:25.001Z</time></trkpt><trkpt lat="45.4898688649613" lon="10.290904791712537"><ele>129.5</ele><time>2026-04-06T09:26:26.001Z</time></trkpt><trkpt lat="45.48975563536699" lon="10.291313932052917"><ele>129.0</ele><time>2026-04-06T09:26:27.001Z</time></trkpt><trkpt lat="45.4896543216701" lon="10.291694013562852"><ele>129.0</ele><time>2026-04-06T09:26:28.001Z</time></trkpt><trkpt lat="45.48955918385203" lon="10.292057654379795"><ele>129.0</ele><time>2026-04-06T09:26:29.001Z</time></trkpt><trkpt lat="45.4894658155544" lon="10.292415098993889"><ele>129.0</ele><time>2026-04-06T09:26:30.001Z</time></trkpt><trkpt lat="45.48937224042888" lon="10.292798517968578"><ele>129.0</ele><time>2026-04-06T09:26:31.001Z</time></trkpt><trkpt lat="45.489279194184284" lon="10.293203076755432"><ele>129.5</ele><time>2026-04-06T09:26:32.001Z</time></trkpt><trkpt lat="45.489181559768426" lon="10.293621896356568"><ele>130.0</ele><time>2026-04-06T09:26:33.001Z</time></trkpt><trkpt lat="45.48907569980506" lon="10.29404638817836"><ele>130.0</ele><time>2026-04-06T09:26:34.002Z</time></trkpt><trkpt lat="45.48897109877891" lon="10.294455915668225"><ele>130.0</ele><time>2026-04-06T09:26:35.002Z</time></trkpt><trkpt lat="45.48887187667597" lon="10.294847223365831"><ele>130.0</ele><time>2026-04-06T09:26:36.002Z</time></trkpt><trkpt lat="45.48877871842998" lon="10.295231772630897"><ele>130.0</ele><time>2026-04-06T09:26:37.002Z</time></trkpt><trkpt lat="45.48868749398831" lon="10.29561086502365"><ele>130.0</ele><time>2026-04-06T09:26:38.002Z</time></trkpt><trkpt lat="45.48859562729527" lon="10.295973306986847"><ele>130.0</ele><time>2026-04-06T09:26:39.002Z</time></trkpt><trkpt lat="45.48850617877136" lon="10.296341733535057"><ele>130.5</ele><time>2026-04-06T09:26:40.002Z</time></trkpt><trkpt lat="45.48842402462895" lon="10.296703451402287"><ele>131.0</ele><time>2026-04-06T09:26:41.002Z</time></trkpt><trkpt lat="45.488340859794924" lon="10.297077430373998"><ele>130.0</ele><time>2026-04-06T09:26:42.002Z</time></trkpt><trkpt lat="45.48825570542523" lon="10.297471139065076"><ele>129.0</ele><time>2026-04-06T09:26:43.002Z</time></trkpt><trkpt lat="45.48816064277413" lon="10.297870966955363"><ele>130.0</ele><time>2026-04-06T09:26:44.002Z</time></trkpt><trkpt lat="45.48805418855951" lon="10.298252713760759"><ele>131.0</ele><time>2026-04-06T09:26:45.002Z</time></trkpt><trkpt lat="45.48794888047976" lon="10.298637553783752"><ele>132.0</ele><time>2026-04-06T09:26:46.002Z</time></trkpt><trkpt lat="45.487854047377716" lon="10.299031277331322"><ele>133.0</ele><time>2026-04-06T09:26:47.002Z</time></trkpt><trkpt lat="45.487766935976985" lon="10.299425506740954"><ele>132.0</ele><time>2026-04-06T09:26:48.002Z</time></trkpt><trkpt lat="45.48767746537377" lon="10.299802891528062"><ele>131.0</ele><time>2026-04-06T09:26:49.002Z</time></trkpt><trkpt lat="45.487587780816085" lon="10.300150957551635"><ele>131.0</ele><time>2026-04-06T09:26:50.002Z</time></trkpt><trkpt lat="45.48750013032304" lon="10.300493990880923"><ele>131.0</ele><time>2026-04-06T09:26:51.002Z</time></trkpt><trkpt lat="45.48741195296736" lon="10.300845038227392"><ele>131.0</ele><time>2026-04-06T09:26:52.002Z</time></trkpt><trkpt lat="45.487318758626984" lon="10.301204594937603"><ele>131.0</ele><time>2026-04-06T09:26:53.002Z</time></trkpt><trkpt lat="45.487230190127235" lon="10.301540492032581"><ele>131.0</ele><time>2026-04-06T09:26:54.002Z</time></trkpt><trkpt lat="45.48715266362189" lon="10.301850475627395"><ele>131.0</ele><time>2026-04-06T09:26:55.002Z</time></trkpt><trkpt lat="45.48708174164135" lon="10.302123917742438"><ele>131.0</ele><time>2026-04-06T09:26:56.002Z</time></trkpt><trkpt lat="45.487017091603256" lon="10.302381797317983"><ele>131.0</ele><time>2026-04-06T09:26:57.002Z</time></trkpt><trkpt lat="45.486954102877455" lon="10.302656106122052"><ele>131.0</ele><time>2026-04-06T09:26:58.002Z</time></trkpt><trkpt lat="45.48687484990117" lon="10.302996496699345"><ele>131.5</ele><time>2026-04-06T09:26:59.002Z</time></trkpt><trkpt lat="45.48679058864195" lon="10.303330712036903"><ele>132.0</ele><time>2026-04-06T09:27:00.002Z</time></trkpt><trkpt lat="45.48670153526099" lon="10.303657256895475"><ele>132.5</ele><time>2026-04-06T09:27:01.002Z</time></trkpt><trkpt lat="45.486611721960045" lon="10.303987347316475"><ele>133.0</ele><time>2026-04-06T09:27:02.002Z</time></trkpt><trkpt lat="45.48652273639418" lon="10.304311823239528"><ele>133.0</ele><time>2026-04-06T09:27:03.002Z</time></trkpt><trkpt lat="45.48644428317466" lon="10.304614084350558"><ele>133.0</ele><time>2026-04-06T09:27:04.002Z</time></trkpt><trkpt lat="45.48637005841735" lon="10.304903734200654"><ele>133.0</ele><time>2026-04-06T09:27:05.002Z</time></trkpt><trkpt lat="45.48629724136715" lon="10.305185698321829"><ele>133.0</ele><time>2026-04-06T09:27:06.002Z</time></trkpt><trkpt lat="45.486227615186685" lon="10.305460464747368"><ele>133.0</ele><time>2026-04-06T09:27:07.002Z</time></trkpt><trkpt lat="45.48615710451912" lon="10.305749700202988"><ele>133.0</ele><time>2026-04-06T09:27:08.002Z</time></trkpt><trkpt lat="45.48608805455252" lon="10.306033028940908"><ele>133.0</ele><time>2026-04-06T09:27:09.002Z</time></trkpt><trkpt lat="45.48601623858715" lon="10.306312715657247"><ele>133.0</ele><time>2026-04-06T09:27:10.002Z</time></trkpt><trkpt lat="45.48593050663928" lon="10.306602110415914"><ele>133.0</ele><time>2026-04-06T09:27:11.002Z</time></trkpt><trkpt lat="45.485831053085896" lon="10.30692855525807"><ele>133.0</ele><time>2026-04-06T09:27:12.002Z</time></trkpt><trkpt lat="45.485738743203335" lon="10.30729030887458"><ele>133.0</ele><time>2026-04-06T09:27:13.002Z</time></trkpt><trkpt lat="45.485648041007785" lon="10.307663045853493"><ele>133.0</ele><time>2026-04-06T09:27:14.002Z</time></trkpt><trkpt lat="45.48555605158292" lon="10.308046219684579"><ele>133.0</ele><time>2026-04-06T09:27:15.002Z</time></trkpt><trkpt lat="45.485460267645465" lon="10.308438934571711"><ele>133.5</ele><time>2026-04-06T09:27:16.002Z</time></trkpt><trkpt lat="45.48536540775213" lon="10.308835153081606"><ele>134.0</ele><time>2026-04-06T09:27:17.002Z</time></trkpt><trkpt lat="45.48527481560111" lon="10.309219211915119"><ele>134.5</ele><time>2026-04-06T09:27:18.002Z</time></trkpt><trkpt lat="45.48516481463605" lon="10.309647908436073"><ele>135.0</ele><time>2026-04-06T09:27:19.002Z</time></trkpt><trkpt lat="45.485072605979724" lon="10.310041528187428"><ele>135.5</ele><time>2026-04-06T09:27:20.002Z</time></trkpt><trkpt lat="45.48498348727679" lon="10.310434829409658"><ele>136.0</ele><time>2026-04-06T09:27:21.002Z</time></trkpt><trkpt lat="45.48489752950657" lon="10.31081099054345"><ele>136.0</ele><time>2026-04-06T09:27:22.002Z</time></trkpt><trkpt lat="45.48480876002918" lon="10.31117130713403"><ele>136.0</ele><time>2026-04-06T09:27:23.002Z</time></trkpt><trkpt lat="45.48471313544469" lon="10.311535927417873"><ele>136.0</ele><time>2026-04-06T09:27:24.002Z</time></trkpt><trkpt lat="45.484618840144535" lon="10.311896023325627"><ele>136.0</ele><time>2026-04-06T09:27:25.002Z</time></trkpt><trkpt lat="45.484533437912994" lon="10.312244476603805"><ele>135.0</ele><time>2026-04-06T09:27:26.002Z</time></trkpt><trkpt lat="45.484452551566406" lon="10.31256242805439"><ele>134.0</ele><time>2026-04-06T09:27:27.003Z</time></trkpt><trkpt lat="45.48437578748033" lon="10.312855171735155"><ele>134.33333333333331</ele><time>2026-04-06T09:27:28.003Z</time></trkpt><trkpt lat="45.48430120359658" lon="10.313129334234441"><ele>134.66666666666666</ele><time>2026-04-06T09:27:29.003Z</time></trkpt><trkpt lat="45.48423026516259" lon="10.3133969385788"><ele>135.0</ele><time>2026-04-06T09:27:30.003Z</time></trkpt><trkpt lat="45.484160194334194" lon="10.313656217231035"><ele>135.33333333333334</ele><time>2026-04-06T09:27:31.003Z</time></trkpt><trkpt lat="45.48408725535707" lon="10.313929705123545"><ele>135.66666666666669</ele><time>2026-04-06T09:27:32.002Z</time></trkpt><trkpt lat="45.484012939402184" lon="10.314212393256806"><ele>136.0</ele><time>2026-04-06T09:27:33.002Z</time></trkpt><trkpt lat="45.483942410819935" lon="10.314478447715045"><ele>136.33333333333334</ele><time>2026-04-06T09:27:34.002Z</time></trkpt><trkpt lat="45.483879058652114" lon="10.314742334875117"><ele>136.66666666666666</ele><time>2026-04-06T09:27:35.002Z</time></trkpt><trkpt lat="45.483820346039835" lon="10.315016230690434"><ele>137.0</ele><time>2026-04-06T09:27:36.002Z</time></trkpt><trkpt lat="45.48376379577034" lon="10.315326619308724"><ele>135.5</ele><time>2026-04-06T09:27:37.002Z</time></trkpt><trkpt lat="45.483684483924215" lon="10.315653525938934"><ele>134.0</ele><time>2026-04-06T09:27:38.002Z</time></trkpt><trkpt lat="45.48357565698673" lon="10.31601997692706"><ele>134.0</ele><time>2026-04-06T09:27:39.002Z</time></trkpt><trkpt lat="45.48348956693616" lon="10.316410833152299"><ele>134.0</ele><time>2026-04-06T09:27:40.002Z</time></trkpt><trkpt lat="45.48342265558946" lon="10.316889996215487"><ele>134.0</ele><time>2026-04-06T09:27:41.002Z</time></trkpt><trkpt lat="45.48334831032982" lon="10.317175937724459"><ele>134.0</ele><time>2026-04-06T09:27:42.002Z</time></trkpt><trkpt lat="45.48326297605658" lon="10.317550113599914"><ele>134.0</ele><time>2026-04-06T09:27:43.002Z</time></trkpt><trkpt lat="45.48317755314327" lon="10.317933568567774"><ele>134.0</ele><time>2026-04-06T09:27:44.002Z</time></trkpt><trkpt lat="45.48309879931369" lon="10.318305974368812"><ele>135.0</ele><time>2026-04-06T09:27:45.001Z</time></trkpt><trkpt lat="45.48303341729986" lon="10.318659022414826"><ele>136.0</ele><time>2026-04-06T09:27:46.001Z</time></trkpt><trkpt lat="45.48297310749841" lon="10.319004201705106"><ele>135.5</ele><time>2026-04-06T09:27:47.001Z</time></trkpt><trkpt lat="45.482881114278726" lon="10.319379211449293"><ele>135.0</ele><time>2026-04-06T09:27:48.001Z</time></trkpt><trkpt lat="45.48279680565703" lon="10.319760019437112"><ele>135.0</ele><time>2026-04-06T09:27:49.001Z</time></trkpt><trkpt lat="45.48270395797871" lon="10.320151884147748"><ele>135.0</ele><time>2026-04-06T09:27:50.001Z</time></trkpt><trkpt lat="45.48261101558742" lon="10.320534229256632"><ele>135.0</ele><time>2026-04-06T09:27:51.001Z</time></trkpt><trkpt lat="45.4825245945739" lon="10.320911846568045"><ele>135.0</ele><time>2026-04-06T09:27:52.001Z</time></trkpt><trkpt lat="45.482443945134996" lon="10.321319060632682"><ele>134.0</ele><time>2026-04-06T09:27:53.001Z</time></trkpt><trkpt lat="45.482361895205656" lon="10.321740099326306"><ele>133.0</ele><time>2026-04-06T09:27:54.001Z</time></trkpt><trkpt lat="45.482274436467364" lon="10.322138053718325"><ele>134.0</ele><time>2026-04-06T09:27:55.001Z</time></trkpt><trkpt lat="45.48218901156422" lon="10.322499389651577"><ele>135.0</ele><time>2026-04-06T09:27:56.001Z</time></trkpt><trkpt lat="45.48210610228714" lon="10.322851720478782"><ele>135.0</ele><time>2026-04-06T09:27:57.001Z</time></trkpt><trkpt lat="45.48202708402081" lon="10.323189513370087"><ele>135.0</ele><time>2026-04-06T09:27:58.001Z</time></trkpt><trkpt lat="45.48194857386828" lon="10.323529493616956"><ele>135.0</ele><time>2026-04-06T09:27:59.001Z</time></trkpt><trkpt lat="45.481870367662886" lon="10.323879543543612"><ele>135.0</ele><time>2026-04-06T09:28:00.001Z</time></trkpt><trkpt lat="45.48179363842602" lon="10.324229618539643"><ele>135.0</ele><time>2026-04-06T09:28:01.001Z</time></trkpt><trkpt lat="45.481711284325854" lon="10.324586029332819"><ele>135.0</ele><time>2026-04-06T09:28:02.001Z</time></trkpt><trkpt lat="45.48161776762568" lon="10.32495018566793"><ele>135.5</ele><time>2026-04-06T09:28:03.001Z</time></trkpt><trkpt lat="45.4815096560972" lon="10.325329752914941"><ele>136.0</ele><time>2026-04-06T09:28:04.001Z</time></trkpt><trkpt lat="45.48139711266983" lon="10.325691533112845"><ele>136.33333333333334</ele><time>2026-04-06T09:28:05.001Z</time></trkpt><trkpt lat="45.4813077729795" lon="10.325979541387303"><ele>136.66666666666666</ele><time>2026-04-06T09:28:06.001Z</time></trkpt><trkpt lat="45.48123867942306" lon="10.326231890265625"><ele>137.0</ele><time>2026-04-06T09:28:07.001Z</time></trkpt><trkpt lat="45.48116740928222" lon="10.326453146877716"><ele>136.33333333333331</ele><time>2026-04-06T09:28:08.001Z</time></trkpt><trkpt lat="45.48106689210074" lon="10.326631796900386"><ele>135.66666666666666</ele><time>2026-04-06T09:28:09.001Z</time></trkpt><trkpt lat="45.48093952236978" lon="10.326756057416448"><ele>135.0</ele><time>2026-04-06T09:28:10.001Z</time></trkpt><trkpt lat="45.48078417208346" lon="10.326832118792192"><ele>135.0</ele><time>2026-04-06T09:28:11.001Z</time></trkpt><trkpt lat="45.48061372481386" lon="10.326864452499423"><ele>135.0</ele><time>2026-04-06T09:28:12.001Z</time></trkpt><trkpt lat="45.48044652517274" lon="10.326819341867711"><ele>135.0</ele><time>2026-04-06T09:28:13.001Z</time></trkpt><trkpt lat="45.48030368919092" lon="10.32672285090732"><ele>134.66666666666666</ele><time>2026-04-06T09:28:14.001Z</time></trkpt><trkpt lat="45.48017519722269" lon="10.326589056845613"><ele>134.33333333333331</ele><time>2026-04-06T09:28:15.001Z</time></trkpt><trkpt lat="45.480071044291634" lon="10.326402928648532"><ele>134.0</ele><time>2026-04-06T09:28:16.001Z</time></trkpt><trkpt lat="45.48001087373978" lon="10.32619970950021"><ele>134.0</ele><time>2026-04-06T09:28:17.001Z</time></trkpt><trkpt lat="45.47998073377407" lon="10.325991429305247"><ele>134.0</ele><time>2026-04-06T09:28:18.001Z</time></trkpt><trkpt lat="45.479996740777736" lon="10.325781213095025"><ele>134.0</ele><time>2026-04-06T09:28:19.001Z</time></trkpt><trkpt lat="45.480028415815646" lon="10.325569676958134"><ele>134.0</ele><time>2026-04-06T09:28:20.001Z</time></trkpt><trkpt lat="45.48010740736614" lon="10.3253793395834"><ele>134.33333333333331</ele><time>2026-04-06T09:28:21.001Z</time></trkpt><trkpt lat="45.480209190666784" lon="10.325220211823963"><ele>134.66666666666666</ele><time>2026-04-06T09:28:22.001Z</time></trkpt><trkpt lat="45.48034053846018" lon="10.32511822816366"><ele>135.0</ele><time>2026-04-06T09:28:23.001Z</time></trkpt><trkpt lat="45.48048821125294" lon="10.325055579442797"><ele>135.33333333333334</ele><time>2026-04-06T09:28:24.001Z</time></trkpt><trkpt lat="45.48063514302483" lon="10.325038149385293"><ele>135.66666666666669</ele><time>2026-04-06T09:28:25.001Z</time></trkpt><trkpt lat="45.48078880513402" lon="10.325063755925642"><ele>136.0</ele><time>2026-04-06T09:28:26.001Z</time></trkpt><trkpt lat="45.480934925442746" lon="10.325139836046429"><ele>136.0</ele><time>2026-04-06T09:28:27.001Z</time></trkpt><trkpt lat="45.48108690324238" lon="10.325220858491873"><ele>136.0</ele><time>2026-04-06T09:28:28.001Z</time></trkpt><trkpt lat="45.48124130184338" lon="10.325291500700763"><ele>136.0</ele><time>2026-04-06T09:28:29.001Z</time></trkpt><trkpt lat="45.48140799782126" lon="10.325360948448449"><ele>136.0</ele><time>2026-04-06T09:28:30.001Z</time></trkpt><trkpt lat="45.48158772811772" lon="10.325434906332571"><ele>136.0</ele><time>2026-04-06T09:28:31.001Z</time></trkpt><trkpt lat="45.481763662247346" lon="10.325512570596008"><ele>136.0</ele><time>2026-04-06T09:28:32.001Z</time></trkpt><trkpt lat="45.481938442217825" lon="10.325585822885246"><ele>135.33333333333334</ele><time>2026-04-06T09:28:33.001Z</time></trkpt><trkpt lat="45.48209966426461" lon="10.325631756578169"><ele>134.66666666666666</ele><time>2026-04-06T09:28:34.001Z</time></trkpt><trkpt lat="45.482268440483175" lon="10.325649980489997"><ele>134.0</ele><time>2026-04-06T09:28:35.001Z</time></trkpt><trkpt lat="45.482441236168356" lon="10.325642078455916"><ele>134.0</ele><time>2026-04-06T09:28:36.001Z</time></trkpt><trkpt lat="45.482607681037926" lon="10.325598401367236"><ele>134.0</ele><time>2026-04-06T09:28:37.001Z</time></trkpt><trkpt lat="45.482764266633296" lon="10.325520101316707"><ele>134.0</ele><time>2026-04-06T09:28:38.002Z</time></trkpt><trkpt lat="45.4829238592602" lon="10.325408228101564"><ele>134.66666666666666</ele><time>2026-04-06T09:28:39.002Z</time></trkpt><trkpt lat="45.48307245413635" lon="10.325273639003916"><ele>135.33333333333334</ele><time>2026-04-06T09:28:40.002Z</time></trkpt><trkpt lat="45.48320227344267" lon="10.325121604470125"><ele>136.0</ele><time>2026-04-06T09:28:41.002Z</time></trkpt><trkpt lat="45.483315731443426" lon="10.324950593065003"><ele>136.0</ele><time>2026-04-06T09:28:42.002Z</time></trkpt><trkpt lat="45.48340985374328" lon="10.324767670587095"><ele>136.0</ele><time>2026-04-06T09:28:43.002Z</time></trkpt><trkpt lat="45.483486444789044" lon="10.32457066050515"><ele>136.0</ele><time>2026-04-06T09:28:44.002Z</time></trkpt><trkpt lat="45.48354831754747" lon="10.32436747497391"><ele>135.75</ele><time>2026-04-06T09:28:45.002Z</time></trkpt><trkpt lat="45.48361377091376" lon="10.324177536636025"><ele>135.5</ele><time>2026-04-06T09:28:46.002Z</time></trkpt><trkpt lat="45.483718542122524" lon="10.324012892367142"><ele>135.25</ele><time>2026-04-06T09:28:47.002Z</time></trkpt><trkpt lat="45.48376087993063" lon="10.323850845529334"><ele>135.0</ele><time>2026-04-06T09:28:48.002Z</time></trkpt><trkpt lat="45.483791370888284" lon="10.32373414219876"><ele>134.83333333333334</ele><time>2026-04-06T09:28:49.002Z</time></trkpt><trkpt lat="45.48381866283193" lon="10.323629683006951"><ele>134.66666666666666</ele><time>2026-04-06T09:28:50.002Z</time></trkpt><trkpt lat="45.48384847503374" lon="10.323522193827959"><ele>134.5</ele><time>2026-04-06T09:28:51.002Z</time></trkpt><trkpt lat="45.48388576446484" lon="10.323397247668282"><ele>134.33333333333331</ele><time>2026-04-06T09:28:52.002Z</time></trkpt><trkpt lat="45.483917834207574" lon="10.323273072783199"><ele>134.16666666666666</ele><time>2026-04-06T09:28:53.002Z</time></trkpt><trkpt lat="45.48394181619223" lon="10.323175534944175"><ele>134.0</ele><time>2026-04-06T09:28:54.002Z</time></trkpt><trkpt lat="45.483970004263035" lon="10.323054724711566"><ele>134.33333333333331</ele><time>2026-04-06T09:28:56.002Z</time></trkpt><trkpt lat="45.48399269104939" lon="10.32295713278107"><ele>134.66666666666666</ele><time>2026-04-06T09:29:24.002Z</time></trkpt><trkpt lat="45.48401590306675" lon="10.322853365078348"><ele>135.0</ele><time>2026-04-06T09:30:15.001Z</time></trkpt><trkpt lat="45.4840359146247" lon="10.322763266719463"><ele>135.33333333333334</ele><time>2026-04-06T09:31:26.002Z</time></trkpt><trkpt lat="45.484084509888056" lon="10.322567988774583"><ele>135.66666666666669</ele><time>2026-04-06T09:33:51.001Z</time></trkpt><trkpt lat="45.484095142705364" lon="10.322472377721352"><ele>136.0</ele><time>2026-04-06T09:33:52.001Z</time></trkpt><trkpt lat="45.484130968768675" lon="10.322317879152266"><ele>135.83333333333334</ele><time>2026-04-06T09:33:53.001Z</time></trkpt><trkpt lat="45.48416283882628" lon="10.322178604683234"><ele>135.66666666666669</ele><time>2026-04-06T09:33:54.001Z</time></trkpt><trkpt lat="45.484187780272514" lon="10.322069318064697"><ele>135.5</ele><time>2026-04-06T09:33:55.001Z</time></trkpt><trkpt lat="45.48421235928457" lon="10.321961619522694"><ele>135.33333333333334</ele><time>2026-04-06T09:33:56.001Z</time></trkpt><trkpt lat="45.48423921752945" lon="10.321858166099423"><ele>135.16666666666666</ele><time>2026-04-06T09:33:57.001Z</time></trkpt><trkpt lat="45.48426481979539" lon="10.321743194172472"><ele>135.0</ele><time>2026-04-06T09:33:58.001Z</time></trkpt><trkpt lat="45.48429093485712" lon="10.321624214536168"><ele>135.0</ele><time>2026-04-06T09:33:59.001Z</time></trkpt><trkpt lat="45.484313380194564" lon="10.321499939573128"><ele>135.0</ele><time>2026-04-06T09:34:00.001Z</time></trkpt><trkpt lat="45.48433829510359" lon="10.321383443674202"><ele>135.0</ele><time>2026-04-06T09:34:01.001Z</time></trkpt><trkpt lat="45.48430447708208" lon="10.321197846735828"><ele>135.0</ele><time>2026-04-06T09:34:02.001Z</time></trkpt><trkpt lat="45.48436489854816" lon="10.321064469000971"><ele>135.0</ele><time>2026-04-06T09:34:03.001Z</time></trkpt><trkpt lat="45.48444401911492" lon="10.32092249562262"><ele>135.0</ele><time>2026-04-06T09:34:04.001Z</time></trkpt><trkpt lat="45.484528439178305" lon="10.320743804026348"><ele>135.0</ele><time>2026-04-06T09:34:05.001Z</time></trkpt><trkpt lat="45.48459596642248" lon="10.320506843618745"><ele>135.0</ele><time>2026-04-06T09:34:06.001Z</time></trkpt><trkpt lat="45.48463386816366" lon="10.320217333848435"><ele>135.0</ele><time>2026-04-06T09:34:07.001Z</time></trkpt><trkpt lat="45.48466914870645" lon="10.319942010012381"><ele>135.0</ele><time>2026-04-06T09:34:08.001Z</time></trkpt><trkpt lat="45.48472747489346" lon="10.319705743419533"><ele>135.0</ele><time>2026-04-06T09:34:09.001Z</time></trkpt><trkpt lat="45.48480945140984" lon="10.319499806667332"><ele>135.0</ele><time>2026-04-06T09:34:10Z</time></trkpt><trkpt lat="45.484912425161326" lon="10.31932031406057"><ele>135.0</ele><time>2026-04-06T09:34:11Z</time></trkpt><trkpt lat="45.48503762185451" lon="10.31914176152824"><ele>135.0</ele><time>2026-04-06T09:34:12Z</time></trkpt><trkpt lat="45.48518578461522" lon="10.318983693658254"><ele>135.0</ele><time>2026-04-06T09:34:13Z</time></trkpt><trkpt lat="45.48535501130362" lon="10.318845931587909"><ele>135.0</ele><time>2026-04-06T09:34:14Z</time></trkpt><trkpt lat="45.4855487145987" lon="10.318745053219672"><ele>135.0</ele><time>2026-04-06T09:34:15Z</time></trkpt><trkpt lat="45.48575865511515" lon="10.318684242074175"><ele>135.0</ele><time>2026-04-06T09:34:16Z</time></trkpt><trkpt lat="45.48597327072976" lon="10.318658975245672"><ele>135.0</ele><time>2026-04-06T09:34:17Z</time></trkpt><trkpt lat="45.48617373251281" lon="10.318625010375806"><ele>135.0</ele><time>2026-04-06T09:34:18Z</time></trkpt><trkpt lat="45.486351118304505" lon="10.318600745553383"><ele>135.0</ele><time>2026-04-06T09:34:19Z</time></trkpt><trkpt lat="45.48651286514984" lon="10.318582905867578"><ele>135.0</ele><time>2026-04-06T09:34:20Z</time></trkpt><trkpt lat="45.48665187124467" lon="10.318505056313098"><ele>135.0</ele><time>2026-04-06T09:34:21Z</time></trkpt><trkpt lat="45.48681175731912" lon="10.31857173833869"><ele>135.0</ele><time>2026-04-06T09:34:22Z</time></trkpt><trkpt lat="45.486948416068095" lon="10.318566873447384"><ele>135.0</ele><time>2026-04-06T09:34:23Z</time></trkpt><trkpt lat="45.48707766339245" lon="10.31855830853801"><ele>135.0</ele><time>2026-04-06T09:34:24Z</time></trkpt><trkpt lat="45.48720211253322" lon="10.31855551716452"><ele>135.0</ele><time>2026-04-06T09:34:25Z</time></trkpt><trkpt lat="45.48733019437135" lon="10.318551810281756"><ele>135.25</ele><time>2026-04-06T09:34:26Z</time></trkpt><trkpt lat="45.48746055696635" lon="10.318548116364441"><ele>135.5</ele><time>2026-04-06T09:34:27Z</time></trkpt><trkpt lat="45.48759795316676" lon="10.318547274919831"><ele>135.75</ele><time>2026-04-06T09:34:28Z</time></trkpt><trkpt lat="45.48773994830274" lon="10.318538523794716"><ele>136.0</ele><time>2026-04-06T09:34:29Z</time></trkpt><trkpt lat="45.48787123770232" lon="10.31852857519127"><ele>136.4</ele><time>2026-04-06T09:34:30Z</time></trkpt><trkpt lat="45.48798263771124" lon="10.318520342087439"><ele>136.8</ele><time>2026-04-06T09:34:31Z</time></trkpt><trkpt lat="45.48807807949814" lon="10.318514140005304"><ele>137.20000000000002</ele><time>2026-04-06T09:34:32Z</time></trkpt><trkpt lat="45.488161139988776" lon="10.31849659247558"><ele>137.6</ele><time>2026-04-06T09:34:33Z</time></trkpt><trkpt lat="45.48825384088223" lon="10.318477589538855"><ele>138.0</ele><time>2026-04-06T09:34:34Z</time></trkpt><trkpt lat="45.48837499704144" lon="10.318489774535541"><ele>138.0</ele><time>2026-04-06T09:34:35Z</time></trkpt><trkpt lat="45.48852183650588" lon="10.318466039653872"><ele>138.0</ele><time>2026-04-06T09:34:36Z</time></trkpt><trkpt lat="45.48866727579735" lon="10.318465720723037"><ele>138.0</ele><time>2026-04-06T09:34:37Z</time></trkpt><trkpt lat="45.48882208842853" lon="10.318459299665228"><ele>138.0</ele><time>2026-04-06T09:34:38Z</time></trkpt><trkpt lat="45.48900228570801" lon="10.318479680257136"><ele>137.0</ele><time>2026-04-06T09:34:39Z</time></trkpt><trkpt lat="45.48917790729651" lon="10.318456079771087"><ele>136.0</ele><time>2026-04-06T09:34:40Z</time></trkpt><trkpt lat="45.48936125801952" lon="10.31845278559212"><ele>135.0</ele><time>2026-04-06T09:34:41Z</time></trkpt><trkpt lat="45.48954800836491" lon="10.318453558143979"><ele>136.0</ele><time>2026-04-06T09:34:42Z</time></trkpt><trkpt lat="45.48972375787682" lon="10.318455476613806"><ele>137.0</ele><time>2026-04-06T09:34:43Z</time></trkpt><trkpt lat="45.48988764087002" lon="10.318451457625743"><ele>138.0</ele><time>2026-04-06T09:34:44Z</time></trkpt><trkpt lat="45.490046603995296" lon="10.318452968277525"><ele>138.0</ele><time>2026-04-06T09:34:45Z</time></trkpt><trkpt lat="45.49019646774123" lon="10.318449706798472"><ele>138.0</ele><time>2026-04-06T09:34:46Z</time></trkpt><trkpt lat="45.49035550403343" lon="10.318437245111777"><ele>138.0</ele><time>2026-04-06T09:34:47Z</time></trkpt><trkpt lat="45.49053248328558" lon="10.31843025611746"><ele>138.0</ele><time>2026-04-06T09:34:48Z</time></trkpt><trkpt lat="45.49073395916459" lon="10.318448388694094"><ele>138.0</ele><time>2026-04-06T09:34:49Z</time></trkpt><trkpt lat="45.490901265233774" lon="10.318445289578946"><ele>138.0</ele><time>2026-04-06T09:34:50Z</time></trkpt><trkpt lat="45.49108864567836" lon="10.318427515555952"><ele>137.66666666666666</ele><time>2026-04-06T09:34:51Z</time></trkpt><trkpt lat="45.49128947742476" lon="10.318425566687068"><ele>137.33333333333331</ele><time>2026-04-06T09:34:52Z</time></trkpt><trkpt lat="45.49149053827081" lon="10.318424248209428"><ele>137.0</ele><time>2026-04-06T09:34:53Z</time></trkpt><trkpt lat="45.49168513103987" lon="10.31842267857326"><ele>137.0</ele><time>2026-04-06T09:34:54Z</time></trkpt><trkpt lat="45.49185230712804" lon="10.318418262350338"><ele>137.0</ele><time>2026-04-06T09:34:55Z</time></trkpt><trkpt lat="45.49200039831495" lon="10.31841283558717"><ele>137.0</ele><time>2026-04-06T09:34:56Z</time></trkpt><trkpt lat="45.492161519675435" lon="10.318404567880057"><ele>137.66666666666666</ele><time>2026-04-06T09:34:57.001Z</time></trkpt><trkpt lat="45.49233761125849" lon="10.318418625103792"><ele>138.33333333333334</ele><time>2026-04-06T09:34:58.001Z</time></trkpt><trkpt lat="45.49252028595706" lon="10.31841504973116"><ele>139.0</ele><time>2026-04-06T09:34:59.001Z</time></trkpt><trkpt lat="45.492713652095944" lon="10.31836407998813"><ele>139.0</ele><time>2026-04-06T09:35:00.001Z</time></trkpt><trkpt lat="45.49277343146697" lon="10.318393575461739"><ele>139.0</ele><time>2026-04-06T09:35:01.001Z</time></trkpt><trkpt lat="45.492923555404566" lon="10.31839071129988"><ele>139.0</ele><time>2026-04-06T09:35:02.001Z</time></trkpt><trkpt lat="45.4930481936575" lon="10.318390170039313"><ele>139.0</ele><time>2026-04-06T09:35:03.001Z</time></trkpt><trkpt lat="45.49313315459028" lon="10.31839457016578"><ele>139.0</ele><time>2026-04-06T09:35:04.001Z</time></trkpt><trkpt lat="45.493287026547264" lon="10.318392144692433"><ele>139.0</ele><time>2026-04-06T09:35:06.001Z</time></trkpt><trkpt lat="45.49338981135792" lon="10.318397891018062"><ele>139.0</ele><time>2026-04-06T09:35:07.001Z</time></trkpt><trkpt lat="45.49347024710703" lon="10.31841234398603"><ele>139.0</ele><time>2026-04-06T09:35:08.001Z</time></trkpt><trkpt lat="45.493555560678026" lon="10.318423118361537"><ele>139.0</ele><time>2026-04-06T09:35:09.001Z</time></trkpt><trkpt lat="45.493653802280534" lon="10.318462653215962"><ele>139.0</ele><time>2026-04-06T09:35:10.001Z</time></trkpt><trkpt lat="45.4937511712828" lon="10.318502720483638"><ele>139.4</ele><time>2026-04-06T09:35:11.001Z</time></trkpt><trkpt lat="45.49385003414414" lon="10.318547961174824"><ele>139.8</ele><time>2026-04-06T09:35:12.001Z</time></trkpt><trkpt lat="45.49393177791497" lon="10.318594856935364"><ele>140.2</ele><time>2026-04-06T09:35:13.001Z</time></trkpt><trkpt lat="45.494027773286916" lon="10.318654187722318"><ele>140.6</ele><time>2026-04-06T09:35:14.001Z</time></trkpt><trkpt lat="45.49412767477647" lon="10.318738744445545"><ele>141.0</ele><time>2026-04-06T09:35:15.001Z</time></trkpt><trkpt lat="45.49423271508" lon="10.318835418987634"><ele>141.25</ele><time>2026-04-06T09:35:16.001Z</time></trkpt><trkpt lat="45.4943444658016" lon="10.318946021686477"><ele>141.5</ele><time>2026-04-06T09:35:17.001Z</time></trkpt><trkpt lat="45.49447174962052" lon="10.319069389197978"><ele>141.75</ele><time>2026-04-06T09:35:18.001Z</time></trkpt><trkpt lat="45.494595708257464" lon="10.319190523793146"><ele>142.0</ele><time>2026-04-06T09:35:19.001Z</time></trkpt><trkpt lat="45.4947108036886" lon="10.319303829033267"><ele>141.75</ele><time>2026-04-06T09:35:20.001Z</time></trkpt><trkpt lat="45.494822254612274" lon="10.319416286028972"><ele>141.5</ele><time>2026-04-06T09:35:21.001Z</time></trkpt><trkpt lat="45.494938040187925" lon="10.319548485137902"><ele>141.25</ele><time>2026-04-06T09:35:22.001Z</time></trkpt><trkpt lat="45.49505531301764" lon="10.319691489943327"><ele>141.0</ele><time>2026-04-06T09:35:23.001Z</time></trkpt><trkpt lat="45.49517189811003" lon="10.3198451117944"><ele>141.0</ele><time>2026-04-06T09:35:24.001Z</time></trkpt><trkpt lat="45.49528175531542" lon="10.319991744338214"><ele>141.0</ele><time>2026-04-06T09:35:25.001Z</time></trkpt><trkpt lat="45.49537511199684" lon="10.320128306121216"><ele>141.0</ele><time>2026-04-06T09:35:26.001Z</time></trkpt><trkpt lat="45.495447759734525" lon="10.320283913532394"><ele>141.0</ele><time>2026-04-06T09:35:27.001Z</time></trkpt><trkpt lat="45.49554106102458" lon="10.320415776813208"><ele>140.66666666666666</ele><time>2026-04-06T09:35:28.001Z</time></trkpt><trkpt lat="45.495625390859466" lon="10.320576499519177"><ele>140.33333333333331</ele><time>2026-04-06T09:35:29.001Z</time></trkpt><trkpt lat="45.49571709293627" lon="10.32077395716981"><ele>140.0</ele><time>2026-04-06T09:35:30.001Z</time></trkpt><trkpt lat="45.4958128897548" lon="10.320984114431116"><ele>140.0</ele><time>2026-04-06T09:35:31.001Z</time></trkpt><trkpt lat="45.495898573690965" lon="10.32119866558091"><ele>140.0</ele><time>2026-04-06T09:35:32.001Z</time></trkpt><trkpt lat="45.49597995626969" lon="10.321431551911722"><ele>140.0</ele><time>2026-04-06T09:35:33.001Z</time></trkpt><trkpt lat="45.49605784563702" lon="10.32168964005714"><ele>140.0</ele><time>2026-04-06T09:35:34.001Z</time></trkpt><trkpt lat="45.49612508975194" lon="10.321967404833542"><ele>140.0</ele><time>2026-04-06T09:35:35.001Z</time></trkpt><trkpt lat="45.49618016563668" lon="10.322257819245785"><ele>140.0</ele><time>2026-04-06T09:35:36.001Z</time></trkpt><trkpt lat="45.49622577934836" lon="10.322556966102903"><ele>140.33333333333331</ele><time>2026-04-06T09:35:37.001Z</time></trkpt><trkpt lat="45.49625422024314" lon="10.322849209275498"><ele>140.66666666666666</ele><time>2026-04-06T09:35:38.001Z</time></trkpt><trkpt lat="45.496269776450355" lon="10.323125381971307"><ele>141.0</ele><time>2026-04-06T09:35:39.001Z</time></trkpt><trkpt lat="45.49627646714212" lon="10.32340164893896"><ele>141.66666666666666</ele><time>2026-04-06T09:35:40.001Z</time></trkpt><trkpt lat="45.496272303022415" lon="10.323703433657725"><ele>142.33333333333331</ele><time>2026-04-06T09:35:41.001Z</time></trkpt><trkpt lat="45.49626621568232" lon="10.324020311564082"><ele>143.0</ele><time>2026-04-06T09:35:42.001Z</time></trkpt><trkpt lat="45.49625844186277" lon="10.32435683995804"><ele>142.66666666666666</ele><time>2026-04-06T09:35:43.001Z</time></trkpt><trkpt lat="45.4962528917823" lon="10.324671523956496"><ele>142.33333333333334</ele><time>2026-04-06T09:35:44.001Z</time></trkpt><trkpt lat="45.49624940133388" lon="10.324922071772686"><ele>142.0</ele><time>2026-04-06T09:35:45.001Z</time></trkpt><trkpt lat="45.49624768003589" lon="10.325127675927982"><ele>142.0</ele><time>2026-04-06T09:35:46.001Z</time></trkpt><trkpt lat="45.49624710724954" lon="10.32530371379991"><ele>142.0</ele><time>2026-04-06T09:35:47.001Z</time></trkpt><trkpt lat="45.49625548041877" lon="10.325517826738857"><ele>142.0</ele><time>2026-04-06T09:35:48.001Z</time></trkpt><trkpt lat="45.49626276987232" lon="10.325773247262658"><ele>142.0</ele><time>2026-04-06T09:35:49.001Z</time></trkpt><trkpt lat="45.49628076211359" lon="10.326029914174292"><ele>142.0</ele><time>2026-04-06T09:35:50.001Z</time></trkpt><trkpt lat="45.49630372159738" lon="10.3262560139575"><ele>142.0</ele><time>2026-04-06T09:35:51.001Z</time></trkpt><trkpt lat="45.496325890898774" lon="10.32645380813539"><ele>142.0</ele><time>2026-04-06T09:35:52.001Z</time></trkpt><trkpt lat="45.49635200337226" lon="10.326621327958893"><ele>142.0</ele><time>2026-04-06T09:35:53.001Z</time></trkpt><trkpt lat="45.49637175972084" lon="10.326755772965292"><ele>142.0</ele><time>2026-04-06T09:35:54.001Z</time></trkpt><trkpt lat="45.49639442240496" lon="10.326875269465678"><ele>142.0</ele><time>2026-04-06T09:35:55.001Z</time></trkpt><trkpt lat="45.49641760094228" lon="10.326993652907708"><ele>142.0</ele><time>2026-04-06T09:35:56Z</time></trkpt><trkpt lat="45.49644501893755" lon="10.327117453005952"><ele>142.5</ele><time>2026-04-06T09:35:57Z</time></trkpt><trkpt lat="45.49647639448893" lon="10.327260071762879"><ele>143.0</ele><time>2026-04-06T09:35:58Z</time></trkpt><trkpt lat="45.49651162271764" lon="10.32742059158146"><ele>143.5</ele><time>2026-04-06T09:35:59Z</time></trkpt><trkpt lat="45.496554135634405" lon="10.327582974017023"><ele>144.0</ele><time>2026-04-06T09:36:00Z</time></trkpt><trkpt lat="45.49660400138054" lon="10.327755811229903"><ele>144.0</ele><time>2026-04-06T09:36:01Z</time></trkpt><trkpt lat="45.49665614929283" lon="10.327923215123393"><ele>144.0</ele><time>2026-04-06T09:36:02Z</time></trkpt><trkpt lat="45.49670684929903" lon="10.328071093406143"><ele>144.0</ele><time>2026-04-06T09:36:03Z</time></trkpt><trkpt lat="45.496762242288135" lon="10.328220727701572"><ele>144.0</ele><time>2026-04-06T09:36:04Z</time></trkpt><trkpt lat="45.49682524527733" lon="10.328379813199545"><ele>144.2</ele><time>2026-04-06T09:36:05Z</time></trkpt><trkpt lat="45.496888151881286" lon="10.328530391169004"><ele>144.4</ele><time>2026-04-06T09:36:06Z</time></trkpt><trkpt lat="45.49694579236722" lon="10.328664236688427"><ele>144.6</ele><time>2026-04-06T09:36:07Z</time></trkpt><trkpt lat="45.49700437838891" lon="10.32878557905652"><ele>144.8</ele><time>2026-04-06T09:36:08Z</time></trkpt><trkpt lat="45.497068670488446" lon="10.328912923183502"><ele>145.0</ele><time>2026-04-06T09:36:09Z</time></trkpt><trkpt lat="45.49715178694727" lon="10.329035298755146"><ele>144.0</ele><time>2026-04-06T09:36:10Z</time></trkpt><trkpt lat="45.49722547858936" lon="10.329205171152068"><ele>143.0</ele><time>2026-04-06T09:36:11Z</time></trkpt><trkpt lat="45.49730551391023" lon="10.329351770883646"><ele>142.0</ele><time>2026-04-06T09:36:12Z</time></trkpt><trkpt lat="45.49738289846037" lon="10.329481053904521"><ele>141.0</ele><time>2026-04-06T09:36:13Z</time></trkpt><trkpt lat="45.497456659477905" lon="10.329598934762556"><ele>141.0</ele><time>2026-04-06T09:36:14Z</time></trkpt><trkpt lat="45.49753003334917" lon="10.329707677695152"><ele>141.0</ele><time>2026-04-06T09:36:15Z</time></trkpt><trkpt lat="45.49761534779879" lon="10.329829872987704"><ele>141.0</ele><time>2026-04-06T09:36:16Z</time></trkpt><trkpt lat="45.497711649852654" lon="10.329958421541352"><ele>141.0</ele><time>2026-04-06T09:36:17Z</time></trkpt><trkpt lat="45.49780695099542" lon="10.330075811585962"><ele>141.0</ele><time>2026-04-06T09:36:18Z</time></trkpt><trkpt lat="45.497895082382776" lon="10.330184843795449"><ele>141.0</ele><time>2026-04-06T09:36:19Z</time></trkpt><trkpt lat="45.49798316688969" lon="10.330290122293235"><ele>141.0</ele><time>2026-04-06T09:36:20Z</time></trkpt><trkpt lat="45.49807702179433" lon="10.330403727452119"><ele>141.0</ele><time>2026-04-06T09:36:21Z</time></trkpt><trkpt lat="45.4981798341962" lon="10.330528330122869"><ele>141.75</ele><time>2026-04-06T09:36:22Z</time></trkpt><trkpt lat="45.49828501196268" lon="10.33065922181831"><ele>142.5</ele><time>2026-04-06T09:36:23Z</time></trkpt><trkpt lat="45.498396570288875" lon="10.33079551550238"><ele>143.25</ele><time>2026-04-06T09:36:24Z</time></trkpt><trkpt lat="45.49851059905553" lon="10.33093819653443"><ele>144.0</ele><time>2026-04-06T09:36:25Z</time></trkpt><trkpt lat="45.49861706812178" lon="10.331071077324093"><ele>144.0</ele><time>2026-04-06T09:36:26Z</time></trkpt><trkpt lat="45.49872672994292" lon="10.331203650509643"><ele>144.0</ele><time>2026-04-06T09:36:27Z</time></trkpt><trkpt lat="45.49883453790958" lon="10.331333331128524"><ele>144.0</ele><time>2026-04-06T09:36:28Z</time></trkpt><trkpt lat="45.4989446873531" lon="10.331470790982241"><ele>144.0</ele><time>2026-04-06T09:36:29Z</time></trkpt><trkpt lat="45.49905043240308" lon="10.331601275597615"><ele>143.66666666666666</ele><time>2026-04-06T09:36:30Z</time></trkpt><trkpt lat="45.49916548491713" lon="10.331737883202123"><ele>143.33333333333331</ele><time>2026-04-06T09:36:31Z</time></trkpt><trkpt lat="45.49928265424065" lon="10.331882107109037"><ele>143.0</ele><time>2026-04-06T09:36:32Z</time></trkpt><trkpt lat="45.49940412401509" lon="10.332019178543415"><ele>143.0</ele><time>2026-04-06T09:36:33Z</time></trkpt><trkpt lat="45.49952749687222" lon="10.332176348827563"><ele>143.0</ele><time>2026-04-06T09:36:34Z</time></trkpt><trkpt lat="45.499645953345016" lon="10.332325656403311"><ele>143.0</ele><time>2026-04-06T09:36:35Z</time></trkpt><trkpt lat="45.499756062531404" lon="10.332470245358609"><ele>143.33333333333331</ele><time>2026-04-06T09:36:36Z</time></trkpt><trkpt lat="45.49986790900129" lon="10.332610768444296"><ele>143.66666666666666</ele><time>2026-04-06T09:36:37Z</time></trkpt><trkpt lat="45.49999059382932" lon="10.332751151977156"><ele>144.0</ele><time>2026-04-06T09:36:38Z</time></trkpt><trkpt lat="45.5001126793839" lon="10.33289884136058"><ele>144.0</ele><time>2026-04-06T09:36:39Z</time></trkpt><trkpt lat="45.50023976106969" lon="10.33305353748609"><ele>144.0</ele><time>2026-04-06T09:36:40Z</time></trkpt><trkpt lat="45.50037450496517" lon="10.333216460606268"><ele>144.0</ele><time>2026-04-06T09:36:41Z</time></trkpt><trkpt lat="45.50051401597039" lon="10.333382012915994"><ele>144.0</ele><time>2026-04-06T09:36:42Z</time></trkpt><trkpt lat="45.50066685178921" lon="10.333553286526424"><ele>144.0</ele><time>2026-04-06T09:36:43Z</time></trkpt><trkpt lat="45.50081769027506" lon="10.333725796939943"><ele>144.0</ele><time>2026-04-06T09:36:44Z</time></trkpt><trkpt lat="45.500966604537" lon="10.333892069661065"><ele>143.66666666666666</ele><time>2026-04-06T09:36:45Z</time></trkpt><trkpt lat="45.50112297274342" lon="10.334056181772375"><ele>143.33333333333331</ele><time>2026-04-06T09:36:46Z</time></trkpt><trkpt lat="45.501283687797276" lon="10.334220086694211"><ele>143.0</ele><time>2026-04-06T09:36:47Z</time></trkpt><trkpt lat="45.50145713732048" lon="10.334388610862476"><ele>143.0</ele><time>2026-04-06T09:36:48Z</time></trkpt><trkpt lat="45.50162697081054" lon="10.334561713171082"><ele>143.0</ele><time>2026-04-06T09:36:49Z</time></trkpt><trkpt lat="45.501791522412134" lon="10.334728295712276"><ele>143.0</ele><time>2026-04-06T09:36:50Z</time></trkpt><trkpt lat="45.50195060075557" lon="10.334879890725674"><ele>143.66666666666666</ele><time>2026-04-06T09:36:51Z</time></trkpt><trkpt lat="45.502110178303106" lon="10.335027987612277"><ele>144.33333333333334</ele><time>2026-04-06T09:36:52Z</time></trkpt><trkpt lat="45.50226181555319" lon="10.335170360999097"><ele>145.0</ele><time>2026-04-06T09:36:53Z</time></trkpt><trkpt lat="45.50240207652275" lon="10.335303281781707"><ele>145.0</ele><time>2026-04-06T09:36:54Z</time></trkpt><trkpt lat="45.50252845285453" lon="10.335427201375438"><ele>145.0</ele><time>2026-04-06T09:36:55Z</time></trkpt><trkpt lat="45.50265306432544" lon="10.335546258764653"><ele>145.0</ele><time>2026-04-06T09:36:56Z</time></trkpt><trkpt lat="45.50277842609389" lon="10.335661921636055"><ele>145.0</ele><time>2026-04-06T09:36:57Z</time></trkpt><trkpt lat="45.502909462985976" lon="10.335784574204038"><ele>145.0</ele><time>2026-04-06T09:36:58Z</time></trkpt><trkpt lat="45.50302756942256" lon="10.33589620028904"><ele>145.0</ele><time>2026-04-06T09:36:59Z</time></trkpt><trkpt lat="45.50314209467303" lon="10.336006237434356"><ele>145.0</ele><time>2026-04-06T09:37:00Z</time></trkpt><trkpt lat="45.50325756401402" lon="10.336117441853744"><ele>145.25</ele><time>2026-04-06T09:37:01Z</time></trkpt><trkpt lat="45.503376581471024" lon="10.336230320571966"><ele>145.5</ele><time>2026-04-06T09:37:02Z</time></trkpt><trkpt lat="45.50349631897032" lon="10.33634458439898"><ele>145.75</ele><time>2026-04-06T09:37:03Z</time></trkpt><trkpt lat="45.50362205587567" lon="10.336466461565552"><ele>146.0</ele><time>2026-04-06T09:37:04Z</time></trkpt><trkpt lat="45.5037519200913" lon="10.336592057522472"><ele>146.0</ele><time>2026-04-06T09:37:05Z</time></trkpt><trkpt lat="45.50388460667813" lon="10.33672157879589"><ele>146.0</ele><time>2026-04-06T09:37:06Z</time></trkpt><trkpt lat="45.50401478325273" lon="10.336849777016978"><ele>146.0</ele><time>2026-04-06T09:37:07Z</time></trkpt><trkpt lat="45.50415232270855" lon="10.336980596130385"><ele>146.0</ele><time>2026-04-06T09:37:08Z</time></trkpt><trkpt lat="45.50430357519246" lon="10.337118981119676"><ele>146.0</ele><time>2026-04-06T09:37:09Z</time></trkpt><trkpt lat="45.50446780659288" lon="10.337271676083502"><ele>146.0</ele><time>2026-04-06T09:37:10Z</time></trkpt><trkpt lat="45.504640651915146" lon="10.337434890565017"><ele>146.66666666666666</ele><time>2026-04-06T09:37:11Z</time></trkpt><trkpt lat="45.50481532516517" lon="10.337598336397324"><ele>147.33333333333334</ele><time>2026-04-06T09:37:12Z</time></trkpt><trkpt lat="45.504996846772976" lon="10.337767121208396"><ele>148.0</ele><time>2026-04-06T09:37:13Z</time></trkpt><trkpt lat="45.505177197184715" lon="10.33793935277011"><ele>148.0</ele><time>2026-04-06T09:37:14Z</time></trkpt><trkpt lat="45.50535431094608" lon="10.338118227142232"><ele>148.0</ele><time>2026-04-06T09:37:15Z</time></trkpt><trkpt lat="45.50552460658502" lon="10.338284456375906"><ele>148.0</ele><time>2026-04-06T09:37:16Z</time></trkpt><trkpt lat="45.50569481509185" lon="10.338446436844373"><ele>148.0</ele><time>2026-04-06T09:37:17Z</time></trkpt><trkpt lat="45.505869656194115" lon="10.338611952243795"><ele>148.0</ele><time>2026-04-06T09:37:18Z</time></trkpt><trkpt lat="45.50604723177251" lon="10.338782206603097"><ele>148.0</ele><time>2026-04-06T09:37:19Z</time></trkpt><trkpt lat="45.506230528852505" lon="10.338957436300081"><ele>147.5</ele><time>2026-04-06T09:37:20Z</time></trkpt><trkpt lat="45.50641888105384" lon="10.339137157163421"><ele>147.0</ele><time>2026-04-06T09:37:21Z</time></trkpt><trkpt lat="45.5066165437429" lon="10.339325423199266"><ele>147.0</ele><time>2026-04-06T09:37:22Z</time></trkpt><trkpt lat="45.506824485595246" lon="10.339524216692947"><ele>147.0</ele><time>2026-04-06T09:37:23Z</time></trkpt><trkpt lat="45.50702769908703" lon="10.339720673265543"><ele>149.0</ele><time>2026-04-06T09:37:24Z</time></trkpt><trkpt lat="45.50722510766699" lon="10.339911974054708"><ele>151.0</ele><time>2026-04-06T09:37:25Z</time></trkpt><trkpt lat="45.50740817146123" lon="10.340088488956606"><ele>151.0</ele><time>2026-04-06T09:37:26Z</time></trkpt><trkpt lat="45.50757941967456" lon="10.340246098719586"><ele>151.0</ele><time>2026-04-06T09:37:27Z</time></trkpt><trkpt lat="45.50772803920619" lon="10.34038275727811"><ele>151.0</ele><time>2026-04-06T09:37:28Z</time></trkpt><trkpt lat="45.50786004134984" lon="10.340497407796237"><ele>149.0</ele><time>2026-04-06T09:37:29Z</time></trkpt><trkpt lat="45.5079918760134" lon="10.340613216574287"><ele>147.0</ele><time>2026-04-06T09:37:30Z</time></trkpt><trkpt lat="45.50812707658931" lon="10.34074072896881"><ele>145.0</ele><time>2026-04-06T09:37:31Z</time></trkpt><trkpt lat="45.50826298741716" lon="10.34087638282591"><ele>145.0</ele><time>2026-04-06T09:37:32Z</time></trkpt><trkpt lat="45.50839188254223" lon="10.341004910160295"><ele>145.0</ele><time>2026-04-06T09:37:33Z</time></trkpt><trkpt lat="45.50851381921974" lon="10.341121929639632"><ele>145.0</ele><time>2026-04-06T09:37:34Z</time></trkpt><trkpt lat="45.50863376877506" lon="10.341239537629853"><ele>145.5</ele><time>2026-04-06T09:37:35Z</time></trkpt><trkpt lat="45.50875178026849" lon="10.34136760256214"><ele>146.0</ele><time>2026-04-06T09:37:36Z</time></trkpt><trkpt lat="45.50886173488874" lon="10.341498246794497"><ele>146.5</ele><time>2026-04-06T09:37:37Z</time></trkpt><trkpt lat="45.50896972594496" lon="10.341634400460132"><ele>147.0</ele><time>2026-04-06T09:37:38Z</time></trkpt><trkpt lat="45.50908303653563" lon="10.341780876531885"><ele>147.33333333333334</ele><time>2026-04-06T09:37:39Z</time></trkpt><trkpt lat="45.50919569955998" lon="10.341941838325946"><ele>147.66666666666669</ele><time>2026-04-06T09:37:40Z</time></trkpt><trkpt lat="45.5093062174447" lon="10.342111650679405"><ele>148.0</ele><time>2026-04-06T09:37:41Z</time></trkpt><trkpt lat="45.509414927322474" lon="10.342285416197983"><ele>148.33333333333334</ele><time>2026-04-06T09:37:42Z</time></trkpt><trkpt lat="45.50952237015711" lon="10.3424688453404"><ele>148.66666666666666</ele><time>2026-04-06T09:37:43Z</time></trkpt><trkpt lat="45.509632098630206" lon="10.342664166007243"><ele>149.0</ele><time>2026-04-06T09:37:44Z</time></trkpt><trkpt lat="45.509747596335" lon="10.342886613050629"><ele>149.33333333333331</ele><time>2026-04-06T09:37:45Z</time></trkpt><trkpt lat="45.509858807589666" lon="10.34313037943383"><ele>149.66666666666666</ele><time>2026-04-06T09:37:46Z</time></trkpt><trkpt lat="45.50997355017675" lon="10.343383894035492"><ele>150.0</ele><time>2026-04-06T09:37:47Z</time></trkpt><trkpt lat="45.510093852180155" lon="10.343662027593023"><ele>150.33333333333334</ele><time>2026-04-06T09:37:48Z</time></trkpt><trkpt lat="45.510209700499516" lon="10.343946075380767"><ele>150.66666666666669</ele><time>2026-04-06T09:37:49Z</time></trkpt><trkpt lat="45.51031018522999" lon="10.34421063783886"><ele>151.0</ele><time>2026-04-06T09:37:50Z</time></trkpt><trkpt lat="45.51040456723489" lon="10.344468991110281"><ele>151.0</ele><time>2026-04-06T09:37:51Z</time></trkpt><trkpt lat="45.51051072314891" lon="10.344729630347063"><ele>151.0</ele><time>2026-04-06T09:37:52Z</time></trkpt><trkpt lat="45.51062527926652" lon="10.345003534013296"><ele>151.0</ele><time>2026-04-06T09:37:53Z</time></trkpt><trkpt lat="45.510732854176545" lon="10.345270966036006"><ele>151.0</ele><time>2026-04-06T09:37:54Z</time></trkpt><trkpt lat="45.51082545259336" lon="10.345525194560292"><ele>151.0</ele><time>2026-04-06T09:37:55Z</time></trkpt><trkpt lat="45.51091397137312" lon="10.345768261829901"><ele>151.0</ele><time>2026-04-06T09:37:56Z</time></trkpt><trkpt lat="45.51100836210408" lon="10.34601444150822"><ele>150.66666666666669</ele><time>2026-04-06T09:37:57Z</time></trkpt><trkpt lat="45.51110324803348" lon="10.346251034326965"><ele>150.33333333333334</ele><time>2026-04-06T09:37:58Z</time></trkpt><trkpt lat="45.51120814281551" lon="10.346499979837951"><ele>150.0</ele><time>2026-04-06T09:37:59Z</time></trkpt><trkpt lat="45.511318917670835" lon="10.34677099781322"><ele>151.0</ele><time>2026-04-06T09:38:00Z</time></trkpt><trkpt lat="45.51142808460503" lon="10.347063730564773"><ele>152.0</ele><time>2026-04-06T09:38:01Z</time></trkpt><trkpt lat="45.51153757695717" lon="10.347375102281141"><ele>152.0</ele><time>2026-04-06T09:38:01.999Z</time></trkpt><trkpt lat="45.51164009128742" lon="10.347696562670109"><ele>152.0</ele><time>2026-04-06T09:38:02.999Z</time></trkpt><trkpt lat="45.51173957776219" lon="10.348013008217507"><ele>150.5</ele><time>2026-04-06T09:38:03.999Z</time></trkpt><trkpt lat="45.51183418845531" lon="10.3483245888315"><ele>149.0</ele><time>2026-04-06T09:38:04.999Z</time></trkpt><trkpt lat="45.51191769035342" lon="10.348613836364331"><ele>149.0</ele><time>2026-04-06T09:38:05.999Z</time></trkpt><trkpt lat="45.51197616368507" lon="10.3488630769459"><ele>149.0</ele><time>2026-04-06T09:38:06.999Z</time></trkpt><trkpt lat="45.51202721226966" lon="10.349094520216335"><ele>149.0</ele><time>2026-04-06T09:38:07.999Z</time></trkpt><trkpt lat="45.51207589395935" lon="10.349304103147523"><ele>150.0</ele><time>2026-04-06T09:38:08.999Z</time></trkpt><trkpt lat="45.51212693733048" lon="10.349522987103034"><ele>151.0</ele><time>2026-04-06T09:38:09.999Z</time></trkpt><trkpt lat="45.512180110761946" lon="10.349755859354733"><ele>152.0</ele><time>2026-04-06T09:38:10.999Z</time></trkpt><trkpt lat="45.51223258655341" lon="10.350012743605337"><ele>152.0</ele><time>2026-04-06T09:38:11.999Z</time></trkpt><trkpt lat="45.51227520542378" lon="10.350260579949634"><ele>152.0</ele><time>2026-04-06T09:38:12.999Z</time></trkpt><trkpt lat="45.51231147032147" lon="10.35050364525869"><ele>152.0</ele><time>2026-04-06T09:38:13.999Z</time></trkpt><trkpt lat="45.5123508585607" lon="10.3507387072614"><ele>152.33333333333331</ele><time>2026-04-06T09:38:14.999Z</time></trkpt><trkpt lat="45.51238302810734" lon="10.350959019515878"><ele>152.66666666666666</ele><time>2026-04-06T09:38:15.999Z</time></trkpt><trkpt lat="45.51242086324477" lon="10.35120324056108"><ele>153.0</ele><time>2026-04-06T09:38:16.999Z</time></trkpt><trkpt lat="45.5124587430513" lon="10.351459501939633"><ele>153.0</ele><time>2026-04-06T09:38:17.999Z</time></trkpt><trkpt lat="45.51249824507187" lon="10.351719394746548"><ele>153.0</ele><time>2026-04-06T09:38:18.999Z</time></trkpt><trkpt lat="45.5125363721966" lon="10.351966579975098"><ele>153.0</ele><time>2026-04-06T09:38:19.999Z</time></trkpt><trkpt lat="45.51257019880872" lon="10.352190497253906"><ele>152.66666666666666</ele><time>2026-04-06T09:38:20.999Z</time></trkpt><trkpt lat="45.51260584314559" lon="10.352420473578142"><ele>152.33333333333331</ele><time>2026-04-06T09:38:22Z</time></trkpt><trkpt lat="45.51264490941232" lon="10.352675999138409"><ele>152.0</ele><time>2026-04-06T09:38:23Z</time></trkpt><trkpt lat="45.51268265004521" lon="10.352941180529735"><ele>152.0</ele><time>2026-04-06T09:38:24Z</time></trkpt><trkpt lat="45.51272409509894" lon="10.35322215685037"><ele>152.0</ele><time>2026-04-06T09:38:25Z</time></trkpt><trkpt lat="45.51276740342618" lon="10.353487311517691"><ele>152.0</ele><time>2026-04-06T09:38:26Z</time></trkpt><trkpt lat="45.51280691138591" lon="10.35374744875274"><ele>152.33333333333331</ele><time>2026-04-06T09:38:27Z</time></trkpt><trkpt lat="45.51284548188074" lon="10.35400530379632"><ele>152.66666666666666</ele><time>2026-04-06T09:38:28Z</time></trkpt><trkpt lat="45.51288419675135" lon="10.354267680740257"><ele>153.0</ele><time>2026-04-06T09:38:29Z</time></trkpt><trkpt lat="45.51292731869342" lon="10.354553741386177"><ele>153.66666666666666</ele><time>2026-04-06T09:38:30Z</time></trkpt><trkpt lat="45.51297203639092" lon="10.35485190054532"><ele>154.33333333333331</ele><time>2026-04-06T09:38:31Z</time></trkpt><trkpt lat="45.51301460406112" lon="10.35516117150917"><ele>155.0</ele><time>2026-04-06T09:38:32Z</time></trkpt><trkpt lat="45.51305516860884" lon="10.355470467501096"><ele>154.33333333333331</ele><time>2026-04-06T09:38:33Z</time></trkpt><trkpt lat="45.51309008840373" lon="10.35573121669578"><ele>153.66666666666666</ele><time>2026-04-06T09:38:34Z</time></trkpt><trkpt lat="45.51312884752674" lon="10.355964564108186"><ele>153.0</ele><time>2026-04-06T09:38:35Z</time></trkpt><trkpt lat="45.51316726099559" lon="10.356212921794363"><ele>153.0</ele><time>2026-04-06T09:38:36Z</time></trkpt><trkpt lat="45.513203038025" lon="10.356484602871163"><ele>153.0</ele><time>2026-04-06T09:38:37Z</time></trkpt><trkpt lat="45.51323124617768" lon="10.356765102045983"><ele>153.0</ele><time>2026-04-06T09:38:38Z</time></trkpt><trkpt lat="45.5132557511716" lon="10.357022298266"><ele>153.66666666666666</ele><time>2026-04-06T09:38:39Z</time></trkpt><trkpt lat="45.51327899795583" lon="10.357269810281458"><ele>154.33333333333331</ele><time>2026-04-06T09:38:40Z</time></trkpt><trkpt lat="45.5133017993134" lon="10.357528781468025"><ele>155.0</ele><time>2026-04-06T09:38:41Z</time></trkpt><trkpt lat="45.513333488645614" lon="10.357807262854765"><ele>154.33333333333331</ele><time>2026-04-06T09:38:42Z</time></trkpt><trkpt lat="45.51336232940622" lon="10.35808975263071"><ele>153.66666666666666</ele><time>2026-04-06T09:38:43Z</time></trkpt><trkpt lat="45.51339019548361" lon="10.358359466137701"><ele>153.0</ele><time>2026-04-06T09:38:44Z</time></trkpt><trkpt lat="45.513426117903954" lon="10.358678079413139"><ele>154.0</ele><time>2026-04-06T09:38:45Z</time></trkpt><trkpt lat="45.51346945041918" lon="10.359062395867259"><ele>155.0</ele><time>2026-04-06T09:38:46Z</time></trkpt><trkpt lat="45.51351739440141" lon="10.359486732588328"><ele>153.0</ele><time>2026-04-06T09:38:47Z</time></trkpt><trkpt lat="45.5135633444023" lon="10.359949074447519"><ele>151.0</ele><time>2026-04-06T09:38:48Z</time></trkpt><trkpt lat="45.51358913975374" lon="10.360428417940707"><ele>152.0</ele><time>2026-04-06T09:38:49Z</time></trkpt><trkpt lat="45.513633952487716" lon="10.360891887179013"><ele>153.0</ele><time>2026-04-06T09:38:50Z</time></trkpt><trkpt lat="45.513684691612426" lon="10.361324761644383"><ele>155.5</ele><time>2026-04-06T09:38:51Z</time></trkpt><trkpt lat="45.51373180236788" lon="10.361712902041425"><ele>158.0</ele><time>2026-04-06T09:38:52Z</time></trkpt><trkpt lat="45.513794673729834" lon="10.362063442754362"><ele>157.5</ele><time>2026-04-06T09:38:53Z</time></trkpt><trkpt lat="45.51388676826746" lon="10.362401255537899"><ele>157.0</ele><time>2026-04-06T09:38:54Z</time></trkpt><trkpt lat="45.51400521300964" lon="10.362744723647506"><ele>156.0</ele><time>2026-04-06T09:38:55Z</time></trkpt><trkpt lat="45.51413979488859" lon="10.363082887559058"><ele>155.0</ele><time>2026-04-06T09:38:56Z</time></trkpt><trkpt lat="45.514288312560154" lon="10.363384010816736"><ele>155.0</ele><time>2026-04-06T09:38:57Z</time></trkpt><trkpt lat="45.51445982997189" lon="10.363674377821335"><ele>155.0</ele><time>2026-04-06T09:38:58Z</time></trkpt><trkpt lat="45.51463722018983" lon="10.363943799407062"><ele>155.5</ele><time>2026-04-06T09:38:59Z</time></trkpt><trkpt lat="45.514822941091346" lon="10.36418447202742"><ele>156.0</ele><time>2026-04-06T09:39:00Z</time></trkpt><trkpt lat="45.51504036329357" lon="10.36439181883274"><ele>156.0</ele><time>2026-04-06T09:39:01Z</time></trkpt><trkpt lat="45.51527071537122" lon="10.364601058510047"><ele>156.0</ele><time>2026-04-06T09:39:02Z</time></trkpt><trkpt lat="45.51548700602596" lon="10.364814545266666"><ele>156.5</ele><time>2026-04-06T09:39:03Z</time></trkpt><trkpt lat="45.51568556480924" lon="10.365022885992019"><ele>157.0</ele><time>2026-04-06T09:39:04Z</time></trkpt><trkpt lat="45.51587279027584" lon="10.365210386232972"><ele>157.0</ele><time>2026-04-06T09:39:05Z</time></trkpt><trkpt lat="45.516057741530005" lon="10.36540216388771"><ele>157.0</ele><time>2026-04-06T09:39:06Z</time></trkpt><trkpt lat="45.51623274081011" lon="10.365579649547437"><ele>157.0</ele><time>2026-04-06T09:39:07Z</time></trkpt><trkpt lat="45.516398871519286" lon="10.365750236357785"><ele>157.0</ele><time>2026-04-06T09:39:08Z</time></trkpt><trkpt lat="45.51657770925306" lon="10.36593108896609"><ele>157.0</ele><time>2026-04-06T09:39:09Z</time></trkpt><trkpt lat="45.51677469938734" lon="10.366123462842955"><ele>157.0</ele><time>2026-04-06T09:39:10Z</time></trkpt><trkpt lat="45.51697924330711" lon="10.366327998624628"><ele>157.0</ele><time>2026-04-06T09:39:11Z</time></trkpt><trkpt lat="45.51719153636402" lon="10.366538710129106"><ele>157.0</ele><time>2026-04-06T09:39:12Z</time></trkpt><trkpt lat="45.51740709823816" lon="10.366757961715212"><ele>157.0</ele><time>2026-04-06T09:39:13Z</time></trkpt><trkpt lat="45.51761813632832" lon="10.366973853064733"><ele>157.0</ele><time>2026-04-06T09:39:14Z</time></trkpt><trkpt lat="45.51782474975012" lon="10.367184391421704"><ele>157.0</ele><time>2026-04-06T09:39:15Z</time></trkpt><trkpt lat="45.51803381596123" lon="10.367394747649353"><ele>157.0</ele><time>2026-04-06T09:39:16Z</time></trkpt><trkpt lat="45.518224181171966" lon="10.36760880209877"><ele>157.0</ele><time>2026-04-06T09:39:17Z</time></trkpt><trkpt lat="45.51840650754801" lon="10.367829049581134"><ele>157.5</ele><time>2026-04-06T09:39:18Z</time></trkpt><trkpt lat="45.51857728949467" lon="10.368043262112916"><ele>158.0</ele><time>2026-04-06T09:39:19Z</time></trkpt><trkpt lat="45.51874698741443" lon="10.368261884244708"><ele>158.0</ele><time>2026-04-06T09:39:20Z</time></trkpt><trkpt lat="45.518906074843024" lon="10.368476028592976"><ele>158.0</ele><time>2026-04-06T09:39:21Z</time></trkpt><trkpt lat="45.51906704258064" lon="10.368705134451899"><ele>158.0</ele><time>2026-04-06T09:39:22Z</time></trkpt><trkpt lat="45.51921845904106" lon="10.36894372189999"><ele>158.5</ele><time>2026-04-06T09:39:23Z</time></trkpt><trkpt lat="45.51936894360179" lon="10.369188777392239"><ele>159.0</ele><time>2026-04-06T09:39:24Z</time></trkpt><trkpt lat="45.51952379905828" lon="10.369427634093963"><ele>159.33333333333334</ele><time>2026-04-06T09:39:25Z</time></trkpt><trkpt lat="45.51967471115505" lon="10.36965933949084"><ele>159.66666666666669</ele><time>2026-04-06T09:39:26Z</time></trkpt><trkpt lat="45.51981977869267" lon="10.369885987755112"><ele>160.0</ele><time>2026-04-06T09:39:27Z</time></trkpt><trkpt lat="45.51995977205946" lon="10.37011579947804"><ele>160.0</ele><time>2026-04-06T09:39:28Z</time></trkpt><trkpt lat="45.52009777688865" lon="10.370331769387088"><ele>160.0</ele><time>2026-04-06T09:39:29Z</time></trkpt><trkpt lat="45.520235560584396" lon="10.37054204434061"><ele>160.0</ele><time>2026-04-06T09:39:30Z</time></trkpt><trkpt lat="45.52038300110446" lon="10.370767409811668"><ele>160.0</ele><time>2026-04-06T09:39:31Z</time></trkpt><trkpt lat="45.52052754409868" lon="10.371007143791365"><ele>160.0</ele><time>2026-04-06T09:39:32Z</time></trkpt><trkpt lat="45.52067283358209" lon="10.371239543437023"><ele>160.0</ele><time>2026-04-06T09:39:33Z</time></trkpt><trkpt lat="45.52082169371343" lon="10.371476590927164"><ele>160.0</ele><time>2026-04-06T09:39:34Z</time></trkpt><trkpt lat="45.52097596883711" lon="10.371713557659131"><ele>160.0</ele><time>2026-04-06T09:39:35Z</time></trkpt><trkpt lat="45.52113341247853" lon="10.371962507706437"><ele>159.5</ele><time>2026-04-06T09:39:36Z</time></trkpt><trkpt lat="45.521291277632464" lon="10.372216030946376"><ele>159.0</ele><time>2026-04-06T09:39:37Z</time></trkpt><trkpt lat="45.52145637374722" lon="10.372467665354183"><ele>159.0</ele><time>2026-04-06T09:39:38Z</time></trkpt><trkpt lat="45.52161753554994" lon="10.372713989343334"><ele>159.0</ele><time>2026-04-06T09:39:39Z</time></trkpt><trkpt lat="45.52176254660449" lon="10.372945666190416"><ele>160.0</ele><time>2026-04-06T09:39:40Z</time></trkpt><trkpt lat="45.521897237187524" lon="10.373167503407778"><ele>161.0</ele><time>2026-04-06T09:39:41Z</time></trkpt><trkpt lat="45.52202744656807" lon="10.373381006144104"><ele>162.0</ele><time>2026-04-06T09:39:42Z</time></trkpt><trkpt lat="45.522162167772365" lon="10.37359071994605"><ele>162.0</ele><time>2026-04-06T09:39:43Z</time></trkpt><trkpt lat="45.52230356894395" lon="10.373810089256581"><ele>162.0</ele><time>2026-04-06T09:39:44Z</time></trkpt><trkpt lat="45.522446160027634" lon="10.374039750731342"><ele>162.0</ele><time>2026-04-06T09:39:45Z</time></trkpt><trkpt lat="45.52257713859069" lon="10.374289050920702"><ele>162.0</ele><time>2026-04-06T09:39:46Z</time></trkpt><trkpt lat="45.522698258417314" lon="10.374556546894597"><ele>162.0</ele><time>2026-04-06T09:39:47Z</time></trkpt><trkpt lat="45.52281804593124" lon="10.374828166438714"><ele>162.0</ele><time>2026-04-06T09:39:48Z</time></trkpt><trkpt lat="45.522942157755864" lon="10.375115750155073"><ele>162.0</ele><time>2026-04-06T09:39:49Z</time></trkpt><trkpt lat="45.52306731330107" lon="10.375402163282626"><ele>162.0</ele><time>2026-04-06T09:39:50Z</time></trkpt><trkpt lat="45.523196098513665" lon="10.375693858771967"><ele>162.5</ele><time>2026-04-06T09:39:51Z</time></trkpt><trkpt lat="45.52332707033197" lon="10.37599018975228"><ele>163.0</ele><time>2026-04-06T09:39:52Z</time></trkpt><trkpt lat="45.52345968771977" lon="10.376286285796091"><ele>164.0</ele><time>2026-04-06T09:39:53Z</time></trkpt><trkpt lat="45.5235917243504" lon="10.37657918805525"><ele>165.0</ele><time>2026-04-06T09:39:54Z</time></trkpt><trkpt lat="45.523721028073204" lon="10.376873324463448"><ele>163.0</ele><time>2026-04-06T09:39:55Z</time></trkpt><trkpt lat="45.52384529038069" lon="10.377161623210037"><ele>161.0</ele><time>2026-04-06T09:39:56Z</time></trkpt><trkpt lat="45.5239670556284" lon="10.377445311297706"><ele>161.0</ele><time>2026-04-06T09:39:57Z</time></trkpt><trkpt lat="45.524084527155985" lon="10.377712762809265"><ele>161.0</ele><time>2026-04-06T09:39:58Z</time></trkpt><trkpt lat="45.52419978589718" lon="10.377966935904492"><ele>161.0</ele><time>2026-04-06T09:39:59Z</time></trkpt><trkpt lat="45.52432153998232" lon="10.378221197725914"><ele>161.0</ele><time>2026-04-06T09:40:00Z</time></trkpt><trkpt lat="45.52445062441777" lon="10.378499502781134"><ele>161.0</ele><time>2026-04-06T09:40:01Z</time></trkpt><trkpt lat="45.52458089986602" lon="10.378784336625234"><ele>162.0</ele><time>2026-04-06T09:40:02Z</time></trkpt><trkpt lat="45.52471158349932" lon="10.379081975605748"><ele>163.0</ele><time>2026-04-06T09:40:03Z</time></trkpt><trkpt lat="45.52484819744457" lon="10.379389608240714"><ele>162.5</ele><time>2026-04-06T09:40:04Z</time></trkpt><trkpt lat="45.52499442649992" lon="10.379708861154288"><ele>162.0</ele><time>2026-04-06T09:40:05Z</time></trkpt><trkpt lat="45.525145105134925" lon="10.380033849604514"><ele>162.0</ele><time>2026-04-06T09:40:06Z</time></trkpt><trkpt lat="45.52529805755574" lon="10.38037167477631"><ele>162.0</ele><time>2026-04-06T09:40:07Z</time></trkpt><trkpt lat="45.525438675060826" lon="10.380695062151114"><ele>163.0</ele><time>2026-04-06T09:40:08Z</time></trkpt><trkpt lat="45.525579969879885" lon="10.381021734230355"><ele>164.0</ele><time>2026-04-06T09:40:09Z</time></trkpt><trkpt lat="45.525724625062864" lon="10.381346165116788"><ele>164.5</ele><time>2026-04-06T09:40:10Z</time></trkpt><trkpt lat="45.525860440966724" lon="10.3816598275118"><ele>165.0</ele><time>2026-04-06T09:40:11Z</time></trkpt><trkpt lat="45.525995961999826" lon="10.381973275213939"><ele>165.5</ele><time>2026-04-06T09:40:12Z</time></trkpt><trkpt lat="45.52612645881916" lon="10.382286276729218"><ele>166.0</ele><time>2026-04-06T09:40:13Z</time></trkpt><trkpt lat="45.52624784923894" lon="10.382597615418247"><ele>166.0</ele><time>2026-04-06T09:40:14Z</time></trkpt><trkpt lat="45.52637429578392" lon="10.382910278971254"><ele>166.0</ele><time>2026-04-06T09:40:15Z</time></trkpt><trkpt lat="45.52647856545535" lon="10.383229988281887"><ele>165.5</ele><time>2026-04-06T09:40:16Z</time></trkpt><trkpt lat="45.526579814470466" lon="10.383557444612293"><ele>165.0</ele><time>2026-04-06T09:40:17Z</time></trkpt><trkpt lat="45.526680803301" lon="10.38388521972411"><ele>166.5</ele><time>2026-04-06T09:40:18Z</time></trkpt><trkpt lat="45.52678167781951" lon="10.384207484889025"><ele>168.0</ele><time>2026-04-06T09:40:19Z</time></trkpt><trkpt lat="45.52688393339822" lon="10.384526280955345"><ele>167.5</ele><time>2026-04-06T09:40:20Z</time></trkpt><trkpt lat="45.52698033182473" lon="10.38484469428243"><ele>167.0</ele><time>2026-04-06T09:40:21Z</time></trkpt><trkpt lat="45.527075695637656" lon="10.385158955079907"><ele>167.0</ele><time>2026-04-06T09:40:22Z</time></trkpt><trkpt lat="45.52717070398371" lon="10.38547209488919"><ele>167.0</ele><time>2026-04-06T09:40:23Z</time></trkpt><trkpt lat="45.527261572121795" lon="10.385772089609649"><ele>166.0</ele><time>2026-04-06T09:40:24Z</time></trkpt><trkpt lat="45.52735565537462" lon="10.386067263629366"><ele>165.0</ele><time>2026-04-06T09:40:25Z</time></trkpt><trkpt lat="45.52745277418203" lon="10.386369121298825"><ele>165.0</ele><time>2026-04-06T09:40:26Z</time></trkpt><trkpt lat="45.52754779894514" lon="10.386666553199905"><ele>165.0</ele><time>2026-04-06T09:40:27Z</time></trkpt><trkpt lat="45.527635507950095" lon="10.386972238114867"><ele>165.0</ele><time>2026-04-06T09:40:28Z</time></trkpt><trkpt lat="45.52772374189833" lon="10.387277655013706"><ele>165.0</ele><time>2026-04-06T09:40:29Z</time></trkpt><trkpt lat="45.527817978101105" lon="10.387578837065158"><ele>165.5</ele><time>2026-04-06T09:40:30Z</time></trkpt><trkpt lat="45.527912747215474" lon="10.387878997546585"><ele>166.0</ele><time>2026-04-06T09:40:31Z</time></trkpt><trkpt lat="45.528004002653006" lon="10.388181363597708"><ele>166.5</ele><time>2026-04-06T09:40:32Z</time></trkpt><trkpt lat="45.52809586378114" lon="10.388484231681504"><ele>167.0</ele><time>2026-04-06T09:40:33Z</time></trkpt><trkpt lat="45.528189676469964" lon="10.388790394509343"><ele>167.5</ele><time>2026-04-06T09:40:34Z</time></trkpt><trkpt lat="45.528285755514396" lon="10.389101822193359"><ele>168.0</ele><time>2026-04-06T09:40:35Z</time></trkpt><trkpt lat="45.52839193538025" lon="10.38941120398413"><ele>168.0</ele><time>2026-04-06T09:40:36Z</time></trkpt><trkpt lat="45.52849320973754" lon="10.389707905904547"><ele>168.0</ele><time>2026-04-06T09:40:37Z</time></trkpt><trkpt lat="45.52859585083735" lon="10.389989048128001"><ele>168.0</ele><time>2026-04-06T09:40:38Z</time></trkpt><trkpt lat="45.52868924469577" lon="10.39027020572321"><ele>168.0</ele><time>2026-04-06T09:40:39Z</time></trkpt><trkpt lat="45.52878268326046" lon="10.390555231091142"><ele>168.0</ele><time>2026-04-06T09:40:40Z</time></trkpt><trkpt lat="45.52888035897555" lon="10.390831795478052"><ele>167.66666666666666</ele><time>2026-04-06T09:40:41Z</time></trkpt><trkpt lat="45.52897578982349" lon="10.39110276734201"><ele>167.33333333333331</ele><time>2026-04-06T09:40:42Z</time></trkpt><trkpt lat="45.529068946754386" lon="10.39137238290918"><ele>167.0</ele><time>2026-04-06T09:40:43Z</time></trkpt><trkpt lat="45.52916021592098" lon="10.391639674829946"><ele>167.33333333333331</ele><time>2026-04-06T09:40:44Z</time></trkpt><trkpt lat="45.52925724736535" lon="10.391916454717455"><ele>167.66666666666666</ele><time>2026-04-06T09:40:45Z</time></trkpt><trkpt lat="45.52935497203273" lon="10.392194713995337"><ele>168.0</ele><time>2026-04-06T09:40:46Z</time></trkpt><trkpt lat="45.52944788412625" lon="10.39247549669545"><ele>168.0</ele><time>2026-04-06T09:40:47Z</time></trkpt><trkpt lat="45.52954376449318" lon="10.392757176835154"><ele>168.0</ele><time>2026-04-06T09:40:48Z</time></trkpt><trkpt lat="45.529642275972975" lon="10.393026973706425"><ele>168.0</ele><time>2026-04-06T09:40:49Z</time></trkpt><trkpt lat="45.52973604908456" lon="10.393290333746965"><ele>168.33333333333334</ele><time>2026-04-06T09:40:50Z</time></trkpt><trkpt lat="45.52982824745906" lon="10.393556885050138"><ele>168.66666666666669</ele><time>2026-04-06T09:40:51Z</time></trkpt><trkpt lat="45.52992447552819" lon="10.393827443022069"><ele>169.0</ele><time>2026-04-06T09:40:52Z</time></trkpt><trkpt lat="45.5300291938499" lon="10.394116097615903"><ele>169.0</ele><time>2026-04-06T09:40:53Z</time></trkpt><trkpt lat="45.53013421186736" lon="10.394413691870666"><ele>169.0</ele><time>2026-04-06T09:40:54Z</time></trkpt><trkpt lat="45.53023934239072" lon="10.394713040294908"><ele>169.0</ele><time>2026-04-06T09:40:55Z</time></trkpt><trkpt lat="45.53034595693347" lon="10.395012114935025"><ele>169.0</ele><time>2026-04-06T09:40:56Z</time></trkpt><trkpt lat="45.53044884520068" lon="10.39530476820583"><ele>170.5</ele><time>2026-04-06T09:40:57Z</time></trkpt><trkpt lat="45.53055845518472" lon="10.39559507531467"><ele>172.0</ele><time>2026-04-06T09:40:58Z</time></trkpt><trkpt lat="45.530665873783576" lon="10.395888796317267"><ele>172.0</ele><time>2026-04-06T09:40:59Z</time></trkpt><trkpt lat="45.530768212715216" lon="10.39618604777944"><ele>172.0</ele><time>2026-04-06T09:41:00Z</time></trkpt><trkpt lat="45.53087469572632" lon="10.396489207244864"><ele>172.5</ele><time>2026-04-06T09:41:01Z</time></trkpt><trkpt lat="45.53098342828229" lon="10.396794640143579"><ele>173.0</ele><time>2026-04-06T09:41:02Z</time></trkpt><trkpt lat="45.5310926060564" lon="10.397097431771371"><ele>173.5</ele><time>2026-04-06T09:41:03Z</time></trkpt><trkpt lat="45.531201681013535" lon="10.397404877315346"><ele>174.0</ele><time>2026-04-06T09:41:04Z</time></trkpt><trkpt lat="45.53131475752721" lon="10.397713131305668"><ele>174.0</ele><time>2026-04-06T09:41:05Z</time></trkpt><trkpt lat="45.53141990944931" lon="10.398013324572648"><ele>174.0</ele><time>2026-04-06T09:41:06Z</time></trkpt><trkpt lat="45.531524322786176" lon="10.398320174514465"><ele>174.0</ele><time>2026-04-06T09:41:07Z</time></trkpt><trkpt lat="45.531623566971014" lon="10.398643265372687"><ele>174.0</ele><time>2026-04-06T09:41:08Z</time></trkpt><trkpt lat="45.53174815722392" lon="10.398941410237866"><ele>173.5</ele><time>2026-04-06T09:41:09Z</time></trkpt><trkpt lat="45.531857642753884" lon="10.399256283899904"><ele>173.0</ele><time>2026-04-06T09:41:10Z</time></trkpt><trkpt lat="45.531964810813484" lon="10.399575682126343"><ele>171.5</ele><time>2026-04-06T09:41:11Z</time></trkpt><trkpt lat="45.53207804327598" lon="10.399887598136782"><ele>170.0</ele><time>2026-04-06T09:41:12Z</time></trkpt><trkpt lat="45.53219805544135" lon="10.400203284370658"><ele>171.0</ele><time>2026-04-06T09:41:13Z</time></trkpt><trkpt lat="45.5323231952177" lon="10.40052516817625"><ele>172.0</ele><time>2026-04-06T09:41:14Z</time></trkpt><trkpt lat="45.53244382916754" lon="10.400858815126707"><ele>172.0</ele><time>2026-04-06T09:41:15Z</time></trkpt><trkpt lat="45.5325432441546" lon="10.401205894814868"><ele>172.0</ele><time>2026-04-06T09:41:16Z</time></trkpt><trkpt lat="45.53262449354636" lon="10.401557788418753"><ele>173.0</ele><time>2026-04-06T09:41:17Z</time></trkpt><trkpt lat="45.53276737950434" lon="10.401865767939897"><ele>174.0</ele><time>2026-04-06T09:41:18Z</time></trkpt><trkpt lat="45.53290130415583" lon="10.402173363524572"><ele>174.0</ele><time>2026-04-06T09:41:19Z</time></trkpt><trkpt lat="45.53302335733574" lon="10.402491912432088"><ele>174.0</ele><time>2026-04-06T09:41:20Z</time></trkpt><trkpt lat="45.533144654324325" lon="10.402818315992654"><ele>174.5</ele><time>2026-04-06T09:41:21Z</time></trkpt><trkpt lat="45.53326794926751" lon="10.403144055128044"><ele>175.0</ele><time>2026-04-06T09:41:22Z</time></trkpt><trkpt lat="45.533388463009096" lon="10.403467941028198"><ele>175.0</ele><time>2026-04-06T09:41:23Z</time></trkpt><trkpt lat="45.533508897725454" lon="10.403790847071164"><ele>175.0</ele><time>2026-04-06T09:41:24Z</time></trkpt><trkpt lat="45.533631973412504" lon="10.404116421940701"><ele>175.0</ele><time>2026-04-06T09:41:25Z</time></trkpt><trkpt lat="45.533757902727025" lon="10.404450324983719"><ele>175.0</ele><time>2026-04-06T09:41:26Z</time></trkpt><trkpt lat="45.533885092378576" lon="10.404792050551011"><ele>175.5</ele><time>2026-04-06T09:41:27Z</time></trkpt><trkpt lat="45.53401246026263" lon="10.405125379946705"><ele>176.0</ele><time>2026-04-06T09:41:28Z</time></trkpt><trkpt lat="45.53413196464029" lon="10.405454056771209"><ele>176.0</ele><time>2026-04-06T09:41:29Z</time></trkpt><trkpt lat="45.5342519230533" lon="10.40577991129019"><ele>176.0</ele><time>2026-04-06T09:41:30Z</time></trkpt><trkpt lat="45.53437269414629" lon="10.406105681916019"><ele>176.5</ele><time>2026-04-06T09:41:31Z</time></trkpt><trkpt lat="45.53449325142469" lon="10.406425746706121"><ele>177.0</ele><time>2026-04-06T09:41:32Z</time></trkpt><trkpt lat="45.534611855340145" lon="10.406748211528326"><ele>177.0</ele><time>2026-04-06T09:41:33Z</time></trkpt><trkpt lat="45.53472796700382" lon="10.407077307957646"><ele>177.0</ele><time>2026-04-06T09:41:34Z</time></trkpt><trkpt lat="45.534850744101874" lon="10.407390799251472"><ele>177.0</ele><time>2026-04-06T09:41:35Z</time></trkpt><trkpt lat="45.534982165215126" lon="10.407688789326647"><ele>177.0</ele><time>2026-04-06T09:41:36Z</time></trkpt><trkpt lat="45.535106957408274" lon="10.407969183179354"><ele>177.0</ele><time>2026-04-06T09:41:37Z</time></trkpt><trkpt lat="45.535226911943646" lon="10.40824243287012"><ele>177.0</ele><time>2026-04-06T09:41:38Z</time></trkpt><trkpt lat="45.53534182805535" lon="10.408498847429371"><ele>177.0</ele><time>2026-04-06T09:41:39Z</time></trkpt><trkpt lat="45.53544839487691" lon="10.408742406724656"><ele>177.33333333333334</ele><time>2026-04-06T09:41:40Z</time></trkpt><trkpt lat="45.5355623695771" lon="10.408997112554026"><ele>177.66666666666669</ele><time>2026-04-06T09:41:41Z</time></trkpt><trkpt lat="45.535681584131986" lon="10.409256143085088"><ele>178.0</ele><time>2026-04-06T09:41:42Z</time></trkpt><trkpt lat="45.535798098285476" lon="10.409516503572469"><ele>179.0</ele><time>2026-04-06T09:41:43Z</time></trkpt><trkpt lat="45.53591236849474" lon="10.40977170167119"><ele>180.0</ele><time>2026-04-06T09:41:44Z</time></trkpt><trkpt lat="45.536015352809336" lon="10.410012686686116"><ele>181.0</ele><time>2026-04-06T09:41:45Z</time></trkpt><trkpt lat="45.53611034441157" lon="10.410239319672886"><ele>181.0</ele><time>2026-04-06T09:41:46Z</time></trkpt><trkpt lat="45.53620645984747" lon="10.41047529630443"><ele>181.0</ele><time>2026-04-06T09:41:47Z</time></trkpt><trkpt lat="45.53630332384617" lon="10.410734905327761"><ele>181.0</ele><time>2026-04-06T09:41:48Z</time></trkpt><trkpt lat="45.53638853745802" lon="10.411021483023639"><ele>180.0</ele><time>2026-04-06T09:41:49.001Z</time></trkpt><trkpt lat="45.536461714488325" lon="10.41131322908312"><ele>179.0</ele><time>2026-04-06T09:41:50.001Z</time></trkpt><trkpt lat="45.53653889275973" lon="10.411610797336643"><ele>178.0</ele><time>2026-04-06T09:41:51.001Z</time></trkpt><trkpt lat="45.536611425409134" lon="10.411919039371334"><ele>179.0</ele><time>2026-04-06T09:41:52.001Z</time></trkpt><trkpt lat="45.53666992542337" lon="10.412233964360746"><ele>180.0</ele><time>2026-04-06T09:41:53.001Z</time></trkpt><trkpt lat="45.5367122430961" lon="10.412554398948954"><ele>180.0</ele><time>2026-04-06T09:41:54.001Z</time></trkpt><trkpt lat="45.53674550752875" lon="10.412879840109996"><ele>180.0</ele><time>2026-04-06T09:41:55.001Z</time></trkpt><trkpt lat="45.536780385331845" lon="10.41321209515128"><ele>180.5</ele><time>2026-04-06T09:41:56.001Z</time></trkpt><trkpt lat="45.5368168538933" lon="10.413555532401526"><ele>181.0</ele><time>2026-04-06T09:41:57.001Z</time></trkpt><trkpt lat="45.53685247284319" lon="10.413903067369372"><ele>181.0</ele><time>2026-04-06T09:41:58.001Z</time></trkpt><trkpt lat="45.536886027980685" lon="10.41423854252589"><ele>181.0</ele><time>2026-04-06T09:41:59.001Z</time></trkpt><trkpt lat="45.53692057825334" lon="10.414561751075235"><ele>181.0</ele><time>2026-04-06T09:42:00.001Z</time></trkpt><trkpt lat="45.53694968023301" lon="10.414855135116149"><ele>181.0</ele><time>2026-04-06T09:42:01.001Z</time></trkpt><trkpt lat="45.536980207124515" lon="10.415128393638733"><ele>181.0</ele><time>2026-04-06T09:42:02.001Z</time></trkpt><trkpt lat="45.53702064212306" lon="10.41539335589126"><ele>181.33333333333334</ele><time>2026-04-06T09:42:03.001Z</time></trkpt><trkpt lat="45.53708469451718" lon="10.41568027546637"><ele>181.66666666666666</ele><time>2026-04-06T09:42:04.001Z</time></trkpt><trkpt lat="45.53716459036699" lon="10.41596530992736"><ele>182.0</ele><time>2026-04-06T09:42:05.001Z</time></trkpt><trkpt lat="45.53726473755553" lon="10.416235309048625"><ele>182.33333333333331</ele><time>2026-04-06T09:42:06.001Z</time></trkpt><trkpt lat="45.53736939518726" lon="10.416481216460006"><ele>182.66666666666666</ele><time>2026-04-06T09:42:07.001Z</time></trkpt><trkpt lat="45.53748649688298" lon="10.41670426210211"><ele>183.0</ele><time>2026-04-06T09:42:08.001Z</time></trkpt><trkpt lat="45.53762089319116" lon="10.416919094208641"><ele>183.0</ele><time>2026-04-06T09:42:09.001Z</time></trkpt><trkpt lat="45.53776906298619" lon="10.417146635565429"><ele>183.0</ele><time>2026-04-06T09:42:10.001Z</time></trkpt><trkpt lat="45.53792083621597" lon="10.417384250943805"><ele>183.0</ele><time>2026-04-06T09:42:11.001Z</time></trkpt><trkpt lat="45.53806904791144" lon="10.417614109614043"><ele>182.0</ele><time>2026-04-06T09:42:12.001Z</time></trkpt><trkpt lat="45.53821928324482" lon="10.417846775819386"><ele>181.0</ele><time>2026-04-06T09:42:13.001Z</time></trkpt><trkpt lat="45.538379163746036" lon="10.418090810558335"><ele>180.5</ele><time>2026-04-06T09:42:14Z</time></trkpt><trkpt lat="45.53853958424771" lon="10.418339426763842"><ele>180.0</ele><time>2026-04-06T09:42:15Z</time></trkpt><trkpt lat="45.538700931074835" lon="10.418588751114255"><ele>182.0</ele><time>2026-04-06T09:42:16Z</time></trkpt><trkpt lat="45.53886690486199" lon="10.418840918429831"><ele>184.0</ele><time>2026-04-06T09:42:17Z</time></trkpt><trkpt lat="45.5390331894488" lon="10.419092740876348"><ele>184.0</ele><time>2026-04-06T09:42:18Z</time></trkpt><trkpt lat="45.53920544238364" lon="10.4193406522572"><ele>184.0</ele><time>2026-04-06T09:42:19Z</time></trkpt><trkpt lat="45.53938363203064" lon="10.41958634202359"><ele>183.0</ele><time>2026-04-06T09:42:20Z</time></trkpt><trkpt lat="45.53956046952524" lon="10.419829725689805"><ele>182.0</ele><time>2026-04-06T09:42:21Z</time></trkpt><trkpt lat="45.53973772237194" lon="10.42007031568444"><ele>182.0</ele><time>2026-04-06T09:42:22Z</time></trkpt><trkpt lat="45.53991945451773" lon="10.42029289772226"><ele>182.0</ele><time>2026-04-06T09:42:23Z</time></trkpt><trkpt lat="45.54010257617746" lon="10.420513331662105"><ele>182.5</ele><time>2026-04-06T09:42:24Z</time></trkpt><trkpt lat="45.540284547664214" lon="10.420737507244167"><ele>183.0</ele><time>2026-04-06T09:42:25Z</time></trkpt><trkpt lat="45.54046442010176" lon="10.420958663416176"><ele>183.5</ele><time>2026-04-06T09:42:26Z</time></trkpt><trkpt lat="45.54063694862417" lon="10.42117032598335"><ele>184.0</ele><time>2026-04-06T09:42:27Z</time></trkpt><trkpt lat="45.54080568865739" lon="10.421378111781019"><ele>183.66666666666669</ele><time>2026-04-06T09:42:28Z</time></trkpt><trkpt lat="45.5409740570112" lon="10.4215788302285"><ele>183.33333333333334</ele><time>2026-04-06T09:42:29Z</time></trkpt><trkpt lat="45.54113145587077" lon="10.421767165064402"><ele>183.0</ele><time>2026-04-06T09:42:30Z</time></trkpt><trkpt lat="45.541286759123864" lon="10.421959433047684"><ele>183.0</ele><time>2026-04-06T09:42:31Z</time></trkpt><trkpt lat="45.54142999083355" lon="10.422140016507939"><ele>183.0</ele><time>2026-04-06T09:42:32Z</time></trkpt><trkpt lat="45.5415470165411" lon="10.422291812543659"><ele>183.0</ele><time>2026-04-06T09:42:33Z</time></trkpt><trkpt lat="45.54165793167508" lon="10.422434534685888"><ele>183.0</ele><time>2026-04-06T09:42:34Z</time></trkpt><trkpt lat="45.541777470935855" lon="10.422579844434907"><ele>183.0</ele><time>2026-04-06T09:42:35Z</time></trkpt><trkpt lat="45.541898903523546" lon="10.422726242411649"><ele>183.0</ele><time>2026-04-06T09:42:36Z</time></trkpt><trkpt lat="45.542020678065334" lon="10.422870378736368"><ele>183.33333333333334</ele><time>2026-04-06T09:42:37Z</time></trkpt><trkpt lat="45.54213455616675" lon="10.423008383974098"><ele>183.66666666666669</ele><time>2026-04-06T09:42:38Z</time></trkpt><trkpt lat="45.54224575060964" lon="10.423140883556021"><ele>184.0</ele><time>2026-04-06T09:42:39Z</time></trkpt><trkpt lat="45.54237120910451" lon="10.423279505477584"><ele>184.0</ele><time>2026-04-06T09:42:40Z</time></trkpt><trkpt lat="45.54250920304846" lon="10.423439093730979"><ele>184.0</ele><time>2026-04-06T09:42:41Z</time></trkpt><trkpt lat="45.54265025593764" lon="10.42360799222763"><ele>184.0</ele><time>2026-04-06T09:42:42Z</time></trkpt><trkpt lat="45.54278756675331" lon="10.423774947126363"><ele>183.33333333333334</ele><time>2026-04-06T09:42:43Z</time></trkpt><trkpt lat="45.542930381379506" lon="10.423943109587844"><ele>182.66666666666666</ele><time>2026-04-06T09:42:44Z</time></trkpt><trkpt lat="45.543077680971855" lon="10.42411017241104"><ele>182.0</ele><time>2026-04-06T09:42:45Z</time></trkpt><trkpt lat="45.54322123771297" lon="10.424281606413055"><ele>182.0</ele><time>2026-04-06T09:42:46Z</time></trkpt><trkpt lat="45.5433572085512" lon="10.424454758625213"><ele>182.0</ele><time>2026-04-06T09:42:47Z</time></trkpt><trkpt lat="45.543489992375044" lon="10.424626523840024"><ele>182.0</ele><time>2026-04-06T09:42:48Z</time></trkpt><trkpt lat="45.54361583930771" lon="10.424762105745842"><ele>183.0</ele><time>2026-04-06T09:42:49Z</time></trkpt><trkpt lat="45.5437434402634" lon="10.42492159475645"><ele>184.0</ele><time>2026-04-06T09:42:50Z</time></trkpt><trkpt lat="45.54386866621973" lon="10.425070969136051"><ele>185.0</ele><time>2026-04-06T09:42:51Z</time></trkpt><trkpt lat="45.54399833720453" lon="10.425224394010122"><ele>185.0</ele><time>2026-04-06T09:42:52Z</time></trkpt><trkpt lat="45.54413178346172" lon="10.425378600610989"><ele>185.0</ele><time>2026-04-06T09:42:53Z</time></trkpt><trkpt lat="45.54425828514926" lon="10.425531263691042"><ele>185.0</ele><time>2026-04-06T09:42:54Z</time></trkpt><trkpt lat="45.54437474456648" lon="10.425664967014947"><ele>185.0</ele><time>2026-04-06T09:42:55Z</time></trkpt><trkpt lat="45.544487859997574" lon="10.425789947014355"><ele>185.0</ele><time>2026-04-06T09:42:56Z</time></trkpt><trkpt lat="45.54460934965591" lon="10.425932045985148"><ele>185.0</ele><time>2026-04-06T09:42:57Z</time></trkpt><trkpt lat="45.544736714371645" lon="10.426080659363679"><ele>185.0</ele><time>2026-04-06T09:42:58Z</time></trkpt><trkpt lat="45.54487364253614" lon="10.426237888748917"><ele>185.0</ele><time>2026-04-06T09:42:59Z</time></trkpt><trkpt lat="45.54500892630481" lon="10.426395739912493"><ele>185.0</ele><time>2026-04-06T09:43:00Z</time></trkpt><trkpt lat="45.545136249450884" lon="10.426541759747398"><ele>185.66666666666666</ele><time>2026-04-06T09:43:01Z</time></trkpt><trkpt lat="45.545264715383794" lon="10.426688744052605"><ele>186.33333333333334</ele><time>2026-04-06T09:43:02.017Z</time></trkpt><trkpt lat="45.54539221311927" lon="10.426833383313548"><ele>187.0</ele><time>2026-04-06T09:43:03.022Z</time></trkpt><trkpt lat="45.54551810059034" lon="10.426976100128012"><ele>187.0</ele><time>2026-04-06T09:43:04.015Z</time></trkpt><trkpt lat="45.545644470017145" lon="10.427118898045348"><ele>187.0</ele><time>2026-04-06T09:43:05.016Z</time></trkpt><trkpt lat="45.54577015909421" lon="10.427266155305665"><ele>187.0</ele><time>2026-04-06T09:43:06.017Z</time></trkpt><trkpt lat="45.54589549769201" lon="10.427411804097565"><ele>187.33333333333334</ele><time>2026-04-06T09:43:07.018Z</time></trkpt><trkpt lat="45.54601992994203" lon="10.427559459028187"><ele>187.66666666666666</ele><time>2026-04-06T09:43:08.017Z</time></trkpt><trkpt lat="45.546147143795075" lon="10.427708281948878"><ele>188.0</ele><time>2026-04-06T09:43:09.017Z</time></trkpt><trkpt lat="45.547290992669716" lon="10.429020190591276"><ele>187.0</ele><time>2026-04-06T09:43:19.474Z</time></trkpt><trkpt lat="45.548088792753916" lon="10.4294245876469"><ele>187.0</ele><time>2026-04-06T09:43:21.001Z</time></trkpt><trkpt lat="45.548235479042226" lon="10.429539493181432"><ele>187.0</ele><time>2026-04-06T09:43:22.001Z</time></trkpt><trkpt lat="45.54834462044869" lon="10.429669719287816"><ele>187.0</ele><time>2026-04-06T09:43:23.001Z</time></trkpt><trkpt lat="45.548480502186635" lon="10.429767387944057"><ele>187.25</ele><time>2026-04-06T09:43:24.001Z</time></trkpt><trkpt lat="45.548610598654484" lon="10.429868472620633"><ele>187.5</ele><time>2026-04-06T09:43:25.001Z</time></trkpt><trkpt lat="45.548737090942225" lon="10.42995831123544"><ele>187.75</ele><time>2026-04-06T09:43:26.001Z</time></trkpt><trkpt lat="45.54886316274881" lon="10.430060163668808"><ele>188.0</ele><time>2026-04-06T09:43:27.001Z</time></trkpt><trkpt lat="45.54898826308367" lon="10.430164315797839"><ele>188.0</ele><time>2026-04-06T09:43:28.001Z</time></trkpt><trkpt lat="45.54910945164613" lon="10.430254851246831"><ele>188.0</ele><time>2026-04-06T09:43:29.001Z</time></trkpt><trkpt lat="45.54921913674442" lon="10.430341850436365"><ele>188.0</ele><time>2026-04-06T09:43:30.001Z</time></trkpt><trkpt lat="45.54932474351353" lon="10.430422654213668"><ele>188.0</ele><time>2026-04-06T09:43:31.001Z</time></trkpt><trkpt lat="45.54943980489596" lon="10.430507171810893"><ele>188.25</ele><time>2026-04-06T09:43:32.001Z</time></trkpt><trkpt lat="45.54955889000706" lon="10.430600666067106"><ele>188.5</ele><time>2026-04-06T09:43:33.001Z</time></trkpt><trkpt lat="45.54968641653576" lon="10.430695704509377"><ele>188.75</ele><time>2026-04-06T09:43:34.001Z</time></trkpt><trkpt lat="45.54981930818037" lon="10.430794891786345"><ele>189.0</ele><time>2026-04-06T09:43:35.001Z</time></trkpt><trkpt lat="45.54994080370762" lon="10.43088755072235"><ele>189.0</ele><time>2026-04-06T09:43:36.001Z</time></trkpt><trkpt lat="45.55006517315844" lon="10.430982474168404"><ele>189.0</ele><time>2026-04-06T09:43:37.001Z</time></trkpt><trkpt lat="45.55018849043137" lon="10.431078089427022"><ele>189.0</ele><time>2026-04-06T09:43:38.001Z</time></trkpt><trkpt lat="45.55031461502596" lon="10.431175719447376"><ele>189.0</ele><time>2026-04-06T09:43:39.001Z</time></trkpt><trkpt lat="45.55044882819847" lon="10.43127704082232"><ele>190.0</ele><time>2026-04-06T09:43:40.001Z</time></trkpt><trkpt lat="45.55059567357828" lon="10.431379274828531"><ele>191.0</ele><time>2026-04-06T09:43:41.001Z</time></trkpt><trkpt lat="45.5507598651995" lon="10.431489057586788"><ele>192.0</ele><time>2026-04-06T09:43:42.001Z</time></trkpt><trkpt lat="45.55093141115469" lon="10.43160623928171"><ele>192.0</ele><time>2026-04-06T09:43:43.001Z</time></trkpt><trkpt lat="45.55111309481541" lon="10.431732049540898"><ele>192.0</ele><time>2026-04-06T09:43:44.001Z</time></trkpt><trkpt lat="45.55131514590549" lon="10.431860845173183"><ele>192.0</ele><time>2026-04-06T09:43:45.001Z</time></trkpt><trkpt lat="45.55154185142647" lon="10.431977724731322"><ele>192.0</ele><time>2026-04-06T09:43:46.001Z</time></trkpt><trkpt lat="45.55176551689885" lon="10.432106986377743"><ele>192.0</ele><time>2026-04-06T09:43:47.001Z</time></trkpt><trkpt lat="45.55197703235465" lon="10.432233089627506"><ele>191.33333333333334</ele><time>2026-04-06T09:43:48.001Z</time></trkpt><trkpt lat="45.55216298433267" lon="10.432338859435747"><ele>190.66666666666669</ele><time>2026-04-06T09:43:49.001Z</time></trkpt><trkpt lat="45.55232971494484" lon="10.432424819198738"><ele>190.0</ele><time>2026-04-06T09:43:50.001Z</time></trkpt><trkpt lat="45.55248169303406" lon="10.432496757024353"><ele>190.0</ele><time>2026-04-06T09:43:51.001Z</time></trkpt><trkpt lat="45.552627555694635" lon="10.432565465488246"><ele>190.0</ele><time>2026-04-06T09:43:52.001Z</time></trkpt><trkpt lat="45.552789958156104" lon="10.432640067195562"><ele>190.0</ele><time>2026-04-06T09:43:53.001Z</time></trkpt><trkpt lat="45.552956905858835" lon="10.43271239285672"><ele>190.0</ele><time>2026-04-06T09:43:54.001Z</time></trkpt><trkpt lat="45.553114318642734" lon="10.432779719753876"><ele>190.0</ele><time>2026-04-06T09:43:55.001Z</time></trkpt><trkpt lat="45.55325971516662" lon="10.432840381395394"><ele>190.0</ele><time>2026-04-06T09:43:56.001Z</time></trkpt><trkpt lat="45.5534038915455" lon="10.432898641730468"><ele>190.0</ele><time>2026-04-06T09:43:57.001Z</time></trkpt><trkpt lat="45.55355439787026" lon="10.432961915367455"><ele>190.0</ele><time>2026-04-06T09:43:58.001Z</time></trkpt><trkpt lat="45.55370949566586" lon="10.433026950816451"><ele>190.0</ele><time>2026-04-06T09:43:59.001Z</time></trkpt><trkpt lat="45.553868618738036" lon="10.433107317172693"><ele>189.66666666666669</ele><time>2026-04-06T09:44:00.001Z</time></trkpt><trkpt lat="45.554027220211076" lon="10.433201292471901"><ele>189.33333333333334</ele><time>2026-04-06T09:44:01.001Z</time></trkpt><trkpt lat="45.55419180305742" lon="10.433306251572965"><ele>189.0</ele><time>2026-04-06T09:44:02.001Z</time></trkpt><trkpt lat="45.55436523226277" lon="10.433413668680197"><ele>188.66666666666666</ele><time>2026-04-06T09:44:03.001Z</time></trkpt><trkpt lat="45.55454249855386" lon="10.43352296638701"><ele>188.33333333333331</ele><time>2026-04-06T09:44:04.001Z</time></trkpt><trkpt lat="45.55471133968378" lon="10.433633000625719"><ele>188.0</ele><time>2026-04-06T09:44:05.001Z</time></trkpt><trkpt lat="45.55487984047803" lon="10.433742213221784"><ele>188.0</ele><time>2026-04-06T09:44:06.001Z</time></trkpt><trkpt lat="45.55505013769616" lon="10.433847879557296"><ele>188.0</ele><time>2026-04-06T09:44:07.001Z</time></trkpt><trkpt lat="45.55522121467481" lon="10.433959529292144"><ele>188.0</ele><time>2026-04-06T09:44:08.001Z</time></trkpt><trkpt lat="45.555393912107064" lon="10.43407002422501"><ele>189.66666666666666</ele><time>2026-04-06T09:44:09.001Z</time></trkpt><trkpt lat="45.5555656886555" lon="10.434177501163589"><ele>191.33333333333331</ele><time>2026-04-06T09:44:10.001Z</time></trkpt><trkpt lat="45.5557456323053" lon="10.434291760520914"><ele>193.0</ele><time>2026-04-06T09:44:11.001Z</time></trkpt><trkpt lat="45.55593471259682" lon="10.434417368498229"><ele>193.0</ele><time>2026-04-06T09:44:12.001Z</time></trkpt><trkpt lat="45.55614232438251" lon="10.434548551763305"><ele>193.0</ele><time>2026-04-06T09:44:13.001Z</time></trkpt><trkpt lat="45.556358304508436" lon="10.434692163708302"><ele>190.5</ele><time>2026-04-06T09:44:14.001Z</time></trkpt><trkpt lat="45.55659043545758" lon="10.434841094396598"><ele>188.0</ele><time>2026-04-06T09:44:15.001Z</time></trkpt><trkpt lat="45.556822774265406" lon="10.434994235385897"><ele>189.0</ele><time>2026-04-06T09:44:16.001Z</time></trkpt><trkpt lat="45.55706446503574" lon="10.435147672502838"><ele>190.0</ele><time>2026-04-06T09:44:17.001Z</time></trkpt><trkpt lat="45.557307633517446" lon="10.435303053410765"><ele>190.0</ele><time>2026-04-06T09:44:18.001Z</time></trkpt><trkpt lat="45.55754770062629" lon="10.435453043824662"><ele>190.0</ele><time>2026-04-06T09:44:19.001Z</time></trkpt><trkpt lat="45.557778724285775" lon="10.435602446455773"><ele>190.0</ele><time>2026-04-06T09:44:20.001Z</time></trkpt><trkpt lat="45.55799140839766" lon="10.435733994704481"><ele>190.0</ele><time>2026-04-06T09:44:21.001Z</time></trkpt><trkpt lat="45.558188451233804" lon="10.435859888529741"><ele>190.0</ele><time>2026-04-06T09:44:22.001Z</time></trkpt><trkpt lat="45.558368041385194" lon="10.435982390988839"><ele>190.0</ele><time>2026-04-06T09:44:23.001Z</time></trkpt><trkpt lat="45.55854626109396" lon="10.436109773169969"><ele>190.0</ele><time>2026-04-06T09:44:24.001Z</time></trkpt><trkpt lat="45.55872806294457" lon="10.43624742433904"><ele>190.0</ele><time>2026-04-06T09:44:25.001Z</time></trkpt><trkpt lat="45.558910507476504" lon="10.436390101077517"><ele>190.0</ele><time>2026-04-06T09:44:26.001Z</time></trkpt><trkpt lat="45.55909038566212" lon="10.436529173967692"><ele>190.0</ele><time>2026-04-06T09:44:27.001Z</time></trkpt><trkpt lat="45.55926287126177" lon="10.436668686839448"><ele>190.0</ele><time>2026-04-06T09:44:28.001Z</time></trkpt><trkpt lat="45.55943644220605" lon="10.436811654100715"><ele>190.0</ele><time>2026-04-06T09:44:29.001Z</time></trkpt><trkpt lat="45.55961826943568" lon="10.436960428509224"><ele>190.0</ele><time>2026-04-06T09:44:30.001Z</time></trkpt><trkpt lat="45.55980588963994" lon="10.437122188147175"><ele>190.0</ele><time>2026-04-06T09:44:31.001Z</time></trkpt><trkpt lat="45.55999556976625" lon="10.437290093548091"><ele>190.0</ele><time>2026-04-06T09:44:32.001Z</time></trkpt><trkpt lat="45.56018329238441" lon="10.437459389571384"><ele>190.0</ele><time>2026-04-06T09:44:33.001Z</time></trkpt><trkpt lat="45.560373622431605" lon="10.437635527043094"><ele>190.0</ele><time>2026-04-06T09:44:34.001Z</time></trkpt><trkpt lat="45.56056642680272" lon="10.437824232300244"><ele>190.5</ele><time>2026-04-06T09:44:35.001Z</time></trkpt><trkpt lat="45.56075687626841" lon="10.438018905913472"><ele>191.0</ele><time>2026-04-06T09:44:36.001Z</time></trkpt><trkpt lat="45.56095287121772" lon="10.438222646223828"><ele>191.0</ele><time>2026-04-06T09:44:37.001Z</time></trkpt><trkpt lat="45.5611535703148" lon="10.438434811260759"><ele>191.0</ele><time>2026-04-06T09:44:38.001Z</time></trkpt><trkpt lat="45.561364139921736" lon="10.438660888468183"><ele>191.0</ele><time>2026-04-06T09:44:39.001Z</time></trkpt><trkpt lat="45.5615791210496" lon="10.43889345938748"><ele>191.0</ele><time>2026-04-06T09:44:40.001Z</time></trkpt><trkpt lat="45.561799895138535" lon="10.43913590606087"><ele>191.0</ele><time>2026-04-06T09:44:41.001Z</time></trkpt><trkpt lat="45.56202059150686" lon="10.43936920860682"><ele>191.0</ele><time>2026-04-06T09:44:42.001Z</time></trkpt><trkpt lat="45.56223262951173" lon="10.439590619549618"><ele>190.5</ele><time>2026-04-06T09:44:43.001Z</time></trkpt><trkpt lat="45.56243648184516" lon="10.43980550667"><ele>190.0</ele><time>2026-04-06T09:44:44.001Z</time></trkpt><trkpt lat="45.56263300683882" lon="10.440013696350698"><ele>190.0</ele><time>2026-04-06T09:44:45.001Z</time></trkpt><trkpt lat="45.562832175905456" lon="10.440222404974586"><ele>190.0</ele><time>2026-04-06T09:44:46.001Z</time></trkpt><trkpt lat="45.56303555576842" lon="10.4404317180939"><ele>190.0</ele><time>2026-04-06T09:44:47.001Z</time></trkpt><trkpt lat="45.563231962953964" lon="10.440642470323018"><ele>190.0</ele><time>2026-04-06T09:44:48.001Z</time></trkpt><trkpt lat="45.56342445802081" lon="10.440858722354218"><ele>190.0</ele><time>2026-04-06T09:44:49.001Z</time></trkpt><trkpt lat="45.56361858147832" lon="10.441051951252973"><ele>190.0</ele><time>2026-04-06T09:44:50.001Z</time></trkpt><trkpt lat="45.56381799022566" lon="10.44122783561106"><ele>190.5</ele><time>2026-04-06T09:44:51.001Z</time></trkpt><trkpt lat="45.56402527065535" lon="10.441379487945639"><ele>191.0</ele><time>2026-04-06T09:44:52.001Z</time></trkpt><trkpt lat="45.56423513603303" lon="10.441505260215022"><ele>191.0</ele><time>2026-04-06T09:44:53.001Z</time></trkpt><trkpt lat="45.564452328094745" lon="10.44161794455653"><ele>191.0</ele><time>2026-04-06T09:44:54.001Z</time></trkpt><trkpt lat="45.56467796516658" lon="10.441725576803417"><ele>191.0</ele><time>2026-04-06T09:44:55.001Z</time></trkpt><trkpt lat="45.56490330663927" lon="10.441823710921737"><ele>191.0</ele><time>2026-04-06T09:44:56.001Z</time></trkpt><trkpt lat="45.56512502566639" lon="10.441898238907942"><ele>191.0</ele><time>2026-04-06T09:44:57.001Z</time></trkpt><trkpt lat="45.565340483490054" lon="10.441956023675207"><ele>191.0</ele><time>2026-04-06T09:44:58.001Z</time></trkpt><trkpt lat="45.565563644493835" lon="10.442000593204016"><ele>191.0</ele><time>2026-04-06T09:44:59.001Z</time></trkpt><trkpt lat="45.56578384333145" lon="10.442026199768724"><ele>191.33333333333331</ele><time>2026-04-06T09:45:00.001Z</time></trkpt><trkpt lat="45.5659980282389" lon="10.44203293311518"><ele>191.66666666666666</ele><time>2026-04-06T09:45:01.001Z</time></trkpt><trkpt lat="45.56620681446804" lon="10.442041562270107"><ele>192.0</ele><time>2026-04-06T09:45:02.001Z</time></trkpt><trkpt lat="45.56642244628312" lon="10.44205382888744"><ele>192.0</ele><time>2026-04-06T09:45:03.001Z</time></trkpt><trkpt lat="45.56664526093546" lon="10.442069821532954"><ele>192.0</ele><time>2026-04-06T09:45:04.001Z</time></trkpt><trkpt lat="45.56686953612436" lon="10.442088691320196"><ele>192.0</ele><time>2026-04-06T09:45:05.001Z</time></trkpt><trkpt lat="45.567093754240304" lon="10.44210800623878"><ele>191.5</ele><time>2026-04-06T09:45:06.001Z</time></trkpt><trkpt lat="45.56732345395632" lon="10.44212776502395"><ele>191.0</ele><time>2026-04-06T09:45:07.001Z</time></trkpt><trkpt lat="45.56754988347547" lon="10.442147389285006"><ele>191.0</ele><time>2026-04-06T09:45:08.001Z</time></trkpt><trkpt lat="45.567781624340135" lon="10.442165907625437"><ele>191.0</ele><time>2026-04-06T09:45:09.001Z</time></trkpt><trkpt lat="45.56801314470357" lon="10.442178541045758"><ele>191.0</ele><time>2026-04-06T09:45:10.001Z</time></trkpt><trkpt lat="45.56824345367924" lon="10.442183921789042"><ele>191.0</ele><time>2026-04-06T09:45:11.001Z</time></trkpt><trkpt lat="45.56845307089709" lon="10.44221823020173"><ele>191.0</ele><time>2026-04-06T09:45:12.001Z</time></trkpt><trkpt lat="45.56864843074996" lon="10.44222479375518"><ele>191.0</ele><time>2026-04-06T09:45:13.001Z</time></trkpt><trkpt lat="45.568842202385845" lon="10.442135716694239"><ele>191.0</ele><time>2026-04-06T09:45:14.001Z</time></trkpt><trkpt lat="45.56903332270511" lon="10.442108084268874"><ele>191.0</ele><time>2026-04-06T09:45:15.001Z</time></trkpt><trkpt lat="45.56920901741891" lon="10.442073960568546"><ele>192.0</ele><time>2026-04-06T09:45:16.001Z</time></trkpt><trkpt lat="45.56938188012588" lon="10.44203651685129"><ele>193.0</ele><time>2026-04-06T09:45:17.001Z</time></trkpt><trkpt lat="45.569559207613864" lon="10.441991507291766"><ele>194.0</ele><time>2026-04-06T09:45:18.001Z</time></trkpt><trkpt lat="45.56973473869893" lon="10.441943428426567"><ele>194.0</ele><time>2026-04-06T09:45:19.001Z</time></trkpt><trkpt lat="45.569914524806556" lon="10.441896626534557"><ele>194.0</ele><time>2026-04-06T09:45:20.001Z</time></trkpt><trkpt lat="45.57010218618738" lon="10.441844360943039"><ele>194.0</ele><time>2026-04-06T09:45:21.001Z</time></trkpt><trkpt lat="45.57029964010509" lon="10.441786262978557"><ele>194.33333333333334</ele><time>2026-04-06T09:45:22.001Z</time></trkpt><trkpt lat="45.570495525732035" lon="10.441730433949642"><ele>194.66666666666669</ele><time>2026-04-06T09:45:23.001Z</time></trkpt><trkpt lat="45.570692702678976" lon="10.441676653023453"><ele>195.0</ele><time>2026-04-06T09:45:24.001Z</time></trkpt><trkpt lat="45.57089322670911" lon="10.441623888373508"><ele>195.0</ele><time>2026-04-06T09:45:25.001Z</time></trkpt><trkpt lat="45.571096648979164" lon="10.441580671522008"><ele>195.0</ele><time>2026-04-06T09:45:26.001Z</time></trkpt><trkpt lat="45.57130089041131" lon="10.441567610277684"><ele>195.0</ele><time>2026-04-06T09:45:27.001Z</time></trkpt><trkpt lat="45.57151028048685" lon="10.44156887051424"><ele>194.66666666666669</ele><time>2026-04-06T09:45:28.001Z</time></trkpt><trkpt lat="45.571722428604566" lon="10.441573358219372"><ele>194.33333333333334</ele><time>2026-04-06T09:45:29.001Z</time></trkpt><trkpt lat="45.571934607883335" lon="10.441595725797626"><ele>194.0</ele><time>2026-04-06T09:45:30.001Z</time></trkpt><trkpt lat="45.57214980995092" lon="10.441634226899035"><ele>193.0</ele><time>2026-04-06T09:45:31.001Z</time></trkpt><trkpt lat="45.572371431808534" lon="10.441691482822876"><ele>192.0</ele><time>2026-04-06T09:45:32.001Z</time></trkpt><trkpt lat="45.57260190937279" lon="10.441770117608483"><ele>192.0</ele><time>2026-04-06T09:45:33.001Z</time></trkpt><trkpt lat="45.57282550903046" lon="10.441863814181275"><ele>192.0</ele><time>2026-04-06T09:45:34.001Z</time></trkpt><trkpt lat="45.573035055777176" lon="10.441962878342462"><ele>192.0</ele><time>2026-04-06T09:45:35.001Z</time></trkpt><trkpt lat="45.57324324272689" lon="10.442074081259754"><ele>192.0</ele><time>2026-04-06T09:45:36.001Z</time></trkpt><trkpt lat="45.57346262505996" lon="10.442209232879833"><ele>192.0</ele><time>2026-04-06T09:45:37.001Z</time></trkpt><trkpt lat="45.5736489774799" lon="10.442374971527261"><ele>192.0</ele><time>2026-04-06T09:45:38.001Z</time></trkpt><trkpt lat="45.57386455375068" lon="10.442537421664545"><ele>192.0</ele><time>2026-04-06T09:45:39.001Z</time></trkpt><trkpt lat="45.574070361366275" lon="10.442708004895243"><ele>192.0</ele><time>2026-04-06T09:45:40.001Z</time></trkpt><trkpt lat="45.574275030054146" lon="10.442879543452117"><ele>193.66666666666669</ele><time>2026-04-06T09:45:41.001Z</time></trkpt><trkpt lat="45.57446534626533" lon="10.443041212026564"><ele>195.33333333333334</ele><time>2026-04-06T09:45:42.001Z</time></trkpt><trkpt lat="45.574640606519864" lon="10.443183491465588"><ele>197.0</ele><time>2026-04-06T09:45:43.001Z</time></trkpt><trkpt lat="45.5747969839965" lon="10.443310949104232"><ele>197.5</ele><time>2026-04-06T09:45:44.001Z</time></trkpt><trkpt lat="45.574929692668015" lon="10.443422305743272"><ele>198.0</ele><time>2026-04-06T09:45:45.001Z</time></trkpt><trkpt lat="45.575044879420616" lon="10.443518004892708"><ele>198.5</ele><time>2026-04-06T09:45:46.001Z</time></trkpt><trkpt lat="45.57515616675296" lon="10.443601154878667"><ele>199.0</ele><time>2026-04-06T09:45:47.001Z</time></trkpt><trkpt lat="45.575272280807084" lon="10.44368954217618"><ele>200.0</ele><time>2026-04-06T09:45:48.001Z</time></trkpt><trkpt lat="45.575401946435846" lon="10.443792248605222"><ele>201.0</ele><time>2026-04-06T09:45:49.001Z</time></trkpt><trkpt lat="45.57553860303458" lon="10.44390394890319"><ele>202.0</ele><time>2026-04-06T09:45:50.001Z</time></trkpt><trkpt lat="45.575680557810955" lon="10.444026104445534"><ele>202.0</ele><time>2026-04-06T09:45:51.001Z</time></trkpt><trkpt lat="45.57583056275497" lon="10.444149435215603"><ele>202.0</ele><time>2026-04-06T09:45:52.001Z</time></trkpt><trkpt lat="45.575989695504624" lon="10.444270991528361"><ele>202.0</ele><time>2026-04-06T09:45:53.001Z</time></trkpt><trkpt lat="45.576136883967365" lon="10.444427310095831"><ele>202.0</ele><time>2026-04-06T09:45:54.001Z</time></trkpt><trkpt lat="45.5763016737212" lon="10.444540955574523"><ele>202.0</ele><time>2026-04-06T09:45:55.001Z</time></trkpt><trkpt lat="45.57645346702984" lon="10.44467351153764"><ele>202.0</ele><time>2026-04-06T09:45:56.001Z</time></trkpt><trkpt lat="45.5766055012138" lon="10.444791604318441"><ele>202.33333333333331</ele><time>2026-04-06T09:45:57.001Z</time></trkpt><trkpt lat="45.57674698016308" lon="10.444899900172953"><ele>202.66666666666669</ele><time>2026-04-06T09:45:58.001Z</time></trkpt><trkpt lat="45.57687017943221" lon="10.445011496619577"><ele>203.0</ele><time>2026-04-06T09:45:59.001Z</time></trkpt><trkpt lat="45.57699839832283" lon="10.445120539462891"><ele>203.0</ele><time>2026-04-06T09:46:00.001Z</time></trkpt><trkpt lat="45.577136341899156" lon="10.445234240589299"><ele>203.0</ele><time>2026-04-06T09:46:01.001Z</time></trkpt><trkpt lat="45.577285292605396" lon="10.445354009440853"><ele>203.0</ele><time>2026-04-06T09:46:02.001Z</time></trkpt><trkpt lat="45.577438671195125" lon="10.445481853883114"><ele>203.0</ele><time>2026-04-06T09:46:03.001Z</time></trkpt><trkpt lat="45.57760002414286" lon="10.445617386856956"><ele>203.0</ele><time>2026-04-06T09:46:04.001Z</time></trkpt><trkpt lat="45.57776067811293" lon="10.44574286261791"><ele>203.0</ele><time>2026-04-06T09:46:05.001Z</time></trkpt><trkpt lat="45.577919737872534" lon="10.445869810685606"><ele>203.66666666666669</ele><time>2026-04-06T09:46:06.001Z</time></trkpt><trkpt lat="45.578076494469826" lon="10.445997106607011"><ele>204.33333333333331</ele><time>2026-04-06T09:46:07.001Z</time></trkpt><trkpt lat="45.57823733690467" lon="10.446126068672195"><ele>205.0</ele><time>2026-04-06T09:46:08.001Z</time></trkpt><trkpt lat="45.578400707324164" lon="10.446261404759067"><ele>205.0</ele><time>2026-04-06T09:46:09.001Z</time></trkpt><trkpt lat="45.57856952836454" lon="10.446401397632037"><ele>205.0</ele><time>2026-04-06T09:46:10.001Z</time></trkpt><trkpt lat="45.5787352147082" lon="10.446541871876855"><ele>205.0</ele><time>2026-04-06T09:46:11.001Z</time></trkpt><trkpt lat="45.578896457779145" lon="10.446682439856872"><ele>205.0</ele><time>2026-04-06T09:46:12.001Z</time></trkpt><trkpt lat="45.57905744373656" lon="10.4468245709943"><ele>205.0</ele><time>2026-04-06T09:46:13.001Z</time></trkpt><trkpt lat="45.57922014535407" lon="10.446959563809852"><ele>205.0</ele><time>2026-04-06T09:46:14.001Z</time></trkpt><trkpt lat="45.579390027852064" lon="10.447096625297759"><ele>205.33333333333331</ele><time>2026-04-06T09:46:15.001Z</time></trkpt><trkpt lat="45.57956095401982" lon="10.447234401207597"><ele>205.66666666666669</ele><time>2026-04-06T09:46:16.001Z</time></trkpt><trkpt lat="45.579736266767306" lon="10.447373729706468"><ele>206.0</ele><time>2026-04-06T09:46:17.001Z</time></trkpt><trkpt lat="45.57991240894254" lon="10.447514457911732"><ele>206.0</ele><time>2026-04-06T09:46:18.001Z</time></trkpt><trkpt lat="45.58007874383056" lon="10.44765186244603"><ele>206.0</ele><time>2026-04-06T09:46:19.001Z</time></trkpt><trkpt lat="45.58024116761389" lon="10.447781811954401"><ele>206.0</ele><time>2026-04-06T09:46:20.001Z</time></trkpt><trkpt lat="45.580403136121724" lon="10.447909506077064"><ele>208.0</ele><time>2026-04-06T09:46:21.001Z</time></trkpt><trkpt lat="45.580569157452544" lon="10.448047188483288"><ele>210.0</ele><time>2026-04-06T09:46:22.001Z</time></trkpt><trkpt lat="45.58073360207442" lon="10.448189967145225"><ele>212.0</ele><time>2026-04-06T09:46:23.001Z</time></trkpt><trkpt lat="45.58090439690158" lon="10.448335675823959"><ele>212.0</ele><time>2026-04-06T09:46:24.001Z</time></trkpt><trkpt lat="45.581080953970606" lon="10.448481743613556"><ele>212.0</ele><time>2026-04-06T09:46:25.001Z</time></trkpt><trkpt lat="45.581260844511135" lon="10.448628784915147"><ele>212.0</ele><time>2026-04-06T09:46:26.002Z</time></trkpt><trkpt lat="45.58144007487249" lon="10.448776197722326"><ele>213.0</ele><time>2026-04-06T09:46:27.002Z</time></trkpt><trkpt lat="45.581620171317674" lon="10.448924573169785"><ele>214.0</ele><time>2026-04-06T09:46:28.002Z</time></trkpt><trkpt lat="45.581801769443075" lon="10.4490759610276"><ele>215.0</ele><time>2026-04-06T09:46:29.002Z</time></trkpt><trkpt lat="45.58198041562965" lon="10.449234192507896"><ele>214.66666666666669</ele><time>2026-04-06T09:46:30.002Z</time></trkpt><trkpt lat="45.58215326234256" lon="10.44942083829933"><ele>214.33333333333331</ele><time>2026-04-06T09:46:31.002Z</time></trkpt><trkpt lat="45.58231796013538" lon="10.449600143673155"><ele>214.0</ele><time>2026-04-06T09:46:32.002Z</time></trkpt><trkpt lat="45.58247072550913" lon="10.449796141535122"><ele>214.33333333333331</ele><time>2026-04-06T09:46:33.002Z</time></trkpt><trkpt lat="45.58262402977816" lon="10.450003403291355"><ele>214.66666666666669</ele><time>2026-04-06T09:46:34.002Z</time></trkpt><trkpt lat="45.58277326962482" lon="10.450223510498454"><ele>215.0</ele><time>2026-04-06T09:46:35.002Z</time></trkpt><trkpt lat="45.58292286359878" lon="10.450447841045394"><ele>215.0</ele><time>2026-04-06T09:46:36.001Z</time></trkpt><trkpt lat="45.583062092149966" lon="10.450682998664886"><ele>215.0</ele><time>2026-04-06T09:46:37.001Z</time></trkpt><trkpt lat="45.58321823076034" lon="10.45091343275666"><ele>215.0</ele><time>2026-04-06T09:46:38.001Z</time></trkpt><trkpt lat="45.58336602997289" lon="10.451140736314105"><ele>216.66666666666669</ele><time>2026-04-06T09:46:39.001Z</time></trkpt><trkpt lat="45.583502998209575" lon="10.451358993822494"><ele>218.33333333333331</ele><time>2026-04-06T09:46:40.001Z</time></trkpt><trkpt lat="45.58363054114207" lon="10.451563552074628"><ele>220.0</ele><time>2026-04-06T09:46:41.001Z</time></trkpt><trkpt lat="45.58375641163048" lon="10.451739479807925"><ele>220.0</ele><time>2026-04-06T09:46:42.001Z</time></trkpt><trkpt lat="45.58386669622316" lon="10.451918456899104"><ele>220.0</ele><time>2026-04-06T09:46:43.001Z</time></trkpt><trkpt lat="45.58398189734838" lon="10.45208959139307"><ele>220.0</ele><time>2026-04-06T09:46:44.001Z</time></trkpt><trkpt lat="45.584099985945876" lon="10.452272343445292"><ele>221.33333333333331</ele><time>2026-04-06T09:46:45.001Z</time></trkpt><trkpt lat="45.584212676176946" lon="10.452450619225106"><ele>222.66666666666669</ele><time>2026-04-06T09:46:46.001Z</time></trkpt><trkpt lat="45.584329366091595" lon="10.452608550272389"><ele>224.0</ele><time>2026-04-06T09:46:47.001Z</time></trkpt><trkpt lat="45.58442789837002" lon="10.452747441269386"><ele>224.0</ele><time>2026-04-06T09:46:48.001Z</time></trkpt><trkpt lat="45.58451731874584" lon="10.452851794149725"><ele>223.99999999999997</ele><time>2026-04-06T09:46:49.001Z</time></trkpt><trkpt lat="45.58460338271622" lon="10.452941406215086"><ele>223.99999999999997</ele><time>2026-04-06T09:46:50.001Z</time></trkpt><trkpt lat="45.58468440017162" lon="10.45303639276391"><ele>224.0</ele><time>2026-04-06T09:46:51.001Z</time></trkpt><trkpt lat="45.58477654821243" lon="10.453132130098428"><ele>224.0</ele><time>2026-04-06T09:46:52.001Z</time></trkpt><trkpt lat="45.584872811097085" lon="10.453233224910514"><ele>224.0</ele><time>2026-04-06T09:46:53.001Z</time></trkpt><trkpt lat="45.58496658105758" lon="10.453328919875366"><ele>224.0</ele><time>2026-04-06T09:46:54.001Z</time></trkpt><trkpt lat="45.5850805847756" lon="10.45343780199726"><ele>224.0</ele><time>2026-04-06T09:46:55.001Z</time></trkpt><trkpt lat="45.58520890123994" lon="10.453538476544711"><ele>224.0</ele><time>2026-04-06T09:46:56.001Z</time></trkpt><trkpt lat="45.58534205412632" lon="10.453654936230393"><ele>224.75</ele><time>2026-04-06T09:46:57.001Z</time></trkpt><trkpt lat="45.58545891218422" lon="10.453754734877073"><ele>225.5</ele><time>2026-04-06T09:46:58.001Z</time></trkpt><trkpt lat="45.5855680852602" lon="10.453838889253209"><ele>226.25</ele><time>2026-04-06T09:46:59.001Z</time></trkpt><trkpt lat="45.585673858245734" lon="10.453926177482451"><ele>227.0</ele><time>2026-04-06T09:47:00.001Z</time></trkpt><trkpt lat="45.58578084507347" lon="10.454010446989464"><ele>227.0</ele><time>2026-04-06T09:47:01.001Z</time></trkpt><trkpt lat="45.585886252361064" lon="10.454091355233347"><ele>227.0</ele><time>2026-04-06T09:47:02.001Z</time></trkpt><trkpt lat="45.58597370626356" lon="10.454152432323221"><ele>227.0</ele><time>2026-04-06T09:47:03.001Z</time></trkpt><trkpt lat="45.58605693850882" lon="10.45421215317884"><ele>227.0</ele><time>2026-04-06T09:47:04.001Z</time></trkpt><trkpt lat="45.58614423714767" lon="10.454274407936909"><ele>227.0</ele><time>2026-04-06T09:47:05.026Z</time></trkpt><trkpt lat="45.58623088541293" lon="10.454336216823545"><ele>231.39999999999998</ele><time>2026-04-06T09:47:06.024Z</time></trkpt><trkpt lat="45.58631903792813" lon="10.454399706775376"><ele>235.79999999999998</ele><time>2026-04-06T09:47:07.028Z</time></trkpt><trkpt lat="45.58637681894108" lon="10.454535265762022"><ele>240.2</ele><time>2026-04-06T09:47:08.017Z</time></trkpt><trkpt lat="45.586452374601556" lon="10.454611111329786"><ele>244.6</ele><time>2026-04-06T09:47:09.025Z</time></trkpt><trkpt lat="45.58652662142073" lon="10.45468479776439"><ele>249.0</ele><time>2026-04-06T09:47:10.025Z</time></trkpt><trkpt lat="45.58684301750602" lon="10.454806220667473"><ele>249.0</ele><time>2026-04-06T09:47:13.213Z</time></trkpt><trkpt lat="45.58692149747526" lon="10.454895297915742"><ele>248.99999999999997</ele><time>2026-04-06T09:47:14.213Z</time></trkpt><trkpt lat="45.587008058803896" lon="10.454963651956833"><ele>248.99999999999997</ele><time>2026-04-06T09:47:15.213Z</time></trkpt><trkpt lat="45.58709460472649" lon="10.45503199383622"><ele>249.0</ele><time>2026-04-06T09:47:16.213Z</time></trkpt><trkpt lat="45.58718103111494" lon="10.455100241321151"><ele>249.0</ele><time>2026-04-06T09:47:17.211Z</time></trkpt><trkpt lat="45.58727578535886" lon="10.455147955152057"><ele>254.2</ele><time>2026-04-06T09:47:18.212Z</time></trkpt><trkpt lat="45.58735428082492" lon="10.455237020331948"><ele>259.4</ele><time>2026-04-06T09:47:19.213Z</time></trkpt><trkpt lat="45.58744869699784" lon="10.455284448079649"><ele>264.6</ele><time>2026-04-06T09:47:20.21Z</time></trkpt><trkpt lat="45.58752728136235" lon="10.45537358343369"><ele>269.8</ele><time>2026-04-06T09:47:21.211Z</time></trkpt><trkpt lat="45.587613970334885" lon="10.455442013943452"><ele>275.0</ele><time>2026-04-06T09:47:22.213Z</time></trkpt><trkpt lat="45.58770033244934" lon="10.455510186449247"><ele>275.8</ele><time>2026-04-06T09:47:23.21Z</time></trkpt><trkpt lat="45.587786767452705" lon="10.455578416472873"><ele>276.6</ele><time>2026-04-06T09:47:24.209Z</time></trkpt><trkpt lat="45.58787365431312" lon="10.455647003190787"><ele>277.4</ele><time>2026-04-06T09:47:25.213Z</time></trkpt><trkpt lat="45.58796021223446" lon="10.45571533025048"><ele>278.2</ele><time>2026-04-06T09:47:26.212Z</time></trkpt><trkpt lat="45.588054846117835" lon="10.455762929854702"><ele>279.0</ele><time>2026-04-06T09:47:27.213Z</time></trkpt><trkpt lat="45.58814141096287" lon="10.455831262381041"><ele>279.59999999999997</ele><time>2026-04-06T09:47:28.213Z</time></trkpt><trkpt lat="45.58821989751318" lon="10.455920320523433"><ele>280.2</ele><time>2026-04-06T09:47:29.212Z</time></trkpt><trkpt lat="45.588306461057975" lon="10.455988652023509"><ele>280.79999999999995</ele><time>2026-04-06T09:47:30.212Z</time></trkpt><trkpt lat="45.58839302564134" lon="10.456056984355701"><ele>281.4</ele><time>2026-04-06T09:47:31.213Z</time></trkpt><trkpt lat="45.5884876532031" lon="10.456104578956522"><ele>282.0</ele><time>2026-04-06T09:47:32.212Z</time></trkpt><trkpt lat="45.58857420480884" lon="10.45617290103203"><ele>282.0</ele><time>2026-04-06T09:47:33.212Z</time></trkpt><trkpt lat="45.58865270840473" lon="10.456261972634676"><ele>282.0</ele><time>2026-04-06T09:47:34.212Z</time></trkpt><trkpt lat="45.59030132404542" lon="10.45755486383627"><ele>274.6666666666667</ele><time>2026-04-06T09:47:35.001Z</time></trkpt><trkpt lat="45.590484546058775" lon="10.457709570925966"><ele>267.33333333333337</ele><time>2026-04-06T09:47:36.001Z</time></trkpt><trkpt lat="45.59068839890502" lon="10.457875937452823"><ele>260.0</ele><time>2026-04-06T09:47:37.001Z</time></trkpt><trkpt lat="45.59088044150064" lon="10.458028640342778"><ele>241.0</ele><time>2026-04-06T09:47:38.026Z</time></trkpt><trkpt lat="45.59168453798219" lon="10.45867701062044"><ele>241.33333333333331</ele><time>2026-04-06T09:47:42.001Z</time></trkpt><trkpt lat="45.591870942428336" lon="10.458825273167928"><ele>241.66666666666669</ele><time>2026-04-06T09:47:43.001Z</time></trkpt><trkpt lat="45.592046926976074" lon="10.458961943090063"><ele>242.0</ele><time>2026-04-06T09:47:44.001Z</time></trkpt><trkpt lat="45.592207174730625" lon="10.459079546868356"><ele>242.0</ele><time>2026-04-06T09:47:45.001Z</time></trkpt><trkpt lat="45.592378726068674" lon="10.459209105716818"><ele>242.0</ele><time>2026-04-06T09:47:46.001Z</time></trkpt><trkpt lat="45.592553527880824" lon="10.459335849643047"><ele>242.0</ele><time>2026-04-06T09:47:47.001Z</time></trkpt><trkpt lat="45.59272305921777" lon="10.459443700056356"><ele>243.0</ele><time>2026-04-06T09:47:48.001Z</time></trkpt><trkpt lat="45.592912265093645" lon="10.459548929616012"><ele>244.0</ele><time>2026-04-06T09:47:49.001Z</time></trkpt><trkpt lat="45.593097211663746" lon="10.459650962058896"><ele>245.0</ele><time>2026-04-06T09:47:50.001Z</time></trkpt><trkpt lat="45.593287634466" lon="10.459743062379493"><ele>245.0</ele><time>2026-04-06T09:47:51.001Z</time></trkpt><trkpt lat="45.593472792048445" lon="10.459813253001228"><ele>245.0</ele><time>2026-04-06T09:47:52.001Z</time></trkpt><trkpt lat="45.59365268883103" lon="10.459867117597549"><ele>245.0</ele><time>2026-04-06T09:47:53.001Z</time></trkpt><trkpt lat="45.59381679974344" lon="10.459900465645266"><ele>245.66666666666669</ele><time>2026-04-06T09:47:54.001Z</time></trkpt><trkpt lat="45.593975885037594" lon="10.459928083060055"><ele>246.33333333333331</ele><time>2026-04-06T09:47:55.001Z</time></trkpt><trkpt lat="45.59414125571945" lon="10.459953500022168"><ele>247.0</ele><time>2026-04-06T09:47:56.001Z</time></trkpt><trkpt lat="45.59430404226311" lon="10.459982655666714"><ele>247.0</ele><time>2026-04-06T09:47:57.001Z</time></trkpt><trkpt lat="45.59446016306635" lon="10.460012354078934"><ele>247.0</ele><time>2026-04-06T09:47:58.001Z</time></trkpt><trkpt lat="45.594636934730666" lon="10.46003682409974"><ele>247.0</ele><time>2026-04-06T09:47:59.001Z</time></trkpt><trkpt lat="45.59482609364385" lon="10.460064137028905"><ele>245.0</ele><time>2026-04-06T09:48:00.001Z</time></trkpt><trkpt lat="45.59501443354402" lon="10.460080265086757"><ele>243.0</ele><time>2026-04-06T09:48:01.027Z</time></trkpt><trkpt lat="45.59520898952423" lon="10.460103958915651"><ele>241.0</ele><time>2026-04-06T09:48:02.025Z</time></trkpt><trkpt lat="45.59540125819349" lon="10.460126968406055"><ele>240.33333333333331</ele><time>2026-04-06T09:48:03.024Z</time></trkpt><trkpt lat="45.59560871962906" lon="10.460180696424665"><ele>239.66666666666669</ele><time>2026-04-06T09:48:04.027Z</time></trkpt><trkpt lat="45.595802064096695" lon="10.46021073243229"><ele>239.0</ele><time>2026-04-06T09:48:05.028Z</time></trkpt><trkpt lat="45.59642118501922" lon="10.460306911869214"><ele>236.0</ele><time>2026-04-06T09:48:08.212Z</time></trkpt><trkpt lat="45.59661490473715" lon="10.460336279031049"><ele>233.0</ele><time>2026-04-06T09:48:09.212Z</time></trkpt><trkpt lat="45.59714848952133" lon="10.460410610810369"><ele>232.0</ele><time>2026-04-06T09:48:12.001Z</time></trkpt><trkpt lat="45.59734727406435" lon="10.460438302841661"><ele>231.0</ele><time>2026-04-06T09:48:13.001Z</time></trkpt><trkpt lat="45.59754520098996" lon="10.460442131605461"><ele>230.0</ele><time>2026-04-06T09:48:14.001Z</time></trkpt><trkpt lat="45.59773684235813" lon="10.460492572375221"><ele>233.33333333333334</ele><time>2026-04-06T09:48:15.001Z</time></trkpt><trkpt lat="45.59794649930755" lon="10.46052205139457"><ele>236.66666666666669</ele><time>2026-04-06T09:48:16.001Z</time></trkpt><trkpt lat="45.59816024029774" lon="10.46053189627362"><ele>240.0</ele><time>2026-04-06T09:48:17.001Z</time></trkpt><trkpt lat="45.598374880532546" lon="10.460563006452672"><ele>240.0</ele><time>2026-04-06T09:48:18.001Z</time></trkpt><trkpt lat="45.59859266693424" lon="10.460595565695405"><ele>240.0</ele><time>2026-04-06T09:48:19.001Z</time></trkpt><trkpt lat="45.59881554440359" lon="10.460654161791153"><ele>240.0</ele><time>2026-04-06T09:48:20.001Z</time></trkpt><trkpt lat="45.59904047512465" lon="10.460691341951243"><ele>239.5</ele><time>2026-04-06T09:48:21.001Z</time></trkpt><trkpt lat="45.59926676046103" lon="10.460735865135717"><ele>239.0</ele><time>2026-04-06T09:48:22.001Z</time></trkpt><trkpt lat="45.59949225758168" lon="10.460796027185104"><ele>234.5</ele><time>2026-04-06T09:48:23.001Z</time></trkpt><trkpt lat="45.59971334693355" lon="10.460867942918085"><ele>230.0</ele><time>2026-04-06T09:48:24.001Z</time></trkpt><trkpt lat="45.59993297857434" lon="10.460933763309589"><ele>230.0</ele><time>2026-04-06T09:48:25.001Z</time></trkpt><trkpt lat="45.600137111853485" lon="10.461055327934236"><ele>230.0</ele><time>2026-04-06T09:48:26.001Z</time></trkpt><trkpt lat="45.600348974175" lon="10.461144355289276"><ele>230.0</ele><time>2026-04-06T09:48:27.001Z</time></trkpt><trkpt lat="45.60053789906135" lon="10.461255274672451"><ele>233.33333333333334</ele><time>2026-04-06T09:48:28.001Z</time></trkpt><trkpt lat="45.60070207018018" lon="10.461388493187068"><ele>236.66666666666669</ele><time>2026-04-06T09:48:29.001Z</time></trkpt><trkpt lat="45.60087562857406" lon="10.46151236051121"><ele>240.0</ele><time>2026-04-06T09:48:30.001Z</time></trkpt><trkpt lat="45.60105119558215" lon="10.46164849426134"><ele>239.66666666666669</ele><time>2026-04-06T09:48:31.001Z</time></trkpt><trkpt lat="45.601228033527455" lon="10.461812247829048"><ele>239.33333333333334</ele><time>2026-04-06T09:48:32.001Z</time></trkpt><trkpt lat="45.6014073238416" lon="10.461986742218523"><ele>239.0</ele><time>2026-04-06T09:48:33.001Z</time></trkpt><trkpt lat="45.60158730930826" lon="10.462171487472979"><ele>239.0</ele><time>2026-04-06T09:48:34.001Z</time></trkpt><trkpt lat="45.601759310809406" lon="10.462367644926218"><ele>239.0</ele><time>2026-04-06T09:48:35.001Z</time></trkpt><trkpt lat="45.60192408978724" lon="10.462545820258255"><ele>239.0</ele><time>2026-04-06T09:48:36.001Z</time></trkpt><trkpt lat="45.60207070444011" lon="10.462747995972535"><ele>239.33333333333334</ele><time>2026-04-06T09:48:37.001Z</time></trkpt><trkpt lat="45.60222319304237" lon="10.462950886436362"><ele>239.66666666666669</ele><time>2026-04-06T09:48:38.001Z</time></trkpt><trkpt lat="45.60236935652622" lon="10.463143301585122"><ele>240.0</ele><time>2026-04-06T09:48:39.001Z</time></trkpt><trkpt lat="45.60249586647176" lon="10.463337776517932"><ele>240.0</ele><time>2026-04-06T09:48:40.001Z</time></trkpt><trkpt lat="45.60263314257752" lon="10.463521071879459"><ele>240.0</ele><time>2026-04-06T09:48:41.001Z</time></trkpt><trkpt lat="45.60276759654356" lon="10.463700311628727"><ele>240.0</ele><time>2026-04-06T09:48:42.001Z</time></trkpt><trkpt lat="45.602915193070984" lon="10.463897071603999"><ele>236.0</ele><time>2026-04-06T09:48:43.001Z</time></trkpt><trkpt lat="45.60308681543989" lon="10.464125989495694"><ele>232.0</ele><time>2026-04-06T09:48:44.001Z</time></trkpt><trkpt lat="45.60323223957103" lon="10.464322497991203"><ele>228.0</ele><time>2026-04-06T09:48:45.001Z</time></trkpt><trkpt lat="45.603388948832766" lon="10.464538871273247"><ele>225.0</ele><time>2026-04-06T09:48:46.001Z</time></trkpt><trkpt lat="45.60355392824821" lon="10.464733014859227"><ele>222.0</ele><time>2026-04-06T09:48:47.001Z</time></trkpt><trkpt lat="45.603709189168754" lon="10.464952596788251"><ele>219.0</ele><time>2026-04-06T09:48:48.001Z</time></trkpt><trkpt lat="45.60387471165827" lon="10.465172713593345"><ele>219.0</ele><time>2026-04-06T09:48:49.001Z</time></trkpt><trkpt lat="45.604046203494235" lon="10.465398859002015"><ele>219.0</ele><time>2026-04-06T09:48:50.001Z</time></trkpt><trkpt lat="45.60421605863085" lon="10.465621939130303"><ele>219.66666666666669</ele><time>2026-04-06T09:48:51.001Z</time></trkpt><trkpt lat="45.60437145680113" lon="10.465837600437403"><ele>220.33333333333334</ele><time>2026-04-06T09:48:52.001Z</time></trkpt><trkpt lat="45.604509564905825" lon="10.466061977198848"><ele>221.0</ele><time>2026-04-06T09:48:53.001Z</time></trkpt><trkpt lat="45.60463681710183" lon="10.466318515995914"><ele>222.0</ele><time>2026-04-06T09:48:54.001Z</time></trkpt><trkpt lat="45.604737024976814" lon="10.46661138506373"><ele>223.0</ele><time>2026-04-06T09:48:55.001Z</time></trkpt><trkpt lat="45.6048136327221" lon="10.466917928708657"><ele>226.0</ele><time>2026-04-06T09:48:56.001Z</time></trkpt><trkpt lat="45.60487847909917" lon="10.467233746713411"><ele>229.0</ele><time>2026-04-06T09:48:57.001Z</time></trkpt><trkpt lat="45.604906680550705" lon="10.467555319822846"><ele>229.0</ele><time>2026-04-06T09:48:58.001Z</time></trkpt><trkpt lat="45.604901094237285" lon="10.467853636956182"><ele>229.0</ele><time>2026-04-06T09:48:59.001Z</time></trkpt><trkpt lat="45.60488429067986" lon="10.46810306003962"><ele>229.0</ele><time>2026-04-06T09:49:00.001Z</time></trkpt><trkpt lat="45.604864416679966" lon="10.46831092931128"><ele>232.75</ele><time>2026-04-06T09:49:01.001Z</time></trkpt><trkpt lat="45.604853442274525" lon="10.468508956677262"><ele>236.5</ele><time>2026-04-06T09:49:02.001Z</time></trkpt><trkpt lat="45.60484618313126" lon="10.468705638601177"><ele>240.25</ele><time>2026-04-06T09:49:03.019Z</time></trkpt><trkpt lat="45.60483865761302" lon="10.468902985601611"><ele>244.0</ele><time>2026-04-06T09:49:04.025Z</time></trkpt><trkpt lat="45.604834312429645" lon="10.469099170320842"><ele>257.0</ele><time>2026-04-06T09:49:05.026Z</time></trkpt><trkpt lat="45.60482956493121" lon="10.469290533416043"><ele>270.0</ele><time>2026-04-06T09:49:06.018Z</time></trkpt><trkpt lat="45.60482302174217" lon="10.469489177267022"><ele>283.0</ele><time>2026-04-06T09:49:07.024Z</time></trkpt><trkpt lat="45.60475558002754" lon="10.471325086940235"><ele>205.0</ele><time>2026-04-06T09:49:17.96Z</time></trkpt><trkpt lat="45.61214404137159" lon="10.486507365718504"><ele>205.0</ele><time>2026-04-06T09:50:37.891Z</time></trkpt><trkpt lat="45.61224847401787" lon="10.486831339881796"><ele>205.0</ele><time>2026-04-06T09:50:39Z</time></trkpt><trkpt lat="45.61220396458048" lon="10.486972843291841"><ele>205.0</ele><time>2026-04-06T09:50:41Z</time></trkpt><trkpt lat="45.612201505569644" lon="10.48710636461639"><ele>204.4</ele><time>2026-04-06T09:50:42Z</time></trkpt><trkpt lat="45.61220917576041" lon="10.487249537099807"><ele>203.8</ele><time>2026-04-06T09:50:43Z</time></trkpt><trkpt lat="45.612221964852026" lon="10.487396403616945"><ele>203.2</ele><time>2026-04-06T09:50:44.001Z</time></trkpt><trkpt lat="45.61223900139764" lon="10.487548718745423"><ele>202.6</ele><time>2026-04-06T09:50:45.001Z</time></trkpt><trkpt lat="45.6122574100829" lon="10.487710571390764"><ele>202.0</ele><time>2026-04-06T09:50:46.001Z</time></trkpt><trkpt lat="45.61227895118095" lon="10.48787712505276"><ele>201.75</ele><time>2026-04-06T09:50:47.001Z</time></trkpt><trkpt lat="45.612318468585705" lon="10.488026570172542"><ele>201.5</ele><time>2026-04-06T09:50:48.001Z</time></trkpt><trkpt lat="45.61236190347045" lon="10.488178911225575"><ele>201.25</ele><time>2026-04-06T09:50:49.001Z</time></trkpt><trkpt lat="45.61240013146908" lon="10.488346363736985"><ele>201.0</ele><time>2026-04-06T09:50:50.001Z</time></trkpt><trkpt lat="45.61243278941227" lon="10.4885109792189"><ele>201.0</ele><time>2026-04-06T09:50:51.001Z</time></trkpt><trkpt lat="45.612486769961215" lon="10.488667880011166"><ele>201.0</ele><time>2026-04-06T09:50:52.001Z</time></trkpt><trkpt lat="45.61237030889641" lon="10.488823353858471"><ele>201.0</ele><time>2026-04-06T09:50:53.001Z</time></trkpt><trkpt lat="45.61238191323648" lon="10.488963803969487"><ele>201.0</ele><time>2026-04-06T09:50:54.001Z</time></trkpt><trkpt lat="45.61240747886315" lon="10.489084264680885"><ele>200.60000000000002</ele><time>2026-04-06T09:50:55.001Z</time></trkpt><trkpt lat="45.612365648407454" lon="10.489233857968488"><ele>200.2</ele><time>2026-04-06T09:50:56.001Z</time></trkpt><trkpt lat="45.61235897904674" lon="10.48933719232579"><ele>199.8</ele><time>2026-04-06T09:50:57.001Z</time></trkpt><trkpt lat="45.61236120774365" lon="10.489440674321152"><ele>199.39999999999998</ele><time>2026-04-06T09:50:58.001Z</time></trkpt><trkpt lat="45.61233965434032" lon="10.48958814109167"><ele>199.0</ele><time>2026-04-06T09:51:00.001Z</time></trkpt><trkpt lat="45.612314945755244" lon="10.489736886443046"><ele>198.83333333333331</ele><time>2026-04-06T09:51:02.001Z</time></trkpt><trkpt lat="45.61227369691216" lon="10.489843223662245"><ele>198.66666666666666</ele><time>2026-04-06T09:51:04.001Z</time></trkpt><trkpt lat="45.61229693323672" lon="10.489931158731215"><ele>198.5</ele><time>2026-04-06T09:51:06.001Z</time></trkpt><trkpt lat="45.61224644455404" lon="10.490033413078482"><ele>198.33333333333331</ele><time>2026-04-06T09:51:08.001Z</time></trkpt><trkpt lat="45.612198701020255" lon="10.490165149115562"><ele>198.16666666666666</ele><time>2026-04-06T09:51:10.001Z</time></trkpt><trkpt lat="45.612164581316264" lon="10.49024532227797"><ele>198.0</ele><time>2026-04-06T09:51:11.001Z</time></trkpt><trkpt lat="45.612121575956614" lon="10.490351568631619"><ele>197.33333333333334</ele><time>2026-04-06T09:51:12.001Z</time></trkpt><trkpt lat="45.612065952417346" lon="10.490494349753336"><ele>196.66666666666669</ele><time>2026-04-06T09:51:13Z</time></trkpt><trkpt lat="45.61201883612528" lon="10.49059244768263"><ele>196.0</ele><time>2026-04-06T09:51:14Z</time></trkpt><trkpt lat="45.6119675779912" lon="10.49070865625259"><ele>195.33333333333334</ele><time>2026-04-06T09:51:15Z</time></trkpt><trkpt lat="45.611932602553445" lon="10.490791465669796"><ele>194.66666666666669</ele><time>2026-04-06T09:51:16Z</time></trkpt><trkpt lat="45.61188463940432" lon="10.490865860186359"><ele>194.0</ele><time>2026-04-06T09:51:17Z</time></trkpt><trkpt lat="45.61184595003099" lon="10.49095549884052"><ele>191.33333333333334</ele><time>2026-04-06T09:51:18Z</time></trkpt><trkpt lat="45.61181539459282" lon="10.491061330700086"><ele>188.66666666666669</ele><time>2026-04-06T09:51:19Z</time></trkpt><trkpt lat="45.6117665202638" lon="10.491162138807791"><ele>186.0</ele><time>2026-04-06T09:51:20Z</time></trkpt><trkpt lat="45.611724039317366" lon="10.49126891649013"><ele>183.33333333333334</ele><time>2026-04-06T09:51:21Z</time></trkpt><trkpt lat="45.61167746759971" lon="10.491372535796208"><ele>180.66666666666669</ele><time>2026-04-06T09:51:22Z</time></trkpt><trkpt lat="45.611630184520216" lon="10.491478484951452"><ele>178.0</ele><time>2026-04-06T09:51:23Z</time></trkpt><trkpt lat="45.61158296356585" lon="10.491583495593307"><ele>178.0</ele><time>2026-04-06T09:51:24Z</time></trkpt><trkpt lat="45.61153982877666" lon="10.491684930210027"><ele>178.0</ele><time>2026-04-06T09:51:25Z</time></trkpt><trkpt lat="45.61149060126449" lon="10.491810997105993"><ele>178.0</ele><time>2026-04-06T09:51:26Z</time></trkpt><trkpt lat="45.61143110701067" lon="10.491940690291866"><ele>178.0</ele><time>2026-04-06T09:51:27Z</time></trkpt><trkpt lat="45.61136872095658" lon="10.492080253296212"><ele>178.0</ele><time>2026-04-06T09:51:28Z</time></trkpt><trkpt lat="45.61130198590217" lon="10.492225517513118"><ele>178.0</ele><time>2026-04-06T09:51:29Z</time></trkpt><trkpt lat="45.61124112970619" lon="10.492377304074674"><ele>178.0</ele><time>2026-04-06T09:51:30Z</time></trkpt><trkpt lat="45.611172720933126" lon="10.492530506774967"><ele>178.0</ele><time>2026-04-06T09:51:31Z</time></trkpt><trkpt lat="45.611104524352925" lon="10.492686485236515"><ele>178.0</ele><time>2026-04-06T09:51:32Z</time></trkpt><trkpt lat="45.611031545595466" lon="10.492842843860405"><ele>176.75</ele><time>2026-04-06T09:51:33Z</time></trkpt><trkpt lat="45.61096525682845" lon="10.493009212826193"><ele>175.5</ele><time>2026-04-06T09:51:34Z</time></trkpt><trkpt lat="45.610896300752366" lon="10.49315880201914"><ele>174.25</ele><time>2026-04-06T09:51:35Z</time></trkpt><trkpt lat="45.61083323127744" lon="10.493311537890348"><ele>173.0</ele><time>2026-04-06T09:51:36Z</time></trkpt><trkpt lat="45.610762599820156" lon="10.4934704417605"><ele>173.0</ele><time>2026-04-06T09:51:37Z</time></trkpt><trkpt lat="45.61069098577655" lon="10.493636804127656"><ele>173.0</ele><time>2026-04-06T09:51:38Z</time></trkpt><trkpt lat="45.610620443391944" lon="10.493798933702486"><ele>173.0</ele><time>2026-04-06T09:51:39Z</time></trkpt><trkpt lat="45.610552286779416" lon="10.49395010694731"><ele>173.0</ele><time>2026-04-06T09:51:40Z</time></trkpt><trkpt lat="45.61048597073846" lon="10.494092536722423"><ele>172.60000000000002</ele><time>2026-04-06T09:51:41Z</time></trkpt><trkpt lat="45.610428137157186" lon="10.494235119626486"><ele>172.20000000000002</ele><time>2026-04-06T09:51:42Z</time></trkpt><trkpt lat="45.6103749244601" lon="10.494365200796713"><ele>171.8</ele><time>2026-04-06T09:51:43Z</time></trkpt><trkpt lat="45.610322895452406" lon="10.494478623537798"><ele>171.4</ele><time>2026-04-06T09:51:44Z</time></trkpt><trkpt lat="45.61027834669229" lon="10.494587272356933"><ele>171.0</ele><time>2026-04-06T09:51:45Z</time></trkpt><trkpt lat="45.61023946191189" lon="10.494678809558982"><ele>169.0</ele><time>2026-04-06T09:51:46Z</time></trkpt><trkpt lat="45.61020606018826" lon="10.494769292206568"><ele>167.0</ele><time>2026-04-06T09:51:47Z</time></trkpt><trkpt lat="45.610169262668485" lon="10.494862614737992"><ele>165.0</ele><time>2026-04-06T09:51:48Z</time></trkpt><trkpt lat="45.61014177277346" lon="10.494958477276423"><ele>163.0</ele><time>2026-04-06T09:51:49Z</time></trkpt><trkpt lat="45.610112837176864" lon="10.495057273509055"><ele>161.0</ele><time>2026-04-06T09:51:50Z</time></trkpt><trkpt lat="45.61008270555968" lon="10.495165695577233"><ele>159.0</ele><time>2026-04-06T09:51:51Z</time></trkpt><trkpt lat="45.61005216726069" lon="10.495307608816496"><ele>159.4</ele><time>2026-04-06T09:51:52Z</time></trkpt><trkpt lat="45.610020140664886" lon="10.49545598835927"><ele>159.8</ele><time>2026-04-06T09:51:53Z</time></trkpt><trkpt lat="45.60999376781693" lon="10.495587656102758"><ele>160.20000000000002</ele><time>2026-04-06T09:51:54Z</time></trkpt><trkpt lat="45.60996236869547" lon="10.49573262542078"><ele>160.60000000000002</ele><time>2026-04-06T09:51:55Z</time></trkpt><trkpt lat="45.60993213397735" lon="10.495879682597684"><ele>161.0</ele><time>2026-04-06T09:51:56Z</time></trkpt><trkpt lat="45.609899925973025" lon="10.496044987316335"><ele>161.0</ele><time>2026-04-06T09:51:57Z</time></trkpt><trkpt lat="45.60986605042157" lon="10.49622513794458"><ele>161.0</ele><time>2026-04-06T09:51:58Z</time></trkpt><trkpt lat="45.609830379931545" lon="10.496380295387084"><ele>161.0</ele><time>2026-04-06T09:51:59Z</time></trkpt><trkpt lat="45.609800501966355" lon="10.49653735982254"><ele>161.0</ele><time>2026-04-06T09:52:00Z</time></trkpt><trkpt lat="45.60976775079912" lon="10.49668787484422"><ele>161.0</ele><time>2026-04-06T09:52:01Z</time></trkpt><trkpt lat="45.6097396205259" lon="10.496824022280805"><ele>161.0</ele><time>2026-04-06T09:52:02Z</time></trkpt><trkpt lat="45.60971681553652" lon="10.496940714203406"><ele>161.0</ele><time>2026-04-06T09:52:03Z</time></trkpt><trkpt lat="45.609696971905635" lon="10.497072263659208"><ele>161.0</ele><time>2026-04-06T09:52:04Z</time></trkpt><trkpt lat="45.6096819300505" lon="10.497195520311076"><ele>161.0</ele><time>2026-04-06T09:52:05Z</time></trkpt><trkpt lat="45.609675076864754" lon="10.497307627334926"><ele>161.0</ele><time>2026-04-06T09:52:06Z</time></trkpt><trkpt lat="45.60966417832782" lon="10.497418138452915"><ele>160.57142857142858</ele><time>2026-04-06T09:52:07Z</time></trkpt><trkpt lat="45.6096625827096" lon="10.497515208908787"><ele>160.14285714285714</ele><time>2026-04-06T09:52:08Z</time></trkpt><trkpt lat="45.60966184846684" lon="10.497606102790012"><ele>159.71428571428572</ele><time>2026-04-06T09:52:09Z</time></trkpt><trkpt lat="45.60965987377561" lon="10.497699995236474"><ele>159.28571428571428</ele><time>2026-04-06T09:52:10Z</time></trkpt><trkpt lat="45.60966561382319" lon="10.49781009458408"><ele>158.85714285714286</ele><time>2026-04-06T09:52:11Z</time></trkpt><trkpt lat="45.60967036196693" lon="10.497933349226514"><ele>158.42857142857144</ele><time>2026-04-06T09:52:12Z</time></trkpt><trkpt lat="45.60968151976201" lon="10.498054915208789"><ele>158.0</ele><time>2026-04-06T09:52:13Z</time></trkpt><trkpt lat="45.60969755654134" lon="10.498164415328672"><ele>157.42857142857144</ele><time>2026-04-06T09:52:14Z</time></trkpt><trkpt lat="45.609714999919696" lon="10.498253131943843"><ele>156.85714285714286</ele><time>2026-04-06T09:52:15Z</time></trkpt><trkpt lat="45.60972987270146" lon="10.498351247947829"><ele>156.28571428571428</ele><time>2026-04-06T09:52:16Z</time></trkpt><trkpt lat="45.609745690338926" lon="10.498445778094187"><ele>155.71428571428572</ele><time>2026-04-06T09:52:17Z</time></trkpt><trkpt lat="45.609777585108056" lon="10.498544198593809"><ele>155.14285714285714</ele><time>2026-04-06T09:52:18Z</time></trkpt><trkpt lat="45.60980714960856" lon="10.498650588233273"><ele>154.57142857142858</ele><time>2026-04-06T09:52:19Z</time></trkpt><trkpt lat="45.60983639691911" lon="10.498743641565223"><ele>154.0</ele><time>2026-04-06T09:52:20Z</time></trkpt><trkpt lat="45.60986246819132" lon="10.498827216654078"><ele>153.2</ele><time>2026-04-06T09:52:21Z</time></trkpt><trkpt lat="45.609910898695716" lon="10.498995801809322"><ele>152.4</ele><time>2026-04-06T09:52:23Z</time></trkpt><trkpt lat="45.60994252919719" lon="10.49907379555839"><ele>151.6</ele><time>2026-04-06T09:52:24Z</time></trkpt><trkpt lat="45.60999037065466" lon="10.499234888503787"><ele>150.8</ele><time>2026-04-06T09:52:26Z</time></trkpt><trkpt lat="45.61002261505023" lon="10.499328417827625"><ele>150.0</ele><time>2026-04-06T09:52:27Z</time></trkpt><trkpt lat="45.61005195961261" lon="10.499424051162222"><ele>150.0</ele><time>2026-04-06T09:52:28Z</time></trkpt><trkpt lat="45.61007991703641" lon="10.499520590841113"><ele>150.0</ele><time>2026-04-06T09:52:29Z</time></trkpt><trkpt lat="45.610106301115046" lon="10.49961696027937"><ele>150.0</ele><time>2026-04-06T09:52:30Z</time></trkpt><trkpt lat="45.61013769774036" lon="10.49971223888157"><ele>150.0</ele><time>2026-04-06T09:52:31Z</time></trkpt><trkpt lat="45.610172828741874" lon="10.499822991951962"><ele>150.0</ele><time>2026-04-06T09:52:32Z</time></trkpt><trkpt lat="45.61021272110287" lon="10.499931554375285"><ele>150.0</ele><time>2026-04-06T09:52:33Z</time></trkpt><trkpt lat="45.61025532837381" lon="10.50003373288539"><ele>149.16666666666666</ele><time>2026-04-06T09:52:34Z</time></trkpt><trkpt lat="45.61029456389339" lon="10.500124799009399"><ele>148.33333333333334</ele><time>2026-04-06T09:52:35Z</time></trkpt><trkpt lat="45.61033062940493" lon="10.500212621335855"><ele>147.5</ele><time>2026-04-06T09:52:36Z</time></trkpt><trkpt lat="45.610389597297285" lon="10.50034608706609"><ele>146.66666666666669</ele><time>2026-04-06T09:52:38Z</time></trkpt><trkpt lat="45.61042283674468" lon="10.50044949605875"><ele>145.83333333333334</ele><time>2026-04-06T09:52:40Z</time></trkpt><trkpt lat="45.61042296947299" lon="10.500601814887984"><ele>145.0</ele><time>2026-04-06T09:52:43Z</time></trkpt><trkpt lat="45.610422359425584" lon="10.500693743976125"><ele>144.16666666666669</ele><time>2026-04-06T09:52:44Z</time></trkpt><trkpt lat="45.61042966729184" lon="10.500797482505217"><ele>143.33333333333334</ele><time>2026-04-06T09:52:45Z</time></trkpt><trkpt lat="45.610451812375004" lon="10.500886884714028"><ele>142.5</ele><time>2026-04-06T09:52:46Z</time></trkpt><trkpt lat="45.610528950310446" lon="10.501038248261203"><ele>141.66666666666666</ele><time>2026-04-06T09:52:48Z</time></trkpt><trkpt lat="45.61057694999593" lon="10.501121699204193"><ele>140.83333333333331</ele><time>2026-04-06T09:52:49Z</time></trkpt><trkpt lat="45.61062424426562" lon="10.501207012444706"><ele>140.0</ele><time>2026-04-06T09:52:50.001Z</time></trkpt><trkpt lat="45.61066274847566" lon="10.501294188545108"><ele>139.33333333333331</ele><time>2026-04-06T09:52:51.001Z</time></trkpt><trkpt lat="45.61070146309346" lon="10.501419167891807"><ele>138.66666666666666</ele><time>2026-04-06T09:52:53.001Z</time></trkpt><trkpt lat="45.610729845112026" lon="10.501533931230869"><ele>138.0</ele><time>2026-04-06T09:52:55.001Z</time></trkpt><trkpt lat="45.61073596827613" lon="10.501625227157724"><ele>137.33333333333334</ele><time>2026-04-06T09:52:56.001Z</time></trkpt><trkpt lat="45.61074678432078" lon="10.501728021158813"><ele>136.66666666666669</ele><time>2026-04-06T09:52:57.001Z</time></trkpt><trkpt lat="45.610759218523796" lon="10.501840311619"><ele>136.0</ele><time>2026-04-06T09:52:58.001Z</time></trkpt><trkpt lat="45.61077735072452" lon="10.501951578268136"><ele>136.0</ele><time>2026-04-06T09:52:59.001Z</time></trkpt><trkpt lat="45.610782115865526" lon="10.502062544527128"><ele>136.0</ele><time>2026-04-06T09:53:00.001Z</time></trkpt><trkpt lat="45.61078768320708" lon="10.502162591787409"><ele>136.0</ele><time>2026-04-06T09:53:01.001Z</time></trkpt><trkpt lat="45.610782417103614" lon="10.502308771344671"><ele>136.0</ele><time>2026-04-06T09:53:03.001Z</time></trkpt><trkpt lat="45.610781285573395" lon="10.502435139812116"><ele>136.0</ele><time>2026-04-06T09:53:05.001Z</time></trkpt><trkpt lat="45.61076962676931" lon="10.50253153922121"><ele>136.0</ele><time>2026-04-06T09:53:06.001Z</time></trkpt><trkpt lat="45.61074882924967" lon="10.502686893044071"><ele>134.16666666666669</ele><time>2026-04-06T09:53:08Z</time></trkpt><trkpt lat="45.61073146759616" lon="10.502808397270297"><ele>132.33333333333334</ele><time>2026-04-06T09:53:10Z</time></trkpt><trkpt lat="45.6107158692269" lon="10.502928712663776"><ele>130.5</ele><time>2026-04-06T09:53:12Z</time></trkpt><trkpt lat="45.61070270113926" lon="10.503025228032438"><ele>128.66666666666666</ele><time>2026-04-06T09:53:15Z</time></trkpt><trkpt lat="45.61068071004634" lon="10.50311944930197"><ele>126.83333333333333</ele><time>2026-04-06T09:53:30Z</time></trkpt><trkpt lat="45.61067260005042" lon="10.503210535955027"><ele>125.0</ele><time>2026-04-06T09:53:44Z</time></trkpt><trkpt lat="45.610659674620756" lon="10.503316440360392"><ele>125.6</ele><time>2026-04-06T09:53:46Z</time></trkpt><trkpt lat="45.610645990415776" lon="10.503417366636116"><ele>126.2</ele><time>2026-04-06T09:53:48Z</time></trkpt><trkpt lat="45.610631831476226" lon="10.503532540156904"><ele>126.80000000000001</ele><time>2026-04-06T09:53:50Z</time></trkpt><trkpt lat="45.610615001266495" lon="10.503659662562452"><ele>127.4</ele><time>2026-04-06T09:53:52Z</time></trkpt><trkpt lat="45.61059525400923" lon="10.503808187900681"><ele>128.0</ele><time>2026-04-06T09:53:54Z</time></trkpt><trkpt lat="45.61057401322388" lon="10.503979326470485"><ele>128.0</ele><time>2026-04-06T09:53:56Z</time></trkpt><trkpt lat="45.61056252708461" lon="10.504078167564927"><ele>127.99999999999999</ele><time>2026-04-06T09:53:57Z</time></trkpt><trkpt lat="45.610547035501774" lon="10.504174975247436"><ele>128.0</ele><time>2026-04-06T09:53:58Z</time></trkpt><trkpt lat="45.61053543235907" lon="10.504274029707087"><ele>128.0</ele><time>2026-04-06T09:53:59Z</time></trkpt><trkpt lat="45.61052359406995" lon="10.5043737250762"><ele>127.99999999999999</ele><time>2026-04-06T09:54:00Z</time></trkpt><trkpt lat="45.61051032844315" lon="10.504478518819237"><ele>128.0</ele><time>2026-04-06T09:54:01Z</time></trkpt><trkpt lat="45.610491672404244" lon="10.504587367004085"><ele>128.0</ele><time>2026-04-06T09:54:02Z</time></trkpt><trkpt lat="45.61047566249263" lon="10.504699788835422"><ele>130.16666666666666</ele><time>2026-04-06T09:54:03Z</time></trkpt><trkpt lat="45.61046140214213" lon="10.50481665387569"><ele>132.33333333333331</ele><time>2026-04-06T09:54:04Z</time></trkpt><trkpt lat="45.610447424968385" lon="10.504925963864729"><ele>134.5</ele><time>2026-04-06T09:54:05Z</time></trkpt><trkpt lat="45.610432772137585" lon="10.505029153697311"><ele>136.66666666666666</ele><time>2026-04-06T09:54:06Z</time></trkpt><trkpt lat="45.61042156420315" lon="10.505130877883667"><ele>138.83333333333334</ele><time>2026-04-06T09:54:07Z</time></trkpt><trkpt lat="45.610407138512265" lon="10.505236740603385"><ele>141.0</ele><time>2026-04-06T09:54:08Z</time></trkpt><trkpt lat="45.61040204872792" lon="10.505343855006366"><ele>140.66666666666666</ele><time>2026-04-06T09:54:09Z</time></trkpt><trkpt lat="45.61039934914273" lon="10.505458823075253"><ele>140.33333333333334</ele><time>2026-04-06T09:54:10Z</time></trkpt><trkpt lat="45.61039573196832" lon="10.505575422174656"><ele>140.0</ele><time>2026-04-06T09:54:11Z</time></trkpt><trkpt lat="45.61039661919956" lon="10.505696484467569"><ele>139.66666666666669</ele><time>2026-04-06T09:54:12Z</time></trkpt><trkpt lat="45.610403221997665" lon="10.505823210242232"><ele>139.33333333333334</ele><time>2026-04-06T09:54:13Z</time></trkpt><trkpt lat="45.61041667139904" lon="10.505951718056783"><ele>139.0</ele><time>2026-04-06T09:54:14Z</time></trkpt><trkpt lat="45.6104341202318" lon="10.506074220092263"><ele>139.0</ele><time>2026-04-06T09:54:15Z</time></trkpt><trkpt lat="45.61045361233088" lon="10.506186017112642"><ele>139.0</ele><time>2026-04-06T09:54:16Z</time></trkpt><trkpt lat="45.6104741943694" lon="10.506302667477247"><ele>139.0</ele><time>2026-04-06T09:54:17Z</time></trkpt><trkpt lat="45.610500044515994" lon="10.506412823536676"><ele>139.0</ele><time>2026-04-06T09:54:18Z</time></trkpt><trkpt lat="45.610526261726775" lon="10.506516472403558"><ele>139.0</ele><time>2026-04-06T09:54:19Z</time></trkpt><trkpt lat="45.61055992880188" lon="10.50662981647739"><ele>139.0</ele><time>2026-04-06T09:54:20Z</time></trkpt><trkpt lat="45.61059686025198" lon="10.506754433636809"><ele>136.6</ele><time>2026-04-06T09:54:21Z</time></trkpt><trkpt lat="45.610633187019936" lon="10.506868078213106"><ele>134.2</ele><time>2026-04-06T09:54:22Z</time></trkpt><trkpt lat="45.610675704217705" lon="10.506993183327477"><ele>131.79999999999998</ele><time>2026-04-06T09:54:23Z</time></trkpt><trkpt lat="45.610721149731006" lon="10.507118720557754"><ele>129.4</ele><time>2026-04-06T09:54:24Z</time></trkpt><trkpt lat="45.61079837728381" lon="10.5072193220464"><ele>127.0</ele><time>2026-04-06T09:54:27Z</time></trkpt><trkpt lat="45.610839034706686" lon="10.507322160007316"><ele>124.19999999999999</ele><time>2026-04-06T09:54:28Z</time></trkpt><trkpt lat="45.61088895856094" lon="10.507437927996243"><ele>121.39999999999999</ele><time>2026-04-06T09:54:30Z</time></trkpt><trkpt lat="45.61093901166622" lon="10.507564315831754"><ele>118.60000000000001</ele><time>2026-04-06T09:54:32Z</time></trkpt><trkpt lat="45.61098732773775" lon="10.507678843366463"><ele>115.80000000000001</ele><time>2026-04-06T09:54:33.999Z</time></trkpt><trkpt lat="45.61104337414693" lon="10.507809424242627"><ele>113.0</ele><time>2026-04-06T09:54:35.999Z</time></trkpt><trkpt lat="45.611058200543106" lon="10.50795672229118"><ele>111.66666666666666</ele><time>2026-04-06T09:54:37.999Z</time></trkpt><trkpt lat="45.61111829305822" lon="10.508037397574233"><ele>110.33333333333333</ele><time>2026-04-06T09:54:39.999Z</time></trkpt><trkpt lat="45.61116238396593" lon="10.508125826385479"><ele>109.0</ele><time>2026-04-06T09:54:41.999Z</time></trkpt><trkpt lat="45.61119315542781" lon="10.508218388327867"><ele>107.66666666666666</ele><time>2026-04-06T09:54:43.999Z</time></trkpt><trkpt lat="45.61125995056339" lon="10.508335691499571"><ele>106.33333333333333</ele><time>2026-04-06T09:54:45.999Z</time></trkpt><trkpt lat="45.61129120805868" lon="10.508423549579383"><ele>105.0</ele><time>2026-04-06T09:54:46.999Z</time></trkpt><trkpt lat="45.61135047136307" lon="10.508546464614756"><ele>107.4</ele><time>2026-04-06T09:54:47.999Z</time></trkpt><trkpt lat="45.611384814794214" lon="10.508644504078001"><ele>109.8</ele><time>2026-04-06T09:54:48.999Z</time></trkpt><trkpt lat="45.6114325430787" lon="10.50877377541578"><ele>112.19999999999999</ele><time>2026-04-06T09:54:50.999Z</time></trkpt><trkpt lat="45.61149988789515" lon="10.508913109964281"><ele>114.6</ele><time>2026-04-06T09:54:52.999Z</time></trkpt><trkpt lat="45.61155940043801" lon="10.50905431334448"><ele>117.0</ele><time>2026-04-06T09:54:54.999Z</time></trkpt><trkpt lat="45.611610122095556" lon="10.509193504254561"><ele>117.0</ele><time>2026-04-06T09:54:57Z</time></trkpt><trkpt lat="45.61166212221662" lon="10.509330446002055"><ele>116.99999999999999</ele><time>2026-04-06T09:54:59Z</time></trkpt><trkpt lat="45.611698851077314" lon="10.509466000060323"><ele>116.99999999999999</ele><time>2026-04-06T09:55:01Z</time></trkpt><trkpt lat="45.61174399701039" lon="10.50958721265509"><ele>117.0</ele><time>2026-04-06T09:55:03Z</time></trkpt><trkpt lat="45.61178252066979" lon="10.509721315548962"><ele>117.0</ele><time>2026-04-06T09:55:05Z</time></trkpt><trkpt lat="45.611785034399006" lon="10.509817611128051"><ele>116.16666666666667</ele><time>2026-04-06T09:55:06Z</time></trkpt><trkpt lat="45.61177572780871" lon="10.509993351146377"><ele>115.33333333333334</ele><time>2026-04-06T09:55:08Z</time></trkpt><trkpt lat="45.611746942629786" lon="10.510109852876546"><ele>114.5</ele><time>2026-04-06T09:55:09Z</time></trkpt><trkpt lat="45.61173121905733" lon="10.510220422909734"><ele>113.66666666666667</ele><time>2026-04-06T09:55:10Z</time></trkpt><trkpt lat="45.61174057155379" lon="10.510323185750554"><ele>112.83333333333334</ele><time>2026-04-06T09:55:11Z</time></trkpt><trkpt lat="45.611764038207596" lon="10.510429619786345"><ele>112.0</ele><time>2026-04-06T09:55:12Z</time></trkpt><trkpt lat="45.61181098914635" lon="10.510491767920408"><ele>111.39999999999999</ele><time>2026-04-06T09:55:13Z</time></trkpt><trkpt lat="45.611844932870355" lon="10.510576590801838"><ele>110.79999999999998</ele><time>2026-04-06T09:55:15Z</time></trkpt><trkpt lat="45.61188034602095" lon="10.510719360835482"><ele>110.2</ele><time>2026-04-06T09:55:18Z</time></trkpt><trkpt lat="45.61188444434716" lon="10.51087647406562"><ele>109.6</ele><time>2026-04-06T09:55:20Z</time></trkpt><trkpt lat="45.61187596831668" lon="10.51096769991085"><ele>109.0</ele><time>2026-04-06T09:55:21Z</time></trkpt><trkpt lat="45.611865363880604" lon="10.511140772950025"><ele>109.6</ele><time>2026-04-06T09:55:23Z</time></trkpt><trkpt lat="45.61184817227971" lon="10.511313595989773"><ele>110.2</ele><time>2026-04-06T09:55:25Z</time></trkpt><trkpt lat="45.61182752981552" lon="10.511438854130596"><ele>110.79999999999998</ele><time>2026-04-06T09:55:27Z</time></trkpt><trkpt lat="45.61180888532091" lon="10.511526436038759"><ele>111.39999999999999</ele><time>2026-04-06T09:55:31Z</time></trkpt><trkpt lat="45.61178717503473" lon="10.511646298813451"><ele>112.0</ele><time>2026-04-06T09:55:38Z</time></trkpt><trkpt lat="45.61175023619404" lon="10.511811392161952"><ele>112.00000000000001</ele><time>2026-04-06T09:55:40Z</time></trkpt><trkpt lat="45.611714204320556" lon="10.511982995359647"><ele>112.0</ele><time>2026-04-06T09:55:42Z</time></trkpt><trkpt lat="45.611694438422234" lon="10.51207145597178"><ele>112.0</ele><time>2026-04-06T09:55:45Z</time></trkpt><trkpt lat="45.61167346955436" lon="10.512182295233231"><ele>112.0</ele><time>2026-04-06T09:55:53Z</time></trkpt><trkpt lat="45.61164392569181" lon="10.512276793156598"><ele>112.00000000000001</ele><time>2026-04-06T09:55:54Z</time></trkpt><trkpt lat="45.61161769295399" lon="10.512384655570893"><ele>112.0</ele><time>2026-04-06T09:55:55Z</time></trkpt><trkpt lat="45.611603140550734" lon="10.512481438107073"><ele>112.42857142857143</ele><time>2026-04-06T09:55:56Z</time></trkpt><trkpt lat="45.611587267646996" lon="10.512569776338982"><ele>112.85714285714286</ele><time>2026-04-06T09:55:57Z</time></trkpt><trkpt lat="45.6115707204758" lon="10.512661724681838"><ele>113.28571428571428</ele><time>2026-04-06T09:55:58Z</time></trkpt><trkpt lat="45.61155200054845" lon="10.512753508835775"><ele>113.71428571428571</ele><time>2026-04-06T09:55:59Z</time></trkpt><trkpt lat="45.61153127885139" lon="10.512847541527146"><ele>114.14285714285714</ele><time>2026-04-06T09:56:00Z</time></trkpt><trkpt lat="45.61150891378654" lon="10.512938065355392"><ele>114.57142857142856</ele><time>2026-04-06T09:56:01Z</time></trkpt><trkpt lat="45.6114898961005" lon="10.51304308976041"><ele>114.99999999999999</ele><time>2026-04-06T09:56:02Z</time></trkpt><trkpt lat="45.611464732208006" lon="10.513153133075962"><ele>115.25</ele><time>2026-04-06T09:56:03Z</time></trkpt><trkpt lat="45.61142917591709" lon="10.513302746601388"><ele>115.5</ele><time>2026-04-06T09:56:04Z</time></trkpt><trkpt lat="45.61139294259308" lon="10.513476896653193"><ele>115.75</ele><time>2026-04-06T09:56:05Z</time></trkpt><trkpt lat="45.611349254427935" lon="10.513671243411604"><ele>116.0</ele><time>2026-04-06T09:56:06Z</time></trkpt><trkpt lat="45.611297540359594" lon="10.513883841907964"><ele>117.0</ele><time>2026-04-06T09:56:07Z</time></trkpt><trkpt lat="45.61125332642978" lon="10.514097169838262"><ele>118.0</ele><time>2026-04-06T09:56:08Z</time></trkpt><trkpt lat="45.61120571115809" lon="10.514324080049615"><ele>119.0</ele><time>2026-04-06T09:56:09Z</time></trkpt><trkpt lat="45.61115483943345" lon="10.514555489305192"><ele>115.66666666666666</ele><time>2026-04-06T09:56:10Z</time></trkpt><trkpt lat="45.61110586794474" lon="10.514781104266463"><ele>112.33333333333334</ele><time>2026-04-06T09:56:11Z</time></trkpt><trkpt lat="45.61105261294158" lon="10.515013235953191"><ele>109.0</ele><time>2026-04-06T09:56:11.999Z</time></trkpt><trkpt lat="45.611003937332185" lon="10.515236931118192"><ele>110.0</ele><time>2026-04-06T09:56:12.999Z</time></trkpt><trkpt lat="45.61095466959733" lon="10.515458509556954"><ele>111.0</ele><time>2026-04-06T09:56:13.999Z</time></trkpt><trkpt lat="45.61090390502975" lon="10.515681989441102"><ele>112.0</ele><time>2026-04-06T09:56:14.999Z</time></trkpt><trkpt lat="45.61086566669091" lon="10.51589415988581"><ele>112.0</ele><time>2026-04-06T09:56:15.999Z</time></trkpt><trkpt lat="45.61080604768807" lon="10.516095973893604"><ele>112.0</ele><time>2026-04-06T09:56:16.999Z</time></trkpt><trkpt lat="45.610743747499065" lon="10.516381939372252"><ele>112.0</ele><time>2026-04-06T09:56:17.999Z</time></trkpt><trkpt lat="45.6106737608149" lon="10.51670322562331"><ele>114.0</ele><time>2026-04-06T09:56:18.999Z</time></trkpt><trkpt lat="45.610598168089815" lon="10.51704796634655"><ele>116.0</ele><time>2026-04-06T09:56:19.999Z</time></trkpt><trkpt lat="45.61052685273981" lon="10.517371937607882"><ele>116.66666666666666</ele><time>2026-04-06T09:56:20.999Z</time></trkpt><trkpt lat="45.6104636497341" lon="10.517659056099575"><ele>117.33333333333334</ele><time>2026-04-06T09:56:21.999Z</time></trkpt><trkpt lat="45.610415415974444" lon="10.517932832320836"><ele>118.0</ele><time>2026-04-06T09:56:22.999Z</time></trkpt><trkpt lat="45.610351299626416" lon="10.518190697726627"><ele>114.66666666666667</ele><time>2026-04-06T09:56:23.999Z</time></trkpt><trkpt lat="45.61030772039404" lon="10.518420998666226"><ele>111.33333333333334</ele><time>2026-04-06T09:56:24.999Z</time></trkpt><trkpt lat="45.61025677334675" lon="10.51863780005724"><ele>108.0</ele><time>2026-04-06T09:56:25.999Z</time></trkpt><trkpt lat="45.610196470719714" lon="10.518849040470974"><ele>108.0</ele><time>2026-04-06T09:56:26.999Z</time></trkpt><trkpt lat="45.61013927698727" lon="10.519044670504956"><ele>108.0</ele><time>2026-04-06T09:56:27.999Z</time></trkpt><trkpt lat="45.610077479371" lon="10.519230020668513"><ele>108.0</ele><time>2026-04-06T09:56:28.999Z</time></trkpt><trkpt lat="45.609995268484965" lon="10.519420722701295"><ele>108.0</ele><time>2026-04-06T09:56:29.999Z</time></trkpt><trkpt lat="45.60992680863633" lon="10.519622323414367"><ele>108.75</ele><time>2026-04-06T09:56:30.999Z</time></trkpt><trkpt lat="45.60984160210187" lon="10.519801180107395"><ele>109.5</ele><time>2026-04-06T09:56:31.999Z</time></trkpt><trkpt lat="45.60975896145826" lon="10.519972787934254"><ele>110.25</ele><time>2026-04-06T09:56:32.999Z</time></trkpt><trkpt lat="45.60966931985303" lon="10.520144845782497"><ele>111.0</ele><time>2026-04-06T09:56:33.999Z</time></trkpt><trkpt lat="45.6095654400416" lon="10.520288401527417"><ele>109.75</ele><time>2026-04-06T09:56:34.999Z</time></trkpt><trkpt lat="45.609468748229325" lon="10.520440604118026"><ele>108.5</ele><time>2026-04-06T09:56:35.999Z</time></trkpt><trkpt lat="45.60938367919319" lon="10.520600809038541"><ele>107.25</ele><time>2026-04-06T09:56:36.999Z</time></trkpt><trkpt lat="45.609283108286014" lon="10.520739034396383"><ele>106.0</ele><time>2026-04-06T09:56:37.999Z</time></trkpt><trkpt lat="45.60918503313228" lon="10.520873286774187"><ele>106.0</ele><time>2026-04-06T09:56:38.999Z</time></trkpt><trkpt lat="45.609091573988536" lon="10.52100812279642"><ele>106.0</ele><time>2026-04-06T09:56:39.999Z</time></trkpt><trkpt lat="45.60900023143324" lon="10.521142339088614"><ele>106.0</ele><time>2026-04-06T09:56:40.999Z</time></trkpt><trkpt lat="45.60891681938134" lon="10.521267341875847"><ele>106.0</ele><time>2026-04-06T09:56:41.999Z</time></trkpt><trkpt lat="45.60883719982567" lon="10.52138579676013"><ele>107.16666666666667</ele><time>2026-04-06T09:56:42.999Z</time></trkpt><trkpt lat="45.60876302277685" lon="10.521495648723919"><ele>108.33333333333334</ele><time>2026-04-06T09:56:43.999Z</time></trkpt><trkpt lat="45.60869128890123" lon="10.52159699973098"><ele>109.5</ele><time>2026-04-06T09:56:44.999Z</time></trkpt><trkpt lat="45.60862750328062" lon="10.521679926985119"><ele>110.66666666666666</ele><time>2026-04-06T09:56:45.999Z</time></trkpt><trkpt lat="45.60859023680062" lon="10.52177784328055"><ele>111.83333333333333</ele><time>2026-04-06T09:56:46.999Z</time></trkpt><trkpt lat="45.60855416525743" lon="10.521866931640835"><ele>113.0</ele><time>2026-04-06T09:56:47.999Z</time></trkpt><trkpt lat="45.6085118294101" lon="10.522034867387282"><ele>111.0</ele><time>2026-04-06T09:56:49.999Z</time></trkpt><trkpt lat="45.6085011645117" lon="10.522223218200526"><ele>109.00000000000001</ele><time>2026-04-06T09:56:51.999Z</time></trkpt><trkpt lat="45.60850035618493" lon="10.52233828291447"><ele>107.0</ele><time>2026-04-06T09:56:52.999Z</time></trkpt><trkpt lat="45.608516350938665" lon="10.522465157174283"><ele>105.0</ele><time>2026-04-06T09:56:53.999Z</time></trkpt><trkpt lat="45.608537362164725" lon="10.522593959939172"><ele>103.0</ele><time>2026-04-06T09:56:54.999Z</time></trkpt><trkpt lat="45.60857506167513" lon="10.522717926722077"><ele>103.00000000000001</ele><time>2026-04-06T09:56:55.999Z</time></trkpt><trkpt lat="45.608615935165325" lon="10.522849676692463"><ele>103.0</ele><time>2026-04-06T09:56:56.999Z</time></trkpt><trkpt lat="45.60864718275829" lon="10.5229674362359"><ele>103.0</ele><time>2026-04-06T09:56:57.999Z</time></trkpt><trkpt lat="45.60867560132178" lon="10.523076068002341"><ele>103.0</ele><time>2026-04-06T09:56:58.999Z</time></trkpt><trkpt lat="45.60870503147381" lon="10.523181538792763"><ele>103.00000000000001</ele><time>2026-04-06T09:56:59.999Z</time></trkpt><trkpt lat="45.60872146669107" lon="10.523284090452654"><ele>103.0</ele><time>2026-04-06T09:57:00.999Z</time></trkpt><trkpt lat="45.608735656887035" lon="10.523384961710509"><ele>107.50000000000001</ele><time>2026-04-06T09:57:02Z</time></trkpt><trkpt lat="45.608746698791386" lon="10.523483966605696"><ele>112.0</ele><time>2026-04-06T09:57:03Z</time></trkpt><trkpt lat="45.60874876928696" lon="10.5235754866768"><ele>116.5</ele><time>2026-04-06T09:57:04Z</time></trkpt><trkpt lat="45.60874383282398" lon="10.523754804086364"><ele>121.0</ele><time>2026-04-06T09:57:06Z</time></trkpt><trkpt lat="45.608744888026294" lon="10.523854566346335"><ele>125.50000000000001</ele><time>2026-04-06T09:57:07Z</time></trkpt><trkpt lat="45.60873810681054" lon="10.523967623291714"><ele>130.0</ele><time>2026-04-06T09:57:08Z</time></trkpt><trkpt lat="45.60873179012631" lon="10.524060471108077"><ele>130.6</ele><time>2026-04-06T09:57:09Z</time></trkpt><trkpt lat="45.60871746020731" lon="10.524228253679405"><ele>131.2</ele><time>2026-04-06T09:57:11Z</time></trkpt><trkpt lat="45.608706344187574" lon="10.52437229996133"><ele>131.8</ele><time>2026-04-06T09:57:13Z</time></trkpt><trkpt lat="45.608698909714796" lon="10.524534104017789"><ele>132.4</ele><time>2026-04-06T09:57:15Z</time></trkpt><trkpt lat="45.60868725354477" lon="10.524681153263504"><ele>133.0</ele><time>2026-04-06T09:57:17Z</time></trkpt><trkpt lat="45.608677911184245" lon="10.524830144168568"><ele>133.33333333333334</ele><time>2026-04-06T09:57:19Z</time></trkpt><trkpt lat="45.608668684235425" lon="10.524982102730643"><ele>133.66666666666669</ele><time>2026-04-06T09:57:21Z</time></trkpt><trkpt lat="45.608663465879964" lon="10.525077995860052"><ele>134.0</ele><time>2026-04-06T09:57:22Z</time></trkpt><trkpt lat="45.60865435559583" lon="10.525198511487654"><ele>134.33333333333334</ele><time>2026-04-06T09:57:23Z</time></trkpt><trkpt lat="45.608647607612006" lon="10.525324757372555"><ele>134.66666666666666</ele><time>2026-04-06T09:57:24Z</time></trkpt><trkpt lat="45.60864281705596" lon="10.525432896718444"><ele>135.0</ele><time>2026-04-06T09:57:25Z</time></trkpt><trkpt lat="45.60863760715325" lon="10.525544445318667"><ele>129.33333333333334</ele><time>2026-04-06T09:57:26Z</time></trkpt><trkpt lat="45.608635456552584" lon="10.52566525104639"><ele>123.66666666666666</ele><time>2026-04-06T09:57:27Z</time></trkpt><trkpt lat="45.60863177102595" lon="10.525775431400985"><ele>118.0</ele><time>2026-04-06T09:57:28Z</time></trkpt><trkpt lat="45.60863036025149" lon="10.525873787708576"><ele>112.33333333333333</ele><time>2026-04-06T09:57:29Z</time></trkpt><trkpt lat="45.60862398644694" lon="10.525965789702038"><ele>106.66666666666666</ele><time>2026-04-06T09:57:30Z</time></trkpt><trkpt lat="45.60861730876801" lon="10.526134442121695"><ele>101.0</ele><time>2026-04-06T09:57:32Z</time></trkpt><trkpt lat="45.60861739660651" lon="10.526228187702976"><ele>101.28571428571428</ele><time>2026-04-06T09:57:33Z</time></trkpt><trkpt lat="45.60861788954287" lon="10.52632915934093"><ele>101.57142857142857</ele><time>2026-04-06T09:57:34Z</time></trkpt><trkpt lat="45.6086182136348" lon="10.526432406969843"><ele>101.85714285714286</ele><time>2026-04-06T09:57:35Z</time></trkpt><trkpt lat="45.60862216507434" lon="10.526530476356054"><ele>102.14285714285714</ele><time>2026-04-06T09:57:36Z</time></trkpt><trkpt lat="45.60862537310591" lon="10.526625755663138"><ele>102.42857142857143</ele><time>2026-04-06T09:57:37Z</time></trkpt><trkpt lat="45.60862732500966" lon="10.526733583392135"><ele>102.71428571428571</ele><time>2026-04-06T09:57:38Z</time></trkpt><trkpt lat="45.60863312178241" lon="10.526841498001177"><ele>103.0</ele><time>2026-04-06T09:57:39Z</time></trkpt><trkpt lat="45.60863810246102" lon="10.526936863671512"><ele>103.00000000000001</ele><time>2026-04-06T09:57:40Z</time></trkpt><trkpt lat="45.608645901755516" lon="10.527043239927721"><ele>103.0</ele><time>2026-04-06T09:57:41Z</time></trkpt><trkpt lat="45.60865781426843" lon="10.527159573747157"><ele>103.0</ele><time>2026-04-06T09:57:42Z</time></trkpt><trkpt lat="45.60866942872486" lon="10.527283093335868"><ele>103.0</ele><time>2026-04-06T09:57:43Z</time></trkpt><trkpt lat="45.60868196908519" lon="10.527406512626394"><ele>103.00000000000001</ele><time>2026-04-06T09:57:44Z</time></trkpt><trkpt lat="45.608694368150815" lon="10.527529875284614"><ele>103.0</ele><time>2026-04-06T09:57:45Z</time></trkpt><trkpt lat="45.60870666703247" lon="10.527639478803478"><ele>107.66666666666667</ele><time>2026-04-06T09:57:46Z</time></trkpt><trkpt lat="45.60871884848811" lon="10.527754484704039"><ele>112.33333333333334</ele><time>2026-04-06T09:57:47Z</time></trkpt><trkpt lat="45.60872778131875" lon="10.527873777193454"><ele>117.0</ele><time>2026-04-06T09:57:48Z</time></trkpt><trkpt lat="45.60873747599123" lon="10.527971819538488"><ele>121.66666666666666</ele><time>2026-04-06T09:57:49Z</time></trkpt><trkpt lat="45.6087474359224" lon="10.528080339404859"><ele>126.33333333333333</ele><time>2026-04-06T09:57:50Z</time></trkpt><trkpt lat="45.60875950888623" lon="10.528197761979296"><ele>131.0</ele><time>2026-04-06T09:57:51Z</time></trkpt><trkpt lat="45.60877086234534" lon="10.528327422764214"><ele>131.0</ele><time>2026-04-06T09:57:52Z</time></trkpt><trkpt lat="45.60878379636819" lon="10.528454048760564"><ele>131.0</ele><time>2026-04-06T09:57:53Z</time></trkpt><trkpt lat="45.60879652786845" lon="10.528561196340616"><ele>131.0</ele><time>2026-04-06T09:57:54Z</time></trkpt><trkpt lat="45.6088067031541" lon="10.5286610272151"><ele>131.0</ele><time>2026-04-06T09:57:55Z</time></trkpt><trkpt lat="45.608817587845614" lon="10.528761902017873"><ele>131.0</ele><time>2026-04-06T09:57:55.999Z</time></trkpt><trkpt lat="45.60882624365679" lon="10.528862185006375"><ele>131.0</ele><time>2026-04-06T09:57:56.999Z</time></trkpt><trkpt lat="45.60883721471584" lon="10.528965194578635"><ele>130.16666666666666</ele><time>2026-04-06T09:57:57.999Z</time></trkpt><trkpt lat="45.60885124933977" lon="10.529074035125664"><ele>129.33333333333331</ele><time>2026-04-06T09:57:58.999Z</time></trkpt><trkpt lat="45.60886822172226" lon="10.529175502810123"><ele>128.5</ele><time>2026-04-06T09:57:59.999Z</time></trkpt><trkpt lat="45.608889821327146" lon="10.529281604307736"><ele>127.66666666666666</ele><time>2026-04-06T09:58:00.999Z</time></trkpt><trkpt lat="45.608917968396625" lon="10.52939532986909"><ele>126.83333333333333</ele><time>2026-04-06T09:58:01.999Z</time></trkpt><trkpt lat="45.60894958682924" lon="10.529512521658898"><ele>126.0</ele><time>2026-04-06T09:58:02.999Z</time></trkpt><trkpt lat="45.608980629184174" lon="10.52962404740433"><ele>124.16666666666667</ele><time>2026-04-06T09:58:03.999Z</time></trkpt><trkpt lat="45.60901672830669" lon="10.529739718151742"><ele>122.33333333333334</ele><time>2026-04-06T09:58:04.999Z</time></trkpt><trkpt lat="45.60905355100748" lon="10.529845668502848"><ele>120.5</ele><time>2026-04-06T09:58:05.999Z</time></trkpt><trkpt lat="45.60908474377769" lon="10.52994601381416"><ele>118.66666666666667</ele><time>2026-04-06T09:58:06.999Z</time></trkpt><trkpt lat="45.609113183088255" lon="10.530029798382156"><ele>116.83333333333334</ele><time>2026-04-06T09:58:07.999Z</time></trkpt><trkpt lat="45.60916791858436" lon="10.530176993719524"><ele>115.0</ele><time>2026-04-06T09:58:09.999Z</time></trkpt><trkpt lat="45.60922781820242" lon="10.530328562759813"><ele>113.50000000000001</ele><time>2026-04-06T09:58:11.999Z</time></trkpt><trkpt lat="45.60926698466688" lon="10.530429231801874"><ele>112.0</ele><time>2026-04-06T09:58:12.999Z</time></trkpt><trkpt lat="45.60930334500555" lon="10.530518587874202"><ele>110.5</ele><time>2026-04-06T09:58:13.999Z</time></trkpt><trkpt lat="45.60934462437776" lon="10.530608805876607"><ele>109.0</ele><time>2026-04-06T09:58:14.999Z</time></trkpt><trkpt lat="45.60939255024972" lon="10.530715183820273"><ele>107.50000000000001</ele><time>2026-04-06T09:58:15.999Z</time></trkpt><trkpt lat="45.60944213050137" lon="10.530834689646081"><ele>106.0</ele><time>2026-04-06T09:58:16.999Z</time></trkpt><trkpt lat="45.60949784093253" lon="10.530967756731242"><ele>109.25</ele><time>2026-04-06T09:58:17.999Z</time></trkpt><trkpt lat="45.609555070816164" lon="10.531106502048647"><ele>112.5</ele><time>2026-04-06T09:58:18.999Z</time></trkpt><trkpt lat="45.609610556707366" lon="10.53124146527312"><ele>115.75</ele><time>2026-04-06T09:58:19.999Z</time></trkpt><trkpt lat="45.609696693269086" lon="10.531390242954817"><ele>119.0</ele><time>2026-04-06T09:58:23.999Z</time></trkpt><trkpt lat="45.60974717486919" lon="10.531502603990402"><ele>118.99999999999999</ele><time>2026-04-06T09:58:25.999Z</time></trkpt><trkpt lat="45.609790959696376" lon="10.531641144153525"><ele>119.0</ele><time>2026-04-06T09:58:27.999Z</time></trkpt><trkpt lat="45.60981174205028" lon="10.531740208492158"><ele>119.0</ele><time>2026-04-06T09:58:29.999Z</time></trkpt><trkpt lat="45.60982609951263" lon="10.531856134087809"><ele>119.0</ele><time>2026-04-06T09:58:32.999Z</time></trkpt><trkpt lat="45.60982373702571" lon="10.531950050948273"><ele>118.99999999999999</ele><time>2026-04-06T09:58:34.999Z</time></trkpt><trkpt lat="45.6098089851521" lon="10.532049456678166"><ele>119.0</ele><time>2026-04-06T09:58:36.999Z</time></trkpt><trkpt lat="45.60977779574419" lon="10.532171097845113"><ele>119.49999999999999</ele><time>2026-04-06T09:58:38.999Z</time></trkpt><trkpt lat="45.60973458984911" lon="10.532283127434757"><ele>120.0</ele><time>2026-04-06T09:58:40.999Z</time></trkpt><trkpt lat="45.60965380071343" lon="10.532423544684924"><ele>120.5</ele><time>2026-04-06T09:58:42.999Z</time></trkpt><trkpt lat="45.609616454615775" lon="10.532511088527365"><ele>121.0</ele><time>2026-04-06T09:58:43.999Z</time></trkpt><trkpt lat="45.60958014714431" lon="10.53260144774406"><ele>121.49999999999999</ele><time>2026-04-06T09:58:44.999Z</time></trkpt><trkpt lat="45.60955689222684" lon="10.532718413761575"><ele>122.0</ele><time>2026-04-06T09:58:45.999Z</time></trkpt><trkpt lat="45.60952443668224" lon="10.532826693426676"><ele>122.83333333333333</ele><time>2026-04-06T09:58:46.999Z</time></trkpt><trkpt lat="45.60950494839154" lon="10.53293759392961"><ele>123.66666666666666</ele><time>2026-04-06T09:58:47.999Z</time></trkpt><trkpt lat="45.60949378528222" lon="10.533036160965898"><ele>124.5</ele><time>2026-04-06T09:58:48.999Z</time></trkpt><trkpt lat="45.609495550898735" lon="10.533151905993018"><ele>125.33333333333334</ele><time>2026-04-06T09:58:49.999Z</time></trkpt><trkpt lat="45.609483077361865" lon="10.533268233277091"><ele>126.16666666666667</ele><time>2026-04-06T09:58:50.999Z</time></trkpt><trkpt lat="45.60948893233198" lon="10.533375179888303"><ele>127.0</ele><time>2026-04-06T09:58:51.999Z</time></trkpt><trkpt lat="45.60950883036108" lon="10.533600821574403"><ele>124.8</ele><time>2026-04-06T09:58:53.999Z</time></trkpt><trkpt lat="45.60952892551404" lon="10.533744955535141"><ele>122.6</ele><time>2026-04-06T09:58:54.999Z</time></trkpt><trkpt lat="45.60955761225707" lon="10.533900783958815"><ele>120.39999999999999</ele><time>2026-04-06T09:58:55.999Z</time></trkpt><trkpt lat="45.60959106497173" lon="10.534020435977908"><ele>118.19999999999999</ele><time>2026-04-06T09:58:56.999Z</time></trkpt><trkpt lat="45.60963049420561" lon="10.534133179302822"><ele>116.0</ele><time>2026-04-06T09:58:57.999Z</time></trkpt><trkpt lat="45.60968216578752" lon="10.534235033770917"><ele>115.99999999999999</ele><time>2026-04-06T09:58:58.999Z</time></trkpt><trkpt lat="45.609732476900014" lon="10.534323777693233"><ele>116.0</ele><time>2026-04-06T09:58:59.999Z</time></trkpt><trkpt lat="45.609800030712464" lon="10.53439479607913"><ele>116.0</ele><time>2026-04-06T09:59:00.999Z</time></trkpt><trkpt lat="45.60985119993457" lon="10.534486724155695"><ele>116.0</ele><time>2026-04-06T09:59:01.999Z</time></trkpt><trkpt lat="45.60991202366706" lon="10.534570258695696"><ele>115.99999999999999</ele><time>2026-04-06T09:59:02.999Z</time></trkpt><trkpt lat="45.6099705466093" lon="10.534648051432901"><ele>116.0</ele><time>2026-04-06T09:59:03.999Z</time></trkpt><trkpt lat="45.61002264483311" lon="10.534730288519865"><ele>112.99999999999999</ele><time>2026-04-06T09:59:04.999Z</time></trkpt><trkpt lat="45.61007073271563" lon="10.534805588303794"><ele>110.0</ele><time>2026-04-06T09:59:05.999Z</time></trkpt><trkpt lat="45.61010416661611" lon="10.534883453926088"><ele>107.0</ele><time>2026-04-06T09:59:06.999Z</time></trkpt><trkpt lat="45.610145552612984" lon="10.535036089176423"><ele>104.0</ele><time>2026-04-06T09:59:09.999Z</time></trkpt><trkpt lat="45.61019038438749" lon="10.535180496763752"><ele>100.99999999999999</ele><time>2026-04-06T09:59:11.999Z</time></trkpt><trkpt lat="45.61022350499859" lon="10.535286855910547"><ele>98.0</ele><time>2026-04-06T09:59:12.999Z</time></trkpt><trkpt lat="45.61026483747068" lon="10.535407730011345"><ele>98.80000000000001</ele><time>2026-04-06T09:59:13.999Z</time></trkpt><trkpt lat="45.61030665743608" lon="10.535517617829694"><ele>99.6</ele><time>2026-04-06T09:59:14.999Z</time></trkpt><trkpt lat="45.61036949666362" lon="10.535624275085713"><ele>100.4</ele><time>2026-04-06T09:59:15.999Z</time></trkpt><trkpt lat="45.61041603964448" lon="10.535737710343657"><ele>101.19999999999999</ele><time>2026-04-06T09:59:16.999Z</time></trkpt><trkpt lat="45.610466890696564" lon="10.535866361160087"><ele>102.0</ele><time>2026-04-06T09:59:19Z</time></trkpt><trkpt lat="45.610656770464736" lon="10.536221348197405"><ele>102.0</ele><time>2026-04-06T09:59:22Z</time></trkpt><trkpt lat="45.61069978529858" lon="10.536305610795912"><ele>102.0</ele><time>2026-04-06T09:59:23Z</time></trkpt><trkpt lat="45.610743788701136" lon="10.536399889154804"><ele>102.0</ele><time>2026-04-06T09:59:24Z</time></trkpt><trkpt lat="45.61076748623426" lon="10.536519376610789"><ele>102.0</ele><time>2026-04-06T09:59:25Z</time></trkpt><trkpt lat="45.6107841448395" lon="10.536624252041252"><ele>102.0</ele><time>2026-04-06T09:59:26Z</time></trkpt><trkpt lat="45.61078984177009" lon="10.536729822092557"><ele>102.0</ele><time>2026-04-06T09:59:27Z</time></trkpt><trkpt lat="45.61078016830312" lon="10.53682732815054"><ele>102.0</ele><time>2026-04-06T09:59:28Z</time></trkpt><trkpt lat="45.6107691698398" lon="10.536931839333203"><ele>102.0</ele><time>2026-04-06T09:59:29Z</time></trkpt><trkpt lat="45.61075720634195" lon="10.53702472128301"><ele>102.0</ele><time>2026-04-06T09:59:30Z</time></trkpt><trkpt lat="45.610744507791736" lon="10.537174301346605"><ele>102.0</ele><time>2026-04-06T09:59:32Z</time></trkpt><trkpt lat="45.61074668523809" lon="10.53729244603076"><ele>102.0</ele><time>2026-04-06T09:59:33Z</time></trkpt><trkpt lat="45.610768664439576" lon="10.53743684192119"><ele>102.0</ele><time>2026-04-06T09:59:34Z</time></trkpt><trkpt lat="45.61080235400141" lon="10.537591380615911"><ele>99.75</ele><time>2026-04-06T09:59:35Z</time></trkpt><trkpt lat="45.610831056041334" lon="10.537721574859175"><ele>97.5</ele><time>2026-04-06T09:59:36Z</time></trkpt><trkpt lat="45.61086274243794" lon="10.53785274812695"><ele>95.25</ele><time>2026-04-06T09:59:37Z</time></trkpt><trkpt lat="45.61090748990877" lon="10.538018737099211"><ele>93.0</ele><time>2026-04-06T09:59:38Z</time></trkpt><trkpt lat="45.610996741464426" lon="10.538270510179098"><ele>93.0</ele><time>2026-04-06T09:59:39Z</time></trkpt><trkpt lat="45.611111848958004" lon="10.538580949030635"><ele>93.0</ele><time>2026-04-06T09:59:40Z</time></trkpt><trkpt lat="45.611206400802814" lon="10.538834845250609"><ele>93.0</ele><time>2026-04-06T09:59:41Z</time></trkpt><trkpt lat="45.611307945257295" lon="10.539065892486127"><ele>93.0</ele><time>2026-04-06T09:59:42Z</time></trkpt><trkpt lat="45.61138583820116" lon="10.539278647172836"><ele>93.0</ele><time>2026-04-06T09:59:43Z</time></trkpt><trkpt lat="45.61145096260099" lon="10.53945652596882"><ele>93.0</ele><time>2026-04-06T09:59:44Z</time></trkpt><trkpt lat="45.6115257981815" lon="10.539639392878327"><ele>90.66666666666667</ele><time>2026-04-06T09:59:45Z</time></trkpt><trkpt lat="45.611593405639425" lon="10.539869714111628"><ele>88.33333333333334</ele><time>2026-04-06T09:59:45.999Z</time></trkpt><trkpt lat="45.611683499971896" lon="10.540111926660263"><ele>86.0</ele><time>2026-04-06T09:59:46.999Z</time></trkpt><trkpt lat="45.611774416398895" lon="10.54035602701594"><ele>83.0</ele><time>2026-04-06T09:59:47.999Z</time></trkpt><trkpt lat="45.611855298586406" lon="10.540572876226504"><ele>80.0</ele><time>2026-04-06T09:59:48.999Z</time></trkpt><trkpt lat="45.61193392402523" lon="10.540781904292782"><ele>77.0</ele><time>2026-04-06T09:59:49.999Z</time></trkpt><trkpt lat="45.61201050855243" lon="10.540984995115057"><ele>79.0</ele><time>2026-04-06T09:59:50.999Z</time></trkpt><trkpt lat="45.61208336102892" lon="10.541180911583046"><ele>81.0</ele><time>2026-04-06T09:59:51.999Z</time></trkpt><trkpt lat="45.6121500845488" lon="10.541365927507693"><ele>83.0</ele><time>2026-04-06T09:59:52.999Z</time></trkpt><trkpt lat="45.612217083159784" lon="10.541554071110706"><ele>85.0</ele><time>2026-04-06T09:59:53.999Z</time></trkpt><trkpt lat="45.612281411622945" lon="10.541735940751249"><ele>85.0</ele><time>2026-04-06T09:59:54.999Z</time></trkpt><trkpt lat="45.61234315506334" lon="10.541909735583372"><ele>85.0</ele><time>2026-04-06T09:59:55.999Z</time></trkpt><trkpt lat="45.61240098024338" lon="10.54207582836954"><ele>85.0</ele><time>2026-04-06T09:59:56.999Z</time></trkpt><trkpt lat="45.61245659101918" lon="10.542240218811298"><ele>85.0</ele><time>2026-04-06T09:59:57.999Z</time></trkpt><trkpt lat="45.6125082384431" lon="10.542405305238942"><ele>83.5</ele><time>2026-04-06T09:59:58.999Z</time></trkpt><trkpt lat="45.612553929086076" lon="10.542569369732123"><ele>82.0</ele><time>2026-04-06T09:59:59.999Z</time></trkpt><trkpt lat="45.61259742064006" lon="10.54274137655454"><ele>80.5</ele><time>2026-04-06T10:00:00.999Z</time></trkpt><trkpt lat="45.6126343114725" lon="10.542922775030341"><ele>79.0</ele><time>2026-04-06T10:00:01.999Z</time></trkpt><trkpt lat="45.612669247361254" lon="10.5431040412775"><ele>77.75</ele><time>2026-04-06T10:00:02.999Z</time></trkpt><trkpt lat="45.61270149271966" lon="10.543286472074609"><ele>76.5</ele><time>2026-04-06T10:00:03.999Z</time></trkpt><trkpt lat="45.61274714077659" lon="10.543452041613655"><ele>75.25</ele><time>2026-04-06T10:00:04.999Z</time></trkpt><trkpt lat="45.6127685076485" lon="10.543608627988904"><ele>74.0</ele><time>2026-04-06T10:00:05.999Z</time></trkpt><trkpt lat="45.61280303919637" lon="10.543753343395855"><ele>80.5</ele><time>2026-04-06T10:00:06.999Z</time></trkpt><trkpt lat="45.612850726397795" lon="10.543918954242335"><ele>87.0</ele><time>2026-04-06T10:00:07.999Z</time></trkpt><trkpt lat="45.612907020494795" lon="10.544099497212464"><ele>93.5</ele><time>2026-04-06T10:00:08.999Z</time></trkpt><trkpt lat="45.612972278949535" lon="10.54428929521564"><ele>100.0</ele><time>2026-04-06T10:00:09.999Z</time></trkpt><trkpt lat="45.613048158049295" lon="10.544481569502771"><ele>96.25</ele><time>2026-04-06T10:00:10.999Z</time></trkpt><trkpt lat="45.61312063513533" lon="10.544672443544107"><ele>92.5</ele><time>2026-04-06T10:00:11.999Z</time></trkpt><trkpt lat="45.613190466002735" lon="10.544858999274938"><ele>88.75</ele><time>2026-04-06T10:00:12.999Z</time></trkpt><trkpt lat="45.61325823834549" lon="10.545029280668178"><ele>85.0</ele><time>2026-04-06T10:00:13.999Z</time></trkpt><trkpt lat="45.61331890798081" lon="10.545188301711873"><ele>85.0</ele><time>2026-04-06T10:00:14.999Z</time></trkpt><trkpt lat="45.61337126542735" lon="10.545345076206189"><ele>85.0</ele><time>2026-04-06T10:00:15.999Z</time></trkpt><trkpt lat="45.613397035147955" lon="10.54551628342828"><ele>85.0</ele><time>2026-04-06T10:00:16.999Z</time></trkpt><trkpt lat="45.613432006827296" lon="10.545689085357633"><ele>85.0</ele><time>2026-04-06T10:00:17.999Z</time></trkpt><trkpt lat="45.613479684940856" lon="10.545854548369821"><ele>82.75</ele><time>2026-04-06T10:00:18.999Z</time></trkpt><trkpt lat="45.613503530329545" lon="10.546014835687288"><ele>80.5</ele><time>2026-04-06T10:00:19.999Z</time></trkpt><trkpt lat="45.613533140927615" lon="10.54616701930146"><ele>78.25</ele><time>2026-04-06T10:00:20.999Z</time></trkpt><trkpt lat="45.613562917999275" lon="10.546326932051539"><ele>76.0</ele><time>2026-04-06T10:00:21.999Z</time></trkpt><trkpt lat="45.61360396630429" lon="10.546490743007913"><ele>75.5</ele><time>2026-04-06T10:00:22.999Z</time></trkpt><trkpt lat="45.61363740679381" lon="10.546663637048288"><ele>75.0</ele><time>2026-04-06T10:00:23.999Z</time></trkpt><trkpt lat="45.61367291187506" lon="10.54682917873826"><ele>74.5</ele><time>2026-04-06T10:00:24.999Z</time></trkpt><trkpt lat="45.61370665360862" lon="10.546989676811808"><ele>74.0</ele><time>2026-04-06T10:00:25.999Z</time></trkpt><trkpt lat="45.613740768366576" lon="10.547134036912917"><ele>75.0</ele><time>2026-04-06T10:00:26.999Z</time></trkpt><trkpt lat="45.61376103868901" lon="10.54725743233162"><ele>76.0</ele><time>2026-04-06T10:00:27.999Z</time></trkpt><trkpt lat="45.61377975422727" lon="10.547375450181253"><ele>77.0</ele><time>2026-04-06T10:00:28.999Z</time></trkpt><trkpt lat="45.61379620639453" lon="10.547498620313968"><ele>78.0</ele><time>2026-04-06T10:00:29.999Z</time></trkpt><trkpt lat="45.61381007304922" lon="10.5476287093728"><ele>79.0</ele><time>2026-04-06T10:00:30.999Z</time></trkpt><trkpt lat="45.613834346564445" lon="10.547773145522125"><ele>78.2</ele><time>2026-04-06T10:00:31.999Z</time></trkpt><trkpt lat="45.61386704935497" lon="10.547923142879338"><ele>77.4</ele><time>2026-04-06T10:00:32.999Z</time></trkpt><trkpt lat="45.613896887322426" lon="10.548063822791322"><ele>76.6</ele><time>2026-04-06T10:00:33.999Z</time></trkpt><trkpt lat="45.61392453159825" lon="10.548210773115338"><ele>75.8</ele><time>2026-04-06T10:00:34.999Z</time></trkpt><trkpt lat="45.61394874673143" lon="10.548355374175243"><ele>75.0</ele><time>2026-04-06T10:00:35.999Z</time></trkpt><trkpt lat="45.61397449394273" lon="10.548487300880504"><ele>75.0</ele><time>2026-04-06T10:00:36.999Z</time></trkpt><trkpt lat="45.61400365047192" lon="10.548618367054209"><ele>75.0</ele><time>2026-04-06T10:00:37.999Z</time></trkpt><trkpt lat="45.61402725547006" lon="10.548735107125324"><ele>75.0</ele><time>2026-04-06T10:00:38.999Z</time></trkpt><trkpt lat="45.614045086592725" lon="10.548843559347484"><ele>75.0</ele><time>2026-04-06T10:00:39.999Z</time></trkpt><trkpt lat="45.61406553427484" lon="10.548942646778912"><ele>75.0</ele><time>2026-04-06T10:00:40.999Z</time></trkpt><trkpt lat="45.61408258975413" lon="10.54903983775479"><ele>75.0</ele><time>2026-04-06T10:00:41.999Z</time></trkpt><trkpt lat="45.61410601355325" lon="10.549153924571971"><ele>74.6</ele><time>2026-04-06T10:00:42.999Z</time></trkpt><trkpt lat="45.61412667858553" lon="10.549276549640748"><ele>74.2</ele><time>2026-04-06T10:00:43.999Z</time></trkpt><trkpt lat="45.61415462654049" lon="10.549416440121028"><ele>73.8</ele><time>2026-04-06T10:00:44.999Z</time></trkpt><trkpt lat="45.6141846753941" lon="10.549564885677105"><ele>73.4</ele><time>2026-04-06T10:00:45.999Z</time></trkpt><trkpt lat="45.61421215119392" lon="10.549716713729914"><ele>73.0</ele><time>2026-04-06T10:00:46.999Z</time></trkpt><trkpt lat="45.61424874313647" lon="10.549897124179767"><ele>73.0</ele><time>2026-04-06T10:00:47.999Z</time></trkpt><trkpt lat="45.61427597452648" lon="10.550076992819209"><ele>73.0</ele><time>2026-04-06T10:00:48.999Z</time></trkpt><trkpt lat="45.61430850391897" lon="10.550243438706879"><ele>73.0</ele><time>2026-04-06T10:00:49.999Z</time></trkpt><trkpt lat="45.61433481599638" lon="10.550391912378814"><ele>73.0</ele><time>2026-04-06T10:00:50.999Z</time></trkpt><trkpt lat="45.614358150305165" lon="10.5505282142751"><ele>72.8</ele><time>2026-04-06T10:00:51.999Z</time></trkpt><trkpt lat="45.61438953718378" lon="10.550652674693817"><ele>72.6</ele><time>2026-04-06T10:00:52.999Z</time></trkpt><trkpt lat="45.61441808749942" lon="10.550763989251134"><ele>72.4</ele><time>2026-04-06T10:00:53.999Z</time></trkpt><trkpt lat="45.61444596610973" lon="10.550875912112591"><ele>72.2</ele><time>2026-04-06T10:00:54.999Z</time></trkpt><trkpt lat="45.614494001963024" lon="10.55099331233192"><ele>72.0</ele><time>2026-04-06T10:00:55.999Z</time></trkpt><trkpt lat="45.614545889322926" lon="10.55112215661884"><ele>73.0</ele><time>2026-04-06T10:00:56.999Z</time></trkpt><trkpt lat="45.614593294159" lon="10.551272279615933"><ele>74.0</ele><time>2026-04-06T10:00:57.999Z</time></trkpt><trkpt lat="45.614642278182856" lon="10.551406830850134"><ele>75.0</ele><time>2026-04-06T10:00:58.999Z</time></trkpt><trkpt lat="45.614697090659476" lon="10.551530079596082"><ele>76.0</ele><time>2026-04-06T10:00:59.999Z</time></trkpt><trkpt lat="45.614748374811455" lon="10.551653603845645"><ele>77.0</ele><time>2026-04-06T10:01:00.999Z</time></trkpt><trkpt lat="45.61479285889501" lon="10.551776657256058"><ele>77.0</ele><time>2026-04-06T10:01:01.999Z</time></trkpt><trkpt lat="45.61483657517628" lon="10.551884142103384"><ele>77.0</ele><time>2026-04-06T10:01:02.999Z</time></trkpt><trkpt lat="45.61487793548209" lon="10.551984551514323"><ele>77.0</ele><time>2026-04-06T10:01:03.999Z</time></trkpt><trkpt lat="45.614917836419515" lon="10.552079606574738"><ele>77.0</ele><time>2026-04-06T10:01:04.999Z</time></trkpt><trkpt lat="45.6149528916132" lon="10.552166705374256"><ele>77.0</ele><time>2026-04-06T10:01:05.999Z</time></trkpt><trkpt lat="45.61498413918449" lon="10.552246364243873"><ele>77.0</ele><time>2026-04-06T10:01:06.999Z</time></trkpt><trkpt lat="45.61503523078154" lon="10.55238920373619"><ele>76.83333333333334</ele><time>2026-04-06T10:01:08.999Z</time></trkpt><trkpt lat="45.61508856541971" lon="10.55252103888697"><ele>76.66666666666667</ele><time>2026-04-06T10:01:10.999Z</time></trkpt><trkpt lat="45.615138164814" lon="10.5526350978936"><ele>76.5</ele><time>2026-04-06T10:01:12.999Z</time></trkpt><trkpt lat="45.615175242587185" lon="10.55272428704975"><ele>76.33333333333333</ele><time>2026-04-06T10:01:14.999Z</time></trkpt><trkpt lat="45.61522540807907" lon="10.552839526189318"><ele>76.16666666666666</ele><time>2026-04-06T10:01:17.999Z</time></trkpt><trkpt lat="45.615257576667055" lon="10.552926255142847"><ele>76.0</ele><time>2026-04-06T10:01:19.999Z</time></trkpt><trkpt lat="45.615302031313256" lon="10.55304017432939"><ele>77.19999999999999</ele><time>2026-04-06T10:01:21.999Z</time></trkpt><trkpt lat="45.615359084014294" lon="10.553159057209752"><ele>78.39999999999999</ele><time>2026-04-06T10:01:23.999Z</time></trkpt><trkpt lat="45.615395807140395" lon="10.553273300748055"><ele>79.6</ele><time>2026-04-06T10:01:26.999Z</time></trkpt><trkpt lat="45.61544126935895" lon="10.553366815606404"><ele>80.8</ele><time>2026-04-06T10:01:28.999Z</time></trkpt><trkpt lat="45.615513892763076" lon="10.553528923071152"><ele>82.0</ele><time>2026-04-06T10:01:30.999Z</time></trkpt><trkpt lat="45.6155594295169" lon="10.553627785029917"><ele>81.83333333333333</ele><time>2026-04-06T10:01:31.999Z</time></trkpt><trkpt lat="45.61560624924978" lon="10.553728934099004"><ele>81.66666666666666</ele><time>2026-04-06T10:01:32.999Z</time></trkpt><trkpt lat="45.61565557443245" lon="10.553843458522465"><ele>81.5</ele><time>2026-04-06T10:01:33.999Z</time></trkpt><trkpt lat="45.61570666470736" lon="10.553948074369831"><ele>81.33333333333333</ele><time>2026-04-06T10:01:34.999Z</time></trkpt><trkpt lat="45.61574953210981" lon="10.554038513929562"><ele>81.16666666666667</ele><time>2026-04-06T10:01:35.999Z</time></trkpt><trkpt lat="45.6157906687776" lon="10.554134561961531"><ele>81.0</ele><time>2026-04-06T10:01:36.999Z</time></trkpt><trkpt lat="45.615838637138005" lon="10.554221347226319"><ele>81.0</ele><time>2026-04-06T10:01:37.999Z</time></trkpt><trkpt lat="45.61587739685445" lon="10.554305135566683"><ele>81.0</ele><time>2026-04-06T10:01:38.999Z</time></trkpt><trkpt lat="45.61593505833991" lon="10.554429244922154"><ele>81.0</ele><time>2026-04-06T10:01:40.999Z</time></trkpt><trkpt lat="45.61598438346289" lon="10.55454071384144"><ele>81.0</ele><time>2026-04-06T10:01:42.999Z</time></trkpt><trkpt lat="45.61602683370103" lon="10.554624734872512"><ele>81.0</ele><time>2026-04-06T10:01:44.999Z</time></trkpt><trkpt lat="45.616106259968085" lon="10.554789708071917"><ele>82.0</ele><time>2026-04-06T10:01:46.999Z</time></trkpt><trkpt lat="45.61616168221371" lon="10.55490824472486"><ele>83.0</ele><time>2026-04-06T10:01:47.999Z</time></trkpt><trkpt lat="45.616225977259425" lon="10.555037838040937"><ele>84.0</ele><time>2026-04-06T10:01:48.999Z</time></trkpt><trkpt lat="45.616276594129985" lon="10.555150475477067"><ele>85.0</ele><time>2026-04-06T10:01:49.999Z</time></trkpt><trkpt lat="45.61631825163866" lon="10.555243990292702"><ele>86.0</ele><time>2026-04-06T10:01:50.999Z</time></trkpt><trkpt lat="45.61635615481789" lon="10.55534426604424"><ele>84.71428571428572</ele><time>2026-04-06T10:01:51.999Z</time></trkpt><trkpt lat="45.61638433851848" lon="10.555431290152066"><ele>83.42857142857143</ele><time>2026-04-06T10:01:52.999Z</time></trkpt><trkpt lat="45.61641271801693" lon="10.555524565720022"><ele>82.14285714285714</ele><time>2026-04-06T10:01:53.999Z</time></trkpt><trkpt lat="45.61645334868619" lon="10.555598913349014"><ele>80.85714285714286</ele><time>2026-04-06T10:01:54.999Z</time></trkpt><trkpt lat="45.616504918129905" lon="10.555684842222373"><ele>79.57142857142857</ele><time>2026-04-06T10:01:55.999Z</time></trkpt><trkpt lat="45.61656152005224" lon="10.555753898360194"><ele>78.28571428571429</ele><time>2026-04-06T10:01:56.999Z</time></trkpt><trkpt lat="45.616608032931524" lon="10.555834771261829"><ele>77.0</ele><time>2026-04-06T10:01:57.999Z</time></trkpt><trkpt lat="45.61667772250994" lon="10.555941490815208"><ele>77.0</ele><time>2026-04-06T10:01:59.999Z</time></trkpt><trkpt lat="45.61673690535265" lon="10.556056279748736"><ele>77.0</ele><time>2026-04-06T10:02:01.999Z</time></trkpt><trkpt lat="45.616807086985204" lon="10.556204859344318"><ele>77.0</ele><time>2026-04-06T10:02:03.999Z</time></trkpt><trkpt lat="45.616868364078265" lon="10.556303665537136"><ele>77.0</ele><time>2026-04-06T10:02:04.999Z</time></trkpt><trkpt lat="45.61691823595144" lon="10.55640631258558"><ele>77.0</ele><time>2026-04-06T10:02:05.999Z</time></trkpt><trkpt lat="45.616972788458895" lon="10.556505347506222"><ele>77.5</ele><time>2026-04-06T10:02:06.999Z</time></trkpt><trkpt lat="45.617041200262406" lon="10.556619148841351"><ele>78.0</ele><time>2026-04-06T10:02:07.999Z</time></trkpt><trkpt lat="45.61711543707325" lon="10.556765687958555"><ele>78.5</ele><time>2026-04-06T10:02:08.999Z</time></trkpt><trkpt lat="45.617209643875825" lon="10.55695515573887"><ele>79.0</ele><time>2026-04-06T10:02:09.999Z</time></trkpt><trkpt lat="45.617285314002885" lon="10.55711134240057"><ele>79.0</ele><time>2026-04-06T10:02:10.999Z</time></trkpt><trkpt lat="45.617345609223165" lon="10.557230926265927"><ele>79.0</ele><time>2026-04-06T10:02:11.999Z</time></trkpt><trkpt lat="45.617410159582796" lon="10.557353006626817"><ele>79.0</ele><time>2026-04-06T10:02:12.999Z</time></trkpt><trkpt lat="45.617484156216676" lon="10.55747863004971"><ele>79.0</ele><time>2026-04-06T10:02:13.999Z</time></trkpt><trkpt lat="45.6175518035072" lon="10.557608272475523"><ele>79.0</ele><time>2026-04-06T10:02:14.999Z</time></trkpt><trkpt lat="45.6176187257778" lon="10.557736107140348"><ele>79.0</ele><time>2026-04-06T10:02:15.999Z</time></trkpt><trkpt lat="45.61768492670045" lon="10.55784407234056"><ele>79.0</ele><time>2026-04-06T10:02:16.999Z</time></trkpt><trkpt lat="45.61774736527944" lon="10.557955261256804"><ele>79.0</ele><time>2026-04-06T10:02:17.999Z</time></trkpt><trkpt lat="45.61780178094081" lon="10.558062021057555"><ele>79.0</ele><time>2026-04-06T10:02:18.999Z</time></trkpt><trkpt lat="45.617842095154835" lon="10.558160248584308"><ele>79.0</ele><time>2026-04-06T10:02:19.999Z</time></trkpt><trkpt lat="45.617883565348365" lon="10.55823767724506"><ele>79.0</ele><time>2026-04-06T10:02:20.999Z</time></trkpt><trkpt lat="45.61792410612129" lon="10.558317511412985"><ele>79.4</ele><time>2026-04-06T10:02:21.999Z</time></trkpt><trkpt lat="45.61797243489269" lon="10.558466897151511"><ele>79.80000000000001</ele><time>2026-04-06T10:02:23.999Z</time></trkpt><trkpt lat="45.6179948093639" lon="10.558604243114184"><ele>80.19999999999999</ele><time>2026-04-06T10:02:25.999Z</time></trkpt><trkpt lat="45.61801513331284" lon="10.558699766401483"><ele>80.6</ele><time>2026-04-06T10:02:26.999Z</time></trkpt><trkpt lat="45.61804124059333" lon="10.55882935756152"><ele>81.0</ele><time>2026-04-06T10:02:27.999Z</time></trkpt><trkpt lat="45.61806771115575" lon="10.558969716376634"><ele>79.75</ele><time>2026-04-06T10:02:28.999Z</time></trkpt><trkpt lat="45.61811817661916" lon="10.559150385661463"><ele>78.5</ele><time>2026-04-06T10:02:29.999Z</time></trkpt><trkpt lat="45.618155759262876" lon="10.559342513268533"><ele>77.25</ele><time>2026-04-06T10:02:30.999Z</time></trkpt><trkpt lat="45.61818101151353" lon="10.559503664764197"><ele>76.0</ele><time>2026-04-06T10:02:31.999Z</time></trkpt><trkpt lat="45.61819610321579" lon="10.559619633381141"><ele>75.6</ele><time>2026-04-06T10:02:32.999Z</time></trkpt><trkpt lat="45.6182215731812" lon="10.559773377366625"><ele>75.19999999999999</ele><time>2026-04-06T10:02:34.999Z</time></trkpt><trkpt lat="45.6182319788741" lon="10.559892923734946"><ele>74.80000000000001</ele><time>2026-04-06T10:02:37.999Z</time></trkpt><trkpt lat="45.618271705234335" lon="10.560046203581074"><ele>74.4</ele><time>2026-04-06T10:02:40.999Z</time></trkpt><trkpt lat="45.61830413283308" lon="10.560176429351204"><ele>74.0</ele><time>2026-04-06T10:02:42.999Z</time></trkpt><trkpt lat="45.618329468920216" lon="10.560274589925049"><ele>73.8</ele><time>2026-04-06T10:02:44.999Z</time></trkpt><trkpt lat="45.61836634091861" lon="10.560451604767026"><ele>73.60000000000001</ele><time>2026-04-06T10:02:46.999Z</time></trkpt><trkpt lat="45.61839147612679" lon="10.560585143321207"><ele>73.4</ele><time>2026-04-06T10:02:47.999Z</time></trkpt><trkpt lat="45.61842042971196" lon="10.5607195785942"><ele>73.2</ele><time>2026-04-06T10:02:48.999Z</time></trkpt><trkpt lat="45.618439864109874" lon="10.560866147288852"><ele>73.0</ele><time>2026-04-06T10:02:49.999Z</time></trkpt><trkpt lat="45.61846771491355" lon="10.561002807555537"><ele>73.0</ele><time>2026-04-06T10:02:50.999Z</time></trkpt><trkpt lat="45.61849060959835" lon="10.561144258606426"><ele>73.0</ele><time>2026-04-06T10:02:51.999Z</time></trkpt><trkpt lat="45.61851975911897" lon="10.561298846608695"><ele>73.0</ele><time>2026-04-06T10:02:52.999Z</time></trkpt><trkpt lat="45.61855755940226" lon="10.561464296774103"><ele>73.0</ele><time>2026-04-06T10:02:53.999Z</time></trkpt><trkpt lat="45.61859286286353" lon="10.561645990446896"><ele>72.75</ele><time>2026-04-06T10:02:54.999Z</time></trkpt><trkpt lat="45.618629007319036" lon="10.56183051564138"><ele>72.5</ele><time>2026-04-06T10:02:55.999Z</time></trkpt><trkpt lat="45.618664997221764" lon="10.56200295340504"><ele>72.25</ele><time>2026-04-06T10:02:56.999Z</time></trkpt><trkpt lat="45.61869397827521" lon="10.562161827069252"><ele>72.0</ele><time>2026-04-06T10:02:57.999Z</time></trkpt><trkpt lat="45.618718029007525" lon="10.562298249127219"><ele>73.0</ele><time>2026-04-06T10:02:58.999Z</time></trkpt><trkpt lat="45.61874897573204" lon="10.562441025080538"><ele>74.0</ele><time>2026-04-06T10:02:59.999Z</time></trkpt><trkpt lat="45.61877990672663" lon="10.562608182330145"><ele>75.0</ele><time>2026-04-06T10:03:00.999Z</time></trkpt><trkpt lat="45.61881996029666" lon="10.562798090908469"><ele>76.0</ele><time>2026-04-06T10:03:01.999Z</time></trkpt><trkpt lat="45.618865110244634" lon="10.562978008284654"><ele>76.0</ele><time>2026-04-06T10:03:02.999Z</time></trkpt><trkpt lat="45.618904384877936" lon="10.563127755493868"><ele>76.0</ele><time>2026-04-06T10:03:03.999Z</time></trkpt><trkpt lat="45.61894383857168" lon="10.563271114902772"><ele>76.0</ele><time>2026-04-06T10:03:04.999Z</time></trkpt><trkpt lat="45.61898641796995" lon="10.563427239726058"><ele>76.0</ele><time>2026-04-06T10:03:05.999Z</time></trkpt><trkpt lat="45.61903034029533" lon="10.563584000875547"><ele>75.39999999999999</ele><time>2026-04-06T10:03:06.999Z</time></trkpt><trkpt lat="45.61907083864201" lon="10.56372170605357"><ele>74.8</ele><time>2026-04-06T10:03:07.999Z</time></trkpt><trkpt lat="45.619112130837294" lon="10.563843955091176"><ele>74.19999999999999</ele><time>2026-04-06T10:03:08.999Z</time></trkpt><trkpt lat="45.61914830997507" lon="10.563960484040942"><ele>73.6</ele><time>2026-04-06T10:03:09.999Z</time></trkpt><trkpt lat="45.619184263603984" lon="10.56407002082465"><ele>73.0</ele><time>2026-04-06T10:03:10.999Z</time></trkpt><trkpt lat="45.619219684968996" lon="10.56419643038816"><ele>73.0</ele><time>2026-04-06T10:03:11.999Z</time></trkpt><trkpt lat="45.6192575444126" lon="10.564319081896024"><ele>73.0</ele><time>2026-04-06T10:03:12.999Z</time></trkpt><trkpt lat="45.6192946402979" lon="10.564435419875018"><ele>73.0</ele><time>2026-04-06T10:03:13.999Z</time></trkpt><trkpt lat="45.6193291072278" lon="10.564545135402163"><ele>73.0</ele><time>2026-04-06T10:03:14.999Z</time></trkpt><trkpt lat="45.6193712033182" lon="10.56465587512005"><ele>73.0</ele><time>2026-04-06T10:03:15.999Z</time></trkpt><trkpt lat="45.61941179694027" lon="10.564751425166051"><ele>73.0</ele><time>2026-04-06T10:03:16.999Z</time></trkpt><trkpt lat="45.61945481390366" lon="10.564836097230597"><ele>73.4</ele><time>2026-04-06T10:03:17.999Z</time></trkpt><trkpt lat="45.6195089913847" lon="10.56492991204393"><ele>73.8</ele><time>2026-04-06T10:03:18.999Z</time></trkpt><trkpt lat="45.619565878282515" lon="10.56504410394886"><ele>74.2</ele><time>2026-04-06T10:03:20Z</time></trkpt><trkpt lat="45.61963493071255" lon="10.565139834250957"><ele>74.6</ele><time>2026-04-06T10:03:21Z</time></trkpt><trkpt lat="45.61970493158549" lon="10.56523411930452"><ele>75.0</ele><time>2026-04-06T10:03:22Z</time></trkpt><trkpt lat="45.61977394769184" lon="10.565338432145962"><ele>73.8</ele><time>2026-04-06T10:03:23Z</time></trkpt><trkpt lat="45.61984478718429" lon="10.565439378391586"><ele>72.6</ele><time>2026-04-06T10:03:24Z</time></trkpt><trkpt lat="45.61991185700649" lon="10.565536599270239"><ele>71.4</ele><time>2026-04-06T10:03:25Z</time></trkpt><trkpt lat="45.6199762503627" lon="10.565631580235506"><ele>70.2</ele><time>2026-04-06T10:03:26Z</time></trkpt><trkpt lat="45.62003615118836" lon="10.565737349943358"><ele>69.0</ele><time>2026-04-06T10:03:27Z</time></trkpt><trkpt lat="45.62010331856446" lon="10.565820143632552"><ele>69.0</ele><time>2026-04-06T10:03:28Z</time></trkpt><trkpt lat="45.62017025823983" lon="10.565917014259764"><ele>69.0</ele><time>2026-04-06T10:03:29Z</time></trkpt><trkpt lat="45.620227299083254" lon="10.566012198436894"><ele>69.0</ele><time>2026-04-06T10:03:30Z</time></trkpt><trkpt lat="45.62027380456053" lon="10.566082372367473"><ele>69.0</ele><time>2026-04-06T10:03:31Z</time></trkpt><trkpt lat="45.62035059737688" lon="10.566194375002137"><ele>69.0</ele><time>2026-04-06T10:03:33Z</time></trkpt><trkpt lat="45.62042817245398" lon="10.566308692411411"><ele>70.0</ele><time>2026-04-06T10:03:35Z</time></trkpt><trkpt lat="45.620482979123494" lon="10.566390869072551"><ele>71.0</ele><time>2026-04-06T10:03:36Z</time></trkpt><trkpt lat="45.62053971773075" lon="10.56647316837844"><ele>72.0</ele><time>2026-04-06T10:03:37Z</time></trkpt><trkpt lat="45.620623178253396" lon="10.566593212960258"><ele>73.0</ele><time>2026-04-06T10:03:39Z</time></trkpt><trkpt lat="45.62068605554215" lon="10.566685896962255"><ele>74.0</ele><time>2026-04-06T10:03:41Z</time></trkpt><trkpt lat="45.62073402698416" lon="10.566747478151099"><ele>75.0</ele><time>2026-04-06T10:03:45Z</time></trkpt><trkpt lat="45.62080198628327" lon="10.566853686198643"><ele>75.0</ele><time>2026-04-06T10:03:49Z</time></trkpt><trkpt lat="45.620852027325064" lon="10.566922118030769"><ele>75.0</ele><time>2026-04-06T10:03:50Z</time></trkpt><trkpt lat="45.62091103667326" lon="10.567002251887333"><ele>75.0</ele><time>2026-04-06T10:03:51Z</time></trkpt><trkpt lat="45.62097348112136" lon="10.56709794638359"><ele>75.0</ele><time>2026-04-06T10:03:52Z</time></trkpt><trkpt lat="45.621048492301476" lon="10.56720378338727"><ele>75.0</ele><time>2026-04-06T10:03:53Z</time></trkpt><trkpt lat="45.62110622377225" lon="10.567300429247236"><ele>75.0</ele><time>2026-04-06T10:03:54Z</time></trkpt><trkpt lat="45.62115898625547" lon="10.567390405299259"><ele>75.16666666666667</ele><time>2026-04-06T10:03:55Z</time></trkpt><trkpt lat="45.62120658979456" lon="10.567463035996589"><ele>75.33333333333333</ele><time>2026-04-06T10:03:56Z</time></trkpt><trkpt lat="45.62125110858266" lon="10.567531883186874"><ele>75.5</ele><time>2026-04-06T10:03:57Z</time></trkpt><trkpt lat="45.621332056378634" lon="10.567664054115754"><ele>75.66666666666666</ele><time>2026-04-06T10:03:59Z</time></trkpt><trkpt lat="45.62138490523443" lon="10.567763034912803"><ele>75.83333333333333</ele><time>2026-04-06T10:04:01Z</time></trkpt><trkpt lat="45.621444200729755" lon="10.567867799068763"><ele>76.0</ele><time>2026-04-06T10:04:04Z</time></trkpt><trkpt lat="45.621503427226926" lon="10.567963471356691"><ele>76.0</ele><time>2026-04-06T10:04:06Z</time></trkpt><trkpt lat="45.6215887435118" lon="10.56809110116942"><ele>76.0</ele><time>2026-04-06T10:04:08Z</time></trkpt><trkpt lat="45.62162853583478" lon="10.56817680218402"><ele>76.0</ele><time>2026-04-06T10:04:09Z</time></trkpt><trkpt lat="45.6216761845935" lon="10.56825878366426"><ele>76.0</ele><time>2026-04-06T10:04:10Z</time></trkpt><trkpt lat="45.6217184061099" lon="10.568335098639059"><ele>76.0</ele><time>2026-04-06T10:04:11Z</time></trkpt><trkpt lat="45.621760528826485" lon="10.568408518268678"><ele>76.0</ele><time>2026-04-06T10:04:12Z</time></trkpt><trkpt lat="45.62180047539756" lon="10.568498790154463"><ele>76.0</ele><time>2026-04-06T10:04:13Z</time></trkpt><trkpt lat="45.62184380881807" lon="10.56858298624748"><ele>76.0</ele><time>2026-04-06T10:04:14Z</time></trkpt><trkpt lat="45.62188538968625" lon="10.568668204703117"><ele>76.0</ele><time>2026-04-06T10:04:15Z</time></trkpt><trkpt lat="45.62192599038596" lon="10.568753039357086"><ele>76.0</ele><time>2026-04-06T10:04:16Z</time></trkpt><trkpt lat="45.62195700535461" lon="10.568837728289608"><ele>76.0</ele><time>2026-04-06T10:04:17Z</time></trkpt><trkpt lat="45.6219903262505" lon="10.568922773589357"><ele>76.0</ele><time>2026-04-06T10:04:18Z</time></trkpt><trkpt lat="45.62202751307609" lon="10.569006859870068"><ele>76.0</ele><time>2026-04-06T10:04:19Z</time></trkpt><trkpt lat="45.62206172564529" lon="10.569091238207287"><ele>75.85714285714285</ele><time>2026-04-06T10:04:20Z</time></trkpt><trkpt lat="45.62209953777491" lon="10.569186590541701"><ele>75.71428571428572</ele><time>2026-04-06T10:04:21Z</time></trkpt><trkpt lat="45.622135229123174" lon="10.569280524057325"><ele>75.57142857142857</ele><time>2026-04-06T10:04:22Z</time></trkpt><trkpt lat="45.62216491213519" lon="10.569367667375161"><ele>75.42857142857142</ele><time>2026-04-06T10:04:23Z</time></trkpt><trkpt lat="45.62219737764111" lon="10.569450560608963"><ele>75.28571428571428</ele><time>2026-04-06T10:04:24Z</time></trkpt><trkpt lat="45.622235114877626" lon="10.569538251953265"><ele>75.14285714285714</ele><time>2026-04-06T10:04:25Z</time></trkpt><trkpt lat="45.622277083209326" lon="10.569629497822286"><ele>75.0</ele><time>2026-04-06T10:04:26Z</time></trkpt><trkpt lat="45.62231813635491" lon="10.56971737356791"><ele>75.0</ele><time>2026-04-06T10:04:27Z</time></trkpt><trkpt lat="45.62236476679218" lon="10.569802522888029"><ele>75.0</ele><time>2026-04-06T10:04:28Z</time></trkpt><trkpt lat="45.62240771205558" lon="10.569885317408762"><ele>75.0</ele><time>2026-04-06T10:04:29Z</time></trkpt><trkpt lat="45.622449955135494" lon="10.56996541574982"><ele>75.0</ele><time>2026-04-06T10:04:30Z</time></trkpt><trkpt lat="45.62249571893775" lon="10.570039247571325"><ele>75.0</ele><time>2026-04-06T10:04:31Z</time></trkpt><trkpt lat="45.62253743349193" lon="10.570109427475522"><ele>75.0</ele><time>2026-04-06T10:04:32Z</time></trkpt><trkpt lat="45.62261142763832" lon="10.570236224423793"><ele>73.8</ele><time>2026-04-06T10:04:34Z</time></trkpt><trkpt lat="45.62269879456817" lon="10.570364580659755"><ele>72.6</ele><time>2026-04-06T10:04:36Z</time></trkpt><trkpt lat="45.62278103628583" lon="10.570484912603504"><ele>71.4</ele><time>2026-04-06T10:04:38Z</time></trkpt><trkpt lat="45.62283114831417" lon="10.570544899399746"><ele>70.2</ele><time>2026-04-06T10:04:39Z</time></trkpt><trkpt lat="45.622921327252094" lon="10.570649769477138"><ele>69.0</ele><time>2026-04-06T10:04:41Z</time></trkpt><trkpt lat="45.62301051749682" lon="10.57074706151411"><ele>70.2</ele><time>2026-04-06T10:04:43Z</time></trkpt><trkpt lat="45.623104908489395" lon="10.570847671762781"><ele>71.4</ele><time>2026-04-06T10:04:45Z</time></trkpt><trkpt lat="45.62320464110332" lon="10.570956610158616"><ele>72.6</ele><time>2026-04-06T10:04:46.999Z</time></trkpt><trkpt lat="45.62329583422448" lon="10.571077434681051"><ele>73.8</ele><time>2026-04-06T10:04:48.999Z</time></trkpt><trkpt lat="45.623345255068045" lon="10.57113399835351"><ele>75.0</ele><time>2026-04-06T10:04:49.999Z</time></trkpt><trkpt lat="45.62341946884372" lon="10.5712365738081"><ele>75.0</ele><time>2026-04-06T10:04:51.999Z</time></trkpt><trkpt lat="45.6235007833205" lon="10.571351564821954"><ele>75.0</ele><time>2026-04-06T10:04:53.999Z</time></trkpt><trkpt lat="45.62357337509253" lon="10.571477745876694"><ele>75.0</ele><time>2026-04-06T10:04:55.999Z</time></trkpt><trkpt lat="45.62363632000984" lon="10.571596209515267"><ele>75.0</ele><time>2026-04-06T10:04:57.999Z</time></trkpt><trkpt lat="45.62368571964076" lon="10.57171384997038"><ele>75.0</ele><time>2026-04-06T10:04:59.999Z</time></trkpt><trkpt lat="45.62371979800454" lon="10.571793387185812"><ele>76.4</ele><time>2026-04-06T10:05:00.999Z</time></trkpt><trkpt lat="45.62377530275182" lon="10.571952842389425"><ele>77.8</ele><time>2026-04-06T10:05:02.999Z</time></trkpt><trkpt lat="45.62381305260869" lon="10.57207390477636"><ele>79.19999999999999</ele><time>2026-04-06T10:05:04.999Z</time></trkpt><trkpt lat="45.6238427780645" lon="10.572167517489776"><ele>80.6</ele><time>2026-04-06T10:05:06.999Z</time></trkpt><trkpt lat="45.62386926450642" lon="10.57225740427185"><ele>82.0</ele><time>2026-04-06T10:05:08.999Z</time></trkpt><trkpt lat="45.62390313608237" lon="10.572383586167787"><ele>82.0</ele><time>2026-04-06T10:05:10.999Z</time></trkpt><trkpt lat="45.623946817360824" lon="10.572521119072997"><ele>82.0</ele><time>2026-04-06T10:05:12.999Z</time></trkpt><trkpt lat="45.62398522404175" lon="10.572643415970424"><ele>82.0</ele><time>2026-04-06T10:05:14.999Z</time></trkpt><trkpt lat="45.624033321307905" lon="10.572767548673292"><ele>82.0</ele><time>2026-04-06T10:05:16.999Z</time></trkpt><trkpt lat="45.62406259642605" lon="10.572847465568708"><ele>82.0</ele><time>2026-04-06T10:05:17.999Z</time></trkpt><trkpt lat="45.624104113768176" lon="10.572989983113168"><ele>81.16666666666666</ele><time>2026-04-06T10:05:19.999Z</time></trkpt><trkpt lat="45.624144984153716" lon="10.573108104930578"><ele>80.33333333333333</ele><time>2026-04-06T10:05:21.999Z</time></trkpt><trkpt lat="45.624194825225295" lon="10.573217358050629"><ele>79.5</ele><time>2026-04-06T10:05:23.999Z</time></trkpt><trkpt lat="45.62423973711097" lon="10.573317576521069"><ele>78.66666666666667</ele><time>2026-04-06T10:05:26Z</time></trkpt><trkpt lat="45.62427382136435" lon="10.573396050898081"><ele>77.83333333333334</ele><time>2026-04-06T10:05:28Z</time></trkpt><trkpt lat="45.62433455702773" lon="10.573496587191316"><ele>77.0</ele><time>2026-04-06T10:05:31Z</time></trkpt><trkpt lat="45.624383445771024" lon="10.573595897959489"><ele>78.0</ele><time>2026-04-06T10:05:33Z</time></trkpt><trkpt lat="45.62447792371198" lon="10.573724731247664"><ele>79.0</ele><time>2026-04-06T10:05:35Z</time></trkpt><trkpt lat="45.6245367007975" lon="10.573799833921376"><ele>80.0</ele><time>2026-04-06T10:05:36Z</time></trkpt><trkpt lat="45.624594930682015" lon="10.57387246593873"><ele>81.0</ele><time>2026-04-06T10:05:37Z</time></trkpt><trkpt lat="45.624661882364975" lon="10.573949172540246"><ele>82.0</ele><time>2026-04-06T10:05:38Z</time></trkpt><trkpt lat="45.62472875532403" lon="10.574026374432169"><ele>82.0</ele><time>2026-04-06T10:05:39Z</time></trkpt><trkpt lat="45.624812210158794" lon="10.5741256972727"><ele>82.0</ele><time>2026-04-06T10:05:40Z</time></trkpt><trkpt lat="45.62490832097795" lon="10.574247544415147"><ele>82.0</ele><time>2026-04-06T10:05:41Z</time></trkpt><trkpt lat="45.62500681678249" lon="10.57438955635208"><ele>82.0</ele><time>2026-04-06T10:05:42Z</time></trkpt><trkpt lat="45.62509989766068" lon="10.574545648335873"><ele>79.5</ele><time>2026-04-06T10:05:43Z</time></trkpt><trkpt lat="45.62517237664678" lon="10.574706189730723"><ele>77.0</ele><time>2026-04-06T10:05:44Z</time></trkpt><trkpt lat="45.62522778050811" lon="10.574852178877762"><ele>74.5</ele><time>2026-04-06T10:05:45Z</time></trkpt><trkpt lat="45.62528595057212" lon="10.575002802470085"><ele>72.0</ele><time>2026-04-06T10:05:46Z</time></trkpt><trkpt lat="45.62531392691232" lon="10.575130633415988"><ele>77.0</ele><time>2026-04-06T10:05:47Z</time></trkpt><trkpt lat="45.62533978337263" lon="10.575247409650382"><ele>82.0</ele><time>2026-04-06T10:05:48Z</time></trkpt><trkpt lat="45.62536522781303" lon="10.575362142230535"><ele>87.0</ele><time>2026-04-06T10:05:49Z</time></trkpt><trkpt lat="45.625564116413884" lon="10.575756006193393"><ele>87.0</ele><time>2026-04-06T10:05:51Z</time></trkpt><trkpt lat="45.62560489094359" lon="10.575875049999699"><ele>87.0</ele><time>2026-04-06T10:05:52Z</time></trkpt><trkpt lat="45.625627759114884" lon="10.575985454100726"><ele>87.0</ele><time>2026-04-06T10:05:53Z</time></trkpt><trkpt lat="45.62565568256917" lon="10.576094365324867"><ele>87.0</ele><time>2026-04-06T10:05:54Z</time></trkpt><trkpt lat="45.625682308069486" lon="10.576204236887003"><ele>87.0</ele><time>2026-04-06T10:05:55Z</time></trkpt><trkpt lat="45.62570562624416" lon="10.576331534073807"><ele>87.0</ele><time>2026-04-06T10:05:56Z</time></trkpt><trkpt lat="45.62574769693302" lon="10.576499079117623"><ele>85.8</ele><time>2026-04-06T10:05:57Z</time></trkpt><trkpt lat="45.625791879112334" lon="10.576680837791164"><ele>84.6</ele><time>2026-04-06T10:05:58Z</time></trkpt><trkpt lat="45.62582800454053" lon="10.576840725643763"><ele>83.39999999999999</ele><time>2026-04-06T10:05:59Z</time></trkpt><trkpt lat="45.62586126878684" lon="10.576965858299214"><ele>82.19999999999999</ele><time>2026-04-06T10:06:00Z</time></trkpt><trkpt lat="45.625885171995556" lon="10.577080952044044"><ele>81.0</ele><time>2026-04-06T10:06:01Z</time></trkpt><trkpt lat="45.625912660130105" lon="10.577192482562204"><ele>80.39999999999999</ele><time>2026-04-06T10:06:02Z</time></trkpt><trkpt lat="45.625941329279364" lon="10.577320329177834"><ele>79.8</ele><time>2026-04-06T10:06:03Z</time></trkpt><trkpt lat="45.62594193152182" lon="10.577492763670843"><ele>79.19999999999999</ele><time>2026-04-06T10:06:04Z</time></trkpt><trkpt lat="45.62596458479912" lon="10.577665597238084"><ele>78.6</ele><time>2026-04-06T10:06:05Z</time></trkpt><trkpt lat="45.6259842587761" lon="10.577808352368343"><ele>78.0</ele><time>2026-04-06T10:06:06Z</time></trkpt><trkpt lat="45.6260005845695" lon="10.577941532246967"><ele>77.33333333333333</ele><time>2026-04-06T10:06:07Z</time></trkpt><trkpt lat="45.62601614626122" lon="10.578069766123317"><ele>76.66666666666667</ele><time>2026-04-06T10:06:08Z</time></trkpt><trkpt lat="45.6260320101107" lon="10.578195479841476"><ele>76.0</ele><time>2026-04-06T10:06:09Z</time></trkpt><trkpt lat="45.626046987445164" lon="10.578315349499128"><ele>75.33333333333334</ele><time>2026-04-06T10:06:10Z</time></trkpt><trkpt lat="45.626059913800944" lon="10.578429510996207"><ele>74.66666666666667</ele><time>2026-04-06T10:06:11Z</time></trkpt><trkpt lat="45.6260724837158" lon="10.578540524496555"><ele>74.0</ele><time>2026-04-06T10:06:12Z</time></trkpt><trkpt lat="45.62609059131254" lon="10.578742214751458"><ele>73.60000000000001</ele><time>2026-04-06T10:06:14Z</time></trkpt><trkpt lat="45.626109276277504" lon="10.578838735159685"><ele>73.2</ele><time>2026-04-06T10:06:15Z</time></trkpt><trkpt lat="45.62612198462978" lon="10.578958856923107"><ele>72.80000000000001</ele><time>2026-04-06T10:06:16Z</time></trkpt><trkpt lat="45.62612336309608" lon="10.579124572460506"><ele>72.4</ele><time>2026-04-06T10:06:17Z</time></trkpt><trkpt lat="45.62613088967088" lon="10.57928424989221"><ele>72.0</ele><time>2026-04-06T10:06:18Z</time></trkpt><trkpt lat="45.62615600143538" lon="10.579428309796034"><ele>75.0</ele><time>2026-04-06T10:06:19Z</time></trkpt><trkpt lat="45.62616650353262" lon="10.579557996221206"><ele>78.0</ele><time>2026-04-06T10:06:20Z</time></trkpt><trkpt lat="45.62616621090516" lon="10.579689559329594"><ele>81.0</ele><time>2026-04-06T10:06:21Z</time></trkpt><trkpt lat="45.6261708504258" lon="10.5798160266735"><ele>84.0</ele><time>2026-04-06T10:06:22Z</time></trkpt><trkpt lat="45.62617471080707" lon="10.579932267407342"><ele>87.0</ele><time>2026-04-06T10:06:23Z</time></trkpt><trkpt lat="45.62617256899308" lon="10.580028949813663"><ele>90.0</ele><time>2026-04-06T10:06:24Z</time></trkpt><trkpt lat="45.62617427710058" lon="10.580124366739726"><ele>90.0</ele><time>2026-04-06T10:06:25Z</time></trkpt><trkpt lat="45.62616736944518" lon="10.580216383496891"><ele>90.0</ele><time>2026-04-06T10:06:26Z</time></trkpt><trkpt lat="45.62616630941554" lon="10.580377963086129"><ele>90.0</ele><time>2026-04-06T10:06:28Z</time></trkpt><trkpt lat="45.62617242763529" lon="10.580555662784851"><ele>90.0</ele><time>2026-04-06T10:06:30Z</time></trkpt><trkpt lat="45.62617095729236" lon="10.580727316972926"><ele>90.0</ele><time>2026-04-06T10:06:32Z</time></trkpt><trkpt lat="45.626174345605776" lon="10.580817997597634"><ele>89.16666666666667</ele><time>2026-04-06T10:06:33Z</time></trkpt><trkpt lat="45.62617142935681" lon="10.581009966459806"><ele>88.33333333333333</ele><time>2026-04-06T10:06:35Z</time></trkpt><trkpt lat="45.6261769698452" lon="10.581102005407915"><ele>87.5</ele><time>2026-04-06T10:06:36Z</time></trkpt><trkpt lat="45.626178586396215" lon="10.581195271641942"><ele>86.66666666666666</ele><time>2026-04-06T10:06:37Z</time></trkpt><trkpt lat="45.62618058401159" lon="10.581287957987868"><ele>85.83333333333333</ele><time>2026-04-06T10:06:38Z</time></trkpt><trkpt lat="45.62618900763666" lon="10.581394095841098"><ele>85.0</ele><time>2026-04-06T10:06:39Z</time></trkpt><trkpt lat="45.62619491999468" lon="10.5814980646693"><ele>85.0</ele><time>2026-04-06T10:06:40Z</time></trkpt><trkpt lat="45.62619588055005" lon="10.581613419720696"><ele>85.0</ele><time>2026-04-06T10:06:41Z</time></trkpt><trkpt lat="45.626197593764665" lon="10.581714127895872"><ele>85.0</ele><time>2026-04-06T10:06:42Z</time></trkpt><trkpt lat="45.6261944555982" lon="10.58183768280097"><ele>85.0</ele><time>2026-04-06T10:06:43Z</time></trkpt><trkpt lat="45.62619038534021" lon="10.581962835534094"><ele>85.0</ele><time>2026-04-06T10:06:44Z</time></trkpt><trkpt lat="45.62619208548509" lon="10.582106763698409"><ele>85.0</ele><time>2026-04-06T10:06:45Z</time></trkpt><trkpt lat="45.62619425619121" lon="10.582273215005165"><ele>85.0</ele><time>2026-04-06T10:06:46Z</time></trkpt><trkpt lat="45.62619281201777" lon="10.582470917147143"><ele>85.0</ele><time>2026-04-06T10:06:47Z</time></trkpt><trkpt lat="45.62619294922725" lon="10.582690726158757"><ele>85.0</ele><time>2026-04-06T10:06:48Z</time></trkpt><trkpt lat="45.62617348692191" lon="10.58288227898309"><ele>85.0</ele><time>2026-04-06T10:06:49Z</time></trkpt><trkpt lat="45.62615443038419" lon="10.583061598744889"><ele>82.25</ele><time>2026-04-06T10:06:50Z</time></trkpt><trkpt lat="45.62613117716262" lon="10.583231780504155"><ele>79.5</ele><time>2026-04-06T10:06:51Z</time></trkpt><trkpt lat="45.626114168961024" lon="10.583399695289785"><ele>76.75</ele><time>2026-04-06T10:06:52Z</time></trkpt><trkpt lat="45.62608813895844" lon="10.583572447151937"><ele>74.0</ele><time>2026-04-06T10:06:53Z</time></trkpt><trkpt lat="45.62606618333647" lon="10.583738154680177"><ele>74.0</ele><time>2026-04-06T10:06:54Z</time></trkpt><trkpt lat="45.62604498981836" lon="10.583898752475747"><ele>74.0</ele><time>2026-04-06T10:06:55Z</time></trkpt><trkpt lat="45.62602762469923" lon="10.584057565233337"><ele>74.0</ele><time>2026-04-06T10:06:56Z</time></trkpt><trkpt lat="45.62601317916248" lon="10.584218417082647"><ele>74.0</ele><time>2026-04-06T10:06:57Z</time></trkpt><trkpt lat="45.62600870160793" lon="10.584362447999993"><ele>74.0</ele><time>2026-04-06T10:06:58Z</time></trkpt><trkpt lat="45.62601920082153" lon="10.584494824968612"><ele>73.8</ele><time>2026-04-06T10:06:59Z</time></trkpt><trkpt lat="45.62605115814982" lon="10.584627892564097"><ele>73.60000000000001</ele><time>2026-04-06T10:07:00Z</time></trkpt><trkpt lat="45.626091433186375" lon="10.58475296845631"><ele>73.4</ele><time>2026-04-06T10:07:01Z</time></trkpt><trkpt lat="45.62613787857397" lon="10.584874467860855"><ele>73.2</ele><time>2026-04-06T10:07:02Z</time></trkpt><trkpt lat="45.626203141235784" lon="10.584990259124982"><ele>73.0</ele><time>2026-04-06T10:07:03Z</time></trkpt><trkpt lat="45.6262540060065" lon="10.585107162642235"><ele>73.83333333333333</ele><time>2026-04-06T10:07:04Z</time></trkpt><trkpt lat="45.626308412386926" lon="10.58520552830124"><ele>74.66666666666666</ele><time>2026-04-06T10:07:05Z</time></trkpt><trkpt lat="45.62635873602627" lon="10.585298976756471"><ele>75.5</ele><time>2026-04-06T10:07:06Z</time></trkpt><trkpt lat="45.62641522127214" lon="10.58539425272186"><ele>76.33333333333333</ele><time>2026-04-06T10:07:07Z</time></trkpt><trkpt lat="45.62648573260884" lon="10.585479287172854"><ele>77.16666666666667</ele><time>2026-04-06T10:07:08Z</time></trkpt><trkpt lat="45.626558481901306" lon="10.585551367661289"><ele>78.0</ele><time>2026-04-06T10:07:09Z</time></trkpt><trkpt lat="45.62663735709608" lon="10.585614013111044"><ele>78.0</ele><time>2026-04-06T10:07:10Z</time></trkpt><trkpt lat="45.626728850018196" lon="10.585691792969493"><ele>78.0</ele><time>2026-04-06T10:07:11Z</time></trkpt><trkpt lat="45.626836490724386" lon="10.585790246818524"><ele>78.0</ele><time>2026-04-06T10:07:12Z</time></trkpt><trkpt lat="45.62694976653168" lon="10.585894753883967"><ele>78.0</ele><time>2026-04-06T10:07:13Z</time></trkpt><trkpt lat="45.6270588801718" lon="10.585995733862545"><ele>78.4</ele><time>2026-04-06T10:07:14Z</time></trkpt><trkpt lat="45.627147840424115" lon="10.586075772029853"><ele>78.8</ele><time>2026-04-06T10:07:15Z</time></trkpt><trkpt lat="45.627217233023245" lon="10.586146792000873"><ele>79.2</ele><time>2026-04-06T10:07:16Z</time></trkpt><trkpt lat="45.62729750316799" lon="10.586223974254297"><ele>79.6</ele><time>2026-04-06T10:07:17Z</time></trkpt><trkpt lat="45.62738624915497" lon="10.5863088702103"><ele>80.0</ele><time>2026-04-06T10:07:18Z</time></trkpt><trkpt lat="45.627461203620115" lon="10.586385452730186"><ele>79.2</ele><time>2026-04-06T10:07:18.999Z</time></trkpt><trkpt lat="45.62754947847863" lon="10.586463713265978"><ele>78.4</ele><time>2026-04-06T10:07:19.999Z</time></trkpt><trkpt lat="45.62763974421047" lon="10.586540330159593"><ele>77.6</ele><time>2026-04-06T10:07:20.999Z</time></trkpt><trkpt lat="45.62772788034457" lon="10.586598284621566"><ele>76.8</ele><time>2026-04-06T10:07:21.999Z</time></trkpt><trkpt lat="45.627832149546116" lon="10.58663608989971"><ele>76.0</ele><time>2026-04-06T10:07:22.999Z</time></trkpt><trkpt lat="45.62794457355256" lon="10.586655445115317"><ele>75.8</ele><time>2026-04-06T10:07:23.999Z</time></trkpt><trkpt lat="45.628060192903995" lon="10.58666235371988"><ele>75.6</ele><time>2026-04-06T10:07:24.999Z</time></trkpt><trkpt lat="45.62817592439671" lon="10.586655202088682"><ele>75.4</ele><time>2026-04-06T10:07:25.999Z</time></trkpt><trkpt lat="45.62827571577812" lon="10.58664094221926"><ele>75.2</ele><time>2026-04-06T10:07:26.999Z</time></trkpt><trkpt lat="45.62835154161057" lon="10.586635835936951"><ele>75.0</ele><time>2026-04-06T10:07:27.999Z</time></trkpt><trkpt lat="45.62847459907513" lon="10.586629139050922"><ele>75.0</ele><time>2026-04-06T10:07:29.999Z</time></trkpt><trkpt lat="45.62855295070573" lon="10.586627431563992"><ele>75.0</ele><time>2026-04-06T10:07:30.999Z</time></trkpt><trkpt lat="45.62862652279398" lon="10.586624437699754"><ele>75.0</ele><time>2026-04-06T10:07:32Z</time></trkpt><trkpt lat="45.62869048318099" lon="10.586628172566458"><ele>75.0</ele><time>2026-04-06T10:07:33Z</time></trkpt><trkpt lat="45.62881374901149" lon="10.586624280141525"><ele>75.0</ele><time>2026-04-06T10:07:35Z</time></trkpt><trkpt lat="45.628939131304" lon="10.586619948090167"><ele>75.33333333333333</ele><time>2026-04-06T10:07:37Z</time></trkpt><trkpt lat="45.62905012470139" lon="10.586623587920352"><ele>75.66666666666667</ele><time>2026-04-06T10:07:39Z</time></trkpt><trkpt lat="45.62911625044561" lon="10.586630515741263"><ele>76.0</ele><time>2026-04-06T10:07:40Z</time></trkpt><trkpt lat="45.629190007833344" lon="10.58663903721739"><ele>76.33333333333334</ele><time>2026-04-06T10:07:41Z</time></trkpt><trkpt lat="45.62927367972051" lon="10.58665237122752"><ele>76.66666666666667</ele><time>2026-04-06T10:07:42Z</time></trkpt><trkpt lat="45.62935200253108" lon="10.586675676142256"><ele>77.0</ele><time>2026-04-06T10:07:43Z</time></trkpt><trkpt lat="45.62942205493644" lon="10.586699981314656"><ele>77.6</ele><time>2026-04-06T10:07:44Z</time></trkpt><trkpt lat="45.62950720923154" lon="10.586704119385235"><ele>78.2</ele><time>2026-04-06T10:07:46Z</time></trkpt><trkpt lat="45.62961049484111" lon="10.586760835045897"><ele>78.8</ele><time>2026-04-06T10:07:48Z</time></trkpt><trkpt lat="45.62971464802708" lon="10.586832361128083"><ele>79.4</ele><time>2026-04-06T10:07:49Z</time></trkpt><trkpt lat="45.62982878517074" lon="10.586937703289276"><ele>80.0</ele><time>2026-04-06T10:07:50Z</time></trkpt><trkpt lat="45.629939226142724" lon="10.587057595723985"><ele>80.0</ele><time>2026-04-06T10:07:51Z</time></trkpt><trkpt lat="45.630045169754965" lon="10.587185718398363"><ele>80.0</ele><time>2026-04-06T10:07:52Z</time></trkpt><trkpt lat="45.630147150301234" lon="10.587315305192053"><ele>80.0</ele><time>2026-04-06T10:07:53Z</time></trkpt><trkpt lat="45.6302461528341" lon="10.587447868508983"><ele>80.0</ele><time>2026-04-06T10:07:54Z</time></trkpt><trkpt lat="45.63033767290481" lon="10.587580375119526"><ele>79.0</ele><time>2026-04-06T10:07:55Z</time></trkpt><trkpt lat="45.630425416376106" lon="10.58771436156603"><ele>78.0</ele><time>2026-04-06T10:07:56Z</time></trkpt><trkpt lat="45.63051379204029" lon="10.587847880873863"><ele>77.0</ele><time>2026-04-06T10:07:57Z</time></trkpt><trkpt lat="45.630593483382796" lon="10.587963592296273"><ele>76.0</ele><time>2026-04-06T10:07:58Z</time></trkpt><trkpt lat="45.63065738422315" lon="10.588056795474785"><ele>76.0</ele><time>2026-04-06T10:07:59Z</time></trkpt><trkpt lat="45.63072509341245" lon="10.588161860359124"><ele>76.0</ele><time>2026-04-06T10:08:00Z</time></trkpt><trkpt lat="45.6307993256126" lon="10.58827530301502"><ele>76.0</ele><time>2026-04-06T10:08:01Z</time></trkpt><trkpt lat="45.630878319904085" lon="10.588379745419644"><ele>76.0</ele><time>2026-04-06T10:08:02Z</time></trkpt><trkpt lat="45.63095722365082" lon="10.588494477770599"><ele>76.0</ele><time>2026-04-06T10:08:03Z</time></trkpt><trkpt lat="45.63103451200571" lon="10.58861310279899"><ele>73.5</ele><time>2026-04-06T10:08:04Z</time></trkpt><trkpt lat="45.631112174871326" lon="10.588729725239078"><ele>71.0</ele><time>2026-04-06T10:08:05Z</time></trkpt><trkpt lat="45.63119681197517" lon="10.588854191664392"><ele>68.5</ele><time>2026-04-06T10:08:06Z</time></trkpt><trkpt lat="45.6312826913139" lon="10.588972920545277"><ele>66.0</ele><time>2026-04-06T10:08:07Z</time></trkpt><trkpt lat="45.631371694063105" lon="10.589108471958857"><ele>68.5</ele><time>2026-04-06T10:08:08Z</time></trkpt><trkpt lat="45.6314503571207" lon="10.589243293923948"><ele>71.0</ele><time>2026-04-06T10:08:09Z</time></trkpt><trkpt lat="45.63152883321235" lon="10.589378632697759"><ele>73.5</ele><time>2026-04-06T10:08:10Z</time></trkpt><trkpt lat="45.631613111266724" lon="10.589517406841248"><ele>76.0</ele><time>2026-04-06T10:08:11Z</time></trkpt><trkpt lat="45.63168873353358" lon="10.589653924958169"><ele>76.0</ele><time>2026-04-06T10:08:12Z</time></trkpt><trkpt lat="45.63176166745363" lon="10.589778793956018"><ele>76.0</ele><time>2026-04-06T10:08:13Z</time></trkpt><trkpt lat="45.63183420984719" lon="10.589911790130833"><ele>76.0</ele><time>2026-04-06T10:08:14Z</time></trkpt><trkpt lat="45.63190807644686" lon="10.590044255951486"><ele>76.0</ele><time>2026-04-06T10:08:15Z</time></trkpt><trkpt lat="45.631980767803846" lon="10.590184848745773"><ele>79.75</ele><time>2026-04-06T10:08:16Z</time></trkpt><trkpt lat="45.63204703540885" lon="10.590318626622002"><ele>83.5</ele><time>2026-04-06T10:08:17Z</time></trkpt><trkpt lat="45.63211060613924" lon="10.590449678020113"><ele>87.25</ele><time>2026-04-06T10:08:18Z</time></trkpt><trkpt lat="45.63218945020371" lon="10.59063073944851"><ele>91.0</ele><time>2026-04-06T10:08:19Z</time></trkpt><trkpt lat="45.632272119712574" lon="10.59085759559544"><ele>91.0</ele><time>2026-04-06T10:08:20Z</time></trkpt><trkpt lat="45.63234139374042" lon="10.591048794872911"><ele>91.0</ele><time>2026-04-06T10:08:21Z</time></trkpt><trkpt lat="45.63241698338248" lon="10.59122039368602"><ele>91.0</ele><time>2026-04-06T10:08:22Z</time></trkpt><trkpt lat="45.63249385319194" lon="10.591385360094119"><ele>91.0</ele><time>2026-04-06T10:08:23Z</time></trkpt><trkpt lat="45.63257257835346" lon="10.591529360084783"><ele>95.0</ele><time>2026-04-06T10:08:24Z</time></trkpt><trkpt lat="45.632657087601395" lon="10.591649510144144"><ele>99.0</ele><time>2026-04-06T10:08:25Z</time></trkpt><trkpt lat="45.632753539333685" lon="10.591744822358896"><ele>103.0</ele><time>2026-04-06T10:08:26Z</time></trkpt><trkpt lat="45.63285367882172" lon="10.591832232193598"><ele>107.0</ele><time>2026-04-06T10:08:27Z</time></trkpt><trkpt lat="45.63294730274312" lon="10.591920526805877"><ele>100.6</ele><time>2026-04-06T10:08:28Z</time></trkpt><trkpt lat="45.633031722774064" lon="10.59200882656809"><ele>94.19999999999999</ele><time>2026-04-06T10:08:29Z</time></trkpt><trkpt lat="45.633109823762005" lon="10.59210370948448"><ele>87.8</ele><time>2026-04-06T10:08:30Z</time></trkpt><trkpt lat="45.63318568968185" lon="10.592213620924422"><ele>81.4</ele><time>2026-04-06T10:08:31Z</time></trkpt><trkpt lat="45.63325472796814" lon="10.59232296982352"><ele>75.0</ele><time>2026-04-06T10:08:32Z</time></trkpt><trkpt lat="45.633318553431906" lon="10.59243999959236"><ele>75.0</ele><time>2026-04-06T10:08:33Z</time></trkpt><trkpt lat="45.63339577413963" lon="10.592572959327322"><ele>75.0</ele><time>2026-04-06T10:08:34Z</time></trkpt><trkpt lat="45.633480581310224" lon="10.592739801388523"><ele>75.0</ele><time>2026-04-06T10:08:35Z</time></trkpt><trkpt lat="45.633563144519734" lon="10.592907550915529"><ele>75.0</ele><time>2026-04-06T10:08:36Z</time></trkpt><trkpt lat="45.63364472599772" lon="10.593063423246816"><ele>80.25</ele><time>2026-04-06T10:08:37Z</time></trkpt><trkpt lat="45.63371642639183" lon="10.593208877431742"><ele>85.5</ele><time>2026-04-06T10:08:38Z</time></trkpt><trkpt lat="45.63378754273366" lon="10.59334138100448"><ele>90.75</ele><time>2026-04-06T10:08:39Z</time></trkpt><trkpt lat="45.63385389638255" lon="10.59346445006418"><ele>96.0</ele><time>2026-04-06T10:08:40Z</time></trkpt><trkpt lat="45.63392072434829" lon="10.593593162571832"><ele>91.25</ele><time>2026-04-06T10:08:41Z</time></trkpt><trkpt lat="45.63399133493414" lon="10.593723349411007"><ele>86.5</ele><time>2026-04-06T10:08:42Z</time></trkpt><trkpt lat="45.63407638344661" lon="10.593880262398782"><ele>81.75</ele><time>2026-04-06T10:08:43Z</time></trkpt><trkpt lat="45.634175793388586" lon="10.594073847932696"><ele>77.0</ele><time>2026-04-06T10:08:44Z</time></trkpt><trkpt lat="45.63428842222586" lon="10.594294479170395"><ele>74.0</ele><time>2026-04-06T10:08:45Z</time></trkpt><trkpt lat="45.63439532709827" lon="10.594528302896315"><ele>71.0</ele><time>2026-04-06T10:08:46Z</time></trkpt><trkpt lat="45.63449304927302" lon="10.594725575795"><ele>68.0</ele><time>2026-04-06T10:08:47Z</time></trkpt><trkpt lat="45.63456817694082" lon="10.594901929770769"><ele>70.5</ele><time>2026-04-06T10:08:48Z</time></trkpt><trkpt lat="45.63463616801352" lon="10.595078775674112"><ele>73.0</ele><time>2026-04-06T10:08:49Z</time></trkpt><trkpt lat="45.63470510538413" lon="10.595231737378787"><ele>75.5</ele><time>2026-04-06T10:08:50Z</time></trkpt><trkpt lat="45.634766920610964" lon="10.595375115791647"><ele>78.0</ele><time>2026-04-06T10:08:51Z</time></trkpt><trkpt lat="45.634819862476654" lon="10.595509883759071"><ele>78.0</ele><time>2026-04-06T10:08:52Z</time></trkpt><trkpt lat="45.63487421833151" lon="10.595636150361726"><ele>78.0</ele><time>2026-04-06T10:08:53Z</time></trkpt><trkpt lat="45.634925521527656" lon="10.59576254170098"><ele>78.0</ele><time>2026-04-06T10:08:54Z</time></trkpt><trkpt lat="45.634965847259075" lon="10.595884908339732"><ele>78.0</ele><time>2026-04-06T10:08:55Z</time></trkpt><trkpt lat="45.63501412637911" lon="10.59601049581772"><ele>78.0</ele><time>2026-04-06T10:08:56Z</time></trkpt><trkpt lat="45.63507231232288" lon="10.596139802978245"><ele>76.5</ele><time>2026-04-06T10:08:57Z</time></trkpt><trkpt lat="45.63513568394314" lon="10.596277335066215"><ele>75.0</ele><time>2026-04-06T10:08:58Z</time></trkpt><trkpt lat="45.635200997492824" lon="10.596411259726082"><ele>73.5</ele><time>2026-04-06T10:08:59Z</time></trkpt><trkpt lat="45.635270523635064" lon="10.596555129565532"><ele>72.0</ele><time>2026-04-06T10:09:00Z</time></trkpt><trkpt lat="45.63534294523372" lon="10.596695817095506"><ele>73.75</ele><time>2026-04-06T10:09:01Z</time></trkpt><trkpt lat="45.635410995031926" lon="10.596842211601237"><ele>75.5</ele><time>2026-04-06T10:09:02Z</time></trkpt><trkpt lat="45.635475600617724" lon="10.596993464561374"><ele>77.25</ele><time>2026-04-06T10:09:03Z</time></trkpt><trkpt lat="45.635534542987976" lon="10.597143394402423"><ele>79.0</ele><time>2026-04-06T10:09:04Z</time></trkpt><trkpt lat="45.63558558007791" lon="10.59729255978035"><ele>79.0</ele><time>2026-04-06T10:09:05Z</time></trkpt><trkpt lat="45.63562789986174" lon="10.597454796835832"><ele>79.0</ele><time>2026-04-06T10:09:06Z</time></trkpt><trkpt lat="45.63565863945334" lon="10.597616285926124"><ele>79.0</ele><time>2026-04-06T10:09:07Z</time></trkpt><trkpt lat="45.63567485212827" lon="10.597776355377478"><ele>79.0</ele><time>2026-04-06T10:09:08Z</time></trkpt><trkpt lat="45.635688936995706" lon="10.597931650059643"><ele>78.0</ele><time>2026-04-06T10:09:09Z</time></trkpt><trkpt lat="45.63569987854195" lon="10.598086923964566"><ele>77.0</ele><time>2026-04-06T10:09:10Z</time></trkpt><trkpt lat="45.63570496583797" lon="10.598231523927813"><ele>76.0</ele><time>2026-04-06T10:09:11Z</time></trkpt><trkpt lat="45.63570102660999" lon="10.598371088917762"><ele>75.0</ele><time>2026-04-06T10:09:12Z</time></trkpt><trkpt lat="45.63570341829725" lon="10.598499757571627"><ele>74.0</ele><time>2026-04-06T10:09:13Z</time></trkpt><trkpt lat="45.63570478168495" lon="10.598627705039519"><ele>73.66666666666667</ele><time>2026-04-06T10:09:14Z</time></trkpt><trkpt lat="45.63568725772734" lon="10.59874925405786"><ele>73.33333333333334</ele><time>2026-04-06T10:09:15Z</time></trkpt><trkpt lat="45.63567004773385" lon="10.59886613131379"><ele>73.0</ele><time>2026-04-06T10:09:16Z</time></trkpt><trkpt lat="45.635637970106764" lon="10.598968718433031"><ele>72.66666666666667</ele><time>2026-04-06T10:09:17Z</time></trkpt><trkpt lat="45.63560446485751" lon="10.599069342013841"><ele>72.33333333333333</ele><time>2026-04-06T10:09:18Z</time></trkpt><trkpt lat="45.63556592124644" lon="10.599165134117566"><ele>72.0</ele><time>2026-04-06T10:09:19Z</time></trkpt><trkpt lat="45.635522104350144" lon="10.599263199323476"><ele>72.0</ele><time>2026-04-06T10:09:20Z</time></trkpt><trkpt lat="45.63547054748138" lon="10.59934944121598"><ele>72.0</ele><time>2026-04-06T10:09:21Z</time></trkpt><trkpt lat="45.63540672907838" lon="10.599444320947832"><ele>72.0</ele><time>2026-04-06T10:09:22Z</time></trkpt><trkpt lat="45.63533958629374" lon="10.599545892479917"><ele>72.0</ele><time>2026-04-06T10:09:23Z</time></trkpt><trkpt lat="45.635280984318925" lon="10.599657756414937"><ele>72.0</ele><time>2026-04-06T10:09:24Z</time></trkpt><trkpt lat="45.63522597761812" lon="10.59978947695375"><ele>72.25</ele><time>2026-04-06T10:09:25Z</time></trkpt><trkpt lat="45.635168455728234" lon="10.599925572990333"><ele>72.5</ele><time>2026-04-06T10:09:26Z</time></trkpt><trkpt lat="45.63510604532342" lon="10.600083739309046"><ele>72.75</ele><time>2026-04-06T10:09:27Z</time></trkpt><trkpt lat="45.63505274362167" lon="10.60026357697466"><ele>73.0</ele><time>2026-04-06T10:09:28Z</time></trkpt><trkpt lat="45.634990668041716" lon="10.600446072182717"><ele>72.25</ele><time>2026-04-06T10:09:28.999Z</time></trkpt><trkpt lat="45.6349373005725" lon="10.600613280910398"><ele>71.5</ele><time>2026-04-06T10:09:29.999Z</time></trkpt><trkpt lat="45.634894769430076" lon="10.600774713379263"><ele>70.75</ele><time>2026-04-06T10:09:30.999Z</time></trkpt><trkpt lat="45.634872089655396" lon="10.60094541365689"><ele>70.0</ele><time>2026-04-06T10:09:31.999Z</time></trkpt><trkpt lat="45.63485967596091" lon="10.601136444475838"><ele>69.75</ele><time>2026-04-06T10:09:32.999Z</time></trkpt><trkpt lat="45.634878025543486" lon="10.601336113864168"><ele>69.5</ele><time>2026-04-06T10:09:33.999Z</time></trkpt><trkpt lat="45.634926061983116" lon="10.601528992086214"><ele>69.25</ele><time>2026-04-06T10:09:34.999Z</time></trkpt><trkpt lat="45.63499250013046" lon="10.601708229146505"><ele>69.0</ele><time>2026-04-06T10:09:35.999Z</time></trkpt><trkpt lat="45.63506837126906" lon="10.601874252129827"><ele>69.0</ele><time>2026-04-06T10:09:36.999Z</time></trkpt><trkpt lat="45.63515334991936" lon="10.60202359191766"><ele>69.0</ele><time>2026-04-06T10:09:38Z</time></trkpt><trkpt lat="45.63523473977186" lon="10.602162315627416"><ele>69.0</ele><time>2026-04-06T10:09:39Z</time></trkpt><trkpt lat="45.63531478535162" lon="10.602300631730548"><ele>69.0</ele><time>2026-04-06T10:09:40Z</time></trkpt><trkpt lat="45.63539183346066" lon="10.602445664500864"><ele>69.25</ele><time>2026-04-06T10:09:41Z</time></trkpt><trkpt lat="45.63546319312271" lon="10.602587601157364"><ele>69.5</ele><time>2026-04-06T10:09:42Z</time></trkpt><trkpt lat="45.63553342593679" lon="10.602723585049466"><ele>69.75</ele><time>2026-04-06T10:09:43Z</time></trkpt><trkpt lat="45.63560880706394" lon="10.602861059025562"><ele>70.0</ele><time>2026-04-06T10:09:44Z</time></trkpt><trkpt lat="45.63567759927445" lon="10.602991237932608"><ele>70.0</ele><time>2026-04-06T10:09:45Z</time></trkpt><trkpt lat="45.63573929510888" lon="10.603111671287591"><ele>70.0</ele><time>2026-04-06T10:09:46Z</time></trkpt><trkpt lat="45.63579780032984" lon="10.603224294866719"><ele>70.0</ele><time>2026-04-06T10:09:47Z</time></trkpt><trkpt lat="45.635851757743154" lon="10.60333253873367"><ele>70.0</ele><time>2026-04-06T10:09:48Z</time></trkpt><trkpt lat="45.63590360806014" lon="10.60343097644951"><ele>70.0</ele><time>2026-04-06T10:09:49Z</time></trkpt><trkpt lat="45.63595493623414" lon="10.603529323166539"><ele>70.0</ele><time>2026-04-06T10:09:50Z</time></trkpt><trkpt lat="45.636006780209726" lon="10.60362326770668"><ele>70.0</ele><time>2026-04-06T10:09:51Z</time></trkpt><trkpt lat="45.63605720152169" lon="10.6037154097783"><ele>70.0</ele><time>2026-04-06T10:09:52Z</time></trkpt><trkpt lat="45.63610457086978" lon="10.603806697486313"><ele>70.0</ele><time>2026-04-06T10:09:53Z</time></trkpt><trkpt lat="45.63615235061348" lon="10.603892648626747"><ele>70.0</ele><time>2026-04-06T10:09:54Z</time></trkpt><trkpt lat="45.63620973583807" lon="10.603995132545784"><ele>70.0</ele><time>2026-04-06T10:09:55Z</time></trkpt><trkpt lat="45.636277394439745" lon="10.604120635757772"><ele>70.5</ele><time>2026-04-06T10:09:56Z</time></trkpt><trkpt lat="45.636337477436584" lon="10.604237121248023"><ele>71.0</ele><time>2026-04-06T10:09:57Z</time></trkpt><trkpt lat="45.63638998769194" lon="10.604341768469888"><ele>71.5</ele><time>2026-04-06T10:09:58Z</time></trkpt><trkpt lat="45.63644093242275" lon="10.60443772514793"><ele>72.0</ele><time>2026-04-06T10:09:59Z</time></trkpt><trkpt lat="45.636487853011936" lon="10.604535005712698"><ele>72.5</ele><time>2026-04-06T10:10:00Z</time></trkpt><trkpt lat="45.63652763071906" lon="10.604624483138723"><ele>73.0</ele><time>2026-04-06T10:10:01Z</time></trkpt><trkpt lat="45.636569490409656" lon="10.604700650599264"><ele>73.0</ele><time>2026-04-06T10:10:02Z</time></trkpt><trkpt lat="45.63660790139007" lon="10.604777822967568"><ele>73.0</ele><time>2026-04-06T10:10:03Z</time></trkpt><trkpt lat="45.636662382314796" lon="10.60489733608528"><ele>73.0</ele><time>2026-04-06T10:10:05Z</time></trkpt><trkpt lat="45.636686702795444" lon="10.605040929933539"><ele>73.0</ele><time>2026-04-06T10:10:07Z</time></trkpt><trkpt lat="45.63670000716589" lon="10.605195673756574"><ele>73.0</ele><time>2026-04-06T10:10:09Z</time></trkpt><trkpt lat="45.636805790102144" lon="10.60530694415553"><ele>73.16666666666666</ele><time>2026-04-06T10:10:11Z</time></trkpt><trkpt lat="45.636873177488006" lon="10.605353778812395"><ele>73.33333333333333</ele><time>2026-04-06T10:10:12Z</time></trkpt><trkpt lat="45.636931456711004" lon="10.60543365264965"><ele>73.5</ele><time>2026-04-06T10:10:13Z</time></trkpt><trkpt lat="45.63697839126772" lon="10.605523323056577"><ele>73.66666666666667</ele><time>2026-04-06T10:10:14Z</time></trkpt><trkpt lat="45.63702096190033" lon="10.605608271654228"><ele>73.83333333333334</ele><time>2026-04-06T10:10:15Z</time></trkpt><trkpt lat="45.6370662036077" lon="10.60568684519836"><ele>74.0</ele><time>2026-04-06T10:10:17Z</time></trkpt><trkpt lat="45.63715809693364" lon="10.605804648406645"><ele>74.16666666666667</ele><time>2026-04-06T10:10:19Z</time></trkpt><trkpt lat="45.637197608047764" lon="10.60589315064651"><ele>74.33333333333334</ele><time>2026-04-06T10:10:20Z</time></trkpt><trkpt lat="45.63725605154482" lon="10.606007328801587"><ele>74.5</ele><time>2026-04-06T10:10:22Z</time></trkpt><trkpt lat="45.63731097980241" lon="10.606088099317832"><ele>74.66666666666667</ele><time>2026-04-06T10:10:24Z</time></trkpt><trkpt lat="45.63737567483751" lon="10.606177669538075"><ele>74.83333333333333</ele><time>2026-04-06T10:10:26Z</time></trkpt><trkpt lat="45.63744200280891" lon="10.606285898052166"><ele>75.0</ele><time>2026-04-06T10:10:28Z</time></trkpt><trkpt lat="45.63749332173033" lon="10.606357298566037"><ele>75.4</ele><time>2026-04-06T10:10:29Z</time></trkpt><trkpt lat="45.637561264721846" lon="10.606442557842907"><ele>75.8</ele><time>2026-04-06T10:10:30Z</time></trkpt><trkpt lat="45.637626634830426" lon="10.606541677704877"><ele>76.2</ele><time>2026-04-06T10:10:31Z</time></trkpt><trkpt lat="45.637690013398164" lon="10.606635261318031"><ele>76.6</ele><time>2026-04-06T10:10:32Z</time></trkpt><trkpt lat="45.637747537405836" lon="10.606722019873267"><ele>77.0</ele><time>2026-04-06T10:10:33Z</time></trkpt><trkpt lat="45.63782294502752" lon="10.606834558400319"><ele>77.5</ele><time>2026-04-06T10:10:34Z</time></trkpt><trkpt lat="45.637913601060816" lon="10.606958597499377"><ele>78.0</ele><time>2026-04-06T10:10:35Z</time></trkpt><trkpt lat="45.63800710637775" lon="10.607060483057856"><ele>78.5</ele><time>2026-04-06T10:10:36Z</time></trkpt><trkpt lat="45.63811107012056" lon="10.607157601431314"><ele>79.0</ele><time>2026-04-06T10:10:37Z</time></trkpt><trkpt lat="45.63824164527943" lon="10.607259070588569"><ele>79.0</ele><time>2026-04-06T10:10:38Z</time></trkpt><trkpt lat="45.63836442819424" lon="10.60733088841554"><ele>79.0</ele><time>2026-04-06T10:10:39Z</time></trkpt><trkpt lat="45.63846667640107" lon="10.60738370240271"><ele>79.0</ele><time>2026-04-06T10:10:40Z</time></trkpt><trkpt lat="45.63854082658456" lon="10.607420369577248"><ele>79.0</ele><time>2026-04-06T10:10:41Z</time></trkpt><trkpt lat="45.63862828180127" lon="10.607516093671933"><ele>79.0</ele><time>2026-04-06T10:10:43Z</time></trkpt><trkpt lat="45.638704037179394" lon="10.607624137007841"><ele>79.5</ele><time>2026-04-06T10:10:45Z</time></trkpt><trkpt lat="45.63878071874036" lon="10.607691004469823"><ele>80.0</ele><time>2026-04-06T10:10:47Z</time></trkpt><trkpt lat="45.63882567243843" lon="10.607801568823046"><ele>80.5</ele><time>2026-04-06T10:10:49Z</time></trkpt><trkpt lat="45.63887947331742" lon="10.607853659572914"><ele>81.0</ele><time>2026-04-06T10:11:29Z</time></trkpt><trkpt lat="45.63896813245477" lon="10.607830328371383"><ele>81.5</ele><time>2026-04-06T10:13:57Z</time></trkpt><trkpt lat="45.63905591723303" lon="10.607820153424832"><ele>82.0</ele><time>2026-04-06T10:14:01Z</time></trkpt><trkpt lat="45.63911860979431" lon="10.607774600065737"><ele>82.0</ele><time>2026-04-06T10:35:54Z</time></trkpt><trkpt lat="45.63925162575375" lon="10.607758509186347"><ele>82.0</ele><time>2026-04-06T10:36:09Z</time></trkpt><trkpt lat="45.639326489460835" lon="10.607816014405046"><ele>82.0</ele><time>2026-04-06T10:36:11Z</time></trkpt><trkpt lat="45.6394198692307" lon="10.607860325018507"><ele>82.0</ele><time>2026-04-06T10:36:13Z</time></trkpt><trkpt lat="45.639523086170534" lon="10.607906986374594"><ele>82.0</ele><time>2026-04-06T10:36:15Z</time></trkpt><trkpt lat="45.63961911064205" lon="10.607952714151008"><ele>82.39999999999999</ele><time>2026-04-06T10:36:17Z</time></trkpt><trkpt lat="45.63971694962241" lon="10.607992009405047"><ele>82.8</ele><time>2026-04-06T10:36:19Z</time></trkpt><trkpt lat="45.63983212765492" lon="10.608051189605757"><ele>83.2</ele><time>2026-04-06T10:36:21Z</time></trkpt><trkpt lat="45.639952218839426" lon="10.60811412751361"><ele>83.6</ele><time>2026-04-06T10:36:23Z</time></trkpt><trkpt lat="45.640015931029524" lon="10.608147516196023"><ele>84.0</ele><time>2026-04-06T10:36:24Z</time></trkpt><trkpt lat="45.64007927202539" lon="10.608186387561616"><ele>84.0</ele><time>2026-04-06T10:36:25Z</time></trkpt><trkpt lat="45.64014581250905" lon="10.608228050996031"><ele>84.0</ele><time>2026-04-06T10:36:26Z</time></trkpt><trkpt lat="45.640205769957" lon="10.608273726219105"><ele>84.0</ele><time>2026-04-06T10:36:27Z</time></trkpt><trkpt lat="45.64026727848022" lon="10.608322923876306"><ele>84.0</ele><time>2026-04-06T10:36:28Z</time></trkpt><trkpt lat="45.64032926294554" lon="10.608373183292633"><ele>84.0</ele><time>2026-04-06T10:36:29Z</time></trkpt><trkpt lat="45.64038749299481" lon="10.608429084733746"><ele>84.0</ele><time>2026-04-06T10:36:30Z</time></trkpt><trkpt lat="45.64044478114337" lon="10.60848762347986"><ele>84.0</ele><time>2026-04-06T10:36:31Z</time></trkpt><trkpt lat="45.64049981218925" lon="10.608548565996218"><ele>83.33333333333333</ele><time>2026-04-06T10:36:32Z</time></trkpt><trkpt lat="45.64055186866058" lon="10.608620063360503"><ele>82.66666666666667</ele><time>2026-04-06T10:36:32.999Z</time></trkpt><trkpt lat="45.64059556516849" lon="10.60869505818562"><ele>82.0</ele><time>2026-04-06T10:36:33.999Z</time></trkpt><trkpt lat="45.64062618251038" lon="10.608774335416612"><ele>81.33333333333334</ele><time>2026-04-06T10:36:34.999Z</time></trkpt><trkpt lat="45.64068828614753" lon="10.608917873309105"><ele>80.66666666666667</ele><time>2026-04-06T10:36:36.999Z</time></trkpt><trkpt lat="45.64074584392749" lon="10.60897075988673"><ele>80.0</ele><time>2026-04-06T10:36:37.999Z</time></trkpt><trkpt lat="45.64080401014051" lon="10.609034659392163"><ele>80.0</ele><time>2026-04-06T10:36:38.999Z</time></trkpt><trkpt lat="45.64084838185796" lon="10.609120049061346"><ele>80.0</ele><time>2026-04-06T10:36:39.999Z</time></trkpt><trkpt lat="45.640875040290126" lon="10.609218838622395"><ele>80.0</ele><time>2026-04-06T10:36:40.999Z</time></trkpt><trkpt lat="45.64090304570433" lon="10.609323896970663"><ele>80.0</ele><time>2026-04-06T10:36:41.999Z</time></trkpt><trkpt lat="45.64093923297515" lon="10.609424088045701"><ele>80.0</ele><time>2026-04-06T10:36:42.999Z</time></trkpt><trkpt lat="45.640970079098864" lon="10.609523042608842"><ele>80.0</ele><time>2026-04-06T10:36:43.999Z</time></trkpt><trkpt lat="45.64099330528406" lon="10.609628470371389"><ele>80.0</ele><time>2026-04-06T10:36:44.999Z</time></trkpt><trkpt lat="45.64101986071378" lon="10.609714542115633"><ele>80.0</ele><time>2026-04-06T10:36:45.999Z</time></trkpt><trkpt lat="45.641070880326716" lon="10.609840395102689"><ele>80.0</ele><time>2026-04-06T10:36:47.999Z</time></trkpt><trkpt lat="45.64118833407753" lon="10.610176313224922"><ele>80.0</ele><time>2026-04-06T10:36:49.999Z</time></trkpt><trkpt lat="45.64121618359546" lon="10.610287543870877"><ele>81.6</ele><time>2026-04-06T10:36:50.999Z</time></trkpt><trkpt lat="45.64124938421152" lon="10.610377502112424"><ele>83.2</ele><time>2026-04-06T10:36:51.999Z</time></trkpt><trkpt lat="45.641275081578804" lon="10.610500759968275"><ele>84.80000000000001</ele><time>2026-04-06T10:36:52.999Z</time></trkpt><trkpt lat="45.64131853966201" lon="10.610637450751998"><ele>86.4</ele><time>2026-04-06T10:36:53.999Z</time></trkpt><trkpt lat="45.6413659906507" lon="10.610783483245859"><ele>88.0</ele><time>2026-04-06T10:36:54.999Z</time></trkpt><trkpt lat="45.641416458670605" lon="10.610937583612435"><ele>88.0</ele><time>2026-04-06T10:36:56Z</time></trkpt><trkpt lat="45.64147030914751" lon="10.611101456467754"><ele>88.0</ele><time>2026-04-06T10:36:57Z</time></trkpt><trkpt lat="45.64154634879402" lon="10.611267338938994"><ele>88.0</ele><time>2026-04-06T10:36:58Z</time></trkpt><trkpt lat="45.641605133113515" lon="10.611445790225764"><ele>88.0</ele><time>2026-04-06T10:36:59Z</time></trkpt><trkpt lat="45.64166699425501" lon="10.611636015517936"><ele>86.66666666666666</ele><time>2026-04-06T10:37:00Z</time></trkpt><trkpt lat="45.641733426273525" lon="10.611828097314826"><ele>85.33333333333333</ele><time>2026-04-06T10:37:01Z</time></trkpt><trkpt lat="45.641779543216785" lon="10.612045946205244"><ele>84.0</ele><time>2026-04-06T10:37:02Z</time></trkpt><trkpt lat="45.641839150463454" lon="10.612228264873474"><ele>83.6</ele><time>2026-04-06T10:37:03Z</time></trkpt><trkpt lat="45.641903106209156" lon="10.612363539305726"><ele>83.2</ele><time>2026-04-06T10:37:04Z</time></trkpt><trkpt lat="45.64192463887268" lon="10.612486354897028"><ele>82.8</ele><time>2026-04-06T10:37:05Z</time></trkpt><trkpt lat="45.64197432091664" lon="10.61257533503432"><ele>82.39999999999999</ele><time>2026-04-06T10:37:06Z</time></trkpt><trkpt lat="45.64203478687642" lon="10.612738525164078"><ele>82.0</ele><time>2026-04-06T10:37:08Z</time></trkpt><trkpt lat="45.64207148337781" lon="10.612844539966652"><ele>82.0</ele><time>2026-04-06T10:37:09Z</time></trkpt><trkpt lat="45.64209978801805" lon="10.612951725132973"><ele>82.0</ele><time>2026-04-06T10:37:10Z</time></trkpt><trkpt lat="45.64210641662166" lon="10.613057724293862"><ele>82.0</ele><time>2026-04-06T10:37:11Z</time></trkpt><trkpt lat="45.64215191128243" lon="10.613138055730298"><ele>82.0</ele><time>2026-04-06T10:37:12Z</time></trkpt><trkpt lat="45.64216241450758" lon="10.613277000486027"><ele>82.0</ele><time>2026-04-06T10:37:14Z</time></trkpt><trkpt lat="45.6421411126636" lon="10.613419243298852"><ele>82.0</ele><time>2026-04-06T10:37:16Z</time></trkpt><trkpt lat="45.64209417422753" lon="10.61354844568565"><ele>81.66666666666666</ele><time>2026-04-06T10:37:18Z</time></trkpt><trkpt lat="45.6421427446296" lon="10.61368959161104"><ele>81.33333333333333</ele><time>2026-04-06T10:37:20Z</time></trkpt><trkpt lat="45.642201621016625" lon="10.613733372318885"><ele>81.0</ele><time>2026-04-06T10:37:21Z</time></trkpt><trkpt lat="45.642272439402774" lon="10.613754382959137"><ele>80.66666666666667</ele><time>2026-04-06T10:37:22Z</time></trkpt><trkpt lat="45.642341780679686" lon="10.61381116323077"><ele>80.33333333333334</ele><time>2026-04-06T10:37:23Z</time></trkpt><trkpt lat="45.64240303040109" lon="10.613908863052561"><ele>80.0</ele><time>2026-04-06T10:37:24Z</time></trkpt><trkpt lat="45.64246128670181" lon="10.614035733805206"><ele>80.0</ele><time>2026-04-06T10:37:25Z</time></trkpt><trkpt lat="45.642517144858495" lon="10.614189945048508"><ele>80.0</ele><time>2026-04-06T10:37:26Z</time></trkpt><trkpt lat="45.64258795555684" lon="10.614347977653388"><ele>80.0</ele><time>2026-04-06T10:37:27Z</time></trkpt><trkpt lat="45.64266958063063" lon="10.614498313916968"><ele>80.0</ele><time>2026-04-06T10:37:28Z</time></trkpt><trkpt lat="45.64274455601633" lon="10.614617127861955"><ele>80.25</ele><time>2026-04-06T10:37:29Z</time></trkpt><trkpt lat="45.64281713301748" lon="10.614725415457997"><ele>80.5</ele><time>2026-04-06T10:37:30Z</time></trkpt><trkpt lat="45.64289540825402" lon="10.61484038172423"><ele>80.75</ele><time>2026-04-06T10:37:31Z</time></trkpt><trkpt lat="45.64297974452437" lon="10.614959841397328"><ele>81.0</ele><time>2026-04-06T10:37:32Z</time></trkpt><trkpt lat="45.64306255951625" lon="10.615080463235076"><ele>81.0</ele><time>2026-04-06T10:37:33Z</time></trkpt><trkpt lat="45.643150174820136" lon="10.615203019829295"><ele>81.0</ele><time>2026-04-06T10:37:34Z</time></trkpt><trkpt lat="45.64324095659492" lon="10.615325581191545"><ele>81.0</ele><time>2026-04-06T10:37:35Z</time></trkpt><trkpt lat="45.64332808383742" lon="10.615449061486421"><ele>81.0</ele><time>2026-04-06T10:37:36Z</time></trkpt><trkpt lat="45.6434212881952" lon="10.615579415132881"><ele>81.25</ele><time>2026-04-06T10:37:37Z</time></trkpt><trkpt lat="45.643519006818416" lon="10.615716660773481"><ele>81.5</ele><time>2026-04-06T10:37:38Z</time></trkpt><trkpt lat="45.6436116215631" lon="10.615851006512319"><ele>81.75</ele><time>2026-04-06T10:37:39Z</time></trkpt><trkpt lat="45.64370756522203" lon="10.61598615500426"><ele>82.0</ele><time>2026-04-06T10:37:40Z</time></trkpt><trkpt lat="45.643798960221055" lon="10.61611318504877"><ele>81.8</ele><time>2026-04-06T10:37:41Z</time></trkpt><trkpt lat="45.6438833307774" lon="10.616230954297913"><ele>81.6</ele><time>2026-04-06T10:37:42Z</time></trkpt><trkpt lat="45.64395761124035" lon="10.616335331192658"><ele>81.39999999999999</ele><time>2026-04-06T10:37:43Z</time></trkpt><trkpt lat="45.644023926613734" lon="10.616429730417302"><ele>81.19999999999999</ele><time>2026-04-06T10:37:44Z</time></trkpt><trkpt lat="45.644087987865746" lon="10.616510569796903"><ele>81.0</ele><time>2026-04-06T10:37:45Z</time></trkpt><trkpt lat="45.64414475764893" lon="10.616575531867204"><ele>81.0</ele><time>2026-04-06T10:37:46Z</time></trkpt><trkpt lat="45.64419521798767" lon="10.616630470843194"><ele>81.0</ele><time>2026-04-06T10:37:47Z</time></trkpt><trkpt lat="45.64426943600734" lon="10.616731847777903"><ele>81.0</ele><time>2026-04-06T10:37:49Z</time></trkpt><trkpt lat="45.644329941290245" lon="10.616766204842726"><ele>81.0</ele><time>2026-04-06T10:37:50Z</time></trkpt><trkpt lat="45.64439513119009" lon="10.61683360573244"><ele>81.0</ele><time>2026-04-06T10:37:51Z</time></trkpt><trkpt lat="45.644466911691715" lon="10.616900070040149"><ele>81.0</ele><time>2026-04-06T10:37:52Z</time></trkpt><trkpt lat="45.644548463502154" lon="10.616964683707216"><ele>80.2</ele><time>2026-04-06T10:37:53Z</time></trkpt><trkpt lat="45.644642211864735" lon="10.617018721532968"><ele>79.39999999999999</ele><time>2026-04-06T10:37:54Z</time></trkpt><trkpt lat="45.64474448400868" lon="10.617059040264714"><ele>78.6</ele><time>2026-04-06T10:37:55Z</time></trkpt><trkpt lat="45.6448422774181" lon="10.617098410672565"><ele>77.8</ele><time>2026-04-06T10:37:56Z</time></trkpt><trkpt lat="45.64496418136016" lon="10.617142784126896"><ele>77.0</ele><time>2026-04-06T10:37:57Z</time></trkpt><trkpt lat="45.645090481363766" lon="10.617198942979076"><ele>77.0</ele><time>2026-04-06T10:37:58Z</time></trkpt><trkpt lat="45.64522027862558" lon="10.617241595345684"><ele>77.0</ele><time>2026-04-06T10:37:59Z</time></trkpt><trkpt lat="45.64534726369374" lon="10.617282514005952"><ele>77.0</ele><time>2026-04-06T10:38:00Z</time></trkpt><trkpt lat="45.64547129515385" lon="10.617337085589414"><ele>77.0</ele><time>2026-04-06T10:38:01Z</time></trkpt><trkpt lat="45.64558577663305" lon="10.617377834249195"><ele>79.33333333333334</ele><time>2026-04-06T10:38:02Z</time></trkpt><trkpt lat="45.64568226743063" lon="10.617417147163797"><ele>81.66666666666667</ele><time>2026-04-06T10:38:03Z</time></trkpt><trkpt lat="45.645768533905326" lon="10.617449382256176"><ele>84.0</ele><time>2026-04-06T10:38:04Z</time></trkpt><trkpt lat="45.64584186692794" lon="10.617484384710147"><ele>86.33333333333333</ele><time>2026-04-06T10:38:05Z</time></trkpt><trkpt lat="45.64591450785119" lon="10.617542566306401"><ele>88.66666666666666</ele><time>2026-04-06T10:38:06Z</time></trkpt><trkpt lat="45.64598723562705" lon="10.617637449687226"><ele>91.0</ele><time>2026-04-06T10:38:07Z</time></trkpt><trkpt lat="45.64605645126578" lon="10.617757136123146"><ele>87.5</ele><time>2026-04-06T10:38:08Z</time></trkpt><trkpt lat="45.64612166020918" lon="10.617913348488862"><ele>84.0</ele><time>2026-04-06T10:38:09Z</time></trkpt><trkpt lat="45.64619966392539" lon="10.618078404785939"><ele>80.5</ele><time>2026-04-06T10:38:10Z</time></trkpt><trkpt lat="45.64628042298279" lon="10.618248948798813"><ele>77.0</ele><time>2026-04-06T10:38:11Z</time></trkpt><trkpt lat="45.64637627513204" lon="10.618420633293153"><ele>78.66666666666667</ele><time>2026-04-06T10:38:12Z</time></trkpt><trkpt lat="45.64648475454239" lon="10.618589408196872"><ele>80.33333333333333</ele><time>2026-04-06T10:38:13Z</time></trkpt><trkpt lat="45.64659636760184" lon="10.618758723607556"><ele>82.0</ele><time>2026-04-06T10:38:14Z</time></trkpt><trkpt lat="45.646695220765366" lon="10.618919117541218"><ele>82.0</ele><time>2026-04-06T10:38:15Z</time></trkpt><trkpt lat="45.646790819135965" lon="10.619075473009547"><ele>82.0</ele><time>2026-04-06T10:38:16Z</time></trkpt><trkpt lat="45.64687846745619" lon="10.619245769387565"><ele>82.0</ele><time>2026-04-06T10:38:16.999Z</time></trkpt><trkpt lat="45.64695406367292" lon="10.619434284539905"><ele>82.0</ele><time>2026-04-06T10:38:17.999Z</time></trkpt><trkpt lat="45.64705359428347" lon="10.619647863712517"><ele>96.0</ele><time>2026-04-06T10:38:18.999Z</time></trkpt><trkpt lat="45.647180047033125" lon="10.619918609663332"><ele>110.0</ele><time>2026-04-06T10:38:19.999Z</time></trkpt><trkpt lat="45.64731188506133" lon="10.620240180828475"><ele>100.33333333333333</ele><time>2026-04-06T10:38:20.999Z</time></trkpt><trkpt lat="45.64742630844425" lon="10.620529682197173"><ele>90.66666666666666</ele><time>2026-04-06T10:38:21.999Z</time></trkpt><trkpt lat="45.64753432721279" lon="10.620756932963294"><ele>81.0</ele><time>2026-04-06T10:38:22.999Z</time></trkpt><trkpt lat="45.64763421336809" lon="10.620966770583962"><ele>77.0</ele><time>2026-04-06T10:38:23.999Z</time></trkpt><trkpt lat="45.6477437144647" lon="10.621178053619289"><ele>73.0</ele><time>2026-04-06T10:38:24.999Z</time></trkpt><trkpt lat="45.64785882798772" lon="10.621413524266375"><ele>69.0</ele><time>2026-04-06T10:38:25.999Z</time></trkpt><trkpt lat="45.64797117868321" lon="10.621664128911664"><ele>71.33333333333333</ele><time>2026-04-06T10:38:26.999Z</time></trkpt><trkpt lat="45.64809134651606" lon="10.621905179979244"><ele>73.66666666666666</ele><time>2026-04-06T10:38:27.999Z</time></trkpt><trkpt lat="45.64821994821908" lon="10.622116367177187"><ele>76.0</ele><time>2026-04-06T10:38:28.999Z</time></trkpt><trkpt lat="45.64837128064707" lon="10.622310280664903"><ele>76.0</ele><time>2026-04-06T10:38:29.999Z</time></trkpt><trkpt lat="45.64853206286069" lon="10.622508961943177"><ele>76.0</ele><time>2026-04-06T10:38:30.999Z</time></trkpt><trkpt lat="45.648691373187326" lon="10.622722019987815"><ele>76.0</ele><time>2026-04-06T10:38:31.999Z</time></trkpt><trkpt lat="45.64883329465668" lon="10.622964833825005"><ele>74.33333333333333</ele><time>2026-04-06T10:38:32.999Z</time></trkpt><trkpt lat="45.6489629094945" lon="10.623209775930974"><ele>72.66666666666667</ele><time>2026-04-06T10:38:33.999Z</time></trkpt><trkpt lat="45.64907872439468" lon="10.623461792636025"><ele>71.0</ele><time>2026-04-06T10:38:34.999Z</time></trkpt><trkpt lat="45.649179342480295" lon="10.623722374467382"><ele>71.0</ele><time>2026-04-06T10:38:35.999Z</time></trkpt><trkpt lat="45.64928034798426" lon="10.623986858825146"><ele>71.0</ele><time>2026-04-06T10:38:36.999Z</time></trkpt><trkpt lat="45.64939017128008" lon="10.624236680790725"><ele>71.0</ele><time>2026-04-06T10:38:37.999Z</time></trkpt><trkpt lat="45.64950794807819" lon="10.624467143066035"><ele>75.33333333333334</ele><time>2026-04-06T10:38:38.999Z</time></trkpt><trkpt lat="45.649636387214024" lon="10.62468753180862"><ele>79.66666666666667</ele><time>2026-04-06T10:38:39.999Z</time></trkpt><trkpt lat="45.64975994893489" lon="10.624916642200235"><ele>84.0</ele><time>2026-04-06T10:38:40.999Z</time></trkpt><trkpt lat="45.64987918693381" lon="10.62510846142544"><ele>84.0</ele><time>2026-04-06T10:38:41.999Z</time></trkpt><trkpt lat="45.65001501915457" lon="10.625277411245396"><ele>84.0</ele><time>2026-04-06T10:38:42.999Z</time></trkpt><trkpt lat="45.65015652962328" lon="10.625453467025453"><ele>84.0</ele><time>2026-04-06T10:38:43.999Z</time></trkpt><trkpt lat="45.650299740811846" lon="10.625637073134849"><ele>83.66666666666667</ele><time>2026-04-06T10:38:44.999Z</time></trkpt><trkpt lat="45.65043935817372" lon="10.625837738793788"><ele>83.33333333333334</ele><time>2026-04-06T10:38:45.999Z</time></trkpt><trkpt lat="45.650573711729585" lon="10.626060073353504"><ele>83.0</ele><time>2026-04-06T10:38:46.999Z</time></trkpt><trkpt lat="45.65070501215292" lon="10.626302145555345"><ele>83.0</ele><time>2026-04-06T10:38:47.999Z</time></trkpt><trkpt lat="45.65080757352758" lon="10.626521204885867"><ele>83.0</ele><time>2026-04-06T10:38:48.999Z</time></trkpt><trkpt lat="45.65091784855776" lon="10.626739679869582"><ele>83.0</ele><time>2026-04-06T10:38:49.999Z</time></trkpt><trkpt lat="45.651027706631005" lon="10.626945180752186"><ele>89.0</ele><time>2026-04-06T10:38:50.999Z</time></trkpt><trkpt lat="45.651136321821696" lon="10.627141688987974"><ele>95.0</ele><time>2026-04-06T10:38:51.999Z</time></trkpt><trkpt lat="45.65124974583863" lon="10.62732789485761"><ele>101.0</ele><time>2026-04-06T10:38:52.999Z</time></trkpt><trkpt lat="45.651369383991174" lon="10.62748653933815"><ele>101.0</ele><time>2026-04-06T10:38:53.999Z</time></trkpt><trkpt lat="45.65149636708944" lon="10.627631041171542"><ele>101.0</ele><time>2026-04-06T10:38:54.999Z</time></trkpt><trkpt lat="45.65163087085997" lon="10.627780348419142"><ele>101.0</ele><time>2026-04-06T10:38:55.999Z</time></trkpt><trkpt lat="45.65178304137258" lon="10.627934780196542"><ele>103.0</ele><time>2026-04-06T10:38:56.999Z</time></trkpt><trkpt lat="45.65193333969751" lon="10.628092185296925"><ele>105.0</ele><time>2026-04-06T10:38:57.999Z</time></trkpt><trkpt lat="45.65208494851496" lon="10.628239420849788"><ele>107.0</ele><time>2026-04-06T10:38:58.999Z</time></trkpt><trkpt lat="45.65223204227438" lon="10.628382191236275"><ele>107.0</ele><time>2026-04-06T10:38:59.999Z</time></trkpt><trkpt lat="45.65237489696462" lon="10.628494192053346"><ele>107.0</ele><time>2026-04-06T10:39:00.999Z</time></trkpt><trkpt lat="45.652512200847184" lon="10.628577100565852"><ele>107.0</ele><time>2026-04-06T10:39:01.999Z</time></trkpt><trkpt lat="45.6526401137536" lon="10.62866402929779"><ele>106.25</ele><time>2026-04-06T10:39:02.999Z</time></trkpt><trkpt lat="45.65275893363071" lon="10.628748069278465"><ele>105.5</ele><time>2026-04-06T10:39:03.999Z</time></trkpt><trkpt lat="45.652845271865914" lon="10.628881520477414"><ele>104.75</ele><time>2026-04-06T10:39:04.999Z</time></trkpt><trkpt lat="45.652923177440734" lon="10.629002557305295"><ele>104.0</ele><time>2026-04-06T10:39:05.999Z</time></trkpt><trkpt lat="45.65301878167448" lon="10.629138667439818"><ele>104.0</ele><time>2026-04-06T10:39:06.999Z</time></trkpt><trkpt lat="45.65311001961482" lon="10.629303621377879"><ele>104.0</ele><time>2026-04-06T10:39:07.999Z</time></trkpt><trkpt lat="45.653214578487514" lon="10.629471689686996"><ele>104.0</ele><time>2026-04-06T10:39:08.999Z</time></trkpt><trkpt lat="45.6533107772461" lon="10.629653947421941"><ele>98.33333333333333</ele><time>2026-04-06T10:39:09.999Z</time></trkpt><trkpt lat="45.65340600597646" lon="10.629829726584646"><ele>92.66666666666666</ele><time>2026-04-06T10:39:10.999Z</time></trkpt><trkpt lat="45.653487508381914" lon="10.63002066975485"><ele>87.0</ele><time>2026-04-06T10:39:11.999Z</time></trkpt><trkpt lat="45.65358462287027" lon="10.630205176342685"><ele>90.66666666666666</ele><time>2026-04-06T10:39:12.999Z</time></trkpt><trkpt lat="45.6536818123594" lon="10.630389388018774"><ele>94.33333333333333</ele><time>2026-04-06T10:39:13.999Z</time></trkpt><trkpt lat="45.653781041176046" lon="10.630590683197994"><ele>98.0</ele><time>2026-04-06T10:39:14.999Z</time></trkpt><trkpt lat="45.65388176032473" lon="10.630809633465814"><ele>98.0</ele><time>2026-04-06T10:39:15.999Z</time></trkpt><trkpt lat="45.65397836154661" lon="10.631040583265849"><ele>98.0</ele><time>2026-04-06T10:39:16.999Z</time></trkpt><trkpt lat="45.65406459450006" lon="10.631250394965361"><ele>98.0</ele><time>2026-04-06T10:39:17.999Z</time></trkpt><trkpt lat="45.65415244296549" lon="10.631467972938957"><ele>93.0</ele><time>2026-04-06T10:39:18.999Z</time></trkpt><trkpt lat="45.65423804335991" lon="10.631682351438158"><ele>88.0</ele><time>2026-04-06T10:39:19.999Z</time></trkpt><trkpt lat="45.65431905797354" lon="10.631886630462537"><ele>83.0</ele><time>2026-04-06T10:39:20.999Z</time></trkpt><trkpt lat="45.65439672142663" lon="10.632083948242972"><ele>88.0</ele><time>2026-04-06T10:39:21.999Z</time></trkpt><trkpt lat="45.65446788348037" lon="10.632291494849275"><ele>93.0</ele><time>2026-04-06T10:39:22.999Z</time></trkpt><trkpt lat="45.65453902104378" lon="10.632507980551132"><ele>98.0</ele><time>2026-04-06T10:39:23.999Z</time></trkpt><trkpt lat="45.654628099362284" lon="10.63272026086637"><ele>94.0</ele><time>2026-04-06T10:39:24.999Z</time></trkpt><trkpt lat="45.65473671937715" lon="10.632907904691093"><ele>90.0</ele><time>2026-04-06T10:39:25.999Z</time></trkpt><trkpt lat="45.6548494760542" lon="10.633082747174452"><ele>86.0</ele><time>2026-04-06T10:39:26.999Z</time></trkpt><trkpt lat="45.65495466297051" lon="10.633244978033023"><ele>86.0</ele><time>2026-04-06T10:39:27.999Z</time></trkpt><trkpt lat="45.655049324056506" lon="10.633394352613937"><ele>86.0</ele><time>2026-04-06T10:39:28.999Z</time></trkpt><trkpt lat="45.655138581502385" lon="10.633535200250531"><ele>86.0</ele><time>2026-04-06T10:39:29.999Z</time></trkpt><trkpt lat="45.65522630139563" lon="10.63366919530634"><ele>86.0</ele><time>2026-04-06T10:39:30.999Z</time></trkpt><trkpt lat="45.6553134694553" lon="10.633798757247119"><ele>88.75</ele><time>2026-04-06T10:39:31.999Z</time></trkpt><trkpt lat="45.655403293185074" lon="10.633925702373078"><ele>91.5</ele><time>2026-04-06T10:39:32.999Z</time></trkpt><trkpt lat="45.6554900855082" lon="10.6340434676187"><ele>94.25</ele><time>2026-04-06T10:39:33.999Z</time></trkpt><trkpt lat="45.65555861523764" lon="10.6341571915102"><ele>97.0</ele><time>2026-04-06T10:39:34.999Z</time></trkpt><trkpt lat="45.65562021569851" lon="10.634280544201872"><ele>97.0</ele><time>2026-04-06T10:39:35.999Z</time></trkpt><trkpt lat="45.65569659267898" lon="10.634409572430375"><ele>97.0</ele><time>2026-04-06T10:39:36.999Z</time></trkpt><trkpt lat="45.655765667705" lon="10.634560068125365"><ele>97.0</ele><time>2026-04-06T10:39:37.999Z</time></trkpt><trkpt lat="45.65583855947556" lon="10.634719323600141"><ele>97.0</ele><time>2026-04-06T10:39:38.999Z</time></trkpt><trkpt lat="45.65593685927176" lon="10.634858589573449"><ele>96.0</ele><time>2026-04-06T10:39:39.999Z</time></trkpt><trkpt lat="45.65603762339702" lon="10.635012155875023"><ele>95.0</ele><time>2026-04-06T10:39:40.999Z</time></trkpt><trkpt lat="45.656163576577384" lon="10.635155066658674"><ele>94.0</ele><time>2026-04-06T10:39:41.999Z</time></trkpt><trkpt lat="45.65627855096128" lon="10.63529670476234"><ele>92.5</ele><time>2026-04-06T10:39:42.999Z</time></trkpt><trkpt lat="45.65638667413239" lon="10.635443405234733"><ele>91.0</ele><time>2026-04-06T10:39:43.999Z</time></trkpt><trkpt lat="45.65650193134608" lon="10.635551216274493"><ele>89.5</ele><time>2026-04-06T10:39:44.999Z</time></trkpt><trkpt lat="45.65661275955618" lon="10.635655168074257"><ele>88.0</ele><time>2026-04-06T10:39:45.999Z</time></trkpt><trkpt lat="45.65672735279949" lon="10.635761987010897"><ele>88.0</ele><time>2026-04-06T10:39:46.999Z</time></trkpt><trkpt lat="45.656846070078124" lon="10.635863301728099"><ele>88.0</ele><time>2026-04-06T10:39:47.999Z</time></trkpt><trkpt lat="45.65696383720146" lon="10.635959087033365"><ele>88.0</ele><time>2026-04-06T10:39:48.999Z</time></trkpt><trkpt lat="45.65708484225883" lon="10.636057834337832"><ele>88.0</ele><time>2026-04-06T10:39:49.999Z</time></trkpt><trkpt lat="45.657221818634454" lon="10.636171039365717"><ele>84.66666666666666</ele><time>2026-04-06T10:39:50.999Z</time></trkpt><trkpt lat="45.657346876970614" lon="10.636353158783615"><ele>81.33333333333333</ele><time>2026-04-06T10:39:51.999Z</time></trkpt><trkpt lat="45.65745685842999" lon="10.636524826728389"><ele>78.0</ele><time>2026-04-06T10:39:52.999Z</time></trkpt><trkpt lat="45.65759617819697" lon="10.636720831404531"><ele>78.0</ele><time>2026-04-06T10:39:53.999Z</time></trkpt><trkpt lat="45.65774261550157" lon="10.636921752272878"><ele>78.0</ele><time>2026-04-06T10:39:54.999Z</time></trkpt><trkpt lat="45.65787727634956" lon="10.637109449485779"><ele>78.0</ele><time>2026-04-06T10:39:55.999Z</time></trkpt><trkpt lat="45.65800802028823" lon="10.637264103567276"><ele>81.33333333333333</ele><time>2026-04-06T10:39:56.999Z</time></trkpt><trkpt lat="45.65812988668991" lon="10.637411314270217"><ele>84.66666666666666</ele><time>2026-04-06T10:39:57.999Z</time></trkpt><trkpt lat="45.658275198094834" lon="10.637563128434074"><ele>88.0</ele><time>2026-04-06T10:39:58.999Z</time></trkpt><trkpt lat="45.658411240056616" lon="10.637743734450348"><ele>89.66666666666666</ele><time>2026-04-06T10:39:59.999Z</time></trkpt><trkpt lat="45.658539192425884" lon="10.637949670792269"><ele>91.33333333333333</ele><time>2026-04-06T10:40:00.999Z</time></trkpt><trkpt lat="45.658679811336356" lon="10.638172430468067"><ele>93.0</ele><time>2026-04-06T10:40:01.999Z</time></trkpt><trkpt lat="45.65884151027812" lon="10.63835510704342"><ele>93.0</ele><time>2026-04-06T10:40:02.999Z</time></trkpt><trkpt lat="45.65898329291309" lon="10.63851956084083"><ele>93.0</ele><time>2026-04-06T10:40:03.999Z</time></trkpt><trkpt lat="45.65911101196432" lon="10.638657415661728"><ele>93.0</ele><time>2026-04-06T10:40:04.999Z</time></trkpt><trkpt lat="45.659217422764385" lon="10.638787031617172"><ele>90.5</ele><time>2026-04-06T10:40:05.999Z</time></trkpt><trkpt lat="45.659318044460264" lon="10.6389011554877"><ele>88.0</ele><time>2026-04-06T10:40:06.999Z</time></trkpt><trkpt lat="45.65938345032264" lon="10.639049482922147"><ele>85.5</ele><time>2026-04-06T10:40:07.999Z</time></trkpt><trkpt lat="45.65942179376395" lon="10.639198294462433"><ele>83.0</ele><time>2026-04-06T10:40:08.999Z</time></trkpt><trkpt lat="45.6594680983404" lon="10.639367081802087"><ele>84.66666666666667</ele><time>2026-04-06T10:40:09.999Z</time></trkpt><trkpt lat="45.65954208145634" lon="10.639559100929514"><ele>86.33333333333333</ele><time>2026-04-06T10:40:10.999Z</time></trkpt><trkpt lat="45.65965564447921" lon="10.63975756676768"><ele>88.0</ele><time>2026-04-06T10:40:11.999Z</time></trkpt><trkpt lat="45.6597841913199" lon="10.639972430571927"><ele>88.0</ele><time>2026-04-06T10:40:12.999Z</time></trkpt><trkpt lat="45.65992973012275" lon="10.64021373206826"><ele>88.0</ele><time>2026-04-06T10:40:13.999Z</time></trkpt><trkpt lat="45.66008120343611" lon="10.640464873006115"><ele>93.5</ele><time>2026-04-06T10:40:14.999Z</time></trkpt><trkpt lat="45.66023861653368" lon="10.640725871844042"><ele>99.0</ele><time>2026-04-06T10:40:15.999Z</time></trkpt><trkpt lat="45.660397503031405" lon="10.640986063978769"><ele>93.66666666666667</ele><time>2026-04-06T10:40:16.999Z</time></trkpt><trkpt lat="45.660546260977256" lon="10.64120059130048"><ele>88.33333333333334</ele><time>2026-04-06T10:40:17.999Z</time></trkpt><trkpt lat="45.66069228077936" lon="10.641409407974638"><ele>83.0</ele><time>2026-04-06T10:40:18.999Z</time></trkpt><trkpt lat="45.66081965409305" lon="10.641595936456827"><ele>83.0</ele><time>2026-04-06T10:40:19.999Z</time></trkpt><trkpt lat="45.66093281896022" lon="10.641767539055511"><ele>83.0</ele><time>2026-04-06T10:40:20.999Z</time></trkpt><trkpt lat="45.661033795355856" lon="10.641938696937816"><ele>83.0</ele><time>2026-04-06T10:40:21.999Z</time></trkpt><trkpt lat="45.66115000033508" lon="10.64212082388493"><ele>85.33333333333334</ele><time>2026-04-06T10:40:22.999Z</time></trkpt><trkpt lat="45.661292938388705" lon="10.64228111825198"><ele>87.66666666666667</ele><time>2026-04-06T10:40:23.999Z</time></trkpt><trkpt lat="45.66144255416801" lon="10.64244613324628"><ele>90.0</ele><time>2026-04-06T10:40:24.999Z</time></trkpt><trkpt lat="45.66159759946751" lon="10.642645229438429"><ele>93.5</ele><time>2026-04-06T10:40:25.999Z</time></trkpt><trkpt lat="45.661784812900926" lon="10.642852988313223"><ele>97.0</ele><time>2026-04-06T10:40:26.999Z</time></trkpt><trkpt lat="45.66198581574016" lon="10.643059283613784"><ele>97.0</ele><time>2026-04-06T10:40:27.999Z</time></trkpt><trkpt lat="45.66218165370599" lon="10.64328873854988"><ele>97.0</ele><time>2026-04-06T10:40:28.999Z</time></trkpt><trkpt lat="45.66238691484776" lon="10.643517287540815"><ele>102.5</ele><time>2026-04-06T10:40:29.999Z</time></trkpt><trkpt lat="45.662603636004626" lon="10.643754847447155"><ele>108.0</ele><time>2026-04-06T10:40:30.999Z</time></trkpt><trkpt lat="45.66281178876331" lon="10.64399612167797"><ele>108.0</ele><time>2026-04-06T10:40:31.999Z</time></trkpt><trkpt lat="45.662988770176455" lon="10.644220157959195"><ele>108.0</ele><time>2026-04-06T10:40:32.999Z</time></trkpt><trkpt lat="45.66315009788058" lon="10.644437000906763"><ele>93.5</ele><time>2026-04-06T10:40:33.999Z</time></trkpt><trkpt lat="45.663326289614204" lon="10.644644709839993"><ele>79.0</ele><time>2026-04-06T10:40:34.999Z</time></trkpt><trkpt lat="45.66350953922274" lon="10.644833847809121"><ele>92.0</ele><time>2026-04-06T10:40:35.999Z</time></trkpt><trkpt lat="45.663711393450605" lon="10.644999731742132"><ele>105.0</ele><time>2026-04-06T10:40:36.999Z</time></trkpt><trkpt lat="45.66392971681709" lon="10.645139494261667"><ele>105.0</ele><time>2026-04-06T10:40:37.999Z</time></trkpt><trkpt lat="45.664134078846324" lon="10.645236046526515"><ele>105.0</ele><time>2026-04-06T10:40:38.999Z</time></trkpt><trkpt lat="45.664321674559204" lon="10.645304320493455"><ele>105.0</ele><time>2026-04-06T10:40:39.999Z</time></trkpt><trkpt lat="45.664484223839466" lon="10.645411384097732"><ele>102.33333333333334</ele><time>2026-04-06T10:40:40.999Z</time></trkpt><trkpt lat="45.664639423296435" lon="10.645577096451442"><ele>99.66666666666667</ele><time>2026-04-06T10:40:41.999Z</time></trkpt><trkpt lat="45.66479371231093" lon="10.645795088514188"><ele>97.0</ele><time>2026-04-06T10:40:42.999Z</time></trkpt><trkpt lat="45.664951653234766" lon="10.646029343170412"><ele>87.5</ele><time>2026-04-06T10:40:43.999Z</time></trkpt><trkpt lat="45.665088850887734" lon="10.646311918323228"><ele>78.0</ele><time>2026-04-06T10:40:44.999Z</time></trkpt><trkpt lat="45.66522808921679" lon="10.646592067635217"><ele>81.0</ele><time>2026-04-06T10:40:45.999Z</time></trkpt><trkpt lat="45.66537652694953" lon="10.646851865914325"><ele>84.0</ele><time>2026-04-06T10:40:46.999Z</time></trkpt><trkpt lat="45.66555988256117" lon="10.647070979432248"><ele>84.0</ele><time>2026-04-06T10:40:47.999Z</time></trkpt><trkpt lat="45.66577104335603" lon="10.647261004675885"><ele>84.0</ele><time>2026-04-06T10:40:48.999Z</time></trkpt><trkpt lat="45.66600124416403" lon="10.647446342611909"><ele>83.5</ele><time>2026-04-06T10:40:49.999Z</time></trkpt><trkpt lat="45.66622778463058" lon="10.647632613353661"><ele>83.0</ele><time>2026-04-06T10:40:50.999Z</time></trkpt><trkpt lat="45.666445312004825" lon="10.647823200568764"><ele>83.0</ele><time>2026-04-06T10:40:51.999Z</time></trkpt><trkpt lat="45.66665838388203" lon="10.647966892355912"><ele>83.0</ele><time>2026-04-06T10:40:52.999Z</time></trkpt><trkpt lat="45.66687705709302" lon="10.648058514376308"><ele>81.33333333333334</ele><time>2026-04-06T10:40:53.999Z</time></trkpt><trkpt lat="45.66705826467907" lon="10.648222519047545"><ele>79.66666666666667</ele><time>2026-04-06T10:40:54.999Z</time></trkpt><trkpt lat="45.667215009307604" lon="10.64844257489499"><ele>78.0</ele><time>2026-04-06T10:40:55.999Z</time></trkpt><trkpt lat="45.6673828766093" lon="10.648675950945773"><ele>78.0</ele><time>2026-04-06T10:40:56.999Z</time></trkpt><trkpt lat="45.667554117810624" lon="10.648896938798009"><ele>78.0</ele><time>2026-04-06T10:40:57.999Z</time></trkpt><trkpt lat="45.66770602182921" lon="10.649086655553933"><ele>78.0</ele><time>2026-04-06T10:40:58.999Z</time></trkpt><trkpt lat="45.66785057992599" lon="10.64925381302017"><ele>76.0</ele><time>2026-04-06T10:40:59.999Z</time></trkpt><trkpt lat="45.66800471001609" lon="10.649403016996176"><ele>74.0</ele><time>2026-04-06T10:41:00.999Z</time></trkpt><trkpt lat="45.668158874190794" lon="10.64957280870501"><ele>72.0</ele><time>2026-04-06T10:41:01.999Z</time></trkpt><trkpt lat="45.6684131947661" lon="10.649568915441558"><ele>72.0</ele><time>2026-04-06T10:41:02.999Z</time></trkpt><trkpt lat="45.668591448141036" lon="10.649660949312029"><ele>72.0</ele><time>2026-04-06T10:41:03.999Z</time></trkpt><trkpt lat="45.6687420217959" lon="10.649741516794615"><ele>72.0</ele><time>2026-04-06T10:41:04.999Z</time></trkpt><trkpt lat="45.66887786326273" lon="10.649821436924347"><ele>73.5</ele><time>2026-04-06T10:41:05.999Z</time></trkpt><trkpt lat="45.669015196966534" lon="10.649891449796735"><ele>75.0</ele><time>2026-04-06T10:41:06.999Z</time></trkpt><trkpt lat="45.669157203254414" lon="10.649968287571998"><ele>76.5</ele><time>2026-04-06T10:41:07.999Z</time></trkpt><trkpt lat="45.66929749479618" lon="10.650041005977222"><ele>78.0</ele><time>2026-04-06T10:41:08.999Z</time></trkpt><trkpt lat="45.669440476727345" lon="10.650117703336027"><ele>78.33333333333333</ele><time>2026-04-06T10:41:09.999Z</time></trkpt><trkpt lat="45.66958277134988" lon="10.650194709858344"><ele>78.66666666666666</ele><time>2026-04-06T10:41:10.999Z</time></trkpt><trkpt lat="45.669729599357375" lon="10.650277257315755"><ele>79.0</ele><time>2026-04-06T10:41:11.999Z</time></trkpt><trkpt lat="45.66987629949497" lon="10.650361874792804"><ele>79.0</ele><time>2026-04-06T10:41:12.999Z</time></trkpt><trkpt lat="45.67002538054876" lon="10.650463881087145"><ele>79.0</ele><time>2026-04-06T10:41:13.999Z</time></trkpt><trkpt lat="45.670173673844985" lon="10.650629233393271"><ele>79.0</ele><time>2026-04-06T10:41:14.999Z</time></trkpt><trkpt lat="45.67032016844408" lon="10.650812755421502"><ele>78.0</ele><time>2026-04-06T10:41:15.999Z</time></trkpt><trkpt lat="45.67045693239662" lon="10.65102017320459"><ele>77.0</ele><time>2026-04-06T10:41:16.999Z</time></trkpt><trkpt lat="45.67061377630583" lon="10.651208394257074"><ele>76.0</ele><time>2026-04-06T10:41:17.999Z</time></trkpt><trkpt lat="45.670789618398544" lon="10.651359694955325"><ele>76.0</ele><time>2026-04-06T10:41:18.999Z</time></trkpt><trkpt lat="45.67099823816052" lon="10.651460949700486"><ele>76.0</ele><time>2026-04-06T10:41:19.999Z</time></trkpt><trkpt lat="45.67122917626757" lon="10.651529471990045"><ele>76.5</ele><time>2026-04-06T10:41:20.999Z</time></trkpt><trkpt lat="45.67147155830545" lon="10.65157864548156"><ele>77.0</ele><time>2026-04-06T10:41:21.999Z</time></trkpt><trkpt lat="45.67171636661154" lon="10.651589726244199"><ele>75.5</ele><time>2026-04-06T10:41:22.999Z</time></trkpt><trkpt lat="45.67195455855044" lon="10.651550056201938"><ele>74.0</ele><time>2026-04-06T10:41:23.999Z</time></trkpt><trkpt lat="45.6721726506708" lon="10.651472738286452"><ele>74.0</ele><time>2026-04-06T10:41:24.999Z</time></trkpt><trkpt lat="45.67236950714785" lon="10.651373839708457"><ele>74.0</ele><time>2026-04-06T10:41:25.999Z</time></trkpt><trkpt lat="45.67254429335959" lon="10.651270258261663"><ele>74.0</ele><time>2026-04-06T10:41:26.999Z</time></trkpt><trkpt lat="45.672722851483414" lon="10.651180569506655"><ele>74.66666666666667</ele><time>2026-04-06T10:41:27.999Z</time></trkpt><trkpt lat="45.67290016180349" lon="10.651083319582565"><ele>75.33333333333333</ele><time>2026-04-06T10:41:28.999Z</time></trkpt><trkpt lat="45.67308262629452" lon="10.65097761179538"><ele>76.0</ele><time>2026-04-06T10:41:29.999Z</time></trkpt><trkpt lat="45.67327045185601" lon="10.650873040545017"><ele>76.0</ele><time>2026-04-06T10:41:30.999Z</time></trkpt><trkpt lat="45.673445700851744" lon="10.650780096427047"><ele>76.0</ele><time>2026-04-06T10:41:31.999Z</time></trkpt><trkpt lat="45.673604519896635" lon="10.650695989633629"><ele>76.0</ele><time>2026-04-06T10:41:32.999Z</time></trkpt><trkpt lat="45.673743471129114" lon="10.65062239687994"><ele>75.75</ele><time>2026-04-06T10:41:33.999Z</time></trkpt><trkpt lat="45.673873457543465" lon="10.650552244231301"><ele>75.5</ele><time>2026-04-06T10:41:34.999Z</time></trkpt><trkpt lat="45.67399304419474" lon="10.650493550946402"><ele>75.25</ele><time>2026-04-06T10:41:35.999Z</time></trkpt><trkpt lat="45.67409892148792" lon="10.650444756906916"><ele>75.0</ele><time>2026-04-06T10:41:36.999Z</time></trkpt><trkpt lat="45.674194571491306" lon="10.650414415154938"><ele>75.0</ele><time>2026-04-06T10:41:37.999Z</time></trkpt><trkpt lat="45.674282953332735" lon="10.65041075819444"><ele>75.0</ele><time>2026-04-06T10:41:38.999Z</time></trkpt><trkpt lat="45.67438239076289" lon="10.650439372720594"><ele>75.0</ele><time>2026-04-06T10:41:39.999Z</time></trkpt><trkpt lat="45.67452404222517" lon="10.650456115828812"><ele>75.0</ele><time>2026-04-06T10:41:40.999Z</time></trkpt><trkpt lat="45.67466745400994" lon="10.65045117416434"><ele>76.0</ele><time>2026-04-06T10:41:41.999Z</time></trkpt><trkpt lat="45.67481106067924" lon="10.650503672152437"><ele>77.0</ele><time>2026-04-06T10:41:42.999Z</time></trkpt><trkpt lat="45.674953072539175" lon="10.650590627420506"><ele>78.0</ele><time>2026-04-06T10:41:43.999Z</time></trkpt><trkpt lat="45.67510295804364" lon="10.650723569197067"><ele>78.0</ele><time>2026-04-06T10:41:44.999Z</time></trkpt><trkpt lat="45.67526568406864" lon="10.650903984405238"><ele>78.0</ele><time>2026-04-06T10:41:45.999Z</time></trkpt><trkpt lat="45.67541791213685" lon="10.651110314224221"><ele>78.0</ele><time>2026-04-06T10:41:46.999Z</time></trkpt><trkpt lat="45.67558143123627" lon="10.651325268719289"><ele>77.33333333333333</ele><time>2026-04-06T10:41:47.999Z</time></trkpt><trkpt lat="45.67575091999459" lon="10.651540848482021"><ele>76.66666666666666</ele><time>2026-04-06T10:41:48.999Z</time></trkpt><trkpt lat="45.67591359609453" lon="10.651751434827139"><ele>76.0</ele><time>2026-04-06T10:41:49.999Z</time></trkpt><trkpt lat="45.676073644504406" lon="10.651949670963267"><ele>75.33333333333333</ele><time>2026-04-06T10:41:50.999Z</time></trkpt><trkpt lat="45.67622878584879" lon="10.652133853373218"><ele>74.66666666666667</ele><time>2026-04-06T10:41:51.999Z</time></trkpt><trkpt lat="45.676370738569844" lon="10.652312804819152"><ele>74.0</ele><time>2026-04-06T10:41:52.999Z</time></trkpt><trkpt lat="45.676507822212756" lon="10.652479517719785"><ele>74.0</ele><time>2026-04-06T10:41:53.999Z</time></trkpt><trkpt lat="45.676648586561235" lon="10.652640507367817"><ele>74.0</ele><time>2026-04-06T10:41:54.999Z</time></trkpt><trkpt lat="45.676813641070176" lon="10.652789311355475"><ele>74.0</ele><time>2026-04-06T10:41:55.999Z</time></trkpt><trkpt lat="45.67699454723232" lon="10.652917109438555"><ele>72.66666666666667</ele><time>2026-04-06T10:41:56.999Z</time></trkpt><trkpt lat="45.67717921939259" lon="10.65303153816187"><ele>71.33333333333333</ele><time>2026-04-06T10:41:57.999Z</time></trkpt><trkpt lat="45.67735014304734" lon="10.65316392713069"><ele>70.0</ele><time>2026-04-06T10:41:58.999Z</time></trkpt><trkpt lat="45.67750616808344" lon="10.653287383920665"><ele>70.0</ele><time>2026-04-06T10:41:59.999Z</time></trkpt><trkpt lat="45.677644346671684" lon="10.653375620016948"><ele>70.0</ele><time>2026-04-06T10:42:00.999Z</time></trkpt><trkpt lat="45.67779822000142" lon="10.653472695817527"><ele>70.0</ele><time>2026-04-06T10:42:01.999Z</time></trkpt><trkpt lat="45.67792551108569" lon="10.653553576576485"><ele>70.5</ele><time>2026-04-06T10:42:02.999Z</time></trkpt><trkpt lat="45.678047953485205" lon="10.653619684394503"><ele>71.0</ele><time>2026-04-06T10:42:03.999Z</time></trkpt><trkpt lat="45.6781871705768" lon="10.653676795765818"><ele>71.5</ele><time>2026-04-06T10:42:04.999Z</time></trkpt><trkpt lat="45.67833451774429" lon="10.653724033446078"><ele>72.0</ele><time>2026-04-06T10:42:05.999Z</time></trkpt><trkpt lat="45.67849232588651" lon="10.653760839036273"><ele>70.33333333333333</ele><time>2026-04-06T10:42:06.999Z</time></trkpt><trkpt lat="45.67864387620634" lon="10.653797098705558"><ele>68.66666666666666</ele><time>2026-04-06T10:42:07.999Z</time></trkpt><trkpt lat="45.67880119930877" lon="10.653818632177131"><ele>67.0</ele><time>2026-04-06T10:42:08.999Z</time></trkpt><trkpt lat="45.678944980598054" lon="10.653852861159068"><ele>67.0</ele><time>2026-04-06T10:42:09.999Z</time></trkpt><trkpt lat="45.67908233899325" lon="10.65388148766391"><ele>67.0</ele><time>2026-04-06T10:42:10.999Z</time></trkpt><trkpt lat="45.67922564157877" lon="10.65391959285733"><ele>67.0</ele><time>2026-04-06T10:42:11.999Z</time></trkpt><trkpt lat="45.6793691647568" lon="10.653955346922523"><ele>67.0</ele><time>2026-04-06T10:42:12.999Z</time></trkpt><trkpt lat="45.679506312957564" lon="10.653979676326394"><ele>67.75</ele><time>2026-04-06T10:42:13.999Z</time></trkpt><trkpt lat="45.6796272479242" lon="10.654006234059969"><ele>68.5</ele><time>2026-04-06T10:42:14.999Z</time></trkpt><trkpt lat="45.67976601817743" lon="10.654027327899078"><ele>69.25</ele><time>2026-04-06T10:42:15.999Z</time></trkpt><trkpt lat="45.67990536971313" lon="10.654055879939612"><ele>70.0</ele><time>2026-04-06T10:42:17Z</time></trkpt><trkpt lat="45.68005200171213" lon="10.654090057956113"><ele>70.0</ele><time>2026-04-06T10:42:18Z</time></trkpt><trkpt lat="45.680211693612364" lon="10.65412797077121"><ele>70.0</ele><time>2026-04-06T10:42:19Z</time></trkpt><trkpt lat="45.68038035353295" lon="10.654162349770152"><ele>70.0</ele><time>2026-04-06T10:42:20Z</time></trkpt><trkpt lat="45.68053577228843" lon="10.654202108813179"><ele>71.25</ele><time>2026-04-06T10:42:21Z</time></trkpt><trkpt lat="45.6806802445562" lon="10.65423862176495"><ele>72.5</ele><time>2026-04-06T10:42:22Z</time></trkpt><trkpt lat="45.680827430595684" lon="10.654273431344427"><ele>73.75</ele><time>2026-04-06T10:42:23Z</time></trkpt><trkpt lat="45.68097525503802" lon="10.654316172036573"><ele>75.0</ele><time>2026-04-06T10:42:24Z</time></trkpt><trkpt lat="45.68111301876377" lon="10.6543820154068"><ele>74.66666666666667</ele><time>2026-04-06T10:42:25Z</time></trkpt><trkpt lat="45.68125847858574" lon="10.654457727437109"><ele>74.33333333333334</ele><time>2026-04-06T10:42:26Z</time></trkpt><trkpt lat="45.681405926726526" lon="10.654543619519004"><ele>74.0</ele><time>2026-04-06T10:42:27Z</time></trkpt><trkpt lat="45.68154365722706" lon="10.654649332335971"><ele>74.0</ele><time>2026-04-06T10:42:28Z</time></trkpt><trkpt lat="45.681675316615824" lon="10.654767805558148"><ele>74.0</ele><time>2026-04-06T10:42:29Z</time></trkpt><trkpt lat="45.68180535394099" lon="10.654897840368225"><ele>74.0</ele><time>2026-04-06T10:42:30Z</time></trkpt><trkpt lat="45.681928935515444" lon="10.655038497549029"><ele>75.66666666666667</ele><time>2026-04-06T10:42:31Z</time></trkpt><trkpt lat="45.68203710157084" lon="10.655198592729192"><ele>77.33333333333333</ele><time>2026-04-06T10:42:32Z</time></trkpt><trkpt lat="45.68214630901179" lon="10.655351683085062"><ele>79.0</ele><time>2026-04-06T10:42:33Z</time></trkpt><trkpt lat="45.682258125639606" lon="10.655502160674885"><ele>79.0</ele><time>2026-04-06T10:42:34Z</time></trkpt><trkpt lat="45.68235769417321" lon="10.655673176896324"><ele>79.0</ele><time>2026-04-06T10:42:35Z</time></trkpt><trkpt lat="45.68245671359847" lon="10.655813132598498"><ele>79.0</ele><time>2026-04-06T10:42:36Z</time></trkpt><trkpt lat="45.682548379888296" lon="10.655943095713257"><ele>79.0</ele><time>2026-04-06T10:42:37Z</time></trkpt><trkpt lat="45.68263903199281" lon="10.656071620921182"><ele>79.80000000000001</ele><time>2026-04-06T10:42:38Z</time></trkpt><trkpt lat="45.68272497554698" lon="10.656193470415957"><ele>80.60000000000001</ele><time>2026-04-06T10:42:39Z</time></trkpt><trkpt lat="45.682804262141815" lon="10.656305881785174"><ele>81.4</ele><time>2026-04-06T10:42:40Z</time></trkpt><trkpt lat="45.682873695106856" lon="10.65640432281581"><ele>82.2</ele><time>2026-04-06T10:42:41Z</time></trkpt><trkpt lat="45.682936760885774" lon="10.656493736551724"><ele>83.0</ele><time>2026-04-06T10:42:42Z</time></trkpt><trkpt lat="45.683002144868404" lon="10.656586436992718"><ele>83.0</ele><time>2026-04-06T10:42:43Z</time></trkpt><trkpt lat="45.68307418297563" lon="10.656687165982461"><ele>83.0</ele><time>2026-04-06T10:42:44Z</time></trkpt><trkpt lat="45.683167086322214" lon="10.65678182780767"><ele>83.0</ele><time>2026-04-06T10:42:45Z</time></trkpt><trkpt lat="45.683258461232064" lon="10.656915360454677"><ele>83.0</ele><time>2026-04-06T10:42:46Z</time></trkpt><trkpt lat="45.68335711972864" lon="10.657069648327942"><ele>84.33333333333334</ele><time>2026-04-06T10:42:47Z</time></trkpt><trkpt lat="45.6834725767309" lon="10.657231697772499"><ele>85.66666666666667</ele><time>2026-04-06T10:42:48Z</time></trkpt><trkpt lat="45.68359100777488" lon="10.657398490122057"><ele>87.0</ele><time>2026-04-06T10:42:49Z</time></trkpt><trkpt lat="45.68372218018666" lon="10.657552750464605"><ele>87.0</ele><time>2026-04-06T10:42:50Z</time></trkpt><trkpt lat="45.68386066226537" lon="10.657694796843707"><ele>87.0</ele><time>2026-04-06T10:42:51Z</time></trkpt><trkpt lat="45.68401399437091" lon="10.657838212093509"><ele>87.0</ele><time>2026-04-06T10:42:52Z</time></trkpt><trkpt lat="45.68418901005138" lon="10.657999757474567"><ele>87.66666666666667</ele><time>2026-04-06T10:42:53Z</time></trkpt><trkpt lat="45.684361270592944" lon="10.65816779163197"><ele>88.33333333333334</ele><time>2026-04-06T10:42:54Z</time></trkpt><trkpt lat="45.6845217190718" lon="10.658327623464523"><ele>89.0</ele><time>2026-04-06T10:42:55Z</time></trkpt><trkpt lat="45.684665353268954" lon="10.65846959078577"><ele>89.0</ele><time>2026-04-06T10:42:56Z</time></trkpt><trkpt lat="45.68480468260832" lon="10.658601749491769"><ele>89.0</ele><time>2026-04-06T10:42:57Z</time></trkpt><trkpt lat="45.68493961881539" lon="10.658726128641115"><ele>89.0</ele><time>2026-04-06T10:42:58Z</time></trkpt><trkpt lat="45.685076068295004" lon="10.658853277351755"><ele>88.33333333333334</ele><time>2026-04-06T10:42:59Z</time></trkpt><trkpt lat="45.68520690565753" lon="10.658978564391992"><ele>87.66666666666667</ele><time>2026-04-06T10:43:00Z</time></trkpt><trkpt lat="45.68533927835038" lon="10.659103050015455"><ele>87.0</ele><time>2026-04-06T10:43:01Z</time></trkpt><trkpt lat="45.68546130071845" lon="10.659222269630014"><ele>87.0</ele><time>2026-04-06T10:43:02Z</time></trkpt><trkpt lat="45.685588404107776" lon="10.659342933170137"><ele>87.0</ele><time>2026-04-06T10:43:03Z</time></trkpt><trkpt lat="45.68571673629139" lon="10.659469324308999"><ele>87.0</ele><time>2026-04-06T10:43:04Z</time></trkpt><trkpt lat="45.68584790250097" lon="10.65958935913836"><ele>86.0</ele><time>2026-04-06T10:43:05Z</time></trkpt><trkpt lat="45.68597771225291" lon="10.659717873410235"><ele>85.0</ele><time>2026-04-06T10:43:06Z</time></trkpt><trkpt lat="45.68611142217005" lon="10.659836273077941"><ele>84.0</ele><time>2026-04-06T10:43:07Z</time></trkpt><trkpt lat="45.686236406541845" lon="10.659945324587342"><ele>84.0</ele><time>2026-04-06T10:43:08Z</time></trkpt><trkpt lat="45.68636072390924" lon="10.660027996634465"><ele>84.0</ele><time>2026-04-06T10:43:09Z</time></trkpt><trkpt lat="45.68649098897313" lon="10.660111106304893"><ele>84.0</ele><time>2026-04-06T10:43:10Z</time></trkpt><trkpt lat="45.686620819868466" lon="10.66020789563042"><ele>84.0</ele><time>2026-04-06T10:43:11Z</time></trkpt><trkpt lat="45.68675828842048" lon="10.660299031167265"><ele>82.66666666666667</ele><time>2026-04-06T10:43:12Z</time></trkpt><trkpt lat="45.68690003598192" lon="10.660386825466054"><ele>81.33333333333334</ele><time>2026-04-06T10:43:13Z</time></trkpt><trkpt lat="45.68704475427366" lon="10.660476143805159"><ele>80.0</ele><time>2026-04-06T10:43:13.999Z</time></trkpt><trkpt lat="45.68719687121318" lon="10.660560922460714"><ele>80.0</ele><time>2026-04-06T10:43:14.999Z</time></trkpt><trkpt lat="45.68735420452094" lon="10.660663393366132"><ele>80.0</ele><time>2026-04-06T10:43:15.999Z</time></trkpt><trkpt lat="45.68751399712368" lon="10.660771933352864"><ele>80.0</ele><time>2026-04-06T10:43:16.999Z</time></trkpt><trkpt lat="45.687678095251414" lon="10.660879904674777"><ele>82.66666666666667</ele><time>2026-04-06T10:43:17.999Z</time></trkpt><trkpt lat="45.687816098848515" lon="10.660995851944191"><ele>85.33333333333333</ele><time>2026-04-06T10:43:18.999Z</time></trkpt><trkpt lat="45.68794010887004" lon="10.661116031677834"><ele>88.0</ele><time>2026-04-06T10:43:19.999Z</time></trkpt><trkpt lat="45.68805197006588" lon="10.661236217040052"><ele>88.0</ele><time>2026-04-06T10:43:20.999Z</time></trkpt><trkpt lat="45.68815852428559" lon="10.661368709161348"><ele>88.0</ele><time>2026-04-06T10:43:21.999Z</time></trkpt><trkpt lat="45.68824791561569" lon="10.661499424677313"><ele>88.0</ele><time>2026-04-06T10:43:22.999Z</time></trkpt><trkpt lat="45.68832390315726" lon="10.661613322745284"><ele>88.0</ele><time>2026-04-06T10:43:23.999Z</time></trkpt><trkpt lat="45.688384437646896" lon="10.661701569688402"><ele>88.0</ele><time>2026-04-06T10:43:24.999Z</time></trkpt><trkpt lat="45.68843921577971" lon="10.661776873579955"><ele>88.0</ele><time>2026-04-06T10:43:25.999Z</time></trkpt><trkpt lat="45.68850290624857" lon="10.661895132152075"><ele>88.0</ele><time>2026-04-06T10:43:27.999Z</time></trkpt><trkpt lat="45.68856637173994" lon="10.662005785559602"><ele>88.0</ele><time>2026-04-06T10:43:29.999Z</time></trkpt><trkpt lat="45.688626808140526" lon="10.66210518375871"><ele>88.0</ele><time>2026-04-06T10:43:31.999Z</time></trkpt><trkpt lat="45.688671574904454" lon="10.66217903675259"><ele>88.0</ele><time>2026-04-06T10:43:35.999Z</time></trkpt><trkpt lat="45.68872756871325" lon="10.662260563269395"><ele>87.75</ele><time>2026-04-06T10:43:37.999Z</time></trkpt><trkpt lat="45.688816796283454" lon="10.66242355800413"><ele>87.5</ele><time>2026-04-06T10:43:39.999Z</time></trkpt><trkpt lat="45.68887680159332" lon="10.662573683329034"><ele>87.25</ele><time>2026-04-06T10:43:40.999Z</time></trkpt><trkpt lat="45.688972213845155" lon="10.662761390087264"><ele>87.0</ele><time>2026-04-06T10:43:41.999Z</time></trkpt><trkpt lat="45.689084263789574" lon="10.662987239490866"><ele>87.0</ele><time>2026-04-06T10:43:43Z</time></trkpt><trkpt lat="45.68919670808125" lon="10.6631783244348"><ele>87.0</ele><time>2026-04-06T10:43:44Z</time></trkpt><trkpt lat="45.6893157942977" lon="10.663418457465783"><ele>87.0</ele><time>2026-04-06T10:43:45Z</time></trkpt><trkpt lat="45.689401071200614" lon="10.663607690973047"><ele>90.0</ele><time>2026-04-06T10:43:46Z</time></trkpt><trkpt lat="45.68948112775556" lon="10.66376767915171"><ele>93.0</ele><time>2026-04-06T10:43:47Z</time></trkpt><trkpt lat="45.68958467905568" lon="10.663915531935073"><ele>96.0</ele><time>2026-04-06T10:43:48Z</time></trkpt><trkpt lat="45.689713966869554" lon="10.664033962954822"><ele>99.0</ele><time>2026-04-06T10:43:49Z</time></trkpt><trkpt lat="45.68985695123442" lon="10.664127359038071"><ele>99.0</ele><time>2026-04-06T10:43:50Z</time></trkpt><trkpt lat="45.689992051464564" lon="10.664180640495866"><ele>99.0</ele><time>2026-04-06T10:43:51Z</time></trkpt><trkpt lat="45.69010782596051" lon="10.664206193016978"><ele>99.0</ele><time>2026-04-06T10:43:52Z</time></trkpt><trkpt lat="45.69021014030935" lon="10.664235057879319"><ele>99.0</ele><time>2026-04-06T10:43:53Z</time></trkpt><trkpt lat="45.690312673843856" lon="10.664267746833984"><ele>99.2</ele><time>2026-04-06T10:43:54Z</time></trkpt><trkpt lat="45.69040915113947" lon="10.664304932971579"><ele>99.4</ele><time>2026-04-06T10:43:55Z</time></trkpt><trkpt lat="45.69051388485695" lon="10.66434872876147"><ele>99.6</ele><time>2026-04-06T10:43:56Z</time></trkpt><trkpt lat="45.6906092098033" lon="10.664413616791965"><ele>99.8</ele><time>2026-04-06T10:43:57Z</time></trkpt><trkpt lat="45.69070316873459" lon="10.664502569488732"><ele>100.0</ele><time>2026-04-06T10:43:58Z</time></trkpt><trkpt lat="45.69080319888076" lon="10.664633871177358"><ele>100.0</ele><time>2026-04-06T10:43:59Z</time></trkpt><trkpt lat="45.69090820800519" lon="10.664812818731924"><ele>100.0</ele><time>2026-04-06T10:44:00Z</time></trkpt><trkpt lat="45.69102696923295" lon="10.665009658129685"><ele>100.0</ele><time>2026-04-06T10:44:01Z</time></trkpt><trkpt lat="45.69115435110708" lon="10.665212726866564"><ele>102.66666666666667</ele><time>2026-04-06T10:44:02Z</time></trkpt><trkpt lat="45.6912793774366" lon="10.665446542841833"><ele>105.33333333333334</ele><time>2026-04-06T10:44:03Z</time></trkpt><trkpt lat="45.69141228949142" lon="10.665665087790948"><ele>108.0</ele><time>2026-04-06T10:44:04Z</time></trkpt><trkpt lat="45.69154390193059" lon="10.665881957188365"><ele>108.0</ele><time>2026-04-06T10:44:05Z</time></trkpt><trkpt lat="45.691673247270685" lon="10.666062125167754"><ele>108.0</ele><time>2026-04-06T10:44:06Z</time></trkpt><trkpt lat="45.6917685281776" lon="10.666251296849337"><ele>108.0</ele><time>2026-04-06T10:44:07Z</time></trkpt><trkpt lat="45.69187162637674" lon="10.666392422670766"><ele>109.25</ele><time>2026-04-06T10:44:08Z</time></trkpt><trkpt lat="45.6919704094631" lon="10.666554009790472"><ele>110.5</ele><time>2026-04-06T10:44:09Z</time></trkpt><trkpt lat="45.69205697357123" lon="10.666694365182929"><ele>111.75</ele><time>2026-04-06T10:44:10Z</time></trkpt><trkpt lat="45.69212722933269" lon="10.666808065852715"><ele>113.0</ele><time>2026-04-06T10:44:11Z</time></trkpt><trkpt lat="45.69217287478003" lon="10.666890957839222"><ele>110.5</ele><time>2026-04-06T10:44:12Z</time></trkpt><trkpt lat="45.692273355624096" lon="10.66700002905307"><ele>108.0</ele><time>2026-04-06T10:44:14Z</time></trkpt><trkpt lat="45.692375631414805" lon="10.66709129240747"><ele>105.5</ele><time>2026-04-06T10:44:15Z</time></trkpt><trkpt lat="45.692516078671915" lon="10.667151976474994"><ele>103.0</ele><time>2026-04-06T10:44:16Z</time></trkpt><trkpt lat="45.69268582257949" lon="10.667181364627192"><ele>104.5</ele><time>2026-04-06T10:44:17Z</time></trkpt><trkpt lat="45.69283906350941" lon="10.667192398088352"><ele>106.0</ele><time>2026-04-06T10:44:18Z</time></trkpt><trkpt lat="45.69297583438689" lon="10.667209446131153"><ele>107.5</ele><time>2026-04-06T10:44:19Z</time></trkpt><trkpt lat="45.693098491065015" lon="10.667230955608277"><ele>109.0</ele><time>2026-04-06T10:44:20Z</time></trkpt><trkpt lat="45.69320104068716" lon="10.667252036316857"><ele>109.0</ele><time>2026-04-06T10:44:21Z</time></trkpt><trkpt lat="45.69328887193055" lon="10.667277922519563"><ele>109.0</ele><time>2026-04-06T10:44:22Z</time></trkpt><trkpt lat="45.693386472704375" lon="10.667298146756872"><ele>109.0</ele><time>2026-04-06T10:44:23Z</time></trkpt><trkpt lat="45.693481782257415" lon="10.66733686873848"><ele>109.0</ele><time>2026-04-06T10:44:24Z</time></trkpt><trkpt lat="45.69356724570543" lon="10.667397634352847"><ele>109.0</ele><time>2026-04-06T10:44:25Z</time></trkpt><trkpt lat="45.69364987571147" lon="10.667484205458113"><ele>108.25</ele><time>2026-04-06T10:44:26Z</time></trkpt><trkpt lat="45.69374382173376" lon="10.667599493545724"><ele>107.5</ele><time>2026-04-06T10:44:27Z</time></trkpt><trkpt lat="45.693827513096934" lon="10.667730732108389"><ele>106.75</ele><time>2026-04-06T10:44:28Z</time></trkpt><trkpt lat="45.69390785890111" lon="10.667848435246626"><ele>106.0</ele><time>2026-04-06T10:44:29Z</time></trkpt><trkpt lat="45.69400105999931" lon="10.667951035778612"><ele>106.0</ele><time>2026-04-06T10:44:30Z</time></trkpt><trkpt lat="45.69411598177936" lon="10.668025562058055"><ele>106.0</ele><time>2026-04-06T10:44:31Z</time></trkpt><trkpt lat="45.69428048552537" lon="10.668081237859274"><ele>106.0</ele><time>2026-04-06T10:44:32Z</time></trkpt><trkpt lat="45.694479920075274" lon="10.668168973130104"><ele>113.66666666666667</ele><time>2026-04-06T10:44:33Z</time></trkpt><trkpt lat="45.69465631826884" lon="10.668265022439618"><ele>121.33333333333334</ele><time>2026-04-06T10:44:34Z</time></trkpt><trkpt lat="45.69479646341286" lon="10.668347765550877"><ele>129.0</ele><time>2026-04-06T10:44:35Z</time></trkpt><trkpt lat="45.6949082947552" lon="10.668489644378898"><ele>123.33333333333334</ele><time>2026-04-06T10:44:36Z</time></trkpt><trkpt lat="45.695000917092386" lon="10.668657748128277"><ele>117.66666666666667</ele><time>2026-04-06T10:44:37Z</time></trkpt><trkpt lat="45.69509936452376" lon="10.668887610532988"><ele>112.0</ele><time>2026-04-06T10:44:38Z</time></trkpt><trkpt lat="45.69522024273207" lon="10.669139929771651"><ele>121.5</ele><time>2026-04-06T10:44:39Z</time></trkpt><trkpt lat="45.695337302500604" lon="10.669433412106203"><ele>131.0</ele><time>2026-04-06T10:44:40Z</time></trkpt><trkpt lat="45.69546385900837" lon="10.669728649864846"><ele>131.0</ele><time>2026-04-06T10:44:41Z</time></trkpt><trkpt lat="45.6955877108792" lon="10.67001720878193"><ele>131.0</ele><time>2026-04-06T10:44:42Z</time></trkpt><trkpt lat="45.695693933465776" lon="10.670281333119544"><ele>131.0</ele><time>2026-04-06T10:44:43Z</time></trkpt><trkpt lat="45.69578916787814" lon="10.670517812314873"><ele>128.33333333333331</ele><time>2026-04-06T10:44:44Z</time></trkpt><trkpt lat="45.69584587297617" lon="10.670753061419676"><ele>125.66666666666666</ele><time>2026-04-06T10:44:45Z</time></trkpt><trkpt lat="45.695925629573416" lon="10.670962663660577"><ele>123.0</ele><time>2026-04-06T10:44:46Z</time></trkpt><trkpt lat="45.69599941783619" lon="10.671161797897138"><ele>126.33333333333334</ele><time>2026-04-06T10:44:47Z</time></trkpt><trkpt lat="45.69611418929132" lon="10.671355226252969"><ele>129.66666666666669</ele><time>2026-04-06T10:44:48Z</time></trkpt><trkpt lat="45.696258323289825" lon="10.671536951554764"><ele>133.0</ele><time>2026-04-06T10:44:49Z</time></trkpt><trkpt lat="45.69642055669267" lon="10.671734732798871"><ele>128.66666666666669</ele><time>2026-04-06T10:44:50Z</time></trkpt><trkpt lat="45.696592389234134" lon="10.671946060058929"><ele>124.33333333333334</ele><time>2026-04-06T10:44:51Z</time></trkpt><trkpt lat="45.69675007230941" lon="10.672146886221093"><ele>120.0</ele><time>2026-04-06T10:44:52Z</time></trkpt><trkpt lat="45.69689778040659" lon="10.672329232897722"><ele>123.66666666666666</ele><time>2026-04-06T10:44:53Z</time></trkpt><trkpt lat="45.69702342522177" lon="10.672489084369083"><ele>127.33333333333333</ele><time>2026-04-06T10:44:54Z</time></trkpt><trkpt lat="45.69713802223499" lon="10.672636793336581"><ele>131.0</ele><time>2026-04-06T10:44:55Z</time></trkpt><trkpt lat="45.697223076966324" lon="10.672832258526611"><ele>131.0</ele><time>2026-04-06T10:44:56Z</time></trkpt><trkpt lat="45.69732299354892" lon="10.67303506115705"><ele>131.0</ele><time>2026-04-06T10:44:57Z</time></trkpt><trkpt lat="45.69743174462087" lon="10.67325590548848"><ele>131.0</ele><time>2026-04-06T10:44:58Z</time></trkpt><trkpt lat="45.697549231253646" lon="10.673493397034642"><ele>127.66666666666666</ele><time>2026-04-06T10:44:59Z</time></trkpt><trkpt lat="45.69769052205923" lon="10.67371049671227"><ele>124.33333333333334</ele><time>2026-04-06T10:45:00Z</time></trkpt><trkpt lat="45.69782597624008" lon="10.673936003080069"><ele>121.0</ele><time>2026-04-06T10:45:01Z</time></trkpt><trkpt lat="45.69796964211537" lon="10.674145855098935"><ele>124.66666666666667</ele><time>2026-04-06T10:45:02Z</time></trkpt><trkpt lat="45.69811435873894" lon="10.674350589719939"><ele>128.33333333333334</ele><time>2026-04-06T10:45:03Z</time></trkpt><trkpt lat="45.69826457886759" lon="10.674560018592972"><ele>132.0</ele><time>2026-04-06T10:45:04Z</time></trkpt><trkpt lat="45.698418756630055" lon="10.67478887660775"><ele>132.0</ele><time>2026-04-06T10:45:05Z</time></trkpt><trkpt lat="45.69858438516132" lon="10.675025641901202"><ele>132.0</ele><time>2026-04-06T10:45:06Z</time></trkpt><trkpt lat="45.69873401814468" lon="10.675243073782193"><ele>132.0</ele><time>2026-04-06T10:45:07Z</time></trkpt><trkpt lat="45.698869729787894" lon="10.675439496691022"><ele>135.66666666666666</ele><time>2026-04-06T10:45:08Z</time></trkpt><trkpt lat="45.69899297994139" lon="10.675617648486858"><ele>139.33333333333331</ele><time>2026-04-06T10:45:09Z</time></trkpt><trkpt lat="45.699113837551465" lon="10.67580090180434"><ele>143.0</ele><time>2026-04-06T10:45:10Z</time></trkpt><trkpt lat="45.69924427766909" lon="10.676008504149967"><ele>148.0</ele><time>2026-04-06T10:45:11Z</time></trkpt><trkpt lat="45.69934756672497" lon="10.676263475310906"><ele>153.0</ele><time>2026-04-06T10:45:12Z</time></trkpt><trkpt lat="45.699457792924974" lon="10.676507361759855"><ele>158.0</ele><time>2026-04-06T10:45:13Z</time></trkpt><trkpt lat="45.6995779791531" lon="10.67674421275646"><ele>152.66666666666666</ele><time>2026-04-06T10:45:14Z</time></trkpt><trkpt lat="45.69970276147991" lon="10.676975202193622"><ele>147.33333333333334</ele><time>2026-04-06T10:45:15Z</time></trkpt><trkpt lat="45.69984816534446" lon="10.677191238819974"><ele>142.0</ele><time>2026-04-06T10:45:16Z</time></trkpt><trkpt lat="45.7000182720449" lon="10.677390938738958"><ele>142.0</ele><time>2026-04-06T10:45:17Z</time></trkpt><trkpt lat="45.700194610360626" lon="10.677589344940825"><ele>142.0</ele><time>2026-04-06T10:45:18Z</time></trkpt><trkpt lat="45.700397110584454" lon="10.677768369910154"><ele>144.66666666666669</ele><time>2026-04-06T10:45:19Z</time></trkpt><trkpt lat="45.70058875733576" lon="10.677953626289224"><ele>147.33333333333334</ele><time>2026-04-06T10:45:19.999Z</time></trkpt><trkpt lat="45.70075905786555" lon="10.678119670951125"><ele>150.0</ele><time>2026-04-06T10:45:20.999Z</time></trkpt><trkpt lat="45.700915252062046" lon="10.678277808272993"><ele>150.0</ele><time>2026-04-06T10:45:21.999Z</time></trkpt><trkpt lat="45.701068938984974" lon="10.67842771508101"><ele>150.0</ele><time>2026-04-06T10:45:22.999Z</time></trkpt><trkpt lat="45.70123018889077" lon="10.678583289895723"><ele>150.0</ele><time>2026-04-06T10:45:23.999Z</time></trkpt><trkpt lat="45.70139315932816" lon="10.67874439689398"><ele>146.66666666666666</ele><time>2026-04-06T10:45:25Z</time></trkpt><trkpt lat="45.70153499235686" lon="10.678959044015224"><ele>143.33333333333331</ele><time>2026-04-06T10:45:26Z</time></trkpt><trkpt lat="45.701671453195836" lon="10.679192963830522"><ele>140.0</ele><time>2026-04-06T10:45:27Z</time></trkpt><trkpt lat="45.701800785597236" lon="10.67944444737704"><ele>154.33333333333331</ele><time>2026-04-06T10:45:28Z</time></trkpt><trkpt lat="45.70192987217243" lon="10.679662900418673"><ele>168.66666666666666</ele><time>2026-04-06T10:45:29Z</time></trkpt><trkpt lat="45.70203398053959" lon="10.67987295389946"><ele>183.0</ele><time>2026-04-06T10:45:30Z</time></trkpt><trkpt lat="45.702131726825506" lon="10.680057897683506"><ele>183.0</ele><time>2026-04-06T10:45:31Z</time></trkpt><trkpt lat="45.702247426769794" lon="10.680218066406866"><ele>183.0</ele><time>2026-04-06T10:45:32Z</time></trkpt><trkpt lat="45.70236661042999" lon="10.680334716203811"><ele>183.0</ele><time>2026-04-06T10:45:33Z</time></trkpt><trkpt lat="45.70249826667842" lon="10.680423540447201"><ele>186.5</ele><time>2026-04-06T10:45:34Z</time></trkpt><trkpt lat="45.70263222971271" lon="10.680485377083349"><ele>190.0</ele><time>2026-04-06T10:45:35Z</time></trkpt><trkpt lat="45.70274563901085" lon="10.68060434595059"><ele>193.5</ele><time>2026-04-06T10:45:36Z</time></trkpt><trkpt lat="45.70284249269147" lon="10.680750263416371"><ele>197.0</ele><time>2026-04-06T10:45:37Z</time></trkpt><trkpt lat="45.70292597936183" lon="10.680948272344391"><ele>185.33333333333334</ele><time>2026-04-06T10:45:38Z</time></trkpt><trkpt lat="45.703028826909474" lon="10.681132707457053"><ele>173.66666666666669</ele><time>2026-04-06T10:45:39Z</time></trkpt><trkpt lat="45.70311930504049" lon="10.681339635938723"><ele>162.0</ele><time>2026-04-06T10:45:40Z</time></trkpt><trkpt lat="45.703168679442356" lon="10.681526067598757"><ele>162.0</ele><time>2026-04-06T10:45:41Z</time></trkpt><trkpt lat="45.70322420031867" lon="10.681710815503724"><ele>162.0</ele><time>2026-04-06T10:45:42Z</time></trkpt><trkpt lat="45.70329348833718" lon="10.681911985922817"><ele>162.0</ele><time>2026-04-06T10:45:43Z</time></trkpt><trkpt lat="45.70335406573599" lon="10.682124252954017"><ele>160.33333333333334</ele><time>2026-04-06T10:45:44Z</time></trkpt><trkpt lat="45.70342084205662" lon="10.682324650313973"><ele>158.66666666666669</ele><time>2026-04-06T10:45:45Z</time></trkpt><trkpt lat="45.70347557233592" lon="10.682532676905987"><ele>157.0</ele><time>2026-04-06T10:45:46Z</time></trkpt><trkpt lat="45.70353814024925" lon="10.682729048598231"><ele>199.66666666666669</ele><time>2026-04-06T10:45:47Z</time></trkpt><trkpt lat="45.70360039592912" lon="10.682930951050944"><ele>242.33333333333334</ele><time>2026-04-06T10:45:48.024Z</time></trkpt><trkpt lat="45.70361625916457" lon="10.68316353947121"><ele>285.0</ele><time>2026-04-06T10:45:49.024Z</time></trkpt><trkpt lat="45.70366663906577" lon="10.683376918286053"><ele>285.0</ele><time>2026-04-06T10:45:50.012Z</time></trkpt><trkpt lat="45.70371251091573" lon="10.683568812686753"><ele>285.0</ele><time>2026-04-06T10:45:51.024Z</time></trkpt><trkpt lat="45.70374711180585" lon="10.683715560400683"><ele>285.0</ele><time>2026-04-06T10:45:52.021Z</time></trkpt><trkpt lat="45.70378918469459" lon="10.683883902314255"><ele>285.0</ele><time>2026-04-06T10:45:53.018Z</time></trkpt><trkpt lat="45.70828343280191" lon="10.692133968705956"><ele>261.3333333333333</ele><time>2026-04-06T10:46:34Z</time></trkpt><trkpt lat="45.70833696901327" lon="10.692365278639995"><ele>237.66666666666666</ele><time>2026-04-06T10:46:35Z</time></trkpt><trkpt lat="45.70835779905199" lon="10.692649217189173"><ele>214.0</ele><time>2026-04-06T10:46:36Z</time></trkpt><trkpt lat="45.70840318863807" lon="10.692878241118233"><ele>214.0</ele><time>2026-04-06T10:46:37Z</time></trkpt><trkpt lat="45.70845348061798" lon="10.69310998503764"><ele>214.0</ele><time>2026-04-06T10:46:38.02Z</time></trkpt><trkpt lat="45.708508987959455" lon="10.693339826616896"><ele>214.0</ele><time>2026-04-06T10:46:39.017Z</time></trkpt><trkpt lat="45.70856038732819" lon="10.69357610854367"><ele>228.75</ele><time>2026-04-06T10:46:40Z</time></trkpt><trkpt lat="45.708600031573376" lon="10.693728411837178"><ele>243.5</ele><time>2026-04-06T10:46:41Z</time></trkpt><trkpt lat="45.708645048924105" lon="10.69391734777108"><ele>258.25</ele><time>2026-04-06T10:46:42Z</time></trkpt><trkpt lat="45.7087221781688" lon="10.694097064543143"><ele>273.0</ele><time>2026-04-06T10:46:43Z</time></trkpt><trkpt lat="45.70881973115613" lon="10.694259348176251"><ele>273.0</ele><time>2026-04-06T10:46:44Z</time></trkpt><trkpt lat="45.708888919526856" lon="10.694452182582584"><ele>273.0</ele><time>2026-04-06T10:46:45Z</time></trkpt><trkpt lat="45.708957717728005" lon="10.694650135172163"><ele>273.0</ele><time>2026-04-06T10:46:46.014Z</time></trkpt><trkpt lat="45.70903051836603" lon="10.694841051950473"><ele>273.0</ele><time>2026-04-06T10:46:47.027Z</time></trkpt><trkpt lat="45.70913460760232" lon="10.695003123093896"><ele>273.0</ele><time>2026-04-06T10:46:48.012Z</time></trkpt><trkpt lat="45.70923353376294" lon="10.695179521648248"><ele>273.0</ele><time>2026-04-06T10:46:49.021Z</time></trkpt><trkpt lat="45.7093294872" lon="10.695353062792286"><ele>273.5</ele><time>2026-04-06T10:46:50.021Z</time></trkpt><trkpt lat="45.70942719859444" lon="10.695528298138802"><ele>274.0</ele><time>2026-04-06T10:46:51.019Z</time></trkpt><trkpt lat="45.71049603936915" lon="10.69689656913241"><ele>289.5</ele><time>2026-04-06T10:46:54.197Z</time></trkpt><trkpt lat="45.71083688088374" lon="10.69731571573032"><ele>305.0</ele><time>2026-04-06T10:46:55.197Z</time></trkpt><trkpt lat="45.7110844" lon="10.6976201"><ele>278.0</ele><time>2026-04-06T10:46:56.195Z</time></trkpt><trkpt lat="45.711424827764134" lon="10.698039996705921"><ele>251.0</ele><time>2026-04-06T10:47:19.197Z</time></trkpt><trkpt lat="45.71176542947759" lon="10.698459397267909"><ele>241.0</ele><time>2026-04-06T10:47:20.197Z</time></trkpt><trkpt lat="45.71210624470821" lon="10.698878336800082"><ele>231.0</ele><time>2026-04-06T10:47:21.197Z</time></trkpt><trkpt lat="45.712531842333924" lon="10.700300121689867"><ele>218.0</ele><time>2026-04-06T10:47:22Z</time></trkpt><trkpt lat="45.71258375903299" lon="10.700397523891645"><ele>205.0</ele><time>2026-04-06T10:47:23Z</time></trkpt><trkpt lat="45.712683071360814" lon="10.700474080544902"><ele>192.0</ele><time>2026-04-06T10:47:24Z</time></trkpt><trkpt lat="45.712811634531164" lon="10.700537299119436"><ele>179.0</ele><time>2026-04-06T10:47:25Z</time></trkpt><trkpt lat="45.71293171199455" lon="10.700616014412821"><ele>179.0</ele><time>2026-04-06T10:47:26Z</time></trkpt><trkpt lat="45.71304467729515" lon="10.700692427678467"><ele>179.0</ele><time>2026-04-06T10:47:27Z</time></trkpt><trkpt lat="45.71315231896977" lon="10.700770475237642"><ele>179.0</ele><time>2026-04-06T10:47:28Z</time></trkpt><trkpt lat="45.71327235490866" lon="10.700846035187237"><ele>179.0</ele><time>2026-04-06T10:47:29Z</time></trkpt><trkpt lat="45.713385986449616" lon="10.70092999770407"><ele>179.0</ele><time>2026-04-06T10:47:30Z</time></trkpt><trkpt lat="45.71350372357597" lon="10.700976001556143"><ele>179.0</ele><time>2026-04-06T10:47:31Z</time></trkpt><trkpt lat="45.71359864254276" lon="10.701058828654208"><ele>179.0</ele><time>2026-04-06T10:47:32Z</time></trkpt><trkpt lat="45.71370248635919" lon="10.701121187027875"><ele>179.0</ele><time>2026-04-06T10:47:33Z</time></trkpt><trkpt lat="45.71381540096861" lon="10.701183148200087"><ele>176.6</ele><time>2026-04-06T10:47:34Z</time></trkpt><trkpt lat="45.713922567954604" lon="10.701249510194497"><ele>174.2</ele><time>2026-04-06T10:47:35Z</time></trkpt><trkpt lat="45.71402247844588" lon="10.701308059831524"><ele>171.79999999999998</ele><time>2026-04-06T10:47:36Z</time></trkpt><trkpt lat="45.71410154176637" lon="10.701383109401322"><ele>169.39999999999998</ele><time>2026-04-06T10:47:37Z</time></trkpt><trkpt lat="45.714177556177134" lon="10.701428848659786"><ele>167.0</ele><time>2026-04-06T10:47:38Z</time></trkpt><trkpt lat="45.71421973136685" lon="10.701511903756892"><ele>167.0</ele><time>2026-04-06T10:47:39Z</time></trkpt><trkpt lat="45.714313608902515" lon="10.701618075663491"><ele>167.0</ele><time>2026-04-06T10:47:41Z</time></trkpt><trkpt lat="45.71438512116188" lon="10.701707569219398"><ele>167.0</ele><time>2026-04-06T10:47:43Z</time></trkpt><trkpt lat="45.714479155136964" lon="10.701848917387123"><ele>167.0</ele><time>2026-04-06T10:47:45Z</time></trkpt><trkpt lat="45.71455063547447" lon="10.70196214257707"><ele>166.0</ele><time>2026-04-06T10:47:46Z</time></trkpt><trkpt lat="45.714648795841086" lon="10.702091684345874"><ele>165.0</ele><time>2026-04-06T10:47:47Z</time></trkpt><trkpt lat="45.71480633758851" lon="10.702294473584097"><ele>164.0</ele><time>2026-04-06T10:47:48Z</time></trkpt><trkpt lat="45.71498971852129" lon="10.702508053014931"><ele>164.0</ele><time>2026-04-06T10:47:49Z</time></trkpt><trkpt lat="45.71516625486275" lon="10.70270524972736"><ele>164.0</ele><time>2026-04-06T10:47:50Z</time></trkpt><trkpt lat="45.71532836775892" lon="10.70288540777389"><ele>164.0</ele><time>2026-04-06T10:47:51Z</time></trkpt><trkpt lat="45.71550090582359" lon="10.703044614739042"><ele>163.66666666666666</ele><time>2026-04-06T10:47:52Z</time></trkpt><trkpt lat="45.71566010051178" lon="10.703204073607047"><ele>163.33333333333334</ele><time>2026-04-06T10:47:53Z</time></trkpt><trkpt lat="45.715817162794636" lon="10.703359095532708"><ele>163.0</ele><time>2026-04-06T10:47:54Z</time></trkpt><trkpt lat="45.71598141147742" lon="10.703516294450667"><ele>162.66666666666669</ele><time>2026-04-06T10:47:55Z</time></trkpt><trkpt lat="45.71615631618244" lon="10.703686325550361"><ele>162.33333333333334</ele><time>2026-04-06T10:47:56Z</time></trkpt><trkpt lat="45.71631331579861" lon="10.703845398730019"><ele>162.0</ele><time>2026-04-06T10:47:57Z</time></trkpt><trkpt lat="45.71645529866495" lon="10.703995949996964"><ele>162.0</ele><time>2026-04-06T10:47:58Z</time></trkpt><trkpt lat="45.71658420729145" lon="10.704163792986717"><ele>162.0</ele><time>2026-04-06T10:47:59Z</time></trkpt><trkpt lat="45.71670604300115" lon="10.704357420486778"><ele>162.0</ele><time>2026-04-06T10:48:00Z</time></trkpt><trkpt lat="45.716827178029966" lon="10.704564172821216"><ele>164.33333333333334</ele><time>2026-04-06T10:48:01Z</time></trkpt><trkpt lat="45.71696199780201" lon="10.704757861174526"><ele>166.66666666666669</ele><time>2026-04-06T10:48:02Z</time></trkpt><trkpt lat="45.717072155284306" lon="10.704942472863932"><ele>169.0</ele><time>2026-04-06T10:48:03Z</time></trkpt><trkpt lat="45.71717912862528" lon="10.705116807856728"><ele>158.66666666666669</ele><time>2026-04-06T10:48:04Z</time></trkpt><trkpt lat="45.71727107139088" lon="10.705293454470963"><ele>148.33333333333334</ele><time>2026-04-06T10:48:05Z</time></trkpt><trkpt lat="45.717378871910235" lon="10.70545400080825"><ele>138.0</ele><time>2026-04-06T10:48:06Z</time></trkpt><trkpt lat="45.717498526012136" lon="10.705627213672132"><ele>138.0</ele><time>2026-04-06T10:48:07Z</time></trkpt><trkpt lat="45.71762307378467" lon="10.705802255251598"><ele>138.0</ele><time>2026-04-06T10:48:08Z</time></trkpt><trkpt lat="45.717741779543665" lon="10.70596168762237"><ele>138.0</ele><time>2026-04-06T10:48:09Z</time></trkpt><trkpt lat="45.71786903575145" lon="10.706097792579655"><ele>146.0</ele><time>2026-04-06T10:48:10Z</time></trkpt><trkpt lat="45.71800407629449" lon="10.706232091893826"><ele>154.0</ele><time>2026-04-06T10:48:11Z</time></trkpt><trkpt lat="45.71813580710958" lon="10.706358087919076"><ele>162.0</ele><time>2026-04-06T10:48:12Z</time></trkpt><trkpt lat="45.71826611984216" lon="10.706482151741382"><ele>162.0</ele><time>2026-04-06T10:48:13Z</time></trkpt><trkpt lat="45.71839923279269" lon="10.70660386096505"><ele>162.0</ele><time>2026-04-06T10:48:14Z</time></trkpt><trkpt lat="45.71852846941473" lon="10.706713211462692"><ele>162.0</ele><time>2026-04-06T10:48:15Z</time></trkpt><trkpt lat="45.7186699776452" lon="10.706830014730183"><ele>166.66666666666666</ele><time>2026-04-06T10:48:16Z</time></trkpt><trkpt lat="45.71882545269806" lon="10.706955272924063"><ele>171.33333333333331</ele><time>2026-04-06T10:48:17Z</time></trkpt><trkpt lat="45.71898291745183" lon="10.707081683807981"><ele>176.0</ele><time>2026-04-06T10:48:18Z</time></trkpt><trkpt lat="45.71914072587444" lon="10.707213013105262"><ele>176.0</ele><time>2026-04-06T10:48:19Z</time></trkpt><trkpt lat="45.71929658415529" lon="10.707353473796651"><ele>176.0</ele><time>2026-04-06T10:48:20.026Z</time></trkpt><trkpt lat="45.71945292632449" lon="10.70748881132947"><ele>176.0</ele><time>2026-04-06T10:48:21.016Z</time></trkpt><trkpt lat="45.71981732933185" lon="10.707583273048355"><ele>187.0</ele><time>2026-04-06T10:48:23Z</time></trkpt><trkpt lat="45.71994554228065" lon="10.707665710262308"><ele>198.0</ele><time>2026-04-06T10:48:24Z</time></trkpt><trkpt lat="45.72007191836623" lon="10.707856241821212"><ele>209.0</ele><time>2026-04-06T10:48:25Z</time></trkpt><trkpt lat="45.72023804967489" lon="10.707940910802792"><ele>209.66666666666669</ele><time>2026-04-06T10:48:26Z</time></trkpt><trkpt lat="45.72040448487051" lon="10.70802573461791"><ele>210.33333333333331</ele><time>2026-04-06T10:48:27.014Z</time></trkpt><trkpt lat="45.7205602898732" lon="10.708104945576686"><ele>211.0</ele><time>2026-04-06T10:48:28.023Z</time></trkpt><trkpt lat="45.720707051823155" lon="10.708179083894395"><ele>211.0</ele><time>2026-04-06T10:48:29.016Z</time></trkpt><trkpt lat="45.72084362421259" lon="10.708248074718192"><ele>211.0</ele><time>2026-04-06T10:48:30.016Z</time></trkpt><trkpt lat="45.72099841962915" lon="10.7083268237219"><ele>211.0</ele><time>2026-04-06T10:48:31.02Z</time></trkpt><trkpt lat="45.72116027575563" lon="10.708409538526599"><ele>213.66666666666666</ele><time>2026-04-06T10:48:32.013Z</time></trkpt><trkpt lat="45.721334490769024" lon="10.708498569014727"><ele>216.33333333333331</ele><time>2026-04-06T10:48:33.013Z</time></trkpt><trkpt lat="45.721494356357546" lon="10.708580266473145"><ele>219.0</ele><time>2026-04-06T10:48:34.021Z</time></trkpt><trkpt lat="45.72319767274444" lon="10.709964138300002"><ele>272.0</ele><time>2026-04-06T10:48:37.194Z</time></trkpt><trkpt lat="45.72366027856036" lon="10.710573355855027"><ele>284.0</ele><time>2026-04-06T10:48:38.193Z</time></trkpt><trkpt lat="45.72412537315556" lon="10.71118496977887"><ele>288.0</ele><time>2026-04-06T10:48:39.197Z</time></trkpt><trkpt lat="45.7244945" lon="10.7116699"><ele>86.0</ele><time>2026-04-06T10:48:40.194Z</time></trkpt><trkpt lat="45.7278459985235" lon="10.718202022845594"><ele>86.0</ele><time>2026-04-06T10:49:33.001Z</time></trkpt><trkpt lat="45.727930833059055" lon="10.71837627607864"><ele>86.0</ele><time>2026-04-06T10:49:34.001Z</time></trkpt><trkpt lat="45.72793746190992" lon="10.718663843625446"><ele>86.0</ele><time>2026-04-06T10:49:36.001Z</time></trkpt><trkpt lat="45.72792580372751" lon="10.718906878215117"><ele>87.5</ele><time>2026-04-06T10:49:37.001Z</time></trkpt><trkpt lat="45.727913629074074" lon="10.71912379149506"><ele>89.0</ele><time>2026-04-06T10:49:38.001Z</time></trkpt><trkpt lat="45.727927284953104" lon="10.719326856739796"><ele>90.5</ele><time>2026-04-06T10:49:39.001Z</time></trkpt><trkpt lat="45.727945939648116" lon="10.719518643813297"><ele>92.0</ele><time>2026-04-06T10:49:40.001Z</time></trkpt><trkpt lat="45.727997652324206" lon="10.719727853328886"><ele>87.66666666666667</ele><time>2026-04-06T10:49:41.001Z</time></trkpt><trkpt lat="45.72809543982853" lon="10.719935599467462"><ele>83.33333333333333</ele><time>2026-04-06T10:49:42.001Z</time></trkpt><trkpt lat="45.72822442383751" lon="10.720105451402798"><ele>79.0</ele><time>2026-04-06T10:49:43.001Z</time></trkpt><trkpt lat="45.728379745293594" lon="10.720227683502117"><ele>77.75</ele><time>2026-04-06T10:49:44.001Z</time></trkpt><trkpt lat="45.728539945271784" lon="10.720291418527951"><ele>76.5</ele><time>2026-04-06T10:49:45.001Z</time></trkpt><trkpt lat="45.728675210781006" lon="10.72031302612746"><ele>75.25</ele><time>2026-04-06T10:49:46.001Z</time></trkpt><trkpt lat="45.72878295792967" lon="10.720363490821745"><ele>74.0</ele><time>2026-04-06T10:49:47.001Z</time></trkpt><trkpt lat="45.72888357509614" lon="10.720414199495234"><ele>80.0</ele><time>2026-04-06T10:49:48.001Z</time></trkpt><trkpt lat="45.728981399128116" lon="10.720475448630921"><ele>86.0</ele><time>2026-04-06T10:49:49.001Z</time></trkpt><trkpt lat="45.72907700359938" lon="10.720548440198412"><ele>92.0</ele><time>2026-04-06T10:49:50.001Z</time></trkpt><trkpt lat="45.72918434541506" lon="10.720628251667746"><ele>98.0</ele><time>2026-04-06T10:49:51.001Z</time></trkpt><trkpt lat="45.72926954864635" lon="10.72075037748375"><ele>98.0</ele><time>2026-04-06T10:49:52.001Z</time></trkpt><trkpt lat="45.72935982074951" lon="10.720870921685389"><ele>98.0</ele><time>2026-04-06T10:49:53.024Z</time></trkpt><trkpt lat="45.72943159156257" lon="10.7209927345298"><ele>98.0</ele><time>2026-04-06T10:49:54.016Z</time></trkpt><trkpt lat="45.72949747083928" lon="10.721121056845075"><ele>98.0</ele><time>2026-04-06T10:49:55.015Z</time></trkpt><trkpt lat="45.72957383742796" lon="10.72127151465267"><ele>115.5</ele><time>2026-04-06T10:49:56Z</time></trkpt><trkpt lat="45.729757733998746" lon="10.721634350915274"><ele>133.0</ele><time>2026-04-06T10:49:57Z</time></trkpt><trkpt lat="45.72986922808653" lon="10.72182080867187"><ele>118.25</ele><time>2026-04-06T10:49:58Z</time></trkpt><trkpt lat="45.72994695765038" lon="10.721995732457637"><ele>103.5</ele><time>2026-04-06T10:49:59Z</time></trkpt><trkpt lat="45.730026183221206" lon="10.72214930351578"><ele>88.75</ele><time>2026-04-06T10:50:00Z</time></trkpt><trkpt lat="45.730099947998525" lon="10.722285313061331"><ele>74.0</ele><time>2026-04-06T10:50:01Z</time></trkpt><trkpt lat="45.730159516660706" lon="10.722404952336552"><ele>74.0</ele><time>2026-04-06T10:50:02Z</time></trkpt><trkpt lat="45.7302194110524" lon="10.722529718039953"><ele>74.0</ele><time>2026-04-06T10:50:03Z</time></trkpt><trkpt lat="45.73027138331158" lon="10.722651980657098"><ele>74.0</ele><time>2026-04-06T10:50:04Z</time></trkpt><trkpt lat="45.73033065908513" lon="10.722770838051046"><ele>74.0</ele><time>2026-04-06T10:50:05Z</time></trkpt><trkpt lat="45.73038991015558" lon="10.722889833031179"><ele>74.0</ele><time>2026-04-06T10:50:06Z</time></trkpt><trkpt lat="45.730449210359794" lon="10.723008381398522"><ele>75.0</ele><time>2026-04-06T10:50:07Z</time></trkpt><trkpt lat="45.73050475016522" lon="10.723118894388374"><ele>76.0</ele><time>2026-04-06T10:50:08Z</time></trkpt><trkpt lat="45.73055878889842" lon="10.723229770231898"><ele>77.0</ele><time>2026-04-06T10:50:09Z</time></trkpt><trkpt lat="45.73061275123286" lon="10.723343128904627"><ele>78.0</ele><time>2026-04-06T10:50:10Z</time></trkpt><trkpt lat="45.73066086465263" lon="10.723450368652834"><ele>79.0</ele><time>2026-04-06T10:50:11Z</time></trkpt><trkpt lat="45.730708963385474" lon="10.723561339527803"><ele>79.33333333333333</ele><time>2026-04-06T10:50:12Z</time></trkpt><trkpt lat="45.730754705799576" lon="10.72366687406841"><ele>79.66666666666666</ele><time>2026-04-06T10:50:13Z</time></trkpt><trkpt lat="45.73079559221659" lon="10.723764143359213"><ele>80.0</ele><time>2026-04-06T10:50:14Z</time></trkpt><trkpt lat="45.73083366181589" lon="10.723856097837611"><ele>80.33333333333333</ele><time>2026-04-06T10:50:15Z</time></trkpt><trkpt lat="45.730869696615635" lon="10.723943137499885"><ele>80.66666666666667</ele><time>2026-04-06T10:50:16Z</time></trkpt><trkpt lat="45.730902133550934" lon="10.72402206733131"><ele>81.0</ele><time>2026-04-06T10:50:17Z</time></trkpt><trkpt lat="45.730956972792185" lon="10.72416351984664"><ele>81.0</ele><time>2026-04-06T10:50:19Z</time></trkpt><trkpt lat="45.731003279966" lon="10.724293232142111"><ele>81.0</ele><time>2026-04-06T10:50:21Z</time></trkpt><trkpt lat="45.7310322622924" lon="10.724375882828422"><ele>81.0</ele><time>2026-04-06T10:50:22Z</time></trkpt><trkpt lat="45.73106480385011" lon="10.724469902517553"><ele>81.0</ele><time>2026-04-06T10:50:23Z</time></trkpt><trkpt lat="45.731114664474454" lon="10.724563501703486"><ele>81.0</ele><time>2026-04-06T10:50:24Z</time></trkpt><trkpt lat="45.73114215032607" lon="10.72469705513959"><ele>81.0</ele><time>2026-04-06T10:50:25Z</time></trkpt><trkpt lat="45.73117909359081" lon="10.724813147505124"><ele>83.8</ele><time>2026-04-06T10:50:26Z</time></trkpt><trkpt lat="45.73121925590793" lon="10.72493977837787"><ele>86.6</ele><time>2026-04-06T10:50:27Z</time></trkpt><trkpt lat="45.73126020124742" lon="10.725068878215577"><ele>89.4</ele><time>2026-04-06T10:50:28Z</time></trkpt><trkpt lat="45.731302370205974" lon="10.72519596547681"><ele>92.2</ele><time>2026-04-06T10:50:29Z</time></trkpt><trkpt lat="45.73135371530703" lon="10.725337018241113"><ele>95.0</ele><time>2026-04-06T10:50:30Z</time></trkpt><trkpt lat="45.73141940051221" lon="10.725503616772253"><ele>95.0</ele><time>2026-04-06T10:50:31Z</time></trkpt><trkpt lat="45.73150951184533" lon="10.725674607920329"><ele>95.0</ele><time>2026-04-06T10:50:32Z</time></trkpt><trkpt lat="45.7316000569906" lon="10.725882447369104"><ele>95.0</ele><time>2026-04-06T10:50:33Z</time></trkpt><trkpt lat="45.73172169054176" lon="10.726111457011658"><ele>88.5</ele><time>2026-04-06T10:50:34Z</time></trkpt><trkpt lat="45.73185723614739" lon="10.726373154492375"><ele>82.0</ele><time>2026-04-06T10:50:35Z</time></trkpt><trkpt lat="45.73198111659187" lon="10.726650835258036"><ele>87.0</ele><time>2026-04-06T10:50:36Z</time></trkpt><trkpt lat="45.732107514147074" lon="10.726905686151303"><ele>92.0</ele><time>2026-04-06T10:50:37Z</time></trkpt><trkpt lat="45.73223873577172" lon="10.727136527046426"><ele>97.0</ele><time>2026-04-06T10:50:39Z</time></trkpt><trkpt lat="45.73231015822489" lon="10.727314269924097"><ele>97.0</ele><time>2026-04-06T10:50:40Z</time></trkpt><trkpt lat="45.732397246272406" lon="10.727473899777802"><ele>97.0</ele><time>2026-04-06T10:50:41Z</time></trkpt><trkpt lat="45.73248528793359" lon="10.727623322101124"><ele>97.0</ele><time>2026-04-06T10:50:42Z</time></trkpt><trkpt lat="45.73257678243231" lon="10.727782002074838"><ele>97.0</ele><time>2026-04-06T10:50:43Z</time></trkpt><trkpt lat="45.7326756706246" lon="10.72795709864332"><ele>102.25</ele><time>2026-04-06T10:50:44Z</time></trkpt><trkpt lat="45.73278443110183" lon="10.728087897164079"><ele>107.5</ele><time>2026-04-06T10:50:45Z</time></trkpt><trkpt lat="45.73285943441794" lon="10.728230949275428"><ele>112.75</ele><time>2026-04-06T10:50:46Z</time></trkpt><trkpt lat="45.73294178375407" lon="10.728354190449418"><ele>118.0</ele><time>2026-04-06T10:50:47Z</time></trkpt><trkpt lat="45.73302407719739" lon="10.72847755403368"><ele>111.25</ele><time>2026-04-06T10:50:48Z</time></trkpt><trkpt lat="45.73310410767122" lon="10.728602001662614"><ele>104.5</ele><time>2026-04-06T10:50:49Z</time></trkpt><trkpt lat="45.73317686929966" lon="10.728728045271888"><ele>97.75</ele><time>2026-04-06T10:50:50Z</time></trkpt><trkpt lat="45.7332469684954" lon="10.728866126594406"><ele>91.0</ele><time>2026-04-06T10:50:51Z</time></trkpt><trkpt lat="45.73331127500588" lon="10.72900529390581"><ele>91.0</ele><time>2026-04-06T10:50:52Z</time></trkpt><trkpt lat="45.73336955796265" lon="10.729142697078052"><ele>91.0</ele><time>2026-04-06T10:50:53Z</time></trkpt><trkpt lat="45.73341624244198" lon="10.729283138118944"><ele>91.0</ele><time>2026-04-06T10:50:54Z</time></trkpt><trkpt lat="45.733460005067755" lon="10.729420297065708"><ele>91.0</ele><time>2026-04-06T10:50:55Z</time></trkpt><trkpt lat="45.733507496170176" lon="10.729568764455568"><ele>91.0</ele><time>2026-04-06T10:50:56Z</time></trkpt><trkpt lat="45.733554406749036" lon="10.729708975027405"><ele>89.5</ele><time>2026-04-06T10:50:57Z</time></trkpt><trkpt lat="45.73362049092184" lon="10.729838943866824"><ele>88.0</ele><time>2026-04-06T10:50:58Z</time></trkpt><trkpt lat="45.733681391126744" lon="10.729979538527257"><ele>86.5</ele><time>2026-04-06T10:50:59Z</time></trkpt><trkpt lat="45.733752561806675" lon="10.730104627471862"><ele>85.0</ele><time>2026-04-06T10:51:00Z</time></trkpt><trkpt lat="45.73383884233148" lon="10.730260983001166"><ele>85.0</ele><time>2026-04-06T10:51:01Z</time></trkpt><trkpt lat="45.7339719001913" lon="10.73043274417176"><ele>85.0</ele><time>2026-04-06T10:51:02Z</time></trkpt><trkpt lat="45.73410040722832" lon="10.730618219156664"><ele>85.0</ele><time>2026-04-06T10:51:03Z</time></trkpt><trkpt lat="45.734220996484616" lon="10.730788147435701"><ele>85.0</ele><time>2026-04-06T10:51:04Z</time></trkpt><trkpt lat="45.73433086396066" lon="10.730941475510276"><ele>85.0</ele><time>2026-04-06T10:51:05Z</time></trkpt><trkpt lat="45.73442969218815" lon="10.731083167154111"><ele>85.0</ele><time>2026-04-06T10:51:06Z</time></trkpt><trkpt lat="45.734520920571725" lon="10.731218343190559"><ele>85.0</ele><time>2026-04-06T10:51:07Z</time></trkpt><trkpt lat="45.73461904681821" lon="10.731346132241901"><ele>88.25</ele><time>2026-04-06T10:51:08Z</time></trkpt><trkpt lat="45.73469542370252" lon="10.731481540822028"><ele>91.5</ele><time>2026-04-06T10:51:09Z</time></trkpt><trkpt lat="45.73478860417974" lon="10.731581150407207"><ele>94.75</ele><time>2026-04-06T10:51:10Z</time></trkpt><trkpt lat="45.73485699502095" lon="10.731732181921277"><ele>98.0</ele><time>2026-04-06T10:51:11.001Z</time></trkpt><trkpt lat="45.734935293898616" lon="10.731863392458255"><ele>94.0</ele><time>2026-04-06T10:51:12.022Z</time></trkpt><trkpt lat="45.735014503963285" lon="10.73199717692214"><ele>90.0</ele><time>2026-04-06T10:51:13.026Z</time></trkpt><trkpt lat="45.73509659444313" lon="10.73212681313018"><ele>86.0</ele><time>2026-04-06T10:51:14.015Z</time></trkpt><trkpt lat="45.735179251969576" lon="10.732260580497135"><ele>82.0</ele><time>2026-04-06T10:51:15.013Z</time></trkpt><trkpt lat="45.73540586913441" lon="10.732499822609185"><ele>85.39999999999999</ele><time>2026-04-06T10:51:18.001Z</time></trkpt><trkpt lat="45.73547665937586" lon="10.732610815522724"><ele>88.8</ele><time>2026-04-06T10:51:19.001Z</time></trkpt><trkpt lat="45.73553982252082" lon="10.73274540701208"><ele>92.2</ele><time>2026-04-06T10:51:20.001Z</time></trkpt><trkpt lat="45.735574448543446" lon="10.73285932857837"><ele>95.6</ele><time>2026-04-06T10:51:21.001Z</time></trkpt><trkpt lat="45.735600267528206" lon="10.732982487488261"><ele>99.0</ele><time>2026-04-06T10:51:22.001Z</time></trkpt><trkpt lat="45.73561226201213" lon="10.733116137654818"><ele>99.0</ele><time>2026-04-06T10:51:23.001Z</time></trkpt><trkpt lat="45.7356377761548" lon="10.733262931258366"><ele>99.0</ele><time>2026-04-06T10:51:24.001Z</time></trkpt><trkpt lat="45.735634172059484" lon="10.733427829697906"><ele>99.0</ele><time>2026-04-06T10:51:25.001Z</time></trkpt><trkpt lat="45.73565023556222" lon="10.733589186503268"><ele>99.0</ele><time>2026-04-06T10:51:26.001Z</time></trkpt><trkpt lat="45.73566777812713" lon="10.733753268074862"><ele>96.75</ele><time>2026-04-06T10:51:27.001Z</time></trkpt><trkpt lat="45.73568200425366" lon="10.733918355894707"><ele>94.5</ele><time>2026-04-06T10:51:28.001Z</time></trkpt><trkpt lat="45.7357188818277" lon="10.734074665326109"><ele>92.25</ele><time>2026-04-06T10:51:29.001Z</time></trkpt><trkpt lat="45.73576559802531" lon="10.734239664114131"><ele>90.0</ele><time>2026-04-06T10:51:30.001Z</time></trkpt><trkpt lat="45.73582669670815" lon="10.734394160077738"><ele>87.75</ele><time>2026-04-06T10:51:31.001Z</time></trkpt><trkpt lat="45.735898963291724" lon="10.734543818259263"><ele>85.5</ele><time>2026-04-06T10:51:32.001Z</time></trkpt><trkpt lat="45.735979479825474" lon="10.73468053667941"><ele>83.25</ele><time>2026-04-06T10:51:33.001Z</time></trkpt><trkpt lat="45.736067401264265" lon="10.734793469850619"><ele>81.0</ele><time>2026-04-06T10:51:34.001Z</time></trkpt><trkpt lat="45.736152319304125" lon="10.73489162427185"><ele>81.19999999999999</ele><time>2026-04-06T10:51:35.001Z</time></trkpt><trkpt lat="45.736231634343746" lon="10.734982175544106"><ele>81.39999999999999</ele><time>2026-04-06T10:51:36.001Z</time></trkpt><trkpt lat="45.736318044452965" lon="10.735052989335868"><ele>81.6</ele><time>2026-04-06T10:51:37.001Z</time></trkpt><trkpt lat="45.736404438029716" lon="10.735110290082115"><ele>81.8</ele><time>2026-04-06T10:51:38.001Z</time></trkpt><trkpt lat="45.73648502464756" lon="10.7351787825833"><ele>82.0</ele><time>2026-04-06T10:51:39.001Z</time></trkpt><trkpt lat="45.736566599514546" lon="10.735249720155652"><ele>82.0</ele><time>2026-04-06T10:51:40.001Z</time></trkpt><trkpt lat="45.73667618950708" lon="10.735318623282435"><ele>82.0</ele><time>2026-04-06T10:51:41.001Z</time></trkpt><trkpt lat="45.73677828235861" lon="10.73539190316021"><ele>82.0</ele><time>2026-04-06T10:51:42.001Z</time></trkpt><trkpt lat="45.73687355440113" lon="10.735457511784787"><ele>82.0</ele><time>2026-04-06T10:51:43.001Z</time></trkpt><trkpt lat="45.73696362739842" lon="10.73552324493886"><ele>82.0</ele><time>2026-04-06T10:51:44.001Z</time></trkpt><trkpt lat="45.737065509721226" lon="10.735568985327328"><ele>83.75</ele><time>2026-04-06T10:51:45.001Z</time></trkpt><trkpt lat="45.73716680014776" lon="10.735626257249914"><ele>85.5</ele><time>2026-04-06T10:51:46.001Z</time></trkpt><trkpt lat="45.73727810577748" lon="10.735664669317858"><ele>87.25</ele><time>2026-04-06T10:51:47.001Z</time></trkpt><trkpt lat="45.73740021017721" lon="10.73568326774009"><ele>89.0</ele><time>2026-04-06T10:51:48.001Z</time></trkpt><trkpt lat="45.737525660560074" lon="10.735694957839799"><ele>89.0</ele><time>2026-04-06T10:51:49.001Z</time></trkpt><trkpt lat="45.73769058319988" lon="10.735705199175412"><ele>89.0</ele><time>2026-04-06T10:51:50.001Z</time></trkpt><trkpt lat="45.737842287591505" lon="10.735711422571097"><ele>89.0</ele><time>2026-04-06T10:51:51.001Z</time></trkpt><trkpt lat="45.73798665840448" lon="10.735717345117166"><ele>96.33333333333334</ele><time>2026-04-06T10:51:52.001Z</time></trkpt><trkpt lat="45.73813351116459" lon="10.7357257028221"><ele>103.66666666666667</ele><time>2026-04-06T10:51:53.001Z</time></trkpt><trkpt lat="45.73829618174237" lon="10.735744895192587"><ele>111.0</ele><time>2026-04-06T10:51:54.001Z</time></trkpt><trkpt lat="45.738456357891515" lon="10.735772616067129"><ele>127.66666666666666</ele><time>2026-04-06T10:51:55.001Z</time></trkpt><trkpt lat="45.73861465865977" lon="10.735811034020143"><ele>144.33333333333331</ele><time>2026-04-06T10:51:56.016Z</time></trkpt><trkpt lat="45.738767684380136" lon="10.735858263669531"><ele>161.0</ele><time>2026-04-06T10:51:57.016Z</time></trkpt><trkpt lat="45.73890825585002" lon="10.735910268134967"><ele>161.0</ele><time>2026-04-06T10:51:58.015Z</time></trkpt><trkpt lat="45.739052372285464" lon="10.735974888417418"><ele>161.0</ele><time>2026-04-06T10:51:59.024Z</time></trkpt><trkpt lat="45.74066454817826" lon="10.737474740203778"><ele>187.0</ele><time>2026-04-06T10:52:02.194Z</time></trkpt><trkpt lat="45.741100340886845" lon="10.738127185267041"><ele>102.0</ele><time>2026-04-06T10:52:03.197Z</time></trkpt><trkpt lat="45.741535752177015" lon="10.738776892162205"><ele>94.0</ele><time>2026-04-06T10:52:04.196Z</time></trkpt><trkpt lat="45.74199087929444" lon="10.739398350644542"><ele>94.0</ele><time>2026-04-06T10:52:05.196Z</time></trkpt><trkpt lat="45.742476596126764" lon="10.739970351244883"><ele>109.0</ele><time>2026-04-06T10:52:06.196Z</time></trkpt><trkpt lat="45.742981468675836" lon="10.740508059824347"><ele>90.0</ele><time>2026-04-06T10:52:07.196Z</time></trkpt><trkpt lat="45.7434814" lon="10.7410517"><ele>90.0</ele><time>2026-04-06T10:52:08.196Z</time></trkpt><trkpt lat="45.761973043015004" lon="10.753906834880592"><ele>90.0</ele><time>2026-04-06T10:54:36Z</time></trkpt><trkpt lat="45.76207121972736" lon="10.754035541951598"><ele>90.0</ele><time>2026-04-06T10:54:37Z</time></trkpt><trkpt lat="45.76217786906055" lon="10.754103938303212"><ele>90.0</ele><time>2026-04-06T10:54:38Z</time></trkpt><trkpt lat="45.762244842191905" lon="10.75426752833731"><ele>90.0</ele><time>2026-04-06T10:54:39Z</time></trkpt><trkpt lat="45.762339276871884" lon="10.754396521006914"><ele>90.0</ele><time>2026-04-06T10:54:40Z</time></trkpt><trkpt lat="45.76242401382071" lon="10.754517143339022"><ele>90.0</ele><time>2026-04-06T10:54:41Z</time></trkpt><trkpt lat="45.76249673511774" lon="10.754638031444912"><ele>90.0</ele><time>2026-04-06T10:54:42.002Z</time></trkpt><trkpt lat="45.76256501449099" lon="10.75476863482393"><ele>90.0</ele><time>2026-04-06T10:54:43.002Z</time></trkpt><trkpt lat="45.76263230606413" lon="10.75494503595456"><ele>166.0</ele><time>2026-04-06T10:54:44.002Z</time></trkpt><trkpt lat="45.76268964542911" lon="10.755116537709732"><ele>242.0</ele><time>2026-04-06T10:54:45.002Z</time></trkpt><trkpt lat="45.76275943102615" lon="10.75526988988654"><ele>318.0</ele><time>2026-04-06T10:54:46.002Z</time></trkpt><trkpt lat="45.76281133896885" lon="10.75541636419596"><ele>394.0</ele><time>2026-04-06T10:54:47.002Z</time></trkpt><trkpt lat="45.76285258968343" lon="10.755533626116575"><ele>394.0</ele><time>2026-04-06T10:54:48.002Z</time></trkpt><trkpt lat="45.762895962805146" lon="10.755637666832497"><ele>394.0</ele><time>2026-04-06T10:54:49.002Z</time></trkpt><trkpt lat="45.76295084880524" lon="10.755765260730177"><ele>394.0</ele><time>2026-04-06T10:54:50.002Z</time></trkpt><trkpt lat="45.76301568153675" lon="10.755942826730887"><ele>394.0</ele><time>2026-04-06T10:54:51.002Z</time></trkpt><trkpt lat="45.763085935991775" lon="10.75607242151881"><ele>394.0</ele><time>2026-04-06T10:54:52.002Z</time></trkpt><trkpt lat="45.76315370097228" lon="10.756190653267218"><ele>389.6666666666667</ele><time>2026-04-06T10:54:53.002Z</time></trkpt><trkpt lat="45.763241891214754" lon="10.756320134934834"><ele>385.33333333333337</ele><time>2026-04-06T10:54:54.001Z</time></trkpt><trkpt lat="45.76336862681971" lon="10.756505867416065"><ele>381.0</ele><time>2026-04-06T10:54:55.001Z</time></trkpt><trkpt lat="45.76352775841124" lon="10.756746967700717"><ele>388.0</ele><time>2026-04-06T10:54:56.001Z</time></trkpt><trkpt lat="45.76367506795685" lon="10.756962318093773"><ele>395.0</ele><time>2026-04-06T10:54:57.001Z</time></trkpt><trkpt lat="45.763793268221086" lon="10.757142000241428"><ele>402.0</ele><time>2026-04-06T10:54:58.001Z</time></trkpt><trkpt lat="45.76390622371272" lon="10.75730468442334"><ele>402.0</ele><time>2026-04-06T10:54:59.001Z</time></trkpt><trkpt lat="45.76399504798078" lon="10.757467876731187"><ele>402.0</ele><time>2026-04-06T10:55:00.001Z</time></trkpt><trkpt lat="45.76406341786001" lon="10.757629058962221"><ele>402.0</ele><time>2026-04-06T10:55:01.001Z</time></trkpt><trkpt lat="45.76412398206475" lon="10.757781890052598"><ele>402.0</ele><time>2026-04-06T10:55:02.001Z</time></trkpt><trkpt lat="45.76419056579025" lon="10.75792268039724"><ele>401.5</ele><time>2026-04-06T10:55:03.001Z</time></trkpt><trkpt lat="45.76426254259636" lon="10.758042567229724"><ele>401.0</ele><time>2026-04-06T10:55:04.001Z</time></trkpt><trkpt lat="45.764354282305256" lon="10.758162661049921"><ele>400.5</ele><time>2026-04-06T10:55:05.001Z</time></trkpt><trkpt lat="45.764452972636704" lon="10.758279383425897"><ele>400.0</ele><time>2026-04-06T10:55:06.001Z</time></trkpt><trkpt lat="45.76454996561703" lon="10.758383507303295"><ele>399.4</ele><time>2026-04-06T10:55:07.001Z</time></trkpt><trkpt lat="45.76464314836519" lon="10.758474416066322"><ele>398.8</ele><time>2026-04-06T10:55:08.001Z</time></trkpt><trkpt lat="45.76473253871787" lon="10.758539673700051"><ele>398.20000000000005</ele><time>2026-04-06T10:55:09.001Z</time></trkpt><trkpt lat="45.764800644754835" lon="10.758613767039876"><ele>397.6</ele><time>2026-04-06T10:55:10.001Z</time></trkpt><trkpt lat="45.76487565706114" lon="10.75866485159309"><ele>397.0</ele><time>2026-04-06T10:55:11.001Z</time></trkpt><trkpt lat="45.76495489072957" lon="10.75871548932596"><ele>397.0</ele><time>2026-04-06T10:55:12.001Z</time></trkpt><trkpt lat="45.76505429928259" lon="10.758757764060592"><ele>397.0</ele><time>2026-04-06T10:55:13.001Z</time></trkpt><trkpt lat="45.76516402388672" lon="10.758799364879135"><ele>397.0</ele><time>2026-04-06T10:55:14.001Z</time></trkpt><trkpt lat="45.765285082205715" lon="10.758828236068425"><ele>397.0</ele><time>2026-04-06T10:55:15.001Z</time></trkpt><trkpt lat="45.76540666067448" lon="10.758874754291575"><ele>406.25</ele><time>2026-04-06T10:55:16.001Z</time></trkpt><trkpt lat="45.765507838074406" lon="10.758995072082113"><ele>415.5</ele><time>2026-04-06T10:55:17.001Z</time></trkpt><trkpt lat="45.76559993838554" lon="10.759117570013919"><ele>424.75</ele><time>2026-04-06T10:55:18.001Z</time></trkpt><trkpt lat="45.765686024331906" lon="10.759213385689513"><ele>434.0</ele><time>2026-04-06T10:55:19.001Z</time></trkpt><trkpt lat="45.76575670447637" lon="10.759317917268424"><ele>437.0</ele><time>2026-04-06T10:55:20.001Z</time></trkpt><trkpt lat="45.765827742360216" lon="10.759399904670996"><ele>440.0</ele><time>2026-04-06T10:55:21.001Z</time></trkpt><trkpt lat="45.765893536861995" lon="10.759442368213188"><ele>443.0</ele><time>2026-04-06T10:55:22.001Z</time></trkpt><trkpt lat="45.765996420600985" lon="10.759502789611679"><ele>446.0</ele><time>2026-04-06T10:55:24.001Z</time></trkpt><trkpt lat="45.766093490063874" lon="10.759580805331659"><ele>449.0</ele><time>2026-04-06T10:55:26.001Z</time></trkpt><trkpt lat="45.76615302578431" lon="10.759635144740175"><ele>449.0</ele><time>2026-04-06T10:55:27.001Z</time></trkpt><trkpt lat="45.766212120993636" lon="10.759700318833916"><ele>449.0</ele><time>2026-04-06T10:55:28.001Z</time></trkpt><trkpt lat="45.76627610067155" lon="10.759798733935522"><ele>449.0</ele><time>2026-04-06T10:55:29.001Z</time></trkpt><trkpt lat="45.76634368336019" lon="10.759911290557968"><ele>449.0</ele><time>2026-04-06T10:55:30Z</time></trkpt><trkpt lat="45.766425424745876" lon="10.760013029860072"><ele>449.0</ele><time>2026-04-06T10:55:31Z</time></trkpt><trkpt lat="45.76652411668789" lon="10.76010471481063"><ele>449.0</ele><time>2026-04-06T10:55:32Z</time></trkpt><trkpt lat="45.76662292250392" lon="10.76018465194189"><ele>449.0</ele><time>2026-04-06T10:55:33Z</time></trkpt><trkpt lat="45.766727220002856" lon="10.76025940657864"><ele>449.0</ele><time>2026-04-06T10:55:34Z</time></trkpt><trkpt lat="45.76682752534341" lon="10.760330614629787"><ele>449.0</ele><time>2026-04-06T10:55:35Z</time></trkpt><trkpt lat="45.76691993903486" lon="10.760424940606766"><ele>448.25</ele><time>2026-04-06T10:55:36Z</time></trkpt><trkpt lat="45.76701134320015" lon="10.76052483439557"><ele>447.5</ele><time>2026-04-06T10:55:37Z</time></trkpt><trkpt lat="45.767106132036396" lon="10.760618936142963"><ele>446.75</ele><time>2026-04-06T10:55:38Z</time></trkpt><trkpt lat="45.76720138571043" lon="10.760706278384552"><ele>446.0</ele><time>2026-04-06T10:55:39Z</time></trkpt><trkpt lat="45.767293843999" lon="10.76079442012257"><ele>446.0</ele><time>2026-04-06T10:55:40Z</time></trkpt><trkpt lat="45.76739472792647" lon="10.760874338985888"><ele>446.0</ele><time>2026-04-06T10:55:41Z</time></trkpt><trkpt lat="45.76749141473231" lon="10.760952521525988"><ele>446.0</ele><time>2026-04-06T10:55:42Z</time></trkpt><trkpt lat="45.76756921441484" lon="10.761029669741765"><ele>446.0</ele><time>2026-04-06T10:55:43Z</time></trkpt><trkpt lat="45.76764820336526" lon="10.761137796424698"><ele>446.0</ele><time>2026-04-06T10:55:44Z</time></trkpt><trkpt lat="45.76773103163821" lon="10.761243449453662"><ele>446.0</ele><time>2026-04-06T10:55:45Z</time></trkpt><trkpt lat="45.76779140843946" lon="10.761351087524895"><ele>446.0</ele><time>2026-04-06T10:55:46Z</time></trkpt><trkpt lat="45.76784682354382" lon="10.76146728752073"><ele>446.0</ele><time>2026-04-06T10:55:47Z</time></trkpt><trkpt lat="45.76791153790805" lon="10.76157284844361"><ele>446.0</ele><time>2026-04-06T10:55:48Z</time></trkpt><trkpt lat="45.76799628089891" lon="10.761665740549379"><ele>446.0</ele><time>2026-04-06T10:55:49Z</time></trkpt><trkpt lat="45.768097654658504" lon="10.76176845327508"><ele>445.99999999999994</ele><time>2026-04-06T10:55:50Z</time></trkpt><trkpt lat="45.76819312088303" lon="10.76185079732981"><ele>446.0</ele><time>2026-04-06T10:55:51Z</time></trkpt><trkpt lat="45.76827604735239" lon="10.761929675966075"><ele>446.0</ele><time>2026-04-06T10:55:52Z</time></trkpt><trkpt lat="45.76835039284021" lon="10.761989460888929"><ele>446.0</ele><time>2026-04-06T10:55:53Z</time></trkpt><trkpt lat="45.7684121899478" lon="10.762041574384101"><ele>445.99999999999994</ele><time>2026-04-06T10:55:54Z</time></trkpt><trkpt lat="45.768477454746886" lon="10.762110468314091"><ele>446.0</ele><time>2026-04-06T10:55:56Z</time></trkpt><trkpt lat="45.76853303120895" lon="10.762168762947717"><ele>446.0</ele><time>2026-04-06T10:56:10Z</time></trkpt><trkpt lat="45.768642012587776" lon="10.762021601557409"><ele>446.0</ele><time>2026-04-06T10:56:12Z</time></trkpt><trkpt lat="45.76866464666474" lon="10.761925295675658"><ele>446.0</ele><time>2026-04-06T10:56:13Z</time></trkpt><trkpt lat="45.768665751871254" lon="10.761828558715612"><ele>446.0</ele><time>2026-04-06T10:56:14Z</time></trkpt><trkpt lat="45.76866665648953" lon="10.761669284048729"><ele>446.0</ele><time>2026-04-06T10:56:16Z</time></trkpt><trkpt lat="45.76858603120748" lon="10.761590321409017"><ele>446.0</ele><time>2026-04-06T10:56:18Z</time></trkpt><trkpt lat="45.76818069905243" lon="10.761569314585305"><ele>446.0</ele><time>2026-04-06T10:56:21Z</time></trkpt><trkpt lat="45.7680839880866" lon="10.761508601917873"><ele>446.0</ele><time>2026-04-06T10:56:22Z</time></trkpt><trkpt lat="45.767974605564575" lon="10.761398094347113"><ele>446.0</ele><time>2026-04-06T10:56:23Z</time></trkpt><trkpt lat="45.76785664149058" lon="10.761225800704151"><ele>446.0</ele><time>2026-04-06T10:56:24Z</time></trkpt><trkpt lat="45.76773272008385" lon="10.761048178421527"><ele>446.0</ele><time>2026-04-06T10:56:25Z</time></trkpt><trkpt lat="45.76764157020089" lon="10.76091922937257"><ele>446.0</ele><time>2026-04-06T10:56:26Z</time></trkpt><trkpt lat="45.767538715428664" lon="10.760840509316216"><ele>446.0</ele><time>2026-04-06T10:56:27Z</time></trkpt><trkpt lat="45.767441958697646" lon="10.760769866216666"><ele>446.0</ele><time>2026-04-06T10:56:28Z</time></trkpt><trkpt lat="45.76734589951947" lon="10.760703772097012"><ele>446.0</ele><time>2026-04-06T10:56:29Z</time></trkpt><trkpt lat="45.76727588329007" lon="10.760629058863062"><ele>446.0</ele><time>2026-04-06T10:56:30Z</time></trkpt><trkpt lat="45.76718921328886" lon="10.760522058505082"><ele>446.0</ele><time>2026-04-06T10:56:31Z</time></trkpt><trkpt lat="45.76709923258885" lon="10.760405912208174"><ele>446.0</ele><time>2026-04-06T10:56:32Z</time></trkpt><trkpt lat="45.766996450380205" lon="10.760315657689377"><ele>446.0</ele><time>2026-04-06T10:56:33Z</time></trkpt><trkpt lat="45.766918032225995" lon="10.760194687170845"><ele>446.6</ele><time>2026-04-06T10:56:34Z</time></trkpt><trkpt lat="45.766835413344346" lon="10.760102215926223"><ele>447.20000000000005</ele><time>2026-04-06T10:56:35Z</time></trkpt><trkpt lat="45.76673925825121" lon="10.76004141980981"><ele>447.79999999999995</ele><time>2026-04-06T10:56:36Z</time></trkpt><trkpt lat="45.76664438265452" lon="10.760015288729534"><ele>448.4</ele><time>2026-04-06T10:56:37Z</time></trkpt><trkpt lat="45.76657198409705" lon="10.759948513502096"><ele>449.0</ele><time>2026-04-06T10:56:38Z</time></trkpt><trkpt lat="45.76650592046492" lon="10.75981658202846"><ele>449.0</ele><time>2026-04-06T10:56:39Z</time></trkpt><trkpt lat="45.76643050176109" lon="10.759689338152917"><ele>449.0</ele><time>2026-04-06T10:56:40Z</time></trkpt><trkpt lat="45.76636329644681" lon="10.759569839470963"><ele>449.0</ele><time>2026-04-06T10:56:41Z</time></trkpt><trkpt lat="45.76628091106131" lon="10.759470358205496"><ele>449.0</ele><time>2026-04-06T10:56:42Z</time></trkpt><trkpt lat="45.766207470456465" lon="10.759370009412933"><ele>449.0</ele><time>2026-04-06T10:56:43Z</time></trkpt><trkpt lat="45.76612322449373" lon="10.759294091628501"><ele>446.49999999999994</ele><time>2026-04-06T10:56:44Z</time></trkpt><trkpt lat="45.766032148189645" lon="10.75925470179985"><ele>444.0</ele><time>2026-04-06T10:56:45Z</time></trkpt><trkpt lat="45.765957101836534" lon="10.759194924178457"><ele>441.5</ele><time>2026-04-06T10:56:46Z</time></trkpt><trkpt lat="45.76588136233295" lon="10.75914399888442"><ele>439.0</ele><time>2026-04-06T10:56:47Z</time></trkpt><trkpt lat="45.76581307041718" lon="10.75906331841567"><ele>436.49999999999994</ele><time>2026-04-06T10:56:48.001Z</time></trkpt><trkpt lat="45.76574630609169" lon="10.759015594030853"><ele>434.0</ele><time>2026-04-06T10:56:49.001Z</time></trkpt><trkpt lat="45.765643043851156" lon="10.75897420926324"><ele>433.99999999999994</ele><time>2026-04-06T10:56:51.001Z</time></trkpt><trkpt lat="45.76562763864367" lon="10.758845980052316"><ele>434.0</ele><time>2026-04-06T10:56:52.001Z</time></trkpt><trkpt lat="45.76558449401015" lon="10.758747751574791"><ele>434.0</ele><time>2026-04-06T10:56:53.001Z</time></trkpt><trkpt lat="45.76552340871805" lon="10.758653724185537"><ele>434.0</ele><time>2026-04-06T10:56:54.001Z</time></trkpt><trkpt lat="45.76548344505088" lon="10.758560128139093"><ele>433.99999999999994</ele><time>2026-04-06T10:56:55.001Z</time></trkpt><trkpt lat="45.765444917727585" lon="10.758461762250434"><ele>434.0</ele><time>2026-04-06T10:56:56.001Z</time></trkpt><trkpt lat="45.76534613160114" lon="10.758346438466774"><ele>432.8333333333333</ele><time>2026-04-06T10:56:58.001Z</time></trkpt><trkpt lat="45.76525466005886" lon="10.75839695940356"><ele>431.66666666666663</ele><time>2026-04-06T10:56:59.001Z</time></trkpt><trkpt lat="45.765179582032644" lon="10.758386400406618"><ele>430.5</ele><time>2026-04-06T10:57:00.001Z</time></trkpt><trkpt lat="45.76510510722253" lon="10.758372084177914"><ele>429.33333333333337</ele><time>2026-04-06T10:57:01.001Z</time></trkpt><trkpt lat="45.76502761811578" lon="10.758358718151786"><ele>428.1666666666667</ele><time>2026-04-06T10:57:02.001Z</time></trkpt><trkpt lat="45.76494777140701" lon="10.758293692764246"><ele>427.0</ele><time>2026-04-06T10:57:03.001Z</time></trkpt><trkpt lat="45.76487368053048" lon="10.758184283784967"><ele>427.0</ele><time>2026-04-06T10:57:04.001Z</time></trkpt><trkpt lat="45.76478442754637" lon="10.758107048953299"><ele>427.00000000000006</ele><time>2026-04-06T10:57:05.001Z</time></trkpt><trkpt lat="45.764714647311855" lon="10.758013514906143"><ele>427.00000000000006</ele><time>2026-04-06T10:57:06.001Z</time></trkpt><trkpt lat="45.76462791077449" lon="10.757919740892254"><ele>427.0</ele><time>2026-04-06T10:57:07.001Z</time></trkpt><trkpt lat="45.7645613316147" lon="10.75781636694158"><ele>427.0</ele><time>2026-04-06T10:57:08.001Z</time></trkpt><trkpt lat="45.764501374367256" lon="10.75773515403723"><ele>420.75</ele><time>2026-04-06T10:57:09.001Z</time></trkpt><trkpt lat="45.76445634675718" lon="10.757646055386266"><ele>414.5</ele><time>2026-04-06T10:57:10.001Z</time></trkpt><trkpt lat="45.7643984578798" lon="10.757508238728507"><ele>408.25</ele><time>2026-04-06T10:57:11Z</time></trkpt><trkpt lat="45.764308092506695" lon="10.757349560362025"><ele>402.0</ele><time>2026-04-06T10:57:12Z</time></trkpt><trkpt lat="45.764231805242936" lon="10.757210409447195"><ele>402.0</ele><time>2026-04-06T10:57:13Z</time></trkpt><trkpt lat="45.764174581728504" lon="10.757104469116532"><ele>402.0</ele><time>2026-04-06T10:57:14Z</time></trkpt><trkpt lat="45.764111094630906" lon="10.7570087455537"><ele>402.0</ele><time>2026-04-06T10:57:15Z</time></trkpt><trkpt lat="45.76401458896745" lon="10.756968968303372"><ele>402.0</ele><time>2026-04-06T10:57:16Z</time></trkpt><trkpt lat="45.76394995034297" lon="10.756961296963077"><ele>402.0</ele><time>2026-04-06T10:57:17Z</time></trkpt><trkpt lat="45.76391372207797" lon="10.75680398711473"><ele>402.0</ele><time>2026-04-06T11:09:34Z</time></trkpt><trkpt lat="45.763956722340666" lon="10.756672076578274"><ele>402.0</ele><time>2026-04-06T11:09:36Z</time></trkpt><trkpt lat="45.76407300274921" lon="10.756701829544056"><ele>402.0</ele><time>2026-04-06T11:09:38Z</time></trkpt><trkpt lat="45.76410204341492" lon="10.756887096331946"><ele>402.0</ele><time>2026-04-06T11:09:39Z</time></trkpt><trkpt lat="45.76419360764926" lon="10.757017186773645"><ele>402.0</ele><time>2026-04-06T11:09:40Z</time></trkpt><trkpt lat="45.76434289765354" lon="10.757199152997085"><ele>402.0</ele><time>2026-04-06T11:09:41Z</time></trkpt><trkpt lat="45.76446414574094" lon="10.757401555429844"><ele>402.0</ele><time>2026-04-06T11:09:42Z</time></trkpt><trkpt lat="45.76456732029148" lon="10.757548141304746"><ele>408.25</ele><time>2026-04-06T11:09:43Z</time></trkpt><trkpt lat="45.7646531844963" lon="10.757670133421808"><ele>414.5</ele><time>2026-04-06T11:09:44Z</time></trkpt><trkpt lat="45.76472864318423" lon="10.757777341812226"><ele>420.75</ele><time>2026-04-06T11:09:45Z</time></trkpt><trkpt lat="45.7648188258091" lon="10.757870237711579"><ele>427.0</ele><time>2026-04-06T11:09:46Z</time></trkpt><trkpt lat="45.76490780587994" lon="10.757977867657234"><ele>427.0</ele><time>2026-04-06T11:09:47Z</time></trkpt><trkpt lat="45.765013893937024" lon="10.758058660321712"><ele>427.0</ele><time>2026-04-06T11:09:48Z</time></trkpt><trkpt lat="45.765136461701516" lon="10.758095478841634"><ele>427.0</ele><time>2026-04-06T11:09:49Z</time></trkpt><trkpt lat="45.76526883584845" lon="10.758091677817982"><ele>427.0</ele><time>2026-04-06T11:09:50Z</time></trkpt><trkpt lat="45.765411478614425" lon="10.758057417273708"><ele>437.75</ele><time>2026-04-06T11:09:51Z</time></trkpt><trkpt lat="45.765555893527136" lon="10.758030106451354"><ele>448.5</ele><time>2026-04-06T11:09:52Z</time></trkpt><trkpt lat="45.76569876501528" lon="10.758013761464799"><ele>459.25</ele><time>2026-04-06T11:09:53Z</time></trkpt><trkpt lat="45.76584385547545" lon="10.75801165039668"><ele>470.0</ele><time>2026-04-06T11:09:54Z</time></trkpt><trkpt lat="45.76599341661936" lon="10.758008471413943"><ele>474.5</ele><time>2026-04-06T11:09:55Z</time></trkpt><trkpt lat="45.76613905936334" lon="10.758056500658737"><ele>479.0</ele><time>2026-04-06T11:09:56.025Z</time></trkpt><trkpt lat="45.766267181162824" lon="10.758094523519166"><ele>483.5</ele><time>2026-04-06T11:09:57.016Z</time></trkpt><trkpt lat="45.76640081556141" lon="10.758142623053036"><ele>488.0</ele><time>2026-04-06T11:09:58.011Z</time></trkpt><trkpt lat="45.76654130177566" lon="10.758208426731759"><ele>488.0</ele><time>2026-04-06T11:09:59.013Z</time></trkpt><trkpt lat="45.766665799823784" lon="10.75828015723698"><ele>488.0</ele><time>2026-04-06T11:10:00.018Z</time></trkpt><trkpt lat="45.767857477340876" lon="10.759311125603714"><ele>492.5</ele><time>2026-04-06T11:10:03.19Z</time></trkpt><trkpt lat="45.76823352051927" lon="10.759663777381483"><ele>497.0</ele><time>2026-04-06T11:10:04.19Z</time></trkpt><trkpt lat="45.76860823635868" lon="10.760019198226741"><ele>487.5</ele><time>2026-04-06T11:10:05.19Z</time></trkpt><trkpt lat="45.76898320928366" lon="10.760374548471257"><ele>478.0</ele><time>2026-04-06T11:10:06.19Z</time></trkpt><trkpt lat="45.769358841121445" lon="10.760728351963978"><ele>435.0</ele><time>2026-04-06T11:10:07.19Z</time></trkpt><trkpt lat="45.76973161609176" lon="10.761087910953867"><ele>392.0</ele><time>2026-04-06T11:10:08.19Z</time></trkpt><trkpt lat="45.77005228379081" lon="10.761536077264758"><ele>392.0</ele><time>2026-04-06T11:10:09.19Z</time></trkpt><trkpt lat="45.7701866" lon="10.7618119"><ele>392.0</ele><time>2026-04-06T11:10:10.19Z</time></trkpt><trkpt lat="45.77049630698354" lon="10.762750748554955"><ele>392.0</ele><time>2026-04-06T11:10:33Z</time></trkpt><trkpt lat="45.77052150679237" lon="10.76288736916014"><ele>392.0</ele><time>2026-04-06T11:10:34Z</time></trkpt><trkpt lat="45.77060880067965" lon="10.763097540611668"><ele>392.0</ele><time>2026-04-06T11:10:36Z</time></trkpt><trkpt lat="45.7706838093775" lon="10.763196333860446"><ele>392.0</ele><time>2026-04-06T11:10:37Z</time></trkpt><trkpt lat="45.77075211256724" lon="10.76328859163155"><ele>391.99999999999994</ele><time>2026-04-06T11:10:38Z</time></trkpt><trkpt lat="45.77081186702672" lon="10.763381204457515"><ele>392.0</ele><time>2026-04-06T11:10:39Z</time></trkpt><trkpt lat="45.77084385149355" lon="10.763502094917209"><ele>392.0</ele><time>2026-04-06T11:10:40Z</time></trkpt><trkpt lat="45.77086671752893" lon="10.763621156122289"><ele>392.0</ele><time>2026-04-06T11:10:41Z</time></trkpt><trkpt lat="45.770880198324015" lon="10.763709640907654"><ele>391.99999999999994</ele><time>2026-04-06T11:10:42Z</time></trkpt><trkpt lat="45.77089561236963" lon="10.763800516013335"><ele>392.0</ele><time>2026-04-06T11:10:43Z</time></trkpt><trkpt lat="45.77091880494851" lon="10.763938455248647"><ele>332.40000000000003</ele><time>2026-04-06T11:10:44Z</time></trkpt><trkpt lat="45.77097777706525" lon="10.764079914585825"><ele>272.8</ele><time>2026-04-06T11:10:45Z</time></trkpt><trkpt lat="45.77100754603204" lon="10.76417297853278"><ele>213.20000000000002</ele><time>2026-04-06T11:10:46Z</time></trkpt><trkpt lat="45.770993255804385" lon="10.764339932335965"><ele>153.60000000000002</ele><time>2026-04-06T11:10:48Z</time></trkpt><trkpt lat="45.77101712519478" lon="10.764530996073706"><ele>94.0</ele><time>2026-04-06T11:10:50Z</time></trkpt><trkpt lat="45.77106863401425" lon="10.764651539340974"><ele>94.0</ele><time>2026-04-06T11:10:51Z</time></trkpt><trkpt lat="45.771119516656036" lon="10.76475418289737"><ele>94.0</ele><time>2026-04-06T11:10:52Z</time></trkpt><trkpt lat="45.77117622848184" lon="10.76484357608701"><ele>94.0</ele><time>2026-04-06T11:10:53Z</time></trkpt><trkpt lat="45.77123693275537" lon="10.764931740064222"><ele>94.0</ele><time>2026-04-06T11:10:54Z</time></trkpt><trkpt lat="45.7713361556925" lon="10.764982748918335"><ele>94.0</ele><time>2026-04-06T11:10:55Z</time></trkpt><trkpt lat="45.771411802708194" lon="10.765048519434757"><ele>120.0</ele><time>2026-04-06T11:10:56Z</time></trkpt><trkpt lat="45.77150179355993" lon="10.76511082360696"><ele>146.0</ele><time>2026-04-06T11:10:57Z</time></trkpt><trkpt lat="45.771585069113215" lon="10.765183957642982"><ele>171.99999999999997</ele><time>2026-04-06T11:10:58Z</time></trkpt><trkpt lat="45.77166189507946" lon="10.765247815756734"><ele>198.0</ele><time>2026-04-06T11:10:59Z</time></trkpt><trkpt lat="45.77175416850536" lon="10.76526264154572"><ele>224.0</ele><time>2026-04-06T11:11:00Z</time></trkpt><trkpt lat="45.7718494821021" lon="10.76528487748639"><ele>233.33333333333334</ele><time>2026-04-06T11:11:01Z</time></trkpt><trkpt lat="45.771933746299574" lon="10.765307628868982"><ele>242.66666666666669</ele><time>2026-04-06T11:11:02Z</time></trkpt><trkpt lat="45.77200800170954" lon="10.765353251859942"><ele>252.0</ele><time>2026-04-06T11:11:03Z</time></trkpt><trkpt lat="45.77207901578406" lon="10.765424454700604"><ele>261.3333333333333</ele><time>2026-04-06T11:11:04Z</time></trkpt><trkpt lat="45.77215712267948" lon="10.765503622127278"><ele>270.66666666666663</ele><time>2026-04-06T11:11:05Z</time></trkpt><trkpt lat="45.772234259745154" lon="10.765583000908022"><ele>280.0</ele><time>2026-04-06T11:11:06.022Z</time></trkpt><trkpt lat="45.77230386003889" lon="10.765669238491112"><ele>280.0</ele><time>2026-04-06T11:11:07.015Z</time></trkpt><trkpt lat="45.772377167341055" lon="10.765791752014707"><ele>280.0</ele><time>2026-04-06T11:11:08Z</time></trkpt><trkpt lat="45.77247019185173" lon="10.765855719236502"><ele>280.0</ele><time>2026-04-06T11:11:10Z</time></trkpt><trkpt lat="45.77256542838271" lon="10.765854619679267"><ele>280.0</ele><time>2026-04-06T11:11:11Z</time></trkpt><trkpt lat="45.77264674032824" lon="10.765861418969306"><ele>280.0</ele><time>2026-04-06T11:11:12Z</time></trkpt><trkpt lat="45.77272446423515" lon="10.765886694535318"><ele>281.0</ele><time>2026-04-06T11:11:13Z</time></trkpt><trkpt lat="45.77280880826812" lon="10.76593078494457"><ele>282.0</ele><time>2026-04-06T11:11:14Z</time></trkpt><trkpt lat="45.7728904956927" lon="10.76598906165154"><ele>283.0</ele><time>2026-04-06T11:11:15Z</time></trkpt><trkpt lat="45.77296930371885" lon="10.766056556854494"><ele>284.0</ele><time>2026-04-06T11:11:16.015Z</time></trkpt><trkpt lat="45.7730462331333" lon="10.766123703597241"><ele>285.0</ele><time>2026-04-06T11:11:17.015Z</time></trkpt><trkpt lat="45.77312819816333" lon="10.766195245499388"><ele>285.6</ele><time>2026-04-06T11:11:18.015Z</time></trkpt><trkpt lat="45.773215490202475" lon="10.766273743009064"><ele>286.2</ele><time>2026-04-06T11:11:19Z</time></trkpt><trkpt lat="45.77332601798315" lon="10.766373893788066"><ele>286.8</ele><time>2026-04-06T11:11:20Z</time></trkpt><trkpt lat="45.773403914342765" lon="10.766425262579144"><ele>287.4</ele><time>2026-04-06T11:11:21Z</time></trkpt><trkpt lat="45.77350034995989" lon="10.766464524610587"><ele>288.0</ele><time>2026-04-06T11:11:22Z</time></trkpt><trkpt lat="45.77360021508413" lon="10.766479775080704"><ele>288.0</ele><time>2026-04-06T11:11:23Z</time></trkpt><trkpt lat="45.77369805406534" lon="10.766527774781535"><ele>288.0</ele><time>2026-04-06T11:11:24Z</time></trkpt><trkpt lat="45.77378823767524" lon="10.7665116728598"><ele>288.0</ele><time>2026-04-06T11:11:25Z</time></trkpt><trkpt lat="45.773886415534335" lon="10.766496116637017"><ele>288.0</ele><time>2026-04-06T11:11:26.014Z</time></trkpt><trkpt lat="45.773979740314005" lon="10.76646736645279"><ele>288.0</ele><time>2026-04-06T11:11:27.015Z</time></trkpt><trkpt lat="45.77407139504351" lon="10.766432293627433"><ele>288.0</ele><time>2026-04-06T11:11:28.026Z</time></trkpt><trkpt lat="45.77414861004366" lon="10.766400210182693"><ele>288.0</ele><time>2026-04-06T11:11:29Z</time></trkpt><trkpt lat="45.77418880968653" lon="10.766296970032721"><ele>288.0</ele><time>2026-04-06T11:11:30Z</time></trkpt><trkpt lat="45.77424861424615" lon="10.766183884279606"><ele>288.0</ele><time>2026-04-06T11:11:32Z</time></trkpt><trkpt lat="45.77421964417026" lon="10.766007511825462"><ele>288.0</ele><time>2026-04-06T11:11:34Z</time></trkpt><trkpt lat="45.77421772074113" lon="10.765913966488931"><ele>289.8333333333333</ele><time>2026-04-06T11:11:35Z</time></trkpt><trkpt lat="45.774208860719746" lon="10.765741256645049"><ele>291.6666666666667</ele><time>2026-04-06T11:11:37Z</time></trkpt><trkpt lat="45.77419650771674" lon="10.765652691265798"><ele>293.5</ele><time>2026-04-06T11:11:38Z</time></trkpt><trkpt lat="45.774185822363854" lon="10.765562572408783"><ele>295.33333333333337</ele><time>2026-04-06T11:11:39Z</time></trkpt><trkpt lat="45.774155920968596" lon="10.765469995348035"><ele>297.1666666666667</ele><time>2026-04-06T11:11:40Z</time></trkpt><trkpt lat="45.77413141219754" lon="10.765379931664285"><ele>299.0</ele><time>2026-04-06T11:11:41Z</time></trkpt><trkpt lat="45.77412482501988" lon="10.765278628894023"><ele>297.85714285714283</ele><time>2026-04-06T11:11:42Z</time></trkpt><trkpt lat="45.77409623324603" lon="10.765191357354976"><ele>296.7142857142857</ele><time>2026-04-06T11:11:43Z</time></trkpt><trkpt lat="45.774074887059655" lon="10.765091688389788"><ele>295.57142857142856</ele><time>2026-04-06T11:11:44Z</time></trkpt><trkpt lat="45.77406338870569" lon="10.764977717343378"><ele>294.42857142857144</ele><time>2026-04-06T11:11:45Z</time></trkpt><trkpt lat="45.77405184419231" lon="10.764860172142926"><ele>293.2857142857143</ele><time>2026-04-06T11:11:46Z</time></trkpt><trkpt lat="45.77405165799468" lon="10.764766840659128"><ele>292.1428571428571</ele><time>2026-04-06T11:11:47Z</time></trkpt><trkpt lat="45.774055541679076" lon="10.764662421163042"><ele>291.0</ele><time>2026-04-06T11:11:48Z</time></trkpt><trkpt lat="45.774049524967985" lon="10.764567240026098"><ele>291.0</ele><time>2026-04-06T11:11:49Z</time></trkpt><trkpt lat="45.77397739572397" lon="10.764492766252346"><ele>291.0</ele><time>2026-04-06T11:11:51Z</time></trkpt><trkpt lat="45.77384466391984" lon="10.764482572751083"><ele>291.0</ele><time>2026-04-06T11:11:53Z</time></trkpt><trkpt lat="45.773789041116" lon="10.764586174071676"><ele>291.0</ele><time>2026-04-06T11:11:54Z</time></trkpt><trkpt lat="45.773813445834506" lon="10.764754784046065"><ele>291.0</ele><time>2026-04-06T11:11:55Z</time></trkpt><trkpt lat="45.77379956210952" lon="10.764878367439598"><ele>291.0</ele><time>2026-04-06T11:11:56Z</time></trkpt><trkpt lat="45.77379552648034" lon="10.765019161655182"><ele>291.0</ele><time>2026-04-06T11:11:57Z</time></trkpt><trkpt lat="45.77380123215747" lon="10.765173130274057"><ele>291.0</ele><time>2026-04-06T11:11:58Z</time></trkpt><trkpt lat="45.773852765710885" lon="10.765290033236028"><ele>291.0</ele><time>2026-04-06T11:11:59Z</time></trkpt><trkpt lat="45.773896094093104" lon="10.765396940931787"><ele>291.0</ele><time>2026-04-06T11:12:00Z</time></trkpt><trkpt lat="45.77389973278476" lon="10.765504041098728"><ele>290.5</ele><time>2026-04-06T11:12:01Z</time></trkpt><trkpt lat="45.773911933183946" lon="10.76562241087961"><ele>290.0</ele><time>2026-04-06T11:12:02Z</time></trkpt><trkpt lat="45.773939178655745" lon="10.765722917685846"><ele>289.5</ele><time>2026-04-06T11:12:03Z</time></trkpt><trkpt lat="45.77393776365981" lon="10.765816307582472"><ele>289.0</ele><time>2026-04-06T11:12:04Z</time></trkpt><trkpt lat="45.773914086822984" lon="10.765926462843401"><ele>288.5</ele><time>2026-04-06T11:12:06Z</time></trkpt><trkpt lat="45.773886002542504" lon="10.7660240635889"><ele>288.0</ele><time>2026-04-06T11:12:08Z</time></trkpt><trkpt lat="45.77385609216901" lon="10.7661396632835"><ele>288.0</ele><time>2026-04-06T11:12:11Z</time></trkpt><trkpt lat="45.77383816254258" lon="10.766256867418596"><ele>288.0</ele><time>2026-04-06T11:12:13Z</time></trkpt><trkpt lat="45.77382676537885" lon="10.766365893013015"><ele>288.0</ele><time>2026-04-06T11:12:15Z</time></trkpt><trkpt lat="45.773748528238116" lon="10.76627827762693"><ele>288.0</ele><time>2026-04-06T11:12:17Z</time></trkpt><trkpt lat="45.77380911930498" lon="10.766097385866654"><ele>288.0</ele><time>2026-04-06T11:12:19Z</time></trkpt><trkpt lat="45.77384692781893" lon="10.765998126827165"><ele>289.8333333333333</ele><time>2026-04-06T11:12:20Z</time></trkpt><trkpt lat="45.77387217727646" lon="10.765888189197325"><ele>291.6666666666667</ele><time>2026-04-06T11:12:21Z</time></trkpt><trkpt lat="45.77389214411212" lon="10.765792306412397"><ele>293.5</ele><time>2026-04-06T11:12:22Z</time></trkpt><trkpt lat="45.77387737586412" lon="10.765650475734411"><ele>295.33333333333337</ele><time>2026-04-06T11:12:24Z</time></trkpt><trkpt lat="45.77387698319892" lon="10.765556176413334"><ele>297.1666666666667</ele><time>2026-04-06T11:12:26Z</time></trkpt><trkpt lat="45.773873118902145" lon="10.765452753550562"><ele>299.0</ele><time>2026-04-06T11:12:27Z</time></trkpt><trkpt lat="45.7738279028063" lon="10.765354533529749"><ele>299.0</ele><time>2026-04-06T11:12:28Z</time></trkpt><trkpt lat="45.77375770039427" lon="10.765280510056474"><ele>299.0</ele><time>2026-04-06T11:12:29Z</time></trkpt><trkpt lat="45.77370860801347" lon="10.765222956097777"><ele>299.0</ele><time>2026-04-06T11:12:30Z</time></trkpt><trkpt lat="45.77368495016837" lon="10.765104811030014"><ele>299.0</ele><time>2026-04-06T11:12:32Z</time></trkpt><trkpt lat="45.773683658292725" lon="10.764998682035063"><ele>299.0</ele><time>2026-04-06T11:12:33Z</time></trkpt><trkpt lat="45.77367501028413" lon="10.764873279427174"><ele>299.0</ele><time>2026-04-06T11:12:34Z</time></trkpt><trkpt lat="45.7736823529065" lon="10.764763818977174"><ele>299.0</ele><time>2026-04-06T11:12:35Z</time></trkpt><trkpt lat="45.77369616335251" lon="10.76464465317591"><ele>299.0</ele><time>2026-04-06T11:12:36Z</time></trkpt><trkpt lat="45.77371571939963" lon="10.764503895529257"><ele>299.0</ele><time>2026-04-06T11:12:37Z</time></trkpt><trkpt lat="45.77372873373713" lon="10.764398507501584"><ele>299.0</ele><time>2026-04-06T11:12:38Z</time></trkpt><trkpt lat="45.77374669796565" lon="10.764280589338806"><ele>299.0</ele><time>2026-04-06T11:12:39Z</time></trkpt><trkpt lat="45.773766193492" lon="10.76416659797201"><ele>299.0</ele><time>2026-04-06T11:12:40Z</time></trkpt><trkpt lat="45.77378014857479" lon="10.764070790019298"><ele>299.0</ele><time>2026-04-06T11:12:41Z</time></trkpt><trkpt lat="45.77380055667036" lon="10.763885049020365"><ele>299.0</ele><time>2026-04-06T11:12:43Z</time></trkpt><trkpt lat="45.77384060124425" lon="10.763719115926758"><ele>299.0</ele><time>2026-04-06T11:12:45Z</time></trkpt><trkpt lat="45.77391815839191" lon="10.76358569252371"><ele>299.0</ele><time>2026-04-06T11:12:47Z</time></trkpt><trkpt lat="45.77396450880744" lon="10.763408908711167"><ele>301.8</ele><time>2026-04-06T11:12:49Z</time></trkpt><trkpt lat="45.77398070671748" lon="10.763320346236938"><ele>304.59999999999997</ele><time>2026-04-06T11:12:50Z</time></trkpt><trkpt lat="45.773973369765336" lon="10.763145653571442"><ele>307.4</ele><time>2026-04-06T11:12:52Z</time></trkpt><trkpt lat="45.77405800950308" lon="10.763070594103269"><ele>310.2</ele><time>2026-04-06T11:12:54Z</time></trkpt><trkpt lat="45.774109270501576" lon="10.762949722400121"><ele>313.0</ele><time>2026-04-06T11:12:56Z</time></trkpt><trkpt lat="45.77422111041901" lon="10.762922431181943"><ele>315.5</ele><time>2026-04-06T11:12:58Z</time></trkpt><trkpt lat="45.77437142827116" lon="10.762854424663976"><ele>318.0</ele><time>2026-04-06T11:13:00Z</time></trkpt><trkpt lat="45.77443874246746" lon="10.76283325753203"><ele>320.5</ele><time>2026-04-06T11:13:01Z</time></trkpt><trkpt lat="45.77450074643305" lon="10.762813134688"><ele>323.0</ele><time>2026-04-06T11:13:02Z</time></trkpt><trkpt lat="45.77456330465477" lon="10.762797431129085"><ele>325.5</ele><time>2026-04-06T11:13:03Z</time></trkpt><trkpt lat="45.77463044529033" lon="10.762828436548537"><ele>328.0</ele><time>2026-04-06T11:13:04Z</time></trkpt><trkpt lat="45.77473598507507" lon="10.762802717346908"><ele>328.0</ele><time>2026-04-06T11:13:06Z</time></trkpt><trkpt lat="45.77482075513341" lon="10.762793230447603"><ele>328.0</ele><time>2026-04-06T11:13:08Z</time></trkpt><trkpt lat="45.77492846110432" lon="10.762750880854432"><ele>328.0</ele><time>2026-04-06T11:13:10Z</time></trkpt><trkpt lat="45.775054617206095" lon="10.762717644546138"><ele>328.0</ele><time>2026-04-06T11:13:12Z</time></trkpt><trkpt lat="45.77517519907867" lon="10.762674232225454"><ele>328.0</ele><time>2026-04-06T11:13:14Z</time></trkpt><trkpt lat="45.77525709757725" lon="10.762623161523894"><ele>334.5</ele><time>2026-04-06T11:13:16.014Z</time></trkpt><trkpt lat="45.77536693849433" lon="10.76260390930694"><ele>341.0</ele><time>2026-04-06T11:13:18.023Z</time></trkpt><trkpt lat="45.775695686695485" lon="10.762359653972336"><ele>341.0</ele><time>2026-04-06T11:13:24Z</time></trkpt><trkpt lat="45.77576715532101" lon="10.762283712764935"><ele>341.0</ele><time>2026-04-06T11:13:25Z</time></trkpt><trkpt lat="45.775871860418725" lon="10.762221959809139"><ele>341.0</ele><time>2026-04-06T11:13:27.017Z</time></trkpt><trkpt lat="45.7759436698292" lon="10.762096522087027"><ele>341.0</ele><time>2026-04-06T11:13:29.012Z</time></trkpt><trkpt lat="45.77603264924942" lon="10.762008730562561"><ele>341.0</ele><time>2026-04-06T11:13:31.026Z</time></trkpt><trkpt lat="45.77610660780336" lon="10.76173656753273"><ele>338.5</ele><time>2026-04-06T11:13:34.999Z</time></trkpt><trkpt lat="45.776194297558575" lon="10.76157483077359"><ele>336.0</ele><time>2026-04-06T11:13:36.999Z</time></trkpt><trkpt lat="45.77625332048696" lon="10.761464075094914"><ele>333.5</ele><time>2026-04-06T11:13:38.999Z</time></trkpt><trkpt lat="45.77631721966661" lon="10.761321248448246"><ele>331.0</ele><time>2026-04-06T11:13:41Z</time></trkpt><trkpt lat="45.776357832075945" lon="10.76118671287496"><ele>331.0</ele><time>2026-04-06T11:13:43Z</time></trkpt><trkpt lat="45.7763845742284" lon="10.761060136248055"><ele>331.0</ele><time>2026-04-06T11:13:45Z</time></trkpt><trkpt lat="45.7764105975284" lon="10.76092198115444"><ele>331.0</ele><time>2026-04-06T11:13:47Z</time></trkpt><trkpt lat="45.776432847239484" lon="10.760779013141509"><ele>331.0</ele><time>2026-04-06T11:13:49Z</time></trkpt><trkpt lat="45.7764844742182" lon="10.760648880500414"><ele>331.0</ele><time>2026-04-06T11:13:51Z</time></trkpt><trkpt lat="45.77654790874617" lon="10.760559799218418"><ele>327.66666666666663</ele><time>2026-04-06T11:13:53Z</time></trkpt><trkpt lat="45.77661242974473" lon="10.760476335554017"><ele>324.3333333333333</ele><time>2026-04-06T11:13:56Z</time></trkpt><trkpt lat="45.776665960838066" lon="10.760408270005556"><ele>321.0</ele><time>2026-04-06T11:13:59Z</time></trkpt><trkpt lat="45.776702729477485" lon="10.760333793850139"><ele>317.6666666666667</ele><time>2026-04-06T11:14:01Z</time></trkpt><trkpt lat="45.7767590660371" lon="10.760258424748768"><ele>314.33333333333337</ele><time>2026-04-06T11:14:06Z</time></trkpt><trkpt lat="45.77681963656358" lon="10.7602120462749"><ele>311.0</ele><time>2026-04-06T11:14:07Z</time></trkpt><trkpt lat="45.77687267905972" lon="10.760111212597812"><ele>311.0</ele><time>2026-04-06T11:14:08Z</time></trkpt><trkpt lat="45.776944169837094" lon="10.760043393409392"><ele>311.0</ele><time>2026-04-06T11:14:09Z</time></trkpt><trkpt lat="45.7770069391334" lon="10.759988394260644"><ele>311.0</ele><time>2026-04-06T11:14:10Z</time></trkpt><trkpt lat="45.77710694466379" lon="10.759921217809786"><ele>311.0</ele><time>2026-04-06T11:14:12Z</time></trkpt><trkpt lat="45.77716944397126" lon="10.759952632593684"><ele>311.0</ele><time>2026-04-06T11:14:13Z</time></trkpt><trkpt lat="45.77718821415629" lon="10.760141026090109"><ele>311.0</ele><time>2026-04-06T11:14:15Z</time></trkpt><trkpt lat="45.77711907658144" lon="10.760218982262533"><ele>311.0</ele><time>2026-04-06T11:14:16Z</time></trkpt><trkpt lat="45.77705090266754" lon="10.760313319779572"><ele>311.0</ele><time>2026-04-06T11:14:17Z</time></trkpt><trkpt lat="45.77700161066563" lon="10.760416451710055"><ele>311.0</ele><time>2026-04-06T11:14:18Z</time></trkpt><trkpt lat="45.77693877591271" lon="10.760478405965758"><ele>311.0</ele><time>2026-04-06T11:14:19Z</time></trkpt><trkpt lat="45.77687076393917" lon="10.760523627193592"><ele>311.0</ele><time>2026-04-06T11:14:20Z</time></trkpt><trkpt lat="45.776803858192096" lon="10.760562178614677"><ele>311.0</ele><time>2026-04-06T11:14:21Z</time></trkpt><trkpt lat="45.77673544115919" lon="10.760614631351388"><ele>311.0</ele><time>2026-04-06T11:14:22Z</time></trkpt><trkpt lat="45.77666670399943" lon="10.760671666936036"><ele>311.0</ele><time>2026-04-06T11:14:23Z</time></trkpt><trkpt lat="45.7766068318964" lon="10.760736858683723"><ele>311.0</ele><time>2026-04-06T11:14:24Z</time></trkpt><trkpt lat="45.77656853453239" lon="10.760813036002263"><ele>311.0</ele><time>2026-04-06T11:14:25Z</time></trkpt><trkpt lat="45.77649352509667" lon="10.76092460778131"><ele>311.0</ele><time>2026-04-06T11:14:27Z</time></trkpt><trkpt lat="45.77643049751391" lon="10.760931480206322"><ele>311.0</ele><time>2026-04-06T11:14:28Z</time></trkpt><trkpt lat="45.776370788826554" lon="10.76088382992349"><ele>311.0</ele><time>2026-04-06T11:14:29Z</time></trkpt><trkpt lat="45.77627164692956" lon="10.760820466184871"><ele>311.0</ele><time>2026-04-06T11:14:31Z</time></trkpt><trkpt lat="45.77624579550524" lon="10.760657098873324"><ele>311.0</ele><time>2026-04-06T11:14:33Z</time></trkpt><trkpt lat="45.77628850946972" lon="10.760568283716308"><ele>311.0</ele><time>2026-04-06T11:14:34Z</time></trkpt><trkpt lat="45.776295337998306" lon="10.760465533224966"><ele>311.0</ele><time>2026-04-06T11:14:35Z</time></trkpt><trkpt lat="45.77631277968331" lon="10.760368666236161"><ele>311.0</ele><time>2026-04-06T11:14:36Z</time></trkpt><trkpt lat="45.77632849522274" lon="10.760273091936375"><ele>311.0</ele><time>2026-04-06T11:14:37Z</time></trkpt><trkpt lat="45.77639735473288" lon="10.760116088843972"><ele>311.0</ele><time>2026-04-06T11:14:39Z</time></trkpt><trkpt lat="45.776514485351214" lon="10.76000858754318"><ele>311.0</ele><time>2026-04-06T11:14:41Z</time></trkpt><trkpt lat="45.7765767433372" lon="10.759938977335098"><ele>311.0</ele><time>2026-04-06T11:14:42Z</time></trkpt><trkpt lat="45.77666679336643" lon="10.759871262277091"><ele>311.0</ele><time>2026-04-06T11:14:44Z</time></trkpt><trkpt lat="45.77672490369204" lon="10.759827541807969"><ele>311.0</ele><time>2026-04-06T11:14:53Z</time></trkpt><trkpt lat="45.776801778930384" lon="10.759747749356269"><ele>311.0</ele><time>2026-04-06T11:14:55Z</time></trkpt><trkpt lat="45.77688102754984" lon="10.759630655591252"><ele>311.0</ele><time>2026-04-06T11:14:57Z</time></trkpt><trkpt lat="45.77696072218685" lon="10.759499578357646"><ele>311.0</ele><time>2026-04-06T11:14:59Z</time></trkpt><trkpt lat="45.7770457674278" lon="10.759374393075197"><ele>310.6666666666667</ele><time>2026-04-06T11:15:01Z</time></trkpt><trkpt lat="45.77712435165761" lon="10.759239238886277"><ele>310.33333333333337</ele><time>2026-04-06T11:15:03Z</time></trkpt><trkpt lat="45.77716483272205" lon="10.759164353035162"><ele>310.0</ele><time>2026-04-06T11:15:04Z</time></trkpt><trkpt lat="45.77720936049498" lon="10.759077433774952"><ele>309.6666666666667</ele><time>2026-04-06T11:15:05Z</time></trkpt><trkpt lat="45.77726365899531" lon="10.759000950539097"><ele>309.3333333333333</ele><time>2026-04-06T11:15:06Z</time></trkpt><trkpt lat="45.77731555684774" lon="10.758930820229493"><ele>309.0</ele><time>2026-04-06T11:15:07Z</time></trkpt><trkpt lat="45.77736792331004" lon="10.758860096422344"><ele>309.0</ele><time>2026-04-06T11:15:08Z</time></trkpt><trkpt lat="45.77741912121994" lon="10.758793358576163"><ele>309.0</ele><time>2026-04-06T11:15:09Z</time></trkpt><trkpt lat="45.77748521470285" lon="10.758719745163289"><ele>309.0</ele><time>2026-04-06T11:15:10Z</time></trkpt><trkpt lat="45.77754820435553" lon="10.75864887568997"><ele>309.0</ele><time>2026-04-06T11:15:11Z</time></trkpt><trkpt lat="45.77760057437107" lon="10.758580825132784"><ele>309.0</ele><time>2026-04-06T11:15:12Z</time></trkpt><trkpt lat="45.77765218443883" lon="10.758510171372732"><ele>309.0</ele><time>2026-04-06T11:15:13Z</time></trkpt><trkpt lat="45.77770916618176" lon="10.758433156323981"><ele>309.8333333333333</ele><time>2026-04-06T11:15:14Z</time></trkpt><trkpt lat="45.777773399476985" lon="10.758371064548887"><ele>310.6666666666667</ele><time>2026-04-06T11:15:15Z</time></trkpt><trkpt lat="45.77785633105095" lon="10.75834254824718"><ele>311.5</ele><time>2026-04-06T11:15:16Z</time></trkpt><trkpt lat="45.77794368465455" lon="10.758357898615484"><ele>312.33333333333337</ele><time>2026-04-06T11:15:17Z</time></trkpt><trkpt lat="45.778016160004036" lon="10.758425661923722"><ele>313.1666666666667</ele><time>2026-04-06T11:15:18Z</time></trkpt><trkpt lat="45.77805124723547" lon="10.758552782678105"><ele>314.0</ele><time>2026-04-06T11:15:19Z</time></trkpt><trkpt lat="45.778076194772105" lon="10.758670780249382"><ele>314.0</ele><time>2026-04-06T11:15:20Z</time></trkpt><trkpt lat="45.77804038365849" lon="10.758797003020433"><ele>314.0</ele><time>2026-04-06T11:15:21Z</time></trkpt><trkpt lat="45.777987942543916" lon="10.758916802553161"><ele>314.0</ele><time>2026-04-06T11:15:22Z</time></trkpt><trkpt lat="45.777958915861916" lon="10.759029145031441"><ele>314.0</ele><time>2026-04-06T11:15:23Z</time></trkpt><trkpt lat="45.77797473847553" lon="10.759127377960125"><ele>314.0</ele><time>2026-04-06T11:15:24Z</time></trkpt><trkpt lat="45.77802914997248" lon="10.759278881087502"><ele>313.99999999999994</ele><time>2026-04-06T11:15:26Z</time></trkpt><trkpt lat="45.77807005879255" lon="10.759365140508184"><ele>314.0</ele><time>2026-04-06T11:15:27Z</time></trkpt><trkpt lat="45.77811258571904" lon="10.75946594202091"><ele>314.0</ele><time>2026-04-06T11:15:28Z</time></trkpt><trkpt lat="45.77813644591357" lon="10.7595752740841"><ele>314.0</ele><time>2026-04-06T11:15:29Z</time></trkpt><trkpt lat="45.77817423295708" lon="10.759658211090875"><ele>314.0</ele><time>2026-04-06T11:15:30Z</time></trkpt><trkpt lat="45.778231132961196" lon="10.759707145818545"><ele>313.99999999999994</ele><time>2026-04-06T11:15:31Z</time></trkpt><trkpt lat="45.77830019265243" lon="10.759726340152929"><ele>314.0</ele><time>2026-04-06T11:15:32Z</time></trkpt><trkpt lat="45.77839552889927" lon="10.759689318448292"><ele>317.0</ele><time>2026-04-06T11:15:33Z</time></trkpt><trkpt lat="45.77848045766377" lon="10.759648690979065"><ele>320.0</ele><time>2026-04-06T11:15:34Z</time></trkpt><trkpt lat="45.77859892872974" lon="10.759564871226656"><ele>323.0</ele><time>2026-04-06T11:15:35.999Z</time></trkpt><trkpt lat="45.77868684686381" lon="10.759543403723073"><ele>326.0</ele><time>2026-04-06T11:15:36.999Z</time></trkpt><trkpt lat="45.77877556776904" lon="10.759498228592651"><ele>329.0</ele><time>2026-04-06T11:15:37.999Z</time></trkpt><trkpt lat="45.778844147744124" lon="10.759448574201034"><ele>331.6</ele><time>2026-04-06T11:15:38.999Z</time></trkpt><trkpt lat="45.77895876766564" lon="10.75945026725253"><ele>334.2</ele><time>2026-04-06T11:15:40.999Z</time></trkpt><trkpt lat="45.77908596424469" lon="10.75943271868684"><ele>336.8</ele><time>2026-04-06T11:15:42.999Z</time></trkpt><trkpt lat="45.779159873535356" lon="10.759450655655547"><ele>339.40000000000003</ele><time>2026-04-06T11:15:43.999Z</time></trkpt><trkpt lat="45.77924512292792" lon="10.759476321409814"><ele>342.0</ele><time>2026-04-06T11:15:44.999Z</time></trkpt><trkpt lat="45.77932793073122" lon="10.759503501178148"><ele>340.57142857142856</ele><time>2026-04-06T11:15:45.999Z</time></trkpt><trkpt lat="45.77939257303951" lon="10.759526569061249"><ele>339.1428571428571</ele><time>2026-04-06T11:15:47Z</time></trkpt><trkpt lat="45.779457559387744" lon="10.759550450956963"><ele>337.71428571428567</ele><time>2026-04-06T11:15:48Z</time></trkpt><trkpt lat="45.77953772386115" lon="10.759578242341354"><ele>336.2857142857143</ele><time>2026-04-06T11:15:49Z</time></trkpt><trkpt lat="45.77960488541329" lon="10.759595914733751"><ele>334.8571428571429</ele><time>2026-04-06T11:15:50Z</time></trkpt><trkpt lat="45.7796564107027" lon="10.75953663829331"><ele>333.4285714285714</ele><time>2026-04-06T11:15:51Z</time></trkpt><trkpt lat="45.77971519128662" lon="10.759467964441118"><ele>332.0</ele><time>2026-04-06T11:15:52Z</time></trkpt><trkpt lat="45.77976878747341" lon="10.759297787240929"><ele>332.0</ele><time>2026-04-06T11:15:54Z</time></trkpt><trkpt lat="45.77975967854144" lon="10.759188559740657"><ele>332.0</ele><time>2026-04-06T11:15:55Z</time></trkpt><trkpt lat="45.779703982714615" lon="10.759097332064139"><ele>332.0</ele><time>2026-04-06T11:15:56Z</time></trkpt><trkpt lat="45.77965027162367" lon="10.75904299436032"><ele>332.0</ele><time>2026-04-06T11:15:57Z</time></trkpt><trkpt lat="45.77958708344074" lon="10.758998098035745"><ele>332.0</ele><time>2026-04-06T11:15:58Z</time></trkpt><trkpt lat="45.77952629927384" lon="10.758953850005598"><ele>332.0</ele><time>2026-04-06T11:15:59Z</time></trkpt><trkpt lat="45.77946752604478" lon="10.758915502875455"><ele>332.0</ele><time>2026-04-06T11:16:00Z</time></trkpt><trkpt lat="45.77936176792358" lon="10.758850879915293"><ele>330.5</ele><time>2026-04-06T11:16:02Z</time></trkpt><trkpt lat="45.77924216662543" lon="10.758796564985023"><ele>329.0</ele><time>2026-04-06T11:16:03Z</time></trkpt><trkpt lat="45.779094219181864" lon="10.75876350274611"><ele>327.5</ele><time>2026-04-06T11:16:04Z</time></trkpt><trkpt lat="45.77898781275232" lon="10.758748672751066"><ele>326.0</ele><time>2026-04-06T11:16:05Z</time></trkpt><trkpt lat="45.7788859097152" lon="10.758738955823743"><ele>326.0</ele><time>2026-04-06T11:16:06Z</time></trkpt><trkpt lat="45.77879014754445" lon="10.758731297748625"><ele>326.0</ele><time>2026-04-06T11:16:07Z</time></trkpt><trkpt lat="45.778701991886535" lon="10.758698513261518"><ele>326.0</ele><time>2026-04-06T11:16:08Z</time></trkpt><trkpt lat="45.778617915375484" lon="10.758634505700275"><ele>326.0</ele><time>2026-04-06T11:16:09Z</time></trkpt><trkpt lat="45.77855733890944" lon="10.758579614054076"><ele>326.0</ele><time>2026-04-06T11:16:10Z</time></trkpt><trkpt lat="45.77849764866833" lon="10.758506737944966"><ele>326.0</ele><time>2026-04-06T11:16:12Z</time></trkpt><trkpt lat="45.778468633370984" lon="10.75842174097835"><ele>326.0</ele><time>2026-04-06T11:16:14Z</time></trkpt><trkpt lat="45.778483973129624" lon="10.758321965988955"><ele>326.0</ele><time>2026-04-06T11:16:15Z</time></trkpt><trkpt lat="45.77849143156093" lon="10.758217338603075"><ele>326.0</ele><time>2026-04-06T11:16:16Z</time></trkpt><trkpt lat="45.77849915273062" lon="10.758124118900662"><ele>326.0</ele><time>2026-04-06T11:16:17Z</time></trkpt><trkpt lat="45.77848338979321" lon="10.757929696537168"><ele>326.0</ele><time>2026-04-06T11:16:19Z</time></trkpt><trkpt lat="45.77840598593144" lon="10.757837723532804"><ele>326.0</ele><time>2026-04-06T11:16:20Z</time></trkpt><trkpt lat="45.77832457363007" lon="10.757785306437263"><ele>332.20000000000005</ele><time>2026-04-06T11:16:21Z</time></trkpt><trkpt lat="45.778261183573" lon="10.757694627776829"><ele>338.40000000000003</ele><time>2026-04-06T11:16:22Z</time></trkpt><trkpt lat="45.778182283225185" lon="10.757618989656386"><ele>344.6</ele><time>2026-04-06T11:16:23Z</time></trkpt><trkpt lat="45.778102649251" lon="10.757539495864584"><ele>350.8</ele><time>2026-04-06T11:16:24Z</time></trkpt><trkpt lat="45.7780493991659" lon="10.757445918218512"><ele>357.0</ele><time>2026-04-06T11:16:25Z</time></trkpt><trkpt lat="45.778040595631225" lon="10.757279119384757"><ele>357.0</ele><time>2026-04-06T11:16:28Z</time></trkpt><trkpt lat="45.7779969633762" lon="10.757118892356429"><ele>357.0</ele><time>2026-04-06T11:16:30Z</time></trkpt><trkpt lat="45.77791252965725" lon="10.757097227314054"><ele>357.0</ele><time>2026-04-06T11:16:31Z</time></trkpt><trkpt lat="45.77785060273001" lon="10.75705784449275"><ele>357.0</ele><time>2026-04-06T11:16:32Z</time></trkpt><trkpt lat="45.777797302561595" lon="10.756991034430117"><ele>357.0</ele><time>2026-04-06T11:16:33Z</time></trkpt><trkpt lat="45.777743994053424" lon="10.756850278142904"><ele>357.0</ele><time>2026-04-06T11:16:35Z</time></trkpt><trkpt lat="45.7776453866037" lon="10.756781977796297"><ele>357.0</ele><time>2026-04-06T11:16:37Z</time></trkpt><trkpt lat="45.77754435560425" lon="10.75685699996065"><ele>357.0</ele><time>2026-04-06T11:16:39Z</time></trkpt><trkpt lat="45.77750908812985" lon="10.756935245537337"><ele>357.0</ele><time>2026-04-06T11:16:40Z</time></trkpt><trkpt lat="45.77750919264056" lon="10.757048813336327"><ele>357.0</ele><time>2026-04-06T11:16:41Z</time></trkpt><trkpt lat="45.77750825625308" lon="10.757144988295652"><ele>357.0</ele><time>2026-04-06T11:16:42Z</time></trkpt><trkpt lat="45.7775082562543" lon="10.757243210537231"><ele>357.0</ele><time>2026-04-06T11:16:43Z</time></trkpt><trkpt lat="45.777508742261766" lon="10.757340989984241"><ele>357.0</ele><time>2026-04-06T11:16:44Z</time></trkpt><trkpt lat="45.77751228365242" lon="10.7575206430363"><ele>357.0</ele><time>2026-04-06T11:16:46Z</time></trkpt><trkpt lat="45.77750590743557" lon="10.757611368877688"><ele>357.0</ele><time>2026-04-06T11:16:47Z</time></trkpt><trkpt lat="45.77748930037839" lon="10.757717829510616"><ele>357.0</ele><time>2026-04-06T11:16:48Z</time></trkpt><trkpt lat="45.777456582052714" lon="10.757856063193193"><ele>357.0</ele><time>2026-04-06T11:16:49Z</time></trkpt><trkpt lat="45.7774015783482" lon="10.757994801128662"><ele>353.0</ele><time>2026-04-06T11:16:50Z</time></trkpt><trkpt lat="45.777341978204575" lon="10.758112573176911"><ele>349.0</ele><time>2026-04-06T11:16:51Z</time></trkpt><trkpt lat="45.77727477353439" lon="10.758180355453334"><ele>345.0</ele><time>2026-04-06T11:16:52Z</time></trkpt><trkpt lat="45.7772047959117" lon="10.758248311299152"><ele>341.0</ele><time>2026-04-06T11:16:53Z</time></trkpt><trkpt lat="45.777122027222106" lon="10.758318819759845"><ele>337.0</ele><time>2026-04-06T11:16:54Z</time></trkpt><trkpt lat="45.77703297074074" lon="10.758389699021995"><ele>337.0</ele><time>2026-04-06T11:16:55Z</time></trkpt><trkpt lat="45.7769424870542" lon="10.758445635575358"><ele>337.0</ele><time>2026-04-06T11:16:56Z</time></trkpt><trkpt lat="45.77682115455004" lon="10.758502142119571"><ele>337.0</ele><time>2026-04-06T11:16:57Z</time></trkpt><trkpt lat="45.7767397631572" lon="10.758531280637756"><ele>337.0</ele><time>2026-04-06T11:16:58Z</time></trkpt><trkpt lat="45.776662286683646" lon="10.758591119358735"><ele>337.0</ele><time>2026-04-06T11:16:59Z</time></trkpt><trkpt lat="45.77659213854265" lon="10.758627014655184"><ele>337.8</ele><time>2026-04-06T11:17:00Z</time></trkpt><trkpt lat="45.77651500486938" lon="10.758676155847905"><ele>338.6</ele><time>2026-04-06T11:17:01Z</time></trkpt><trkpt lat="45.77643396425184" lon="10.75871008694944"><ele>339.40000000000003</ele><time>2026-04-06T11:17:02Z</time></trkpt><trkpt lat="45.776339110539325" lon="10.758730641408878"><ele>340.20000000000005</ele><time>2026-04-06T11:17:03Z</time></trkpt><trkpt lat="45.77623187484389" lon="10.75873579445825"><ele>341.0</ele><time>2026-04-06T11:17:04Z</time></trkpt><trkpt lat="45.77615700789882" lon="10.758771441586816"><ele>341.0</ele><time>2026-04-06T11:17:05Z</time></trkpt><trkpt lat="45.77608834187018" lon="10.75875722915688"><ele>341.0</ele><time>2026-04-06T11:17:06Z</time></trkpt><trkpt lat="45.77602263013494" lon="10.75877042713322"><ele>341.0</ele><time>2026-04-06T11:17:07Z</time></trkpt><trkpt lat="45.77591100119014" lon="10.758871480796213"><ele>341.0</ele><time>2026-04-06T11:17:09Z</time></trkpt><trkpt lat="45.77585280999375" lon="10.758960965551795"><ele>341.0</ele><time>2026-04-06T11:17:10Z</time></trkpt><trkpt lat="45.775868186335785" lon="10.759136767191618"><ele>344.0</ele><time>2026-04-06T11:17:11Z</time></trkpt><trkpt lat="45.775857839545054" lon="10.759290412948854"><ele>347.0</ele><time>2026-04-06T11:17:12Z</time></trkpt><trkpt lat="45.77580657057234" lon="10.759399793534204"><ele>350.0</ele><time>2026-04-06T11:17:13Z</time></trkpt><trkpt lat="45.77574665659197" lon="10.759524936972056"><ele>353.0</ele><time>2026-04-06T11:17:14Z</time></trkpt><trkpt lat="45.775683314557426" lon="10.759696317361309"><ele>356.0</ele><time>2026-04-06T11:17:15Z</time></trkpt><trkpt lat="45.775636148789076" lon="10.759839730254516"><ele>356.0</ele><time>2026-04-06T11:17:16Z</time></trkpt><trkpt lat="45.77557920831906" lon="10.759973297800153"><ele>356.0</ele><time>2026-04-06T11:17:17Z</time></trkpt><trkpt lat="45.77551067859794" lon="10.760111618088215"><ele>356.0</ele><time>2026-04-06T11:17:18Z</time></trkpt><trkpt lat="45.775429890266345" lon="10.760232488269866"><ele>356.0</ele><time>2026-04-06T11:17:19Z</time></trkpt><trkpt lat="45.775365098571875" lon="10.760362723817684"><ele>353.20000000000005</ele><time>2026-04-06T11:17:20Z</time></trkpt><trkpt lat="45.77528505478827" lon="10.76049390350554"><ele>350.40000000000003</ele><time>2026-04-06T11:17:21Z</time></trkpt><trkpt lat="45.775210522265745" lon="10.76060451816329"><ele>347.6</ele><time>2026-04-06T11:17:22Z</time></trkpt><trkpt lat="45.77514549056129" lon="10.760717801966184"><ele>344.8</ele><time>2026-04-06T11:17:23Z</time></trkpt><trkpt lat="45.77507113043967" lon="10.760829365588314"><ele>342.0</ele><time>2026-04-06T11:17:24Z</time></trkpt><trkpt lat="45.774997381959764" lon="10.760927355485444"><ele>344.40000000000003</ele><time>2026-04-06T11:17:25Z</time></trkpt><trkpt lat="45.774917085884134" lon="10.760998756302813"><ele>346.8</ele><time>2026-04-06T11:17:26Z</time></trkpt><trkpt lat="45.77481171661417" lon="10.761029313506025"><ele>349.2</ele><time>2026-04-06T11:17:27Z</time></trkpt><trkpt lat="45.774692949387834" lon="10.761035858067247"><ele>351.6</ele><time>2026-04-06T11:17:28Z</time></trkpt><trkpt lat="45.77457944304745" lon="10.761060166801883"><ele>354.0</ele><time>2026-04-06T11:17:29Z</time></trkpt><trkpt lat="45.77448275838983" lon="10.761117680808406"><ele>354.0</ele><time>2026-04-06T11:17:30Z</time></trkpt><trkpt lat="45.774402587996235" lon="10.761191543116986"><ele>354.0</ele><time>2026-04-06T11:17:31Z</time></trkpt><trkpt lat="45.774313518966196" lon="10.761252400212006"><ele>354.0</ele><time>2026-04-06T11:17:32Z</time></trkpt><trkpt lat="45.77420887749077" lon="10.761280819694168"><ele>354.0</ele><time>2026-04-06T11:17:33Z</time></trkpt><trkpt lat="45.77409407475867" lon="10.761302104295334"><ele>354.0</ele><time>2026-04-06T11:17:34Z</time></trkpt><trkpt lat="45.773978486619065" lon="10.761331798088124"><ele>356.6</ele><time>2026-04-06T11:17:35Z</time></trkpt><trkpt lat="45.77386863328958" lon="10.76138322341959"><ele>359.2</ele><time>2026-04-06T11:17:36Z</time></trkpt><trkpt lat="45.77378043135062" lon="10.76144795542839"><ele>361.8</ele><time>2026-04-06T11:17:37Z</time></trkpt><trkpt lat="45.77370481790739" lon="10.76150349298835"><ele>364.40000000000003</ele><time>2026-04-06T11:17:37.999Z</time></trkpt><trkpt lat="45.773629980896416" lon="10.761539799952828"><ele>367.0</ele><time>2026-04-06T11:17:38.999Z</time></trkpt><trkpt lat="45.77353590656382" lon="10.761574128618067"><ele>369.20000000000005</ele><time>2026-04-06T11:17:39.999Z</time></trkpt><trkpt lat="45.77343898481154" lon="10.761559179526794"><ele>371.4</ele><time>2026-04-06T11:17:40.999Z</time></trkpt><trkpt lat="45.77335606381116" lon="10.76148015923601"><ele>373.6</ele><time>2026-04-06T11:17:41.999Z</time></trkpt><trkpt lat="45.77327032132042" lon="10.76143356699814"><ele>375.79999999999995</ele><time>2026-04-06T11:17:42.999Z</time></trkpt><trkpt lat="45.773185702378136" lon="10.761360803757183"><ele>378.0</ele><time>2026-04-06T11:17:43.999Z</time></trkpt><trkpt lat="45.77309876665876" lon="10.761286929040894"><ele>378.0</ele><time>2026-04-06T11:17:44.999Z</time></trkpt><trkpt lat="45.773027908616896" lon="10.761211071290196"><ele>378.0</ele><time>2026-04-06T11:17:45.999Z</time></trkpt><trkpt lat="45.77296574392137" lon="10.76113113621145"><ele>378.0</ele><time>2026-04-06T11:17:46.999Z</time></trkpt><trkpt lat="45.77290515845573" lon="10.761039693506003"><ele>378.0</ele><time>2026-04-06T11:17:47.999Z</time></trkpt><trkpt lat="45.77284337939007" lon="10.760952511413041"><ele>378.0</ele><time>2026-04-06T11:17:48.999Z</time></trkpt><trkpt lat="45.77277842856902" lon="10.760864950006374"><ele>378.0</ele><time>2026-04-06T11:17:49.999Z</time></trkpt><trkpt lat="45.77271224684639" lon="10.760785569673304"><ele>381.2</ele><time>2026-04-06T11:17:50.999Z</time></trkpt><trkpt lat="45.772635827943006" lon="10.760729232312423"><ele>384.4</ele><time>2026-04-06T11:17:51.999Z</time></trkpt><trkpt lat="45.772549016294" lon="10.76071344303869"><ele>387.59999999999997</ele><time>2026-04-06T11:17:53Z</time></trkpt><trkpt lat="45.77246228669541" lon="10.760734225523436"><ele>390.79999999999995</ele><time>2026-04-06T11:17:54Z</time></trkpt><trkpt lat="45.77238549185807" lon="10.760813724669019"><ele>394.0</ele><time>2026-04-06T11:17:55Z</time></trkpt><trkpt lat="45.77232659340446" lon="10.760922588775133"><ele>393.00000000000006</ele><time>2026-04-06T11:17:56Z</time></trkpt><trkpt lat="45.77228894140772" lon="10.761037757037277"><ele>392.0</ele><time>2026-04-06T11:17:57Z</time></trkpt><trkpt lat="45.77225950448177" lon="10.761136147963118"><ele>391.0</ele><time>2026-04-06T11:17:58Z</time></trkpt><trkpt lat="45.772230761500566" lon="10.76122396017537"><ele>390.0</ele><time>2026-04-06T11:17:59Z</time></trkpt><trkpt lat="45.77220353154392" lon="10.761318020766529"><ele>389.00000000000006</ele><time>2026-04-06T11:18:00Z</time></trkpt><trkpt lat="45.77218410120271" lon="10.761444441164226"><ele>388.0</ele><time>2026-04-06T11:18:01Z</time></trkpt><trkpt lat="45.77217791274053" lon="10.761587299301938"><ele>388.00000000000006</ele><time>2026-04-06T11:18:02Z</time></trkpt><trkpt lat="45.772205135932" lon="10.761736427760413"><ele>388.0</ele><time>2026-04-06T11:18:03Z</time></trkpt><trkpt lat="45.7722376459724" lon="10.761860576434378"><ele>388.0</ele><time>2026-04-06T11:18:04Z</time></trkpt><trkpt lat="45.77225467934655" lon="10.761953004706479"><ele>388.0</ele><time>2026-04-06T11:18:05Z</time></trkpt><trkpt lat="45.77220548586936" lon="10.762064251302276"><ele>388.00000000000006</ele><time>2026-04-06T11:18:07Z</time></trkpt><trkpt lat="45.77211922602023" lon="10.762063658866033"><ele>388.0</ele><time>2026-04-06T11:18:09Z</time></trkpt><trkpt lat="45.77203942283286" lon="10.761942955065939"><ele>388.00000000000006</ele><time>2026-04-06T11:18:11Z</time></trkpt><trkpt lat="45.77204730010839" lon="10.761832766315008"><ele>388.0</ele><time>2026-04-06T11:18:12Z</time></trkpt><trkpt lat="45.77207721668135" lon="10.761729585117891"><ele>388.0</ele><time>2026-04-06T11:18:13Z</time></trkpt><trkpt lat="45.77209752881683" lon="10.761630547235395"><ele>388.0</ele><time>2026-04-06T11:18:14Z</time></trkpt><trkpt lat="45.77210794845862" lon="10.761513350633207"><ele>388.00000000000006</ele><time>2026-04-06T11:18:15Z</time></trkpt><trkpt lat="45.77212363698036" lon="10.761391920007513"><ele>388.0</ele><time>2026-04-06T11:18:16Z</time></trkpt><trkpt lat="45.772143766182296" lon="10.761268795182682"><ele>388.00000000000006</ele><time>2026-04-06T11:18:17Z</time></trkpt><trkpt lat="45.7721494294764" lon="10.761151607708035"><ele>388.0</ele><time>2026-04-06T11:18:18Z</time></trkpt><trkpt lat="45.77214242545223" lon="10.761052519839835"><ele>388.0</ele><time>2026-04-06T11:18:19Z</time></trkpt><trkpt lat="45.77211297164124" lon="10.760920358491651"><ele>388.0</ele><time>2026-04-06T11:18:21Z</time></trkpt><trkpt lat="45.772074999042495" lon="10.760807790314812"><ele>388.00000000000006</ele><time>2026-04-06T11:18:23Z</time></trkpt><trkpt lat="45.7720376952721" lon="10.76068767720768"><ele>388.0</ele><time>2026-04-06T11:18:25Z</time></trkpt><trkpt lat="45.77200668406212" lon="10.760572866233442"><ele>388.85714285714283</ele><time>2026-04-06T11:18:27Z</time></trkpt><trkpt lat="45.771984267401905" lon="10.76048763966785"><ele>389.7142857142857</ele><time>2026-04-06T11:18:29Z</time></trkpt><trkpt lat="45.7719782136466" lon="10.760384368498872"><ele>390.57142857142856</ele><time>2026-04-06T11:18:31Z</time></trkpt><trkpt lat="45.772001731609535" lon="10.760293683241573"><ele>391.42857142857144</ele><time>2026-04-06T11:18:33Z</time></trkpt><trkpt lat="45.772058607253456" lon="10.760210512091577"><ele>392.28571428571433</ele><time>2026-04-06T11:18:36Z</time></trkpt><trkpt lat="45.7721165562657" lon="10.76016494790059"><ele>393.14285714285717</ele><time>2026-04-06T11:18:38Z</time></trkpt><trkpt lat="45.77219874711633" lon="10.76012790689405"><ele>394.0</ele><time>2026-04-06T11:18:40Z</time></trkpt><trkpt lat="45.77226345517272" lon="10.760125469628775"><ele>396.2</ele><time>2026-04-06T11:19:03Z</time></trkpt><trkpt lat="45.77238569760278" lon="10.760069571217084"><ele>398.4</ele><time>2026-04-06T11:19:05Z</time></trkpt><trkpt lat="45.77249468454791" lon="10.76003597397449"><ele>400.6</ele><time>2026-04-06T11:19:06Z</time></trkpt><trkpt lat="45.77258833182212" lon="10.760001334028175"><ele>402.8</ele><time>2026-04-06T11:19:07Z</time></trkpt><trkpt lat="45.77267059142029" lon="10.759970546320298"><ele>405.0</ele><time>2026-04-06T11:19:08Z</time></trkpt><trkpt lat="45.772759138450525" lon="10.759939830829401"><ele>405.3333333333333</ele><time>2026-04-06T11:19:09Z</time></trkpt><trkpt lat="45.77284862687957" lon="10.759913320687234"><ele>405.66666666666663</ele><time>2026-04-06T11:19:10Z</time></trkpt><trkpt lat="45.77293135117417" lon="10.759887047158216"><ele>406.0</ele><time>2026-04-06T11:19:11Z</time></trkpt><trkpt lat="45.773019208691466" lon="10.759855422682989"><ele>406.3333333333333</ele><time>2026-04-06T11:19:12Z</time></trkpt><trkpt lat="45.77310613503511" lon="10.759820034756288"><ele>406.66666666666663</ele><time>2026-04-06T11:19:13Z</time></trkpt><trkpt lat="45.773185664424005" lon="10.759773846258891"><ele>407.0</ele><time>2026-04-06T11:19:14Z</time></trkpt><trkpt lat="45.77325499134847" lon="10.759722546654716"><ele>406.99999999999994</ele><time>2026-04-06T11:19:15Z</time></trkpt><trkpt lat="45.77330949038508" lon="10.759672986318932"><ele>407.0</ele><time>2026-04-06T11:19:16Z</time></trkpt><trkpt lat="45.77339288457006" lon="10.759587940872423"><ele>407.0</ele><time>2026-04-06T11:19:18Z</time></trkpt><trkpt lat="45.77347554272904" lon="10.759514364996466"><ele>407.0</ele><time>2026-04-06T11:19:20Z</time></trkpt><trkpt lat="45.77354673906746" lon="10.759447017000971"><ele>406.99999999999994</ele><time>2026-04-06T11:19:22Z</time></trkpt><trkpt lat="45.773608771940175" lon="10.75949136639507"><ele>407.0</ele><time>2026-04-06T11:19:25Z</time></trkpt><trkpt lat="45.77356321791695" lon="10.759554173180637"><ele>407.0</ele><time>2026-04-06T11:19:32.999Z</time></trkpt><trkpt lat="45.77341191603433" lon="10.759639372221589"><ele>407.0</ele><time>2026-04-06T11:19:50.999Z</time></trkpt><trkpt lat="45.773333901378656" lon="10.759710561782404"><ele>407.0</ele><time>2026-04-06T11:19:53.999Z</time></trkpt><trkpt lat="45.773214559494114" lon="10.759819463090741"><ele>407.0</ele><time>2026-04-06T11:19:55.999Z</time></trkpt><trkpt lat="45.77308150567009" lon="10.759777378369163"><ele>407.0</ele><time>2026-04-06T11:19:56.999Z</time></trkpt><trkpt lat="45.77299060227084" lon="10.759809412469224"><ele>407.0</ele><time>2026-04-06T11:19:57.999Z</time></trkpt><trkpt lat="45.772901976049106" lon="10.759839088981904"><ele>407.0</ele><time>2026-04-06T11:19:59Z</time></trkpt><trkpt lat="45.77279644148163" lon="10.759873241800063"><ele>407.0</ele><time>2026-04-06T11:20:00Z</time></trkpt><trkpt lat="45.77270743773811" lon="10.759910506816944"><ele>407.0</ele><time>2026-04-06T11:20:01Z</time></trkpt><trkpt lat="45.772558149238684" lon="10.759965132233134"><ele>406.66666666666663</ele><time>2026-04-06T11:20:03Z</time></trkpt><trkpt lat="45.772465177297" lon="10.760006442438815"><ele>406.3333333333333</ele><time>2026-04-06T11:20:04Z</time></trkpt><trkpt lat="45.77236843275911" lon="10.760046316165472"><ele>406.0</ele><time>2026-04-06T11:20:05Z</time></trkpt><trkpt lat="45.77228372818084" lon="10.760078900817664"><ele>405.66666666666663</ele><time>2026-04-06T11:20:06Z</time></trkpt><trkpt lat="45.77220988076785" lon="10.760103095476584"><ele>405.3333333333333</ele><time>2026-04-06T11:20:07Z</time></trkpt><trkpt lat="45.772142932540724" lon="10.76012285664786"><ele>405.0</ele><time>2026-04-06T11:20:08Z</time></trkpt><trkpt lat="45.77207729796626" lon="10.760146407125562"><ele>405.0</ele><time>2026-04-06T11:20:09Z</time></trkpt><trkpt lat="45.7719744843774" lon="10.760175835526141"><ele>405.0</ele><time>2026-04-06T11:20:11Z</time></trkpt><trkpt lat="45.77191531311219" lon="10.760215276382501"><ele>405.0</ele><time>2026-04-06T11:20:13Z</time></trkpt><trkpt lat="45.77191534319047" lon="10.76031844190097"><ele>405.0</ele><time>2026-04-06T11:20:30Z</time></trkpt><trkpt lat="45.77194777776195" lon="10.76051500702511"><ele>405.0</ele><time>2026-04-06T11:20:57Z</time></trkpt><trkpt lat="45.77199804071675" lon="10.760656996596635"><ele>402.8</ele><time>2026-04-06T11:20:58Z</time></trkpt><trkpt lat="45.772055349804646" lon="10.760828257240656"><ele>400.6</ele><time>2026-04-06T11:20:59Z</time></trkpt><trkpt lat="45.772097965360985" lon="10.760984170260654"><ele>398.4</ele><time>2026-04-06T11:21:00Z</time></trkpt><trkpt lat="45.77212009186804" lon="10.761127200430055"><ele>396.2</ele><time>2026-04-06T11:21:01Z</time></trkpt><trkpt lat="45.77211675253352" lon="10.761265567393746"><ele>394.0</ele><time>2026-04-06T11:21:02Z</time></trkpt><trkpt lat="45.77209482581746" lon="10.761409539273899"><ele>393.00000000000006</ele><time>2026-04-06T11:21:03Z</time></trkpt><trkpt lat="45.772073348853176" lon="10.761561555156991"><ele>392.0</ele><time>2026-04-06T11:21:04Z</time></trkpt><trkpt lat="45.77205186586797" lon="10.76169792565467"><ele>391.0</ele><time>2026-04-06T11:21:05Z</time></trkpt><trkpt lat="45.772038458951315" lon="10.761803178333617"><ele>390.0</ele><time>2026-04-06T11:21:06Z</time></trkpt><trkpt lat="45.77203087436584" lon="10.761907119917463"><ele>389.00000000000006</ele><time>2026-04-06T11:21:07Z</time></trkpt><trkpt lat="45.77203950183029" lon="10.762011799866274"><ele>388.0</ele><time>2026-04-06T11:21:08Z</time></trkpt><trkpt lat="45.77207369559523" lon="10.76210393356818"><ele>388.0</ele><time>2026-04-06T11:21:09Z</time></trkpt><trkpt lat="45.772165330472944" lon="10.762092531943953"><ele>388.0</ele><time>2026-04-06T11:21:10Z</time></trkpt><trkpt lat="45.77223656246326" lon="10.762073854279596"><ele>388.0</ele><time>2026-04-06T11:21:11Z</time></trkpt><trkpt lat="45.77227319156232" lon="10.7619607455786"><ele>388.0</ele><time>2026-04-06T11:21:12Z</time></trkpt><trkpt lat="45.77228148528081" lon="10.761824612881322"><ele>388.0</ele><time>2026-04-06T11:21:13Z</time></trkpt><trkpt lat="45.77223497852433" lon="10.761674690577022"><ele>388.0</ele><time>2026-04-06T11:21:14Z</time></trkpt><trkpt lat="45.77219793377989" lon="10.761528833933653"><ele>388.0</ele><time>2026-04-06T11:21:15Z</time></trkpt><trkpt lat="45.77222060779034" lon="10.761343466311468"><ele>388.0</ele><time>2026-04-06T11:21:16Z</time></trkpt><trkpt lat="45.77226223924583" lon="10.761163521414709"><ele>388.0</ele><time>2026-04-06T11:21:17Z</time></trkpt><trkpt lat="45.77231731868757" lon="10.761014620806673"><ele>389.2</ele><time>2026-04-06T11:21:18Z</time></trkpt><trkpt lat="45.77236987082827" lon="10.760906893994882"><ele>390.4</ele><time>2026-04-06T11:21:19Z</time></trkpt><trkpt lat="45.77242431040482" lon="10.760812853239226"><ele>391.59999999999997</ele><time>2026-04-06T11:21:20Z</time></trkpt><trkpt lat="45.772504824917654" lon="10.760772912331651"><ele>392.79999999999995</ele><time>2026-04-06T11:21:21Z</time></trkpt><trkpt lat="45.77260206458856" lon="10.760770524983899"><ele>394.0</ele><time>2026-04-06T11:21:21.999Z</time></trkpt><trkpt lat="45.772705008882326" lon="10.76082771389263"><ele>395.5</ele><time>2026-04-06T11:21:22.999Z</time></trkpt><trkpt lat="45.772786579612855" lon="10.76093410433721"><ele>397.0</ele><time>2026-04-06T11:21:23.999Z</time></trkpt><trkpt lat="45.77288126505804" lon="10.76106748665775"><ele>398.5</ele><time>2026-04-06T11:21:24.999Z</time></trkpt><trkpt lat="45.772987556079805" lon="10.761178803038602"><ele>400.0</ele><time>2026-04-06T11:21:25.999Z</time></trkpt><trkpt lat="45.77310485232603" lon="10.761310004337094"><ele>394.5</ele><time>2026-04-06T11:21:26.999Z</time></trkpt><trkpt lat="45.77323182485281" lon="10.761418136206288"><ele>389.0</ele><time>2026-04-06T11:21:27.999Z</time></trkpt><trkpt lat="45.77334687827227" lon="10.76151211475388"><ele>383.5</ele><time>2026-04-06T11:21:28.999Z</time></trkpt><trkpt lat="45.77344521558587" lon="10.761579585456497"><ele>378.0</ele><time>2026-04-06T11:21:29.999Z</time></trkpt><trkpt lat="45.773533425695" lon="10.761611869389883"><ele>375.25</ele><time>2026-04-06T11:21:30.999Z</time></trkpt><trkpt lat="45.77363674311184" lon="10.761593952655799"><ele>372.5</ele><time>2026-04-06T11:21:31.999Z</time></trkpt><trkpt lat="45.773749121790644" lon="10.761525869045757"><ele>369.75</ele><time>2026-04-06T11:21:32.999Z</time></trkpt><trkpt lat="45.77386463683462" lon="10.76142911902882"><ele>367.0</ele><time>2026-04-06T11:21:33.999Z</time></trkpt><trkpt lat="45.774006509637175" lon="10.761345020893645"><ele>367.0</ele><time>2026-04-06T11:21:34.999Z</time></trkpt><trkpt lat="45.774202752320335" lon="10.761320180054279"><ele>367.0</ele><time>2026-04-06T11:21:35.999Z</time></trkpt><trkpt lat="45.77440479513787" lon="10.761237338682177"><ele>367.0</ele><time>2026-04-06T11:21:36.999Z</time></trkpt><trkpt lat="45.774596880478555" lon="10.761138566212738"><ele>368.3333333333333</ele><time>2026-04-06T11:21:37.999Z</time></trkpt><trkpt lat="45.774776074508836" lon="10.761059479643247"><ele>369.6666666666667</ele><time>2026-04-06T11:21:38.999Z</time></trkpt><trkpt lat="45.77496329792079" lon="10.76101089807107"><ele>371.0</ele><time>2026-04-06T11:21:39.999Z</time></trkpt><trkpt lat="45.77510014392954" lon="10.760961416403436"><ele>371.0</ele><time>2026-04-06T11:21:40.999Z</time></trkpt><trkpt lat="45.77515352802324" lon="10.760854380900842"><ele>371.0</ele><time>2026-04-06T11:21:41.999Z</time></trkpt><trkpt lat="45.775243240761775" lon="10.760696489039791"><ele>371.0</ele><time>2026-04-06T11:21:42.999Z</time></trkpt><trkpt lat="45.77533793813393" lon="10.76050411408759"><ele>371.0</ele><time>2026-04-06T11:21:45.999Z</time></trkpt><trkpt lat="45.775418097220744" lon="10.760375956467586"><ele>367.25</ele><time>2026-04-06T11:21:46.999Z</time></trkpt><trkpt lat="45.775503586576676" lon="10.760238629324718"><ele>363.5</ele><time>2026-04-06T11:21:47.999Z</time></trkpt><trkpt lat="45.775597526911426" lon="10.760078629689774"><ele>359.75</ele><time>2026-04-06T11:21:48.999Z</time></trkpt><trkpt lat="45.77568504797358" lon="10.75989843791043"><ele>356.0</ele><time>2026-04-06T11:21:49.999Z</time></trkpt><trkpt lat="45.77575304146304" lon="10.759710056807211"><ele>356.0</ele><time>2026-04-06T11:21:50.999Z</time></trkpt><trkpt lat="45.775816994743344" lon="10.759529958477778"><ele>356.0</ele><time>2026-04-06T11:21:51.999Z</time></trkpt><trkpt lat="45.775888232350574" lon="10.759376198398607"><ele>356.0</ele><time>2026-04-06T11:21:52.999Z</time></trkpt><trkpt lat="45.77594291328188" lon="10.759234150245948"><ele>356.0</ele><time>2026-04-06T11:21:53.999Z</time></trkpt><trkpt lat="45.775949031275715" lon="10.759141760660015"><ele>356.0</ele><time>2026-04-06T11:21:54.999Z</time></trkpt><trkpt lat="45.77594422562923" lon="10.759011445996494"><ele>357.8</ele><time>2026-04-06T11:21:55.999Z</time></trkpt><trkpt lat="45.775934112737524" lon="10.758890057131532"><ele>359.6</ele><time>2026-04-06T11:21:56.999Z</time></trkpt><trkpt lat="45.775968581623914" lon="10.758800664596897"><ele>361.4</ele><time>2026-04-06T11:21:57.999Z</time></trkpt><trkpt lat="45.7760517176567" lon="10.758739155807156"><ele>363.2</ele><time>2026-04-06T11:21:58.999Z</time></trkpt><trkpt lat="45.776183815478255" lon="10.758791287749938"><ele>365.0</ele><time>2026-04-06T11:21:59.999Z</time></trkpt><trkpt lat="45.77632841891724" lon="10.758767346242758"><ele>366.0</ele><time>2026-04-06T11:22:00.999Z</time></trkpt><trkpt lat="45.776485940119315" lon="10.758718865334401"><ele>367.0</ele><time>2026-04-06T11:22:01.999Z</time></trkpt><trkpt lat="45.776652614438575" lon="10.758628535893063"><ele>368.0</ele><time>2026-04-06T11:22:02.999Z</time></trkpt><trkpt lat="45.77681005685547" lon="10.758533323668967"><ele>360.25</ele><time>2026-04-06T11:22:03.999Z</time></trkpt><trkpt lat="45.77696535281186" lon="10.758484464605605"><ele>352.5</ele><time>2026-04-06T11:22:05Z</time></trkpt><trkpt lat="45.77709531360959" lon="10.758396622619479"><ele>344.75</ele><time>2026-04-06T11:22:06Z</time></trkpt><trkpt lat="45.77721594473859" lon="10.758308550095807"><ele>337.0</ele><time>2026-04-06T11:22:07Z</time></trkpt><trkpt lat="45.77730331308154" lon="10.758230000633224"><ele>337.0</ele><time>2026-04-06T11:22:08Z</time></trkpt><trkpt lat="45.77736686400498" lon="10.758149020996985"><ele>337.0</ele><time>2026-04-06T11:22:09Z</time></trkpt><trkpt lat="45.77742899078464" lon="10.758057892742594"><ele>337.0</ele><time>2026-04-06T11:22:10Z</time></trkpt><trkpt lat="45.77747875927419" lon="10.757956516036778"><ele>337.0</ele><time>2026-04-06T11:22:11Z</time></trkpt><trkpt lat="45.777512685823154" lon="10.757863156447542"><ele>337.0</ele><time>2026-04-06T11:22:12Z</time></trkpt><trkpt lat="45.77754724285779" lon="10.757754009705637"><ele>337.0</ele><time>2026-04-06T11:22:13Z</time></trkpt><trkpt lat="45.77757640879659" lon="10.757618539553249"><ele>341.0</ele><time>2026-04-06T11:22:14Z</time></trkpt><trkpt lat="45.77756987043872" lon="10.757475951846896"><ele>345.0</ele><time>2026-04-06T11:22:15Z</time></trkpt><trkpt lat="45.77756201178049" lon="10.757335821229201"><ele>349.0</ele><time>2026-04-06T11:22:16Z</time></trkpt><trkpt lat="45.77755473920577" lon="10.757192313200616"><ele>353.0</ele><time>2026-04-06T11:22:17Z</time></trkpt><trkpt lat="45.77754231075472" lon="10.75705557925199"><ele>357.0</ele><time>2026-04-06T11:22:18Z</time></trkpt><trkpt lat="45.77754540851726" lon="10.756950088021917"><ele>357.0</ele><time>2026-04-06T11:22:19Z</time></trkpt><trkpt lat="45.77757727983717" lon="10.756824850753832"><ele>357.0</ele><time>2026-04-06T11:22:21Z</time></trkpt><trkpt lat="45.777713327793435" lon="10.756850776715472"><ele>357.0</ele><time>2026-04-06T11:22:23Z</time></trkpt><trkpt lat="45.777752894541315" lon="10.756974190043517"><ele>357.0</ele><time>2026-04-06T11:22:24Z</time></trkpt><trkpt lat="45.77782570358569" lon="10.757076981728826"><ele>357.0</ele><time>2026-04-06T11:22:25Z</time></trkpt><trkpt lat="45.77791448194157" lon="10.75715128155278"><ele>357.0</ele><time>2026-04-06T11:22:26Z</time></trkpt><trkpt lat="45.77800930070587" lon="10.757199606197283"><ele>357.0</ele><time>2026-04-06T11:22:27Z</time></trkpt><trkpt lat="45.77805833692128" lon="10.757292275727405"><ele>357.0</ele><time>2026-04-06T11:22:28Z</time></trkpt><trkpt lat="45.77802491702583" lon="10.75743142909671"><ele>357.0</ele><time>2026-04-06T11:22:29Z</time></trkpt><trkpt lat="45.77804191605852" lon="10.75753284826613"><ele>357.0</ele><time>2026-04-06T11:22:30Z</time></trkpt><trkpt lat="45.77809758216468" lon="10.757625535493172"><ele>357.0</ele><time>2026-04-06T11:22:31Z</time></trkpt><trkpt lat="45.77819446155246" lon="10.757708526388495"><ele>350.8</ele><time>2026-04-06T11:22:32Z</time></trkpt><trkpt lat="45.778302942955285" lon="10.757795590767723"><ele>344.6</ele><time>2026-04-06T11:22:33Z</time></trkpt><trkpt lat="45.77840251761677" lon="10.757877725861968"><ele>338.40000000000003</ele><time>2026-04-06T11:22:34Z</time></trkpt><trkpt lat="45.7784774189798" lon="10.75796094411037"><ele>332.20000000000005</ele><time>2026-04-06T11:22:35Z</time></trkpt><trkpt lat="45.77851309025621" lon="10.758061780743361"><ele>326.0</ele><time>2026-04-06T11:22:36Z</time></trkpt><trkpt lat="45.77847206067169" lon="10.758194596308854"><ele>326.0</ele><time>2026-04-06T11:22:37Z</time></trkpt><trkpt lat="45.77845747059971" lon="10.7583312942014"><ele>326.0</ele><time>2026-04-06T11:22:38Z</time></trkpt><trkpt lat="45.77845845815103" lon="10.758446197608277"><ele>326.0</ele><time>2026-04-06T11:22:39Z</time></trkpt><trkpt lat="45.778467458348786" lon="10.7585439426065"><ele>326.0</ele><time>2026-04-06T11:22:40Z</time></trkpt><trkpt lat="45.7785157235039" lon="10.758622633632976"><ele>326.0</ele><time>2026-04-06T11:22:41Z</time></trkpt><trkpt lat="45.778589261447706" lon="10.758670932482225"><ele>326.0</ele><time>2026-04-06T11:22:42Z</time></trkpt><trkpt lat="45.77866411099813" lon="10.758715979767182"><ele>326.0</ele><time>2026-04-06T11:22:43Z</time></trkpt><trkpt lat="45.778737734087784" lon="10.758762140039039"><ele>326.0</ele><time>2026-04-06T11:22:44Z</time></trkpt><trkpt lat="45.778838179464586" lon="10.758781765190454"><ele>326.0</ele><time>2026-04-06T11:22:45Z</time></trkpt><trkpt lat="45.778949734570546" lon="10.758783098691163"><ele>326.0</ele><time>2026-04-06T11:22:46Z</time></trkpt><trkpt lat="45.77906213065191" lon="10.758782783135707"><ele>326.0</ele><time>2026-04-06T11:22:47Z</time></trkpt><trkpt lat="45.7791627154842" lon="10.758823762390396"><ele>326.0</ele><time>2026-04-06T11:22:48Z</time></trkpt><trkpt lat="45.779279226409194" lon="10.758857766422972"><ele>326.0</ele><time>2026-04-06T11:22:49Z</time></trkpt><trkpt lat="45.77939910950513" lon="10.758925345172894"><ele>326.0</ele><time>2026-04-06T11:22:50Z</time></trkpt><trkpt lat="45.7795144391464" lon="10.75897885684442"><ele>326.0</ele><time>2026-04-06T11:22:51Z</time></trkpt><trkpt lat="45.77959179350875" lon="10.759033966230472"><ele>326.8571428571429</ele><time>2026-04-06T11:22:52Z</time></trkpt><trkpt lat="45.779657873447896" lon="10.759085399458348"><ele>327.71428571428567</ele><time>2026-04-06T11:22:53Z</time></trkpt><trkpt lat="45.779715176561545" lon="10.759149773960122"><ele>328.57142857142856</ele><time>2026-04-06T11:22:54Z</time></trkpt><trkpt lat="45.77975014715659" lon="10.759238559402139"><ele>329.42857142857144</ele><time>2026-04-06T11:22:55Z</time></trkpt><trkpt lat="45.779747496008405" lon="10.75934993764312"><ele>330.28571428571433</ele><time>2026-04-06T11:22:56Z</time></trkpt><trkpt lat="45.779711342571375" lon="10.759444558959391"><ele>331.1428571428571</ele><time>2026-04-06T11:22:57Z</time></trkpt><trkpt lat="45.779650805041825" lon="10.759501109715508"><ele>332.0</ele><time>2026-04-06T11:22:58Z</time></trkpt><trkpt lat="45.779588332196994" lon="10.75952013458638"><ele>331.0</ele><time>2026-04-06T11:22:59Z</time></trkpt><trkpt lat="45.77949051233638" lon="10.759474489490156"><ele>330.0</ele><time>2026-04-06T11:23:01Z</time></trkpt><trkpt lat="45.779417238156036" lon="10.75943630057342"><ele>329.0</ele><time>2026-04-06T11:23:03Z</time></trkpt><trkpt lat="45.77933570853824" lon="10.75940424552685"><ele>328.0</ele><time>2026-04-06T11:23:05Z</time></trkpt><trkpt lat="45.77925728270318" lon="10.75936896959578"><ele>327.0</ele><time>2026-04-06T11:23:07Z</time></trkpt><trkpt lat="45.77918111243323" lon="10.759337549109798"><ele>326.0</ele><time>2026-04-06T11:23:10Z</time></trkpt><trkpt lat="45.7791220062319" lon="10.759301688157022"><ele>326.0</ele><time>2026-04-06T11:23:15Z</time></trkpt><trkpt lat="45.77904294908422" lon="10.75932285190647"><ele>326.0</ele><time>2026-04-06T11:23:42.999Z</time></trkpt><trkpt lat="45.77894108380722" lon="10.759370445050216"><ele>326.0</ele><time>2026-04-06T11:23:43.999Z</time></trkpt><trkpt lat="45.77882555930533" lon="10.759422577202447"><ele>326.0</ele><time>2026-04-06T11:23:44.999Z</time></trkpt><trkpt lat="45.778708468752214" lon="10.759469520883858"><ele>326.0</ele><time>2026-04-06T11:23:45.999Z</time></trkpt><trkpt lat="45.778602782401784" lon="10.759539559388468"><ele>326.6</ele><time>2026-04-06T11:23:46.999Z</time></trkpt><trkpt lat="45.77851107876406" lon="10.759588750924255"><ele>327.20000000000005</ele><time>2026-04-06T11:23:47.999Z</time></trkpt><trkpt lat="45.77842568760703" lon="10.759631327011364"><ele>327.79999999999995</ele><time>2026-04-06T11:23:48.999Z</time></trkpt><trkpt lat="45.778353766807896" lon="10.7596656818969"><ele>328.4</ele><time>2026-04-06T11:23:49.999Z</time></trkpt><trkpt lat="45.77829108059097" lon="10.759686431349305"><ele>329.0</ele><time>2026-04-06T11:23:50.999Z</time></trkpt><trkpt lat="45.77818756823471" lon="10.759592466832801"><ele>329.0</ele><time>2026-04-06T11:23:52.999Z</time></trkpt><trkpt lat="45.77814372846295" lon="10.75949881505697"><ele>329.0</ele><time>2026-04-06T11:23:53.999Z</time></trkpt><trkpt lat="45.778118949505206" lon="10.759357617528073"><ele>329.0</ele><time>2026-04-06T11:23:54.999Z</time></trkpt><trkpt lat="45.77807059488125" lon="10.759232993376163"><ele>329.0</ele><time>2026-04-06T11:23:55.999Z</time></trkpt><trkpt lat="45.778024525107455" lon="10.759142039358013"><ele>329.0</ele><time>2026-04-06T11:23:56.999Z</time></trkpt><trkpt lat="45.77798210465472" lon="10.75906641090625"><ele>329.0</ele><time>2026-04-06T11:23:57.999Z</time></trkpt><trkpt lat="45.7780135740089" lon="10.7588746277946"><ele>328.4</ele><time>2026-04-06T11:23:59.999Z</time></trkpt><trkpt lat="45.778077276186636" lon="10.758767807280398"><ele>327.79999999999995</ele><time>2026-04-06T11:24:00.999Z</time></trkpt><trkpt lat="45.77811409528547" lon="10.758647202240548"><ele>327.20000000000005</ele><time>2026-04-06T11:24:01.999Z</time></trkpt><trkpt lat="45.77810635956842" lon="10.75851752816805"><ele>326.6</ele><time>2026-04-06T11:24:02.999Z</time></trkpt><trkpt lat="45.77806067236871" lon="10.75839668278783"><ele>326.0</ele><time>2026-04-06T11:24:03.999Z</time></trkpt><trkpt lat="45.77797954479621" lon="10.75831008586494"><ele>326.0</ele><time>2026-04-06T11:24:04.999Z</time></trkpt><trkpt lat="45.77786728859608" lon="10.758288403811484"><ele>326.0</ele><time>2026-04-06T11:24:05.999Z</time></trkpt><trkpt lat="45.77775362434131" lon="10.758335086562884"><ele>326.0</ele><time>2026-04-06T11:24:06.999Z</time></trkpt><trkpt lat="45.777635667838744" lon="10.758460166775219"><ele>326.0</ele><time>2026-04-06T11:24:07.999Z</time></trkpt><trkpt lat="45.77753148835513" lon="10.758622294381688"><ele>322.6</ele><time>2026-04-06T11:24:08.999Z</time></trkpt><trkpt lat="45.77744015665269" lon="10.758752753493175"><ele>319.20000000000005</ele><time>2026-04-06T11:24:09.999Z</time></trkpt><trkpt lat="45.777357691446035" lon="10.758851419157631"><ele>315.79999999999995</ele><time>2026-04-06T11:24:11Z</time></trkpt><trkpt lat="45.77728956662036" lon="10.758930397321038"><ele>312.4</ele><time>2026-04-06T11:24:12Z</time></trkpt><trkpt lat="45.7772205779494" lon="10.75901411090835"><ele>309.0</ele><time>2026-04-06T11:24:13Z</time></trkpt><trkpt lat="45.777155234648454" lon="10.759113548710877"><ele>309.0</ele><time>2026-04-06T11:24:14Z</time></trkpt><trkpt lat="45.77709228480599" lon="10.759220571712772"><ele>309.0</ele><time>2026-04-06T11:24:15Z</time></trkpt><trkpt lat="45.777059095402294" lon="10.759310699962374"><ele>309.0</ele><time>2026-04-06T11:24:16Z</time></trkpt><trkpt lat="45.776998456573665" lon="10.759431492373706"><ele>309.0</ele><time>2026-04-06T11:24:17Z</time></trkpt><trkpt lat="45.776932135118614" lon="10.759523616654493"><ele>309.0</ele><time>2026-04-06T11:24:18Z</time></trkpt><trkpt lat="45.77686677574852" lon="10.759612475690515"><ele>310.8333333333333</ele><time>2026-04-06T11:24:19Z</time></trkpt><trkpt lat="45.77682297789672" lon="10.759695724259068"><ele>312.6666666666667</ele><time>2026-04-06T11:24:20Z</time></trkpt><trkpt lat="45.77676297017344" lon="10.759764255628175"><ele>314.5</ele><time>2026-04-06T11:24:21Z</time></trkpt><trkpt lat="45.776690207115024" lon="10.759821670327371"><ele>316.33333333333337</ele><time>2026-04-06T11:24:22Z</time></trkpt><trkpt lat="45.77661371606518" lon="10.759879275094335"><ele>318.1666666666667</ele><time>2026-04-06T11:24:23Z</time></trkpt><trkpt lat="45.77653204253377" lon="10.75990065801201"><ele>320.0</ele><time>2026-04-06T11:24:24Z</time></trkpt><trkpt lat="45.77644907240847" lon="10.75999619613248"><ele>320.0</ele><time>2026-04-06T11:24:25Z</time></trkpt><trkpt lat="45.77637475432006" lon="10.760080488610964"><ele>320.0</ele><time>2026-04-06T11:24:26Z</time></trkpt><trkpt lat="45.776323109608185" lon="10.760179577520661"><ele>320.0</ele><time>2026-04-06T11:24:27Z</time></trkpt><trkpt lat="45.77630858035313" lon="10.760332013101088"><ele>320.0</ele><time>2026-04-06T11:24:28Z</time></trkpt><trkpt lat="45.776282670587115" lon="10.760467348980882"><ele>320.0</ele><time>2026-04-06T11:24:29Z</time></trkpt><trkpt lat="45.776262259459166" lon="10.760591344803952"><ele>318.5</ele><time>2026-04-06T11:24:30Z</time></trkpt><trkpt lat="45.77623151396212" lon="10.76068431995748"><ele>317.0</ele><time>2026-04-06T11:24:31Z</time></trkpt><trkpt lat="45.77622937657224" lon="10.760787330351482"><ele>315.5</ele><time>2026-04-06T11:24:32Z</time></trkpt><trkpt lat="45.776277852408306" lon="10.760887967613135"><ele>314.0</ele><time>2026-04-06T11:24:33Z</time></trkpt><trkpt lat="45.776369859421585" lon="10.760898808506981"><ele>312.5</ele><time>2026-04-06T11:24:34Z</time></trkpt><trkpt lat="45.776460162772636" lon="10.760916114762491"><ele>311.0</ele><time>2026-04-06T11:24:35Z</time></trkpt><trkpt lat="45.77655122429855" lon="10.760922991932556"><ele>311.0</ele><time>2026-04-06T11:24:36Z</time></trkpt><trkpt lat="45.776608681555956" lon="10.760767729626894"><ele>311.0</ele><time>2026-04-06T11:24:37Z</time></trkpt><trkpt lat="45.77670035353539" lon="10.760677540255887"><ele>311.0</ele><time>2026-04-06T11:24:38Z</time></trkpt><trkpt lat="45.776804906648344" lon="10.760603933645188"><ele>311.0</ele><time>2026-04-06T11:24:39Z</time></trkpt><trkpt lat="45.776917024683314" lon="10.760522417058622"><ele>311.0</ele><time>2026-04-06T11:24:40Z</time></trkpt><trkpt lat="45.77700524472374" lon="10.760424431120299"><ele>311.0</ele><time>2026-04-06T11:24:41Z</time></trkpt><trkpt lat="45.7770726434989" lon="10.76036288512704"><ele>311.0</ele><time>2026-04-06T11:24:42Z</time></trkpt><trkpt lat="45.777124219124445" lon="10.760265855231301"><ele>311.0</ele><time>2026-04-06T11:24:43Z</time></trkpt><trkpt lat="45.77717361570363" lon="10.760174682871689"><ele>311.0</ele><time>2026-04-06T11:24:44Z</time></trkpt><trkpt lat="45.777210851214726" lon="10.760077001012844"><ele>311.0</ele><time>2026-04-06T11:24:45Z</time></trkpt><trkpt lat="45.77719604885739" lon="10.759973761399541"><ele>311.0</ele><time>2026-04-06T11:24:46Z</time></trkpt><trkpt lat="45.77708823925164" lon="10.759889527330067"><ele>311.0</ele><time>2026-04-06T11:24:48Z</time></trkpt><trkpt lat="45.777029125134014" lon="10.75992070828228"><ele>311.0</ele><time>2026-04-06T11:24:49Z</time></trkpt><trkpt lat="45.776947526522775" lon="10.759988987495635"><ele>311.0</ele><time>2026-04-06T11:24:51Z</time></trkpt><trkpt lat="45.77689212600744" lon="10.760038750905492"><ele>311.0</ele><time>2026-04-06T11:24:53Z</time></trkpt><trkpt lat="45.77681136950338" lon="10.760121194542515"><ele>311.0</ele><time>2026-04-06T11:25:11Z</time></trkpt><trkpt lat="45.776750114704136" lon="10.760207576300228"><ele>311.0</ele><time>2026-04-06T11:25:13Z</time></trkpt><trkpt lat="45.77669907823317" lon="10.760269973313754"><ele>311.0</ele><time>2026-04-06T11:25:16Z</time></trkpt><trkpt lat="45.77664492680854" lon="10.760347941485989"><ele>311.0</ele><time>2026-04-06T11:25:19Z</time></trkpt><trkpt lat="45.77657967943016" lon="10.760348584131112"><ele>311.0</ele><time>2026-04-06T11:25:27.999Z</time></trkpt><trkpt lat="45.77665175948694" lon="10.760361297748824"><ele>311.0</ele><time>2026-04-06T11:31:37Z</time></trkpt><trkpt lat="45.77671043617072" lon="10.760395136756868"><ele>311.0</ele><time>2026-04-06T11:33:25Z</time></trkpt><trkpt lat="45.77675531775781" lon="10.76032810896799"><ele>311.0</ele><time>2026-04-06T11:33:50.999Z</time></trkpt><trkpt lat="45.77676420717809" lon="10.760234672943847"><ele>311.0</ele><time>2026-04-06T11:34:12.999Z</time></trkpt><trkpt lat="45.77681708115963" lon="10.76028443509563"><ele>311.0</ele><time>2026-04-06T11:34:23.999Z</time></trkpt><trkpt lat="45.7768369679657" lon="10.76037830399093"><ele>311.0</ele><time>2026-04-06T11:34:33.999Z</time></trkpt><trkpt lat="45.77683599077825" lon="10.760471689656663"><ele>311.0</ele><time>2026-04-06T11:34:38.999Z</time></trkpt><trkpt lat="45.77682767406331" lon="10.76057425863605"><ele>311.0</ele><time>2026-04-06T11:34:59Z</time></trkpt><trkpt lat="45.77681225890982" lon="10.760667835746082"><ele>311.0</ele><time>2026-04-06T11:35:09Z</time></trkpt><trkpt lat="45.77679380523922" lon="10.760549048608256"><ele>311.0</ele><time>2026-04-06T11:35:34Z</time></trkpt><trkpt lat="45.77676599535126" lon="10.760462452067237"><ele>311.0</ele><time>2026-04-06T11:35:37Z</time></trkpt><trkpt lat="45.776740080788734" lon="10.760353598853252"><ele>311.0</ele><time>2026-04-06T11:35:41Z</time></trkpt><trkpt lat="45.77674821606764" lon="10.760231732737386"><ele>311.0</ele><time>2026-04-06T11:35:56.999Z</time></trkpt><trkpt lat="45.77668867705938" lon="10.760380035592215"><ele>311.0</ele><time>2026-04-06T11:36:03.999Z</time></trkpt><trkpt lat="45.77670835533" lon="10.760294015386558"><ele>311.0</ele><time>2026-04-06T11:36:16.999Z</time></trkpt><trkpt lat="45.77669655574361" lon="10.760204084048866"><ele>311.0</ele><time>2026-04-06T11:36:44.999Z</time></trkpt><trkpt lat="45.77675093521897" lon="10.760113492690753"><ele>320.0</ele><time>2026-04-06T11:36:50Z</time></trkpt><trkpt lat="45.776676867007026" lon="10.760148019463438"><ele>320.0</ele><time>2026-04-06T11:36:58Z</time></trkpt><trkpt lat="45.776635991904996" lon="10.76022282604334"><ele>311.0</ele><time>2026-04-06T11:37:08Z</time></trkpt><trkpt lat="45.776711900049456" lon="10.760409280669316"><ele>311.0</ele><time>2026-04-06T11:37:26Z</time></trkpt><trkpt lat="45.776633441854834" lon="10.760371641788119"><ele>311.0</ele><time>2026-04-06T11:37:39Z</time></trkpt></trkseg></trk></gpx>